<?xml version="1.0" encoding="UTF-8" standalone="no" ?>
<gpx xmlns="http://www.topografix.com/GPX/1/1" xmlns:xsi="http://www.w3.org/2001/XMLSchema-instance" xsi:schemaLocation="http://www.topografix.com/GPX/1/1 http://www.topografix.com/GPX/1/1/gpx.xsd" version="1.1" creator="VisuGPX - https://www.visugpx.com">
  <metadata>
    <name>circuit bleu de la randonnée de MONDONVILLE</name>
    <desc><![CDATA[Circuit de la randonnée du 6 mars 2016]]></desc>
  </metadata>
  <trk>
    <name><![CDATA[Sortie à vélo en après-midi]]></name>
    <trkseg>
      <trkpt lat="43.67252" lon="1.28422">
        <ele>179.9</ele>
        <time>2015-11-11T12:29:19Z</time>
      </trkpt>
      <trkpt lat="43.6727" lon="1.28431">
        <ele>179.7</ele>
        <time>2015-11-11T12:29:56Z</time>
      </trkpt>
      <trkpt lat="43.67268" lon="1.28427">
        <ele>179.8</ele>
        <time>2015-11-11T12:29:59Z</time>
      </trkpt>
      <trkpt lat="43.67267" lon="1.28422">
        <ele>179.9</ele>
        <time>2015-11-11T12:30:01Z</time>
      </trkpt>
      <trkpt lat="43.67267" lon="1.28415">
        <ele>180</ele>
        <time>2015-11-11T12:30:03Z</time>
      </trkpt>
      <trkpt lat="43.67267" lon="1.28407">
        <ele>180.2</ele>
        <time>2015-11-11T12:30:05Z</time>
      </trkpt>
      <trkpt lat="43.67268" lon="1.28403">
        <ele>180.2</ele>
        <time>2015-11-11T12:30:06Z</time>
      </trkpt>
      <trkpt lat="43.67269" lon="1.28399">
        <ele>180.3</ele>
        <time>2015-11-11T12:30:07Z</time>
      </trkpt>
      <trkpt lat="43.67271" lon="1.28396">
        <ele>180.4</ele>
        <time>2015-11-11T12:30:08Z</time>
      </trkpt>
      <trkpt lat="43.67275" lon="1.2839">
        <ele>180.5</ele>
        <time>2015-11-11T12:30:10Z</time>
      </trkpt>
      <trkpt lat="43.67278" lon="1.28387">
        <ele>180.6</ele>
        <time>2015-11-11T12:30:11Z</time>
      </trkpt>
      <trkpt lat="43.6728" lon="1.28384">
        <ele>180.7</ele>
        <time>2015-11-11T12:30:12Z</time>
      </trkpt>
      <trkpt lat="43.67283" lon="1.28381">
        <ele>180.8</ele>
        <time>2015-11-11T12:30:13Z</time>
      </trkpt>
      <trkpt lat="43.67285" lon="1.28376">
        <ele>180.9</ele>
        <time>2015-11-11T12:30:14Z</time>
      </trkpt>
      <trkpt lat="43.67286" lon="1.28371">
        <ele>181.1</ele>
        <time>2015-11-11T12:30:15Z</time>
      </trkpt>
      <trkpt lat="43.67287" lon="1.28365">
        <ele>181.3</ele>
        <time>2015-11-11T12:30:16Z</time>
      </trkpt>
      <trkpt lat="43.67287" lon="1.2836">
        <ele>181.5</ele>
        <time>2015-11-11T12:30:17Z</time>
      </trkpt>
      <trkpt lat="43.67286" lon="1.28355">
        <ele>181.6</ele>
        <time>2015-11-11T12:30:18Z</time>
      </trkpt>
      <trkpt lat="43.67286" lon="1.2835">
        <ele>181.8</ele>
        <time>2015-11-11T12:30:19Z</time>
      </trkpt>
      <trkpt lat="43.67286" lon="1.28345">
        <ele>182</ele>
        <time>2015-11-11T12:30:20Z</time>
      </trkpt>
      <trkpt lat="43.67287" lon="1.2834">
        <ele>182.2</ele>
        <time>2015-11-11T12:30:21Z</time>
      </trkpt>
      <trkpt lat="43.67289" lon="1.28335">
        <ele>182.4</ele>
        <time>2015-11-11T12:30:22Z</time>
      </trkpt>
      <trkpt lat="43.67293" lon="1.28331">
        <ele>182.6</ele>
        <time>2015-11-11T12:30:23Z</time>
      </trkpt>
      <trkpt lat="43.67296" lon="1.28329">
        <ele>182.6</ele>
        <time>2015-11-11T12:30:24Z</time>
      </trkpt>
      <trkpt lat="43.673" lon="1.28325">
        <ele>182.7</ele>
        <time>2015-11-11T12:30:25Z</time>
      </trkpt>
      <trkpt lat="43.67303" lon="1.28323">
        <ele>182.7</ele>
        <time>2015-11-11T12:30:26Z</time>
      </trkpt>
      <trkpt lat="43.67307" lon="1.2832">
        <ele>182.7</ele>
        <time>2015-11-11T12:30:27Z</time>
      </trkpt>
      <trkpt lat="43.6731" lon="1.28317">
        <ele>182.8</ele>
        <time>2015-11-11T12:30:28Z</time>
      </trkpt>
      <trkpt lat="43.67313" lon="1.28314">
        <ele>182.8</ele>
        <time>2015-11-11T12:30:29Z</time>
      </trkpt>
      <trkpt lat="43.67319" lon="1.28309">
        <ele>182.9</ele>
        <time>2015-11-11T12:30:30Z</time>
      </trkpt>
      <trkpt lat="43.67323" lon="1.28306">
        <ele>182.9</ele>
        <time>2015-11-11T12:30:31Z</time>
      </trkpt>
      <trkpt lat="43.67329" lon="1.28302">
        <ele>182.9</ele>
        <time>2015-11-11T12:30:33Z</time>
      </trkpt>
      <trkpt lat="43.67333" lon="1.28299">
        <ele>182.8</ele>
        <time>2015-11-11T12:30:35Z</time>
      </trkpt>
      <trkpt lat="43.6734" lon="1.28293">
        <ele>182.8</ele>
        <time>2015-11-11T12:30:36Z</time>
      </trkpt>
      <trkpt lat="43.67346" lon="1.28291">
        <ele>182.7</ele>
        <time>2015-11-11T12:30:37Z</time>
      </trkpt>
      <trkpt lat="43.67349" lon="1.28289">
        <ele>182.6</ele>
        <time>2015-11-11T12:30:38Z</time>
      </trkpt>
      <trkpt lat="43.67352" lon="1.28286">
        <ele>182.5</ele>
        <time>2015-11-11T12:30:39Z</time>
      </trkpt>
      <trkpt lat="43.67358" lon="1.28281">
        <ele>182.3</ele>
        <time>2015-11-11T12:30:40Z</time>
      </trkpt>
      <trkpt lat="43.6736" lon="1.28279">
        <ele>182.2</ele>
        <time>2015-11-11T12:30:41Z</time>
      </trkpt>
      <trkpt lat="43.67364" lon="1.28276">
        <ele>182</ele>
        <time>2015-11-11T12:30:42Z</time>
      </trkpt>
      <trkpt lat="43.67368" lon="1.28272">
        <ele>181.9</ele>
        <time>2015-11-11T12:30:43Z</time>
      </trkpt>
      <trkpt lat="43.67372" lon="1.28268">
        <ele>181.8</ele>
        <time>2015-11-11T12:30:44Z</time>
      </trkpt>
      <trkpt lat="43.67377" lon="1.28262">
        <ele>181.6</ele>
        <time>2015-11-11T12:30:45Z</time>
      </trkpt>
      <trkpt lat="43.67383" lon="1.28257">
        <ele>181.6</ele>
        <time>2015-11-11T12:30:47Z</time>
      </trkpt>
      <trkpt lat="43.67386" lon="1.28255">
        <ele>181.6</ele>
        <time>2015-11-11T12:30:48Z</time>
      </trkpt>
      <trkpt lat="43.6739" lon="1.2825">
        <ele>181.6</ele>
        <time>2015-11-11T12:30:49Z</time>
      </trkpt>
      <trkpt lat="43.67394" lon="1.28246">
        <ele>181.6</ele>
        <time>2015-11-11T12:30:50Z</time>
      </trkpt>
      <trkpt lat="43.67401" lon="1.2824">
        <ele>181.6</ele>
        <time>2015-11-11T12:30:52Z</time>
      </trkpt>
      <trkpt lat="43.67406" lon="1.28238">
        <ele>181.6</ele>
        <time>2015-11-11T12:30:53Z</time>
      </trkpt>
      <trkpt lat="43.67408" lon="1.28234">
        <ele>181.6</ele>
        <time>2015-11-11T12:30:54Z</time>
      </trkpt>
      <trkpt lat="43.67413" lon="1.28231">
        <ele>181.6</ele>
        <time>2015-11-11T12:30:55Z</time>
      </trkpt>
      <trkpt lat="43.67418" lon="1.28228">
        <ele>181.6</ele>
        <time>2015-11-11T12:30:56Z</time>
      </trkpt>
      <trkpt lat="43.67422" lon="1.28226">
        <ele>181.7</ele>
        <time>2015-11-11T12:30:57Z</time>
      </trkpt>
      <trkpt lat="43.67425" lon="1.28222">
        <ele>181.7</ele>
        <time>2015-11-11T12:30:58Z</time>
      </trkpt>
      <trkpt lat="43.6743" lon="1.28217">
        <ele>181.7</ele>
        <time>2015-11-11T12:30:59Z</time>
      </trkpt>
      <trkpt lat="43.67433" lon="1.28213">
        <ele>181.7</ele>
        <time>2015-11-11T12:31:00Z</time>
      </trkpt>
      <trkpt lat="43.67438" lon="1.2821">
        <ele>181.8</ele>
        <time>2015-11-11T12:31:01Z</time>
      </trkpt>
      <trkpt lat="43.67442" lon="1.28208">
        <ele>181.8</ele>
        <time>2015-11-11T12:31:02Z</time>
      </trkpt>
      <trkpt lat="43.67446" lon="1.28205">
        <ele>181.8</ele>
        <time>2015-11-11T12:31:03Z</time>
      </trkpt>
      <trkpt lat="43.67449" lon="1.28199">
        <ele>181.8</ele>
        <time>2015-11-11T12:31:04Z</time>
      </trkpt>
      <trkpt lat="43.67454" lon="1.28195">
        <ele>181.8</ele>
        <time>2015-11-11T12:31:05Z</time>
      </trkpt>
      <trkpt lat="43.67458" lon="1.28191">
        <ele>181.8</ele>
        <time>2015-11-11T12:31:06Z</time>
      </trkpt>
      <trkpt lat="43.67462" lon="1.28187">
        <ele>181.8</ele>
        <time>2015-11-11T12:31:07Z</time>
      </trkpt>
      <trkpt lat="43.67467" lon="1.28183">
        <ele>181.9</ele>
        <time>2015-11-11T12:31:08Z</time>
      </trkpt>
      <trkpt lat="43.67472" lon="1.28179">
        <ele>181.9</ele>
        <time>2015-11-11T12:31:09Z</time>
      </trkpt>
      <trkpt lat="43.67476" lon="1.28176">
        <ele>182</ele>
        <time>2015-11-11T12:31:10Z</time>
      </trkpt>
      <trkpt lat="43.67481" lon="1.28173">
        <ele>182.1</ele>
        <time>2015-11-11T12:31:11Z</time>
      </trkpt>
      <trkpt lat="43.67486" lon="1.28169">
        <ele>182.2</ele>
        <time>2015-11-11T12:31:12Z</time>
      </trkpt>
      <trkpt lat="43.67489" lon="1.28167">
        <ele>182.2</ele>
        <time>2015-11-11T12:31:13Z</time>
      </trkpt>
      <trkpt lat="43.67493" lon="1.28164">
        <ele>182.3</ele>
        <time>2015-11-11T12:31:14Z</time>
      </trkpt>
      <trkpt lat="43.67498" lon="1.28159">
        <ele>182.4</ele>
        <time>2015-11-11T12:31:15Z</time>
      </trkpt>
      <trkpt lat="43.67502" lon="1.28155">
        <ele>182.5</ele>
        <time>2015-11-11T12:31:16Z</time>
      </trkpt>
      <trkpt lat="43.67506" lon="1.28151">
        <ele>182.7</ele>
        <time>2015-11-11T12:31:17Z</time>
      </trkpt>
      <trkpt lat="43.6751" lon="1.28146">
        <ele>182.8</ele>
        <time>2015-11-11T12:31:18Z</time>
      </trkpt>
      <trkpt lat="43.67515" lon="1.28142">
        <ele>183</ele>
        <time>2015-11-11T12:31:19Z</time>
      </trkpt>
      <trkpt lat="43.67519" lon="1.28138">
        <ele>183.1</ele>
        <time>2015-11-11T12:31:20Z</time>
      </trkpt>
      <trkpt lat="43.67524" lon="1.28134">
        <ele>183.3</ele>
        <time>2015-11-11T12:31:21Z</time>
      </trkpt>
      <trkpt lat="43.67528" lon="1.28131">
        <ele>183.5</ele>
        <time>2015-11-11T12:31:22Z</time>
      </trkpt>
      <trkpt lat="43.67533" lon="1.28128">
        <ele>183.6</ele>
        <time>2015-11-11T12:31:23Z</time>
      </trkpt>
      <trkpt lat="43.67538" lon="1.28123">
        <ele>183.8</ele>
        <time>2015-11-11T12:31:24Z</time>
      </trkpt>
      <trkpt lat="43.67542" lon="1.28118">
        <ele>183.7</ele>
        <time>2015-11-11T12:31:25Z</time>
      </trkpt>
      <trkpt lat="43.67547" lon="1.28113">
        <ele>183.5</ele>
        <time>2015-11-11T12:31:26Z</time>
      </trkpt>
      <trkpt lat="43.6755" lon="1.2811">
        <ele>183.3</ele>
        <time>2015-11-11T12:31:27Z</time>
      </trkpt>
      <trkpt lat="43.67555" lon="1.28107">
        <ele>183.2</ele>
        <time>2015-11-11T12:31:28Z</time>
      </trkpt>
      <trkpt lat="43.67559" lon="1.28103">
        <ele>183</ele>
        <time>2015-11-11T12:31:29Z</time>
      </trkpt>
      <trkpt lat="43.67565" lon="1.28097">
        <ele>182.8</ele>
        <time>2015-11-11T12:31:30Z</time>
      </trkpt>
      <trkpt lat="43.6757" lon="1.28093">
        <ele>182.7</ele>
        <time>2015-11-11T12:31:31Z</time>
      </trkpt>
      <trkpt lat="43.67573" lon="1.28089">
        <ele>182.6</ele>
        <time>2015-11-11T12:31:32Z</time>
      </trkpt>
      <trkpt lat="43.67579" lon="1.28085">
        <ele>182.5</ele>
        <time>2015-11-11T12:31:33Z</time>
      </trkpt>
      <trkpt lat="43.67584" lon="1.28079">
        <ele>182.4</ele>
        <time>2015-11-11T12:31:34Z</time>
      </trkpt>
      <trkpt lat="43.67589" lon="1.28075">
        <ele>182.4</ele>
        <time>2015-11-11T12:31:35Z</time>
      </trkpt>
      <trkpt lat="43.67594" lon="1.2807">
        <ele>182.4</ele>
        <time>2015-11-11T12:31:36Z</time>
      </trkpt>
      <trkpt lat="43.67599" lon="1.28065">
        <ele>182.4</ele>
        <time>2015-11-11T12:31:37Z</time>
      </trkpt>
      <trkpt lat="43.67604" lon="1.28061">
        <ele>182.5</ele>
        <time>2015-11-11T12:31:38Z</time>
      </trkpt>
      <trkpt lat="43.67607" lon="1.28059">
        <ele>182.5</ele>
        <time>2015-11-11T12:31:39Z</time>
      </trkpt>
      <trkpt lat="43.67612" lon="1.28055">
        <ele>182.6</ele>
        <time>2015-11-11T12:31:40Z</time>
      </trkpt>
      <trkpt lat="43.67617" lon="1.28051">
        <ele>182.7</ele>
        <time>2015-11-11T12:31:41Z</time>
      </trkpt>
      <trkpt lat="43.67622" lon="1.28047">
        <ele>182.9</ele>
        <time>2015-11-11T12:31:42Z</time>
      </trkpt>
      <trkpt lat="43.67626" lon="1.28044">
        <ele>183</ele>
        <time>2015-11-11T12:31:43Z</time>
      </trkpt>
      <trkpt lat="43.67631" lon="1.2804">
        <ele>182.8</ele>
        <time>2015-11-11T12:31:44Z</time>
      </trkpt>
      <trkpt lat="43.67636" lon="1.28036">
        <ele>182.6</ele>
        <time>2015-11-11T12:31:45Z</time>
      </trkpt>
      <trkpt lat="43.67642" lon="1.28033">
        <ele>182.4</ele>
        <time>2015-11-11T12:31:46Z</time>
      </trkpt>
      <trkpt lat="43.67647" lon="1.28029">
        <ele>182.2</ele>
        <time>2015-11-11T12:31:47Z</time>
      </trkpt>
      <trkpt lat="43.67651" lon="1.28026">
        <ele>182.1</ele>
        <time>2015-11-11T12:31:48Z</time>
      </trkpt>
      <trkpt lat="43.67655" lon="1.28024">
        <ele>181.9</ele>
        <time>2015-11-11T12:31:49Z</time>
      </trkpt>
      <trkpt lat="43.67659" lon="1.28021">
        <ele>181.8</ele>
        <time>2015-11-11T12:31:50Z</time>
      </trkpt>
      <trkpt lat="43.67664" lon="1.28018">
        <ele>181.6</ele>
        <time>2015-11-11T12:31:51Z</time>
      </trkpt>
      <trkpt lat="43.67668" lon="1.28013">
        <ele>181.5</ele>
        <time>2015-11-11T12:31:52Z</time>
      </trkpt>
      <trkpt lat="43.67673" lon="1.28009">
        <ele>181.3</ele>
        <time>2015-11-11T12:31:53Z</time>
      </trkpt>
      <trkpt lat="43.67678" lon="1.28007">
        <ele>181.2</ele>
        <time>2015-11-11T12:31:54Z</time>
      </trkpt>
      <trkpt lat="43.67682" lon="1.28004">
        <ele>181</ele>
        <time>2015-11-11T12:31:55Z</time>
      </trkpt>
      <trkpt lat="43.67687" lon="1.27998">
        <ele>180.9</ele>
        <time>2015-11-11T12:31:56Z</time>
      </trkpt>
      <trkpt lat="43.67692" lon="1.27994">
        <ele>180.7</ele>
        <time>2015-11-11T12:31:57Z</time>
      </trkpt>
      <trkpt lat="43.67696" lon="1.27988">
        <ele>180.6</ele>
        <time>2015-11-11T12:31:58Z</time>
      </trkpt>
      <trkpt lat="43.677" lon="1.27984">
        <ele>180.4</ele>
        <time>2015-11-11T12:31:59Z</time>
      </trkpt>
      <trkpt lat="43.67704" lon="1.2798">
        <ele>180.3</ele>
        <time>2015-11-11T12:32:00Z</time>
      </trkpt>
      <trkpt lat="43.67709" lon="1.27975">
        <ele>180.2</ele>
        <time>2015-11-11T12:32:01Z</time>
      </trkpt>
      <trkpt lat="43.67713" lon="1.2797">
        <ele>180.2</ele>
        <time>2015-11-11T12:32:02Z</time>
      </trkpt>
      <trkpt lat="43.67717" lon="1.27965">
        <ele>180.2</ele>
        <time>2015-11-11T12:32:03Z</time>
      </trkpt>
      <trkpt lat="43.67721" lon="1.27961">
        <ele>180.2</ele>
        <time>2015-11-11T12:32:04Z</time>
      </trkpt>
      <trkpt lat="43.67725" lon="1.27956">
        <ele>180.3</ele>
        <time>2015-11-11T12:32:05Z</time>
      </trkpt>
      <trkpt lat="43.67729" lon="1.27951">
        <ele>180.4</ele>
        <time>2015-11-11T12:32:06Z</time>
      </trkpt>
      <trkpt lat="43.67733" lon="1.27946">
        <ele>180.5</ele>
        <time>2015-11-11T12:32:07Z</time>
      </trkpt>
      <trkpt lat="43.67737" lon="1.27942">
        <ele>180.7</ele>
        <time>2015-11-11T12:32:08Z</time>
      </trkpt>
      <trkpt lat="43.67742" lon="1.27939">
        <ele>180.8</ele>
        <time>2015-11-11T12:32:09Z</time>
      </trkpt>
      <trkpt lat="43.67747" lon="1.27934">
        <ele>180.9</ele>
        <time>2015-11-11T12:32:10Z</time>
      </trkpt>
      <trkpt lat="43.67751" lon="1.27929">
        <ele>181</ele>
        <time>2015-11-11T12:32:11Z</time>
      </trkpt>
      <trkpt lat="43.67756" lon="1.27924">
        <ele>181.2</ele>
        <time>2015-11-11T12:32:12Z</time>
      </trkpt>
      <trkpt lat="43.67759" lon="1.27919">
        <ele>181.3</ele>
        <time>2015-11-11T12:32:13Z</time>
      </trkpt>
      <trkpt lat="43.67763" lon="1.27913">
        <ele>181.4</ele>
        <time>2015-11-11T12:32:14Z</time>
      </trkpt>
      <trkpt lat="43.67768" lon="1.27907">
        <ele>181.5</ele>
        <time>2015-11-11T12:32:15Z</time>
      </trkpt>
      <trkpt lat="43.67773" lon="1.279">
        <ele>181.6</ele>
        <time>2015-11-11T12:32:16Z</time>
      </trkpt>
      <trkpt lat="43.67778" lon="1.27896">
        <ele>181.7</ele>
        <time>2015-11-11T12:32:17Z</time>
      </trkpt>
      <trkpt lat="43.67782" lon="1.27892">
        <ele>181.8</ele>
        <time>2015-11-11T12:32:18Z</time>
      </trkpt>
      <trkpt lat="43.67785" lon="1.27888">
        <ele>181.8</ele>
        <time>2015-11-11T12:32:19Z</time>
      </trkpt>
      <trkpt lat="43.67789" lon="1.27883">
        <ele>181.9</ele>
        <time>2015-11-11T12:32:20Z</time>
      </trkpt>
      <trkpt lat="43.67792" lon="1.27879">
        <ele>181.9</ele>
        <time>2015-11-11T12:32:21Z</time>
      </trkpt>
      <trkpt lat="43.67797" lon="1.27874">
        <ele>182</ele>
        <time>2015-11-11T12:32:22Z</time>
      </trkpt>
      <trkpt lat="43.67802" lon="1.2787">
        <ele>181.8</ele>
        <time>2015-11-11T12:32:23Z</time>
      </trkpt>
      <trkpt lat="43.67807" lon="1.27864">
        <ele>181.6</ele>
        <time>2015-11-11T12:32:24Z</time>
      </trkpt>
      <trkpt lat="43.67811" lon="1.27859">
        <ele>181.4</ele>
        <time>2015-11-11T12:32:25Z</time>
      </trkpt>
      <trkpt lat="43.67814" lon="1.27854">
        <ele>181.2</ele>
        <time>2015-11-11T12:32:26Z</time>
      </trkpt>
      <trkpt lat="43.67818" lon="1.27847">
        <ele>181</ele>
        <time>2015-11-11T12:32:27Z</time>
      </trkpt>
      <trkpt lat="43.67822" lon="1.27842">
        <ele>180.8</ele>
        <time>2015-11-11T12:32:28Z</time>
      </trkpt>
      <trkpt lat="43.67827" lon="1.27835">
        <ele>180.7</ele>
        <time>2015-11-11T12:32:29Z</time>
      </trkpt>
      <trkpt lat="43.67831" lon="1.2783">
        <ele>180.6</ele>
        <time>2015-11-11T12:32:30Z</time>
      </trkpt>
      <trkpt lat="43.67835" lon="1.27825">
        <ele>180.5</ele>
        <time>2015-11-11T12:32:31Z</time>
      </trkpt>
      <trkpt lat="43.67839" lon="1.2782">
        <ele>180.5</ele>
        <time>2015-11-11T12:32:32Z</time>
      </trkpt>
      <trkpt lat="43.67844" lon="1.27814">
        <ele>180.5</ele>
        <time>2015-11-11T12:32:33Z</time>
      </trkpt>
      <trkpt lat="43.67848" lon="1.27809">
        <ele>180.4</ele>
        <time>2015-11-11T12:32:34Z</time>
      </trkpt>
      <trkpt lat="43.67852" lon="1.27804">
        <ele>180.4</ele>
        <time>2015-11-11T12:32:35Z</time>
      </trkpt>
      <trkpt lat="43.67857" lon="1.27798">
        <ele>180.5</ele>
        <time>2015-11-11T12:32:36Z</time>
      </trkpt>
      <trkpt lat="43.67861" lon="1.2779">
        <ele>180.5</ele>
        <time>2015-11-11T12:32:37Z</time>
      </trkpt>
      <trkpt lat="43.67865" lon="1.27788">
        <ele>180.6</ele>
        <time>2015-11-11T12:32:38Z</time>
      </trkpt>
      <trkpt lat="43.6787" lon="1.27792">
        <ele>180.8</ele>
        <time>2015-11-11T12:32:39Z</time>
      </trkpt>
      <trkpt lat="43.67875" lon="1.27787">
        <ele>180.9</ele>
        <time>2015-11-11T12:32:40Z</time>
      </trkpt>
      <trkpt lat="43.67879" lon="1.27783">
        <ele>180.8</ele>
        <time>2015-11-11T12:32:41Z</time>
      </trkpt>
      <trkpt lat="43.67885" lon="1.27783">
        <ele>180.8</ele>
        <time>2015-11-11T12:32:42Z</time>
      </trkpt>
      <trkpt lat="43.6789" lon="1.2778">
        <ele>180.7</ele>
        <time>2015-11-11T12:32:43Z</time>
      </trkpt>
      <trkpt lat="43.67895" lon="1.27774">
        <ele>180.6</ele>
        <time>2015-11-11T12:32:44Z</time>
      </trkpt>
      <trkpt lat="43.67899" lon="1.27772">
        <ele>180.5</ele>
        <time>2015-11-11T12:32:45Z</time>
      </trkpt>
      <trkpt lat="43.67904" lon="1.27767">
        <ele>180.5</ele>
        <time>2015-11-11T12:32:46Z</time>
      </trkpt>
      <trkpt lat="43.67909" lon="1.27763">
        <ele>180.4</ele>
        <time>2015-11-11T12:32:47Z</time>
      </trkpt>
      <trkpt lat="43.67913" lon="1.27759">
        <ele>180.3</ele>
        <time>2015-11-11T12:32:48Z</time>
      </trkpt>
      <trkpt lat="43.67918" lon="1.27754">
        <ele>180.3</ele>
        <time>2015-11-11T12:32:49Z</time>
      </trkpt>
      <trkpt lat="43.67922" lon="1.2775">
        <ele>180.2</ele>
        <time>2015-11-11T12:32:50Z</time>
      </trkpt>
      <trkpt lat="43.67926" lon="1.27746">
        <ele>180.2</ele>
        <time>2015-11-11T12:32:51Z</time>
      </trkpt>
      <trkpt lat="43.67929" lon="1.27742">
        <ele>180.1</ele>
        <time>2015-11-11T12:32:52Z</time>
      </trkpt>
      <trkpt lat="43.67934" lon="1.27738">
        <ele>180.1</ele>
        <time>2015-11-11T12:32:53Z</time>
      </trkpt>
      <trkpt lat="43.67939" lon="1.27732">
        <ele>180.1</ele>
        <time>2015-11-11T12:32:54Z</time>
      </trkpt>
      <trkpt lat="43.67945" lon="1.27728">
        <ele>180</ele>
        <time>2015-11-11T12:32:55Z</time>
      </trkpt>
      <trkpt lat="43.67949" lon="1.27718">
        <ele>180</ele>
        <time>2015-11-11T12:32:56Z</time>
      </trkpt>
      <trkpt lat="43.67953" lon="1.27713">
        <ele>180</ele>
        <time>2015-11-11T12:32:57Z</time>
      </trkpt>
      <trkpt lat="43.67958" lon="1.27708">
        <ele>180</ele>
        <time>2015-11-11T12:32:58Z</time>
      </trkpt>
      <trkpt lat="43.67963" lon="1.27706">
        <ele>180</ele>
        <time>2015-11-11T12:32:59Z</time>
      </trkpt>
      <trkpt lat="43.67967" lon="1.27703">
        <ele>179.9</ele>
        <time>2015-11-11T12:33:00Z</time>
      </trkpt>
      <trkpt lat="43.67972" lon="1.27702">
        <ele>179.9</ele>
        <time>2015-11-11T12:33:01Z</time>
      </trkpt>
      <trkpt lat="43.67977" lon="1.27697">
        <ele>179.9</ele>
        <time>2015-11-11T12:33:02Z</time>
      </trkpt>
      <trkpt lat="43.67982" lon="1.27692">
        <ele>179.8</ele>
        <time>2015-11-11T12:33:03Z</time>
      </trkpt>
      <trkpt lat="43.67987" lon="1.2769">
        <ele>179.8</ele>
        <time>2015-11-11T12:33:04Z</time>
      </trkpt>
      <trkpt lat="43.67992" lon="1.27686">
        <ele>179.7</ele>
        <time>2015-11-11T12:33:05Z</time>
      </trkpt>
      <trkpt lat="43.67996" lon="1.27682">
        <ele>179.7</ele>
        <time>2015-11-11T12:33:06Z</time>
      </trkpt>
      <trkpt lat="43.68001" lon="1.27678">
        <ele>179.6</ele>
        <time>2015-11-11T12:33:07Z</time>
      </trkpt>
      <trkpt lat="43.68004" lon="1.27673">
        <ele>179.6</ele>
        <time>2015-11-11T12:33:08Z</time>
      </trkpt>
      <trkpt lat="43.6801" lon="1.27668">
        <ele>179.5</ele>
        <time>2015-11-11T12:33:09Z</time>
      </trkpt>
      <trkpt lat="43.68016" lon="1.27664">
        <ele>179.5</ele>
        <time>2015-11-11T12:33:10Z</time>
      </trkpt>
      <trkpt lat="43.68021" lon="1.2766">
        <ele>179.4</ele>
        <time>2015-11-11T12:33:11Z</time>
      </trkpt>
      <trkpt lat="43.68025" lon="1.27657">
        <ele>179.4</ele>
        <time>2015-11-11T12:33:12Z</time>
      </trkpt>
      <trkpt lat="43.6803" lon="1.27653">
        <ele>179.3</ele>
        <time>2015-11-11T12:33:13Z</time>
      </trkpt>
      <trkpt lat="43.68036" lon="1.2765">
        <ele>179.3</ele>
        <time>2015-11-11T12:33:14Z</time>
      </trkpt>
      <trkpt lat="43.68042" lon="1.27646">
        <ele>179.3</ele>
        <time>2015-11-11T12:33:15Z</time>
      </trkpt>
      <trkpt lat="43.68048" lon="1.27643">
        <ele>179.2</ele>
        <time>2015-11-11T12:33:16Z</time>
      </trkpt>
      <trkpt lat="43.68054" lon="1.2764">
        <ele>179.2</ele>
        <time>2015-11-11T12:33:17Z</time>
      </trkpt>
      <trkpt lat="43.68059" lon="1.27636">
        <ele>179.2</ele>
        <time>2015-11-11T12:33:18Z</time>
      </trkpt>
      <trkpt lat="43.68065" lon="1.27634">
        <ele>179.1</ele>
        <time>2015-11-11T12:33:19Z</time>
      </trkpt>
      <trkpt lat="43.68071" lon="1.27631">
        <ele>179.1</ele>
        <time>2015-11-11T12:33:20Z</time>
      </trkpt>
      <trkpt lat="43.68076" lon="1.27628">
        <ele>179</ele>
        <time>2015-11-11T12:33:21Z</time>
      </trkpt>
      <trkpt lat="43.68082" lon="1.27624">
        <ele>179</ele>
        <time>2015-11-11T12:33:22Z</time>
      </trkpt>
      <trkpt lat="43.68088" lon="1.27621">
        <ele>179</ele>
        <time>2015-11-11T12:33:23Z</time>
      </trkpt>
      <trkpt lat="43.68093" lon="1.27617">
        <ele>179</ele>
        <time>2015-11-11T12:33:24Z</time>
      </trkpt>
      <trkpt lat="43.68097" lon="1.27616">
        <ele>179</ele>
        <time>2015-11-11T12:33:25Z</time>
      </trkpt>
      <trkpt lat="43.68103" lon="1.27612">
        <ele>179</ele>
        <time>2015-11-11T12:33:26Z</time>
      </trkpt>
      <trkpt lat="43.68108" lon="1.27607">
        <ele>179</ele>
        <time>2015-11-11T12:33:27Z</time>
      </trkpt>
      <trkpt lat="43.68115" lon="1.27605">
        <ele>179</ele>
        <time>2015-11-11T12:33:28Z</time>
      </trkpt>
      <trkpt lat="43.6812" lon="1.27603">
        <ele>179</ele>
        <time>2015-11-11T12:33:29Z</time>
      </trkpt>
      <trkpt lat="43.68125" lon="1.27599">
        <ele>179</ele>
        <time>2015-11-11T12:33:30Z</time>
      </trkpt>
      <trkpt lat="43.68132" lon="1.27596">
        <ele>178.9</ele>
        <time>2015-11-11T12:33:31Z</time>
      </trkpt>
      <trkpt lat="43.68138" lon="1.27592">
        <ele>178.9</ele>
        <time>2015-11-11T12:33:32Z</time>
      </trkpt>
      <trkpt lat="43.68144" lon="1.27589">
        <ele>178.9</ele>
        <time>2015-11-11T12:33:33Z</time>
      </trkpt>
      <trkpt lat="43.68149" lon="1.27585">
        <ele>178.8</ele>
        <time>2015-11-11T12:33:34Z</time>
      </trkpt>
      <trkpt lat="43.68154" lon="1.27582">
        <ele>178.8</ele>
        <time>2015-11-11T12:33:35Z</time>
      </trkpt>
      <trkpt lat="43.6816" lon="1.2758">
        <ele>178.8</ele>
        <time>2015-11-11T12:33:36Z</time>
      </trkpt>
      <trkpt lat="43.68165" lon="1.27578">
        <ele>178.8</ele>
        <time>2015-11-11T12:33:37Z</time>
      </trkpt>
      <trkpt lat="43.68171" lon="1.27573">
        <ele>178.8</ele>
        <time>2015-11-11T12:33:38Z</time>
      </trkpt>
      <trkpt lat="43.68177" lon="1.27571">
        <ele>178.8</ele>
        <time>2015-11-11T12:33:39Z</time>
      </trkpt>
      <trkpt lat="43.68182" lon="1.27569">
        <ele>178.8</ele>
        <time>2015-11-11T12:33:40Z</time>
      </trkpt>
      <trkpt lat="43.68189" lon="1.27567">
        <ele>178.8</ele>
        <time>2015-11-11T12:33:41Z</time>
      </trkpt>
      <trkpt lat="43.68194" lon="1.27567">
        <ele>178.7</ele>
        <time>2015-11-11T12:33:42Z</time>
      </trkpt>
      <trkpt lat="43.68198" lon="1.27564">
        <ele>178.8</ele>
        <time>2015-11-11T12:33:43Z</time>
      </trkpt>
      <trkpt lat="43.68202" lon="1.27565">
        <ele>178.7</ele>
        <time>2015-11-11T12:33:44Z</time>
      </trkpt>
      <trkpt lat="43.68208" lon="1.27564">
        <ele>178.7</ele>
        <time>2015-11-11T12:33:45Z</time>
      </trkpt>
      <trkpt lat="43.68214" lon="1.27562">
        <ele>178.8</ele>
        <time>2015-11-11T12:33:46Z</time>
      </trkpt>
      <trkpt lat="43.68221" lon="1.2756">
        <ele>178.9</ele>
        <time>2015-11-11T12:33:47Z</time>
      </trkpt>
      <trkpt lat="43.68227" lon="1.27557">
        <ele>179</ele>
        <time>2015-11-11T12:33:48Z</time>
      </trkpt>
      <trkpt lat="43.68233" lon="1.27555">
        <ele>179.1</ele>
        <time>2015-11-11T12:33:49Z</time>
      </trkpt>
      <trkpt lat="43.68239" lon="1.27553">
        <ele>179.2</ele>
        <time>2015-11-11T12:33:50Z</time>
      </trkpt>
      <trkpt lat="43.68245" lon="1.27552">
        <ele>179.3</ele>
        <time>2015-11-11T12:33:51Z</time>
      </trkpt>
      <trkpt lat="43.68251" lon="1.27549">
        <ele>179.4</ele>
        <time>2015-11-11T12:33:52Z</time>
      </trkpt>
      <trkpt lat="43.68257" lon="1.27547">
        <ele>179.5</ele>
        <time>2015-11-11T12:33:53Z</time>
      </trkpt>
      <trkpt lat="43.68263" lon="1.27545">
        <ele>179.6</ele>
        <time>2015-11-11T12:33:54Z</time>
      </trkpt>
      <trkpt lat="43.68269" lon="1.27542">
        <ele>179.7</ele>
        <time>2015-11-11T12:33:55Z</time>
      </trkpt>
      <trkpt lat="43.68276" lon="1.27539">
        <ele>179.8</ele>
        <time>2015-11-11T12:33:56Z</time>
      </trkpt>
      <trkpt lat="43.68285" lon="1.27536">
        <ele>179.9</ele>
        <time>2015-11-11T12:33:57Z</time>
      </trkpt>
      <trkpt lat="43.68294" lon="1.27534">
        <ele>179.9</ele>
        <time>2015-11-11T12:33:59Z</time>
      </trkpt>
      <trkpt lat="43.68299" lon="1.27531">
        <ele>179.8</ele>
        <time>2015-11-11T12:34:00Z</time>
      </trkpt>
      <trkpt lat="43.68305" lon="1.27529">
        <ele>179.7</ele>
        <time>2015-11-11T12:34:01Z</time>
      </trkpt>
      <trkpt lat="43.6831" lon="1.27528">
        <ele>179.5</ele>
        <time>2015-11-11T12:34:02Z</time>
      </trkpt>
      <trkpt lat="43.68315" lon="1.27526">
        <ele>179.4</ele>
        <time>2015-11-11T12:34:03Z</time>
      </trkpt>
      <trkpt lat="43.68322" lon="1.27525">
        <ele>179.2</ele>
        <time>2015-11-11T12:34:04Z</time>
      </trkpt>
      <trkpt lat="43.68328" lon="1.27523">
        <ele>179</ele>
        <time>2015-11-11T12:34:05Z</time>
      </trkpt>
      <trkpt lat="43.68334" lon="1.2752">
        <ele>178.8</ele>
        <time>2015-11-11T12:34:06Z</time>
      </trkpt>
      <trkpt lat="43.68341" lon="1.27517">
        <ele>178.6</ele>
        <time>2015-11-11T12:34:07Z</time>
      </trkpt>
      <trkpt lat="43.68348" lon="1.27516">
        <ele>178.4</ele>
        <time>2015-11-11T12:34:08Z</time>
      </trkpt>
      <trkpt lat="43.68353" lon="1.27514">
        <ele>178.3</ele>
        <time>2015-11-11T12:34:09Z</time>
      </trkpt>
      <trkpt lat="43.68358" lon="1.27511">
        <ele>178.1</ele>
        <time>2015-11-11T12:34:10Z</time>
      </trkpt>
      <trkpt lat="43.68363" lon="1.27509">
        <ele>177.9</ele>
        <time>2015-11-11T12:34:11Z</time>
      </trkpt>
      <trkpt lat="43.68368" lon="1.27506">
        <ele>177.8</ele>
        <time>2015-11-11T12:34:12Z</time>
      </trkpt>
      <trkpt lat="43.68374" lon="1.27503">
        <ele>177.6</ele>
        <time>2015-11-11T12:34:13Z</time>
      </trkpt>
      <trkpt lat="43.6838" lon="1.275">
        <ele>177.6</ele>
        <time>2015-11-11T12:34:14Z</time>
      </trkpt>
      <trkpt lat="43.68387" lon="1.27497">
        <ele>177.6</ele>
        <time>2015-11-11T12:34:15Z</time>
      </trkpt>
      <trkpt lat="43.68393" lon="1.27494">
        <ele>177.6</ele>
        <time>2015-11-11T12:34:16Z</time>
      </trkpt>
      <trkpt lat="43.68402" lon="1.27489">
        <ele>177.7</ele>
        <time>2015-11-11T12:34:18Z</time>
      </trkpt>
      <trkpt lat="43.68409" lon="1.27487">
        <ele>177.7</ele>
        <time>2015-11-11T12:34:19Z</time>
      </trkpt>
      <trkpt lat="43.68414" lon="1.27484">
        <ele>177.8</ele>
        <time>2015-11-11T12:34:20Z</time>
      </trkpt>
      <trkpt lat="43.68419" lon="1.27482">
        <ele>177.8</ele>
        <time>2015-11-11T12:34:21Z</time>
      </trkpt>
      <trkpt lat="43.68425" lon="1.27479">
        <ele>177.8</ele>
        <time>2015-11-11T12:34:22Z</time>
      </trkpt>
      <trkpt lat="43.68431" lon="1.27475">
        <ele>177.9</ele>
        <time>2015-11-11T12:34:23Z</time>
      </trkpt>
      <trkpt lat="43.68437" lon="1.27471">
        <ele>177.9</ele>
        <time>2015-11-11T12:34:24Z</time>
      </trkpt>
      <trkpt lat="43.68443" lon="1.2747">
        <ele>178</ele>
        <time>2015-11-11T12:34:25Z</time>
      </trkpt>
      <trkpt lat="43.68449" lon="1.27467">
        <ele>178</ele>
        <time>2015-11-11T12:34:26Z</time>
      </trkpt>
      <trkpt lat="43.68455" lon="1.27463">
        <ele>178</ele>
        <time>2015-11-11T12:34:27Z</time>
      </trkpt>
      <trkpt lat="43.68461" lon="1.2746">
        <ele>178</ele>
        <time>2015-11-11T12:34:28Z</time>
      </trkpt>
      <trkpt lat="43.68468" lon="1.27458">
        <ele>178.1</ele>
        <time>2015-11-11T12:34:29Z</time>
      </trkpt>
      <trkpt lat="43.68474" lon="1.27455">
        <ele>178.2</ele>
        <time>2015-11-11T12:34:30Z</time>
      </trkpt>
      <trkpt lat="43.68479" lon="1.27453">
        <ele>178.2</ele>
        <time>2015-11-11T12:34:31Z</time>
      </trkpt>
      <trkpt lat="43.68484" lon="1.2745">
        <ele>178.3</ele>
        <time>2015-11-11T12:34:32Z</time>
      </trkpt>
      <trkpt lat="43.6849" lon="1.27448">
        <ele>178.4</ele>
        <time>2015-11-11T12:34:33Z</time>
      </trkpt>
      <trkpt lat="43.68496" lon="1.27444">
        <ele>178.4</ele>
        <time>2015-11-11T12:34:34Z</time>
      </trkpt>
      <trkpt lat="43.68501" lon="1.2744">
        <ele>178.5</ele>
        <time>2015-11-11T12:34:35Z</time>
      </trkpt>
      <trkpt lat="43.68507" lon="1.27436">
        <ele>178.6</ele>
        <time>2015-11-11T12:34:36Z</time>
      </trkpt>
      <trkpt lat="43.68513" lon="1.27431">
        <ele>178.7</ele>
        <time>2015-11-11T12:34:37Z</time>
      </trkpt>
      <trkpt lat="43.68518" lon="1.27427">
        <ele>178.7</ele>
        <time>2015-11-11T12:34:38Z</time>
      </trkpt>
      <trkpt lat="43.68524" lon="1.27422">
        <ele>178.8</ele>
        <time>2015-11-11T12:34:39Z</time>
      </trkpt>
      <trkpt lat="43.6853" lon="1.27417">
        <ele>178.9</ele>
        <time>2015-11-11T12:34:40Z</time>
      </trkpt>
      <trkpt lat="43.68535" lon="1.27411">
        <ele>178.9</ele>
        <time>2015-11-11T12:34:41Z</time>
      </trkpt>
      <trkpt lat="43.68541" lon="1.27407">
        <ele>179</ele>
        <time>2015-11-11T12:34:42Z</time>
      </trkpt>
      <trkpt lat="43.68546" lon="1.27401">
        <ele>178.9</ele>
        <time>2015-11-11T12:34:43Z</time>
      </trkpt>
      <trkpt lat="43.68551" lon="1.27396">
        <ele>178.8</ele>
        <time>2015-11-11T12:34:44Z</time>
      </trkpt>
      <trkpt lat="43.68555" lon="1.2739">
        <ele>178.7</ele>
        <time>2015-11-11T12:34:45Z</time>
      </trkpt>
      <trkpt lat="43.68559" lon="1.27383">
        <ele>178.6</ele>
        <time>2015-11-11T12:34:46Z</time>
      </trkpt>
      <trkpt lat="43.68564" lon="1.27377">
        <ele>178.5</ele>
        <time>2015-11-11T12:34:47Z</time>
      </trkpt>
      <trkpt lat="43.68569" lon="1.2737">
        <ele>178.5</ele>
        <time>2015-11-11T12:34:48Z</time>
      </trkpt>
      <trkpt lat="43.68574" lon="1.27364">
        <ele>178.4</ele>
        <time>2015-11-11T12:34:49Z</time>
      </trkpt>
      <trkpt lat="43.68578" lon="1.27356">
        <ele>178.5</ele>
        <time>2015-11-11T12:34:50Z</time>
      </trkpt>
      <trkpt lat="43.68582" lon="1.27349">
        <ele>178.5</ele>
        <time>2015-11-11T12:34:51Z</time>
      </trkpt>
      <trkpt lat="43.68586" lon="1.27341">
        <ele>178.5</ele>
        <time>2015-11-11T12:34:52Z</time>
      </trkpt>
      <trkpt lat="43.6859" lon="1.27334">
        <ele>178.5</ele>
        <time>2015-11-11T12:34:53Z</time>
      </trkpt>
      <trkpt lat="43.68595" lon="1.27327">
        <ele>178.5</ele>
        <time>2015-11-11T12:34:54Z</time>
      </trkpt>
      <trkpt lat="43.68599" lon="1.2732">
        <ele>178.5</ele>
        <time>2015-11-11T12:34:55Z</time>
      </trkpt>
      <trkpt lat="43.68602" lon="1.27313">
        <ele>178.5</ele>
        <time>2015-11-11T12:34:56Z</time>
      </trkpt>
      <trkpt lat="43.68607" lon="1.27307">
        <ele>178.4</ele>
        <time>2015-11-11T12:34:57Z</time>
      </trkpt>
      <trkpt lat="43.68612" lon="1.273">
        <ele>178.3</ele>
        <time>2015-11-11T12:34:58Z</time>
      </trkpt>
      <trkpt lat="43.68617" lon="1.27295">
        <ele>178.3</ele>
        <time>2015-11-11T12:34:59Z</time>
      </trkpt>
      <trkpt lat="43.68621" lon="1.27288">
        <ele>178.2</ele>
        <time>2015-11-11T12:35:00Z</time>
      </trkpt>
      <trkpt lat="43.68625" lon="1.27282">
        <ele>178.1</ele>
        <time>2015-11-11T12:35:01Z</time>
      </trkpt>
      <trkpt lat="43.68631" lon="1.27277">
        <ele>178</ele>
        <time>2015-11-11T12:35:02Z</time>
      </trkpt>
      <trkpt lat="43.68636" lon="1.27272">
        <ele>177.8</ele>
        <time>2015-11-11T12:35:03Z</time>
      </trkpt>
      <trkpt lat="43.68643" lon="1.27276">
        <ele>177.5</ele>
        <time>2015-11-11T12:35:04Z</time>
      </trkpt>
      <trkpt lat="43.6865" lon="1.27276">
        <ele>177.2</ele>
        <time>2015-11-11T12:35:05Z</time>
      </trkpt>
      <trkpt lat="43.68655" lon="1.27277">
        <ele>177</ele>
        <time>2015-11-11T12:35:06Z</time>
      </trkpt>
      <trkpt lat="43.68659" lon="1.27273">
        <ele>176.9</ele>
        <time>2015-11-11T12:35:07Z</time>
      </trkpt>
      <trkpt lat="43.68665" lon="1.27271">
        <ele>176.7</ele>
        <time>2015-11-11T12:35:08Z</time>
      </trkpt>
      <trkpt lat="43.68671" lon="1.2727">
        <ele>176.5</ele>
        <time>2015-11-11T12:35:09Z</time>
      </trkpt>
      <trkpt lat="43.68677" lon="1.2727">
        <ele>176.2</ele>
        <time>2015-11-11T12:35:10Z</time>
      </trkpt>
      <trkpt lat="43.68682" lon="1.2727">
        <ele>176</ele>
        <time>2015-11-11T12:35:11Z</time>
      </trkpt>
      <trkpt lat="43.68687" lon="1.27271">
        <ele>175.8</ele>
        <time>2015-11-11T12:35:12Z</time>
      </trkpt>
      <trkpt lat="43.68692" lon="1.27272">
        <ele>175.6</ele>
        <time>2015-11-11T12:35:13Z</time>
      </trkpt>
      <trkpt lat="43.68698" lon="1.27272">
        <ele>175.4</ele>
        <time>2015-11-11T12:35:14Z</time>
      </trkpt>
      <trkpt lat="43.68704" lon="1.27273">
        <ele>175.2</ele>
        <time>2015-11-11T12:35:15Z</time>
      </trkpt>
      <trkpt lat="43.6871" lon="1.27273">
        <ele>175</ele>
        <time>2015-11-11T12:35:16Z</time>
      </trkpt>
      <trkpt lat="43.68715" lon="1.27274">
        <ele>174.9</ele>
        <time>2015-11-11T12:35:17Z</time>
      </trkpt>
      <trkpt lat="43.6872" lon="1.27274">
        <ele>174.9</ele>
        <time>2015-11-11T12:35:18Z</time>
      </trkpt>
      <trkpt lat="43.68725" lon="1.27275">
        <ele>174.8</ele>
        <time>2015-11-11T12:35:19Z</time>
      </trkpt>
      <trkpt lat="43.6873" lon="1.27276">
        <ele>174.8</ele>
        <time>2015-11-11T12:35:20Z</time>
      </trkpt>
      <trkpt lat="43.68734" lon="1.27276">
        <ele>174.8</ele>
        <time>2015-11-11T12:35:21Z</time>
      </trkpt>
      <trkpt lat="43.68739" lon="1.27278">
        <ele>174.7</ele>
        <time>2015-11-11T12:35:22Z</time>
      </trkpt>
      <trkpt lat="43.68745" lon="1.27278">
        <ele>174.7</ele>
        <time>2015-11-11T12:35:23Z</time>
      </trkpt>
      <trkpt lat="43.6875" lon="1.27278">
        <ele>174.7</ele>
        <time>2015-11-11T12:35:24Z</time>
      </trkpt>
      <trkpt lat="43.68756" lon="1.27279">
        <ele>174.7</ele>
        <time>2015-11-11T12:35:25Z</time>
      </trkpt>
      <trkpt lat="43.68762" lon="1.27281">
        <ele>174.7</ele>
        <time>2015-11-11T12:35:26Z</time>
      </trkpt>
      <trkpt lat="43.68769" lon="1.27281">
        <ele>174.6</ele>
        <time>2015-11-11T12:35:27Z</time>
      </trkpt>
      <trkpt lat="43.68775" lon="1.27281">
        <ele>174.6</ele>
        <time>2015-11-11T12:35:28Z</time>
      </trkpt>
      <trkpt lat="43.68781" lon="1.27281">
        <ele>174.6</ele>
        <time>2015-11-11T12:35:29Z</time>
      </trkpt>
      <trkpt lat="43.68787" lon="1.27282">
        <ele>174.6</ele>
        <time>2015-11-11T12:35:30Z</time>
      </trkpt>
      <trkpt lat="43.68793" lon="1.27283">
        <ele>174.6</ele>
        <time>2015-11-11T12:35:31Z</time>
      </trkpt>
      <trkpt lat="43.68798" lon="1.27284">
        <ele>174.8</ele>
        <time>2015-11-11T12:35:32Z</time>
      </trkpt>
      <trkpt lat="43.68804" lon="1.27283">
        <ele>174.9</ele>
        <time>2015-11-11T12:35:33Z</time>
      </trkpt>
      <trkpt lat="43.6881" lon="1.27283">
        <ele>175</ele>
        <time>2015-11-11T12:35:34Z</time>
      </trkpt>
      <trkpt lat="43.68815" lon="1.27283">
        <ele>175.1</ele>
        <time>2015-11-11T12:35:35Z</time>
      </trkpt>
      <trkpt lat="43.68821" lon="1.27281">
        <ele>175.2</ele>
        <time>2015-11-11T12:35:36Z</time>
      </trkpt>
      <trkpt lat="43.68827" lon="1.2728">
        <ele>175.2</ele>
        <time>2015-11-11T12:35:37Z</time>
      </trkpt>
      <trkpt lat="43.68833" lon="1.2728">
        <ele>175.3</ele>
        <time>2015-11-11T12:35:38Z</time>
      </trkpt>
      <trkpt lat="43.68839" lon="1.27278">
        <ele>175.4</ele>
        <time>2015-11-11T12:35:39Z</time>
      </trkpt>
      <trkpt lat="43.68845" lon="1.27275">
        <ele>175.4</ele>
        <time>2015-11-11T12:35:40Z</time>
      </trkpt>
      <trkpt lat="43.6885" lon="1.27271">
        <ele>175.2</ele>
        <time>2015-11-11T12:35:41Z</time>
      </trkpt>
      <trkpt lat="43.68855" lon="1.27267">
        <ele>175.1</ele>
        <time>2015-11-11T12:35:42Z</time>
      </trkpt>
      <trkpt lat="43.6886" lon="1.27263">
        <ele>175</ele>
        <time>2015-11-11T12:35:43Z</time>
      </trkpt>
      <trkpt lat="43.68865" lon="1.27258">
        <ele>174.8</ele>
        <time>2015-11-11T12:35:44Z</time>
      </trkpt>
      <trkpt lat="43.68871" lon="1.27252">
        <ele>174.6</ele>
        <time>2015-11-11T12:35:45Z</time>
      </trkpt>
      <trkpt lat="43.68875" lon="1.27247">
        <ele>174.3</ele>
        <time>2015-11-11T12:35:46Z</time>
      </trkpt>
      <trkpt lat="43.6888" lon="1.27242">
        <ele>174.2</ele>
        <time>2015-11-11T12:35:47Z</time>
      </trkpt>
      <trkpt lat="43.68884" lon="1.27238">
        <ele>174</ele>
        <time>2015-11-11T12:35:48Z</time>
      </trkpt>
      <trkpt lat="43.68889" lon="1.27232">
        <ele>173.9</ele>
        <time>2015-11-11T12:35:49Z</time>
      </trkpt>
      <trkpt lat="43.68892" lon="1.27228">
        <ele>173.8</ele>
        <time>2015-11-11T12:35:50Z</time>
      </trkpt>
      <trkpt lat="43.68897" lon="1.27225">
        <ele>173.7</ele>
        <time>2015-11-11T12:35:51Z</time>
      </trkpt>
      <trkpt lat="43.68901" lon="1.27219">
        <ele>173.6</ele>
        <time>2015-11-11T12:35:52Z</time>
      </trkpt>
      <trkpt lat="43.68906" lon="1.27214">
        <ele>173.4</ele>
        <time>2015-11-11T12:35:53Z</time>
      </trkpt>
      <trkpt lat="43.68911" lon="1.27213">
        <ele>173.5</ele>
        <time>2015-11-11T12:35:54Z</time>
      </trkpt>
      <trkpt lat="43.68916" lon="1.27208">
        <ele>173.5</ele>
        <time>2015-11-11T12:35:55Z</time>
      </trkpt>
      <trkpt lat="43.6892" lon="1.27202">
        <ele>173.5</ele>
        <time>2015-11-11T12:35:56Z</time>
      </trkpt>
      <trkpt lat="43.68924" lon="1.27196">
        <ele>173.5</ele>
        <time>2015-11-11T12:35:57Z</time>
      </trkpt>
      <trkpt lat="43.68928" lon="1.2719">
        <ele>173.6</ele>
        <time>2015-11-11T12:35:58Z</time>
      </trkpt>
      <trkpt lat="43.68932" lon="1.27184">
        <ele>173.6</ele>
        <time>2015-11-11T12:35:59Z</time>
      </trkpt>
      <trkpt lat="43.68937" lon="1.2718">
        <ele>173.6</ele>
        <time>2015-11-11T12:36:00Z</time>
      </trkpt>
      <trkpt lat="43.68941" lon="1.27172">
        <ele>173.6</ele>
        <time>2015-11-11T12:36:01Z</time>
      </trkpt>
      <trkpt lat="43.68945" lon="1.27166">
        <ele>173.6</ele>
        <time>2015-11-11T12:36:02Z</time>
      </trkpt>
      <trkpt lat="43.68949" lon="1.27159">
        <ele>173.5</ele>
        <time>2015-11-11T12:36:03Z</time>
      </trkpt>
      <trkpt lat="43.68953" lon="1.27153">
        <ele>173.5</ele>
        <time>2015-11-11T12:36:04Z</time>
      </trkpt>
      <trkpt lat="43.68956" lon="1.27145">
        <ele>173.4</ele>
        <time>2015-11-11T12:36:05Z</time>
      </trkpt>
      <trkpt lat="43.6896" lon="1.27139">
        <ele>173.5</ele>
        <time>2015-11-11T12:36:06Z</time>
      </trkpt>
      <trkpt lat="43.68965" lon="1.27132">
        <ele>173.6</ele>
        <time>2015-11-11T12:36:07Z</time>
      </trkpt>
      <trkpt lat="43.68968" lon="1.27126">
        <ele>173.8</ele>
        <time>2015-11-11T12:36:08Z</time>
      </trkpt>
      <trkpt lat="43.68972" lon="1.2712">
        <ele>174</ele>
        <time>2015-11-11T12:36:09Z</time>
      </trkpt>
      <trkpt lat="43.68975" lon="1.27114">
        <ele>174.1</ele>
        <time>2015-11-11T12:36:10Z</time>
      </trkpt>
      <trkpt lat="43.68979" lon="1.27107">
        <ele>174.1</ele>
        <time>2015-11-11T12:36:11Z</time>
      </trkpt>
      <trkpt lat="43.68983" lon="1.271">
        <ele>174.2</ele>
        <time>2015-11-11T12:36:12Z</time>
      </trkpt>
      <trkpt lat="43.68986" lon="1.27093">
        <ele>174.2</ele>
        <time>2015-11-11T12:36:13Z</time>
      </trkpt>
      <trkpt lat="43.68989" lon="1.27087">
        <ele>174.2</ele>
        <time>2015-11-11T12:36:14Z</time>
      </trkpt>
      <trkpt lat="43.68993" lon="1.27083">
        <ele>174.3</ele>
        <time>2015-11-11T12:36:15Z</time>
      </trkpt>
      <trkpt lat="43.68998" lon="1.27077">
        <ele>174.3</ele>
        <time>2015-11-11T12:36:16Z</time>
      </trkpt>
      <trkpt lat="43.69002" lon="1.27071">
        <ele>174.3</ele>
        <time>2015-11-11T12:36:17Z</time>
      </trkpt>
      <trkpt lat="43.69006" lon="1.27064">
        <ele>174.3</ele>
        <time>2015-11-11T12:36:18Z</time>
      </trkpt>
      <trkpt lat="43.6901" lon="1.27057">
        <ele>174.2</ele>
        <time>2015-11-11T12:36:19Z</time>
      </trkpt>
      <trkpt lat="43.69014" lon="1.27051">
        <ele>174.1</ele>
        <time>2015-11-11T12:36:20Z</time>
      </trkpt>
      <trkpt lat="43.69018" lon="1.27045">
        <ele>174</ele>
        <time>2015-11-11T12:36:21Z</time>
      </trkpt>
      <trkpt lat="43.69021" lon="1.27041">
        <ele>174</ele>
        <time>2015-11-11T12:36:22Z</time>
      </trkpt>
      <trkpt lat="43.69025" lon="1.27037">
        <ele>174</ele>
        <time>2015-11-11T12:36:23Z</time>
      </trkpt>
      <trkpt lat="43.6903" lon="1.27032">
        <ele>174</ele>
        <time>2015-11-11T12:36:24Z</time>
      </trkpt>
      <trkpt lat="43.69035" lon="1.27028">
        <ele>173.9</ele>
        <time>2015-11-11T12:36:25Z</time>
      </trkpt>
      <trkpt lat="43.6904" lon="1.27022">
        <ele>173.8</ele>
        <time>2015-11-11T12:36:26Z</time>
      </trkpt>
      <trkpt lat="43.69047" lon="1.27016">
        <ele>173.9</ele>
        <time>2015-11-11T12:36:27Z</time>
      </trkpt>
      <trkpt lat="43.69052" lon="1.27013">
        <ele>174</ele>
        <time>2015-11-11T12:36:28Z</time>
      </trkpt>
      <trkpt lat="43.69057" lon="1.27008">
        <ele>174.1</ele>
        <time>2015-11-11T12:36:29Z</time>
      </trkpt>
      <trkpt lat="43.69063" lon="1.27003">
        <ele>174.1</ele>
        <time>2015-11-11T12:36:30Z</time>
      </trkpt>
      <trkpt lat="43.69068" lon="1.26999">
        <ele>174.1</ele>
        <time>2015-11-11T12:36:31Z</time>
      </trkpt>
      <trkpt lat="43.69074" lon="1.26995">
        <ele>174.2</ele>
        <time>2015-11-11T12:36:32Z</time>
      </trkpt>
      <trkpt lat="43.69079" lon="1.26992">
        <ele>174.3</ele>
        <time>2015-11-11T12:36:33Z</time>
      </trkpt>
      <trkpt lat="43.69085" lon="1.2699">
        <ele>174.5</ele>
        <time>2015-11-11T12:36:34Z</time>
      </trkpt>
      <trkpt lat="43.6909" lon="1.26986">
        <ele>174.4</ele>
        <time>2015-11-11T12:36:35Z</time>
      </trkpt>
      <trkpt lat="43.69096" lon="1.26981">
        <ele>174.2</ele>
        <time>2015-11-11T12:36:36Z</time>
      </trkpt>
      <trkpt lat="43.69102" lon="1.26977">
        <ele>174.1</ele>
        <time>2015-11-11T12:36:37Z</time>
      </trkpt>
      <trkpt lat="43.69107" lon="1.26973">
        <ele>173.9</ele>
        <time>2015-11-11T12:36:38Z</time>
      </trkpt>
      <trkpt lat="43.69111" lon="1.26968">
        <ele>173.5</ele>
        <time>2015-11-11T12:36:39Z</time>
      </trkpt>
      <trkpt lat="43.69116" lon="1.26963">
        <ele>173.2</ele>
        <time>2015-11-11T12:36:40Z</time>
      </trkpt>
      <trkpt lat="43.69121" lon="1.2696">
        <ele>173</ele>
        <time>2015-11-11T12:36:41Z</time>
      </trkpt>
      <trkpt lat="43.69127" lon="1.26956">
        <ele>173.1</ele>
        <time>2015-11-11T12:36:42Z</time>
      </trkpt>
      <trkpt lat="43.69131" lon="1.26951">
        <ele>173.2</ele>
        <time>2015-11-11T12:36:43Z</time>
      </trkpt>
      <trkpt lat="43.69136" lon="1.26946">
        <ele>173.5</ele>
        <time>2015-11-11T12:36:44Z</time>
      </trkpt>
      <trkpt lat="43.69142" lon="1.26941">
        <ele>173.7</ele>
        <time>2015-11-11T12:36:45Z</time>
      </trkpt>
      <trkpt lat="43.69147" lon="1.26935">
        <ele>173.8</ele>
        <time>2015-11-11T12:36:46Z</time>
      </trkpt>
      <trkpt lat="43.69152" lon="1.26928">
        <ele>173.8</ele>
        <time>2015-11-11T12:36:47Z</time>
      </trkpt>
      <trkpt lat="43.69158" lon="1.26922">
        <ele>173.9</ele>
        <time>2015-11-11T12:36:48Z</time>
      </trkpt>
      <trkpt lat="43.69162" lon="1.26918">
        <ele>173.9</ele>
        <time>2015-11-11T12:36:49Z</time>
      </trkpt>
      <trkpt lat="43.69168" lon="1.26912">
        <ele>173.7</ele>
        <time>2015-11-11T12:36:50Z</time>
      </trkpt>
      <trkpt lat="43.69173" lon="1.26908">
        <ele>173.7</ele>
        <time>2015-11-11T12:36:51Z</time>
      </trkpt>
      <trkpt lat="43.69179" lon="1.26903">
        <ele>173.6</ele>
        <time>2015-11-11T12:36:52Z</time>
      </trkpt>
      <trkpt lat="43.69185" lon="1.26898">
        <ele>173.5</ele>
        <time>2015-11-11T12:36:53Z</time>
      </trkpt>
      <trkpt lat="43.6919" lon="1.26894">
        <ele>173.3</ele>
        <time>2015-11-11T12:36:54Z</time>
      </trkpt>
      <trkpt lat="43.69195" lon="1.26891">
        <ele>173.2</ele>
        <time>2015-11-11T12:36:55Z</time>
      </trkpt>
      <trkpt lat="43.692" lon="1.26887">
        <ele>172.9</ele>
        <time>2015-11-11T12:36:56Z</time>
      </trkpt>
      <trkpt lat="43.69206" lon="1.26883">
        <ele>172.7</ele>
        <time>2015-11-11T12:36:57Z</time>
      </trkpt>
      <trkpt lat="43.69211" lon="1.2688">
        <ele>172.8</ele>
        <time>2015-11-11T12:36:58Z</time>
      </trkpt>
      <trkpt lat="43.69217" lon="1.26879">
        <ele>173.1</ele>
        <time>2015-11-11T12:36:59Z</time>
      </trkpt>
      <trkpt lat="43.69223" lon="1.26879">
        <ele>173.5</ele>
        <time>2015-11-11T12:37:00Z</time>
      </trkpt>
      <trkpt lat="43.69228" lon="1.26875">
        <ele>173.7</ele>
        <time>2015-11-11T12:37:01Z</time>
      </trkpt>
      <trkpt lat="43.69234" lon="1.26874">
        <ele>174.1</ele>
        <time>2015-11-11T12:37:02Z</time>
      </trkpt>
      <trkpt lat="43.69239" lon="1.2687">
        <ele>174.2</ele>
        <time>2015-11-11T12:37:03Z</time>
      </trkpt>
      <trkpt lat="43.69243" lon="1.26869">
        <ele>174.5</ele>
        <time>2015-11-11T12:37:04Z</time>
      </trkpt>
      <trkpt lat="43.69249" lon="1.26866">
        <ele>174.7</ele>
        <time>2015-11-11T12:37:05Z</time>
      </trkpt>
      <trkpt lat="43.69254" lon="1.26863">
        <ele>174.9</ele>
        <time>2015-11-11T12:37:06Z</time>
      </trkpt>
      <trkpt lat="43.6926" lon="1.26861">
        <ele>175.2</ele>
        <time>2015-11-11T12:37:07Z</time>
      </trkpt>
      <trkpt lat="43.69266" lon="1.26859">
        <ele>175.5</ele>
        <time>2015-11-11T12:37:08Z</time>
      </trkpt>
      <trkpt lat="43.69272" lon="1.2686">
        <ele>176</ele>
        <time>2015-11-11T12:37:09Z</time>
      </trkpt>
      <trkpt lat="43.6928" lon="1.2686">
        <ele>176.5</ele>
        <time>2015-11-11T12:37:10Z</time>
      </trkpt>
      <trkpt lat="43.69286" lon="1.26861">
        <ele>177.1</ele>
        <time>2015-11-11T12:37:11Z</time>
      </trkpt>
      <trkpt lat="43.69291" lon="1.2686">
        <ele>177.4</ele>
        <time>2015-11-11T12:37:12Z</time>
      </trkpt>
      <trkpt lat="43.69297" lon="1.2686">
        <ele>177.3</ele>
        <time>2015-11-11T12:37:13Z</time>
      </trkpt>
      <trkpt lat="43.69304" lon="1.26863">
        <ele>177.5</ele>
        <time>2015-11-11T12:37:14Z</time>
      </trkpt>
      <trkpt lat="43.6931" lon="1.26862">
        <ele>177.3</ele>
        <time>2015-11-11T12:37:15Z</time>
      </trkpt>
      <trkpt lat="43.69316" lon="1.26861">
        <ele>177.1</ele>
        <time>2015-11-11T12:37:16Z</time>
      </trkpt>
      <trkpt lat="43.69322" lon="1.26858">
        <ele>176.8</ele>
        <time>2015-11-11T12:37:17Z</time>
      </trkpt>
      <trkpt lat="43.69327" lon="1.26855">
        <ele>176.4</ele>
        <time>2015-11-11T12:37:18Z</time>
      </trkpt>
      <trkpt lat="43.69333" lon="1.26854">
        <ele>176.3</ele>
        <time>2015-11-11T12:37:19Z</time>
      </trkpt>
      <trkpt lat="43.69339" lon="1.26852">
        <ele>175.9</ele>
        <time>2015-11-11T12:37:20Z</time>
      </trkpt>
      <trkpt lat="43.69347" lon="1.26849">
        <ele>175.5</ele>
        <time>2015-11-11T12:37:21Z</time>
      </trkpt>
      <trkpt lat="43.69354" lon="1.26845">
        <ele>175.1</ele>
        <time>2015-11-11T12:37:22Z</time>
      </trkpt>
      <trkpt lat="43.6936" lon="1.26841">
        <ele>174.5</ele>
        <time>2015-11-11T12:37:23Z</time>
      </trkpt>
      <trkpt lat="43.69367" lon="1.26837">
        <ele>174</ele>
        <time>2015-11-11T12:37:24Z</time>
      </trkpt>
      <trkpt lat="43.69374" lon="1.26833">
        <ele>173.4</ele>
        <time>2015-11-11T12:37:25Z</time>
      </trkpt>
      <trkpt lat="43.69384" lon="1.26829">
        <ele>173.2</ele>
        <time>2015-11-11T12:37:26Z</time>
      </trkpt>
      <trkpt lat="43.69393" lon="1.26825">
        <ele>172.9</ele>
        <time>2015-11-11T12:37:27Z</time>
      </trkpt>
      <trkpt lat="43.69401" lon="1.26822">
        <ele>172.7</ele>
        <time>2015-11-11T12:37:28Z</time>
      </trkpt>
      <trkpt lat="43.6941" lon="1.26819">
        <ele>172.5</ele>
        <time>2015-11-11T12:37:29Z</time>
      </trkpt>
      <trkpt lat="43.69418" lon="1.26813">
        <ele>172</ele>
        <time>2015-11-11T12:37:30Z</time>
      </trkpt>
      <trkpt lat="43.69424" lon="1.26811">
        <ele>171.8</ele>
        <time>2015-11-11T12:37:31Z</time>
      </trkpt>
      <trkpt lat="43.69431" lon="1.26807">
        <ele>171.5</ele>
        <time>2015-11-11T12:37:32Z</time>
      </trkpt>
      <trkpt lat="43.69439" lon="1.26807">
        <ele>171.5</ele>
        <time>2015-11-11T12:37:33Z</time>
      </trkpt>
      <trkpt lat="43.69444" lon="1.26805">
        <ele>171.4</ele>
        <time>2015-11-11T12:37:34Z</time>
      </trkpt>
      <trkpt lat="43.69449" lon="1.26804">
        <ele>171.4</ele>
        <time>2015-11-11T12:37:35Z</time>
      </trkpt>
      <trkpt lat="43.69456" lon="1.26805">
        <ele>171.6</ele>
        <time>2015-11-11T12:37:36Z</time>
      </trkpt>
      <trkpt lat="43.69462" lon="1.26807">
        <ele>171.8</ele>
        <time>2015-11-11T12:37:37Z</time>
      </trkpt>
      <trkpt lat="43.69468" lon="1.26809">
        <ele>172.1</ele>
        <time>2015-11-11T12:37:38Z</time>
      </trkpt>
      <trkpt lat="43.69474" lon="1.26811">
        <ele>172.5</ele>
        <time>2015-11-11T12:37:39Z</time>
      </trkpt>
      <trkpt lat="43.69478" lon="1.26814">
        <ele>172.8</ele>
        <time>2015-11-11T12:37:40Z</time>
      </trkpt>
      <trkpt lat="43.69482" lon="1.26818">
        <ele>173.3</ele>
        <time>2015-11-11T12:37:41Z</time>
      </trkpt>
      <trkpt lat="43.69485" lon="1.26821">
        <ele>173.6</ele>
        <time>2015-11-11T12:37:42Z</time>
      </trkpt>
      <trkpt lat="43.69489" lon="1.26822">
        <ele>173.7</ele>
        <time>2015-11-11T12:37:43Z</time>
      </trkpt>
      <trkpt lat="43.69494" lon="1.26823">
        <ele>173.8</ele>
        <time>2015-11-11T12:37:44Z</time>
      </trkpt>
      <trkpt lat="43.69498" lon="1.26825">
        <ele>174.1</ele>
        <time>2015-11-11T12:37:45Z</time>
      </trkpt>
      <trkpt lat="43.69503" lon="1.26829">
        <ele>174.5</ele>
        <time>2015-11-11T12:37:46Z</time>
      </trkpt>
      <trkpt lat="43.69507" lon="1.26833">
        <ele>175</ele>
        <time>2015-11-11T12:37:47Z</time>
      </trkpt>
      <trkpt lat="43.69509" lon="1.26839">
        <ele>175.6</ele>
        <time>2015-11-11T12:37:48Z</time>
      </trkpt>
      <trkpt lat="43.69511" lon="1.26847">
        <ele>176.4</ele>
        <time>2015-11-11T12:37:49Z</time>
      </trkpt>
      <trkpt lat="43.69513" lon="1.26853">
        <ele>177</ele>
        <time>2015-11-11T12:37:50Z</time>
      </trkpt>
      <trkpt lat="43.69514" lon="1.26861">
        <ele>177.9</ele>
        <time>2015-11-11T12:37:51Z</time>
      </trkpt>
      <trkpt lat="43.69516" lon="1.26866">
        <ele>178.4</ele>
        <time>2015-11-11T12:37:52Z</time>
      </trkpt>
      <trkpt lat="43.69518" lon="1.26871">
        <ele>178.9</ele>
        <time>2015-11-11T12:37:53Z</time>
      </trkpt>
      <trkpt lat="43.69519" lon="1.26877">
        <ele>179.3</ele>
        <time>2015-11-11T12:37:54Z</time>
      </trkpt>
      <trkpt lat="43.69522" lon="1.26884">
        <ele>179.4</ele>
        <time>2015-11-11T12:37:55Z</time>
      </trkpt>
      <trkpt lat="43.69523" lon="1.2689">
        <ele>179.6</ele>
        <time>2015-11-11T12:37:56Z</time>
      </trkpt>
      <trkpt lat="43.69525" lon="1.26897">
        <ele>179.7</ele>
        <time>2015-11-11T12:37:57Z</time>
      </trkpt>
      <trkpt lat="43.69527" lon="1.26905">
        <ele>179.9</ele>
        <time>2015-11-11T12:37:58Z</time>
      </trkpt>
      <trkpt lat="43.69529" lon="1.26912">
        <ele>180</ele>
        <time>2015-11-11T12:37:59Z</time>
      </trkpt>
      <trkpt lat="43.69532" lon="1.26921">
        <ele>180.2</ele>
        <time>2015-11-11T12:38:00Z</time>
      </trkpt>
      <trkpt lat="43.69536" lon="1.26927">
        <ele>180.3</ele>
        <time>2015-11-11T12:38:01Z</time>
      </trkpt>
      <trkpt lat="43.6954" lon="1.26933">
        <ele>180.4</ele>
        <time>2015-11-11T12:38:02Z</time>
      </trkpt>
      <trkpt lat="43.69545" lon="1.2694">
        <ele>180.5</ele>
        <time>2015-11-11T12:38:03Z</time>
      </trkpt>
      <trkpt lat="43.69548" lon="1.26945">
        <ele>180.6</ele>
        <time>2015-11-11T12:38:04Z</time>
      </trkpt>
      <trkpt lat="43.69553" lon="1.26952">
        <ele>180.6</ele>
        <time>2015-11-11T12:38:05Z</time>
      </trkpt>
      <trkpt lat="43.69557" lon="1.2696">
        <ele>180.6</ele>
        <time>2015-11-11T12:38:06Z</time>
      </trkpt>
      <trkpt lat="43.6956" lon="1.26967">
        <ele>180.3</ele>
        <time>2015-11-11T12:38:07Z</time>
      </trkpt>
      <trkpt lat="43.69565" lon="1.26974">
        <ele>180.1</ele>
        <time>2015-11-11T12:38:08Z</time>
      </trkpt>
      <trkpt lat="43.69569" lon="1.26979">
        <ele>179.9</ele>
        <time>2015-11-11T12:38:09Z</time>
      </trkpt>
      <trkpt lat="43.69573" lon="1.26985">
        <ele>179.8</ele>
        <time>2015-11-11T12:38:10Z</time>
      </trkpt>
      <trkpt lat="43.69578" lon="1.26994">
        <ele>179.6</ele>
        <time>2015-11-11T12:38:11Z</time>
      </trkpt>
      <trkpt lat="43.6958" lon="1.27002">
        <ele>179.5</ele>
        <time>2015-11-11T12:38:12Z</time>
      </trkpt>
      <trkpt lat="43.69584" lon="1.27009">
        <ele>179.4</ele>
        <time>2015-11-11T12:38:13Z</time>
      </trkpt>
      <trkpt lat="43.69587" lon="1.27017">
        <ele>179.3</ele>
        <time>2015-11-11T12:38:14Z</time>
      </trkpt>
      <trkpt lat="43.6959" lon="1.27025">
        <ele>179.3</ele>
        <time>2015-11-11T12:38:15Z</time>
      </trkpt>
      <trkpt lat="43.69595" lon="1.27032">
        <ele>179.3</ele>
        <time>2015-11-11T12:38:16Z</time>
      </trkpt>
      <trkpt lat="43.696" lon="1.2704">
        <ele>179.4</ele>
        <time>2015-11-11T12:38:17Z</time>
      </trkpt>
      <trkpt lat="43.69604" lon="1.27047">
        <ele>179.4</ele>
        <time>2015-11-11T12:38:18Z</time>
      </trkpt>
      <trkpt lat="43.69609" lon="1.27054">
        <ele>179.4</ele>
        <time>2015-11-11T12:38:19Z</time>
      </trkpt>
      <trkpt lat="43.69613" lon="1.27061">
        <ele>179.3</ele>
        <time>2015-11-11T12:38:20Z</time>
      </trkpt>
      <trkpt lat="43.69616" lon="1.27068">
        <ele>179.3</ele>
        <time>2015-11-11T12:38:21Z</time>
      </trkpt>
      <trkpt lat="43.6962" lon="1.27076">
        <ele>179.1</ele>
        <time>2015-11-11T12:38:22Z</time>
      </trkpt>
      <trkpt lat="43.69625" lon="1.27083">
        <ele>179</ele>
        <time>2015-11-11T12:38:23Z</time>
      </trkpt>
      <trkpt lat="43.69627" lon="1.27091">
        <ele>178.8</ele>
        <time>2015-11-11T12:38:24Z</time>
      </trkpt>
      <trkpt lat="43.6963" lon="1.27099">
        <ele>178.4</ele>
        <time>2015-11-11T12:38:25Z</time>
      </trkpt>
      <trkpt lat="43.69633" lon="1.27106">
        <ele>178.2</ele>
        <time>2015-11-11T12:38:26Z</time>
      </trkpt>
      <trkpt lat="43.69636" lon="1.27113">
        <ele>177.9</ele>
        <time>2015-11-11T12:38:27Z</time>
      </trkpt>
      <trkpt lat="43.69638" lon="1.27119">
        <ele>177.7</ele>
        <time>2015-11-11T12:38:28Z</time>
      </trkpt>
      <trkpt lat="43.69641" lon="1.27127">
        <ele>177.4</ele>
        <time>2015-11-11T12:38:29Z</time>
      </trkpt>
      <trkpt lat="43.69645" lon="1.27134">
        <ele>177.4</ele>
        <time>2015-11-11T12:38:30Z</time>
      </trkpt>
      <trkpt lat="43.69649" lon="1.27142">
        <ele>177.4</ele>
        <time>2015-11-11T12:38:31Z</time>
      </trkpt>
      <trkpt lat="43.69651" lon="1.27148">
        <ele>177.3</ele>
        <time>2015-11-11T12:38:32Z</time>
      </trkpt>
      <trkpt lat="43.69656" lon="1.27156">
        <ele>177.3</ele>
        <time>2015-11-11T12:38:33Z</time>
      </trkpt>
      <trkpt lat="43.69661" lon="1.27162">
        <ele>177.1</ele>
        <time>2015-11-11T12:38:34Z</time>
      </trkpt>
      <trkpt lat="43.69664" lon="1.27167">
        <ele>177.1</ele>
        <time>2015-11-11T12:38:35Z</time>
      </trkpt>
      <trkpt lat="43.69669" lon="1.27172">
        <ele>177</ele>
        <time>2015-11-11T12:38:36Z</time>
      </trkpt>
      <trkpt lat="43.69674" lon="1.27178">
        <ele>176.9</ele>
        <time>2015-11-11T12:38:37Z</time>
      </trkpt>
      <trkpt lat="43.69677" lon="1.27184">
        <ele>176.8</ele>
        <time>2015-11-11T12:38:38Z</time>
      </trkpt>
      <trkpt lat="43.69682" lon="1.27188">
        <ele>176.7</ele>
        <time>2015-11-11T12:38:39Z</time>
      </trkpt>
      <trkpt lat="43.69687" lon="1.27194">
        <ele>176.6</ele>
        <time>2015-11-11T12:38:40Z</time>
      </trkpt>
      <trkpt lat="43.69691" lon="1.27201">
        <ele>176.5</ele>
        <time>2015-11-11T12:38:41Z</time>
      </trkpt>
      <trkpt lat="43.69695" lon="1.27207">
        <ele>176.5</ele>
        <time>2015-11-11T12:38:42Z</time>
      </trkpt>
      <trkpt lat="43.697" lon="1.27214">
        <ele>176.3</ele>
        <time>2015-11-11T12:38:43Z</time>
      </trkpt>
      <trkpt lat="43.69705" lon="1.2722">
        <ele>176.1</ele>
        <time>2015-11-11T12:38:44Z</time>
      </trkpt>
      <trkpt lat="43.69708" lon="1.27228">
        <ele>176</ele>
        <time>2015-11-11T12:38:45Z</time>
      </trkpt>
      <trkpt lat="43.69714" lon="1.27235">
        <ele>176</ele>
        <time>2015-11-11T12:38:46Z</time>
      </trkpt>
      <trkpt lat="43.69719" lon="1.2724">
        <ele>176</ele>
        <time>2015-11-11T12:38:47Z</time>
      </trkpt>
      <trkpt lat="43.69723" lon="1.27246">
        <ele>175.9</ele>
        <time>2015-11-11T12:38:48Z</time>
      </trkpt>
      <trkpt lat="43.69728" lon="1.27251">
        <ele>175.9</ele>
        <time>2015-11-11T12:38:49Z</time>
      </trkpt>
      <trkpt lat="43.69733" lon="1.27257">
        <ele>175.8</ele>
        <time>2015-11-11T12:38:50Z</time>
      </trkpt>
      <trkpt lat="43.69736" lon="1.27263">
        <ele>175.8</ele>
        <time>2015-11-11T12:38:51Z</time>
      </trkpt>
      <trkpt lat="43.69743" lon="1.27269">
        <ele>175.7</ele>
        <time>2015-11-11T12:38:52Z</time>
      </trkpt>
      <trkpt lat="43.69749" lon="1.27274">
        <ele>175.6</ele>
        <time>2015-11-11T12:38:53Z</time>
      </trkpt>
      <trkpt lat="43.69754" lon="1.27278">
        <ele>175.5</ele>
        <time>2015-11-11T12:38:54Z</time>
      </trkpt>
      <trkpt lat="43.69759" lon="1.27283">
        <ele>175.5</ele>
        <time>2015-11-11T12:38:55Z</time>
      </trkpt>
      <trkpt lat="43.69763" lon="1.27288">
        <ele>175.4</ele>
        <time>2015-11-11T12:38:56Z</time>
      </trkpt>
      <trkpt lat="43.69768" lon="1.27294">
        <ele>175.3</ele>
        <time>2015-11-11T12:38:57Z</time>
      </trkpt>
      <trkpt lat="43.69772" lon="1.27297">
        <ele>175.3</ele>
        <time>2015-11-11T12:38:58Z</time>
      </trkpt>
      <trkpt lat="43.69778" lon="1.27302">
        <ele>175.3</ele>
        <time>2015-11-11T12:38:59Z</time>
      </trkpt>
      <trkpt lat="43.69783" lon="1.27306">
        <ele>175.3</ele>
        <time>2015-11-11T12:39:00Z</time>
      </trkpt>
      <trkpt lat="43.69789" lon="1.27311">
        <ele>175.3</ele>
        <time>2015-11-11T12:39:01Z</time>
      </trkpt>
      <trkpt lat="43.69794" lon="1.27316">
        <ele>175.3</ele>
        <time>2015-11-11T12:39:02Z</time>
      </trkpt>
      <trkpt lat="43.69799" lon="1.27322">
        <ele>175.3</ele>
        <time>2015-11-11T12:39:03Z</time>
      </trkpt>
      <trkpt lat="43.69802" lon="1.27326">
        <ele>175.4</ele>
        <time>2015-11-11T12:39:04Z</time>
      </trkpt>
      <trkpt lat="43.69808" lon="1.27333">
        <ele>175.4</ele>
        <time>2015-11-11T12:39:05Z</time>
      </trkpt>
      <trkpt lat="43.69813" lon="1.27339">
        <ele>175.4</ele>
        <time>2015-11-11T12:39:06Z</time>
      </trkpt>
      <trkpt lat="43.69819" lon="1.27345">
        <ele>175.4</ele>
        <time>2015-11-11T12:39:07Z</time>
      </trkpt>
      <trkpt lat="43.69825" lon="1.27351">
        <ele>175.4</ele>
        <time>2015-11-11T12:39:08Z</time>
      </trkpt>
      <trkpt lat="43.6983" lon="1.27355">
        <ele>175.4</ele>
        <time>2015-11-11T12:39:09Z</time>
      </trkpt>
      <trkpt lat="43.69835" lon="1.2736">
        <ele>175.4</ele>
        <time>2015-11-11T12:39:10Z</time>
      </trkpt>
      <trkpt lat="43.6984" lon="1.27364">
        <ele>175.4</ele>
        <time>2015-11-11T12:39:11Z</time>
      </trkpt>
      <trkpt lat="43.69845" lon="1.27369">
        <ele>175.3</ele>
        <time>2015-11-11T12:39:12Z</time>
      </trkpt>
      <trkpt lat="43.6985" lon="1.27374">
        <ele>175.3</ele>
        <time>2015-11-11T12:39:13Z</time>
      </trkpt>
      <trkpt lat="43.69856" lon="1.27378">
        <ele>175.2</ele>
        <time>2015-11-11T12:39:14Z</time>
      </trkpt>
      <trkpt lat="43.69861" lon="1.27384">
        <ele>175.2</ele>
        <time>2015-11-11T12:39:15Z</time>
      </trkpt>
      <trkpt lat="43.69866" lon="1.27388">
        <ele>175.1</ele>
        <time>2015-11-11T12:39:16Z</time>
      </trkpt>
      <trkpt lat="43.69871" lon="1.27392">
        <ele>175</ele>
        <time>2015-11-11T12:39:17Z</time>
      </trkpt>
      <trkpt lat="43.69876" lon="1.27396">
        <ele>175</ele>
        <time>2015-11-11T12:39:18Z</time>
      </trkpt>
      <trkpt lat="43.69882" lon="1.27402">
        <ele>175</ele>
        <time>2015-11-11T12:39:19Z</time>
      </trkpt>
      <trkpt lat="43.69886" lon="1.27407">
        <ele>175</ele>
        <time>2015-11-11T12:39:20Z</time>
      </trkpt>
      <trkpt lat="43.69892" lon="1.27412">
        <ele>175</ele>
        <time>2015-11-11T12:39:21Z</time>
      </trkpt>
      <trkpt lat="43.69897" lon="1.27417">
        <ele>175</ele>
        <time>2015-11-11T12:39:22Z</time>
      </trkpt>
      <trkpt lat="43.69903" lon="1.27422">
        <ele>175</ele>
        <time>2015-11-11T12:39:23Z</time>
      </trkpt>
      <trkpt lat="43.69908" lon="1.27427">
        <ele>175.1</ele>
        <time>2015-11-11T12:39:24Z</time>
      </trkpt>
      <trkpt lat="43.69914" lon="1.27432">
        <ele>175.2</ele>
        <time>2015-11-11T12:39:25Z</time>
      </trkpt>
      <trkpt lat="43.69919" lon="1.27437">
        <ele>175.3</ele>
        <time>2015-11-11T12:39:26Z</time>
      </trkpt>
      <trkpt lat="43.69924" lon="1.27442">
        <ele>175.4</ele>
        <time>2015-11-11T12:39:27Z</time>
      </trkpt>
      <trkpt lat="43.69929" lon="1.27446">
        <ele>175.5</ele>
        <time>2015-11-11T12:39:28Z</time>
      </trkpt>
      <trkpt lat="43.69935" lon="1.27451">
        <ele>175.6</ele>
        <time>2015-11-11T12:39:29Z</time>
      </trkpt>
      <trkpt lat="43.6994" lon="1.27456">
        <ele>175.7</ele>
        <time>2015-11-11T12:39:30Z</time>
      </trkpt>
      <trkpt lat="43.69945" lon="1.2746">
        <ele>175.8</ele>
        <time>2015-11-11T12:39:31Z</time>
      </trkpt>
      <trkpt lat="43.6995" lon="1.27464">
        <ele>175.8</ele>
        <time>2015-11-11T12:39:32Z</time>
      </trkpt>
      <trkpt lat="43.69956" lon="1.27469">
        <ele>175.8</ele>
        <time>2015-11-11T12:39:33Z</time>
      </trkpt>
      <trkpt lat="43.69961" lon="1.27473">
        <ele>175.8</ele>
        <time>2015-11-11T12:39:34Z</time>
      </trkpt>
      <trkpt lat="43.69967" lon="1.27479">
        <ele>175.7</ele>
        <time>2015-11-11T12:39:35Z</time>
      </trkpt>
      <trkpt lat="43.69972" lon="1.27484">
        <ele>175.6</ele>
        <time>2015-11-11T12:39:36Z</time>
      </trkpt>
      <trkpt lat="43.69979" lon="1.27489">
        <ele>175.5</ele>
        <time>2015-11-11T12:39:37Z</time>
      </trkpt>
      <trkpt lat="43.69985" lon="1.27495">
        <ele>175.4</ele>
        <time>2015-11-11T12:39:38Z</time>
      </trkpt>
      <trkpt lat="43.69989" lon="1.27499">
        <ele>175.3</ele>
        <time>2015-11-11T12:39:39Z</time>
      </trkpt>
      <trkpt lat="43.69994" lon="1.27504">
        <ele>175.2</ele>
        <time>2015-11-11T12:39:40Z</time>
      </trkpt>
      <trkpt lat="43.69999" lon="1.27509">
        <ele>175.1</ele>
        <time>2015-11-11T12:39:41Z</time>
      </trkpt>
      <trkpt lat="43.70004" lon="1.27514">
        <ele>175</ele>
        <time>2015-11-11T12:39:42Z</time>
      </trkpt>
      <trkpt lat="43.70009" lon="1.27519">
        <ele>174.8</ele>
        <time>2015-11-11T12:39:43Z</time>
      </trkpt>
      <trkpt lat="43.70016" lon="1.27523">
        <ele>174.7</ele>
        <time>2015-11-11T12:39:44Z</time>
      </trkpt>
      <trkpt lat="43.70021" lon="1.27527">
        <ele>174.6</ele>
        <time>2015-11-11T12:39:45Z</time>
      </trkpt>
      <trkpt lat="43.70027" lon="1.2753">
        <ele>174.4</ele>
        <time>2015-11-11T12:39:46Z</time>
      </trkpt>
      <trkpt lat="43.70032" lon="1.27533">
        <ele>174.3</ele>
        <time>2015-11-11T12:39:47Z</time>
      </trkpt>
      <trkpt lat="43.70038" lon="1.27538">
        <ele>174.1</ele>
        <time>2015-11-11T12:39:48Z</time>
      </trkpt>
      <trkpt lat="43.70044" lon="1.27542">
        <ele>174</ele>
        <time>2015-11-11T12:39:49Z</time>
      </trkpt>
      <trkpt lat="43.7005" lon="1.27546">
        <ele>174.1</ele>
        <time>2015-11-11T12:39:50Z</time>
      </trkpt>
      <trkpt lat="43.70054" lon="1.27551">
        <ele>174.2</ele>
        <time>2015-11-11T12:39:51Z</time>
      </trkpt>
      <trkpt lat="43.7006" lon="1.27556">
        <ele>174.3</ele>
        <time>2015-11-11T12:39:52Z</time>
      </trkpt>
      <trkpt lat="43.70064" lon="1.2756">
        <ele>174.4</ele>
        <time>2015-11-11T12:39:53Z</time>
      </trkpt>
      <trkpt lat="43.70069" lon="1.27566">
        <ele>174.5</ele>
        <time>2015-11-11T12:39:54Z</time>
      </trkpt>
      <trkpt lat="43.70073" lon="1.27572">
        <ele>174.7</ele>
        <time>2015-11-11T12:39:55Z</time>
      </trkpt>
      <trkpt lat="43.70077" lon="1.27579">
        <ele>174.8</ele>
        <time>2015-11-11T12:39:56Z</time>
      </trkpt>
      <trkpt lat="43.70083" lon="1.27583">
        <ele>175</ele>
        <time>2015-11-11T12:39:57Z</time>
      </trkpt>
      <trkpt lat="43.70089" lon="1.2759">
        <ele>175.2</ele>
        <time>2015-11-11T12:39:58Z</time>
      </trkpt>
      <trkpt lat="43.70094" lon="1.27595">
        <ele>175.4</ele>
        <time>2015-11-11T12:39:59Z</time>
      </trkpt>
      <trkpt lat="43.70099" lon="1.276">
        <ele>175.6</ele>
        <time>2015-11-11T12:40:00Z</time>
      </trkpt>
      <trkpt lat="43.70104" lon="1.27607">
        <ele>175.9</ele>
        <time>2015-11-11T12:40:01Z</time>
      </trkpt>
      <trkpt lat="43.7011" lon="1.27612">
        <ele>176.2</ele>
        <time>2015-11-11T12:40:02Z</time>
      </trkpt>
      <trkpt lat="43.70114" lon="1.27618">
        <ele>176.5</ele>
        <time>2015-11-11T12:40:03Z</time>
      </trkpt>
      <trkpt lat="43.70119" lon="1.27624">
        <ele>176.8</ele>
        <time>2015-11-11T12:40:04Z</time>
      </trkpt>
      <trkpt lat="43.70125" lon="1.2763">
        <ele>177.1</ele>
        <time>2015-11-11T12:40:05Z</time>
      </trkpt>
      <trkpt lat="43.70129" lon="1.27636">
        <ele>177.1</ele>
        <time>2015-11-11T12:40:06Z</time>
      </trkpt>
      <trkpt lat="43.70134" lon="1.27642">
        <ele>177</ele>
        <time>2015-11-11T12:40:07Z</time>
      </trkpt>
      <trkpt lat="43.70139" lon="1.27647">
        <ele>176.9</ele>
        <time>2015-11-11T12:40:08Z</time>
      </trkpt>
      <trkpt lat="43.70144" lon="1.27653">
        <ele>176.8</ele>
        <time>2015-11-11T12:40:09Z</time>
      </trkpt>
      <trkpt lat="43.70149" lon="1.27658">
        <ele>176.6</ele>
        <time>2015-11-11T12:40:10Z</time>
      </trkpt>
      <trkpt lat="43.70154" lon="1.27664">
        <ele>176.4</ele>
        <time>2015-11-11T12:40:11Z</time>
      </trkpt>
      <trkpt lat="43.70159" lon="1.2767">
        <ele>176.2</ele>
        <time>2015-11-11T12:40:12Z</time>
      </trkpt>
      <trkpt lat="43.70164" lon="1.27675">
        <ele>175.9</ele>
        <time>2015-11-11T12:40:13Z</time>
      </trkpt>
      <trkpt lat="43.70169" lon="1.27682">
        <ele>175.7</ele>
        <time>2015-11-11T12:40:14Z</time>
      </trkpt>
      <trkpt lat="43.70173" lon="1.27689">
        <ele>175.5</ele>
        <time>2015-11-11T12:40:15Z</time>
      </trkpt>
      <trkpt lat="43.70178" lon="1.27694">
        <ele>175.1</ele>
        <time>2015-11-11T12:40:16Z</time>
      </trkpt>
      <trkpt lat="43.70182" lon="1.277">
        <ele>174.9</ele>
        <time>2015-11-11T12:40:17Z</time>
      </trkpt>
      <trkpt lat="43.70187" lon="1.27705">
        <ele>174.5</ele>
        <time>2015-11-11T12:40:18Z</time>
      </trkpt>
      <trkpt lat="43.70192" lon="1.27708">
        <ele>174.2</ele>
        <time>2015-11-11T12:40:19Z</time>
      </trkpt>
      <trkpt lat="43.70197" lon="1.27711">
        <ele>173.9</ele>
        <time>2015-11-11T12:40:20Z</time>
      </trkpt>
      <trkpt lat="43.70202" lon="1.27716">
        <ele>173.5</ele>
        <time>2015-11-11T12:40:21Z</time>
      </trkpt>
      <trkpt lat="43.70208" lon="1.27721">
        <ele>173.2</ele>
        <time>2015-11-11T12:40:22Z</time>
      </trkpt>
      <trkpt lat="43.70214" lon="1.27725">
        <ele>173.3</ele>
        <time>2015-11-11T12:40:23Z</time>
      </trkpt>
      <trkpt lat="43.70219" lon="1.2773">
        <ele>173.4</ele>
        <time>2015-11-11T12:40:24Z</time>
      </trkpt>
      <trkpt lat="43.70223" lon="1.27734">
        <ele>173.4</ele>
        <time>2015-11-11T12:40:25Z</time>
      </trkpt>
      <trkpt lat="43.70228" lon="1.27739">
        <ele>173.5</ele>
        <time>2015-11-11T12:40:26Z</time>
      </trkpt>
      <trkpt lat="43.70232" lon="1.27742">
        <ele>173.6</ele>
        <time>2015-11-11T12:40:27Z</time>
      </trkpt>
      <trkpt lat="43.70238" lon="1.27746">
        <ele>173.6</ele>
        <time>2015-11-11T12:40:28Z</time>
      </trkpt>
      <trkpt lat="43.70244" lon="1.27751">
        <ele>173.7</ele>
        <time>2015-11-11T12:40:29Z</time>
      </trkpt>
      <trkpt lat="43.7025" lon="1.27756">
        <ele>173.8</ele>
        <time>2015-11-11T12:40:30Z</time>
      </trkpt>
      <trkpt lat="43.70255" lon="1.27761">
        <ele>173.8</ele>
        <time>2015-11-11T12:40:31Z</time>
      </trkpt>
      <trkpt lat="43.70259" lon="1.27766">
        <ele>173.9</ele>
        <time>2015-11-11T12:40:32Z</time>
      </trkpt>
      <trkpt lat="43.70265" lon="1.2777">
        <ele>173.9</ele>
        <time>2015-11-11T12:40:33Z</time>
      </trkpt>
      <trkpt lat="43.70271" lon="1.27773">
        <ele>173.9</ele>
        <time>2015-11-11T12:40:34Z</time>
      </trkpt>
      <trkpt lat="43.70277" lon="1.27777">
        <ele>174</ele>
        <time>2015-11-11T12:40:35Z</time>
      </trkpt>
      <trkpt lat="43.70282" lon="1.27782">
        <ele>174</ele>
        <time>2015-11-11T12:40:36Z</time>
      </trkpt>
      <trkpt lat="43.70287" lon="1.27786">
        <ele>174</ele>
        <time>2015-11-11T12:40:37Z</time>
      </trkpt>
      <trkpt lat="43.70292" lon="1.27788">
        <ele>174</ele>
        <time>2015-11-11T12:40:38Z</time>
      </trkpt>
      <trkpt lat="43.70296" lon="1.27792">
        <ele>174.1</ele>
        <time>2015-11-11T12:40:39Z</time>
      </trkpt>
      <trkpt lat="43.70302" lon="1.27797">
        <ele>174.1</ele>
        <time>2015-11-11T12:40:40Z</time>
      </trkpt>
      <trkpt lat="43.70306" lon="1.278">
        <ele>174.2</ele>
        <time>2015-11-11T12:40:41Z</time>
      </trkpt>
      <trkpt lat="43.70312" lon="1.27805">
        <ele>174.2</ele>
        <time>2015-11-11T12:40:42Z</time>
      </trkpt>
      <trkpt lat="43.70317" lon="1.27806">
        <ele>174.3</ele>
        <time>2015-11-11T12:40:43Z</time>
      </trkpt>
      <trkpt lat="43.70321" lon="1.2781">
        <ele>174.3</ele>
        <time>2015-11-11T12:40:44Z</time>
      </trkpt>
      <trkpt lat="43.70325" lon="1.27814">
        <ele>174.3</ele>
        <time>2015-11-11T12:40:45Z</time>
      </trkpt>
      <trkpt lat="43.70333" lon="1.27821">
        <ele>174.3</ele>
        <time>2015-11-11T12:40:46Z</time>
      </trkpt>
      <trkpt lat="43.7034" lon="1.27827">
        <ele>174.3</ele>
        <time>2015-11-11T12:40:47Z</time>
      </trkpt>
      <trkpt lat="43.70345" lon="1.27832">
        <ele>174.3</ele>
        <time>2015-11-11T12:40:48Z</time>
      </trkpt>
      <trkpt lat="43.7035" lon="1.27838">
        <ele>174.3</ele>
        <time>2015-11-11T12:40:49Z</time>
      </trkpt>
      <trkpt lat="43.70356" lon="1.27843">
        <ele>174.3</ele>
        <time>2015-11-11T12:40:50Z</time>
      </trkpt>
      <trkpt lat="43.70361" lon="1.27848">
        <ele>174.3</ele>
        <time>2015-11-11T12:40:51Z</time>
      </trkpt>
      <trkpt lat="43.70368" lon="1.27856">
        <ele>174.2</ele>
        <time>2015-11-11T12:40:52Z</time>
      </trkpt>
      <trkpt lat="43.70372" lon="1.2786">
        <ele>174.2</ele>
        <time>2015-11-11T12:40:53Z</time>
      </trkpt>
      <trkpt lat="43.70378" lon="1.27866">
        <ele>174.1</ele>
        <time>2015-11-11T12:40:54Z</time>
      </trkpt>
      <trkpt lat="43.70384" lon="1.27867">
        <ele>174.2</ele>
        <time>2015-11-11T12:40:55Z</time>
      </trkpt>
      <trkpt lat="43.70387" lon="1.27866">
        <ele>174.2</ele>
        <time>2015-11-11T12:40:56Z</time>
      </trkpt>
      <trkpt lat="43.70394" lon="1.27872">
        <ele>174.2</ele>
        <time>2015-11-11T12:40:57Z</time>
      </trkpt>
      <trkpt lat="43.70398" lon="1.27876">
        <ele>174.3</ele>
        <time>2015-11-11T12:40:58Z</time>
      </trkpt>
      <trkpt lat="43.70404" lon="1.27881">
        <ele>174.4</ele>
        <time>2015-11-11T12:40:59Z</time>
      </trkpt>
      <trkpt lat="43.7041" lon="1.27887">
        <ele>174.4</ele>
        <time>2015-11-11T12:41:00Z</time>
      </trkpt>
      <trkpt lat="43.70416" lon="1.27891">
        <ele>174.5</ele>
        <time>2015-11-11T12:41:01Z</time>
      </trkpt>
      <trkpt lat="43.70421" lon="1.27896">
        <ele>174.5</ele>
        <time>2015-11-11T12:41:02Z</time>
      </trkpt>
      <trkpt lat="43.70426" lon="1.27901">
        <ele>174.5</ele>
        <time>2015-11-11T12:41:03Z</time>
      </trkpt>
      <trkpt lat="43.70431" lon="1.27906">
        <ele>174.5</ele>
        <time>2015-11-11T12:41:04Z</time>
      </trkpt>
      <trkpt lat="43.70436" lon="1.27909">
        <ele>174.5</ele>
        <time>2015-11-11T12:41:05Z</time>
      </trkpt>
      <trkpt lat="43.70442" lon="1.27914">
        <ele>174.5</ele>
        <time>2015-11-11T12:41:06Z</time>
      </trkpt>
      <trkpt lat="43.70447" lon="1.27919">
        <ele>174.5</ele>
        <time>2015-11-11T12:41:07Z</time>
      </trkpt>
      <trkpt lat="43.70452" lon="1.27921">
        <ele>174.5</ele>
        <time>2015-11-11T12:41:08Z</time>
      </trkpt>
      <trkpt lat="43.70456" lon="1.27926">
        <ele>174.4</ele>
        <time>2015-11-11T12:41:09Z</time>
      </trkpt>
      <trkpt lat="43.70461" lon="1.27932">
        <ele>174.3</ele>
        <time>2015-11-11T12:41:10Z</time>
      </trkpt>
      <trkpt lat="43.70466" lon="1.27936">
        <ele>174.3</ele>
        <time>2015-11-11T12:41:11Z</time>
      </trkpt>
      <trkpt lat="43.70471" lon="1.27941">
        <ele>174.3</ele>
        <time>2015-11-11T12:41:12Z</time>
      </trkpt>
      <trkpt lat="43.70477" lon="1.27946">
        <ele>174.3</ele>
        <time>2015-11-11T12:41:13Z</time>
      </trkpt>
      <trkpt lat="43.70483" lon="1.27952">
        <ele>174.4</ele>
        <time>2015-11-11T12:41:14Z</time>
      </trkpt>
      <trkpt lat="43.70488" lon="1.27955">
        <ele>174.4</ele>
        <time>2015-11-11T12:41:15Z</time>
      </trkpt>
      <trkpt lat="43.70494" lon="1.2796">
        <ele>174.4</ele>
        <time>2015-11-11T12:41:16Z</time>
      </trkpt>
      <trkpt lat="43.70499" lon="1.27964">
        <ele>174.5</ele>
        <time>2015-11-11T12:41:17Z</time>
      </trkpt>
      <trkpt lat="43.70506" lon="1.27969">
        <ele>174.6</ele>
        <time>2015-11-11T12:41:18Z</time>
      </trkpt>
      <trkpt lat="43.70511" lon="1.27972">
        <ele>174.7</ele>
        <time>2015-11-11T12:41:19Z</time>
      </trkpt>
      <trkpt lat="43.70517" lon="1.27975">
        <ele>174.8</ele>
        <time>2015-11-11T12:41:20Z</time>
      </trkpt>
      <trkpt lat="43.70523" lon="1.27979">
        <ele>175</ele>
        <time>2015-11-11T12:41:21Z</time>
      </trkpt>
      <trkpt lat="43.7053" lon="1.27983">
        <ele>175.1</ele>
        <time>2015-11-11T12:41:22Z</time>
      </trkpt>
      <trkpt lat="43.70537" lon="1.27988">
        <ele>175.3</ele>
        <time>2015-11-11T12:41:23Z</time>
      </trkpt>
      <trkpt lat="43.70543" lon="1.27993">
        <ele>175.4</ele>
        <time>2015-11-11T12:41:24Z</time>
      </trkpt>
      <trkpt lat="43.70549" lon="1.27996">
        <ele>175.4</ele>
        <time>2015-11-11T12:41:25Z</time>
      </trkpt>
      <trkpt lat="43.70554" lon="1.27998">
        <ele>175.4</ele>
        <time>2015-11-11T12:41:26Z</time>
      </trkpt>
      <trkpt lat="43.7056" lon="1.28002">
        <ele>175.4</ele>
        <time>2015-11-11T12:41:27Z</time>
      </trkpt>
      <trkpt lat="43.70568" lon="1.28006">
        <ele>175.4</ele>
        <time>2015-11-11T12:41:28Z</time>
      </trkpt>
      <trkpt lat="43.70574" lon="1.2801">
        <ele>175.4</ele>
        <time>2015-11-11T12:41:29Z</time>
      </trkpt>
      <trkpt lat="43.70579" lon="1.28014">
        <ele>175.4</ele>
        <time>2015-11-11T12:41:30Z</time>
      </trkpt>
      <trkpt lat="43.70586" lon="1.28017">
        <ele>175.3</ele>
        <time>2015-11-11T12:41:31Z</time>
      </trkpt>
      <trkpt lat="43.70593" lon="1.2802">
        <ele>175.3</ele>
        <time>2015-11-11T12:41:32Z</time>
      </trkpt>
      <trkpt lat="43.706" lon="1.28023">
        <ele>175.2</ele>
        <time>2015-11-11T12:41:33Z</time>
      </trkpt>
      <trkpt lat="43.70606" lon="1.28025">
        <ele>175.2</ele>
        <time>2015-11-11T12:41:34Z</time>
      </trkpt>
      <trkpt lat="43.70613" lon="1.28026">
        <ele>175.1</ele>
        <time>2015-11-11T12:41:35Z</time>
      </trkpt>
      <trkpt lat="43.70618" lon="1.28027">
        <ele>175.1</ele>
        <time>2015-11-11T12:41:36Z</time>
      </trkpt>
      <trkpt lat="43.70625" lon="1.28031">
        <ele>175</ele>
        <time>2015-11-11T12:41:37Z</time>
      </trkpt>
      <trkpt lat="43.70632" lon="1.28034">
        <ele>175</ele>
        <time>2015-11-11T12:41:38Z</time>
      </trkpt>
      <trkpt lat="43.70639" lon="1.28036">
        <ele>175</ele>
        <time>2015-11-11T12:41:39Z</time>
      </trkpt>
      <trkpt lat="43.70646" lon="1.28037">
        <ele>175</ele>
        <time>2015-11-11T12:41:40Z</time>
      </trkpt>
      <trkpt lat="43.70653" lon="1.28038">
        <ele>175</ele>
        <time>2015-11-11T12:41:41Z</time>
      </trkpt>
      <trkpt lat="43.70659" lon="1.28041">
        <ele>175</ele>
        <time>2015-11-11T12:41:42Z</time>
      </trkpt>
      <trkpt lat="43.70667" lon="1.28045">
        <ele>175</ele>
        <time>2015-11-11T12:41:44Z</time>
      </trkpt>
      <trkpt lat="43.70675" lon="1.28047">
        <ele>175</ele>
        <time>2015-11-11T12:41:45Z</time>
      </trkpt>
      <trkpt lat="43.70681" lon="1.28048">
        <ele>175.1</ele>
        <time>2015-11-11T12:41:46Z</time>
      </trkpt>
      <trkpt lat="43.70687" lon="1.28051">
        <ele>175.1</ele>
        <time>2015-11-11T12:41:47Z</time>
      </trkpt>
      <trkpt lat="43.70694" lon="1.28052">
        <ele>175.1</ele>
        <time>2015-11-11T12:41:48Z</time>
      </trkpt>
      <trkpt lat="43.70698" lon="1.28054">
        <ele>175.1</ele>
        <time>2015-11-11T12:41:49Z</time>
      </trkpt>
      <trkpt lat="43.70705" lon="1.28055">
        <ele>175.1</ele>
        <time>2015-11-11T12:41:50Z</time>
      </trkpt>
      <trkpt lat="43.70712" lon="1.28056">
        <ele>175.1</ele>
        <time>2015-11-11T12:41:51Z</time>
      </trkpt>
      <trkpt lat="43.70719" lon="1.28056">
        <ele>174.9</ele>
        <time>2015-11-11T12:41:52Z</time>
      </trkpt>
      <trkpt lat="43.70726" lon="1.28057">
        <ele>174.8</ele>
        <time>2015-11-11T12:41:53Z</time>
      </trkpt>
      <trkpt lat="43.7073" lon="1.28057">
        <ele>174.7</ele>
        <time>2015-11-11T12:41:54Z</time>
      </trkpt>
      <trkpt lat="43.70736" lon="1.28058">
        <ele>174.5</ele>
        <time>2015-11-11T12:41:55Z</time>
      </trkpt>
      <trkpt lat="43.70745" lon="1.28059">
        <ele>174.3</ele>
        <time>2015-11-11T12:41:56Z</time>
      </trkpt>
      <trkpt lat="43.70752" lon="1.28059">
        <ele>174.2</ele>
        <time>2015-11-11T12:41:57Z</time>
      </trkpt>
      <trkpt lat="43.70757" lon="1.28058">
        <ele>174</ele>
        <time>2015-11-11T12:41:58Z</time>
      </trkpt>
      <trkpt lat="43.70763" lon="1.28059">
        <ele>173.9</ele>
        <time>2015-11-11T12:41:59Z</time>
      </trkpt>
      <trkpt lat="43.70769" lon="1.2806">
        <ele>173.8</ele>
        <time>2015-11-11T12:42:00Z</time>
      </trkpt>
      <trkpt lat="43.70776" lon="1.28059">
        <ele>173.6</ele>
        <time>2015-11-11T12:42:01Z</time>
      </trkpt>
      <trkpt lat="43.70783" lon="1.28061">
        <ele>173.5</ele>
        <time>2015-11-11T12:42:02Z</time>
      </trkpt>
      <trkpt lat="43.70789" lon="1.28062">
        <ele>173.3</ele>
        <time>2015-11-11T12:42:03Z</time>
      </trkpt>
      <trkpt lat="43.70796" lon="1.28061">
        <ele>173.3</ele>
        <time>2015-11-11T12:42:04Z</time>
      </trkpt>
      <trkpt lat="43.70803" lon="1.28062">
        <ele>173.4</ele>
        <time>2015-11-11T12:42:05Z</time>
      </trkpt>
      <trkpt lat="43.70808" lon="1.28061">
        <ele>173.5</ele>
        <time>2015-11-11T12:42:06Z</time>
      </trkpt>
      <trkpt lat="43.70815" lon="1.28061">
        <ele>173.7</ele>
        <time>2015-11-11T12:42:07Z</time>
      </trkpt>
      <trkpt lat="43.70822" lon="1.28062">
        <ele>173.8</ele>
        <time>2015-11-11T12:42:08Z</time>
      </trkpt>
      <trkpt lat="43.70828" lon="1.28061">
        <ele>173.9</ele>
        <time>2015-11-11T12:42:09Z</time>
      </trkpt>
      <trkpt lat="43.70833" lon="1.28061">
        <ele>174</ele>
        <time>2015-11-11T12:42:10Z</time>
      </trkpt>
      <trkpt lat="43.70839" lon="1.28061">
        <ele>174.1</ele>
        <time>2015-11-11T12:42:11Z</time>
      </trkpt>
      <trkpt lat="43.70846" lon="1.28062">
        <ele>174.2</ele>
        <time>2015-11-11T12:42:12Z</time>
      </trkpt>
      <trkpt lat="43.70853" lon="1.28062">
        <ele>174.4</ele>
        <time>2015-11-11T12:42:13Z</time>
      </trkpt>
      <trkpt lat="43.7086" lon="1.28062">
        <ele>174.5</ele>
        <time>2015-11-11T12:42:14Z</time>
      </trkpt>
      <trkpt lat="43.70866" lon="1.28063">
        <ele>174.6</ele>
        <time>2015-11-11T12:42:15Z</time>
      </trkpt>
      <trkpt lat="43.70873" lon="1.28066">
        <ele>174.7</ele>
        <time>2015-11-11T12:42:16Z</time>
      </trkpt>
      <trkpt lat="43.7088" lon="1.28068">
        <ele>174.6</ele>
        <time>2015-11-11T12:42:17Z</time>
      </trkpt>
      <trkpt lat="43.70886" lon="1.28072">
        <ele>174.6</ele>
        <time>2015-11-11T12:42:18Z</time>
      </trkpt>
      <trkpt lat="43.70893" lon="1.28074">
        <ele>174.5</ele>
        <time>2015-11-11T12:42:19Z</time>
      </trkpt>
      <trkpt lat="43.70899" lon="1.28077">
        <ele>174.4</ele>
        <time>2015-11-11T12:42:20Z</time>
      </trkpt>
      <trkpt lat="43.70905" lon="1.28082">
        <ele>174.3</ele>
        <time>2015-11-11T12:42:21Z</time>
      </trkpt>
      <trkpt lat="43.70912" lon="1.28087">
        <ele>174.3</ele>
        <time>2015-11-11T12:42:22Z</time>
      </trkpt>
      <trkpt lat="43.70918" lon="1.28091">
        <ele>174.2</ele>
        <time>2015-11-11T12:42:23Z</time>
      </trkpt>
      <trkpt lat="43.70923" lon="1.28096">
        <ele>174.2</ele>
        <time>2015-11-11T12:42:24Z</time>
      </trkpt>
      <trkpt lat="43.70928" lon="1.281">
        <ele>174.1</ele>
        <time>2015-11-11T12:42:25Z</time>
      </trkpt>
      <trkpt lat="43.70935" lon="1.28103">
        <ele>174.1</ele>
        <time>2015-11-11T12:42:26Z</time>
      </trkpt>
      <trkpt lat="43.70941" lon="1.28108">
        <ele>174</ele>
        <time>2015-11-11T12:42:27Z</time>
      </trkpt>
      <trkpt lat="43.70947" lon="1.28113">
        <ele>174</ele>
        <time>2015-11-11T12:42:28Z</time>
      </trkpt>
      <trkpt lat="43.70952" lon="1.28117">
        <ele>174</ele>
        <time>2015-11-11T12:42:29Z</time>
      </trkpt>
      <trkpt lat="43.70957" lon="1.28121">
        <ele>174</ele>
        <time>2015-11-11T12:42:30Z</time>
      </trkpt>
      <trkpt lat="43.70963" lon="1.28126">
        <ele>174.1</ele>
        <time>2015-11-11T12:42:31Z</time>
      </trkpt>
      <trkpt lat="43.70967" lon="1.28129">
        <ele>174.2</ele>
        <time>2015-11-11T12:42:32Z</time>
      </trkpt>
      <trkpt lat="43.70972" lon="1.28135">
        <ele>174.3</ele>
        <time>2015-11-11T12:42:33Z</time>
      </trkpt>
      <trkpt lat="43.70978" lon="1.28141">
        <ele>174.4</ele>
        <time>2015-11-11T12:42:34Z</time>
      </trkpt>
      <trkpt lat="43.70984" lon="1.28146">
        <ele>174.5</ele>
        <time>2015-11-11T12:42:35Z</time>
      </trkpt>
      <trkpt lat="43.70989" lon="1.28151">
        <ele>174.6</ele>
        <time>2015-11-11T12:42:36Z</time>
      </trkpt>
      <trkpt lat="43.70995" lon="1.28156">
        <ele>174.6</ele>
        <time>2015-11-11T12:42:37Z</time>
      </trkpt>
      <trkpt lat="43.71" lon="1.28161">
        <ele>174.7</ele>
        <time>2015-11-11T12:42:38Z</time>
      </trkpt>
      <trkpt lat="43.71007" lon="1.28166">
        <ele>174.8</ele>
        <time>2015-11-11T12:42:39Z</time>
      </trkpt>
      <trkpt lat="43.71012" lon="1.28171">
        <ele>174.8</ele>
        <time>2015-11-11T12:42:40Z</time>
      </trkpt>
      <trkpt lat="43.71017" lon="1.28176">
        <ele>174.9</ele>
        <time>2015-11-11T12:42:41Z</time>
      </trkpt>
      <trkpt lat="43.71023" lon="1.28182">
        <ele>174.9</ele>
        <time>2015-11-11T12:42:42Z</time>
      </trkpt>
      <trkpt lat="43.71028" lon="1.28188">
        <ele>175</ele>
        <time>2015-11-11T12:42:43Z</time>
      </trkpt>
      <trkpt lat="43.71034" lon="1.28193">
        <ele>175</ele>
        <time>2015-11-11T12:42:44Z</time>
      </trkpt>
      <trkpt lat="43.7104" lon="1.28198">
        <ele>175</ele>
        <time>2015-11-11T12:42:45Z</time>
      </trkpt>
      <trkpt lat="43.71046" lon="1.28203">
        <ele>175</ele>
        <time>2015-11-11T12:42:46Z</time>
      </trkpt>
      <trkpt lat="43.71051" lon="1.28209">
        <ele>174.9</ele>
        <time>2015-11-11T12:42:47Z</time>
      </trkpt>
      <trkpt lat="43.71057" lon="1.28213">
        <ele>174.7</ele>
        <time>2015-11-11T12:42:48Z</time>
      </trkpt>
      <trkpt lat="43.71062" lon="1.28219">
        <ele>174.6</ele>
        <time>2015-11-11T12:42:49Z</time>
      </trkpt>
      <trkpt lat="43.71066" lon="1.28225">
        <ele>174.4</ele>
        <time>2015-11-11T12:42:50Z</time>
      </trkpt>
      <trkpt lat="43.71072" lon="1.28231">
        <ele>174.3</ele>
        <time>2015-11-11T12:42:51Z</time>
      </trkpt>
      <trkpt lat="43.71077" lon="1.28237">
        <ele>174.2</ele>
        <time>2015-11-11T12:42:52Z</time>
      </trkpt>
      <trkpt lat="43.71082" lon="1.28243">
        <ele>174.1</ele>
        <time>2015-11-11T12:42:53Z</time>
      </trkpt>
      <trkpt lat="43.71087" lon="1.28248">
        <ele>174</ele>
        <time>2015-11-11T12:42:54Z</time>
      </trkpt>
      <trkpt lat="43.71092" lon="1.28256">
        <ele>173.9</ele>
        <time>2015-11-11T12:42:55Z</time>
      </trkpt>
      <trkpt lat="43.71095" lon="1.28263">
        <ele>173.9</ele>
        <time>2015-11-11T12:42:56Z</time>
      </trkpt>
      <trkpt lat="43.71101" lon="1.28268">
        <ele>173.9</ele>
        <time>2015-11-11T12:42:57Z</time>
      </trkpt>
      <trkpt lat="43.71106" lon="1.28271">
        <ele>173.9</ele>
        <time>2015-11-11T12:42:58Z</time>
      </trkpt>
      <trkpt lat="43.7111" lon="1.28276">
        <ele>173.9</ele>
        <time>2015-11-11T12:42:59Z</time>
      </trkpt>
      <trkpt lat="43.71115" lon="1.28282">
        <ele>173.9</ele>
        <time>2015-11-11T12:43:00Z</time>
      </trkpt>
      <trkpt lat="43.7112" lon="1.28287">
        <ele>173.9</ele>
        <time>2015-11-11T12:43:01Z</time>
      </trkpt>
      <trkpt lat="43.71122" lon="1.28293">
        <ele>174</ele>
        <time>2015-11-11T12:43:02Z</time>
      </trkpt>
      <trkpt lat="43.71128" lon="1.28299">
        <ele>174</ele>
        <time>2015-11-11T12:43:03Z</time>
      </trkpt>
      <trkpt lat="43.71132" lon="1.28306">
        <ele>173.9</ele>
        <time>2015-11-11T12:43:04Z</time>
      </trkpt>
      <trkpt lat="43.71137" lon="1.28312">
        <ele>173.9</ele>
        <time>2015-11-11T12:43:05Z</time>
      </trkpt>
      <trkpt lat="43.71141" lon="1.28317">
        <ele>173.8</ele>
        <time>2015-11-11T12:43:06Z</time>
      </trkpt>
      <trkpt lat="43.71148" lon="1.28326">
        <ele>173.7</ele>
        <time>2015-11-11T12:43:07Z</time>
      </trkpt>
      <trkpt lat="43.71153" lon="1.28331">
        <ele>173.7</ele>
        <time>2015-11-11T12:43:08Z</time>
      </trkpt>
      <trkpt lat="43.71158" lon="1.28338">
        <ele>173.6</ele>
        <time>2015-11-11T12:43:09Z</time>
      </trkpt>
      <trkpt lat="43.71163" lon="1.28345">
        <ele>173.5</ele>
        <time>2015-11-11T12:43:10Z</time>
      </trkpt>
      <trkpt lat="43.71168" lon="1.28351">
        <ele>173.5</ele>
        <time>2015-11-11T12:43:11Z</time>
      </trkpt>
      <trkpt lat="43.71174" lon="1.28357">
        <ele>173.4</ele>
        <time>2015-11-11T12:43:12Z</time>
      </trkpt>
      <trkpt lat="43.71178" lon="1.28363">
        <ele>173.4</ele>
        <time>2015-11-11T12:43:13Z</time>
      </trkpt>
      <trkpt lat="43.71185" lon="1.28367">
        <ele>173.3</ele>
        <time>2015-11-11T12:43:14Z</time>
      </trkpt>
      <trkpt lat="43.71189" lon="1.28374">
        <ele>173.2</ele>
        <time>2015-11-11T12:43:15Z</time>
      </trkpt>
      <trkpt lat="43.71194" lon="1.28379">
        <ele>173.2</ele>
        <time>2015-11-11T12:43:16Z</time>
      </trkpt>
      <trkpt lat="43.71198" lon="1.28385">
        <ele>173.2</ele>
        <time>2015-11-11T12:43:17Z</time>
      </trkpt>
      <trkpt lat="43.71204" lon="1.28391">
        <ele>173.2</ele>
        <time>2015-11-11T12:43:18Z</time>
      </trkpt>
      <trkpt lat="43.71208" lon="1.28397">
        <ele>173.3</ele>
        <time>2015-11-11T12:43:19Z</time>
      </trkpt>
      <trkpt lat="43.71212" lon="1.28403">
        <ele>173.2</ele>
        <time>2015-11-11T12:43:20Z</time>
      </trkpt>
      <trkpt lat="43.71217" lon="1.28409">
        <ele>173.2</ele>
        <time>2015-11-11T12:43:21Z</time>
      </trkpt>
      <trkpt lat="43.7122" lon="1.28415">
        <ele>173.1</ele>
        <time>2015-11-11T12:43:22Z</time>
      </trkpt>
      <trkpt lat="43.71225" lon="1.28421">
        <ele>173</ele>
        <time>2015-11-11T12:43:23Z</time>
      </trkpt>
      <trkpt lat="43.7123" lon="1.28427">
        <ele>172.9</ele>
        <time>2015-11-11T12:43:24Z</time>
      </trkpt>
      <trkpt lat="43.71235" lon="1.28434">
        <ele>172.7</ele>
        <time>2015-11-11T12:43:25Z</time>
      </trkpt>
      <trkpt lat="43.71239" lon="1.2844">
        <ele>172.6</ele>
        <time>2015-11-11T12:43:26Z</time>
      </trkpt>
      <trkpt lat="43.71243" lon="1.28447">
        <ele>172.4</ele>
        <time>2015-11-11T12:43:27Z</time>
      </trkpt>
      <trkpt lat="43.71248" lon="1.28452">
        <ele>172.1</ele>
        <time>2015-11-11T12:43:28Z</time>
      </trkpt>
      <trkpt lat="43.71255" lon="1.28459">
        <ele>171.8</ele>
        <time>2015-11-11T12:43:29Z</time>
      </trkpt>
      <trkpt lat="43.71259" lon="1.28465">
        <ele>171.7</ele>
        <time>2015-11-11T12:43:30Z</time>
      </trkpt>
      <trkpt lat="43.71264" lon="1.28472">
        <ele>171.5</ele>
        <time>2015-11-11T12:43:31Z</time>
      </trkpt>
      <trkpt lat="43.71269" lon="1.28478">
        <ele>171.4</ele>
        <time>2015-11-11T12:43:32Z</time>
      </trkpt>
      <trkpt lat="43.71274" lon="1.28484">
        <ele>171.4</ele>
        <time>2015-11-11T12:43:33Z</time>
      </trkpt>
      <trkpt lat="43.71278" lon="1.28491">
        <ele>171.3</ele>
        <time>2015-11-11T12:43:34Z</time>
      </trkpt>
      <trkpt lat="43.71283" lon="1.28497">
        <ele>171.2</ele>
        <time>2015-11-11T12:43:35Z</time>
      </trkpt>
      <trkpt lat="43.71288" lon="1.28503">
        <ele>171.2</ele>
        <time>2015-11-11T12:43:36Z</time>
      </trkpt>
      <trkpt lat="43.71292" lon="1.28509">
        <ele>171.2</ele>
        <time>2015-11-11T12:43:37Z</time>
      </trkpt>
      <trkpt lat="43.71296" lon="1.28513">
        <ele>171.4</ele>
        <time>2015-11-11T12:43:38Z</time>
      </trkpt>
      <trkpt lat="43.71301" lon="1.2852">
        <ele>171.6</ele>
        <time>2015-11-11T12:43:39Z</time>
      </trkpt>
      <trkpt lat="43.71306" lon="1.28524">
        <ele>171.8</ele>
        <time>2015-11-11T12:43:40Z</time>
      </trkpt>
      <trkpt lat="43.71311" lon="1.2853">
        <ele>172</ele>
        <time>2015-11-11T12:43:41Z</time>
      </trkpt>
      <trkpt lat="43.71315" lon="1.28536">
        <ele>172.2</ele>
        <time>2015-11-11T12:43:42Z</time>
      </trkpt>
      <trkpt lat="43.71321" lon="1.28541">
        <ele>172.3</ele>
        <time>2015-11-11T12:43:43Z</time>
      </trkpt>
      <trkpt lat="43.71326" lon="1.28546">
        <ele>172.6</ele>
        <time>2015-11-11T12:43:44Z</time>
      </trkpt>
      <trkpt lat="43.71331" lon="1.28554">
        <ele>172.8</ele>
        <time>2015-11-11T12:43:45Z</time>
      </trkpt>
      <trkpt lat="43.71333" lon="1.2856">
        <ele>173</ele>
        <time>2015-11-11T12:43:46Z</time>
      </trkpt>
      <trkpt lat="43.71337" lon="1.28566">
        <ele>173.3</ele>
        <time>2015-11-11T12:43:47Z</time>
      </trkpt>
      <trkpt lat="43.71343" lon="1.28573">
        <ele>173.5</ele>
        <time>2015-11-11T12:43:48Z</time>
      </trkpt>
      <trkpt lat="43.71347" lon="1.28581">
        <ele>173.8</ele>
        <time>2015-11-11T12:43:49Z</time>
      </trkpt>
      <trkpt lat="43.71352" lon="1.28588">
        <ele>174</ele>
        <time>2015-11-11T12:43:50Z</time>
      </trkpt>
      <trkpt lat="43.71357" lon="1.28596">
        <ele>174.2</ele>
        <time>2015-11-11T12:43:51Z</time>
      </trkpt>
      <trkpt lat="43.71361" lon="1.28603">
        <ele>174.4</ele>
        <time>2015-11-11T12:43:52Z</time>
      </trkpt>
      <trkpt lat="43.71365" lon="1.28609">
        <ele>174.6</ele>
        <time>2015-11-11T12:43:53Z</time>
      </trkpt>
      <trkpt lat="43.71367" lon="1.28616">
        <ele>174.8</ele>
        <time>2015-11-11T12:43:54Z</time>
      </trkpt>
      <trkpt lat="43.71368" lon="1.28624">
        <ele>175</ele>
        <time>2015-11-11T12:43:55Z</time>
      </trkpt>
      <trkpt lat="43.71371" lon="1.28631">
        <ele>175</ele>
        <time>2015-11-11T12:43:56Z</time>
      </trkpt>
      <trkpt lat="43.71375" lon="1.28639">
        <ele>175</ele>
        <time>2015-11-11T12:43:57Z</time>
      </trkpt>
      <trkpt lat="43.7138" lon="1.28648">
        <ele>174.9</ele>
        <time>2015-11-11T12:43:58Z</time>
      </trkpt>
      <trkpt lat="43.71383" lon="1.28656">
        <ele>174.9</ele>
        <time>2015-11-11T12:43:59Z</time>
      </trkpt>
      <trkpt lat="43.71385" lon="1.28664">
        <ele>174.9</ele>
        <time>2015-11-11T12:44:00Z</time>
      </trkpt>
      <trkpt lat="43.71389" lon="1.28673">
        <ele>174.9</ele>
        <time>2015-11-11T12:44:01Z</time>
      </trkpt>
      <trkpt lat="43.71394" lon="1.2868">
        <ele>174.8</ele>
        <time>2015-11-11T12:44:02Z</time>
      </trkpt>
      <trkpt lat="43.71399" lon="1.28689">
        <ele>174.9</ele>
        <time>2015-11-11T12:44:03Z</time>
      </trkpt>
      <trkpt lat="43.71403" lon="1.28697">
        <ele>174.9</ele>
        <time>2015-11-11T12:44:04Z</time>
      </trkpt>
      <trkpt lat="43.71404" lon="1.28705">
        <ele>175</ele>
        <time>2015-11-11T12:44:05Z</time>
      </trkpt>
      <trkpt lat="43.71409" lon="1.28714">
        <ele>174.7</ele>
        <time>2015-11-11T12:44:06Z</time>
      </trkpt>
      <trkpt lat="43.71413" lon="1.28722">
        <ele>174.4</ele>
        <time>2015-11-11T12:44:07Z</time>
      </trkpt>
      <trkpt lat="43.71418" lon="1.28728">
        <ele>174</ele>
        <time>2015-11-11T12:44:08Z</time>
      </trkpt>
      <trkpt lat="43.71422" lon="1.28735">
        <ele>173.7</ele>
        <time>2015-11-11T12:44:09Z</time>
      </trkpt>
      <trkpt lat="43.71428" lon="1.28744">
        <ele>173.3</ele>
        <time>2015-11-11T12:44:10Z</time>
      </trkpt>
      <trkpt lat="43.71434" lon="1.28752">
        <ele>172.9</ele>
        <time>2015-11-11T12:44:11Z</time>
      </trkpt>
      <trkpt lat="43.71441" lon="1.28762">
        <ele>172.4</ele>
        <time>2015-11-11T12:44:12Z</time>
      </trkpt>
      <trkpt lat="43.71445" lon="1.28768">
        <ele>172.2</ele>
        <time>2015-11-11T12:44:13Z</time>
      </trkpt>
      <trkpt lat="43.71451" lon="1.28777">
        <ele>171.7</ele>
        <time>2015-11-11T12:44:14Z</time>
      </trkpt>
      <trkpt lat="43.71458" lon="1.28786">
        <ele>171.3</ele>
        <time>2015-11-11T12:44:15Z</time>
      </trkpt>
      <trkpt lat="43.71465" lon="1.28794">
        <ele>171</ele>
        <time>2015-11-11T12:44:16Z</time>
      </trkpt>
      <trkpt lat="43.71472" lon="1.28804">
        <ele>170.7</ele>
        <time>2015-11-11T12:44:17Z</time>
      </trkpt>
      <trkpt lat="43.71477" lon="1.2881">
        <ele>170.6</ele>
        <time>2015-11-11T12:44:18Z</time>
      </trkpt>
      <trkpt lat="43.71481" lon="1.28815">
        <ele>170.5</ele>
        <time>2015-11-11T12:44:19Z</time>
      </trkpt>
      <trkpt lat="43.71487" lon="1.28822">
        <ele>170.4</ele>
        <time>2015-11-11T12:44:20Z</time>
      </trkpt>
      <trkpt lat="43.71493" lon="1.28828">
        <ele>170.3</ele>
        <time>2015-11-11T12:44:21Z</time>
      </trkpt>
      <trkpt lat="43.71496" lon="1.28837">
        <ele>170.1</ele>
        <time>2015-11-11T12:44:22Z</time>
      </trkpt>
      <trkpt lat="43.71502" lon="1.28845">
        <ele>169.9</ele>
        <time>2015-11-11T12:44:23Z</time>
      </trkpt>
      <trkpt lat="43.71508" lon="1.28852">
        <ele>169.8</ele>
        <time>2015-11-11T12:44:24Z</time>
      </trkpt>
      <trkpt lat="43.71513" lon="1.28859">
        <ele>169.8</ele>
        <time>2015-11-11T12:44:25Z</time>
      </trkpt>
      <trkpt lat="43.71519" lon="1.28867">
        <ele>169.7</ele>
        <time>2015-11-11T12:44:26Z</time>
      </trkpt>
      <trkpt lat="43.71524" lon="1.28868">
        <ele>169.8</ele>
        <time>2015-11-11T12:44:27Z</time>
      </trkpt>
      <trkpt lat="43.71529" lon="1.28876">
        <ele>169.7</ele>
        <time>2015-11-11T12:44:28Z</time>
      </trkpt>
      <trkpt lat="43.71535" lon="1.28884">
        <ele>169.4</ele>
        <time>2015-11-11T12:44:29Z</time>
      </trkpt>
      <trkpt lat="43.71539" lon="1.28895">
        <ele>169</ele>
        <time>2015-11-11T12:44:30Z</time>
      </trkpt>
      <trkpt lat="43.71545" lon="1.28903">
        <ele>168.6</ele>
        <time>2015-11-11T12:44:31Z</time>
      </trkpt>
      <trkpt lat="43.71551" lon="1.2891">
        <ele>168.3</ele>
        <time>2015-11-11T12:44:32Z</time>
      </trkpt>
      <trkpt lat="43.71557" lon="1.28918">
        <ele>167.9</ele>
        <time>2015-11-11T12:44:33Z</time>
      </trkpt>
      <trkpt lat="43.71564" lon="1.28926">
        <ele>167.4</ele>
        <time>2015-11-11T12:44:34Z</time>
      </trkpt>
      <trkpt lat="43.7157" lon="1.28934">
        <ele>166.9</ele>
        <time>2015-11-11T12:44:35Z</time>
      </trkpt>
      <trkpt lat="43.71574" lon="1.2894">
        <ele>166.6</ele>
        <time>2015-11-11T12:44:36Z</time>
      </trkpt>
      <trkpt lat="43.7158" lon="1.28949">
        <ele>166</ele>
        <time>2015-11-11T12:44:37Z</time>
      </trkpt>
      <trkpt lat="43.71585" lon="1.28957">
        <ele>165.6</ele>
        <time>2015-11-11T12:44:38Z</time>
      </trkpt>
      <trkpt lat="43.7159" lon="1.28964">
        <ele>165.4</ele>
        <time>2015-11-11T12:44:39Z</time>
      </trkpt>
      <trkpt lat="43.71595" lon="1.2897">
        <ele>165.3</ele>
        <time>2015-11-11T12:44:40Z</time>
      </trkpt>
      <trkpt lat="43.71599" lon="1.28977">
        <ele>165.2</ele>
        <time>2015-11-11T12:44:41Z</time>
      </trkpt>
      <trkpt lat="43.71605" lon="1.28984">
        <ele>165.1</ele>
        <time>2015-11-11T12:44:42Z</time>
      </trkpt>
      <trkpt lat="43.71611" lon="1.28991">
        <ele>165</ele>
        <time>2015-11-11T12:44:43Z</time>
      </trkpt>
      <trkpt lat="43.71617" lon="1.28998">
        <ele>165</ele>
        <time>2015-11-11T12:44:44Z</time>
      </trkpt>
      <trkpt lat="43.71623" lon="1.29004">
        <ele>165</ele>
        <time>2015-11-11T12:44:45Z</time>
      </trkpt>
      <trkpt lat="43.71628" lon="1.29009">
        <ele>165</ele>
        <time>2015-11-11T12:44:46Z</time>
      </trkpt>
      <trkpt lat="43.71634" lon="1.29014">
        <ele>164.9</ele>
        <time>2015-11-11T12:44:47Z</time>
      </trkpt>
      <trkpt lat="43.7164" lon="1.2902">
        <ele>164.7</ele>
        <time>2015-11-11T12:44:48Z</time>
      </trkpt>
      <trkpt lat="43.71647" lon="1.29026">
        <ele>164.6</ele>
        <time>2015-11-11T12:44:49Z</time>
      </trkpt>
      <trkpt lat="43.7165" lon="1.29032">
        <ele>164.5</ele>
        <time>2015-11-11T12:44:50Z</time>
      </trkpt>
      <trkpt lat="43.71656" lon="1.29036">
        <ele>164.3</ele>
        <time>2015-11-11T12:44:51Z</time>
      </trkpt>
      <trkpt lat="43.71661" lon="1.29042">
        <ele>164.1</ele>
        <time>2015-11-11T12:44:52Z</time>
      </trkpt>
      <trkpt lat="43.71666" lon="1.29046">
        <ele>164</ele>
        <time>2015-11-11T12:44:53Z</time>
      </trkpt>
      <trkpt lat="43.7167" lon="1.2905">
        <ele>163.8</ele>
        <time>2015-11-11T12:44:54Z</time>
      </trkpt>
      <trkpt lat="43.71676" lon="1.29057">
        <ele>163.5</ele>
        <time>2015-11-11T12:44:55Z</time>
      </trkpt>
      <trkpt lat="43.71684" lon="1.29065">
        <ele>163.2</ele>
        <time>2015-11-11T12:44:56Z</time>
      </trkpt>
      <trkpt lat="43.71689" lon="1.29069">
        <ele>163.1</ele>
        <time>2015-11-11T12:44:57Z</time>
      </trkpt>
      <trkpt lat="43.71691" lon="1.29076">
        <ele>162.9</ele>
        <time>2015-11-11T12:44:58Z</time>
      </trkpt>
      <trkpt lat="43.717" lon="1.29082">
        <ele>162.7</ele>
        <time>2015-11-11T12:44:59Z</time>
      </trkpt>
      <trkpt lat="43.71702" lon="1.29087">
        <ele>162.6</ele>
        <time>2015-11-11T12:45:00Z</time>
      </trkpt>
      <trkpt lat="43.71706" lon="1.29096">
        <ele>162.4</ele>
        <time>2015-11-11T12:45:01Z</time>
      </trkpt>
      <trkpt lat="43.71708" lon="1.29105">
        <ele>162.2</ele>
        <time>2015-11-11T12:45:02Z</time>
      </trkpt>
      <trkpt lat="43.7171" lon="1.29114">
        <ele>162.1</ele>
        <time>2015-11-11T12:45:03Z</time>
      </trkpt>
      <trkpt lat="43.71708" lon="1.29124">
        <ele>162</ele>
        <time>2015-11-11T12:45:04Z</time>
      </trkpt>
      <trkpt lat="43.71706" lon="1.29131">
        <ele>161.9</ele>
        <time>2015-11-11T12:45:05Z</time>
      </trkpt>
      <trkpt lat="43.71702" lon="1.29137">
        <ele>161.8</ele>
        <time>2015-11-11T12:45:06Z</time>
      </trkpt>
      <trkpt lat="43.71701" lon="1.29144">
        <ele>161.6</ele>
        <time>2015-11-11T12:45:07Z</time>
      </trkpt>
      <trkpt lat="43.71699" lon="1.2915">
        <ele>161.5</ele>
        <time>2015-11-11T12:45:08Z</time>
      </trkpt>
      <trkpt lat="43.717" lon="1.29156">
        <ele>161.3</ele>
        <time>2015-11-11T12:45:09Z</time>
      </trkpt>
      <trkpt lat="43.71706" lon="1.29161">
        <ele>161.2</ele>
        <time>2015-11-11T12:45:10Z</time>
      </trkpt>
      <trkpt lat="43.71709" lon="1.29161">
        <ele>161.1</ele>
        <time>2015-11-11T12:45:11Z</time>
      </trkpt>
      <trkpt lat="43.71713" lon="1.29158">
        <ele>161.3</ele>
        <time>2015-11-11T12:45:12Z</time>
      </trkpt>
      <trkpt lat="43.71717" lon="1.29154">
        <ele>161.4</ele>
        <time>2015-11-11T12:45:13Z</time>
      </trkpt>
      <trkpt lat="43.71722" lon="1.29152">
        <ele>161.5</ele>
        <time>2015-11-11T12:45:14Z</time>
      </trkpt>
      <trkpt lat="43.71727" lon="1.29151">
        <ele>161.6</ele>
        <time>2015-11-11T12:45:15Z</time>
      </trkpt>
      <trkpt lat="43.71731" lon="1.29154">
        <ele>161.6</ele>
        <time>2015-11-11T12:45:16Z</time>
      </trkpt>
      <trkpt lat="43.71735" lon="1.29155">
        <ele>161.6</ele>
        <time>2015-11-11T12:45:17Z</time>
      </trkpt>
      <trkpt lat="43.71741" lon="1.29154">
        <ele>161.7</ele>
        <time>2015-11-11T12:45:18Z</time>
      </trkpt>
      <trkpt lat="43.71746" lon="1.29156">
        <ele>161.7</ele>
        <time>2015-11-11T12:45:19Z</time>
      </trkpt>
      <trkpt lat="43.7175" lon="1.29161">
        <ele>161.6</ele>
        <time>2015-11-11T12:45:20Z</time>
      </trkpt>
      <trkpt lat="43.71755" lon="1.29165">
        <ele>161.6</ele>
        <time>2015-11-11T12:45:21Z</time>
      </trkpt>
      <trkpt lat="43.71759" lon="1.2917">
        <ele>161.5</ele>
        <time>2015-11-11T12:45:22Z</time>
      </trkpt>
      <trkpt lat="43.71763" lon="1.29174">
        <ele>161.5</ele>
        <time>2015-11-11T12:45:23Z</time>
      </trkpt>
      <trkpt lat="43.71769" lon="1.29176">
        <ele>161.5</ele>
        <time>2015-11-11T12:45:24Z</time>
      </trkpt>
      <trkpt lat="43.71775" lon="1.29178">
        <ele>161.5</ele>
        <time>2015-11-11T12:45:25Z</time>
      </trkpt>
      <trkpt lat="43.71782" lon="1.29177">
        <ele>161.6</ele>
        <time>2015-11-11T12:45:26Z</time>
      </trkpt>
      <trkpt lat="43.71789" lon="1.29175">
        <ele>161.8</ele>
        <time>2015-11-11T12:45:27Z</time>
      </trkpt>
      <trkpt lat="43.71796" lon="1.29173">
        <ele>161.8</ele>
        <time>2015-11-11T12:45:28Z</time>
      </trkpt>
      <trkpt lat="43.71803" lon="1.29172">
        <ele>161.7</ele>
        <time>2015-11-11T12:45:29Z</time>
      </trkpt>
      <trkpt lat="43.71808" lon="1.2917">
        <ele>161.6</ele>
        <time>2015-11-11T12:45:30Z</time>
      </trkpt>
      <trkpt lat="43.71815" lon="1.29169">
        <ele>161.6</ele>
        <time>2015-11-11T12:45:31Z</time>
      </trkpt>
      <trkpt lat="43.71821" lon="1.29167">
        <ele>161.5</ele>
        <time>2015-11-11T12:45:32Z</time>
      </trkpt>
      <trkpt lat="43.71828" lon="1.29165">
        <ele>161.4</ele>
        <time>2015-11-11T12:45:33Z</time>
      </trkpt>
      <trkpt lat="43.71834" lon="1.29163">
        <ele>161.3</ele>
        <time>2015-11-11T12:45:34Z</time>
      </trkpt>
      <trkpt lat="43.71841" lon="1.29163">
        <ele>161.1</ele>
        <time>2015-11-11T12:45:35Z</time>
      </trkpt>
      <trkpt lat="43.71846" lon="1.2916">
        <ele>161</ele>
        <time>2015-11-11T12:45:36Z</time>
      </trkpt>
      <trkpt lat="43.71854" lon="1.29163">
        <ele>160.9</ele>
        <time>2015-11-11T12:45:37Z</time>
      </trkpt>
      <trkpt lat="43.7186" lon="1.29161">
        <ele>160.7</ele>
        <time>2015-11-11T12:45:38Z</time>
      </trkpt>
      <trkpt lat="43.71866" lon="1.2916">
        <ele>160.6</ele>
        <time>2015-11-11T12:45:39Z</time>
      </trkpt>
      <trkpt lat="43.71873" lon="1.29158">
        <ele>160.4</ele>
        <time>2015-11-11T12:45:40Z</time>
      </trkpt>
      <trkpt lat="43.71878" lon="1.29156">
        <ele>160.4</ele>
        <time>2015-11-11T12:45:41Z</time>
      </trkpt>
      <trkpt lat="43.71885" lon="1.29153">
        <ele>160.3</ele>
        <time>2015-11-11T12:45:42Z</time>
      </trkpt>
      <trkpt lat="43.71892" lon="1.2915">
        <ele>160.3</ele>
        <time>2015-11-11T12:45:43Z</time>
      </trkpt>
      <trkpt lat="43.71899" lon="1.29149">
        <ele>160.3</ele>
        <time>2015-11-11T12:45:44Z</time>
      </trkpt>
      <trkpt lat="43.71906" lon="1.29147">
        <ele>160.3</ele>
        <time>2015-11-11T12:45:45Z</time>
      </trkpt>
      <trkpt lat="43.71912" lon="1.29145">
        <ele>160.4</ele>
        <time>2015-11-11T12:45:46Z</time>
      </trkpt>
      <trkpt lat="43.71918" lon="1.29142">
        <ele>160.4</ele>
        <time>2015-11-11T12:45:47Z</time>
      </trkpt>
      <trkpt lat="43.71924" lon="1.2914">
        <ele>160.5</ele>
        <time>2015-11-11T12:45:48Z</time>
      </trkpt>
      <trkpt lat="43.7193" lon="1.29138">
        <ele>160.5</ele>
        <time>2015-11-11T12:45:49Z</time>
      </trkpt>
      <trkpt lat="43.71935" lon="1.29135">
        <ele>160.6</ele>
        <time>2015-11-11T12:45:50Z</time>
      </trkpt>
      <trkpt lat="43.71939" lon="1.29131">
        <ele>160.7</ele>
        <time>2015-11-11T12:45:51Z</time>
      </trkpt>
      <trkpt lat="43.71945" lon="1.29125">
        <ele>160.8</ele>
        <time>2015-11-11T12:45:52Z</time>
      </trkpt>
      <trkpt lat="43.7195" lon="1.29119">
        <ele>160.9</ele>
        <time>2015-11-11T12:45:53Z</time>
      </trkpt>
      <trkpt lat="43.71956" lon="1.29116">
        <ele>161</ele>
        <time>2015-11-11T12:45:54Z</time>
      </trkpt>
      <trkpt lat="43.71961" lon="1.29115">
        <ele>161</ele>
        <time>2015-11-11T12:45:55Z</time>
      </trkpt>
      <trkpt lat="43.71967" lon="1.29113">
        <ele>161</ele>
        <time>2015-11-11T12:45:56Z</time>
      </trkpt>
      <trkpt lat="43.71973" lon="1.29109">
        <ele>161.1</ele>
        <time>2015-11-11T12:45:57Z</time>
      </trkpt>
      <trkpt lat="43.71978" lon="1.29105">
        <ele>161.1</ele>
        <time>2015-11-11T12:45:58Z</time>
      </trkpt>
      <trkpt lat="43.71981" lon="1.29098">
        <ele>161.2</ele>
        <time>2015-11-11T12:45:59Z</time>
      </trkpt>
      <trkpt lat="43.71977" lon="1.29091">
        <ele>161.2</ele>
        <time>2015-11-11T12:46:00Z</time>
      </trkpt>
      <trkpt lat="43.71974" lon="1.29085">
        <ele>161.2</ele>
        <time>2015-11-11T12:46:01Z</time>
      </trkpt>
      <trkpt lat="43.7197" lon="1.29077">
        <ele>161.2</ele>
        <time>2015-11-11T12:46:02Z</time>
      </trkpt>
      <trkpt lat="43.7197" lon="1.2907">
        <ele>161.2</ele>
        <time>2015-11-11T12:46:03Z</time>
      </trkpt>
      <trkpt lat="43.71968" lon="1.29062">
        <ele>161.2</ele>
        <time>2015-11-11T12:46:04Z</time>
      </trkpt>
      <trkpt lat="43.71968" lon="1.29054">
        <ele>161.2</ele>
        <time>2015-11-11T12:46:05Z</time>
      </trkpt>
      <trkpt lat="43.71967" lon="1.29046">
        <ele>161.2</ele>
        <time>2015-11-11T12:46:06Z</time>
      </trkpt>
      <trkpt lat="43.71967" lon="1.29038">
        <ele>161.2</ele>
        <time>2015-11-11T12:46:07Z</time>
      </trkpt>
      <trkpt lat="43.71967" lon="1.29032">
        <ele>161.3</ele>
        <time>2015-11-11T12:46:08Z</time>
      </trkpt>
      <trkpt lat="43.71966" lon="1.29022">
        <ele>161.4</ele>
        <time>2015-11-11T12:46:09Z</time>
      </trkpt>
      <trkpt lat="43.71964" lon="1.29014">
        <ele>161.4</ele>
        <time>2015-11-11T12:46:10Z</time>
      </trkpt>
      <trkpt lat="43.71963" lon="1.29005">
        <ele>161.5</ele>
        <time>2015-11-11T12:46:11Z</time>
      </trkpt>
      <trkpt lat="43.71961" lon="1.28996">
        <ele>161.6</ele>
        <time>2015-11-11T12:46:12Z</time>
      </trkpt>
      <trkpt lat="43.71961" lon="1.28988">
        <ele>161.7</ele>
        <time>2015-11-11T12:46:13Z</time>
      </trkpt>
      <trkpt lat="43.7196" lon="1.2898">
        <ele>161.8</ele>
        <time>2015-11-11T12:46:14Z</time>
      </trkpt>
      <trkpt lat="43.71959" lon="1.28971">
        <ele>161.9</ele>
        <time>2015-11-11T12:46:15Z</time>
      </trkpt>
      <trkpt lat="43.71959" lon="1.28962">
        <ele>162</ele>
        <time>2015-11-11T12:46:16Z</time>
      </trkpt>
      <trkpt lat="43.7196" lon="1.28953">
        <ele>162.1</ele>
        <time>2015-11-11T12:46:17Z</time>
      </trkpt>
      <trkpt lat="43.7196" lon="1.28944">
        <ele>162.2</ele>
        <time>2015-11-11T12:46:18Z</time>
      </trkpt>
      <trkpt lat="43.71959" lon="1.28936">
        <ele>162.3</ele>
        <time>2015-11-11T12:46:19Z</time>
      </trkpt>
      <trkpt lat="43.71959" lon="1.28927">
        <ele>162.4</ele>
        <time>2015-11-11T12:46:20Z</time>
      </trkpt>
      <trkpt lat="43.71958" lon="1.28915">
        <ele>162.5</ele>
        <time>2015-11-11T12:46:21Z</time>
      </trkpt>
      <trkpt lat="43.71958" lon="1.28907">
        <ele>162.6</ele>
        <time>2015-11-11T12:46:22Z</time>
      </trkpt>
      <trkpt lat="43.71959" lon="1.28897">
        <ele>162.7</ele>
        <time>2015-11-11T12:46:23Z</time>
      </trkpt>
      <trkpt lat="43.71959" lon="1.28889">
        <ele>162.8</ele>
        <time>2015-11-11T12:46:24Z</time>
      </trkpt>
      <trkpt lat="43.71958" lon="1.2888">
        <ele>162.9</ele>
        <time>2015-11-11T12:46:25Z</time>
      </trkpt>
      <trkpt lat="43.71958" lon="1.28872">
        <ele>163</ele>
        <time>2015-11-11T12:46:26Z</time>
      </trkpt>
      <trkpt lat="43.7196" lon="1.28867">
        <ele>163.1</ele>
        <time>2015-11-11T12:46:27Z</time>
      </trkpt>
      <trkpt lat="43.71959" lon="1.28859">
        <ele>163.2</ele>
        <time>2015-11-11T12:46:28Z</time>
      </trkpt>
      <trkpt lat="43.71958" lon="1.28851">
        <ele>163.3</ele>
        <time>2015-11-11T12:46:29Z</time>
      </trkpt>
      <trkpt lat="43.71958" lon="1.28842">
        <ele>163.4</ele>
        <time>2015-11-11T12:46:30Z</time>
      </trkpt>
      <trkpt lat="43.71958" lon="1.28832">
        <ele>163.5</ele>
        <time>2015-11-11T12:46:31Z</time>
      </trkpt>
      <trkpt lat="43.71958" lon="1.28824">
        <ele>163.6</ele>
        <time>2015-11-11T12:46:32Z</time>
      </trkpt>
      <trkpt lat="43.71959" lon="1.28816">
        <ele>163.7</ele>
        <time>2015-11-11T12:46:33Z</time>
      </trkpt>
      <trkpt lat="43.71959" lon="1.28807">
        <ele>163.8</ele>
        <time>2015-11-11T12:46:34Z</time>
      </trkpt>
      <trkpt lat="43.71959" lon="1.28799">
        <ele>163.9</ele>
        <time>2015-11-11T12:46:35Z</time>
      </trkpt>
      <trkpt lat="43.71959" lon="1.28788">
        <ele>164.1</ele>
        <time>2015-11-11T12:46:36Z</time>
      </trkpt>
      <trkpt lat="43.71958" lon="1.2878">
        <ele>164.3</ele>
        <time>2015-11-11T12:46:37Z</time>
      </trkpt>
      <trkpt lat="43.71958" lon="1.28771">
        <ele>164.5</ele>
        <time>2015-11-11T12:46:38Z</time>
      </trkpt>
      <trkpt lat="43.71957" lon="1.28762">
        <ele>164.7</ele>
        <time>2015-11-11T12:46:39Z</time>
      </trkpt>
      <trkpt lat="43.71956" lon="1.28753">
        <ele>165</ele>
        <time>2015-11-11T12:46:40Z</time>
      </trkpt>
      <trkpt lat="43.71956" lon="1.28745">
        <ele>165.1</ele>
        <time>2015-11-11T12:46:41Z</time>
      </trkpt>
      <trkpt lat="43.71955" lon="1.28737">
        <ele>165.3</ele>
        <time>2015-11-11T12:46:42Z</time>
      </trkpt>
      <trkpt lat="43.71953" lon="1.28729">
        <ele>165.5</ele>
        <time>2015-11-11T12:46:43Z</time>
      </trkpt>
      <trkpt lat="43.71952" lon="1.28721">
        <ele>165.7</ele>
        <time>2015-11-11T12:46:44Z</time>
      </trkpt>
      <trkpt lat="43.71952" lon="1.28713">
        <ele>165.9</ele>
        <time>2015-11-11T12:46:45Z</time>
      </trkpt>
      <trkpt lat="43.71951" lon="1.28704">
        <ele>166.1</ele>
        <time>2015-11-11T12:46:46Z</time>
      </trkpt>
      <trkpt lat="43.7195" lon="1.28695">
        <ele>166.3</ele>
        <time>2015-11-11T12:46:47Z</time>
      </trkpt>
      <trkpt lat="43.7195" lon="1.2869">
        <ele>166.4</ele>
        <time>2015-11-11T12:46:48Z</time>
      </trkpt>
      <trkpt lat="43.71949" lon="1.28681">
        <ele>166.6</ele>
        <time>2015-11-11T12:46:49Z</time>
      </trkpt>
      <trkpt lat="43.71947" lon="1.28671">
        <ele>166.8</ele>
        <time>2015-11-11T12:46:50Z</time>
      </trkpt>
      <trkpt lat="43.71946" lon="1.28663">
        <ele>167</ele>
        <time>2015-11-11T12:46:51Z</time>
      </trkpt>
      <trkpt lat="43.71945" lon="1.28655">
        <ele>167.2</ele>
        <time>2015-11-11T12:46:52Z</time>
      </trkpt>
      <trkpt lat="43.71943" lon="1.28646">
        <ele>167.4</ele>
        <time>2015-11-11T12:46:53Z</time>
      </trkpt>
      <trkpt lat="43.71942" lon="1.28638">
        <ele>167.5</ele>
        <time>2015-11-11T12:46:54Z</time>
      </trkpt>
      <trkpt lat="43.71939" lon="1.28631">
        <ele>167.7</ele>
        <time>2015-11-11T12:46:55Z</time>
      </trkpt>
      <trkpt lat="43.71938" lon="1.28623">
        <ele>167.8</ele>
        <time>2015-11-11T12:46:56Z</time>
      </trkpt>
      <trkpt lat="43.71938" lon="1.28616">
        <ele>168</ele>
        <time>2015-11-11T12:46:57Z</time>
      </trkpt>
      <trkpt lat="43.71936" lon="1.28608">
        <ele>168.2</ele>
        <time>2015-11-11T12:46:58Z</time>
      </trkpt>
      <trkpt lat="43.71935" lon="1.286">
        <ele>168.5</ele>
        <time>2015-11-11T12:46:59Z</time>
      </trkpt>
      <trkpt lat="43.71935" lon="1.28592">
        <ele>168.7</ele>
        <time>2015-11-11T12:47:00Z</time>
      </trkpt>
      <trkpt lat="43.71933" lon="1.28585">
        <ele>168.9</ele>
        <time>2015-11-11T12:47:01Z</time>
      </trkpt>
      <trkpt lat="43.71932" lon="1.28578">
        <ele>169.2</ele>
        <time>2015-11-11T12:47:02Z</time>
      </trkpt>
      <trkpt lat="43.7193" lon="1.28569">
        <ele>169.5</ele>
        <time>2015-11-11T12:47:03Z</time>
      </trkpt>
      <trkpt lat="43.7193" lon="1.28562">
        <ele>169.7</ele>
        <time>2015-11-11T12:47:04Z</time>
      </trkpt>
      <trkpt lat="43.71931" lon="1.28556">
        <ele>169.9</ele>
        <time>2015-11-11T12:47:05Z</time>
      </trkpt>
      <trkpt lat="43.71931" lon="1.28547">
        <ele>170.2</ele>
        <time>2015-11-11T12:47:06Z</time>
      </trkpt>
      <trkpt lat="43.71928" lon="1.28537">
        <ele>170.4</ele>
        <time>2015-11-11T12:47:07Z</time>
      </trkpt>
      <trkpt lat="43.71929" lon="1.28531">
        <ele>170.5</ele>
        <time>2015-11-11T12:47:08Z</time>
      </trkpt>
      <trkpt lat="43.71928" lon="1.28522">
        <ele>170.7</ele>
        <time>2015-11-11T12:47:09Z</time>
      </trkpt>
      <trkpt lat="43.71927" lon="1.28514">
        <ele>170.8</ele>
        <time>2015-11-11T12:47:10Z</time>
      </trkpt>
      <trkpt lat="43.71926" lon="1.28507">
        <ele>171</ele>
        <time>2015-11-11T12:47:11Z</time>
      </trkpt>
      <trkpt lat="43.71925" lon="1.28499">
        <ele>171.1</ele>
        <time>2015-11-11T12:47:12Z</time>
      </trkpt>
      <trkpt lat="43.71924" lon="1.2849">
        <ele>171.3</ele>
        <time>2015-11-11T12:47:13Z</time>
      </trkpt>
      <trkpt lat="43.71921" lon="1.28481">
        <ele>171.5</ele>
        <time>2015-11-11T12:47:14Z</time>
      </trkpt>
      <trkpt lat="43.71919" lon="1.28474">
        <ele>171.7</ele>
        <time>2015-11-11T12:47:15Z</time>
      </trkpt>
      <trkpt lat="43.71917" lon="1.28466">
        <ele>171.8</ele>
        <time>2015-11-11T12:47:16Z</time>
      </trkpt>
      <trkpt lat="43.71916" lon="1.28459">
        <ele>172</ele>
        <time>2015-11-11T12:47:17Z</time>
      </trkpt>
      <trkpt lat="43.71915" lon="1.28452">
        <ele>172</ele>
        <time>2015-11-11T12:47:18Z</time>
      </trkpt>
      <trkpt lat="43.71913" lon="1.28444">
        <ele>171.9</ele>
        <time>2015-11-11T12:47:19Z</time>
      </trkpt>
      <trkpt lat="43.71912" lon="1.28437">
        <ele>171.8</ele>
        <time>2015-11-11T12:47:20Z</time>
      </trkpt>
      <trkpt lat="43.7191" lon="1.28429">
        <ele>171.8</ele>
        <time>2015-11-11T12:47:21Z</time>
      </trkpt>
      <trkpt lat="43.71908" lon="1.28422">
        <ele>171.7</ele>
        <time>2015-11-11T12:47:22Z</time>
      </trkpt>
      <trkpt lat="43.71907" lon="1.28414">
        <ele>171.6</ele>
        <time>2015-11-11T12:47:23Z</time>
      </trkpt>
      <trkpt lat="43.71905" lon="1.28406">
        <ele>171.5</ele>
        <time>2015-11-11T12:47:24Z</time>
      </trkpt>
      <trkpt lat="43.71904" lon="1.28398">
        <ele>171.4</ele>
        <time>2015-11-11T12:47:25Z</time>
      </trkpt>
      <trkpt lat="43.71902" lon="1.28392">
        <ele>171.3</ele>
        <time>2015-11-11T12:47:26Z</time>
      </trkpt>
      <trkpt lat="43.71901" lon="1.28385">
        <ele>171.2</ele>
        <time>2015-11-11T12:47:27Z</time>
      </trkpt>
      <trkpt lat="43.71901" lon="1.28378">
        <ele>171</ele>
        <time>2015-11-11T12:47:28Z</time>
      </trkpt>
      <trkpt lat="43.719" lon="1.28371">
        <ele>171.1</ele>
        <time>2015-11-11T12:47:29Z</time>
      </trkpt>
      <trkpt lat="43.71899" lon="1.28362">
        <ele>171.2</ele>
        <time>2015-11-11T12:47:30Z</time>
      </trkpt>
      <trkpt lat="43.71897" lon="1.28354">
        <ele>171.2</ele>
        <time>2015-11-11T12:47:31Z</time>
      </trkpt>
      <trkpt lat="43.71897" lon="1.28345">
        <ele>171.4</ele>
        <time>2015-11-11T12:47:32Z</time>
      </trkpt>
      <trkpt lat="43.71896" lon="1.28339">
        <ele>171.4</ele>
        <time>2015-11-11T12:47:33Z</time>
      </trkpt>
      <trkpt lat="43.71896" lon="1.28332">
        <ele>171.5</ele>
        <time>2015-11-11T12:47:34Z</time>
      </trkpt>
      <trkpt lat="43.71895" lon="1.28323">
        <ele>171.6</ele>
        <time>2015-11-11T12:47:35Z</time>
      </trkpt>
      <trkpt lat="43.71894" lon="1.28316">
        <ele>171.7</ele>
        <time>2015-11-11T12:47:36Z</time>
      </trkpt>
      <trkpt lat="43.71894" lon="1.28307">
        <ele>171.8</ele>
        <time>2015-11-11T12:47:37Z</time>
      </trkpt>
      <trkpt lat="43.71892" lon="1.28298">
        <ele>171.9</ele>
        <time>2015-11-11T12:47:38Z</time>
      </trkpt>
      <trkpt lat="43.71891" lon="1.28289">
        <ele>172</ele>
        <time>2015-11-11T12:47:39Z</time>
      </trkpt>
      <trkpt lat="43.7189" lon="1.2828">
        <ele>172</ele>
        <time>2015-11-11T12:47:40Z</time>
      </trkpt>
      <trkpt lat="43.71889" lon="1.2827">
        <ele>172</ele>
        <time>2015-11-11T12:47:41Z</time>
      </trkpt>
      <trkpt lat="43.71888" lon="1.28262">
        <ele>171.9</ele>
        <time>2015-11-11T12:47:42Z</time>
      </trkpt>
      <trkpt lat="43.71887" lon="1.28254">
        <ele>171.9</ele>
        <time>2015-11-11T12:47:43Z</time>
      </trkpt>
      <trkpt lat="43.71887" lon="1.28246">
        <ele>171.9</ele>
        <time>2015-11-11T12:47:44Z</time>
      </trkpt>
      <trkpt lat="43.71886" lon="1.28238">
        <ele>171.9</ele>
        <time>2015-11-11T12:47:45Z</time>
      </trkpt>
      <trkpt lat="43.71885" lon="1.28229">
        <ele>171.9</ele>
        <time>2015-11-11T12:47:46Z</time>
      </trkpt>
      <trkpt lat="43.71884" lon="1.28221">
        <ele>171.9</ele>
        <time>2015-11-11T12:47:47Z</time>
      </trkpt>
      <trkpt lat="43.71883" lon="1.28212">
        <ele>171.9</ele>
        <time>2015-11-11T12:47:48Z</time>
      </trkpt>
      <trkpt lat="43.71883" lon="1.28204">
        <ele>172</ele>
        <time>2015-11-11T12:47:49Z</time>
      </trkpt>
      <trkpt lat="43.71882" lon="1.28196">
        <ele>172.1</ele>
        <time>2015-11-11T12:47:50Z</time>
      </trkpt>
      <trkpt lat="43.71882" lon="1.28187">
        <ele>172.2</ele>
        <time>2015-11-11T12:47:51Z</time>
      </trkpt>
      <trkpt lat="43.71881" lon="1.28179">
        <ele>172.3</ele>
        <time>2015-11-11T12:47:52Z</time>
      </trkpt>
      <trkpt lat="43.71881" lon="1.28173">
        <ele>172.3</ele>
        <time>2015-11-11T12:47:53Z</time>
      </trkpt>
      <trkpt lat="43.71879" lon="1.28164">
        <ele>172.5</ele>
        <time>2015-11-11T12:47:54Z</time>
      </trkpt>
      <trkpt lat="43.71877" lon="1.28155">
        <ele>172.6</ele>
        <time>2015-11-11T12:47:55Z</time>
      </trkpt>
      <trkpt lat="43.71878" lon="1.28147">
        <ele>172.7</ele>
        <time>2015-11-11T12:47:56Z</time>
      </trkpt>
      <trkpt lat="43.71876" lon="1.28138">
        <ele>172.8</ele>
        <time>2015-11-11T12:47:57Z</time>
      </trkpt>
      <trkpt lat="43.71875" lon="1.2813">
        <ele>172.9</ele>
        <time>2015-11-11T12:47:58Z</time>
      </trkpt>
      <trkpt lat="43.71874" lon="1.28121">
        <ele>173</ele>
        <time>2015-11-11T12:47:59Z</time>
      </trkpt>
      <trkpt lat="43.71874" lon="1.28112">
        <ele>173</ele>
        <time>2015-11-11T12:48:00Z</time>
      </trkpt>
      <trkpt lat="43.71872" lon="1.28103">
        <ele>173</ele>
        <time>2015-11-11T12:48:01Z</time>
      </trkpt>
      <trkpt lat="43.71872" lon="1.28093">
        <ele>173</ele>
        <time>2015-11-11T12:48:02Z</time>
      </trkpt>
      <trkpt lat="43.71872" lon="1.28086">
        <ele>173</ele>
        <time>2015-11-11T12:48:03Z</time>
      </trkpt>
      <trkpt lat="43.71871" lon="1.28076">
        <ele>173</ele>
        <time>2015-11-11T12:48:04Z</time>
      </trkpt>
      <trkpt lat="43.71868" lon="1.28065">
        <ele>172.9</ele>
        <time>2015-11-11T12:48:05Z</time>
      </trkpt>
      <trkpt lat="43.71866" lon="1.28055">
        <ele>172.9</ele>
        <time>2015-11-11T12:48:06Z</time>
      </trkpt>
      <trkpt lat="43.71867" lon="1.28047">
        <ele>172.9</ele>
        <time>2015-11-11T12:48:07Z</time>
      </trkpt>
      <trkpt lat="43.71865" lon="1.28038">
        <ele>172.9</ele>
        <time>2015-11-11T12:48:08Z</time>
      </trkpt>
      <trkpt lat="43.71863" lon="1.28029">
        <ele>172.9</ele>
        <time>2015-11-11T12:48:09Z</time>
      </trkpt>
      <trkpt lat="43.71862" lon="1.28022">
        <ele>172.9</ele>
        <time>2015-11-11T12:48:10Z</time>
      </trkpt>
      <trkpt lat="43.71861" lon="1.28013">
        <ele>172.9</ele>
        <time>2015-11-11T12:48:11Z</time>
      </trkpt>
      <trkpt lat="43.7186" lon="1.28005">
        <ele>172.9</ele>
        <time>2015-11-11T12:48:12Z</time>
      </trkpt>
      <trkpt lat="43.71859" lon="1.27996">
        <ele>172.9</ele>
        <time>2015-11-11T12:48:13Z</time>
      </trkpt>
      <trkpt lat="43.71859" lon="1.2799">
        <ele>172.9</ele>
        <time>2015-11-11T12:48:14Z</time>
      </trkpt>
      <trkpt lat="43.71858" lon="1.2798">
        <ele>172.9</ele>
        <time>2015-11-11T12:48:15Z</time>
      </trkpt>
      <trkpt lat="43.71857" lon="1.27972">
        <ele>173</ele>
        <time>2015-11-11T12:48:16Z</time>
      </trkpt>
      <trkpt lat="43.71855" lon="1.27962">
        <ele>173</ele>
        <time>2015-11-11T12:48:17Z</time>
      </trkpt>
      <trkpt lat="43.71852" lon="1.27953">
        <ele>173</ele>
        <time>2015-11-11T12:48:18Z</time>
      </trkpt>
      <trkpt lat="43.71852" lon="1.27947">
        <ele>172.9</ele>
        <time>2015-11-11T12:48:19Z</time>
      </trkpt>
      <trkpt lat="43.71851" lon="1.27939">
        <ele>172.8</ele>
        <time>2015-11-11T12:48:20Z</time>
      </trkpt>
      <trkpt lat="43.71849" lon="1.2793">
        <ele>172.8</ele>
        <time>2015-11-11T12:48:21Z</time>
      </trkpt>
      <trkpt lat="43.71849" lon="1.27922">
        <ele>172.7</ele>
        <time>2015-11-11T12:48:22Z</time>
      </trkpt>
      <trkpt lat="43.71849" lon="1.27914">
        <ele>172.6</ele>
        <time>2015-11-11T12:48:23Z</time>
      </trkpt>
      <trkpt lat="43.71848" lon="1.27907">
        <ele>172.6</ele>
        <time>2015-11-11T12:48:24Z</time>
      </trkpt>
      <trkpt lat="43.71846" lon="1.27897">
        <ele>172.5</ele>
        <time>2015-11-11T12:48:25Z</time>
      </trkpt>
      <trkpt lat="43.71844" lon="1.27889">
        <ele>172.5</ele>
        <time>2015-11-11T12:48:26Z</time>
      </trkpt>
      <trkpt lat="43.71844" lon="1.27882">
        <ele>172.4</ele>
        <time>2015-11-11T12:48:27Z</time>
      </trkpt>
      <trkpt lat="43.71841" lon="1.27872">
        <ele>172.4</ele>
        <time>2015-11-11T12:48:28Z</time>
      </trkpt>
      <trkpt lat="43.7184" lon="1.27862">
        <ele>172.4</ele>
        <time>2015-11-11T12:48:29Z</time>
      </trkpt>
      <trkpt lat="43.71839" lon="1.27852">
        <ele>172.3</ele>
        <time>2015-11-11T12:48:30Z</time>
      </trkpt>
      <trkpt lat="43.71837" lon="1.27842">
        <ele>172.3</ele>
        <time>2015-11-11T12:48:31Z</time>
      </trkpt>
      <trkpt lat="43.71836" lon="1.27833">
        <ele>172.2</ele>
        <time>2015-11-11T12:48:32Z</time>
      </trkpt>
      <trkpt lat="43.71836" lon="1.27823">
        <ele>172.2</ele>
        <time>2015-11-11T12:48:33Z</time>
      </trkpt>
      <trkpt lat="43.71835" lon="1.27814">
        <ele>172.1</ele>
        <time>2015-11-11T12:48:34Z</time>
      </trkpt>
      <trkpt lat="43.71833" lon="1.27802">
        <ele>172.1</ele>
        <time>2015-11-11T12:48:35Z</time>
      </trkpt>
      <trkpt lat="43.71832" lon="1.27794">
        <ele>172</ele>
        <time>2015-11-11T12:48:36Z</time>
      </trkpt>
      <trkpt lat="43.7183" lon="1.27784">
        <ele>172</ele>
        <time>2015-11-11T12:48:37Z</time>
      </trkpt>
      <trkpt lat="43.71828" lon="1.27774">
        <ele>172</ele>
        <time>2015-11-11T12:48:38Z</time>
      </trkpt>
      <trkpt lat="43.71827" lon="1.27763">
        <ele>172</ele>
        <time>2015-11-11T12:48:39Z</time>
      </trkpt>
      <trkpt lat="43.71827" lon="1.27754">
        <ele>172</ele>
        <time>2015-11-11T12:48:40Z</time>
      </trkpt>
      <trkpt lat="43.71827" lon="1.27747">
        <ele>172</ele>
        <time>2015-11-11T12:48:41Z</time>
      </trkpt>
      <trkpt lat="43.71826" lon="1.2774">
        <ele>172</ele>
        <time>2015-11-11T12:48:42Z</time>
      </trkpt>
      <trkpt lat="43.71824" lon="1.2773">
        <ele>172</ele>
        <time>2015-11-11T12:48:43Z</time>
      </trkpt>
      <trkpt lat="43.71823" lon="1.27721">
        <ele>172</ele>
        <time>2015-11-11T12:48:44Z</time>
      </trkpt>
      <trkpt lat="43.71822" lon="1.27712">
        <ele>172</ele>
        <time>2015-11-11T12:48:45Z</time>
      </trkpt>
      <trkpt lat="43.71822" lon="1.27701">
        <ele>172.1</ele>
        <time>2015-11-11T12:48:46Z</time>
      </trkpt>
      <trkpt lat="43.71821" lon="1.27692">
        <ele>172.2</ele>
        <time>2015-11-11T12:48:47Z</time>
      </trkpt>
      <trkpt lat="43.71819" lon="1.27683">
        <ele>172.3</ele>
        <time>2015-11-11T12:48:48Z</time>
      </trkpt>
      <trkpt lat="43.71819" lon="1.27677">
        <ele>172.4</ele>
        <time>2015-11-11T12:48:49Z</time>
      </trkpt>
      <trkpt lat="43.71818" lon="1.27669">
        <ele>172.5</ele>
        <time>2015-11-11T12:48:50Z</time>
      </trkpt>
      <trkpt lat="43.71819" lon="1.27663">
        <ele>172.5</ele>
        <time>2015-11-11T12:48:51Z</time>
      </trkpt>
      <trkpt lat="43.71819" lon="1.27654">
        <ele>172.7</ele>
        <time>2015-11-11T12:48:52Z</time>
      </trkpt>
      <trkpt lat="43.71817" lon="1.27643">
        <ele>172.8</ele>
        <time>2015-11-11T12:48:53Z</time>
      </trkpt>
      <trkpt lat="43.71816" lon="1.27636">
        <ele>172.9</ele>
        <time>2015-11-11T12:48:54Z</time>
      </trkpt>
      <trkpt lat="43.71817" lon="1.27627">
        <ele>173</ele>
        <time>2015-11-11T12:48:55Z</time>
      </trkpt>
      <trkpt lat="43.71817" lon="1.27617">
        <ele>172.9</ele>
        <time>2015-11-11T12:48:56Z</time>
      </trkpt>
      <trkpt lat="43.71816" lon="1.27607">
        <ele>172.8</ele>
        <time>2015-11-11T12:48:57Z</time>
      </trkpt>
      <trkpt lat="43.71817" lon="1.27599">
        <ele>172.8</ele>
        <time>2015-11-11T12:48:58Z</time>
      </trkpt>
      <trkpt lat="43.71818" lon="1.2759">
        <ele>172.7</ele>
        <time>2015-11-11T12:48:59Z</time>
      </trkpt>
      <trkpt lat="43.71818" lon="1.2758">
        <ele>172.6</ele>
        <time>2015-11-11T12:49:00Z</time>
      </trkpt>
      <trkpt lat="43.71817" lon="1.2757">
        <ele>172.5</ele>
        <time>2015-11-11T12:49:01Z</time>
      </trkpt>
      <trkpt lat="43.71818" lon="1.27558">
        <ele>172.4</ele>
        <time>2015-11-11T12:49:02Z</time>
      </trkpt>
      <trkpt lat="43.71819" lon="1.27547">
        <ele>172.4</ele>
        <time>2015-11-11T12:49:03Z</time>
      </trkpt>
      <trkpt lat="43.71824" lon="1.27548">
        <ele>172.4</ele>
        <time>2015-11-11T12:49:04Z</time>
      </trkpt>
      <trkpt lat="43.71825" lon="1.27536">
        <ele>172.4</ele>
        <time>2015-11-11T12:49:05Z</time>
      </trkpt>
      <trkpt lat="43.71826" lon="1.27526">
        <ele>172.5</ele>
        <time>2015-11-11T12:49:06Z</time>
      </trkpt>
      <trkpt lat="43.71827" lon="1.27516">
        <ele>172.6</ele>
        <time>2015-11-11T12:49:07Z</time>
      </trkpt>
      <trkpt lat="43.71829" lon="1.27507">
        <ele>172.6</ele>
        <time>2015-11-11T12:49:08Z</time>
      </trkpt>
      <trkpt lat="43.71831" lon="1.27499">
        <ele>172.7</ele>
        <time>2015-11-11T12:49:09Z</time>
      </trkpt>
      <trkpt lat="43.71834" lon="1.27491">
        <ele>172.8</ele>
        <time>2015-11-11T12:49:10Z</time>
      </trkpt>
      <trkpt lat="43.71836" lon="1.27481">
        <ele>172.9</ele>
        <time>2015-11-11T12:49:11Z</time>
      </trkpt>
      <trkpt lat="43.71839" lon="1.27472">
        <ele>173</ele>
        <time>2015-11-11T12:49:12Z</time>
      </trkpt>
      <trkpt lat="43.71841" lon="1.27464">
        <ele>173.1</ele>
        <time>2015-11-11T12:49:13Z</time>
      </trkpt>
      <trkpt lat="43.71843" lon="1.27454">
        <ele>173.3</ele>
        <time>2015-11-11T12:49:14Z</time>
      </trkpt>
      <trkpt lat="43.71845" lon="1.27445">
        <ele>173.3</ele>
        <time>2015-11-11T12:49:15Z</time>
      </trkpt>
      <trkpt lat="43.71848" lon="1.27435">
        <ele>173.4</ele>
        <time>2015-11-11T12:49:16Z</time>
      </trkpt>
      <trkpt lat="43.71849" lon="1.27427">
        <ele>173.5</ele>
        <time>2015-11-11T12:49:17Z</time>
      </trkpt>
      <trkpt lat="43.71852" lon="1.27418">
        <ele>173.6</ele>
        <time>2015-11-11T12:49:18Z</time>
      </trkpt>
      <trkpt lat="43.71854" lon="1.2741">
        <ele>173.6</ele>
        <time>2015-11-11T12:49:19Z</time>
      </trkpt>
      <trkpt lat="43.71855" lon="1.27401">
        <ele>173.7</ele>
        <time>2015-11-11T12:49:20Z</time>
      </trkpt>
      <trkpt lat="43.71857" lon="1.27393">
        <ele>173.7</ele>
        <time>2015-11-11T12:49:21Z</time>
      </trkpt>
      <trkpt lat="43.7186" lon="1.27384">
        <ele>173.8</ele>
        <time>2015-11-11T12:49:22Z</time>
      </trkpt>
      <trkpt lat="43.71862" lon="1.27375">
        <ele>173.8</ele>
        <time>2015-11-11T12:49:23Z</time>
      </trkpt>
      <trkpt lat="43.71866" lon="1.27366">
        <ele>173.7</ele>
        <time>2015-11-11T12:49:24Z</time>
      </trkpt>
      <trkpt lat="43.71869" lon="1.27358">
        <ele>173.5</ele>
        <time>2015-11-11T12:49:25Z</time>
      </trkpt>
      <trkpt lat="43.71871" lon="1.27349">
        <ele>173.3</ele>
        <time>2015-11-11T12:49:26Z</time>
      </trkpt>
      <trkpt lat="43.71874" lon="1.2734">
        <ele>173.1</ele>
        <time>2015-11-11T12:49:27Z</time>
      </trkpt>
      <trkpt lat="43.71876" lon="1.27331">
        <ele>172.9</ele>
        <time>2015-11-11T12:49:28Z</time>
      </trkpt>
      <trkpt lat="43.71878" lon="1.27322">
        <ele>172.7</ele>
        <time>2015-11-11T12:49:29Z</time>
      </trkpt>
      <trkpt lat="43.71882" lon="1.27316">
        <ele>172.6</ele>
        <time>2015-11-11T12:49:30Z</time>
      </trkpt>
      <trkpt lat="43.71885" lon="1.27306">
        <ele>172.4</ele>
        <time>2015-11-11T12:49:31Z</time>
      </trkpt>
      <trkpt lat="43.71886" lon="1.27296">
        <ele>172.2</ele>
        <time>2015-11-11T12:49:32Z</time>
      </trkpt>
      <trkpt lat="43.71889" lon="1.27287">
        <ele>172.1</ele>
        <time>2015-11-11T12:49:33Z</time>
      </trkpt>
      <trkpt lat="43.71891" lon="1.27278">
        <ele>172.1</ele>
        <time>2015-11-11T12:49:34Z</time>
      </trkpt>
      <trkpt lat="43.71894" lon="1.2727">
        <ele>172</ele>
        <time>2015-11-11T12:49:35Z</time>
      </trkpt>
      <trkpt lat="43.71898" lon="1.27262">
        <ele>172</ele>
        <time>2015-11-11T12:49:36Z</time>
      </trkpt>
      <trkpt lat="43.71901" lon="1.27254">
        <ele>172</ele>
        <time>2015-11-11T12:49:37Z</time>
      </trkpt>
      <trkpt lat="43.71903" lon="1.27244">
        <ele>171.9</ele>
        <time>2015-11-11T12:49:38Z</time>
      </trkpt>
      <trkpt lat="43.71905" lon="1.27233">
        <ele>171.9</ele>
        <time>2015-11-11T12:49:39Z</time>
      </trkpt>
      <trkpt lat="43.71907" lon="1.27223">
        <ele>171.9</ele>
        <time>2015-11-11T12:49:40Z</time>
      </trkpt>
      <trkpt lat="43.7191" lon="1.27213">
        <ele>171.9</ele>
        <time>2015-11-11T12:49:41Z</time>
      </trkpt>
      <trkpt lat="43.71912" lon="1.27204">
        <ele>171.8</ele>
        <time>2015-11-11T12:49:42Z</time>
      </trkpt>
      <trkpt lat="43.71915" lon="1.27195">
        <ele>171.8</ele>
        <time>2015-11-11T12:49:43Z</time>
      </trkpt>
      <trkpt lat="43.71918" lon="1.27186">
        <ele>171.7</ele>
        <time>2015-11-11T12:49:44Z</time>
      </trkpt>
      <trkpt lat="43.7192" lon="1.27178">
        <ele>171.7</ele>
        <time>2015-11-11T12:49:45Z</time>
      </trkpt>
      <trkpt lat="43.71923" lon="1.2717">
        <ele>171.6</ele>
        <time>2015-11-11T12:49:46Z</time>
      </trkpt>
      <trkpt lat="43.71926" lon="1.27161">
        <ele>171.5</ele>
        <time>2015-11-11T12:49:47Z</time>
      </trkpt>
      <trkpt lat="43.71928" lon="1.27153">
        <ele>171.4</ele>
        <time>2015-11-11T12:49:48Z</time>
      </trkpt>
      <trkpt lat="43.7193" lon="1.27144">
        <ele>171.3</ele>
        <time>2015-11-11T12:49:49Z</time>
      </trkpt>
      <trkpt lat="43.71932" lon="1.27134">
        <ele>171.2</ele>
        <time>2015-11-11T12:49:50Z</time>
      </trkpt>
      <trkpt lat="43.71934" lon="1.27125">
        <ele>171</ele>
        <time>2015-11-11T12:49:51Z</time>
      </trkpt>
      <trkpt lat="43.71936" lon="1.27114">
        <ele>170.8</ele>
        <time>2015-11-11T12:49:52Z</time>
      </trkpt>
      <trkpt lat="43.71938" lon="1.27105">
        <ele>170.6</ele>
        <time>2015-11-11T12:49:53Z</time>
      </trkpt>
      <trkpt lat="43.7194" lon="1.27095">
        <ele>170.4</ele>
        <time>2015-11-11T12:49:54Z</time>
      </trkpt>
      <trkpt lat="43.71942" lon="1.27086">
        <ele>170.2</ele>
        <time>2015-11-11T12:49:55Z</time>
      </trkpt>
      <trkpt lat="43.71943" lon="1.27075">
        <ele>170</ele>
        <time>2015-11-11T12:49:56Z</time>
      </trkpt>
      <trkpt lat="43.71944" lon="1.27063">
        <ele>169.8</ele>
        <time>2015-11-11T12:49:57Z</time>
      </trkpt>
      <trkpt lat="43.71945" lon="1.27052">
        <ele>169.5</ele>
        <time>2015-11-11T12:49:58Z</time>
      </trkpt>
      <trkpt lat="43.71946" lon="1.27041">
        <ele>169.3</ele>
        <time>2015-11-11T12:49:59Z</time>
      </trkpt>
      <trkpt lat="43.71948" lon="1.27033">
        <ele>169.4</ele>
        <time>2015-11-11T12:50:00Z</time>
      </trkpt>
      <trkpt lat="43.71952" lon="1.27025">
        <ele>169.4</ele>
        <time>2015-11-11T12:50:01Z</time>
      </trkpt>
      <trkpt lat="43.71953" lon="1.27016">
        <ele>169.4</ele>
        <time>2015-11-11T12:50:02Z</time>
      </trkpt>
      <trkpt lat="43.71955" lon="1.27007">
        <ele>169.5</ele>
        <time>2015-11-11T12:50:03Z</time>
      </trkpt>
      <trkpt lat="43.71957" lon="1.26998">
        <ele>169.6</ele>
        <time>2015-11-11T12:50:04Z</time>
      </trkpt>
      <trkpt lat="43.71959" lon="1.26987">
        <ele>169.7</ele>
        <time>2015-11-11T12:50:05Z</time>
      </trkpt>
      <trkpt lat="43.71961" lon="1.26978">
        <ele>169.8</ele>
        <time>2015-11-11T12:50:06Z</time>
      </trkpt>
      <trkpt lat="43.71963" lon="1.26968">
        <ele>169.9</ele>
        <time>2015-11-11T12:50:07Z</time>
      </trkpt>
      <trkpt lat="43.71965" lon="1.26959">
        <ele>170.1</ele>
        <time>2015-11-11T12:50:08Z</time>
      </trkpt>
      <trkpt lat="43.7197" lon="1.26957">
        <ele>170.2</ele>
        <time>2015-11-11T12:50:09Z</time>
      </trkpt>
      <trkpt lat="43.71972" lon="1.26947">
        <ele>170.4</ele>
        <time>2015-11-11T12:50:10Z</time>
      </trkpt>
      <trkpt lat="43.71975" lon="1.26938">
        <ele>170.7</ele>
        <time>2015-11-11T12:50:11Z</time>
      </trkpt>
      <trkpt lat="43.71977" lon="1.26928">
        <ele>171</ele>
        <time>2015-11-11T12:50:12Z</time>
      </trkpt>
      <trkpt lat="43.71979" lon="1.26917">
        <ele>171.2</ele>
        <time>2015-11-11T12:50:13Z</time>
      </trkpt>
      <trkpt lat="43.71981" lon="1.26908">
        <ele>171.5</ele>
        <time>2015-11-11T12:50:14Z</time>
      </trkpt>
      <trkpt lat="43.71985" lon="1.26899">
        <ele>171.7</ele>
        <time>2015-11-11T12:50:15Z</time>
      </trkpt>
      <trkpt lat="43.71988" lon="1.26896">
        <ele>171.8</ele>
        <time>2015-11-11T12:50:16Z</time>
      </trkpt>
      <trkpt lat="43.71991" lon="1.26888">
        <ele>172.1</ele>
        <time>2015-11-11T12:50:17Z</time>
      </trkpt>
      <trkpt lat="43.7199" lon="1.26876">
        <ele>172.4</ele>
        <time>2015-11-11T12:50:18Z</time>
      </trkpt>
      <trkpt lat="43.71993" lon="1.26869">
        <ele>172.4</ele>
        <time>2015-11-11T12:50:19Z</time>
      </trkpt>
      <trkpt lat="43.71995" lon="1.26858">
        <ele>172.4</ele>
        <time>2015-11-11T12:50:20Z</time>
      </trkpt>
      <trkpt lat="43.71998" lon="1.26851">
        <ele>172.4</ele>
        <time>2015-11-11T12:50:21Z</time>
      </trkpt>
      <trkpt lat="43.72001" lon="1.26841">
        <ele>172.3</ele>
        <time>2015-11-11T12:50:22Z</time>
      </trkpt>
      <trkpt lat="43.72004" lon="1.26833">
        <ele>172.2</ele>
        <time>2015-11-11T12:50:23Z</time>
      </trkpt>
      <trkpt lat="43.72006" lon="1.26823">
        <ele>172.1</ele>
        <time>2015-11-11T12:50:24Z</time>
      </trkpt>
      <trkpt lat="43.72009" lon="1.26814">
        <ele>172</ele>
        <time>2015-11-11T12:50:25Z</time>
      </trkpt>
      <trkpt lat="43.72013" lon="1.26805">
        <ele>171.8</ele>
        <time>2015-11-11T12:50:26Z</time>
      </trkpt>
      <trkpt lat="43.72016" lon="1.26797">
        <ele>171.7</ele>
        <time>2015-11-11T12:50:27Z</time>
      </trkpt>
      <trkpt lat="43.72019" lon="1.26789">
        <ele>171.6</ele>
        <time>2015-11-11T12:50:28Z</time>
      </trkpt>
      <trkpt lat="43.72022" lon="1.26782">
        <ele>171.6</ele>
        <time>2015-11-11T12:50:29Z</time>
      </trkpt>
      <trkpt lat="43.72026" lon="1.26774">
        <ele>171.5</ele>
        <time>2015-11-11T12:50:30Z</time>
      </trkpt>
      <trkpt lat="43.7203" lon="1.26766">
        <ele>171.6</ele>
        <time>2015-11-11T12:50:31Z</time>
      </trkpt>
      <trkpt lat="43.72032" lon="1.26756">
        <ele>171.6</ele>
        <time>2015-11-11T12:50:32Z</time>
      </trkpt>
      <trkpt lat="43.72035" lon="1.26749">
        <ele>171.6</ele>
        <time>2015-11-11T12:50:33Z</time>
      </trkpt>
      <trkpt lat="43.72039" lon="1.26739">
        <ele>171.7</ele>
        <time>2015-11-11T12:50:34Z</time>
      </trkpt>
      <trkpt lat="43.72042" lon="1.26731">
        <ele>171.7</ele>
        <time>2015-11-11T12:50:35Z</time>
      </trkpt>
      <trkpt lat="43.72046" lon="1.26723">
        <ele>171.8</ele>
        <time>2015-11-11T12:50:36Z</time>
      </trkpt>
      <trkpt lat="43.7205" lon="1.26714">
        <ele>171.9</ele>
        <time>2015-11-11T12:50:37Z</time>
      </trkpt>
      <trkpt lat="43.72053" lon="1.26706">
        <ele>172</ele>
        <time>2015-11-11T12:50:38Z</time>
      </trkpt>
      <trkpt lat="43.72056" lon="1.26698">
        <ele>172</ele>
        <time>2015-11-11T12:50:39Z</time>
      </trkpt>
      <trkpt lat="43.7206" lon="1.26689">
        <ele>172</ele>
        <time>2015-11-11T12:50:40Z</time>
      </trkpt>
      <trkpt lat="43.72064" lon="1.2668">
        <ele>172</ele>
        <time>2015-11-11T12:50:41Z</time>
      </trkpt>
      <trkpt lat="43.72068" lon="1.26673">
        <ele>172</ele>
        <time>2015-11-11T12:50:42Z</time>
      </trkpt>
      <trkpt lat="43.72071" lon="1.26664">
        <ele>172</ele>
        <time>2015-11-11T12:50:43Z</time>
      </trkpt>
      <trkpt lat="43.72074" lon="1.26655">
        <ele>172</ele>
        <time>2015-11-11T12:50:44Z</time>
      </trkpt>
      <trkpt lat="43.72078" lon="1.26648">
        <ele>172</ele>
        <time>2015-11-11T12:50:45Z</time>
      </trkpt>
      <trkpt lat="43.72082" lon="1.26641">
        <ele>172</ele>
        <time>2015-11-11T12:50:46Z</time>
      </trkpt>
      <trkpt lat="43.72086" lon="1.26633">
        <ele>172</ele>
        <time>2015-11-11T12:50:47Z</time>
      </trkpt>
      <trkpt lat="43.7209" lon="1.26625">
        <ele>172</ele>
        <time>2015-11-11T12:50:48Z</time>
      </trkpt>
      <trkpt lat="43.72094" lon="1.26617">
        <ele>171.9</ele>
        <time>2015-11-11T12:50:49Z</time>
      </trkpt>
      <trkpt lat="43.72096" lon="1.26607">
        <ele>171.9</ele>
        <time>2015-11-11T12:50:50Z</time>
      </trkpt>
      <trkpt lat="43.721" lon="1.26599">
        <ele>171.8</ele>
        <time>2015-11-11T12:50:51Z</time>
      </trkpt>
      <trkpt lat="43.72104" lon="1.26593">
        <ele>171.7</ele>
        <time>2015-11-11T12:50:52Z</time>
      </trkpt>
      <trkpt lat="43.72109" lon="1.26585">
        <ele>171.6</ele>
        <time>2015-11-11T12:50:53Z</time>
      </trkpt>
      <trkpt lat="43.72113" lon="1.26577">
        <ele>171.5</ele>
        <time>2015-11-11T12:50:54Z</time>
      </trkpt>
      <trkpt lat="43.72117" lon="1.26569">
        <ele>171.4</ele>
        <time>2015-11-11T12:50:55Z</time>
      </trkpt>
      <trkpt lat="43.7212" lon="1.2656">
        <ele>171.3</ele>
        <time>2015-11-11T12:50:56Z</time>
      </trkpt>
      <trkpt lat="43.72125" lon="1.26552">
        <ele>171.1</ele>
        <time>2015-11-11T12:50:57Z</time>
      </trkpt>
      <trkpt lat="43.72129" lon="1.26545">
        <ele>171</ele>
        <time>2015-11-11T12:50:58Z</time>
      </trkpt>
      <trkpt lat="43.72132" lon="1.26534">
        <ele>171</ele>
        <time>2015-11-11T12:50:59Z</time>
      </trkpt>
      <trkpt lat="43.72137" lon="1.2653">
        <ele>171</ele>
        <time>2015-11-11T12:51:00Z</time>
      </trkpt>
      <trkpt lat="43.7214" lon="1.26521">
        <ele>171</ele>
        <time>2015-11-11T12:51:01Z</time>
      </trkpt>
      <trkpt lat="43.72145" lon="1.26512">
        <ele>171</ele>
        <time>2015-11-11T12:51:02Z</time>
      </trkpt>
      <trkpt lat="43.72148" lon="1.26504">
        <ele>171</ele>
        <time>2015-11-11T12:51:03Z</time>
      </trkpt>
      <trkpt lat="43.72152" lon="1.26498">
        <ele>171</ele>
        <time>2015-11-11T12:51:04Z</time>
      </trkpt>
      <trkpt lat="43.72157" lon="1.2649">
        <ele>171</ele>
        <time>2015-11-11T12:51:05Z</time>
      </trkpt>
      <trkpt lat="43.72161" lon="1.26483">
        <ele>171</ele>
        <time>2015-11-11T12:51:06Z</time>
      </trkpt>
      <trkpt lat="43.72164" lon="1.26474">
        <ele>171</ele>
        <time>2015-11-11T12:51:07Z</time>
      </trkpt>
      <trkpt lat="43.72167" lon="1.26465">
        <ele>171</ele>
        <time>2015-11-11T12:51:08Z</time>
      </trkpt>
      <trkpt lat="43.7217" lon="1.26455">
        <ele>171</ele>
        <time>2015-11-11T12:51:09Z</time>
      </trkpt>
      <trkpt lat="43.72173" lon="1.26447">
        <ele>171</ele>
        <time>2015-11-11T12:51:10Z</time>
      </trkpt>
      <trkpt lat="43.72176" lon="1.26438">
        <ele>171</ele>
        <time>2015-11-11T12:51:11Z</time>
      </trkpt>
      <trkpt lat="43.7218" lon="1.26432">
        <ele>171</ele>
        <time>2015-11-11T12:51:12Z</time>
      </trkpt>
      <trkpt lat="43.72185" lon="1.26422">
        <ele>171</ele>
        <time>2015-11-11T12:51:13Z</time>
      </trkpt>
      <trkpt lat="43.72189" lon="1.26415">
        <ele>171</ele>
        <time>2015-11-11T12:51:14Z</time>
      </trkpt>
      <trkpt lat="43.72193" lon="1.26406">
        <ele>171</ele>
        <time>2015-11-11T12:51:15Z</time>
      </trkpt>
      <trkpt lat="43.72197" lon="1.26398">
        <ele>171</ele>
        <time>2015-11-11T12:51:16Z</time>
      </trkpt>
      <trkpt lat="43.72202" lon="1.2639">
        <ele>171</ele>
        <time>2015-11-11T12:51:17Z</time>
      </trkpt>
      <trkpt lat="43.72208" lon="1.26385">
        <ele>171</ele>
        <time>2015-11-11T12:51:18Z</time>
      </trkpt>
      <trkpt lat="43.72213" lon="1.26377">
        <ele>171</ele>
        <time>2015-11-11T12:51:19Z</time>
      </trkpt>
      <trkpt lat="43.72218" lon="1.2637">
        <ele>170.8</ele>
        <time>2015-11-11T12:51:20Z</time>
      </trkpt>
      <trkpt lat="43.72222" lon="1.26364">
        <ele>170.7</ele>
        <time>2015-11-11T12:51:21Z</time>
      </trkpt>
      <trkpt lat="43.72226" lon="1.26357">
        <ele>170.7</ele>
        <time>2015-11-11T12:51:22Z</time>
      </trkpt>
      <trkpt lat="43.7223" lon="1.26349">
        <ele>170.6</ele>
        <time>2015-11-11T12:51:23Z</time>
      </trkpt>
      <trkpt lat="43.72235" lon="1.26343">
        <ele>170.5</ele>
        <time>2015-11-11T12:51:24Z</time>
      </trkpt>
      <trkpt lat="43.72239" lon="1.26334">
        <ele>170.5</ele>
        <time>2015-11-11T12:51:25Z</time>
      </trkpt>
      <trkpt lat="43.72242" lon="1.26326">
        <ele>170.5</ele>
        <time>2015-11-11T12:51:26Z</time>
      </trkpt>
      <trkpt lat="43.72246" lon="1.26315">
        <ele>170.5</ele>
        <time>2015-11-11T12:51:27Z</time>
      </trkpt>
      <trkpt lat="43.72247" lon="1.26308">
        <ele>170.5</ele>
        <time>2015-11-11T12:51:28Z</time>
      </trkpt>
      <trkpt lat="43.72251" lon="1.263">
        <ele>170.5</ele>
        <time>2015-11-11T12:51:29Z</time>
      </trkpt>
      <trkpt lat="43.72253" lon="1.2629">
        <ele>170.5</ele>
        <time>2015-11-11T12:51:30Z</time>
      </trkpt>
      <trkpt lat="43.72256" lon="1.26279">
        <ele>170.5</ele>
        <time>2015-11-11T12:51:31Z</time>
      </trkpt>
      <trkpt lat="43.72257" lon="1.26269">
        <ele>170.4</ele>
        <time>2015-11-11T12:51:32Z</time>
      </trkpt>
      <trkpt lat="43.72258" lon="1.26259">
        <ele>170.4</ele>
        <time>2015-11-11T12:51:33Z</time>
      </trkpt>
      <trkpt lat="43.72262" lon="1.26253">
        <ele>170.3</ele>
        <time>2015-11-11T12:51:34Z</time>
      </trkpt>
      <trkpt lat="43.72263" lon="1.26245">
        <ele>170.3</ele>
        <time>2015-11-11T12:51:35Z</time>
      </trkpt>
      <trkpt lat="43.72264" lon="1.26234">
        <ele>170.2</ele>
        <time>2015-11-11T12:51:36Z</time>
      </trkpt>
      <trkpt lat="43.72265" lon="1.26225">
        <ele>170.1</ele>
        <time>2015-11-11T12:51:37Z</time>
      </trkpt>
      <trkpt lat="43.72266" lon="1.26215">
        <ele>170.1</ele>
        <time>2015-11-11T12:51:38Z</time>
      </trkpt>
      <trkpt lat="43.72267" lon="1.26205">
        <ele>170.1</ele>
        <time>2015-11-11T12:51:39Z</time>
      </trkpt>
      <trkpt lat="43.72268" lon="1.26197">
        <ele>170.2</ele>
        <time>2015-11-11T12:51:40Z</time>
      </trkpt>
      <trkpt lat="43.72269" lon="1.26187">
        <ele>170.3</ele>
        <time>2015-11-11T12:51:41Z</time>
      </trkpt>
      <trkpt lat="43.7227" lon="1.26177">
        <ele>170.5</ele>
        <time>2015-11-11T12:51:42Z</time>
      </trkpt>
      <trkpt lat="43.72271" lon="1.26167">
        <ele>170.6</ele>
        <time>2015-11-11T12:51:43Z</time>
      </trkpt>
      <trkpt lat="43.72274" lon="1.26158">
        <ele>170.7</ele>
        <time>2015-11-11T12:51:44Z</time>
      </trkpt>
      <trkpt lat="43.72275" lon="1.26151">
        <ele>170.8</ele>
        <time>2015-11-11T12:51:45Z</time>
      </trkpt>
      <trkpt lat="43.72276" lon="1.2614">
        <ele>171</ele>
        <time>2015-11-11T12:51:46Z</time>
      </trkpt>
      <trkpt lat="43.72278" lon="1.26129">
        <ele>171.1</ele>
        <time>2015-11-11T12:51:47Z</time>
      </trkpt>
      <trkpt lat="43.72278" lon="1.26119">
        <ele>171.2</ele>
        <time>2015-11-11T12:51:48Z</time>
      </trkpt>
      <trkpt lat="43.72279" lon="1.26109">
        <ele>171.3</ele>
        <time>2015-11-11T12:51:49Z</time>
      </trkpt>
      <trkpt lat="43.72281" lon="1.26099">
        <ele>171.4</ele>
        <time>2015-11-11T12:51:50Z</time>
      </trkpt>
      <trkpt lat="43.72281" lon="1.26089">
        <ele>171.5</ele>
        <time>2015-11-11T12:51:51Z</time>
      </trkpt>
      <trkpt lat="43.72283" lon="1.2608">
        <ele>171.6</ele>
        <time>2015-11-11T12:51:52Z</time>
      </trkpt>
      <trkpt lat="43.72285" lon="1.2607">
        <ele>171.7</ele>
        <time>2015-11-11T12:51:53Z</time>
      </trkpt>
      <trkpt lat="43.72287" lon="1.26061">
        <ele>171.8</ele>
        <time>2015-11-11T12:51:54Z</time>
      </trkpt>
      <trkpt lat="43.72289" lon="1.26052">
        <ele>171.9</ele>
        <time>2015-11-11T12:51:55Z</time>
      </trkpt>
      <trkpt lat="43.7229" lon="1.26042">
        <ele>172</ele>
        <time>2015-11-11T12:51:56Z</time>
      </trkpt>
      <trkpt lat="43.72294" lon="1.26034">
        <ele>172</ele>
        <time>2015-11-11T12:51:57Z</time>
      </trkpt>
      <trkpt lat="43.72296" lon="1.26024">
        <ele>172</ele>
        <time>2015-11-11T12:51:58Z</time>
      </trkpt>
      <trkpt lat="43.72299" lon="1.26014">
        <ele>172</ele>
        <time>2015-11-11T12:51:59Z</time>
      </trkpt>
      <trkpt lat="43.72301" lon="1.26003">
        <ele>172</ele>
        <time>2015-11-11T12:52:00Z</time>
      </trkpt>
      <trkpt lat="43.72303" lon="1.25997">
        <ele>172</ele>
        <time>2015-11-11T12:52:01Z</time>
      </trkpt>
      <trkpt lat="43.72309" lon="1.25991">
        <ele>172</ele>
        <time>2015-11-11T12:52:02Z</time>
      </trkpt>
      <trkpt lat="43.72314" lon="1.25983">
        <ele>172</ele>
        <time>2015-11-11T12:52:03Z</time>
      </trkpt>
      <trkpt lat="43.72319" lon="1.25976">
        <ele>172</ele>
        <time>2015-11-11T12:52:04Z</time>
      </trkpt>
      <trkpt lat="43.72324" lon="1.25969">
        <ele>172</ele>
        <time>2015-11-11T12:52:05Z</time>
      </trkpt>
      <trkpt lat="43.7233" lon="1.25965">
        <ele>172</ele>
        <time>2015-11-11T12:52:06Z</time>
      </trkpt>
      <trkpt lat="43.72336" lon="1.25957">
        <ele>172</ele>
        <time>2015-11-11T12:52:07Z</time>
      </trkpt>
      <trkpt lat="43.7234" lon="1.2595">
        <ele>172.1</ele>
        <time>2015-11-11T12:52:08Z</time>
      </trkpt>
      <trkpt lat="43.72345" lon="1.25944">
        <ele>172.2</ele>
        <time>2015-11-11T12:52:09Z</time>
      </trkpt>
      <trkpt lat="43.72352" lon="1.25937">
        <ele>172.3</ele>
        <time>2015-11-11T12:52:10Z</time>
      </trkpt>
      <trkpt lat="43.72356" lon="1.25928">
        <ele>172.4</ele>
        <time>2015-11-11T12:52:11Z</time>
      </trkpt>
      <trkpt lat="43.72361" lon="1.25921">
        <ele>172.5</ele>
        <time>2015-11-11T12:52:12Z</time>
      </trkpt>
      <trkpt lat="43.72365" lon="1.25913">
        <ele>172.6</ele>
        <time>2015-11-11T12:52:13Z</time>
      </trkpt>
      <trkpt lat="43.72369" lon="1.25905">
        <ele>172.7</ele>
        <time>2015-11-11T12:52:14Z</time>
      </trkpt>
      <trkpt lat="43.72373" lon="1.25897">
        <ele>172.8</ele>
        <time>2015-11-11T12:52:15Z</time>
      </trkpt>
      <trkpt lat="43.72377" lon="1.25889">
        <ele>172.8</ele>
        <time>2015-11-11T12:52:16Z</time>
      </trkpt>
      <trkpt lat="43.7238" lon="1.2588">
        <ele>172.9</ele>
        <time>2015-11-11T12:52:17Z</time>
      </trkpt>
      <trkpt lat="43.72384" lon="1.25872">
        <ele>173</ele>
        <time>2015-11-11T12:52:18Z</time>
      </trkpt>
      <trkpt lat="43.72388" lon="1.25864">
        <ele>172.9</ele>
        <time>2015-11-11T12:52:19Z</time>
      </trkpt>
      <trkpt lat="43.72391" lon="1.25857">
        <ele>172.8</ele>
        <time>2015-11-11T12:52:20Z</time>
      </trkpt>
      <trkpt lat="43.72395" lon="1.25849">
        <ele>172.8</ele>
        <time>2015-11-11T12:52:21Z</time>
      </trkpt>
      <trkpt lat="43.72398" lon="1.25842">
        <ele>172.7</ele>
        <time>2015-11-11T12:52:22Z</time>
      </trkpt>
      <trkpt lat="43.72401" lon="1.25833">
        <ele>172.7</ele>
        <time>2015-11-11T12:52:23Z</time>
      </trkpt>
      <trkpt lat="43.72406" lon="1.25828">
        <ele>172.6</ele>
        <time>2015-11-11T12:52:24Z</time>
      </trkpt>
      <trkpt lat="43.72407" lon="1.25818">
        <ele>172.6</ele>
        <time>2015-11-11T12:52:25Z</time>
      </trkpt>
      <trkpt lat="43.72412" lon="1.25815">
        <ele>172.6</ele>
        <time>2015-11-11T12:52:26Z</time>
      </trkpt>
      <trkpt lat="43.72418" lon="1.2581">
        <ele>172.6</ele>
        <time>2015-11-11T12:52:27Z</time>
      </trkpt>
      <trkpt lat="43.72421" lon="1.25802">
        <ele>172.6</ele>
        <time>2015-11-11T12:52:28Z</time>
      </trkpt>
      <trkpt lat="43.72425" lon="1.25794">
        <ele>172.6</ele>
        <time>2015-11-11T12:52:29Z</time>
      </trkpt>
      <trkpt lat="43.72429" lon="1.25786">
        <ele>172.5</ele>
        <time>2015-11-11T12:52:30Z</time>
      </trkpt>
      <trkpt lat="43.72434" lon="1.25781">
        <ele>172.5</ele>
        <time>2015-11-11T12:52:31Z</time>
      </trkpt>
      <trkpt lat="43.72438" lon="1.25774">
        <ele>172.4</ele>
        <time>2015-11-11T12:52:32Z</time>
      </trkpt>
      <trkpt lat="43.72443" lon="1.25765">
        <ele>172.2</ele>
        <time>2015-11-11T12:52:33Z</time>
      </trkpt>
      <trkpt lat="43.72446" lon="1.25756">
        <ele>172.1</ele>
        <time>2015-11-11T12:52:34Z</time>
      </trkpt>
      <trkpt lat="43.7245" lon="1.25747">
        <ele>171.9</ele>
        <time>2015-11-11T12:52:35Z</time>
      </trkpt>
      <trkpt lat="43.72453" lon="1.25737">
        <ele>171.7</ele>
        <time>2015-11-11T12:52:36Z</time>
      </trkpt>
      <trkpt lat="43.72457" lon="1.25727">
        <ele>171.4</ele>
        <time>2015-11-11T12:52:37Z</time>
      </trkpt>
      <trkpt lat="43.72462" lon="1.25719">
        <ele>171</ele>
        <time>2015-11-11T12:52:38Z</time>
      </trkpt>
      <trkpt lat="43.72459" lon="1.25705">
        <ele>170.7</ele>
        <time>2015-11-11T12:52:39Z</time>
      </trkpt>
      <trkpt lat="43.72458" lon="1.25694">
        <ele>169.9</ele>
        <time>2015-11-11T12:52:40Z</time>
      </trkpt>
      <trkpt lat="43.72456" lon="1.25682">
        <ele>169.2</ele>
        <time>2015-11-11T12:52:41Z</time>
      </trkpt>
      <trkpt lat="43.72455" lon="1.2567">
        <ele>168.3</ele>
        <time>2015-11-11T12:52:42Z</time>
      </trkpt>
      <trkpt lat="43.72451" lon="1.25656">
        <ele>167.5</ele>
        <time>2015-11-11T12:52:43Z</time>
      </trkpt>
      <trkpt lat="43.72449" lon="1.25643">
        <ele>166.7</ele>
        <time>2015-11-11T12:52:44Z</time>
      </trkpt>
      <trkpt lat="43.72443" lon="1.25624">
        <ele>165.8</ele>
        <time>2015-11-11T12:52:45Z</time>
      </trkpt>
      <trkpt lat="43.7244" lon="1.25609">
        <ele>164.8</ele>
        <time>2015-11-11T12:52:46Z</time>
      </trkpt>
      <trkpt lat="43.7244" lon="1.25598">
        <ele>163.8</ele>
        <time>2015-11-11T12:52:47Z</time>
      </trkpt>
      <trkpt lat="43.72438" lon="1.25583">
        <ele>162.8</ele>
        <time>2015-11-11T12:52:48Z</time>
      </trkpt>
      <trkpt lat="43.72436" lon="1.25567">
        <ele>161.7</ele>
        <time>2015-11-11T12:52:49Z</time>
      </trkpt>
      <trkpt lat="43.72434" lon="1.25549">
        <ele>160.5</ele>
        <time>2015-11-11T12:52:50Z</time>
      </trkpt>
      <trkpt lat="43.72435" lon="1.25526">
        <ele>159.1</ele>
        <time>2015-11-11T12:52:51Z</time>
      </trkpt>
      <trkpt lat="43.72436" lon="1.25509">
        <ele>158.3</ele>
        <time>2015-11-11T12:52:52Z</time>
      </trkpt>
      <trkpt lat="43.72438" lon="1.25491">
        <ele>157.1</ele>
        <time>2015-11-11T12:52:53Z</time>
      </trkpt>
      <trkpt lat="43.72439" lon="1.25471">
        <ele>156.1</ele>
        <time>2015-11-11T12:52:54Z</time>
      </trkpt>
      <trkpt lat="43.72442" lon="1.25452">
        <ele>155.1</ele>
        <time>2015-11-11T12:52:55Z</time>
      </trkpt>
      <trkpt lat="43.72447" lon="1.25432">
        <ele>154.5</ele>
        <time>2015-11-11T12:52:56Z</time>
      </trkpt>
      <trkpt lat="43.7245" lon="1.25411">
        <ele>154</ele>
        <time>2015-11-11T12:52:57Z</time>
      </trkpt>
      <trkpt lat="43.72456" lon="1.25391">
        <ele>153.3</ele>
        <time>2015-11-11T12:52:58Z</time>
      </trkpt>
      <trkpt lat="43.72464" lon="1.25372">
        <ele>151.9</ele>
        <time>2015-11-11T12:52:59Z</time>
      </trkpt>
      <trkpt lat="43.72473" lon="1.25348">
        <ele>149.1</ele>
        <time>2015-11-11T12:53:00Z</time>
      </trkpt>
      <trkpt lat="43.72478" lon="1.25331">
        <ele>147.4</ele>
        <time>2015-11-11T12:53:01Z</time>
      </trkpt>
      <trkpt lat="43.72473" lon="1.25313">
        <ele>147.1</ele>
        <time>2015-11-11T12:53:02Z</time>
      </trkpt>
      <trkpt lat="43.72473" lon="1.25295">
        <ele>146.1</ele>
        <time>2015-11-11T12:53:03Z</time>
      </trkpt>
      <trkpt lat="43.72475" lon="1.25273">
        <ele>144.6</ele>
        <time>2015-11-11T12:53:04Z</time>
      </trkpt>
      <trkpt lat="43.72476" lon="1.25252">
        <ele>143.3</ele>
        <time>2015-11-11T12:53:05Z</time>
      </trkpt>
      <trkpt lat="43.72476" lon="1.25233">
        <ele>142.2</ele>
        <time>2015-11-11T12:53:06Z</time>
      </trkpt>
      <trkpt lat="43.72476" lon="1.25211">
        <ele>141.1</ele>
        <time>2015-11-11T12:53:07Z</time>
      </trkpt>
      <trkpt lat="43.72475" lon="1.25192">
        <ele>139.6</ele>
        <time>2015-11-11T12:53:08Z</time>
      </trkpt>
      <trkpt lat="43.72474" lon="1.25172">
        <ele>138</ele>
        <time>2015-11-11T12:53:09Z</time>
      </trkpt>
      <trkpt lat="43.72474" lon="1.25154">
        <ele>136.5</ele>
        <time>2015-11-11T12:53:10Z</time>
      </trkpt>
      <trkpt lat="43.72474" lon="1.25134">
        <ele>134.9</ele>
        <time>2015-11-11T12:53:11Z</time>
      </trkpt>
      <trkpt lat="43.72474" lon="1.25114">
        <ele>133.4</ele>
        <time>2015-11-11T12:53:12Z</time>
      </trkpt>
      <trkpt lat="43.72472" lon="1.25096">
        <ele>132.3</ele>
        <time>2015-11-11T12:53:13Z</time>
      </trkpt>
      <trkpt lat="43.7247" lon="1.25077">
        <ele>131.1</ele>
        <time>2015-11-11T12:53:14Z</time>
      </trkpt>
      <trkpt lat="43.72468" lon="1.25058">
        <ele>129.9</ele>
        <time>2015-11-11T12:53:15Z</time>
      </trkpt>
      <trkpt lat="43.72468" lon="1.25041">
        <ele>128.8</ele>
        <time>2015-11-11T12:53:16Z</time>
      </trkpt>
      <trkpt lat="43.72467" lon="1.25022">
        <ele>128.3</ele>
        <time>2015-11-11T12:53:17Z</time>
      </trkpt>
      <trkpt lat="43.72467" lon="1.25005">
        <ele>127.9</ele>
        <time>2015-11-11T12:53:18Z</time>
      </trkpt>
      <trkpt lat="43.72469" lon="1.24987">
        <ele>127.4</ele>
        <time>2015-11-11T12:53:19Z</time>
      </trkpt>
      <trkpt lat="43.72472" lon="1.2497">
        <ele>127</ele>
        <time>2015-11-11T12:53:20Z</time>
      </trkpt>
      <trkpt lat="43.72474" lon="1.24954">
        <ele>126.6</ele>
        <time>2015-11-11T12:53:21Z</time>
      </trkpt>
      <trkpt lat="43.72476" lon="1.24938">
        <ele>126.3</ele>
        <time>2015-11-11T12:53:22Z</time>
      </trkpt>
      <trkpt lat="43.72477" lon="1.24923">
        <ele>126.1</ele>
        <time>2015-11-11T12:53:23Z</time>
      </trkpt>
      <trkpt lat="43.72479" lon="1.24907">
        <ele>125.9</ele>
        <time>2015-11-11T12:53:24Z</time>
      </trkpt>
      <trkpt lat="43.72482" lon="1.24891">
        <ele>125.6</ele>
        <time>2015-11-11T12:53:25Z</time>
      </trkpt>
      <trkpt lat="43.72484" lon="1.24876">
        <ele>125.4</ele>
        <time>2015-11-11T12:53:26Z</time>
      </trkpt>
      <trkpt lat="43.72486" lon="1.24862">
        <ele>125.2</ele>
        <time>2015-11-11T12:53:27Z</time>
      </trkpt>
      <trkpt lat="43.72489" lon="1.24846">
        <ele>124.9</ele>
        <time>2015-11-11T12:53:28Z</time>
      </trkpt>
      <trkpt lat="43.7249" lon="1.24835">
        <ele>124.8</ele>
        <time>2015-11-11T12:53:29Z</time>
      </trkpt>
      <trkpt lat="43.72491" lon="1.24821">
        <ele>124.6</ele>
        <time>2015-11-11T12:53:30Z</time>
      </trkpt>
      <trkpt lat="43.72494" lon="1.24809">
        <ele>124.4</ele>
        <time>2015-11-11T12:53:31Z</time>
      </trkpt>
      <trkpt lat="43.72496" lon="1.24799">
        <ele>124.2</ele>
        <time>2015-11-11T12:53:32Z</time>
      </trkpt>
      <trkpt lat="43.72498" lon="1.24791">
        <ele>124.1</ele>
        <time>2015-11-11T12:53:33Z</time>
      </trkpt>
      <trkpt lat="43.72499" lon="1.24783">
        <ele>124.1</ele>
        <time>2015-11-11T12:53:34Z</time>
      </trkpt>
      <trkpt lat="43.725" lon="1.24776">
        <ele>124.2</ele>
        <time>2015-11-11T12:53:35Z</time>
      </trkpt>
      <trkpt lat="43.72503" lon="1.2477">
        <ele>124.2</ele>
        <time>2015-11-11T12:53:37Z</time>
      </trkpt>
      <trkpt lat="43.72505" lon="1.24762">
        <ele>124.2</ele>
        <time>2015-11-11T12:53:39Z</time>
      </trkpt>
      <trkpt lat="43.72506" lon="1.24757">
        <ele>124.3</ele>
        <time>2015-11-11T12:53:40Z</time>
      </trkpt>
      <trkpt lat="43.72508" lon="1.24752">
        <ele>124.3</ele>
        <time>2015-11-11T12:53:41Z</time>
      </trkpt>
      <trkpt lat="43.72512" lon="1.24748">
        <ele>124.2</ele>
        <time>2015-11-11T12:53:42Z</time>
      </trkpt>
      <trkpt lat="43.72514" lon="1.2474">
        <ele>124.3</ele>
        <time>2015-11-11T12:53:43Z</time>
      </trkpt>
      <trkpt lat="43.72518" lon="1.24734">
        <ele>124.3</ele>
        <time>2015-11-11T12:53:44Z</time>
      </trkpt>
      <trkpt lat="43.72522" lon="1.24726">
        <ele>124.3</ele>
        <time>2015-11-11T12:53:45Z</time>
      </trkpt>
      <trkpt lat="43.72525" lon="1.24718">
        <ele>124.3</ele>
        <time>2015-11-11T12:53:46Z</time>
      </trkpt>
      <trkpt lat="43.72529" lon="1.24711">
        <ele>124.3</ele>
        <time>2015-11-11T12:53:47Z</time>
      </trkpt>
      <trkpt lat="43.72532" lon="1.24703">
        <ele>124.1</ele>
        <time>2015-11-11T12:53:48Z</time>
      </trkpt>
      <trkpt lat="43.72537" lon="1.247">
        <ele>123.9</ele>
        <time>2015-11-11T12:53:49Z</time>
      </trkpt>
      <trkpt lat="43.72539" lon="1.24693">
        <ele>123.7</ele>
        <time>2015-11-11T12:53:50Z</time>
      </trkpt>
      <trkpt lat="43.72544" lon="1.24685">
        <ele>123.4</ele>
        <time>2015-11-11T12:53:51Z</time>
      </trkpt>
      <trkpt lat="43.72547" lon="1.24677">
        <ele>123.3</ele>
        <time>2015-11-11T12:53:52Z</time>
      </trkpt>
      <trkpt lat="43.72551" lon="1.24668">
        <ele>123.2</ele>
        <time>2015-11-11T12:53:53Z</time>
      </trkpt>
      <trkpt lat="43.72554" lon="1.24661">
        <ele>123.1</ele>
        <time>2015-11-11T12:53:54Z</time>
      </trkpt>
      <trkpt lat="43.72557" lon="1.24652">
        <ele>123</ele>
        <time>2015-11-11T12:53:55Z</time>
      </trkpt>
      <trkpt lat="43.72562" lon="1.24644">
        <ele>123</ele>
        <time>2015-11-11T12:53:56Z</time>
      </trkpt>
      <trkpt lat="43.72566" lon="1.24636">
        <ele>123</ele>
        <time>2015-11-11T12:53:57Z</time>
      </trkpt>
      <trkpt lat="43.72571" lon="1.24629">
        <ele>123.1</ele>
        <time>2015-11-11T12:53:58Z</time>
      </trkpt>
      <trkpt lat="43.72573" lon="1.24618">
        <ele>123.1</ele>
        <time>2015-11-11T12:53:59Z</time>
      </trkpt>
      <trkpt lat="43.72577" lon="1.24609">
        <ele>123.3</ele>
        <time>2015-11-11T12:54:00Z</time>
      </trkpt>
      <trkpt lat="43.72581" lon="1.24602">
        <ele>123.4</ele>
        <time>2015-11-11T12:54:01Z</time>
      </trkpt>
      <trkpt lat="43.72586" lon="1.24595">
        <ele>123.6</ele>
        <time>2015-11-11T12:54:02Z</time>
      </trkpt>
      <trkpt lat="43.72591" lon="1.24586">
        <ele>123.7</ele>
        <time>2015-11-11T12:54:03Z</time>
      </trkpt>
      <trkpt lat="43.72595" lon="1.24578">
        <ele>123.8</ele>
        <time>2015-11-11T12:54:04Z</time>
      </trkpt>
      <trkpt lat="43.72598" lon="1.24572">
        <ele>123.8</ele>
        <time>2015-11-11T12:54:05Z</time>
      </trkpt>
      <trkpt lat="43.72602" lon="1.24564">
        <ele>123.8</ele>
        <time>2015-11-11T12:54:06Z</time>
      </trkpt>
      <trkpt lat="43.72606" lon="1.24557">
        <ele>123.9</ele>
        <time>2015-11-11T12:54:07Z</time>
      </trkpt>
      <trkpt lat="43.72607" lon="1.2455">
        <ele>123.8</ele>
        <time>2015-11-11T12:54:08Z</time>
      </trkpt>
      <trkpt lat="43.72611" lon="1.24543">
        <ele>123.8</ele>
        <time>2015-11-11T12:54:09Z</time>
      </trkpt>
      <trkpt lat="43.72616" lon="1.24533">
        <ele>123.8</ele>
        <time>2015-11-11T12:54:10Z</time>
      </trkpt>
      <trkpt lat="43.72621" lon="1.24525">
        <ele>123.8</ele>
        <time>2015-11-11T12:54:11Z</time>
      </trkpt>
      <trkpt lat="43.72624" lon="1.24517">
        <ele>123.7</ele>
        <time>2015-11-11T12:54:12Z</time>
      </trkpt>
      <trkpt lat="43.7263" lon="1.24507">
        <ele>123.5</ele>
        <time>2015-11-11T12:54:13Z</time>
      </trkpt>
      <trkpt lat="43.72635" lon="1.24499">
        <ele>123.2</ele>
        <time>2015-11-11T12:54:14Z</time>
      </trkpt>
      <trkpt lat="43.72641" lon="1.24494">
        <ele>123</ele>
        <time>2015-11-11T12:54:15Z</time>
      </trkpt>
      <trkpt lat="43.72648" lon="1.2449">
        <ele>122.8</ele>
        <time>2015-11-11T12:54:16Z</time>
      </trkpt>
      <trkpt lat="43.72655" lon="1.24485">
        <ele>122.6</ele>
        <time>2015-11-11T12:54:17Z</time>
      </trkpt>
      <trkpt lat="43.72661" lon="1.24479">
        <ele>122.4</ele>
        <time>2015-11-11T12:54:18Z</time>
      </trkpt>
      <trkpt lat="43.72668" lon="1.24477">
        <ele>122.2</ele>
        <time>2015-11-11T12:54:19Z</time>
      </trkpt>
      <trkpt lat="43.72676" lon="1.24474">
        <ele>122</ele>
        <time>2015-11-11T12:54:20Z</time>
      </trkpt>
      <trkpt lat="43.72683" lon="1.24471">
        <ele>121.8</ele>
        <time>2015-11-11T12:54:21Z</time>
      </trkpt>
      <trkpt lat="43.72692" lon="1.24465">
        <ele>121.5</ele>
        <time>2015-11-11T12:54:22Z</time>
      </trkpt>
      <trkpt lat="43.72699" lon="1.24463">
        <ele>121.3</ele>
        <time>2015-11-11T12:54:23Z</time>
      </trkpt>
      <trkpt lat="43.72704" lon="1.24457">
        <ele>121.1</ele>
        <time>2015-11-11T12:54:24Z</time>
      </trkpt>
      <trkpt lat="43.72712" lon="1.24454">
        <ele>120.9</ele>
        <time>2015-11-11T12:54:25Z</time>
      </trkpt>
      <trkpt lat="43.7272" lon="1.2445">
        <ele>120.7</ele>
        <time>2015-11-11T12:54:26Z</time>
      </trkpt>
      <trkpt lat="43.72727" lon="1.24447">
        <ele>120.5</ele>
        <time>2015-11-11T12:54:27Z</time>
      </trkpt>
      <trkpt lat="43.72736" lon="1.24447">
        <ele>120.2</ele>
        <time>2015-11-11T12:54:28Z</time>
      </trkpt>
      <trkpt lat="43.72743" lon="1.24445">
        <ele>120</ele>
        <time>2015-11-11T12:54:29Z</time>
      </trkpt>
      <trkpt lat="43.72751" lon="1.24444">
        <ele>119.8</ele>
        <time>2015-11-11T12:54:30Z</time>
      </trkpt>
      <trkpt lat="43.72758" lon="1.24444">
        <ele>119.6</ele>
        <time>2015-11-11T12:54:31Z</time>
      </trkpt>
      <trkpt lat="43.72766" lon="1.24443">
        <ele>119.4</ele>
        <time>2015-11-11T12:54:32Z</time>
      </trkpt>
      <trkpt lat="43.72774" lon="1.24441">
        <ele>119.1</ele>
        <time>2015-11-11T12:54:33Z</time>
      </trkpt>
      <trkpt lat="43.72783" lon="1.24437">
        <ele>118.8</ele>
        <time>2015-11-11T12:54:34Z</time>
      </trkpt>
      <trkpt lat="43.7279" lon="1.24432">
        <ele>118.4</ele>
        <time>2015-11-11T12:54:35Z</time>
      </trkpt>
      <trkpt lat="43.72797" lon="1.24425">
        <ele>118.2</ele>
        <time>2015-11-11T12:54:36Z</time>
      </trkpt>
      <trkpt lat="43.72803" lon="1.24415">
        <ele>118</ele>
        <time>2015-11-11T12:54:37Z</time>
      </trkpt>
      <trkpt lat="43.72807" lon="1.24405">
        <ele>117.7</ele>
        <time>2015-11-11T12:54:38Z</time>
      </trkpt>
      <trkpt lat="43.72814" lon="1.24394">
        <ele>117.4</ele>
        <time>2015-11-11T12:54:39Z</time>
      </trkpt>
      <trkpt lat="43.72819" lon="1.24386">
        <ele>117.3</ele>
        <time>2015-11-11T12:54:40Z</time>
      </trkpt>
      <trkpt lat="43.72824" lon="1.24376">
        <ele>117</ele>
        <time>2015-11-11T12:54:41Z</time>
      </trkpt>
      <trkpt lat="43.72828" lon="1.24368">
        <ele>117</ele>
        <time>2015-11-11T12:54:42Z</time>
      </trkpt>
      <trkpt lat="43.72832" lon="1.24354">
        <ele>116.9</ele>
        <time>2015-11-11T12:54:43Z</time>
      </trkpt>
      <trkpt lat="43.72837" lon="1.24343">
        <ele>116.8</ele>
        <time>2015-11-11T12:54:44Z</time>
      </trkpt>
      <trkpt lat="43.72842" lon="1.24333">
        <ele>116.8</ele>
        <time>2015-11-11T12:54:45Z</time>
      </trkpt>
      <trkpt lat="43.72847" lon="1.24325">
        <ele>116.8</ele>
        <time>2015-11-11T12:54:46Z</time>
      </trkpt>
      <trkpt lat="43.72852" lon="1.24315">
        <ele>116.8</ele>
        <time>2015-11-11T12:54:47Z</time>
      </trkpt>
      <trkpt lat="43.72855" lon="1.24304">
        <ele>116.8</ele>
        <time>2015-11-11T12:54:48Z</time>
      </trkpt>
      <trkpt lat="43.72859" lon="1.24293">
        <ele>116.8</ele>
        <time>2015-11-11T12:54:49Z</time>
      </trkpt>
      <trkpt lat="43.72862" lon="1.24284">
        <ele>116.8</ele>
        <time>2015-11-11T12:54:50Z</time>
      </trkpt>
      <trkpt lat="43.72865" lon="1.24276">
        <ele>116.7</ele>
        <time>2015-11-11T12:54:51Z</time>
      </trkpt>
      <trkpt lat="43.72868" lon="1.24268">
        <ele>116.6</ele>
        <time>2015-11-11T12:54:52Z</time>
      </trkpt>
      <trkpt lat="43.72869" lon="1.24256">
        <ele>116.5</ele>
        <time>2015-11-11T12:54:53Z</time>
      </trkpt>
      <trkpt lat="43.72871" lon="1.24247">
        <ele>116.4</ele>
        <time>2015-11-11T12:54:54Z</time>
      </trkpt>
      <trkpt lat="43.72872" lon="1.24237">
        <ele>116.3</ele>
        <time>2015-11-11T12:54:55Z</time>
      </trkpt>
      <trkpt lat="43.72873" lon="1.24222">
        <ele>116.2</ele>
        <time>2015-11-11T12:54:56Z</time>
      </trkpt>
      <trkpt lat="43.72875" lon="1.24214">
        <ele>116.1</ele>
        <time>2015-11-11T12:54:57Z</time>
      </trkpt>
      <trkpt lat="43.72875" lon="1.24201">
        <ele>116</ele>
        <time>2015-11-11T12:54:58Z</time>
      </trkpt>
      <trkpt lat="43.72878" lon="1.24192">
        <ele>116</ele>
        <time>2015-11-11T12:54:59Z</time>
      </trkpt>
      <trkpt lat="43.72878" lon="1.24183">
        <ele>116</ele>
        <time>2015-11-11T12:55:00Z</time>
      </trkpt>
      <trkpt lat="43.72878" lon="1.24173">
        <ele>116</ele>
        <time>2015-11-11T12:55:01Z</time>
      </trkpt>
      <trkpt lat="43.7288" lon="1.24163">
        <ele>116</ele>
        <time>2015-11-11T12:55:02Z</time>
      </trkpt>
      <trkpt lat="43.72881" lon="1.24153">
        <ele>116</ele>
        <time>2015-11-11T12:55:03Z</time>
      </trkpt>
      <trkpt lat="43.72881" lon="1.24143">
        <ele>116.1</ele>
        <time>2015-11-11T12:55:04Z</time>
      </trkpt>
      <trkpt lat="43.72881" lon="1.24131">
        <ele>116.1</ele>
        <time>2015-11-11T12:55:05Z</time>
      </trkpt>
      <trkpt lat="43.72881" lon="1.2412">
        <ele>116</ele>
        <time>2015-11-11T12:55:06Z</time>
      </trkpt>
      <trkpt lat="43.72881" lon="1.24109">
        <ele>115.9</ele>
        <time>2015-11-11T12:55:07Z</time>
      </trkpt>
      <trkpt lat="43.72882" lon="1.24101">
        <ele>115.8</ele>
        <time>2015-11-11T12:55:08Z</time>
      </trkpt>
      <trkpt lat="43.72882" lon="1.24091">
        <ele>115.6</ele>
        <time>2015-11-11T12:55:09Z</time>
      </trkpt>
      <trkpt lat="43.72881" lon="1.2408">
        <ele>115.5</ele>
        <time>2015-11-11T12:55:10Z</time>
      </trkpt>
      <trkpt lat="43.72881" lon="1.2407">
        <ele>115.4</ele>
        <time>2015-11-11T12:55:11Z</time>
      </trkpt>
      <trkpt lat="43.7288" lon="1.24061">
        <ele>115.2</ele>
        <time>2015-11-11T12:55:12Z</time>
      </trkpt>
      <trkpt lat="43.72881" lon="1.2405">
        <ele>115.1</ele>
        <time>2015-11-11T12:55:13Z</time>
      </trkpt>
      <trkpt lat="43.72879" lon="1.2404">
        <ele>115</ele>
        <time>2015-11-11T12:55:14Z</time>
      </trkpt>
      <trkpt lat="43.72879" lon="1.2403">
        <ele>115</ele>
        <time>2015-11-11T12:55:15Z</time>
      </trkpt>
      <trkpt lat="43.72878" lon="1.24019">
        <ele>115</ele>
        <time>2015-11-11T12:55:16Z</time>
      </trkpt>
      <trkpt lat="43.72877" lon="1.24009">
        <ele>115</ele>
        <time>2015-11-11T12:55:17Z</time>
      </trkpt>
      <trkpt lat="43.72876" lon="1.23999">
        <ele>115</ele>
        <time>2015-11-11T12:55:18Z</time>
      </trkpt>
      <trkpt lat="43.72875" lon="1.23988">
        <ele>115</ele>
        <time>2015-11-11T12:55:19Z</time>
      </trkpt>
      <trkpt lat="43.72874" lon="1.23978">
        <ele>115</ele>
        <time>2015-11-11T12:55:20Z</time>
      </trkpt>
      <trkpt lat="43.72874" lon="1.23969">
        <ele>115.1</ele>
        <time>2015-11-11T12:55:21Z</time>
      </trkpt>
      <trkpt lat="43.72873" lon="1.2396">
        <ele>115.1</ele>
        <time>2015-11-11T12:55:22Z</time>
      </trkpt>
      <trkpt lat="43.72872" lon="1.23949">
        <ele>115.5</ele>
        <time>2015-11-11T12:55:23Z</time>
      </trkpt>
      <trkpt lat="43.72873" lon="1.23941">
        <ele>115.7</ele>
        <time>2015-11-11T12:55:24Z</time>
      </trkpt>
      <trkpt lat="43.72873" lon="1.2393">
        <ele>116.1</ele>
        <time>2015-11-11T12:55:25Z</time>
      </trkpt>
      <trkpt lat="43.72872" lon="1.23921">
        <ele>116.4</ele>
        <time>2015-11-11T12:55:26Z</time>
      </trkpt>
      <trkpt lat="43.72872" lon="1.23911">
        <ele>116.8</ele>
        <time>2015-11-11T12:55:27Z</time>
      </trkpt>
      <trkpt lat="43.72872" lon="1.23902">
        <ele>117.1</ele>
        <time>2015-11-11T12:55:28Z</time>
      </trkpt>
      <trkpt lat="43.72873" lon="1.23892">
        <ele>117.4</ele>
        <time>2015-11-11T12:55:29Z</time>
      </trkpt>
      <trkpt lat="43.72873" lon="1.23882">
        <ele>117.8</ele>
        <time>2015-11-11T12:55:30Z</time>
      </trkpt>
      <trkpt lat="43.72874" lon="1.23873">
        <ele>118.1</ele>
        <time>2015-11-11T12:55:31Z</time>
      </trkpt>
      <trkpt lat="43.72876" lon="1.23863">
        <ele>118.5</ele>
        <time>2015-11-11T12:55:32Z</time>
      </trkpt>
      <trkpt lat="43.72878" lon="1.23855">
        <ele>118.9</ele>
        <time>2015-11-11T12:55:33Z</time>
      </trkpt>
      <trkpt lat="43.72879" lon="1.23846">
        <ele>119.3</ele>
        <time>2015-11-11T12:55:34Z</time>
      </trkpt>
      <trkpt lat="43.72882" lon="1.23838">
        <ele>119.6</ele>
        <time>2015-11-11T12:55:35Z</time>
      </trkpt>
      <trkpt lat="43.72885" lon="1.23829">
        <ele>120</ele>
        <time>2015-11-11T12:55:36Z</time>
      </trkpt>
      <trkpt lat="43.72886" lon="1.2382">
        <ele>120.3</ele>
        <time>2015-11-11T12:55:37Z</time>
      </trkpt>
      <trkpt lat="43.72887" lon="1.23815">
        <ele>120.6</ele>
        <time>2015-11-11T12:55:38Z</time>
      </trkpt>
      <trkpt lat="43.72887" lon="1.23809">
        <ele>120.8</ele>
        <time>2015-11-11T12:55:39Z</time>
      </trkpt>
      <trkpt lat="43.72886" lon="1.23804">
        <ele>121</ele>
        <time>2015-11-11T12:55:40Z</time>
      </trkpt>
      <trkpt lat="43.72883" lon="1.23801">
        <ele>121.3</ele>
        <time>2015-11-11T12:55:41Z</time>
      </trkpt>
      <trkpt lat="43.7288" lon="1.23799">
        <ele>121.5</ele>
        <time>2015-11-11T12:55:42Z</time>
      </trkpt>
      <trkpt lat="43.72875" lon="1.23797">
        <ele>121.7</ele>
        <time>2015-11-11T12:55:43Z</time>
      </trkpt>
      <trkpt lat="43.72871" lon="1.23796">
        <ele>121.7</ele>
        <time>2015-11-11T12:55:44Z</time>
      </trkpt>
      <trkpt lat="43.72869" lon="1.23792">
        <ele>121.8</ele>
        <time>2015-11-11T12:55:45Z</time>
      </trkpt>
      <trkpt lat="43.72863" lon="1.23789">
        <ele>121.6</ele>
        <time>2015-11-11T12:55:46Z</time>
      </trkpt>
      <trkpt lat="43.72859" lon="1.23789">
        <ele>121.4</ele>
        <time>2015-11-11T12:55:47Z</time>
      </trkpt>
      <trkpt lat="43.72854" lon="1.23788">
        <ele>121.2</ele>
        <time>2015-11-11T12:55:48Z</time>
      </trkpt>
      <trkpt lat="43.72849" lon="1.23788">
        <ele>121.1</ele>
        <time>2015-11-11T12:55:49Z</time>
      </trkpt>
      <trkpt lat="43.72844" lon="1.23787">
        <ele>120.9</ele>
        <time>2015-11-11T12:55:50Z</time>
      </trkpt>
      <trkpt lat="43.72838" lon="1.23786">
        <ele>120.7</ele>
        <time>2015-11-11T12:55:51Z</time>
      </trkpt>
      <trkpt lat="43.72833" lon="1.23786">
        <ele>120.5</ele>
        <time>2015-11-11T12:55:52Z</time>
      </trkpt>
      <trkpt lat="43.72827" lon="1.23782">
        <ele>120.3</ele>
        <time>2015-11-11T12:55:53Z</time>
      </trkpt>
      <trkpt lat="43.72822" lon="1.2378">
        <ele>120.1</ele>
        <time>2015-11-11T12:55:54Z</time>
      </trkpt>
      <trkpt lat="43.72817" lon="1.23776">
        <ele>119.9</ele>
        <time>2015-11-11T12:55:55Z</time>
      </trkpt>
      <trkpt lat="43.72808" lon="1.23772">
        <ele>119.6</ele>
        <time>2015-11-11T12:55:56Z</time>
      </trkpt>
      <trkpt lat="43.72801" lon="1.23772">
        <ele>119.3</ele>
        <time>2015-11-11T12:55:57Z</time>
      </trkpt>
      <trkpt lat="43.72793" lon="1.23773">
        <ele>119.1</ele>
        <time>2015-11-11T12:55:58Z</time>
      </trkpt>
      <trkpt lat="43.72788" lon="1.23771">
        <ele>118.9</ele>
        <time>2015-11-11T12:55:59Z</time>
      </trkpt>
      <trkpt lat="43.72781" lon="1.23769">
        <ele>118.6</ele>
        <time>2015-11-11T12:56:00Z</time>
      </trkpt>
      <trkpt lat="43.72774" lon="1.23766">
        <ele>118.3</ele>
        <time>2015-11-11T12:56:01Z</time>
      </trkpt>
      <trkpt lat="43.72767" lon="1.23762">
        <ele>118.1</ele>
        <time>2015-11-11T12:56:02Z</time>
      </trkpt>
      <trkpt lat="43.72759" lon="1.23759">
        <ele>117.8</ele>
        <time>2015-11-11T12:56:03Z</time>
      </trkpt>
      <trkpt lat="43.72752" lon="1.2376">
        <ele>117.6</ele>
        <time>2015-11-11T12:56:04Z</time>
      </trkpt>
      <trkpt lat="43.72746" lon="1.23757">
        <ele>117.4</ele>
        <time>2015-11-11T12:56:05Z</time>
      </trkpt>
      <trkpt lat="43.7274" lon="1.23755">
        <ele>117.1</ele>
        <time>2015-11-11T12:56:06Z</time>
      </trkpt>
      <trkpt lat="43.72733" lon="1.23753">
        <ele>116.9</ele>
        <time>2015-11-11T12:56:07Z</time>
      </trkpt>
      <trkpt lat="43.72727" lon="1.23752">
        <ele>116.7</ele>
        <time>2015-11-11T12:56:08Z</time>
      </trkpt>
      <trkpt lat="43.72721" lon="1.2375">
        <ele>116.4</ele>
        <time>2015-11-11T12:56:09Z</time>
      </trkpt>
      <trkpt lat="43.72713" lon="1.23748">
        <ele>116.2</ele>
        <time>2015-11-11T12:56:10Z</time>
      </trkpt>
      <trkpt lat="43.72706" lon="1.23747">
        <ele>116</ele>
        <time>2015-11-11T12:56:11Z</time>
      </trkpt>
      <trkpt lat="43.727" lon="1.23746">
        <ele>116</ele>
        <time>2015-11-11T12:56:12Z</time>
      </trkpt>
      <trkpt lat="43.72693" lon="1.23743">
        <ele>115.9</ele>
        <time>2015-11-11T12:56:13Z</time>
      </trkpt>
      <trkpt lat="43.72686" lon="1.23739">
        <ele>115.9</ele>
        <time>2015-11-11T12:56:14Z</time>
      </trkpt>
      <trkpt lat="43.72681" lon="1.23739">
        <ele>115.9</ele>
        <time>2015-11-11T12:56:15Z</time>
      </trkpt>
      <trkpt lat="43.72674" lon="1.23738">
        <ele>115.9</ele>
        <time>2015-11-11T12:56:16Z</time>
      </trkpt>
      <trkpt lat="43.72668" lon="1.23734">
        <ele>115.9</ele>
        <time>2015-11-11T12:56:17Z</time>
      </trkpt>
      <trkpt lat="43.72661" lon="1.23729">
        <ele>115.9</ele>
        <time>2015-11-11T12:56:18Z</time>
      </trkpt>
      <trkpt lat="43.72658" lon="1.23728">
        <ele>115.9</ele>
        <time>2015-11-11T12:56:19Z</time>
      </trkpt>
      <trkpt lat="43.72653" lon="1.23726">
        <ele>115.9</ele>
        <time>2015-11-11T12:56:20Z</time>
      </trkpt>
      <trkpt lat="43.72648" lon="1.23723">
        <ele>115.9</ele>
        <time>2015-11-11T12:56:21Z</time>
      </trkpt>
      <trkpt lat="43.72642" lon="1.23719">
        <ele>115.9</ele>
        <time>2015-11-11T12:56:22Z</time>
      </trkpt>
      <trkpt lat="43.72636" lon="1.23715">
        <ele>115.9</ele>
        <time>2015-11-11T12:56:23Z</time>
      </trkpt>
      <trkpt lat="43.72633" lon="1.23712">
        <ele>116</ele>
        <time>2015-11-11T12:56:24Z</time>
      </trkpt>
      <trkpt lat="43.72627" lon="1.23712">
        <ele>116</ele>
        <time>2015-11-11T12:56:25Z</time>
      </trkpt>
      <trkpt lat="43.72622" lon="1.23709">
        <ele>115.9</ele>
        <time>2015-11-11T12:56:26Z</time>
      </trkpt>
      <trkpt lat="43.72616" lon="1.23704">
        <ele>115.8</ele>
        <time>2015-11-11T12:56:27Z</time>
      </trkpt>
      <trkpt lat="43.72612" lon="1.23697">
        <ele>115.7</ele>
        <time>2015-11-11T12:56:28Z</time>
      </trkpt>
      <trkpt lat="43.72606" lon="1.23693">
        <ele>115.6</ele>
        <time>2015-11-11T12:56:29Z</time>
      </trkpt>
      <trkpt lat="43.72599" lon="1.23688">
        <ele>115.4</ele>
        <time>2015-11-11T12:56:30Z</time>
      </trkpt>
      <trkpt lat="43.72594" lon="1.23685">
        <ele>115.4</ele>
        <time>2015-11-11T12:56:31Z</time>
      </trkpt>
      <trkpt lat="43.72589" lon="1.23682">
        <ele>115.3</ele>
        <time>2015-11-11T12:56:32Z</time>
      </trkpt>
      <trkpt lat="43.72582" lon="1.2368">
        <ele>115.1</ele>
        <time>2015-11-11T12:56:33Z</time>
      </trkpt>
      <trkpt lat="43.72576" lon="1.23676">
        <ele>115</ele>
        <time>2015-11-11T12:56:34Z</time>
      </trkpt>
      <trkpt lat="43.72569" lon="1.23673">
        <ele>114.9</ele>
        <time>2015-11-11T12:56:35Z</time>
      </trkpt>
      <trkpt lat="43.72562" lon="1.2367">
        <ele>114.8</ele>
        <time>2015-11-11T12:56:36Z</time>
      </trkpt>
      <trkpt lat="43.72556" lon="1.23666">
        <ele>114.8</ele>
        <time>2015-11-11T12:56:37Z</time>
      </trkpt>
      <trkpt lat="43.7255" lon="1.23665">
        <ele>114.7</ele>
        <time>2015-11-11T12:56:38Z</time>
      </trkpt>
      <trkpt lat="43.72543" lon="1.2366">
        <ele>114.6</ele>
        <time>2015-11-11T12:56:39Z</time>
      </trkpt>
      <trkpt lat="43.72538" lon="1.2366">
        <ele>114.6</ele>
        <time>2015-11-11T12:56:40Z</time>
      </trkpt>
      <trkpt lat="43.72533" lon="1.23658">
        <ele>114.6</ele>
        <time>2015-11-11T12:56:41Z</time>
      </trkpt>
      <trkpt lat="43.72525" lon="1.23655">
        <ele>114.7</ele>
        <time>2015-11-11T12:56:42Z</time>
      </trkpt>
      <trkpt lat="43.72519" lon="1.23652">
        <ele>114.8</ele>
        <time>2015-11-11T12:56:43Z</time>
      </trkpt>
      <trkpt lat="43.72513" lon="1.2365">
        <ele>114.8</ele>
        <time>2015-11-11T12:56:44Z</time>
      </trkpt>
      <trkpt lat="43.72505" lon="1.23649">
        <ele>114.8</ele>
        <time>2015-11-11T12:56:45Z</time>
      </trkpt>
      <trkpt lat="43.72498" lon="1.23646">
        <ele>114.9</ele>
        <time>2015-11-11T12:56:46Z</time>
      </trkpt>
      <trkpt lat="43.72491" lon="1.23642">
        <ele>114.9</ele>
        <time>2015-11-11T12:56:47Z</time>
      </trkpt>
      <trkpt lat="43.72483" lon="1.23639">
        <ele>114.9</ele>
        <time>2015-11-11T12:56:48Z</time>
      </trkpt>
      <trkpt lat="43.72476" lon="1.23637">
        <ele>115</ele>
        <time>2015-11-11T12:56:49Z</time>
      </trkpt>
      <trkpt lat="43.72468" lon="1.23634">
        <ele>115</ele>
        <time>2015-11-11T12:56:50Z</time>
      </trkpt>
      <trkpt lat="43.72463" lon="1.23633">
        <ele>115</ele>
        <time>2015-11-11T12:56:51Z</time>
      </trkpt>
      <trkpt lat="43.72458" lon="1.23633">
        <ele>115</ele>
        <time>2015-11-11T12:56:52Z</time>
      </trkpt>
      <trkpt lat="43.72451" lon="1.23631">
        <ele>115.2</ele>
        <time>2015-11-11T12:56:53Z</time>
      </trkpt>
      <trkpt lat="43.72444" lon="1.2363">
        <ele>115.3</ele>
        <time>2015-11-11T12:56:54Z</time>
      </trkpt>
      <trkpt lat="43.72437" lon="1.23628">
        <ele>115.5</ele>
        <time>2015-11-11T12:56:55Z</time>
      </trkpt>
      <trkpt lat="43.7243" lon="1.23627">
        <ele>115.7</ele>
        <time>2015-11-11T12:56:56Z</time>
      </trkpt>
      <trkpt lat="43.72423" lon="1.23626">
        <ele>115.8</ele>
        <time>2015-11-11T12:56:57Z</time>
      </trkpt>
      <trkpt lat="43.72414" lon="1.23625">
        <ele>116.1</ele>
        <time>2015-11-11T12:56:58Z</time>
      </trkpt>
      <trkpt lat="43.72406" lon="1.23625">
        <ele>116.2</ele>
        <time>2015-11-11T12:56:59Z</time>
      </trkpt>
      <trkpt lat="43.72399" lon="1.23624">
        <ele>116.4</ele>
        <time>2015-11-11T12:57:00Z</time>
      </trkpt>
      <trkpt lat="43.72392" lon="1.23623">
        <ele>116.6</ele>
        <time>2015-11-11T12:57:01Z</time>
      </trkpt>
      <trkpt lat="43.72385" lon="1.23621">
        <ele>116.7</ele>
        <time>2015-11-11T12:57:02Z</time>
      </trkpt>
      <trkpt lat="43.72379" lon="1.2362">
        <ele>116.9</ele>
        <time>2015-11-11T12:57:03Z</time>
      </trkpt>
      <trkpt lat="43.72369" lon="1.23617">
        <ele>116.8</ele>
        <time>2015-11-11T12:57:04Z</time>
      </trkpt>
      <trkpt lat="43.72363" lon="1.23616">
        <ele>116.6</ele>
        <time>2015-11-11T12:57:05Z</time>
      </trkpt>
      <trkpt lat="43.72356" lon="1.23614">
        <ele>116.5</ele>
        <time>2015-11-11T12:57:06Z</time>
      </trkpt>
      <trkpt lat="43.72349" lon="1.23615">
        <ele>116.3</ele>
        <time>2015-11-11T12:57:07Z</time>
      </trkpt>
      <trkpt lat="43.72339" lon="1.23611">
        <ele>116.1</ele>
        <time>2015-11-11T12:57:08Z</time>
      </trkpt>
      <trkpt lat="43.72333" lon="1.23609">
        <ele>116</ele>
        <time>2015-11-11T12:57:09Z</time>
      </trkpt>
      <trkpt lat="43.72326" lon="1.23609">
        <ele>115.9</ele>
        <time>2015-11-11T12:57:10Z</time>
      </trkpt>
      <trkpt lat="43.72321" lon="1.23611">
        <ele>115.7</ele>
        <time>2015-11-11T12:57:11Z</time>
      </trkpt>
      <trkpt lat="43.72313" lon="1.2361">
        <ele>115.6</ele>
        <time>2015-11-11T12:57:12Z</time>
      </trkpt>
      <trkpt lat="43.72306" lon="1.23609">
        <ele>115.5</ele>
        <time>2015-11-11T12:57:13Z</time>
      </trkpt>
      <trkpt lat="43.72299" lon="1.23608">
        <ele>115.3</ele>
        <time>2015-11-11T12:57:14Z</time>
      </trkpt>
      <trkpt lat="43.72293" lon="1.23608">
        <ele>115.2</ele>
        <time>2015-11-11T12:57:15Z</time>
      </trkpt>
      <trkpt lat="43.72286" lon="1.23611">
        <ele>115.2</ele>
        <time>2015-11-11T12:57:16Z</time>
      </trkpt>
      <trkpt lat="43.72279" lon="1.23613">
        <ele>115.1</ele>
        <time>2015-11-11T12:57:17Z</time>
      </trkpt>
      <trkpt lat="43.72278" lon="1.23617">
        <ele>115.1</ele>
        <time>2015-11-11T12:57:18Z</time>
      </trkpt>
      <trkpt lat="43.7227" lon="1.23618">
        <ele>115.1</ele>
        <time>2015-11-11T12:57:19Z</time>
      </trkpt>
      <trkpt lat="43.72263" lon="1.2362">
        <ele>115.1</ele>
        <time>2015-11-11T12:57:20Z</time>
      </trkpt>
      <trkpt lat="43.72256" lon="1.23621">
        <ele>115.1</ele>
        <time>2015-11-11T12:57:21Z</time>
      </trkpt>
      <trkpt lat="43.72249" lon="1.23621">
        <ele>115</ele>
        <time>2015-11-11T12:57:22Z</time>
      </trkpt>
      <trkpt lat="43.72241" lon="1.23624">
        <ele>115</ele>
        <time>2015-11-11T12:57:23Z</time>
      </trkpt>
      <trkpt lat="43.72234" lon="1.23625">
        <ele>115</ele>
        <time>2015-11-11T12:57:24Z</time>
      </trkpt>
      <trkpt lat="43.72226" lon="1.23624">
        <ele>115</ele>
        <time>2015-11-11T12:57:25Z</time>
      </trkpt>
      <trkpt lat="43.72219" lon="1.23625">
        <ele>115</ele>
        <time>2015-11-11T12:57:26Z</time>
      </trkpt>
      <trkpt lat="43.72212" lon="1.23625">
        <ele>115</ele>
        <time>2015-11-11T12:57:27Z</time>
      </trkpt>
      <trkpt lat="43.72203" lon="1.23626">
        <ele>115.1</ele>
        <time>2015-11-11T12:57:28Z</time>
      </trkpt>
      <trkpt lat="43.72197" lon="1.23626">
        <ele>115.1</ele>
        <time>2015-11-11T12:57:29Z</time>
      </trkpt>
      <trkpt lat="43.72191" lon="1.23627">
        <ele>115.3</ele>
        <time>2015-11-11T12:57:30Z</time>
      </trkpt>
      <trkpt lat="43.72184" lon="1.2363">
        <ele>115.4</ele>
        <time>2015-11-11T12:57:31Z</time>
      </trkpt>
      <trkpt lat="43.72177" lon="1.2363">
        <ele>115.5</ele>
        <time>2015-11-11T12:57:32Z</time>
      </trkpt>
      <trkpt lat="43.7217" lon="1.23633">
        <ele>115.7</ele>
        <time>2015-11-11T12:57:33Z</time>
      </trkpt>
      <trkpt lat="43.72162" lon="1.23635">
        <ele>115.9</ele>
        <time>2015-11-11T12:57:34Z</time>
      </trkpt>
      <trkpt lat="43.72155" lon="1.23639">
        <ele>116.1</ele>
        <time>2015-11-11T12:57:35Z</time>
      </trkpt>
      <trkpt lat="43.72149" lon="1.23637">
        <ele>116.2</ele>
        <time>2015-11-11T12:57:36Z</time>
      </trkpt>
      <trkpt lat="43.72143" lon="1.23636">
        <ele>116.2</ele>
        <time>2015-11-11T12:57:37Z</time>
      </trkpt>
      <trkpt lat="43.72137" lon="1.23633">
        <ele>116.2</ele>
        <time>2015-11-11T12:57:38Z</time>
      </trkpt>
      <trkpt lat="43.72129" lon="1.23636">
        <ele>116.5</ele>
        <time>2015-11-11T12:57:39Z</time>
      </trkpt>
      <trkpt lat="43.72122" lon="1.23633">
        <ele>116.4</ele>
        <time>2015-11-11T12:57:40Z</time>
      </trkpt>
      <trkpt lat="43.72115" lon="1.23631">
        <ele>116.4</ele>
        <time>2015-11-11T12:57:41Z</time>
      </trkpt>
      <trkpt lat="43.72109" lon="1.23629">
        <ele>116.4</ele>
        <time>2015-11-11T12:57:42Z</time>
      </trkpt>
      <trkpt lat="43.72102" lon="1.23628">
        <ele>116.4</ele>
        <time>2015-11-11T12:57:43Z</time>
      </trkpt>
      <trkpt lat="43.72095" lon="1.23624">
        <ele>116.4</ele>
        <time>2015-11-11T12:57:44Z</time>
      </trkpt>
      <trkpt lat="43.72089" lon="1.23624">
        <ele>116.4</ele>
        <time>2015-11-11T12:57:45Z</time>
      </trkpt>
      <trkpt lat="43.72083" lon="1.23622">
        <ele>116.5</ele>
        <time>2015-11-11T12:57:46Z</time>
      </trkpt>
      <trkpt lat="43.72076" lon="1.23619">
        <ele>116.7</ele>
        <time>2015-11-11T12:57:47Z</time>
      </trkpt>
      <trkpt lat="43.72069" lon="1.23618">
        <ele>116.8</ele>
        <time>2015-11-11T12:57:48Z</time>
      </trkpt>
      <trkpt lat="43.72063" lon="1.23617">
        <ele>116.8</ele>
        <time>2015-11-11T12:57:49Z</time>
      </trkpt>
      <trkpt lat="43.72055" lon="1.23615">
        <ele>117</ele>
        <time>2015-11-11T12:57:50Z</time>
      </trkpt>
      <trkpt lat="43.72048" lon="1.23612">
        <ele>117.1</ele>
        <time>2015-11-11T12:57:51Z</time>
      </trkpt>
      <trkpt lat="43.72041" lon="1.23611">
        <ele>117.2</ele>
        <time>2015-11-11T12:57:52Z</time>
      </trkpt>
      <trkpt lat="43.72035" lon="1.23612">
        <ele>117.3</ele>
        <time>2015-11-11T12:57:53Z</time>
      </trkpt>
      <trkpt lat="43.72029" lon="1.23609">
        <ele>117.4</ele>
        <time>2015-11-11T12:57:54Z</time>
      </trkpt>
      <trkpt lat="43.72023" lon="1.23607">
        <ele>117.6</ele>
        <time>2015-11-11T12:57:55Z</time>
      </trkpt>
      <trkpt lat="43.72016" lon="1.23605">
        <ele>117.7</ele>
        <time>2015-11-11T12:57:56Z</time>
      </trkpt>
      <trkpt lat="43.72008" lon="1.23603">
        <ele>117.9</ele>
        <time>2015-11-11T12:57:57Z</time>
      </trkpt>
      <trkpt lat="43.72004" lon="1.23603">
        <ele>117.9</ele>
        <time>2015-11-11T12:57:58Z</time>
      </trkpt>
      <trkpt lat="43.71997" lon="1.23602">
        <ele>118.1</ele>
        <time>2015-11-11T12:57:59Z</time>
      </trkpt>
      <trkpt lat="43.7199" lon="1.23601">
        <ele>118.2</ele>
        <time>2015-11-11T12:58:00Z</time>
      </trkpt>
      <trkpt lat="43.71983" lon="1.23602">
        <ele>118.3</ele>
        <time>2015-11-11T12:58:01Z</time>
      </trkpt>
      <trkpt lat="43.71975" lon="1.23601">
        <ele>118.4</ele>
        <time>2015-11-11T12:58:02Z</time>
      </trkpt>
      <trkpt lat="43.71968" lon="1.236">
        <ele>118.5</ele>
        <time>2015-11-11T12:58:03Z</time>
      </trkpt>
      <trkpt lat="43.71962" lon="1.23597">
        <ele>118.6</ele>
        <time>2015-11-11T12:58:04Z</time>
      </trkpt>
      <trkpt lat="43.71955" lon="1.23596">
        <ele>118.6</ele>
        <time>2015-11-11T12:58:05Z</time>
      </trkpt>
      <trkpt lat="43.71947" lon="1.23595">
        <ele>118.6</ele>
        <time>2015-11-11T12:58:06Z</time>
      </trkpt>
      <trkpt lat="43.7194" lon="1.23594">
        <ele>118.5</ele>
        <time>2015-11-11T12:58:07Z</time>
      </trkpt>
      <trkpt lat="43.71933" lon="1.23592">
        <ele>118.4</ele>
        <time>2015-11-11T12:58:08Z</time>
      </trkpt>
      <trkpt lat="43.71926" lon="1.2359">
        <ele>118.4</ele>
        <time>2015-11-11T12:58:09Z</time>
      </trkpt>
      <trkpt lat="43.71919" lon="1.23587">
        <ele>118.3</ele>
        <time>2015-11-11T12:58:10Z</time>
      </trkpt>
      <trkpt lat="43.71912" lon="1.23586">
        <ele>118.2</ele>
        <time>2015-11-11T12:58:11Z</time>
      </trkpt>
      <trkpt lat="43.71907" lon="1.23587">
        <ele>118.2</ele>
        <time>2015-11-11T12:58:12Z</time>
      </trkpt>
      <trkpt lat="43.719" lon="1.23586">
        <ele>118.2</ele>
        <time>2015-11-11T12:58:13Z</time>
      </trkpt>
      <trkpt lat="43.71893" lon="1.23586">
        <ele>118.1</ele>
        <time>2015-11-11T12:58:14Z</time>
      </trkpt>
      <trkpt lat="43.71885" lon="1.23583">
        <ele>118.1</ele>
        <time>2015-11-11T12:58:15Z</time>
      </trkpt>
      <trkpt lat="43.71879" lon="1.23582">
        <ele>118</ele>
        <time>2015-11-11T12:58:16Z</time>
      </trkpt>
      <trkpt lat="43.71872" lon="1.23581">
        <ele>118</ele>
        <time>2015-11-11T12:58:17Z</time>
      </trkpt>
      <trkpt lat="43.71866" lon="1.23581">
        <ele>117.9</ele>
        <time>2015-11-11T12:58:18Z</time>
      </trkpt>
      <trkpt lat="43.71858" lon="1.23581">
        <ele>117.9</ele>
        <time>2015-11-11T12:58:19Z</time>
      </trkpt>
      <trkpt lat="43.71851" lon="1.23579">
        <ele>117.8</ele>
        <time>2015-11-11T12:58:20Z</time>
      </trkpt>
      <trkpt lat="43.71843" lon="1.23579">
        <ele>117.8</ele>
        <time>2015-11-11T12:58:21Z</time>
      </trkpt>
      <trkpt lat="43.71836" lon="1.23578">
        <ele>117.7</ele>
        <time>2015-11-11T12:58:22Z</time>
      </trkpt>
      <trkpt lat="43.71829" lon="1.23578">
        <ele>117.7</ele>
        <time>2015-11-11T12:58:23Z</time>
      </trkpt>
      <trkpt lat="43.71822" lon="1.23577">
        <ele>117.6</ele>
        <time>2015-11-11T12:58:24Z</time>
      </trkpt>
      <trkpt lat="43.71816" lon="1.23574">
        <ele>117.6</ele>
        <time>2015-11-11T12:58:25Z</time>
      </trkpt>
      <trkpt lat="43.71809" lon="1.23572">
        <ele>117.5</ele>
        <time>2015-11-11T12:58:26Z</time>
      </trkpt>
      <trkpt lat="43.71802" lon="1.23568">
        <ele>117.4</ele>
        <time>2015-11-11T12:58:27Z</time>
      </trkpt>
      <trkpt lat="43.71795" lon="1.23566">
        <ele>117.3</ele>
        <time>2015-11-11T12:58:28Z</time>
      </trkpt>
      <trkpt lat="43.71789" lon="1.23566">
        <ele>117.4</ele>
        <time>2015-11-11T12:58:29Z</time>
      </trkpt>
      <trkpt lat="43.71785" lon="1.23561">
        <ele>117.5</ele>
        <time>2015-11-11T12:58:30Z</time>
      </trkpt>
      <trkpt lat="43.71778" lon="1.2356">
        <ele>117.8</ele>
        <time>2015-11-11T12:58:31Z</time>
      </trkpt>
      <trkpt lat="43.71771" lon="1.23558">
        <ele>118.1</ele>
        <time>2015-11-11T12:58:32Z</time>
      </trkpt>
      <trkpt lat="43.71764" lon="1.23553">
        <ele>118.4</ele>
        <time>2015-11-11T12:58:33Z</time>
      </trkpt>
      <trkpt lat="43.71759" lon="1.2355">
        <ele>118.6</ele>
        <time>2015-11-11T12:58:34Z</time>
      </trkpt>
      <trkpt lat="43.71755" lon="1.23544">
        <ele>118.8</ele>
        <time>2015-11-11T12:58:35Z</time>
      </trkpt>
      <trkpt lat="43.71748" lon="1.23541">
        <ele>119.1</ele>
        <time>2015-11-11T12:58:36Z</time>
      </trkpt>
      <trkpt lat="43.71743" lon="1.23538">
        <ele>119.4</ele>
        <time>2015-11-11T12:58:37Z</time>
      </trkpt>
      <trkpt lat="43.71736" lon="1.23535">
        <ele>119.9</ele>
        <time>2015-11-11T12:58:38Z</time>
      </trkpt>
      <trkpt lat="43.71729" lon="1.23532">
        <ele>120.3</ele>
        <time>2015-11-11T12:58:39Z</time>
      </trkpt>
      <trkpt lat="43.71721" lon="1.23527">
        <ele>120.8</ele>
        <time>2015-11-11T12:58:40Z</time>
      </trkpt>
      <trkpt lat="43.71714" lon="1.23521">
        <ele>121.2</ele>
        <time>2015-11-11T12:58:41Z</time>
      </trkpt>
      <trkpt lat="43.71707" lon="1.23517">
        <ele>121.6</ele>
        <time>2015-11-11T12:58:42Z</time>
      </trkpt>
      <trkpt lat="43.71701" lon="1.23512">
        <ele>121.8</ele>
        <time>2015-11-11T12:58:43Z</time>
      </trkpt>
      <trkpt lat="43.71695" lon="1.23509">
        <ele>121.9</ele>
        <time>2015-11-11T12:58:44Z</time>
      </trkpt>
      <trkpt lat="43.7169" lon="1.23504">
        <ele>122</ele>
        <time>2015-11-11T12:58:45Z</time>
      </trkpt>
      <trkpt lat="43.71684" lon="1.23499">
        <ele>122.2</ele>
        <time>2015-11-11T12:58:46Z</time>
      </trkpt>
      <trkpt lat="43.71679" lon="1.23494">
        <ele>122.2</ele>
        <time>2015-11-11T12:58:47Z</time>
      </trkpt>
      <trkpt lat="43.71673" lon="1.2349">
        <ele>122.3</ele>
        <time>2015-11-11T12:58:48Z</time>
      </trkpt>
      <trkpt lat="43.71667" lon="1.23485">
        <ele>122.3</ele>
        <time>2015-11-11T12:58:49Z</time>
      </trkpt>
      <trkpt lat="43.71661" lon="1.23479">
        <ele>122.4</ele>
        <time>2015-11-11T12:58:50Z</time>
      </trkpt>
      <trkpt lat="43.71656" lon="1.23475">
        <ele>122.3</ele>
        <time>2015-11-11T12:58:51Z</time>
      </trkpt>
      <trkpt lat="43.7165" lon="1.2347">
        <ele>122.3</ele>
        <time>2015-11-11T12:58:52Z</time>
      </trkpt>
      <trkpt lat="43.71646" lon="1.23463">
        <ele>122.3</ele>
        <time>2015-11-11T12:58:53Z</time>
      </trkpt>
      <trkpt lat="43.7164" lon="1.23458">
        <ele>122.2</ele>
        <time>2015-11-11T12:58:54Z</time>
      </trkpt>
      <trkpt lat="43.71634" lon="1.23454">
        <ele>122.3</ele>
        <time>2015-11-11T12:58:55Z</time>
      </trkpt>
      <trkpt lat="43.71627" lon="1.23449">
        <ele>122.4</ele>
        <time>2015-11-11T12:58:56Z</time>
      </trkpt>
      <trkpt lat="43.71621" lon="1.23443">
        <ele>122.5</ele>
        <time>2015-11-11T12:58:57Z</time>
      </trkpt>
      <trkpt lat="43.71615" lon="1.23439">
        <ele>122.5</ele>
        <time>2015-11-11T12:58:58Z</time>
      </trkpt>
      <trkpt lat="43.71612" lon="1.23436">
        <ele>122.6</ele>
        <time>2015-11-11T12:58:59Z</time>
      </trkpt>
      <trkpt lat="43.71605" lon="1.23431">
        <ele>122.7</ele>
        <time>2015-11-11T12:59:00Z</time>
      </trkpt>
      <trkpt lat="43.71599" lon="1.23428">
        <ele>122.7</ele>
        <time>2015-11-11T12:59:01Z</time>
      </trkpt>
      <trkpt lat="43.71594" lon="1.23422">
        <ele>122.8</ele>
        <time>2015-11-11T12:59:02Z</time>
      </trkpt>
      <trkpt lat="43.71588" lon="1.23418">
        <ele>122.8</ele>
        <time>2015-11-11T12:59:03Z</time>
      </trkpt>
      <trkpt lat="43.71583" lon="1.23414">
        <ele>122.8</ele>
        <time>2015-11-11T12:59:04Z</time>
      </trkpt>
      <trkpt lat="43.71577" lon="1.23409">
        <ele>122.9</ele>
        <time>2015-11-11T12:59:05Z</time>
      </trkpt>
      <trkpt lat="43.71573" lon="1.23407">
        <ele>122.8</ele>
        <time>2015-11-11T12:59:06Z</time>
      </trkpt>
      <trkpt lat="43.71568" lon="1.23402">
        <ele>122.9</ele>
        <time>2015-11-11T12:59:07Z</time>
      </trkpt>
      <trkpt lat="43.71562" lon="1.23397">
        <ele>122.9</ele>
        <time>2015-11-11T12:59:08Z</time>
      </trkpt>
      <trkpt lat="43.71555" lon="1.23391">
        <ele>122.9</ele>
        <time>2015-11-11T12:59:09Z</time>
      </trkpt>
      <trkpt lat="43.71549" lon="1.23385">
        <ele>122.9</ele>
        <time>2015-11-11T12:59:10Z</time>
      </trkpt>
      <trkpt lat="43.71544" lon="1.23381">
        <ele>122.9</ele>
        <time>2015-11-11T12:59:11Z</time>
      </trkpt>
      <trkpt lat="43.71538" lon="1.23376">
        <ele>122.9</ele>
        <time>2015-11-11T12:59:12Z</time>
      </trkpt>
      <trkpt lat="43.71532" lon="1.23372">
        <ele>123</ele>
        <time>2015-11-11T12:59:13Z</time>
      </trkpt>
      <trkpt lat="43.71526" lon="1.23368">
        <ele>123.1</ele>
        <time>2015-11-11T12:59:14Z</time>
      </trkpt>
      <trkpt lat="43.7152" lon="1.23363">
        <ele>123.2</ele>
        <time>2015-11-11T12:59:15Z</time>
      </trkpt>
      <trkpt lat="43.71514" lon="1.23359">
        <ele>123.2</ele>
        <time>2015-11-11T12:59:16Z</time>
      </trkpt>
      <trkpt lat="43.71508" lon="1.23355">
        <ele>123.3</ele>
        <time>2015-11-11T12:59:17Z</time>
      </trkpt>
      <trkpt lat="43.71502" lon="1.2335">
        <ele>123.3</ele>
        <time>2015-11-11T12:59:18Z</time>
      </trkpt>
      <trkpt lat="43.71495" lon="1.23346">
        <ele>123.3</ele>
        <time>2015-11-11T12:59:19Z</time>
      </trkpt>
      <trkpt lat="43.7149" lon="1.23341">
        <ele>123.2</ele>
        <time>2015-11-11T12:59:20Z</time>
      </trkpt>
      <trkpt lat="43.71485" lon="1.23337">
        <ele>123.2</ele>
        <time>2015-11-11T12:59:21Z</time>
      </trkpt>
      <trkpt lat="43.71478" lon="1.23331">
        <ele>123.1</ele>
        <time>2015-11-11T12:59:22Z</time>
      </trkpt>
      <trkpt lat="43.71472" lon="1.23326">
        <ele>123</ele>
        <time>2015-11-11T12:59:23Z</time>
      </trkpt>
      <trkpt lat="43.71466" lon="1.23322">
        <ele>122.9</ele>
        <time>2015-11-11T12:59:24Z</time>
      </trkpt>
      <trkpt lat="43.7146" lon="1.23318">
        <ele>122.7</ele>
        <time>2015-11-11T12:59:25Z</time>
      </trkpt>
      <trkpt lat="43.71453" lon="1.23312">
        <ele>122.7</ele>
        <time>2015-11-11T12:59:26Z</time>
      </trkpt>
      <trkpt lat="43.71446" lon="1.23307">
        <ele>122.7</ele>
        <time>2015-11-11T12:59:27Z</time>
      </trkpt>
      <trkpt lat="43.7144" lon="1.23302">
        <ele>122.7</ele>
        <time>2015-11-11T12:59:28Z</time>
      </trkpt>
      <trkpt lat="43.71435" lon="1.23297">
        <ele>122.7</ele>
        <time>2015-11-11T12:59:29Z</time>
      </trkpt>
      <trkpt lat="43.71429" lon="1.23293">
        <ele>122.6</ele>
        <time>2015-11-11T12:59:30Z</time>
      </trkpt>
      <trkpt lat="43.71423" lon="1.23288">
        <ele>122.7</ele>
        <time>2015-11-11T12:59:31Z</time>
      </trkpt>
      <trkpt lat="43.71417" lon="1.23283">
        <ele>122.7</ele>
        <time>2015-11-11T12:59:32Z</time>
      </trkpt>
      <trkpt lat="43.71411" lon="1.23278">
        <ele>122.7</ele>
        <time>2015-11-11T12:59:33Z</time>
      </trkpt>
      <trkpt lat="43.71404" lon="1.23273">
        <ele>122.7</ele>
        <time>2015-11-11T12:59:34Z</time>
      </trkpt>
      <trkpt lat="43.71399" lon="1.23267">
        <ele>122.7</ele>
        <time>2015-11-11T12:59:35Z</time>
      </trkpt>
      <trkpt lat="43.71393" lon="1.23262">
        <ele>122.6</ele>
        <time>2015-11-11T12:59:36Z</time>
      </trkpt>
      <trkpt lat="43.71386" lon="1.23257">
        <ele>122.6</ele>
        <time>2015-11-11T12:59:37Z</time>
      </trkpt>
      <trkpt lat="43.7138" lon="1.23252">
        <ele>122.6</ele>
        <time>2015-11-11T12:59:38Z</time>
      </trkpt>
      <trkpt lat="43.71373" lon="1.23247">
        <ele>122.5</ele>
        <time>2015-11-11T12:59:39Z</time>
      </trkpt>
      <trkpt lat="43.71367" lon="1.23241">
        <ele>122.4</ele>
        <time>2015-11-11T12:59:40Z</time>
      </trkpt>
      <trkpt lat="43.71361" lon="1.23236">
        <ele>122.3</ele>
        <time>2015-11-11T12:59:41Z</time>
      </trkpt>
      <trkpt lat="43.71355" lon="1.2323">
        <ele>122.2</ele>
        <time>2015-11-11T12:59:42Z</time>
      </trkpt>
      <trkpt lat="43.71349" lon="1.23226">
        <ele>122.1</ele>
        <time>2015-11-11T12:59:43Z</time>
      </trkpt>
      <trkpt lat="43.71344" lon="1.23221">
        <ele>121.9</ele>
        <time>2015-11-11T12:59:44Z</time>
      </trkpt>
      <trkpt lat="43.71338" lon="1.23214">
        <ele>121.7</ele>
        <time>2015-11-11T12:59:45Z</time>
      </trkpt>
      <trkpt lat="43.71332" lon="1.23208">
        <ele>121.5</ele>
        <time>2015-11-11T12:59:46Z</time>
      </trkpt>
      <trkpt lat="43.71327" lon="1.23202">
        <ele>121.3</ele>
        <time>2015-11-11T12:59:47Z</time>
      </trkpt>
      <trkpt lat="43.71321" lon="1.23195">
        <ele>121.1</ele>
        <time>2015-11-11T12:59:48Z</time>
      </trkpt>
      <trkpt lat="43.71316" lon="1.23188">
        <ele>121</ele>
        <time>2015-11-11T12:59:49Z</time>
      </trkpt>
      <trkpt lat="43.71312" lon="1.23181">
        <ele>120.8</ele>
        <time>2015-11-11T12:59:50Z</time>
      </trkpt>
      <trkpt lat="43.71307" lon="1.23174">
        <ele>120.6</ele>
        <time>2015-11-11T12:59:51Z</time>
      </trkpt>
      <trkpt lat="43.71304" lon="1.23167">
        <ele>120.5</ele>
        <time>2015-11-11T12:59:52Z</time>
      </trkpt>
      <trkpt lat="43.71299" lon="1.2316">
        <ele>120.3</ele>
        <time>2015-11-11T12:59:53Z</time>
      </trkpt>
      <trkpt lat="43.71294" lon="1.23152">
        <ele>120.1</ele>
        <time>2015-11-11T12:59:54Z</time>
      </trkpt>
      <trkpt lat="43.71289" lon="1.23144">
        <ele>120</ele>
        <time>2015-11-11T12:59:55Z</time>
      </trkpt>
      <trkpt lat="43.71286" lon="1.23137">
        <ele>119.9</ele>
        <time>2015-11-11T12:59:56Z</time>
      </trkpt>
      <trkpt lat="43.7128" lon="1.23129">
        <ele>119.9</ele>
        <time>2015-11-11T12:59:57Z</time>
      </trkpt>
      <trkpt lat="43.71276" lon="1.23122">
        <ele>120</ele>
        <time>2015-11-11T12:59:58Z</time>
      </trkpt>
      <trkpt lat="43.71272" lon="1.23112">
        <ele>120.3</ele>
        <time>2015-11-11T12:59:59Z</time>
      </trkpt>
      <trkpt lat="43.71268" lon="1.23105">
        <ele>120.5</ele>
        <time>2015-11-11T13:00:00Z</time>
      </trkpt>
      <trkpt lat="43.71263" lon="1.23097">
        <ele>120.6</ele>
        <time>2015-11-11T13:00:01Z</time>
      </trkpt>
      <trkpt lat="43.71259" lon="1.2309">
        <ele>120.8</ele>
        <time>2015-11-11T13:00:02Z</time>
      </trkpt>
      <trkpt lat="43.71255" lon="1.23083">
        <ele>120.9</ele>
        <time>2015-11-11T13:00:03Z</time>
      </trkpt>
      <trkpt lat="43.71249" lon="1.23076">
        <ele>120.9</ele>
        <time>2015-11-11T13:00:04Z</time>
      </trkpt>
      <trkpt lat="43.71247" lon="1.23068">
        <ele>121.1</ele>
        <time>2015-11-11T13:00:05Z</time>
      </trkpt>
      <trkpt lat="43.71243" lon="1.23059">
        <ele>121.2</ele>
        <time>2015-11-11T13:00:06Z</time>
      </trkpt>
      <trkpt lat="43.71238" lon="1.23051">
        <ele>121.2</ele>
        <time>2015-11-11T13:00:07Z</time>
      </trkpt>
      <trkpt lat="43.71235" lon="1.23046">
        <ele>121.2</ele>
        <time>2015-11-11T13:00:08Z</time>
      </trkpt>
      <trkpt lat="43.71231" lon="1.23038">
        <ele>121.2</ele>
        <time>2015-11-11T13:00:09Z</time>
      </trkpt>
      <trkpt lat="43.71227" lon="1.2303">
        <ele>121.1</ele>
        <time>2015-11-11T13:00:10Z</time>
      </trkpt>
      <trkpt lat="43.71222" lon="1.23021">
        <ele>121</ele>
        <time>2015-11-11T13:00:11Z</time>
      </trkpt>
      <trkpt lat="43.71217" lon="1.23012">
        <ele>120.9</ele>
        <time>2015-11-11T13:00:12Z</time>
      </trkpt>
      <trkpt lat="43.71214" lon="1.23005">
        <ele>120.7</ele>
        <time>2015-11-11T13:00:13Z</time>
      </trkpt>
      <trkpt lat="43.71209" lon="1.22997">
        <ele>120.6</ele>
        <time>2015-11-11T13:00:14Z</time>
      </trkpt>
      <trkpt lat="43.71203" lon="1.22988">
        <ele>120.7</ele>
        <time>2015-11-11T13:00:15Z</time>
      </trkpt>
      <trkpt lat="43.71199" lon="1.22981">
        <ele>120.8</ele>
        <time>2015-11-11T13:00:16Z</time>
      </trkpt>
      <trkpt lat="43.71195" lon="1.22974">
        <ele>120.8</ele>
        <time>2015-11-11T13:00:17Z</time>
      </trkpt>
      <trkpt lat="43.7119" lon="1.22966">
        <ele>120.9</ele>
        <time>2015-11-11T13:00:18Z</time>
      </trkpt>
      <trkpt lat="43.71188" lon="1.22958">
        <ele>121</ele>
        <time>2015-11-11T13:00:19Z</time>
      </trkpt>
      <trkpt lat="43.71183" lon="1.2295">
        <ele>121.4</ele>
        <time>2015-11-11T13:00:20Z</time>
      </trkpt>
      <trkpt lat="43.71178" lon="1.22942">
        <ele>121.6</ele>
        <time>2015-11-11T13:00:21Z</time>
      </trkpt>
      <trkpt lat="43.7118" lon="1.22937">
        <ele>121.9</ele>
        <time>2015-11-11T13:00:22Z</time>
      </trkpt>
      <trkpt lat="43.71179" lon="1.22931">
        <ele>122.1</ele>
        <time>2015-11-11T13:00:23Z</time>
      </trkpt>
      <trkpt lat="43.71176" lon="1.22924">
        <ele>122.3</ele>
        <time>2015-11-11T13:00:24Z</time>
      </trkpt>
      <trkpt lat="43.7117" lon="1.22913">
        <ele>122.7</ele>
        <time>2015-11-11T13:00:25Z</time>
      </trkpt>
      <trkpt lat="43.71163" lon="1.22906">
        <ele>122.8</ele>
        <time>2015-11-11T13:00:26Z</time>
      </trkpt>
      <trkpt lat="43.71156" lon="1.22898">
        <ele>123</ele>
        <time>2015-11-11T13:00:27Z</time>
      </trkpt>
      <trkpt lat="43.71151" lon="1.22892">
        <ele>123.1</ele>
        <time>2015-11-11T13:00:28Z</time>
      </trkpt>
      <trkpt lat="43.71147" lon="1.22887">
        <ele>123.1</ele>
        <time>2015-11-11T13:00:29Z</time>
      </trkpt>
      <trkpt lat="43.71141" lon="1.22882">
        <ele>123.2</ele>
        <time>2015-11-11T13:00:30Z</time>
      </trkpt>
      <trkpt lat="43.71136" lon="1.2288">
        <ele>123.1</ele>
        <time>2015-11-11T13:00:31Z</time>
      </trkpt>
      <trkpt lat="43.71129" lon="1.22874">
        <ele>123.2</ele>
        <time>2015-11-11T13:00:32Z</time>
      </trkpt>
      <trkpt lat="43.71122" lon="1.22869">
        <ele>123.3</ele>
        <time>2015-11-11T13:00:33Z</time>
      </trkpt>
      <trkpt lat="43.71116" lon="1.22867">
        <ele>123.4</ele>
        <time>2015-11-11T13:00:34Z</time>
      </trkpt>
      <trkpt lat="43.71109" lon="1.22862">
        <ele>123.6</ele>
        <time>2015-11-11T13:00:35Z</time>
      </trkpt>
      <trkpt lat="43.71102" lon="1.22859">
        <ele>123.8</ele>
        <time>2015-11-11T13:00:36Z</time>
      </trkpt>
      <trkpt lat="43.71094" lon="1.22853">
        <ele>124.2</ele>
        <time>2015-11-11T13:00:37Z</time>
      </trkpt>
      <trkpt lat="43.71087" lon="1.22848">
        <ele>124.5</ele>
        <time>2015-11-11T13:00:38Z</time>
      </trkpt>
      <trkpt lat="43.71079" lon="1.22845">
        <ele>124.7</ele>
        <time>2015-11-11T13:00:39Z</time>
      </trkpt>
      <trkpt lat="43.71075" lon="1.22841">
        <ele>125</ele>
        <time>2015-11-11T13:00:40Z</time>
      </trkpt>
      <trkpt lat="43.71067" lon="1.22836">
        <ele>125.3</ele>
        <time>2015-11-11T13:00:41Z</time>
      </trkpt>
      <trkpt lat="43.71061" lon="1.22833">
        <ele>125.5</ele>
        <time>2015-11-11T13:00:42Z</time>
      </trkpt>
      <trkpt lat="43.71053" lon="1.22829">
        <ele>125.8</ele>
        <time>2015-11-11T13:00:43Z</time>
      </trkpt>
      <trkpt lat="43.71046" lon="1.22823">
        <ele>126.3</ele>
        <time>2015-11-11T13:00:44Z</time>
      </trkpt>
      <trkpt lat="43.71041" lon="1.22819">
        <ele>126.7</ele>
        <time>2015-11-11T13:00:45Z</time>
      </trkpt>
      <trkpt lat="43.71037" lon="1.22815">
        <ele>127.2</ele>
        <time>2015-11-11T13:00:46Z</time>
      </trkpt>
      <trkpt lat="43.71031" lon="1.2281">
        <ele>127.7</ele>
        <time>2015-11-11T13:00:47Z</time>
      </trkpt>
      <trkpt lat="43.71025" lon="1.22806">
        <ele>128.1</ele>
        <time>2015-11-11T13:00:48Z</time>
      </trkpt>
      <trkpt lat="43.71018" lon="1.22803">
        <ele>128.5</ele>
        <time>2015-11-11T13:00:49Z</time>
      </trkpt>
      <trkpt lat="43.71011" lon="1.228">
        <ele>128.9</ele>
        <time>2015-11-11T13:00:50Z</time>
      </trkpt>
      <trkpt lat="43.71005" lon="1.22798">
        <ele>129.3</ele>
        <time>2015-11-11T13:00:51Z</time>
      </trkpt>
      <trkpt lat="43.70998" lon="1.22796">
        <ele>129.6</ele>
        <time>2015-11-11T13:00:52Z</time>
      </trkpt>
      <trkpt lat="43.70991" lon="1.22794">
        <ele>130</ele>
        <time>2015-11-11T13:00:53Z</time>
      </trkpt>
      <trkpt lat="43.70984" lon="1.22793">
        <ele>130.3</ele>
        <time>2015-11-11T13:00:54Z</time>
      </trkpt>
      <trkpt lat="43.70978" lon="1.22792">
        <ele>130.5</ele>
        <time>2015-11-11T13:00:55Z</time>
      </trkpt>
      <trkpt lat="43.70971" lon="1.22794">
        <ele>130.5</ele>
        <time>2015-11-11T13:00:56Z</time>
      </trkpt>
      <trkpt lat="43.70965" lon="1.22794">
        <ele>130.6</ele>
        <time>2015-11-11T13:00:57Z</time>
      </trkpt>
      <trkpt lat="43.70959" lon="1.22793">
        <ele>130.9</ele>
        <time>2015-11-11T13:00:58Z</time>
      </trkpt>
      <trkpt lat="43.70952" lon="1.22793">
        <ele>130.7</ele>
        <time>2015-11-11T13:00:59Z</time>
      </trkpt>
      <trkpt lat="43.70943" lon="1.22794">
        <ele>130.4</ele>
        <time>2015-11-11T13:01:00Z</time>
      </trkpt>
      <trkpt lat="43.70935" lon="1.22795">
        <ele>130.1</ele>
        <time>2015-11-11T13:01:01Z</time>
      </trkpt>
      <trkpt lat="43.70928" lon="1.22796">
        <ele>129.9</ele>
        <time>2015-11-11T13:01:02Z</time>
      </trkpt>
      <trkpt lat="43.70922" lon="1.22796">
        <ele>129.7</ele>
        <time>2015-11-11T13:01:03Z</time>
      </trkpt>
      <trkpt lat="43.70914" lon="1.22796">
        <ele>129.6</ele>
        <time>2015-11-11T13:01:04Z</time>
      </trkpt>
      <trkpt lat="43.70906" lon="1.22795">
        <ele>129.5</ele>
        <time>2015-11-11T13:01:05Z</time>
      </trkpt>
      <trkpt lat="43.70899" lon="1.22795">
        <ele>129.3</ele>
        <time>2015-11-11T13:01:06Z</time>
      </trkpt>
      <trkpt lat="43.70892" lon="1.22795">
        <ele>129.1</ele>
        <time>2015-11-11T13:01:07Z</time>
      </trkpt>
      <trkpt lat="43.70884" lon="1.22796">
        <ele>128.9</ele>
        <time>2015-11-11T13:01:08Z</time>
      </trkpt>
      <trkpt lat="43.70876" lon="1.22795">
        <ele>128.8</ele>
        <time>2015-11-11T13:01:09Z</time>
      </trkpt>
      <trkpt lat="43.70869" lon="1.22795">
        <ele>128.6</ele>
        <time>2015-11-11T13:01:10Z</time>
      </trkpt>
      <trkpt lat="43.70861" lon="1.22795">
        <ele>128.4</ele>
        <time>2015-11-11T13:01:11Z</time>
      </trkpt>
      <trkpt lat="43.70853" lon="1.22795">
        <ele>128.2</ele>
        <time>2015-11-11T13:01:12Z</time>
      </trkpt>
      <trkpt lat="43.70846" lon="1.22795">
        <ele>128.1</ele>
        <time>2015-11-11T13:01:13Z</time>
      </trkpt>
      <trkpt lat="43.70841" lon="1.22789">
        <ele>128.4</ele>
        <time>2015-11-11T13:01:14Z</time>
      </trkpt>
      <trkpt lat="43.70835" lon="1.22788">
        <ele>128.3</ele>
        <time>2015-11-11T13:01:15Z</time>
      </trkpt>
      <trkpt lat="43.70827" lon="1.22788">
        <ele>128.1</ele>
        <time>2015-11-11T13:01:16Z</time>
      </trkpt>
      <trkpt lat="43.7082" lon="1.22789">
        <ele>127.9</ele>
        <time>2015-11-11T13:01:17Z</time>
      </trkpt>
      <trkpt lat="43.70813" lon="1.22788">
        <ele>127.8</ele>
        <time>2015-11-11T13:01:18Z</time>
      </trkpt>
      <trkpt lat="43.70806" lon="1.2279">
        <ele>127.4</ele>
        <time>2015-11-11T13:01:19Z</time>
      </trkpt>
      <trkpt lat="43.70799" lon="1.22788">
        <ele>127.4</ele>
        <time>2015-11-11T13:01:20Z</time>
      </trkpt>
      <trkpt lat="43.70792" lon="1.22788">
        <ele>127.2</ele>
        <time>2015-11-11T13:01:21Z</time>
      </trkpt>
      <trkpt lat="43.70785" lon="1.22786">
        <ele>127.2</ele>
        <time>2015-11-11T13:01:22Z</time>
      </trkpt>
      <trkpt lat="43.70777" lon="1.22786">
        <ele>127.2</ele>
        <time>2015-11-11T13:01:23Z</time>
      </trkpt>
      <trkpt lat="43.70769" lon="1.22788">
        <ele>126.9</ele>
        <time>2015-11-11T13:01:24Z</time>
      </trkpt>
      <trkpt lat="43.7076" lon="1.2279">
        <ele>126.7</ele>
        <time>2015-11-11T13:01:25Z</time>
      </trkpt>
      <trkpt lat="43.70753" lon="1.2279">
        <ele>126.6</ele>
        <time>2015-11-11T13:01:26Z</time>
      </trkpt>
      <trkpt lat="43.70747" lon="1.22788">
        <ele>126.6</ele>
        <time>2015-11-11T13:01:27Z</time>
      </trkpt>
      <trkpt lat="43.70741" lon="1.22789">
        <ele>126.5</ele>
        <time>2015-11-11T13:01:28Z</time>
      </trkpt>
      <trkpt lat="43.70735" lon="1.2279">
        <ele>126.4</ele>
        <time>2015-11-11T13:01:29Z</time>
      </trkpt>
      <trkpt lat="43.70727" lon="1.2279">
        <ele>126.3</ele>
        <time>2015-11-11T13:01:30Z</time>
      </trkpt>
      <trkpt lat="43.70719" lon="1.22792">
        <ele>126.1</ele>
        <time>2015-11-11T13:01:31Z</time>
      </trkpt>
      <trkpt lat="43.70711" lon="1.22794">
        <ele>125.9</ele>
        <time>2015-11-11T13:01:32Z</time>
      </trkpt>
      <trkpt lat="43.70704" lon="1.22796">
        <ele>125.9</ele>
        <time>2015-11-11T13:01:33Z</time>
      </trkpt>
      <trkpt lat="43.70697" lon="1.22795">
        <ele>126</ele>
        <time>2015-11-11T13:01:34Z</time>
      </trkpt>
      <trkpt lat="43.7069" lon="1.22793">
        <ele>126.1</ele>
        <time>2015-11-11T13:01:35Z</time>
      </trkpt>
      <trkpt lat="43.70682" lon="1.22793">
        <ele>126.2</ele>
        <time>2015-11-11T13:01:36Z</time>
      </trkpt>
      <trkpt lat="43.70675" lon="1.22794">
        <ele>126.3</ele>
        <time>2015-11-11T13:01:37Z</time>
      </trkpt>
      <trkpt lat="43.70667" lon="1.22793">
        <ele>126.4</ele>
        <time>2015-11-11T13:01:38Z</time>
      </trkpt>
      <trkpt lat="43.7066" lon="1.22793">
        <ele>126.5</ele>
        <time>2015-11-11T13:01:39Z</time>
      </trkpt>
      <trkpt lat="43.70654" lon="1.22792">
        <ele>126.7</ele>
        <time>2015-11-11T13:01:40Z</time>
      </trkpt>
      <trkpt lat="43.70648" lon="1.22792">
        <ele>126.7</ele>
        <time>2015-11-11T13:01:41Z</time>
      </trkpt>
      <trkpt lat="43.7064" lon="1.22793">
        <ele>126.7</ele>
        <time>2015-11-11T13:01:42Z</time>
      </trkpt>
      <trkpt lat="43.70631" lon="1.22795">
        <ele>126.8</ele>
        <time>2015-11-11T13:01:43Z</time>
      </trkpt>
      <trkpt lat="43.70622" lon="1.22796">
        <ele>126.7</ele>
        <time>2015-11-11T13:01:44Z</time>
      </trkpt>
      <trkpt lat="43.70617" lon="1.22794">
        <ele>126.7</ele>
        <time>2015-11-11T13:01:45Z</time>
      </trkpt>
      <trkpt lat="43.70609" lon="1.22795">
        <ele>126.5</ele>
        <time>2015-11-11T13:01:46Z</time>
      </trkpt>
      <trkpt lat="43.70602" lon="1.22796">
        <ele>126.2</ele>
        <time>2015-11-11T13:01:47Z</time>
      </trkpt>
      <trkpt lat="43.70595" lon="1.22797">
        <ele>126</ele>
        <time>2015-11-11T13:01:48Z</time>
      </trkpt>
      <trkpt lat="43.70586" lon="1.228">
        <ele>125.7</ele>
        <time>2015-11-11T13:01:49Z</time>
      </trkpt>
      <trkpt lat="43.70578" lon="1.22802">
        <ele>125.5</ele>
        <time>2015-11-11T13:01:50Z</time>
      </trkpt>
      <trkpt lat="43.7057" lon="1.22802">
        <ele>125.3</ele>
        <time>2015-11-11T13:01:51Z</time>
      </trkpt>
      <trkpt lat="43.70562" lon="1.22804">
        <ele>125</ele>
        <time>2015-11-11T13:01:52Z</time>
      </trkpt>
      <trkpt lat="43.70554" lon="1.22804">
        <ele>124.8</ele>
        <time>2015-11-11T13:01:53Z</time>
      </trkpt>
      <trkpt lat="43.70546" lon="1.22804">
        <ele>124.6</ele>
        <time>2015-11-11T13:01:54Z</time>
      </trkpt>
      <trkpt lat="43.70539" lon="1.22804">
        <ele>124.6</ele>
        <time>2015-11-11T13:01:55Z</time>
      </trkpt>
      <trkpt lat="43.70532" lon="1.22804">
        <ele>124.5</ele>
        <time>2015-11-11T13:01:56Z</time>
      </trkpt>
      <trkpt lat="43.70524" lon="1.22806">
        <ele>124.5</ele>
        <time>2015-11-11T13:01:57Z</time>
      </trkpt>
      <trkpt lat="43.7052" lon="1.22804">
        <ele>124.6</ele>
        <time>2015-11-11T13:01:58Z</time>
      </trkpt>
      <trkpt lat="43.70512" lon="1.22805">
        <ele>124.5</ele>
        <time>2015-11-11T13:01:59Z</time>
      </trkpt>
      <trkpt lat="43.70505" lon="1.22805">
        <ele>124.5</ele>
        <time>2015-11-11T13:02:00Z</time>
      </trkpt>
      <trkpt lat="43.70497" lon="1.22806">
        <ele>124.5</ele>
        <time>2015-11-11T13:02:01Z</time>
      </trkpt>
      <trkpt lat="43.70491" lon="1.22806">
        <ele>124.5</ele>
        <time>2015-11-11T13:02:02Z</time>
      </trkpt>
      <trkpt lat="43.70482" lon="1.22808">
        <ele>124.4</ele>
        <time>2015-11-11T13:02:03Z</time>
      </trkpt>
      <trkpt lat="43.70476" lon="1.22806">
        <ele>124.5</ele>
        <time>2015-11-11T13:02:04Z</time>
      </trkpt>
      <trkpt lat="43.70468" lon="1.22807">
        <ele>124.5</ele>
        <time>2015-11-11T13:02:05Z</time>
      </trkpt>
      <trkpt lat="43.70462" lon="1.22806">
        <ele>124.5</ele>
        <time>2015-11-11T13:02:06Z</time>
      </trkpt>
      <trkpt lat="43.70456" lon="1.22802">
        <ele>124.6</ele>
        <time>2015-11-11T13:02:07Z</time>
      </trkpt>
      <trkpt lat="43.7045" lon="1.22805">
        <ele>124.5</ele>
        <time>2015-11-11T13:02:08Z</time>
      </trkpt>
      <trkpt lat="43.70442" lon="1.22804">
        <ele>124.4</ele>
        <time>2015-11-11T13:02:09Z</time>
      </trkpt>
      <trkpt lat="43.70434" lon="1.22801">
        <ele>124.4</ele>
        <time>2015-11-11T13:02:10Z</time>
      </trkpt>
      <trkpt lat="43.70428" lon="1.228">
        <ele>124.4</ele>
        <time>2015-11-11T13:02:11Z</time>
      </trkpt>
      <trkpt lat="43.70422" lon="1.22799">
        <ele>124.4</ele>
        <time>2015-11-11T13:02:12Z</time>
      </trkpt>
      <trkpt lat="43.70416" lon="1.22796">
        <ele>124.4</ele>
        <time>2015-11-11T13:02:13Z</time>
      </trkpt>
      <trkpt lat="43.70409" lon="1.22794">
        <ele>124.4</ele>
        <time>2015-11-11T13:02:14Z</time>
      </trkpt>
      <trkpt lat="43.70403" lon="1.22792">
        <ele>124.3</ele>
        <time>2015-11-11T13:02:15Z</time>
      </trkpt>
      <trkpt lat="43.70397" lon="1.2279">
        <ele>124.3</ele>
        <time>2015-11-11T13:02:16Z</time>
      </trkpt>
      <trkpt lat="43.70391" lon="1.22789">
        <ele>124.2</ele>
        <time>2015-11-11T13:02:17Z</time>
      </trkpt>
      <trkpt lat="43.70385" lon="1.22789">
        <ele>124.2</ele>
        <time>2015-11-11T13:02:18Z</time>
      </trkpt>
      <trkpt lat="43.70378" lon="1.22786">
        <ele>124.1</ele>
        <time>2015-11-11T13:02:19Z</time>
      </trkpt>
      <trkpt lat="43.70371" lon="1.2278">
        <ele>124.2</ele>
        <time>2015-11-11T13:02:20Z</time>
      </trkpt>
      <trkpt lat="43.70363" lon="1.22778">
        <ele>124.4</ele>
        <time>2015-11-11T13:02:21Z</time>
      </trkpt>
      <trkpt lat="43.70359" lon="1.22775">
        <ele>124.6</ele>
        <time>2015-11-11T13:02:22Z</time>
      </trkpt>
      <trkpt lat="43.70352" lon="1.22772">
        <ele>124.8</ele>
        <time>2015-11-11T13:02:23Z</time>
      </trkpt>
      <trkpt lat="43.70344" lon="1.22771">
        <ele>125</ele>
        <time>2015-11-11T13:02:24Z</time>
      </trkpt>
      <trkpt lat="43.70337" lon="1.2277">
        <ele>125.2</ele>
        <time>2015-11-11T13:02:25Z</time>
      </trkpt>
      <trkpt lat="43.70331" lon="1.22766">
        <ele>125.4</ele>
        <time>2015-11-11T13:02:26Z</time>
      </trkpt>
      <trkpt lat="43.70324" lon="1.22765">
        <ele>125.6</ele>
        <time>2015-11-11T13:02:27Z</time>
      </trkpt>
      <trkpt lat="43.70317" lon="1.22762">
        <ele>125.8</ele>
        <time>2015-11-11T13:02:28Z</time>
      </trkpt>
      <trkpt lat="43.7031" lon="1.22759">
        <ele>126</ele>
        <time>2015-11-11T13:02:29Z</time>
      </trkpt>
      <trkpt lat="43.70301" lon="1.22757">
        <ele>126.2</ele>
        <time>2015-11-11T13:02:30Z</time>
      </trkpt>
      <trkpt lat="43.70293" lon="1.22755">
        <ele>126.4</ele>
        <time>2015-11-11T13:02:31Z</time>
      </trkpt>
      <trkpt lat="43.70286" lon="1.22753">
        <ele>126.5</ele>
        <time>2015-11-11T13:02:32Z</time>
      </trkpt>
      <trkpt lat="43.70279" lon="1.22751">
        <ele>126.5</ele>
        <time>2015-11-11T13:02:33Z</time>
      </trkpt>
      <trkpt lat="43.70273" lon="1.2275">
        <ele>126.5</ele>
        <time>2015-11-11T13:02:34Z</time>
      </trkpt>
      <trkpt lat="43.70266" lon="1.22747">
        <ele>126.5</ele>
        <time>2015-11-11T13:02:35Z</time>
      </trkpt>
      <trkpt lat="43.70258" lon="1.22745">
        <ele>126.6</ele>
        <time>2015-11-11T13:02:36Z</time>
      </trkpt>
      <trkpt lat="43.70251" lon="1.22743">
        <ele>126.6</ele>
        <time>2015-11-11T13:02:37Z</time>
      </trkpt>
      <trkpt lat="43.70245" lon="1.22741">
        <ele>126.6</ele>
        <time>2015-11-11T13:02:38Z</time>
      </trkpt>
      <trkpt lat="43.70238" lon="1.2274">
        <ele>126.6</ele>
        <time>2015-11-11T13:02:39Z</time>
      </trkpt>
      <trkpt lat="43.7023" lon="1.22738">
        <ele>126.6</ele>
        <time>2015-11-11T13:02:40Z</time>
      </trkpt>
      <trkpt lat="43.70223" lon="1.22736">
        <ele>126.7</ele>
        <time>2015-11-11T13:02:41Z</time>
      </trkpt>
      <trkpt lat="43.70216" lon="1.22736">
        <ele>126.7</ele>
        <time>2015-11-11T13:02:42Z</time>
      </trkpt>
      <trkpt lat="43.70209" lon="1.22736">
        <ele>126.7</ele>
        <time>2015-11-11T13:02:43Z</time>
      </trkpt>
      <trkpt lat="43.70202" lon="1.22734">
        <ele>126.5</ele>
        <time>2015-11-11T13:02:44Z</time>
      </trkpt>
      <trkpt lat="43.70196" lon="1.22732">
        <ele>126.4</ele>
        <time>2015-11-11T13:02:45Z</time>
      </trkpt>
      <trkpt lat="43.70189" lon="1.22731">
        <ele>126.3</ele>
        <time>2015-11-11T13:02:46Z</time>
      </trkpt>
      <trkpt lat="43.70182" lon="1.2273">
        <ele>126.1</ele>
        <time>2015-11-11T13:02:47Z</time>
      </trkpt>
      <trkpt lat="43.70175" lon="1.2273">
        <ele>125.9</ele>
        <time>2015-11-11T13:02:48Z</time>
      </trkpt>
      <trkpt lat="43.70168" lon="1.22726">
        <ele>125.8</ele>
        <time>2015-11-11T13:02:49Z</time>
      </trkpt>
      <trkpt lat="43.7016" lon="1.22724">
        <ele>125.7</ele>
        <time>2015-11-11T13:02:50Z</time>
      </trkpt>
      <trkpt lat="43.70154" lon="1.22724">
        <ele>125.5</ele>
        <time>2015-11-11T13:02:51Z</time>
      </trkpt>
      <trkpt lat="43.70148" lon="1.22724">
        <ele>125.4</ele>
        <time>2015-11-11T13:02:52Z</time>
      </trkpt>
      <trkpt lat="43.70143" lon="1.22722">
        <ele>125.3</ele>
        <time>2015-11-11T13:02:53Z</time>
      </trkpt>
      <trkpt lat="43.70136" lon="1.2272">
        <ele>125.1</ele>
        <time>2015-11-11T13:02:54Z</time>
      </trkpt>
      <trkpt lat="43.70129" lon="1.22719">
        <ele>125</ele>
        <time>2015-11-11T13:02:55Z</time>
      </trkpt>
      <trkpt lat="43.70121" lon="1.22716">
        <ele>124.8</ele>
        <time>2015-11-11T13:02:56Z</time>
      </trkpt>
      <trkpt lat="43.70115" lon="1.22714">
        <ele>124.7</ele>
        <time>2015-11-11T13:02:57Z</time>
      </trkpt>
      <trkpt lat="43.70108" lon="1.22711">
        <ele>124.6</ele>
        <time>2015-11-11T13:02:58Z</time>
      </trkpt>
      <trkpt lat="43.70101" lon="1.22707">
        <ele>124.4</ele>
        <time>2015-11-11T13:02:59Z</time>
      </trkpt>
      <trkpt lat="43.70093" lon="1.22706">
        <ele>124.2</ele>
        <time>2015-11-11T13:03:00Z</time>
      </trkpt>
      <trkpt lat="43.70086" lon="1.22705">
        <ele>124.1</ele>
        <time>2015-11-11T13:03:01Z</time>
      </trkpt>
      <trkpt lat="43.70082" lon="1.22702">
        <ele>124</ele>
        <time>2015-11-11T13:03:02Z</time>
      </trkpt>
      <trkpt lat="43.70075" lon="1.227">
        <ele>123.9</ele>
        <time>2015-11-11T13:03:03Z</time>
      </trkpt>
      <trkpt lat="43.70068" lon="1.22697">
        <ele>123.8</ele>
        <time>2015-11-11T13:03:04Z</time>
      </trkpt>
      <trkpt lat="43.70061" lon="1.22695">
        <ele>123.7</ele>
        <time>2015-11-11T13:03:05Z</time>
      </trkpt>
      <trkpt lat="43.70053" lon="1.22692">
        <ele>123.6</ele>
        <time>2015-11-11T13:03:06Z</time>
      </trkpt>
      <trkpt lat="43.70047" lon="1.22691">
        <ele>123.5</ele>
        <time>2015-11-11T13:03:07Z</time>
      </trkpt>
      <trkpt lat="43.7004" lon="1.22688">
        <ele>123.5</ele>
        <time>2015-11-11T13:03:08Z</time>
      </trkpt>
      <trkpt lat="43.70034" lon="1.22683">
        <ele>123.9</ele>
        <time>2015-11-11T13:03:09Z</time>
      </trkpt>
      <trkpt lat="43.70026" lon="1.22682">
        <ele>124.1</ele>
        <time>2015-11-11T13:03:10Z</time>
      </trkpt>
      <trkpt lat="43.70019" lon="1.2268">
        <ele>124.4</ele>
        <time>2015-11-11T13:03:11Z</time>
      </trkpt>
      <trkpt lat="43.70013" lon="1.22675">
        <ele>124.7</ele>
        <time>2015-11-11T13:03:12Z</time>
      </trkpt>
      <trkpt lat="43.70006" lon="1.22672">
        <ele>125</ele>
        <time>2015-11-11T13:03:13Z</time>
      </trkpt>
      <trkpt lat="43.69999" lon="1.22671">
        <ele>125.2</ele>
        <time>2015-11-11T13:03:14Z</time>
      </trkpt>
      <trkpt lat="43.69991" lon="1.22668">
        <ele>125.5</ele>
        <time>2015-11-11T13:03:15Z</time>
      </trkpt>
      <trkpt lat="43.69985" lon="1.22663">
        <ele>125.8</ele>
        <time>2015-11-11T13:03:16Z</time>
      </trkpt>
      <trkpt lat="43.69978" lon="1.22659">
        <ele>126</ele>
        <time>2015-11-11T13:03:17Z</time>
      </trkpt>
      <trkpt lat="43.69972" lon="1.22655">
        <ele>126.3</ele>
        <time>2015-11-11T13:03:18Z</time>
      </trkpt>
      <trkpt lat="43.69965" lon="1.22652">
        <ele>126.5</ele>
        <time>2015-11-11T13:03:19Z</time>
      </trkpt>
      <trkpt lat="43.69957" lon="1.22649">
        <ele>126.7</ele>
        <time>2015-11-11T13:03:20Z</time>
      </trkpt>
      <trkpt lat="43.69949" lon="1.22647">
        <ele>126.7</ele>
        <time>2015-11-11T13:03:21Z</time>
      </trkpt>
      <trkpt lat="43.69943" lon="1.22645">
        <ele>126.7</ele>
        <time>2015-11-11T13:03:22Z</time>
      </trkpt>
      <trkpt lat="43.69936" lon="1.22643">
        <ele>126.7</ele>
        <time>2015-11-11T13:03:23Z</time>
      </trkpt>
      <trkpt lat="43.69929" lon="1.22638">
        <ele>126.7</ele>
        <time>2015-11-11T13:03:24Z</time>
      </trkpt>
      <trkpt lat="43.69922" lon="1.22636">
        <ele>126.8</ele>
        <time>2015-11-11T13:03:25Z</time>
      </trkpt>
      <trkpt lat="43.69915" lon="1.22633">
        <ele>126.8</ele>
        <time>2015-11-11T13:03:26Z</time>
      </trkpt>
      <trkpt lat="43.69907" lon="1.22628">
        <ele>126.9</ele>
        <time>2015-11-11T13:03:27Z</time>
      </trkpt>
      <trkpt lat="43.69902" lon="1.22625">
        <ele>127</ele>
        <time>2015-11-11T13:03:28Z</time>
      </trkpt>
      <trkpt lat="43.69896" lon="1.2262">
        <ele>127</ele>
        <time>2015-11-11T13:03:29Z</time>
      </trkpt>
      <trkpt lat="43.69889" lon="1.22617">
        <ele>127</ele>
        <time>2015-11-11T13:03:30Z</time>
      </trkpt>
      <trkpt lat="43.69881" lon="1.22611">
        <ele>127</ele>
        <time>2015-11-11T13:03:31Z</time>
      </trkpt>
      <trkpt lat="43.69874" lon="1.22607">
        <ele>127</ele>
        <time>2015-11-11T13:03:32Z</time>
      </trkpt>
      <trkpt lat="43.69865" lon="1.22604">
        <ele>126.9</ele>
        <time>2015-11-11T13:03:33Z</time>
      </trkpt>
      <trkpt lat="43.69859" lon="1.22599">
        <ele>126.9</ele>
        <time>2015-11-11T13:03:34Z</time>
      </trkpt>
      <trkpt lat="43.69852" lon="1.22593">
        <ele>126.8</ele>
        <time>2015-11-11T13:03:35Z</time>
      </trkpt>
      <trkpt lat="43.69845" lon="1.2259">
        <ele>126.8</ele>
        <time>2015-11-11T13:03:36Z</time>
      </trkpt>
      <trkpt lat="43.69839" lon="1.22586">
        <ele>126.8</ele>
        <time>2015-11-11T13:03:37Z</time>
      </trkpt>
      <trkpt lat="43.69834" lon="1.22581">
        <ele>126.8</ele>
        <time>2015-11-11T13:03:38Z</time>
      </trkpt>
      <trkpt lat="43.69827" lon="1.22576">
        <ele>126.8</ele>
        <time>2015-11-11T13:03:39Z</time>
      </trkpt>
      <trkpt lat="43.69822" lon="1.22571">
        <ele>126.8</ele>
        <time>2015-11-11T13:03:40Z</time>
      </trkpt>
      <trkpt lat="43.69819" lon="1.22565">
        <ele>126.8</ele>
        <time>2015-11-11T13:03:41Z</time>
      </trkpt>
      <trkpt lat="43.69814" lon="1.22559">
        <ele>126.8</ele>
        <time>2015-11-11T13:03:42Z</time>
      </trkpt>
      <trkpt lat="43.6981" lon="1.22553">
        <ele>126.9</ele>
        <time>2015-11-11T13:03:43Z</time>
      </trkpt>
      <trkpt lat="43.69805" lon="1.22546">
        <ele>127</ele>
        <time>2015-11-11T13:03:44Z</time>
      </trkpt>
      <trkpt lat="43.69799" lon="1.2254">
        <ele>127</ele>
        <time>2015-11-11T13:03:45Z</time>
      </trkpt>
      <trkpt lat="43.69794" lon="1.22534">
        <ele>127.1</ele>
        <time>2015-11-11T13:03:46Z</time>
      </trkpt>
      <trkpt lat="43.6979" lon="1.2253">
        <ele>127.1</ele>
        <time>2015-11-11T13:03:47Z</time>
      </trkpt>
      <trkpt lat="43.69784" lon="1.22521">
        <ele>127.2</ele>
        <time>2015-11-11T13:03:48Z</time>
      </trkpt>
      <trkpt lat="43.69779" lon="1.22515">
        <ele>127.2</ele>
        <time>2015-11-11T13:03:49Z</time>
      </trkpt>
      <trkpt lat="43.69775" lon="1.2251">
        <ele>127.2</ele>
        <time>2015-11-11T13:03:50Z</time>
      </trkpt>
      <trkpt lat="43.69768" lon="1.22504">
        <ele>127.2</ele>
        <time>2015-11-11T13:03:51Z</time>
      </trkpt>
      <trkpt lat="43.69764" lon="1.22498">
        <ele>127.2</ele>
        <time>2015-11-11T13:03:52Z</time>
      </trkpt>
      <trkpt lat="43.69758" lon="1.22491">
        <ele>127.2</ele>
        <time>2015-11-11T13:03:53Z</time>
      </trkpt>
      <trkpt lat="43.69754" lon="1.22484">
        <ele>127.2</ele>
        <time>2015-11-11T13:03:54Z</time>
      </trkpt>
      <trkpt lat="43.69746" lon="1.22479">
        <ele>127.2</ele>
        <time>2015-11-11T13:03:55Z</time>
      </trkpt>
      <trkpt lat="43.69741" lon="1.22473">
        <ele>127.2</ele>
        <time>2015-11-11T13:03:56Z</time>
      </trkpt>
      <trkpt lat="43.69736" lon="1.22468">
        <ele>127.2</ele>
        <time>2015-11-11T13:03:57Z</time>
      </trkpt>
      <trkpt lat="43.6973" lon="1.22463">
        <ele>127.2</ele>
        <time>2015-11-11T13:03:58Z</time>
      </trkpt>
      <trkpt lat="43.69724" lon="1.22458">
        <ele>127.2</ele>
        <time>2015-11-11T13:03:59Z</time>
      </trkpt>
      <trkpt lat="43.69716" lon="1.22459">
        <ele>127.1</ele>
        <time>2015-11-11T13:04:00Z</time>
      </trkpt>
      <trkpt lat="43.69714" lon="1.22453">
        <ele>127.1</ele>
        <time>2015-11-11T13:04:01Z</time>
      </trkpt>
      <trkpt lat="43.69708" lon="1.22448">
        <ele>127.1</ele>
        <time>2015-11-11T13:04:02Z</time>
      </trkpt>
      <trkpt lat="43.69702" lon="1.22443">
        <ele>127.4</ele>
        <time>2015-11-11T13:04:03Z</time>
      </trkpt>
      <trkpt lat="43.69695" lon="1.22437">
        <ele>127.7</ele>
        <time>2015-11-11T13:04:04Z</time>
      </trkpt>
      <trkpt lat="43.69692" lon="1.22432">
        <ele>127.9</ele>
        <time>2015-11-11T13:04:05Z</time>
      </trkpt>
      <trkpt lat="43.69687" lon="1.22427">
        <ele>128.2</ele>
        <time>2015-11-11T13:04:06Z</time>
      </trkpt>
      <trkpt lat="43.6968" lon="1.22423">
        <ele>128.4</ele>
        <time>2015-11-11T13:04:07Z</time>
      </trkpt>
      <trkpt lat="43.69674" lon="1.22416">
        <ele>128.8</ele>
        <time>2015-11-11T13:04:08Z</time>
      </trkpt>
      <trkpt lat="43.69668" lon="1.22412">
        <ele>129</ele>
        <time>2015-11-11T13:04:09Z</time>
      </trkpt>
      <trkpt lat="43.69662" lon="1.22407">
        <ele>129.3</ele>
        <time>2015-11-11T13:04:10Z</time>
      </trkpt>
      <trkpt lat="43.69656" lon="1.22405">
        <ele>129.5</ele>
        <time>2015-11-11T13:04:11Z</time>
      </trkpt>
      <trkpt lat="43.6965" lon="1.22399">
        <ele>129.8</ele>
        <time>2015-11-11T13:04:12Z</time>
      </trkpt>
      <trkpt lat="43.69642" lon="1.22393">
        <ele>130.2</ele>
        <time>2015-11-11T13:04:13Z</time>
      </trkpt>
      <trkpt lat="43.69637" lon="1.22389">
        <ele>130.4</ele>
        <time>2015-11-11T13:04:14Z</time>
      </trkpt>
      <trkpt lat="43.69633" lon="1.22389">
        <ele>130.5</ele>
        <time>2015-11-11T13:04:15Z</time>
      </trkpt>
      <trkpt lat="43.6963" lon="1.22387">
        <ele>130.7</ele>
        <time>2015-11-11T13:04:16Z</time>
      </trkpt>
      <trkpt lat="43.69627" lon="1.22383">
        <ele>130.8</ele>
        <time>2015-11-11T13:04:17Z</time>
      </trkpt>
      <trkpt lat="43.69625" lon="1.22382">
        <ele>130.9</ele>
        <time>2015-11-11T13:04:18Z</time>
      </trkpt>
      <trkpt lat="43.6962" lon="1.22379">
        <ele>131.1</ele>
        <time>2015-11-11T13:04:19Z</time>
      </trkpt>
      <trkpt lat="43.69616" lon="1.22375">
        <ele>131.2</ele>
        <time>2015-11-11T13:04:20Z</time>
      </trkpt>
      <trkpt lat="43.69614" lon="1.22371">
        <ele>131.2</ele>
        <time>2015-11-11T13:04:21Z</time>
      </trkpt>
      <trkpt lat="43.69612" lon="1.22367">
        <ele>131.2</ele>
        <time>2015-11-11T13:04:22Z</time>
      </trkpt>
      <trkpt lat="43.69606" lon="1.22363">
        <ele>131.4</ele>
        <time>2015-11-11T13:04:23Z</time>
      </trkpt>
      <trkpt lat="43.69601" lon="1.22359">
        <ele>131.5</ele>
        <time>2015-11-11T13:04:24Z</time>
      </trkpt>
      <trkpt lat="43.69596" lon="1.22355">
        <ele>131.6</ele>
        <time>2015-11-11T13:04:25Z</time>
      </trkpt>
      <trkpt lat="43.69593" lon="1.22349">
        <ele>131.7</ele>
        <time>2015-11-11T13:04:26Z</time>
      </trkpt>
      <trkpt lat="43.69588" lon="1.22345">
        <ele>131.9</ele>
        <time>2015-11-11T13:04:27Z</time>
      </trkpt>
      <trkpt lat="43.69582" lon="1.22341">
        <ele>132</ele>
        <time>2015-11-11T13:04:28Z</time>
      </trkpt>
      <trkpt lat="43.69579" lon="1.22339">
        <ele>132.2</ele>
        <time>2015-11-11T13:04:29Z</time>
      </trkpt>
      <trkpt lat="43.69573" lon="1.22334">
        <ele>132.4</ele>
        <time>2015-11-11T13:04:30Z</time>
      </trkpt>
      <trkpt lat="43.69569" lon="1.2233">
        <ele>132.5</ele>
        <time>2015-11-11T13:04:31Z</time>
      </trkpt>
      <trkpt lat="43.69565" lon="1.22329">
        <ele>132.7</ele>
        <time>2015-11-11T13:04:32Z</time>
      </trkpt>
      <trkpt lat="43.6956" lon="1.22323">
        <ele>132.9</ele>
        <time>2015-11-11T13:04:33Z</time>
      </trkpt>
      <trkpt lat="43.69556" lon="1.22324">
        <ele>133</ele>
        <time>2015-11-11T13:04:34Z</time>
      </trkpt>
      <trkpt lat="43.6955" lon="1.22319">
        <ele>133.3</ele>
        <time>2015-11-11T13:04:35Z</time>
      </trkpt>
      <trkpt lat="43.69543" lon="1.22313">
        <ele>133.7</ele>
        <time>2015-11-11T13:04:36Z</time>
      </trkpt>
      <trkpt lat="43.69537" lon="1.22309">
        <ele>133.2</ele>
        <time>2015-11-11T13:04:37Z</time>
      </trkpt>
      <trkpt lat="43.6953" lon="1.22304">
        <ele>132.4</ele>
        <time>2015-11-11T13:04:38Z</time>
      </trkpt>
      <trkpt lat="43.69523" lon="1.223">
        <ele>131.5</ele>
        <time>2015-11-11T13:04:39Z</time>
      </trkpt>
      <trkpt lat="43.69517" lon="1.22295">
        <ele>130.8</ele>
        <time>2015-11-11T13:04:40Z</time>
      </trkpt>
      <trkpt lat="43.69511" lon="1.22288">
        <ele>129.9</ele>
        <time>2015-11-11T13:04:41Z</time>
      </trkpt>
      <trkpt lat="43.69505" lon="1.22284">
        <ele>129</ele>
        <time>2015-11-11T13:04:42Z</time>
      </trkpt>
      <trkpt lat="43.69499" lon="1.22276">
        <ele>128.1</ele>
        <time>2015-11-11T13:04:43Z</time>
      </trkpt>
      <trkpt lat="43.69495" lon="1.2227">
        <ele>127.5</ele>
        <time>2015-11-11T13:04:44Z</time>
      </trkpt>
      <trkpt lat="43.69489" lon="1.22266">
        <ele>126.8</ele>
        <time>2015-11-11T13:04:45Z</time>
      </trkpt>
      <trkpt lat="43.69484" lon="1.2226">
        <ele>126.2</ele>
        <time>2015-11-11T13:04:46Z</time>
      </trkpt>
      <trkpt lat="43.69479" lon="1.22256">
        <ele>125.6</ele>
        <time>2015-11-11T13:04:47Z</time>
      </trkpt>
      <trkpt lat="43.69474" lon="1.22251">
        <ele>125.1</ele>
        <time>2015-11-11T13:04:48Z</time>
      </trkpt>
      <trkpt lat="43.69469" lon="1.22246">
        <ele>124.6</ele>
        <time>2015-11-11T13:04:49Z</time>
      </trkpt>
      <trkpt lat="43.69464" lon="1.22242">
        <ele>124.2</ele>
        <time>2015-11-11T13:04:50Z</time>
      </trkpt>
      <trkpt lat="43.6946" lon="1.22235">
        <ele>123.8</ele>
        <time>2015-11-11T13:04:51Z</time>
      </trkpt>
      <trkpt lat="43.69455" lon="1.22228">
        <ele>123.8</ele>
        <time>2015-11-11T13:04:52Z</time>
      </trkpt>
      <trkpt lat="43.69451" lon="1.22221">
        <ele>123.9</ele>
        <time>2015-11-11T13:04:53Z</time>
      </trkpt>
      <trkpt lat="43.69451" lon="1.22213">
        <ele>124</ele>
        <time>2015-11-11T13:04:54Z</time>
      </trkpt>
      <trkpt lat="43.69451" lon="1.22204">
        <ele>124</ele>
        <time>2015-11-11T13:04:55Z</time>
      </trkpt>
      <trkpt lat="43.69452" lon="1.22196">
        <ele>124</ele>
        <time>2015-11-11T13:04:56Z</time>
      </trkpt>
      <trkpt lat="43.69454" lon="1.22188">
        <ele>124</ele>
        <time>2015-11-11T13:04:57Z</time>
      </trkpt>
      <trkpt lat="43.69457" lon="1.2218">
        <ele>124</ele>
        <time>2015-11-11T13:04:58Z</time>
      </trkpt>
      <trkpt lat="43.69461" lon="1.22171">
        <ele>124.1</ele>
        <time>2015-11-11T13:04:59Z</time>
      </trkpt>
      <trkpt lat="43.69465" lon="1.22167">
        <ele>124.4</ele>
        <time>2015-11-11T13:05:00Z</time>
      </trkpt>
      <trkpt lat="43.69469" lon="1.22159">
        <ele>124.6</ele>
        <time>2015-11-11T13:05:01Z</time>
      </trkpt>
      <trkpt lat="43.69473" lon="1.22151">
        <ele>124.7</ele>
        <time>2015-11-11T13:05:02Z</time>
      </trkpt>
      <trkpt lat="43.69478" lon="1.22143">
        <ele>124.8</ele>
        <time>2015-11-11T13:05:03Z</time>
      </trkpt>
      <trkpt lat="43.69481" lon="1.22134">
        <ele>124.9</ele>
        <time>2015-11-11T13:05:04Z</time>
      </trkpt>
      <trkpt lat="43.69484" lon="1.22126">
        <ele>124.9</ele>
        <time>2015-11-11T13:05:05Z</time>
      </trkpt>
      <trkpt lat="43.69486" lon="1.22118">
        <ele>125.2</ele>
        <time>2015-11-11T13:05:06Z</time>
      </trkpt>
      <trkpt lat="43.69487" lon="1.22112">
        <ele>125.4</ele>
        <time>2015-11-11T13:05:07Z</time>
      </trkpt>
      <trkpt lat="43.6949" lon="1.22101">
        <ele>125.7</ele>
        <time>2015-11-11T13:05:08Z</time>
      </trkpt>
      <trkpt lat="43.6949" lon="1.22091">
        <ele>125.9</ele>
        <time>2015-11-11T13:05:09Z</time>
      </trkpt>
      <trkpt lat="43.69491" lon="1.22079">
        <ele>126.2</ele>
        <time>2015-11-11T13:05:10Z</time>
      </trkpt>
      <trkpt lat="43.6949" lon="1.22069">
        <ele>126.4</ele>
        <time>2015-11-11T13:05:11Z</time>
      </trkpt>
      <trkpt lat="43.69491" lon="1.22059">
        <ele>126.6</ele>
        <time>2015-11-11T13:05:12Z</time>
      </trkpt>
      <trkpt lat="43.69491" lon="1.2205">
        <ele>126.8</ele>
        <time>2015-11-11T13:05:13Z</time>
      </trkpt>
      <trkpt lat="43.69491" lon="1.22043">
        <ele>127</ele>
        <time>2015-11-11T13:05:14Z</time>
      </trkpt>
      <trkpt lat="43.69491" lon="1.22034">
        <ele>127</ele>
        <time>2015-11-11T13:05:15Z</time>
      </trkpt>
      <trkpt lat="43.69489" lon="1.22024">
        <ele>127.1</ele>
        <time>2015-11-11T13:05:16Z</time>
      </trkpt>
      <trkpt lat="43.69488" lon="1.22013">
        <ele>127.1</ele>
        <time>2015-11-11T13:05:17Z</time>
      </trkpt>
      <trkpt lat="43.69487" lon="1.22001">
        <ele>127.2</ele>
        <time>2015-11-11T13:05:18Z</time>
      </trkpt>
      <trkpt lat="43.69486" lon="1.21991">
        <ele>127.2</ele>
        <time>2015-11-11T13:05:19Z</time>
      </trkpt>
      <trkpt lat="43.69486" lon="1.21981">
        <ele>127.2</ele>
        <time>2015-11-11T13:05:20Z</time>
      </trkpt>
      <trkpt lat="43.69485" lon="1.2197">
        <ele>127.3</ele>
        <time>2015-11-11T13:05:21Z</time>
      </trkpt>
      <trkpt lat="43.69486" lon="1.21961">
        <ele>127.3</ele>
        <time>2015-11-11T13:05:22Z</time>
      </trkpt>
      <trkpt lat="43.69484" lon="1.2195">
        <ele>127.4</ele>
        <time>2015-11-11T13:05:23Z</time>
      </trkpt>
      <trkpt lat="43.69484" lon="1.2194">
        <ele>127.3</ele>
        <time>2015-11-11T13:05:24Z</time>
      </trkpt>
      <trkpt lat="43.69484" lon="1.21931">
        <ele>127.3</ele>
        <time>2015-11-11T13:05:25Z</time>
      </trkpt>
      <trkpt lat="43.69484" lon="1.21923">
        <ele>127.3</ele>
        <time>2015-11-11T13:05:26Z</time>
      </trkpt>
      <trkpt lat="43.69485" lon="1.21915">
        <ele>127.2</ele>
        <time>2015-11-11T13:05:27Z</time>
      </trkpt>
      <trkpt lat="43.69483" lon="1.21905">
        <ele>127.2</ele>
        <time>2015-11-11T13:05:28Z</time>
      </trkpt>
      <trkpt lat="43.69483" lon="1.21896">
        <ele>127.2</ele>
        <time>2015-11-11T13:05:29Z</time>
      </trkpt>
      <trkpt lat="43.69482" lon="1.21887">
        <ele>127.2</ele>
        <time>2015-11-11T13:05:30Z</time>
      </trkpt>
      <trkpt lat="43.69484" lon="1.21878">
        <ele>127.1</ele>
        <time>2015-11-11T13:05:31Z</time>
      </trkpt>
      <trkpt lat="43.69482" lon="1.21868">
        <ele>127.1</ele>
        <time>2015-11-11T13:05:32Z</time>
      </trkpt>
      <trkpt lat="43.69479" lon="1.21858">
        <ele>127</ele>
        <time>2015-11-11T13:05:33Z</time>
      </trkpt>
      <trkpt lat="43.69477" lon="1.21848">
        <ele>126.9</ele>
        <time>2015-11-11T13:05:34Z</time>
      </trkpt>
      <trkpt lat="43.69476" lon="1.21837">
        <ele>126.7</ele>
        <time>2015-11-11T13:05:35Z</time>
      </trkpt>
      <trkpt lat="43.69474" lon="1.21829">
        <ele>126.6</ele>
        <time>2015-11-11T13:05:36Z</time>
      </trkpt>
      <trkpt lat="43.69474" lon="1.21822">
        <ele>126.5</ele>
        <time>2015-11-11T13:05:37Z</time>
      </trkpt>
      <trkpt lat="43.69475" lon="1.21817">
        <ele>126.4</ele>
        <time>2015-11-11T13:05:38Z</time>
      </trkpt>
      <trkpt lat="43.69474" lon="1.2181">
        <ele>126.3</ele>
        <time>2015-11-11T13:05:39Z</time>
      </trkpt>
      <trkpt lat="43.69472" lon="1.218">
        <ele>126.1</ele>
        <time>2015-11-11T13:05:40Z</time>
      </trkpt>
      <trkpt lat="43.69471" lon="1.21788">
        <ele>126</ele>
        <time>2015-11-11T13:05:41Z</time>
      </trkpt>
      <trkpt lat="43.6947" lon="1.2178">
        <ele>125.9</ele>
        <time>2015-11-11T13:05:42Z</time>
      </trkpt>
      <trkpt lat="43.69469" lon="1.2177">
        <ele>125.8</ele>
        <time>2015-11-11T13:05:43Z</time>
      </trkpt>
      <trkpt lat="43.69469" lon="1.21764">
        <ele>125.8</ele>
        <time>2015-11-11T13:05:44Z</time>
      </trkpt>
      <trkpt lat="43.69466" lon="1.21755">
        <ele>125.6</ele>
        <time>2015-11-11T13:05:45Z</time>
      </trkpt>
      <trkpt lat="43.69465" lon="1.21747">
        <ele>125.5</ele>
        <time>2015-11-11T13:05:46Z</time>
      </trkpt>
      <trkpt lat="43.69465" lon="1.21742">
        <ele>125.5</ele>
        <time>2015-11-11T13:05:47Z</time>
      </trkpt>
      <trkpt lat="43.69463" lon="1.21732">
        <ele>125.4</ele>
        <time>2015-11-11T13:05:48Z</time>
      </trkpt>
      <trkpt lat="43.69461" lon="1.21721">
        <ele>125.2</ele>
        <time>2015-11-11T13:05:49Z</time>
      </trkpt>
      <trkpt lat="43.69457" lon="1.21713">
        <ele>125</ele>
        <time>2015-11-11T13:05:50Z</time>
      </trkpt>
      <trkpt lat="43.69456" lon="1.21701">
        <ele>124.9</ele>
        <time>2015-11-11T13:05:51Z</time>
      </trkpt>
      <trkpt lat="43.69454" lon="1.21694">
        <ele>124.9</ele>
        <time>2015-11-11T13:05:52Z</time>
      </trkpt>
      <trkpt lat="43.69452" lon="1.21685">
        <ele>124.8</ele>
        <time>2015-11-11T13:05:53Z</time>
      </trkpt>
      <trkpt lat="43.69448" lon="1.21674">
        <ele>124.7</ele>
        <time>2015-11-11T13:05:54Z</time>
      </trkpt>
      <trkpt lat="43.69446" lon="1.21665">
        <ele>124.6</ele>
        <time>2015-11-11T13:05:55Z</time>
      </trkpt>
      <trkpt lat="43.69443" lon="1.21656">
        <ele>124.6</ele>
        <time>2015-11-11T13:05:56Z</time>
      </trkpt>
      <trkpt lat="43.69439" lon="1.21647">
        <ele>124.5</ele>
        <time>2015-11-11T13:05:57Z</time>
      </trkpt>
      <trkpt lat="43.69437" lon="1.21637">
        <ele>124.5</ele>
        <time>2015-11-11T13:05:58Z</time>
      </trkpt>
      <trkpt lat="43.69435" lon="1.21629">
        <ele>124.4</ele>
        <time>2015-11-11T13:05:59Z</time>
      </trkpt>
      <trkpt lat="43.69431" lon="1.2162">
        <ele>124.5</ele>
        <time>2015-11-11T13:06:00Z</time>
      </trkpt>
      <trkpt lat="43.69428" lon="1.21611">
        <ele>124.7</ele>
        <time>2015-11-11T13:06:01Z</time>
      </trkpt>
      <trkpt lat="43.69427" lon="1.21604">
        <ele>124.8</ele>
        <time>2015-11-11T13:06:02Z</time>
      </trkpt>
      <trkpt lat="43.69424" lon="1.21595">
        <ele>125</ele>
        <time>2015-11-11T13:06:03Z</time>
      </trkpt>
      <trkpt lat="43.69421" lon="1.21585">
        <ele>125.1</ele>
        <time>2015-11-11T13:06:04Z</time>
      </trkpt>
      <trkpt lat="43.69418" lon="1.21575">
        <ele>125.2</ele>
        <time>2015-11-11T13:06:05Z</time>
      </trkpt>
      <trkpt lat="43.69414" lon="1.21565">
        <ele>125.3</ele>
        <time>2015-11-11T13:06:06Z</time>
      </trkpt>
      <trkpt lat="43.6941" lon="1.21558">
        <ele>125.3</ele>
        <time>2015-11-11T13:06:07Z</time>
      </trkpt>
      <trkpt lat="43.69406" lon="1.21549">
        <ele>125.4</ele>
        <time>2015-11-11T13:06:08Z</time>
      </trkpt>
      <trkpt lat="43.69404" lon="1.21539">
        <ele>125.4</ele>
        <time>2015-11-11T13:06:09Z</time>
      </trkpt>
      <trkpt lat="43.69401" lon="1.2153">
        <ele>125.4</ele>
        <time>2015-11-11T13:06:10Z</time>
      </trkpt>
      <trkpt lat="43.69401" lon="1.2152">
        <ele>125.5</ele>
        <time>2015-11-11T13:06:11Z</time>
      </trkpt>
      <trkpt lat="43.69398" lon="1.2151">
        <ele>125.5</ele>
        <time>2015-11-11T13:06:12Z</time>
      </trkpt>
      <trkpt lat="43.69395" lon="1.21503">
        <ele>125.4</ele>
        <time>2015-11-11T13:06:13Z</time>
      </trkpt>
      <trkpt lat="43.69392" lon="1.21494">
        <ele>125.4</ele>
        <time>2015-11-11T13:06:14Z</time>
      </trkpt>
      <trkpt lat="43.69389" lon="1.21486">
        <ele>125.3</ele>
        <time>2015-11-11T13:06:15Z</time>
      </trkpt>
      <trkpt lat="43.69386" lon="1.21477">
        <ele>125.3</ele>
        <time>2015-11-11T13:06:16Z</time>
      </trkpt>
      <trkpt lat="43.69387" lon="1.21473">
        <ele>125.4</ele>
        <time>2015-11-11T13:06:17Z</time>
      </trkpt>
      <trkpt lat="43.69386" lon="1.21466">
        <ele>125.4</ele>
        <time>2015-11-11T13:06:18Z</time>
      </trkpt>
      <trkpt lat="43.69382" lon="1.21458">
        <ele>125.4</ele>
        <time>2015-11-11T13:06:19Z</time>
      </trkpt>
      <trkpt lat="43.69378" lon="1.21449">
        <ele>125.5</ele>
        <time>2015-11-11T13:06:20Z</time>
      </trkpt>
      <trkpt lat="43.69374" lon="1.2144">
        <ele>125.6</ele>
        <time>2015-11-11T13:06:21Z</time>
      </trkpt>
      <trkpt lat="43.6937" lon="1.21434">
        <ele>125.7</ele>
        <time>2015-11-11T13:06:22Z</time>
      </trkpt>
      <trkpt lat="43.69369" lon="1.21424">
        <ele>126</ele>
        <time>2015-11-11T13:06:23Z</time>
      </trkpt>
      <trkpt lat="43.69367" lon="1.21416">
        <ele>126.2</ele>
        <time>2015-11-11T13:06:24Z</time>
      </trkpt>
      <trkpt lat="43.69361" lon="1.21406">
        <ele>126.3</ele>
        <time>2015-11-11T13:06:25Z</time>
      </trkpt>
      <trkpt lat="43.69355" lon="1.21397">
        <ele>126.4</ele>
        <time>2015-11-11T13:06:26Z</time>
      </trkpt>
      <trkpt lat="43.69352" lon="1.21396">
        <ele>126.3</ele>
        <time>2015-11-11T13:06:27Z</time>
      </trkpt>
      <trkpt lat="43.69348" lon="1.21387">
        <ele>126.3</ele>
        <time>2015-11-11T13:06:28Z</time>
      </trkpt>
      <trkpt lat="43.69346" lon="1.21382">
        <ele>126.4</ele>
        <time>2015-11-11T13:06:29Z</time>
      </trkpt>
      <trkpt lat="43.69343" lon="1.21374">
        <ele>126.5</ele>
        <time>2015-11-11T13:06:30Z</time>
      </trkpt>
      <trkpt lat="43.69337" lon="1.21366">
        <ele>126.4</ele>
        <time>2015-11-11T13:06:31Z</time>
      </trkpt>
      <trkpt lat="43.69333" lon="1.21359">
        <ele>126.5</ele>
        <time>2015-11-11T13:06:32Z</time>
      </trkpt>
      <trkpt lat="43.6933" lon="1.21353">
        <ele>126.5</ele>
        <time>2015-11-11T13:06:33Z</time>
      </trkpt>
      <trkpt lat="43.69324" lon="1.21344">
        <ele>126.5</ele>
        <time>2015-11-11T13:06:34Z</time>
      </trkpt>
      <trkpt lat="43.69319" lon="1.21336">
        <ele>126.6</ele>
        <time>2015-11-11T13:06:35Z</time>
      </trkpt>
      <trkpt lat="43.69313" lon="1.21327">
        <ele>126.6</ele>
        <time>2015-11-11T13:06:36Z</time>
      </trkpt>
      <trkpt lat="43.69311" lon="1.2132">
        <ele>126.7</ele>
        <time>2015-11-11T13:06:37Z</time>
      </trkpt>
      <trkpt lat="43.69307" lon="1.21314">
        <ele>126.8</ele>
        <time>2015-11-11T13:06:38Z</time>
      </trkpt>
      <trkpt lat="43.69301" lon="1.21306">
        <ele>126.8</ele>
        <time>2015-11-11T13:06:40Z</time>
      </trkpt>
      <trkpt lat="43.69296" lon="1.21298">
        <ele>126.9</ele>
        <time>2015-11-11T13:06:41Z</time>
      </trkpt>
      <trkpt lat="43.69291" lon="1.21287">
        <ele>127.1</ele>
        <time>2015-11-11T13:06:42Z</time>
      </trkpt>
      <trkpt lat="43.69286" lon="1.21277">
        <ele>127.2</ele>
        <time>2015-11-11T13:06:43Z</time>
      </trkpt>
      <trkpt lat="43.69282" lon="1.21268">
        <ele>127.3</ele>
        <time>2015-11-11T13:06:44Z</time>
      </trkpt>
      <trkpt lat="43.69277" lon="1.21261">
        <ele>127.3</ele>
        <time>2015-11-11T13:06:45Z</time>
      </trkpt>
      <trkpt lat="43.69273" lon="1.21253">
        <ele>127.3</ele>
        <time>2015-11-11T13:06:46Z</time>
      </trkpt>
      <trkpt lat="43.69271" lon="1.2124">
        <ele>127.3</ele>
        <time>2015-11-11T13:06:47Z</time>
      </trkpt>
      <trkpt lat="43.69268" lon="1.21231">
        <ele>127.2</ele>
        <time>2015-11-11T13:06:48Z</time>
      </trkpt>
      <trkpt lat="43.69265" lon="1.21222">
        <ele>127.1</ele>
        <time>2015-11-11T13:06:49Z</time>
      </trkpt>
      <trkpt lat="43.69264" lon="1.21205">
        <ele>127.1</ele>
        <time>2015-11-11T13:06:50Z</time>
      </trkpt>
      <trkpt lat="43.69262" lon="1.21194">
        <ele>127.2</ele>
        <time>2015-11-11T13:06:51Z</time>
      </trkpt>
      <trkpt lat="43.6926" lon="1.21184">
        <ele>127.3</ele>
        <time>2015-11-11T13:06:52Z</time>
      </trkpt>
      <trkpt lat="43.69254" lon="1.21174">
        <ele>127.3</ele>
        <time>2015-11-11T13:06:53Z</time>
      </trkpt>
      <trkpt lat="43.69251" lon="1.21161">
        <ele>127.4</ele>
        <time>2015-11-11T13:06:54Z</time>
      </trkpt>
      <trkpt lat="43.69251" lon="1.21152">
        <ele>127.5</ele>
        <time>2015-11-11T13:06:55Z</time>
      </trkpt>
      <trkpt lat="43.69248" lon="1.21142">
        <ele>127.6</ele>
        <time>2015-11-11T13:06:56Z</time>
      </trkpt>
      <trkpt lat="43.69246" lon="1.21132">
        <ele>127.7</ele>
        <time>2015-11-11T13:06:57Z</time>
      </trkpt>
      <trkpt lat="43.69244" lon="1.21122">
        <ele>127.9</ele>
        <time>2015-11-11T13:06:58Z</time>
      </trkpt>
      <trkpt lat="43.69244" lon="1.21114">
        <ele>128.3</ele>
        <time>2015-11-11T13:06:59Z</time>
      </trkpt>
      <trkpt lat="43.69241" lon="1.21105">
        <ele>128.7</ele>
        <time>2015-11-11T13:07:00Z</time>
      </trkpt>
      <trkpt lat="43.69237" lon="1.21099">
        <ele>128.8</ele>
        <time>2015-11-11T13:07:01Z</time>
      </trkpt>
      <trkpt lat="43.69232" lon="1.21092">
        <ele>129</ele>
        <time>2015-11-11T13:07:02Z</time>
      </trkpt>
      <trkpt lat="43.69227" lon="1.21087">
        <ele>129</ele>
        <time>2015-11-11T13:07:03Z</time>
      </trkpt>
      <trkpt lat="43.69223" lon="1.21079">
        <ele>129.1</ele>
        <time>2015-11-11T13:07:04Z</time>
      </trkpt>
      <trkpt lat="43.69216" lon="1.21068">
        <ele>129.3</ele>
        <time>2015-11-11T13:07:05Z</time>
      </trkpt>
      <trkpt lat="43.69212" lon="1.21061">
        <ele>129.3</ele>
        <time>2015-11-11T13:07:06Z</time>
      </trkpt>
      <trkpt lat="43.69207" lon="1.21053">
        <ele>129.3</ele>
        <time>2015-11-11T13:07:07Z</time>
      </trkpt>
      <trkpt lat="43.69201" lon="1.21049">
        <ele>129.1</ele>
        <time>2015-11-11T13:07:08Z</time>
      </trkpt>
      <trkpt lat="43.69196" lon="1.21039">
        <ele>129.3</ele>
        <time>2015-11-11T13:07:09Z</time>
      </trkpt>
      <trkpt lat="43.6919" lon="1.21031">
        <ele>129.3</ele>
        <time>2015-11-11T13:07:10Z</time>
      </trkpt>
      <trkpt lat="43.69185" lon="1.21021">
        <ele>129.4</ele>
        <time>2015-11-11T13:07:11Z</time>
      </trkpt>
      <trkpt lat="43.6918" lon="1.21014">
        <ele>129.4</ele>
        <time>2015-11-11T13:07:12Z</time>
      </trkpt>
      <trkpt lat="43.69175" lon="1.21008">
        <ele>129.3</ele>
        <time>2015-11-11T13:07:14Z</time>
      </trkpt>
      <trkpt lat="43.69169" lon="1.20998">
        <ele>129.3</ele>
        <time>2015-11-11T13:07:15Z</time>
      </trkpt>
      <trkpt lat="43.69164" lon="1.2099">
        <ele>129.2</ele>
        <time>2015-11-11T13:07:16Z</time>
      </trkpt>
      <trkpt lat="43.69159" lon="1.20982">
        <ele>129.1</ele>
        <time>2015-11-11T13:07:17Z</time>
      </trkpt>
      <trkpt lat="43.69154" lon="1.20975">
        <ele>129.1</ele>
        <time>2015-11-11T13:07:18Z</time>
      </trkpt>
      <trkpt lat="43.69148" lon="1.20965">
        <ele>128.9</ele>
        <time>2015-11-11T13:07:19Z</time>
      </trkpt>
      <trkpt lat="43.69144" lon="1.20957">
        <ele>128.9</ele>
        <time>2015-11-11T13:07:20Z</time>
      </trkpt>
      <trkpt lat="43.69139" lon="1.20948">
        <ele>128.9</ele>
        <time>2015-11-11T13:07:21Z</time>
      </trkpt>
      <trkpt lat="43.69135" lon="1.20939">
        <ele>129.1</ele>
        <time>2015-11-11T13:07:22Z</time>
      </trkpt>
      <trkpt lat="43.69131" lon="1.2093">
        <ele>129.2</ele>
        <time>2015-11-11T13:07:23Z</time>
      </trkpt>
      <trkpt lat="43.69127" lon="1.20922">
        <ele>129.4</ele>
        <time>2015-11-11T13:07:24Z</time>
      </trkpt>
      <trkpt lat="43.69124" lon="1.20914">
        <ele>129.6</ele>
        <time>2015-11-11T13:07:25Z</time>
      </trkpt>
      <trkpt lat="43.69119" lon="1.20907">
        <ele>129.7</ele>
        <time>2015-11-11T13:07:26Z</time>
      </trkpt>
      <trkpt lat="43.69116" lon="1.20899">
        <ele>129.9</ele>
        <time>2015-11-11T13:07:27Z</time>
      </trkpt>
      <trkpt lat="43.69111" lon="1.20891">
        <ele>130</ele>
        <time>2015-11-11T13:07:28Z</time>
      </trkpt>
      <trkpt lat="43.69107" lon="1.20884">
        <ele>130.1</ele>
        <time>2015-11-11T13:07:29Z</time>
      </trkpt>
      <trkpt lat="43.69101" lon="1.20875">
        <ele>130</ele>
        <time>2015-11-11T13:07:30Z</time>
      </trkpt>
      <trkpt lat="43.69098" lon="1.20867">
        <ele>129.9</ele>
        <time>2015-11-11T13:07:31Z</time>
      </trkpt>
      <trkpt lat="43.69093" lon="1.20858">
        <ele>129.6</ele>
        <time>2015-11-11T13:07:32Z</time>
      </trkpt>
      <trkpt lat="43.6909" lon="1.20853">
        <ele>129.3</ele>
        <time>2015-11-11T13:07:33Z</time>
      </trkpt>
      <trkpt lat="43.69088" lon="1.20844">
        <ele>129.3</ele>
        <time>2015-11-11T13:07:34Z</time>
      </trkpt>
      <trkpt lat="43.69086" lon="1.20834">
        <ele>129.2</ele>
        <time>2015-11-11T13:07:35Z</time>
      </trkpt>
      <trkpt lat="43.69082" lon="1.20825">
        <ele>128.9</ele>
        <time>2015-11-11T13:07:36Z</time>
      </trkpt>
      <trkpt lat="43.69078" lon="1.20815">
        <ele>128.7</ele>
        <time>2015-11-11T13:07:37Z</time>
      </trkpt>
      <trkpt lat="43.69075" lon="1.20805">
        <ele>128.5</ele>
        <time>2015-11-11T13:07:38Z</time>
      </trkpt>
      <trkpt lat="43.69073" lon="1.20796">
        <ele>128.4</ele>
        <time>2015-11-11T13:07:39Z</time>
      </trkpt>
      <trkpt lat="43.69071" lon="1.20786">
        <ele>128.4</ele>
        <time>2015-11-11T13:07:40Z</time>
      </trkpt>
      <trkpt lat="43.69069" lon="1.20777">
        <ele>128.6</ele>
        <time>2015-11-11T13:07:41Z</time>
      </trkpt>
      <trkpt lat="43.69066" lon="1.20769">
        <ele>128.7</ele>
        <time>2015-11-11T13:07:42Z</time>
      </trkpt>
      <trkpt lat="43.69065" lon="1.2076">
        <ele>128.9</ele>
        <time>2015-11-11T13:07:43Z</time>
      </trkpt>
      <trkpt lat="43.69063" lon="1.20752">
        <ele>129.2</ele>
        <time>2015-11-11T13:07:44Z</time>
      </trkpt>
      <trkpt lat="43.69063" lon="1.20744">
        <ele>129.5</ele>
        <time>2015-11-11T13:07:45Z</time>
      </trkpt>
      <trkpt lat="43.69061" lon="1.20734">
        <ele>129.6</ele>
        <time>2015-11-11T13:07:46Z</time>
      </trkpt>
      <trkpt lat="43.69059" lon="1.20727">
        <ele>129.6</ele>
        <time>2015-11-11T13:07:47Z</time>
      </trkpt>
      <trkpt lat="43.69056" lon="1.20722">
        <ele>129.5</ele>
        <time>2015-11-11T13:07:48Z</time>
      </trkpt>
      <trkpt lat="43.69054" lon="1.20716">
        <ele>129.4</ele>
        <time>2015-11-11T13:07:49Z</time>
      </trkpt>
      <trkpt lat="43.69051" lon="1.20709">
        <ele>129.3</ele>
        <time>2015-11-11T13:07:50Z</time>
      </trkpt>
      <trkpt lat="43.69047" lon="1.20701">
        <ele>129.3</ele>
        <time>2015-11-11T13:07:51Z</time>
      </trkpt>
      <trkpt lat="43.69043" lon="1.20694">
        <ele>129.2</ele>
        <time>2015-11-11T13:07:52Z</time>
      </trkpt>
      <trkpt lat="43.69038" lon="1.20685">
        <ele>129.5</ele>
        <time>2015-11-11T13:07:53Z</time>
      </trkpt>
      <trkpt lat="43.69035" lon="1.20677">
        <ele>129.7</ele>
        <time>2015-11-11T13:07:54Z</time>
      </trkpt>
      <trkpt lat="43.6903" lon="1.20669">
        <ele>130</ele>
        <time>2015-11-11T13:07:55Z</time>
      </trkpt>
      <trkpt lat="43.69027" lon="1.20661">
        <ele>130.2</ele>
        <time>2015-11-11T13:07:56Z</time>
      </trkpt>
      <trkpt lat="43.69022" lon="1.20653">
        <ele>130.3</ele>
        <time>2015-11-11T13:07:57Z</time>
      </trkpt>
      <trkpt lat="43.69017" lon="1.20642">
        <ele>130.6</ele>
        <time>2015-11-11T13:07:58Z</time>
      </trkpt>
      <trkpt lat="43.69013" lon="1.20634">
        <ele>130.7</ele>
        <time>2015-11-11T13:07:59Z</time>
      </trkpt>
      <trkpt lat="43.69009" lon="1.20624">
        <ele>130.9</ele>
        <time>2015-11-11T13:08:00Z</time>
      </trkpt>
      <trkpt lat="43.69006" lon="1.20615">
        <ele>130.9</ele>
        <time>2015-11-11T13:08:01Z</time>
      </trkpt>
      <trkpt lat="43.69003" lon="1.20606">
        <ele>130.8</ele>
        <time>2015-11-11T13:08:02Z</time>
      </trkpt>
      <trkpt lat="43.68999" lon="1.20598">
        <ele>130.7</ele>
        <time>2015-11-11T13:08:03Z</time>
      </trkpt>
      <trkpt lat="43.68997" lon="1.20587">
        <ele>130.8</ele>
        <time>2015-11-11T13:08:04Z</time>
      </trkpt>
      <trkpt lat="43.68994" lon="1.20578">
        <ele>130.7</ele>
        <time>2015-11-11T13:08:05Z</time>
      </trkpt>
      <trkpt lat="43.68992" lon="1.20569">
        <ele>130.7</ele>
        <time>2015-11-11T13:08:06Z</time>
      </trkpt>
      <trkpt lat="43.68988" lon="1.20558">
        <ele>130.6</ele>
        <time>2015-11-11T13:08:07Z</time>
      </trkpt>
      <trkpt lat="43.68986" lon="1.20549">
        <ele>130.5</ele>
        <time>2015-11-11T13:08:08Z</time>
      </trkpt>
      <trkpt lat="43.68981" lon="1.20541">
        <ele>130.1</ele>
        <time>2015-11-11T13:08:09Z</time>
      </trkpt>
      <trkpt lat="43.68979" lon="1.20533">
        <ele>130.4</ele>
        <time>2015-11-11T13:08:10Z</time>
      </trkpt>
      <trkpt lat="43.68976" lon="1.20526">
        <ele>130.5</ele>
        <time>2015-11-11T13:08:11Z</time>
      </trkpt>
      <trkpt lat="43.68975" lon="1.20517">
        <ele>131</ele>
        <time>2015-11-11T13:08:12Z</time>
      </trkpt>
      <trkpt lat="43.6897" lon="1.20509">
        <ele>130.9</ele>
        <time>2015-11-11T13:08:13Z</time>
      </trkpt>
      <trkpt lat="43.68965" lon="1.20501">
        <ele>130.9</ele>
        <time>2015-11-11T13:08:14Z</time>
      </trkpt>
      <trkpt lat="43.6896" lon="1.20492">
        <ele>130.8</ele>
        <time>2015-11-11T13:08:15Z</time>
      </trkpt>
      <trkpt lat="43.68955" lon="1.20484">
        <ele>131</ele>
        <time>2015-11-11T13:08:16Z</time>
      </trkpt>
      <trkpt lat="43.68951" lon="1.20477">
        <ele>131.2</ele>
        <time>2015-11-11T13:08:17Z</time>
      </trkpt>
      <trkpt lat="43.68946" lon="1.20469">
        <ele>131.5</ele>
        <time>2015-11-11T13:08:18Z</time>
      </trkpt>
      <trkpt lat="43.68941" lon="1.20462">
        <ele>131.7</ele>
        <time>2015-11-11T13:08:19Z</time>
      </trkpt>
      <trkpt lat="43.68936" lon="1.20454">
        <ele>132</ele>
        <time>2015-11-11T13:08:20Z</time>
      </trkpt>
      <trkpt lat="43.68932" lon="1.20447">
        <ele>132.4</ele>
        <time>2015-11-11T13:08:21Z</time>
      </trkpt>
      <trkpt lat="43.68927" lon="1.20438">
        <ele>132.8</ele>
        <time>2015-11-11T13:08:22Z</time>
      </trkpt>
      <trkpt lat="43.68922" lon="1.20429">
        <ele>133.3</ele>
        <time>2015-11-11T13:08:23Z</time>
      </trkpt>
      <trkpt lat="43.68915" lon="1.2042">
        <ele>133.6</ele>
        <time>2015-11-11T13:08:24Z</time>
      </trkpt>
      <trkpt lat="43.68908" lon="1.20413">
        <ele>133.8</ele>
        <time>2015-11-11T13:08:25Z</time>
      </trkpt>
      <trkpt lat="43.68906" lon="1.20408">
        <ele>134</ele>
        <time>2015-11-11T13:08:26Z</time>
      </trkpt>
      <trkpt lat="43.68901" lon="1.20402">
        <ele>134.3</ele>
        <time>2015-11-11T13:08:27Z</time>
      </trkpt>
      <trkpt lat="43.68895" lon="1.20396">
        <ele>134.4</ele>
        <time>2015-11-11T13:08:28Z</time>
      </trkpt>
      <trkpt lat="43.68887" lon="1.2039">
        <ele>134.5</ele>
        <time>2015-11-11T13:08:29Z</time>
      </trkpt>
      <trkpt lat="43.68883" lon="1.20385">
        <ele>134.7</ele>
        <time>2015-11-11T13:08:30Z</time>
      </trkpt>
      <trkpt lat="43.68878" lon="1.20379">
        <ele>134.8</ele>
        <time>2015-11-11T13:08:31Z</time>
      </trkpt>
      <trkpt lat="43.68873" lon="1.20372">
        <ele>135</ele>
        <time>2015-11-11T13:08:32Z</time>
      </trkpt>
      <trkpt lat="43.68868" lon="1.20367">
        <ele>134.7</ele>
        <time>2015-11-11T13:08:33Z</time>
      </trkpt>
      <trkpt lat="43.68863" lon="1.2036">
        <ele>134.5</ele>
        <time>2015-11-11T13:08:34Z</time>
      </trkpt>
      <trkpt lat="43.68857" lon="1.20352">
        <ele>134.4</ele>
        <time>2015-11-11T13:08:35Z</time>
      </trkpt>
      <trkpt lat="43.68853" lon="1.20344">
        <ele>134.3</ele>
        <time>2015-11-11T13:08:36Z</time>
      </trkpt>
      <trkpt lat="43.68849" lon="1.20336">
        <ele>134.4</ele>
        <time>2015-11-11T13:08:37Z</time>
      </trkpt>
      <trkpt lat="43.68846" lon="1.20327">
        <ele>134.5</ele>
        <time>2015-11-11T13:08:38Z</time>
      </trkpt>
      <trkpt lat="43.68842" lon="1.20319">
        <ele>134.5</ele>
        <time>2015-11-11T13:08:39Z</time>
      </trkpt>
      <trkpt lat="43.68839" lon="1.20314">
        <ele>134.4</ele>
        <time>2015-11-11T13:08:40Z</time>
      </trkpt>
      <trkpt lat="43.68833" lon="1.20306">
        <ele>134.3</ele>
        <time>2015-11-11T13:08:41Z</time>
      </trkpt>
      <trkpt lat="43.68828" lon="1.20298">
        <ele>134.2</ele>
        <time>2015-11-11T13:08:42Z</time>
      </trkpt>
      <trkpt lat="43.68823" lon="1.20294">
        <ele>133.9</ele>
        <time>2015-11-11T13:08:43Z</time>
      </trkpt>
      <trkpt lat="43.68817" lon="1.20287">
        <ele>133.9</ele>
        <time>2015-11-11T13:08:44Z</time>
      </trkpt>
      <trkpt lat="43.6881" lon="1.2028">
        <ele>134</ele>
        <time>2015-11-11T13:08:45Z</time>
      </trkpt>
      <trkpt lat="43.68805" lon="1.20274">
        <ele>133.9</ele>
        <time>2015-11-11T13:08:46Z</time>
      </trkpt>
      <trkpt lat="43.68799" lon="1.20268">
        <ele>133.8</ele>
        <time>2015-11-11T13:08:47Z</time>
      </trkpt>
      <trkpt lat="43.68793" lon="1.20262">
        <ele>133.6</ele>
        <time>2015-11-11T13:08:48Z</time>
      </trkpt>
      <trkpt lat="43.68787" lon="1.20256">
        <ele>133.7</ele>
        <time>2015-11-11T13:08:49Z</time>
      </trkpt>
      <trkpt lat="43.68782" lon="1.2025">
        <ele>133.9</ele>
        <time>2015-11-11T13:08:50Z</time>
      </trkpt>
      <trkpt lat="43.68778" lon="1.20243">
        <ele>134.2</ele>
        <time>2015-11-11T13:08:51Z</time>
      </trkpt>
      <trkpt lat="43.68772" lon="1.20239">
        <ele>134.3</ele>
        <time>2015-11-11T13:08:52Z</time>
      </trkpt>
      <trkpt lat="43.68767" lon="1.20233">
        <ele>134.4</ele>
        <time>2015-11-11T13:08:53Z</time>
      </trkpt>
      <trkpt lat="43.68761" lon="1.20229">
        <ele>134.5</ele>
        <time>2015-11-11T13:08:54Z</time>
      </trkpt>
      <trkpt lat="43.68755" lon="1.20223">
        <ele>134.6</ele>
        <time>2015-11-11T13:08:55Z</time>
      </trkpt>
      <trkpt lat="43.6875" lon="1.20217">
        <ele>134.8</ele>
        <time>2015-11-11T13:08:56Z</time>
      </trkpt>
      <trkpt lat="43.68745" lon="1.2021">
        <ele>135</ele>
        <time>2015-11-11T13:08:57Z</time>
      </trkpt>
      <trkpt lat="43.68738" lon="1.20205">
        <ele>135</ele>
        <time>2015-11-11T13:08:58Z</time>
      </trkpt>
      <trkpt lat="43.68732" lon="1.20199">
        <ele>134.8</ele>
        <time>2015-11-11T13:08:59Z</time>
      </trkpt>
      <trkpt lat="43.68726" lon="1.20195">
        <ele>134.5</ele>
        <time>2015-11-11T13:09:00Z</time>
      </trkpt>
      <trkpt lat="43.6872" lon="1.20189">
        <ele>134.2</ele>
        <time>2015-11-11T13:09:01Z</time>
      </trkpt>
      <trkpt lat="43.68713" lon="1.20186">
        <ele>133.7</ele>
        <time>2015-11-11T13:09:02Z</time>
      </trkpt>
      <trkpt lat="43.68706" lon="1.2018">
        <ele>133.2</ele>
        <time>2015-11-11T13:09:03Z</time>
      </trkpt>
      <trkpt lat="43.68701" lon="1.20175">
        <ele>132.9</ele>
        <time>2015-11-11T13:09:04Z</time>
      </trkpt>
      <trkpt lat="43.68695" lon="1.2017">
        <ele>132.6</ele>
        <time>2015-11-11T13:09:05Z</time>
      </trkpt>
      <trkpt lat="43.68688" lon="1.20165">
        <ele>132.2</ele>
        <time>2015-11-11T13:09:06Z</time>
      </trkpt>
      <trkpt lat="43.68682" lon="1.2016">
        <ele>131.9</ele>
        <time>2015-11-11T13:09:07Z</time>
      </trkpt>
      <trkpt lat="43.68677" lon="1.20154">
        <ele>131.6</ele>
        <time>2015-11-11T13:09:08Z</time>
      </trkpt>
      <trkpt lat="43.68671" lon="1.20149">
        <ele>131.4</ele>
        <time>2015-11-11T13:09:09Z</time>
      </trkpt>
      <trkpt lat="43.68666" lon="1.20142">
        <ele>131.2</ele>
        <time>2015-11-11T13:09:10Z</time>
      </trkpt>
      <trkpt lat="43.68659" lon="1.20136">
        <ele>130.8</ele>
        <time>2015-11-11T13:09:11Z</time>
      </trkpt>
      <trkpt lat="43.68654" lon="1.20129">
        <ele>130.6</ele>
        <time>2015-11-11T13:09:12Z</time>
      </trkpt>
      <trkpt lat="43.68649" lon="1.20125">
        <ele>130.4</ele>
        <time>2015-11-11T13:09:13Z</time>
      </trkpt>
      <trkpt lat="43.68643" lon="1.20117">
        <ele>130.3</ele>
        <time>2015-11-11T13:09:14Z</time>
      </trkpt>
      <trkpt lat="43.68638" lon="1.20112">
        <ele>130.1</ele>
        <time>2015-11-11T13:09:15Z</time>
      </trkpt>
      <trkpt lat="43.68632" lon="1.20107">
        <ele>129.9</ele>
        <time>2015-11-11T13:09:16Z</time>
      </trkpt>
      <trkpt lat="43.68626" lon="1.20099">
        <ele>129.7</ele>
        <time>2015-11-11T13:09:17Z</time>
      </trkpt>
      <trkpt lat="43.68623" lon="1.20094">
        <ele>129.8</ele>
        <time>2015-11-11T13:09:18Z</time>
      </trkpt>
      <trkpt lat="43.68618" lon="1.20086">
        <ele>129.9</ele>
        <time>2015-11-11T13:09:19Z</time>
      </trkpt>
      <trkpt lat="43.68613" lon="1.20077">
        <ele>130.2</ele>
        <time>2015-11-11T13:09:20Z</time>
      </trkpt>
      <trkpt lat="43.68608" lon="1.20069">
        <ele>130.3</ele>
        <time>2015-11-11T13:09:21Z</time>
      </trkpt>
      <trkpt lat="43.68604" lon="1.20059">
        <ele>130.6</ele>
        <time>2015-11-11T13:09:22Z</time>
      </trkpt>
      <trkpt lat="43.68598" lon="1.20049">
        <ele>130.8</ele>
        <time>2015-11-11T13:09:23Z</time>
      </trkpt>
      <trkpt lat="43.68594" lon="1.20038">
        <ele>131.1</ele>
        <time>2015-11-11T13:09:24Z</time>
      </trkpt>
      <trkpt lat="43.6859" lon="1.20029">
        <ele>131.5</ele>
        <time>2015-11-11T13:09:25Z</time>
      </trkpt>
      <trkpt lat="43.68587" lon="1.20022">
        <ele>131.7</ele>
        <time>2015-11-11T13:09:26Z</time>
      </trkpt>
      <trkpt lat="43.68583" lon="1.20012">
        <ele>132.1</ele>
        <time>2015-11-11T13:09:27Z</time>
      </trkpt>
      <trkpt lat="43.68578" lon="1.20003">
        <ele>132.3</ele>
        <time>2015-11-11T13:09:28Z</time>
      </trkpt>
      <trkpt lat="43.68571" lon="1.19992">
        <ele>132.6</ele>
        <time>2015-11-11T13:09:29Z</time>
      </trkpt>
      <trkpt lat="43.68567" lon="1.19982">
        <ele>132.9</ele>
        <time>2015-11-11T13:09:30Z</time>
      </trkpt>
      <trkpt lat="43.68561" lon="1.19972">
        <ele>133.1</ele>
        <time>2015-11-11T13:09:31Z</time>
      </trkpt>
      <trkpt lat="43.68557" lon="1.19965">
        <ele>133.2</ele>
        <time>2015-11-11T13:09:32Z</time>
      </trkpt>
      <trkpt lat="43.68553" lon="1.19956">
        <ele>133.3</ele>
        <time>2015-11-11T13:09:33Z</time>
      </trkpt>
      <trkpt lat="43.68548" lon="1.19949">
        <ele>133.3</ele>
        <time>2015-11-11T13:09:34Z</time>
      </trkpt>
      <trkpt lat="43.68543" lon="1.19941">
        <ele>133.2</ele>
        <time>2015-11-11T13:09:35Z</time>
      </trkpt>
      <trkpt lat="43.68538" lon="1.19934">
        <ele>133.1</ele>
        <time>2015-11-11T13:09:36Z</time>
      </trkpt>
      <trkpt lat="43.68532" lon="1.19929">
        <ele>133</ele>
        <time>2015-11-11T13:09:37Z</time>
      </trkpt>
      <trkpt lat="43.68528" lon="1.19924">
        <ele>133</ele>
        <time>2015-11-11T13:09:38Z</time>
      </trkpt>
      <trkpt lat="43.68524" lon="1.19919">
        <ele>133</ele>
        <time>2015-11-11T13:09:39Z</time>
      </trkpt>
      <trkpt lat="43.68517" lon="1.19913">
        <ele>133</ele>
        <time>2015-11-11T13:09:40Z</time>
      </trkpt>
      <trkpt lat="43.68511" lon="1.1991">
        <ele>133</ele>
        <time>2015-11-11T13:09:41Z</time>
      </trkpt>
      <trkpt lat="43.68505" lon="1.19906">
        <ele>133</ele>
        <time>2015-11-11T13:09:42Z</time>
      </trkpt>
      <trkpt lat="43.68498" lon="1.19904">
        <ele>132.9</ele>
        <time>2015-11-11T13:09:43Z</time>
      </trkpt>
      <trkpt lat="43.68491" lon="1.19898">
        <ele>133.1</ele>
        <time>2015-11-11T13:09:44Z</time>
      </trkpt>
      <trkpt lat="43.68483" lon="1.19895">
        <ele>133.1</ele>
        <time>2015-11-11T13:09:45Z</time>
      </trkpt>
      <trkpt lat="43.68476" lon="1.19892">
        <ele>133.2</ele>
        <time>2015-11-11T13:09:46Z</time>
      </trkpt>
      <trkpt lat="43.68468" lon="1.1989">
        <ele>133.2</ele>
        <time>2015-11-11T13:09:47Z</time>
      </trkpt>
      <trkpt lat="43.68464" lon="1.1989">
        <ele>133.2</ele>
        <time>2015-11-11T13:09:48Z</time>
      </trkpt>
      <trkpt lat="43.68457" lon="1.19887">
        <ele>133.3</ele>
        <time>2015-11-11T13:09:49Z</time>
      </trkpt>
      <trkpt lat="43.68448" lon="1.19884">
        <ele>133.2</ele>
        <time>2015-11-11T13:09:50Z</time>
      </trkpt>
      <trkpt lat="43.68441" lon="1.19881">
        <ele>133.2</ele>
        <time>2015-11-11T13:09:51Z</time>
      </trkpt>
      <trkpt lat="43.68433" lon="1.19877">
        <ele>133.3</ele>
        <time>2015-11-11T13:09:52Z</time>
      </trkpt>
      <trkpt lat="43.68426" lon="1.19875">
        <ele>133.2</ele>
        <time>2015-11-11T13:09:53Z</time>
      </trkpt>
      <trkpt lat="43.6842" lon="1.19873">
        <ele>133.2</ele>
        <time>2015-11-11T13:09:54Z</time>
      </trkpt>
      <trkpt lat="43.68412" lon="1.19868">
        <ele>133.3</ele>
        <time>2015-11-11T13:09:55Z</time>
      </trkpt>
      <trkpt lat="43.68404" lon="1.19866">
        <ele>133.3</ele>
        <time>2015-11-11T13:09:56Z</time>
      </trkpt>
      <trkpt lat="43.684" lon="1.19861">
        <ele>133.5</ele>
        <time>2015-11-11T13:09:57Z</time>
      </trkpt>
      <trkpt lat="43.68394" lon="1.19855">
        <ele>133.7</ele>
        <time>2015-11-11T13:09:58Z</time>
      </trkpt>
      <trkpt lat="43.68386" lon="1.19852">
        <ele>133.7</ele>
        <time>2015-11-11T13:09:59Z</time>
      </trkpt>
      <trkpt lat="43.68378" lon="1.19848">
        <ele>133.7</ele>
        <time>2015-11-11T13:10:00Z</time>
      </trkpt>
      <trkpt lat="43.68371" lon="1.19846">
        <ele>133.6</ele>
        <time>2015-11-11T13:10:01Z</time>
      </trkpt>
      <trkpt lat="43.68363" lon="1.19844">
        <ele>133.5</ele>
        <time>2015-11-11T13:10:02Z</time>
      </trkpt>
      <trkpt lat="43.68356" lon="1.1984">
        <ele>133.4</ele>
        <time>2015-11-11T13:10:03Z</time>
      </trkpt>
      <trkpt lat="43.6835" lon="1.19837">
        <ele>133.4</ele>
        <time>2015-11-11T13:10:04Z</time>
      </trkpt>
      <trkpt lat="43.68344" lon="1.19833">
        <ele>133.4</ele>
        <time>2015-11-11T13:10:05Z</time>
      </trkpt>
      <trkpt lat="43.68336" lon="1.19829">
        <ele>133.3</ele>
        <time>2015-11-11T13:10:06Z</time>
      </trkpt>
      <trkpt lat="43.68329" lon="1.19826">
        <ele>133.2</ele>
        <time>2015-11-11T13:10:07Z</time>
      </trkpt>
      <trkpt lat="43.68307" lon="1.19815">
        <ele>132.8</ele>
        <time>2015-11-11T13:10:10Z</time>
      </trkpt>
      <trkpt lat="43.68299" lon="1.19812">
        <ele>132.6</ele>
        <time>2015-11-11T13:10:11Z</time>
      </trkpt>
      <trkpt lat="43.68292" lon="1.1981">
        <ele>132.4</ele>
        <time>2015-11-11T13:10:12Z</time>
      </trkpt>
      <trkpt lat="43.68285" lon="1.19808">
        <ele>132.1</ele>
        <time>2015-11-11T13:10:13Z</time>
      </trkpt>
      <trkpt lat="43.68279" lon="1.19806">
        <ele>132</ele>
        <time>2015-11-11T13:10:14Z</time>
      </trkpt>
      <trkpt lat="43.68273" lon="1.19802">
        <ele>131.9</ele>
        <time>2015-11-11T13:10:15Z</time>
      </trkpt>
      <trkpt lat="43.68266" lon="1.19799">
        <ele>131.8</ele>
        <time>2015-11-11T13:10:16Z</time>
      </trkpt>
      <trkpt lat="43.6826" lon="1.19796">
        <ele>131.7</ele>
        <time>2015-11-11T13:10:17Z</time>
      </trkpt>
      <trkpt lat="43.68253" lon="1.19793">
        <ele>131.5</ele>
        <time>2015-11-11T13:10:18Z</time>
      </trkpt>
      <trkpt lat="43.68246" lon="1.1979">
        <ele>131.5</ele>
        <time>2015-11-11T13:10:19Z</time>
      </trkpt>
      <trkpt lat="43.6824" lon="1.19789">
        <ele>131.3</ele>
        <time>2015-11-11T13:10:20Z</time>
      </trkpt>
      <trkpt lat="43.68233" lon="1.19784">
        <ele>131.5</ele>
        <time>2015-11-11T13:10:21Z</time>
      </trkpt>
      <trkpt lat="43.68226" lon="1.19781">
        <ele>131.5</ele>
        <time>2015-11-11T13:10:22Z</time>
      </trkpt>
      <trkpt lat="43.6822" lon="1.19776">
        <ele>131.6</ele>
        <time>2015-11-11T13:10:23Z</time>
      </trkpt>
      <trkpt lat="43.68214" lon="1.19773">
        <ele>131.6</ele>
        <time>2015-11-11T13:10:24Z</time>
      </trkpt>
      <trkpt lat="43.68211" lon="1.19764">
        <ele>132.1</ele>
        <time>2015-11-11T13:10:25Z</time>
      </trkpt>
      <trkpt lat="43.68204" lon="1.19759">
        <ele>132.3</ele>
        <time>2015-11-11T13:10:26Z</time>
      </trkpt>
      <trkpt lat="43.68198" lon="1.19752">
        <ele>132.6</ele>
        <time>2015-11-11T13:10:27Z</time>
      </trkpt>
      <trkpt lat="43.68192" lon="1.19744">
        <ele>132.9</ele>
        <time>2015-11-11T13:10:28Z</time>
      </trkpt>
      <trkpt lat="43.68188" lon="1.19741">
        <ele>132.9</ele>
        <time>2015-11-11T13:10:29Z</time>
      </trkpt>
      <trkpt lat="43.68181" lon="1.19737">
        <ele>132.9</ele>
        <time>2015-11-11T13:10:30Z</time>
      </trkpt>
      <trkpt lat="43.68174" lon="1.19729">
        <ele>132.9</ele>
        <time>2015-11-11T13:10:31Z</time>
      </trkpt>
      <trkpt lat="43.68168" lon="1.19722">
        <ele>133</ele>
        <time>2015-11-11T13:10:32Z</time>
      </trkpt>
      <trkpt lat="43.68166" lon="1.19716">
        <ele>133.1</ele>
        <time>2015-11-11T13:10:33Z</time>
      </trkpt>
      <trkpt lat="43.68162" lon="1.19711">
        <ele>133.1</ele>
        <time>2015-11-11T13:10:34Z</time>
      </trkpt>
      <trkpt lat="43.68155" lon="1.19705">
        <ele>132.8</ele>
        <time>2015-11-11T13:10:35Z</time>
      </trkpt>
      <trkpt lat="43.68148" lon="1.197">
        <ele>132.4</ele>
        <time>2015-11-11T13:10:36Z</time>
      </trkpt>
      <trkpt lat="43.68142" lon="1.19693">
        <ele>132</ele>
        <time>2015-11-11T13:10:37Z</time>
      </trkpt>
      <trkpt lat="43.68136" lon="1.19685">
        <ele>131.6</ele>
        <time>2015-11-11T13:10:38Z</time>
      </trkpt>
      <trkpt lat="43.6813" lon="1.19678">
        <ele>131.3</ele>
        <time>2015-11-11T13:10:39Z</time>
      </trkpt>
      <trkpt lat="43.68124" lon="1.19671">
        <ele>131</ele>
        <time>2015-11-11T13:10:40Z</time>
      </trkpt>
      <trkpt lat="43.68118" lon="1.19665">
        <ele>131</ele>
        <time>2015-11-11T13:10:41Z</time>
      </trkpt>
      <trkpt lat="43.68113" lon="1.19658">
        <ele>130.9</ele>
        <time>2015-11-11T13:10:42Z</time>
      </trkpt>
      <trkpt lat="43.68107" lon="1.1965">
        <ele>130.9</ele>
        <time>2015-11-11T13:10:43Z</time>
      </trkpt>
      <trkpt lat="43.68101" lon="1.19642">
        <ele>130.8</ele>
        <time>2015-11-11T13:10:44Z</time>
      </trkpt>
      <trkpt lat="43.68096" lon="1.19634">
        <ele>130.7</ele>
        <time>2015-11-11T13:10:45Z</time>
      </trkpt>
      <trkpt lat="43.68092" lon="1.19626">
        <ele>130.6</ele>
        <time>2015-11-11T13:10:46Z</time>
      </trkpt>
      <trkpt lat="43.68085" lon="1.19616">
        <ele>130.7</ele>
        <time>2015-11-11T13:10:47Z</time>
      </trkpt>
      <trkpt lat="43.68083" lon="1.19611">
        <ele>130.8</ele>
        <time>2015-11-11T13:10:48Z</time>
      </trkpt>
      <trkpt lat="43.68079" lon="1.19602">
        <ele>131</ele>
        <time>2015-11-11T13:10:49Z</time>
      </trkpt>
      <trkpt lat="43.68076" lon="1.19592">
        <ele>131.1</ele>
        <time>2015-11-11T13:10:50Z</time>
      </trkpt>
      <trkpt lat="43.68073" lon="1.19583">
        <ele>131.3</ele>
        <time>2015-11-11T13:10:51Z</time>
      </trkpt>
      <trkpt lat="43.68069" lon="1.19574">
        <ele>131.4</ele>
        <time>2015-11-11T13:10:52Z</time>
      </trkpt>
      <trkpt lat="43.68067" lon="1.19566">
        <ele>131.4</ele>
        <time>2015-11-11T13:10:53Z</time>
      </trkpt>
      <trkpt lat="43.68062" lon="1.19554">
        <ele>131.5</ele>
        <time>2015-11-11T13:10:54Z</time>
      </trkpt>
      <trkpt lat="43.68057" lon="1.19545">
        <ele>131.5</ele>
        <time>2015-11-11T13:10:55Z</time>
      </trkpt>
      <trkpt lat="43.68054" lon="1.19537">
        <ele>131.5</ele>
        <time>2015-11-11T13:10:56Z</time>
      </trkpt>
      <trkpt lat="43.6805" lon="1.19529">
        <ele>131.5</ele>
        <time>2015-11-11T13:10:57Z</time>
      </trkpt>
      <trkpt lat="43.68048" lon="1.19519">
        <ele>131.5</ele>
        <time>2015-11-11T13:10:58Z</time>
      </trkpt>
      <trkpt lat="43.68045" lon="1.19511">
        <ele>131.5</ele>
        <time>2015-11-11T13:10:59Z</time>
      </trkpt>
      <trkpt lat="43.6804" lon="1.195">
        <ele>131.5</ele>
        <time>2015-11-11T13:11:00Z</time>
      </trkpt>
      <trkpt lat="43.68038" lon="1.19491">
        <ele>131.5</ele>
        <time>2015-11-11T13:11:01Z</time>
      </trkpt>
      <trkpt lat="43.68033" lon="1.19484">
        <ele>131.5</ele>
        <time>2015-11-11T13:11:02Z</time>
      </trkpt>
      <trkpt lat="43.68028" lon="1.19479">
        <ele>131.3</ele>
        <time>2015-11-11T13:11:03Z</time>
      </trkpt>
      <trkpt lat="43.68024" lon="1.19471">
        <ele>131.3</ele>
        <time>2015-11-11T13:11:04Z</time>
      </trkpt>
      <trkpt lat="43.6802" lon="1.19463">
        <ele>131.2</ele>
        <time>2015-11-11T13:11:05Z</time>
      </trkpt>
      <trkpt lat="43.68014" lon="1.19454">
        <ele>131.1</ele>
        <time>2015-11-11T13:11:06Z</time>
      </trkpt>
      <trkpt lat="43.68009" lon="1.19446">
        <ele>131.1</ele>
        <time>2015-11-11T13:11:07Z</time>
      </trkpt>
      <trkpt lat="43.68005" lon="1.19438">
        <ele>131.2</ele>
        <time>2015-11-11T13:11:08Z</time>
      </trkpt>
      <trkpt lat="43.68" lon="1.19433">
        <ele>131.1</ele>
        <time>2015-11-11T13:11:09Z</time>
      </trkpt>
      <trkpt lat="43.67997" lon="1.19426">
        <ele>131.2</ele>
        <time>2015-11-11T13:11:10Z</time>
      </trkpt>
      <trkpt lat="43.67992" lon="1.19419">
        <ele>131.2</ele>
        <time>2015-11-11T13:11:11Z</time>
      </trkpt>
      <trkpt lat="43.6799" lon="1.19412">
        <ele>131.2</ele>
        <time>2015-11-11T13:11:12Z</time>
      </trkpt>
      <trkpt lat="43.67985" lon="1.19404">
        <ele>131.3</ele>
        <time>2015-11-11T13:11:13Z</time>
      </trkpt>
      <trkpt lat="43.6798" lon="1.19397">
        <ele>131.3</ele>
        <time>2015-11-11T13:11:14Z</time>
      </trkpt>
      <trkpt lat="43.67976" lon="1.19389">
        <ele>131.3</ele>
        <time>2015-11-11T13:11:15Z</time>
      </trkpt>
      <trkpt lat="43.67972" lon="1.19382">
        <ele>131.3</ele>
        <time>2015-11-11T13:11:16Z</time>
      </trkpt>
      <trkpt lat="43.67967" lon="1.19374">
        <ele>131.3</ele>
        <time>2015-11-11T13:11:17Z</time>
      </trkpt>
      <trkpt lat="43.67962" lon="1.19365">
        <ele>131.4</ele>
        <time>2015-11-11T13:11:18Z</time>
      </trkpt>
      <trkpt lat="43.67957" lon="1.19357">
        <ele>131.4</ele>
        <time>2015-11-11T13:11:19Z</time>
      </trkpt>
      <trkpt lat="43.67951" lon="1.19349">
        <ele>131.4</ele>
        <time>2015-11-11T13:11:20Z</time>
      </trkpt>
      <trkpt lat="43.67945" lon="1.19341">
        <ele>131.4</ele>
        <time>2015-11-11T13:11:21Z</time>
      </trkpt>
      <trkpt lat="43.67941" lon="1.19334">
        <ele>131.5</ele>
        <time>2015-11-11T13:11:22Z</time>
      </trkpt>
      <trkpt lat="43.67936" lon="1.19328">
        <ele>131.5</ele>
        <time>2015-11-11T13:11:23Z</time>
      </trkpt>
      <trkpt lat="43.67931" lon="1.19321">
        <ele>131.4</ele>
        <time>2015-11-11T13:11:24Z</time>
      </trkpt>
      <trkpt lat="43.67926" lon="1.19312">
        <ele>131.4</ele>
        <time>2015-11-11T13:11:25Z</time>
      </trkpt>
      <trkpt lat="43.67922" lon="1.19304">
        <ele>131.5</ele>
        <time>2015-11-11T13:11:26Z</time>
      </trkpt>
      <trkpt lat="43.67918" lon="1.19296">
        <ele>131.5</ele>
        <time>2015-11-11T13:11:27Z</time>
      </trkpt>
      <trkpt lat="43.67912" lon="1.19287">
        <ele>131.3</ele>
        <time>2015-11-11T13:11:28Z</time>
      </trkpt>
      <trkpt lat="43.67906" lon="1.19278">
        <ele>131.2</ele>
        <time>2015-11-11T13:11:29Z</time>
      </trkpt>
      <trkpt lat="43.67901" lon="1.19269">
        <ele>131</ele>
        <time>2015-11-11T13:11:30Z</time>
      </trkpt>
      <trkpt lat="43.67895" lon="1.19261">
        <ele>130.8</ele>
        <time>2015-11-11T13:11:31Z</time>
      </trkpt>
      <trkpt lat="43.6789" lon="1.19253">
        <ele>130.6</ele>
        <time>2015-11-11T13:11:32Z</time>
      </trkpt>
      <trkpt lat="43.67883" lon="1.19244">
        <ele>130.3</ele>
        <time>2015-11-11T13:11:33Z</time>
      </trkpt>
      <trkpt lat="43.67876" lon="1.19238">
        <ele>130</ele>
        <time>2015-11-11T13:11:34Z</time>
      </trkpt>
      <trkpt lat="43.67871" lon="1.19233">
        <ele>130</ele>
        <time>2015-11-11T13:11:35Z</time>
      </trkpt>
      <trkpt lat="43.67863" lon="1.19228">
        <ele>129.9</ele>
        <time>2015-11-11T13:11:36Z</time>
      </trkpt>
      <trkpt lat="43.67857" lon="1.19224">
        <ele>129.8</ele>
        <time>2015-11-11T13:11:37Z</time>
      </trkpt>
      <trkpt lat="43.67848" lon="1.1922">
        <ele>129.7</ele>
        <time>2015-11-11T13:11:38Z</time>
      </trkpt>
      <trkpt lat="43.67839" lon="1.1922">
        <ele>129.6</ele>
        <time>2015-11-11T13:11:39Z</time>
      </trkpt>
      <trkpt lat="43.67832" lon="1.19212">
        <ele>129.5</ele>
        <time>2015-11-11T13:11:40Z</time>
      </trkpt>
      <trkpt lat="43.67825" lon="1.19208">
        <ele>129.4</ele>
        <time>2015-11-11T13:11:41Z</time>
      </trkpt>
      <trkpt lat="43.67818" lon="1.19202">
        <ele>129.5</ele>
        <time>2015-11-11T13:11:42Z</time>
      </trkpt>
      <trkpt lat="43.67813" lon="1.19198">
        <ele>129.4</ele>
        <time>2015-11-11T13:11:43Z</time>
      </trkpt>
      <trkpt lat="43.67805" lon="1.19194">
        <ele>129.4</ele>
        <time>2015-11-11T13:11:44Z</time>
      </trkpt>
      <trkpt lat="43.67797" lon="1.19189">
        <ele>129.3</ele>
        <time>2015-11-11T13:11:45Z</time>
      </trkpt>
      <trkpt lat="43.67791" lon="1.19187">
        <ele>129.3</ele>
        <time>2015-11-11T13:11:46Z</time>
      </trkpt>
      <trkpt lat="43.67783" lon="1.19184">
        <ele>129.3</ele>
        <time>2015-11-11T13:11:47Z</time>
      </trkpt>
      <trkpt lat="43.67777" lon="1.1918">
        <ele>129.3</ele>
        <time>2015-11-11T13:11:48Z</time>
      </trkpt>
      <trkpt lat="43.67769" lon="1.19176">
        <ele>129.4</ele>
        <time>2015-11-11T13:11:49Z</time>
      </trkpt>
      <trkpt lat="43.67761" lon="1.19171">
        <ele>129.4</ele>
        <time>2015-11-11T13:11:50Z</time>
      </trkpt>
      <trkpt lat="43.67753" lon="1.19167">
        <ele>129.5</ele>
        <time>2015-11-11T13:11:51Z</time>
      </trkpt>
      <trkpt lat="43.67746" lon="1.19162">
        <ele>129.6</ele>
        <time>2015-11-11T13:11:52Z</time>
      </trkpt>
      <trkpt lat="43.6774" lon="1.19158">
        <ele>129.6</ele>
        <time>2015-11-11T13:11:53Z</time>
      </trkpt>
      <trkpt lat="43.67735" lon="1.19152">
        <ele>129.7</ele>
        <time>2015-11-11T13:11:54Z</time>
      </trkpt>
      <trkpt lat="43.67728" lon="1.19147">
        <ele>129.7</ele>
        <time>2015-11-11T13:11:55Z</time>
      </trkpt>
      <trkpt lat="43.67721" lon="1.19141">
        <ele>129.8</ele>
        <time>2015-11-11T13:11:56Z</time>
      </trkpt>
      <trkpt lat="43.67716" lon="1.19135">
        <ele>129.9</ele>
        <time>2015-11-11T13:11:57Z</time>
      </trkpt>
      <trkpt lat="43.6771" lon="1.19129">
        <ele>130</ele>
        <time>2015-11-11T13:11:58Z</time>
      </trkpt>
      <trkpt lat="43.67702" lon="1.19121">
        <ele>130</ele>
        <time>2015-11-11T13:11:59Z</time>
      </trkpt>
      <trkpt lat="43.67696" lon="1.19113">
        <ele>130</ele>
        <time>2015-11-11T13:12:00Z</time>
      </trkpt>
      <trkpt lat="43.67689" lon="1.19108">
        <ele>130</ele>
        <time>2015-11-11T13:12:01Z</time>
      </trkpt>
      <trkpt lat="43.67682" lon="1.19102">
        <ele>130</ele>
        <time>2015-11-11T13:12:02Z</time>
      </trkpt>
      <trkpt lat="43.67676" lon="1.19099">
        <ele>129.9</ele>
        <time>2015-11-11T13:12:03Z</time>
      </trkpt>
      <trkpt lat="43.67669" lon="1.19094">
        <ele>129.9</ele>
        <time>2015-11-11T13:12:04Z</time>
      </trkpt>
      <trkpt lat="43.67663" lon="1.19086">
        <ele>129.9</ele>
        <time>2015-11-11T13:12:05Z</time>
      </trkpt>
      <trkpt lat="43.67656" lon="1.19079">
        <ele>129.9</ele>
        <time>2015-11-11T13:12:06Z</time>
      </trkpt>
      <trkpt lat="43.67651" lon="1.19071">
        <ele>129.9</ele>
        <time>2015-11-11T13:12:07Z</time>
      </trkpt>
      <trkpt lat="43.67646" lon="1.19064">
        <ele>130</ele>
        <time>2015-11-11T13:12:08Z</time>
      </trkpt>
      <trkpt lat="43.67642" lon="1.19056">
        <ele>130</ele>
        <time>2015-11-11T13:12:09Z</time>
      </trkpt>
      <trkpt lat="43.67636" lon="1.19049">
        <ele>130</ele>
        <time>2015-11-11T13:12:10Z</time>
      </trkpt>
      <trkpt lat="43.6763" lon="1.19043">
        <ele>130</ele>
        <time>2015-11-11T13:12:11Z</time>
      </trkpt>
      <trkpt lat="43.67622" lon="1.19034">
        <ele>130.1</ele>
        <time>2015-11-11T13:12:12Z</time>
      </trkpt>
      <trkpt lat="43.67616" lon="1.19029">
        <ele>130.1</ele>
        <time>2015-11-11T13:12:13Z</time>
      </trkpt>
      <trkpt lat="43.67606" lon="1.19018">
        <ele>130.1</ele>
        <time>2015-11-11T13:12:14Z</time>
      </trkpt>
      <trkpt lat="43.67602" lon="1.19008">
        <ele>130.2</ele>
        <time>2015-11-11T13:12:15Z</time>
      </trkpt>
      <trkpt lat="43.67597" lon="1.19">
        <ele>130.3</ele>
        <time>2015-11-11T13:12:16Z</time>
      </trkpt>
      <trkpt lat="43.67589" lon="1.18993">
        <ele>130.4</ele>
        <time>2015-11-11T13:12:17Z</time>
      </trkpt>
      <trkpt lat="43.67582" lon="1.18986">
        <ele>130.5</ele>
        <time>2015-11-11T13:12:18Z</time>
      </trkpt>
      <trkpt lat="43.67579" lon="1.18985">
        <ele>130.5</ele>
        <time>2015-11-11T13:12:19Z</time>
      </trkpt>
      <trkpt lat="43.67573" lon="1.18978">
        <ele>130.6</ele>
        <time>2015-11-11T13:12:20Z</time>
      </trkpt>
      <trkpt lat="43.67572" lon="1.18971">
        <ele>130.7</ele>
        <time>2015-11-11T13:12:21Z</time>
      </trkpt>
      <trkpt lat="43.67566" lon="1.18965">
        <ele>130.9</ele>
        <time>2015-11-11T13:12:22Z</time>
      </trkpt>
      <trkpt lat="43.67558" lon="1.18958">
        <ele>131</ele>
        <time>2015-11-11T13:12:23Z</time>
      </trkpt>
      <trkpt lat="43.67554" lon="1.18955">
        <ele>131.1</ele>
        <time>2015-11-11T13:12:24Z</time>
      </trkpt>
      <trkpt lat="43.67549" lon="1.18948">
        <ele>131.2</ele>
        <time>2015-11-11T13:12:25Z</time>
      </trkpt>
      <trkpt lat="43.67542" lon="1.18943">
        <ele>131.4</ele>
        <time>2015-11-11T13:12:26Z</time>
      </trkpt>
      <trkpt lat="43.67536" lon="1.18937">
        <ele>131.5</ele>
        <time>2015-11-11T13:12:27Z</time>
      </trkpt>
      <trkpt lat="43.67533" lon="1.18934">
        <ele>131.6</ele>
        <time>2015-11-11T13:12:28Z</time>
      </trkpt>
      <trkpt lat="43.67527" lon="1.18928">
        <ele>131.7</ele>
        <time>2015-11-11T13:12:29Z</time>
      </trkpt>
      <trkpt lat="43.67522" lon="1.18922">
        <ele>131.9</ele>
        <time>2015-11-11T13:12:30Z</time>
      </trkpt>
      <trkpt lat="43.67517" lon="1.18918">
        <ele>132</ele>
        <time>2015-11-11T13:12:31Z</time>
      </trkpt>
      <trkpt lat="43.67511" lon="1.18912">
        <ele>132.1</ele>
        <time>2015-11-11T13:12:32Z</time>
      </trkpt>
      <trkpt lat="43.67504" lon="1.18907">
        <ele>132.2</ele>
        <time>2015-11-11T13:12:33Z</time>
      </trkpt>
      <trkpt lat="43.67499" lon="1.18901">
        <ele>132.4</ele>
        <time>2015-11-11T13:12:34Z</time>
      </trkpt>
      <trkpt lat="43.67492" lon="1.18895">
        <ele>132.5</ele>
        <time>2015-11-11T13:12:35Z</time>
      </trkpt>
      <trkpt lat="43.67486" lon="1.18891">
        <ele>132.6</ele>
        <time>2015-11-11T13:12:36Z</time>
      </trkpt>
      <trkpt lat="43.67479" lon="1.18884">
        <ele>132.8</ele>
        <time>2015-11-11T13:12:37Z</time>
      </trkpt>
      <trkpt lat="43.67476" lon="1.18882">
        <ele>132.8</ele>
        <time>2015-11-11T13:12:38Z</time>
      </trkpt>
      <trkpt lat="43.6747" lon="1.18876">
        <ele>133</ele>
        <time>2015-11-11T13:12:39Z</time>
      </trkpt>
      <trkpt lat="43.67463" lon="1.18871">
        <ele>133</ele>
        <time>2015-11-11T13:12:40Z</time>
      </trkpt>
      <trkpt lat="43.67459" lon="1.18868">
        <ele>133</ele>
        <time>2015-11-11T13:12:41Z</time>
      </trkpt>
      <trkpt lat="43.67452" lon="1.1886">
        <ele>132.9</ele>
        <time>2015-11-11T13:12:42Z</time>
      </trkpt>
      <trkpt lat="43.67446" lon="1.18853">
        <ele>132.8</ele>
        <time>2015-11-11T13:12:43Z</time>
      </trkpt>
      <trkpt lat="43.6744" lon="1.18847">
        <ele>132.7</ele>
        <time>2015-11-11T13:12:44Z</time>
      </trkpt>
      <trkpt lat="43.67434" lon="1.18841">
        <ele>132.6</ele>
        <time>2015-11-11T13:12:45Z</time>
      </trkpt>
      <trkpt lat="43.67428" lon="1.18836">
        <ele>132.5</ele>
        <time>2015-11-11T13:12:46Z</time>
      </trkpt>
      <trkpt lat="43.67421" lon="1.18829">
        <ele>132.3</ele>
        <time>2015-11-11T13:12:47Z</time>
      </trkpt>
      <trkpt lat="43.67415" lon="1.18823">
        <ele>132.2</ele>
        <time>2015-11-11T13:12:48Z</time>
      </trkpt>
      <trkpt lat="43.67409" lon="1.18817">
        <ele>132</ele>
        <time>2015-11-11T13:12:49Z</time>
      </trkpt>
      <trkpt lat="43.67403" lon="1.18811">
        <ele>131.8</ele>
        <time>2015-11-11T13:12:50Z</time>
      </trkpt>
      <trkpt lat="43.67394" lon="1.18805">
        <ele>131.6</ele>
        <time>2015-11-11T13:12:51Z</time>
      </trkpt>
      <trkpt lat="43.6739" lon="1.18799">
        <ele>131.4</ele>
        <time>2015-11-11T13:12:52Z</time>
      </trkpt>
      <trkpt lat="43.67384" lon="1.18795">
        <ele>131.2</ele>
        <time>2015-11-11T13:12:53Z</time>
      </trkpt>
      <trkpt lat="43.67378" lon="1.18785">
        <ele>131.2</ele>
        <time>2015-11-11T13:12:54Z</time>
      </trkpt>
      <trkpt lat="43.6737" lon="1.18777">
        <ele>131.2</ele>
        <time>2015-11-11T13:12:55Z</time>
      </trkpt>
      <trkpt lat="43.67363" lon="1.1877">
        <ele>131</ele>
        <time>2015-11-11T13:12:56Z</time>
      </trkpt>
      <trkpt lat="43.67357" lon="1.18763">
        <ele>130.9</ele>
        <time>2015-11-11T13:12:57Z</time>
      </trkpt>
      <trkpt lat="43.67351" lon="1.18756">
        <ele>130.7</ele>
        <time>2015-11-11T13:12:58Z</time>
      </trkpt>
      <trkpt lat="43.67346" lon="1.18752">
        <ele>130.6</ele>
        <time>2015-11-11T13:12:59Z</time>
      </trkpt>
      <trkpt lat="43.67341" lon="1.18746">
        <ele>130.4</ele>
        <time>2015-11-11T13:13:00Z</time>
      </trkpt>
      <trkpt lat="43.67337" lon="1.1874">
        <ele>130.3</ele>
        <time>2015-11-11T13:13:01Z</time>
      </trkpt>
      <trkpt lat="43.67333" lon="1.18733">
        <ele>130.2</ele>
        <time>2015-11-11T13:13:02Z</time>
      </trkpt>
      <trkpt lat="43.67328" lon="1.18727">
        <ele>130</ele>
        <time>2015-11-11T13:13:03Z</time>
      </trkpt>
      <trkpt lat="43.67324" lon="1.18718">
        <ele>129.8</ele>
        <time>2015-11-11T13:13:04Z</time>
      </trkpt>
      <trkpt lat="43.6732" lon="1.1871">
        <ele>129.7</ele>
        <time>2015-11-11T13:13:05Z</time>
      </trkpt>
      <trkpt lat="43.67319" lon="1.187">
        <ele>129.8</ele>
        <time>2015-11-11T13:13:06Z</time>
      </trkpt>
      <trkpt lat="43.67314" lon="1.1869">
        <ele>129.8</ele>
        <time>2015-11-11T13:13:07Z</time>
      </trkpt>
      <trkpt lat="43.67316" lon="1.18685">
        <ele>130</ele>
        <time>2015-11-11T13:13:08Z</time>
      </trkpt>
      <trkpt lat="43.67311" lon="1.18677">
        <ele>129.9</ele>
        <time>2015-11-11T13:13:09Z</time>
      </trkpt>
      <trkpt lat="43.67307" lon="1.18669">
        <ele>129.9</ele>
        <time>2015-11-11T13:13:10Z</time>
      </trkpt>
      <trkpt lat="43.67305" lon="1.18661">
        <ele>130</ele>
        <time>2015-11-11T13:13:11Z</time>
      </trkpt>
      <trkpt lat="43.67301" lon="1.18651">
        <ele>129.9</ele>
        <time>2015-11-11T13:13:12Z</time>
      </trkpt>
      <trkpt lat="43.67294" lon="1.18645">
        <ele>129.6</ele>
        <time>2015-11-11T13:13:13Z</time>
      </trkpt>
      <trkpt lat="43.67289" lon="1.18633">
        <ele>129.8</ele>
        <time>2015-11-11T13:13:14Z</time>
      </trkpt>
      <trkpt lat="43.67284" lon="1.18622">
        <ele>130</ele>
        <time>2015-11-11T13:13:15Z</time>
      </trkpt>
      <trkpt lat="43.67279" lon="1.18611">
        <ele>130.2</ele>
        <time>2015-11-11T13:13:16Z</time>
      </trkpt>
      <trkpt lat="43.67275" lon="1.18601">
        <ele>130.3</ele>
        <time>2015-11-11T13:13:17Z</time>
      </trkpt>
      <trkpt lat="43.67271" lon="1.18592">
        <ele>130.4</ele>
        <time>2015-11-11T13:13:18Z</time>
      </trkpt>
      <trkpt lat="43.67267" lon="1.18583">
        <ele>130.5</ele>
        <time>2015-11-11T13:13:19Z</time>
      </trkpt>
      <trkpt lat="43.67263" lon="1.18575">
        <ele>130.6</ele>
        <time>2015-11-11T13:13:20Z</time>
      </trkpt>
      <trkpt lat="43.67259" lon="1.18566">
        <ele>130.7</ele>
        <time>2015-11-11T13:13:21Z</time>
      </trkpt>
      <trkpt lat="43.67255" lon="1.18557">
        <ele>130.8</ele>
        <time>2015-11-11T13:13:22Z</time>
      </trkpt>
      <trkpt lat="43.67251" lon="1.18549">
        <ele>130.9</ele>
        <time>2015-11-11T13:13:23Z</time>
      </trkpt>
      <trkpt lat="43.67247" lon="1.1854">
        <ele>131</ele>
        <time>2015-11-11T13:13:24Z</time>
      </trkpt>
      <trkpt lat="43.67243" lon="1.18531">
        <ele>131.1</ele>
        <time>2015-11-11T13:13:25Z</time>
      </trkpt>
      <trkpt lat="43.6724" lon="1.18524">
        <ele>131.1</ele>
        <time>2015-11-11T13:13:26Z</time>
      </trkpt>
      <trkpt lat="43.67236" lon="1.18514">
        <ele>131</ele>
        <time>2015-11-11T13:13:27Z</time>
      </trkpt>
      <trkpt lat="43.67232" lon="1.18507">
        <ele>130.9</ele>
        <time>2015-11-11T13:13:28Z</time>
      </trkpt>
      <trkpt lat="43.67228" lon="1.18499">
        <ele>130.7</ele>
        <time>2015-11-11T13:13:29Z</time>
      </trkpt>
      <trkpt lat="43.67224" lon="1.18493">
        <ele>130.5</ele>
        <time>2015-11-11T13:13:30Z</time>
      </trkpt>
      <trkpt lat="43.67221" lon="1.18486">
        <ele>130.3</ele>
        <time>2015-11-11T13:13:31Z</time>
      </trkpt>
      <trkpt lat="43.67217" lon="1.18477">
        <ele>129.9</ele>
        <time>2015-11-11T13:13:32Z</time>
      </trkpt>
      <trkpt lat="43.67213" lon="1.1847">
        <ele>129.6</ele>
        <time>2015-11-11T13:13:33Z</time>
      </trkpt>
      <trkpt lat="43.67208" lon="1.18462">
        <ele>129.1</ele>
        <time>2015-11-11T13:13:34Z</time>
      </trkpt>
      <trkpt lat="43.67204" lon="1.18454">
        <ele>129.1</ele>
        <time>2015-11-11T13:13:35Z</time>
      </trkpt>
      <trkpt lat="43.672" lon="1.18446">
        <ele>129.3</ele>
        <time>2015-11-11T13:13:36Z</time>
      </trkpt>
      <trkpt lat="43.67195" lon="1.18438">
        <ele>129.5</ele>
        <time>2015-11-11T13:13:37Z</time>
      </trkpt>
      <trkpt lat="43.67191" lon="1.1843">
        <ele>129.7</ele>
        <time>2015-11-11T13:13:38Z</time>
      </trkpt>
      <trkpt lat="43.67186" lon="1.18421">
        <ele>129.8</ele>
        <time>2015-11-11T13:13:39Z</time>
      </trkpt>
      <trkpt lat="43.67183" lon="1.18415">
        <ele>129.8</ele>
        <time>2015-11-11T13:13:40Z</time>
      </trkpt>
      <trkpt lat="43.67178" lon="1.18407">
        <ele>129.9</ele>
        <time>2015-11-11T13:13:41Z</time>
      </trkpt>
      <trkpt lat="43.67174" lon="1.18398">
        <ele>129.9</ele>
        <time>2015-11-11T13:13:42Z</time>
      </trkpt>
      <trkpt lat="43.67169" lon="1.1839">
        <ele>129.8</ele>
        <time>2015-11-11T13:13:43Z</time>
      </trkpt>
      <trkpt lat="43.67164" lon="1.18382">
        <ele>129.6</ele>
        <time>2015-11-11T13:13:44Z</time>
      </trkpt>
      <trkpt lat="43.6716" lon="1.18374">
        <ele>129.6</ele>
        <time>2015-11-11T13:13:45Z</time>
      </trkpt>
      <trkpt lat="43.67156" lon="1.18365">
        <ele>129.7</ele>
        <time>2015-11-11T13:13:46Z</time>
      </trkpt>
      <trkpt lat="43.67149" lon="1.18357">
        <ele>129.7</ele>
        <time>2015-11-11T13:13:47Z</time>
      </trkpt>
      <trkpt lat="43.67145" lon="1.18349">
        <ele>129.7</ele>
        <time>2015-11-11T13:13:48Z</time>
      </trkpt>
      <trkpt lat="43.67142" lon="1.18341">
        <ele>129.9</ele>
        <time>2015-11-11T13:13:49Z</time>
      </trkpt>
      <trkpt lat="43.67137" lon="1.18334">
        <ele>129.9</ele>
        <time>2015-11-11T13:13:50Z</time>
      </trkpt>
      <trkpt lat="43.67132" lon="1.18326">
        <ele>129.9</ele>
        <time>2015-11-11T13:13:51Z</time>
      </trkpt>
      <trkpt lat="43.67127" lon="1.18322">
        <ele>129.7</ele>
        <time>2015-11-11T13:13:52Z</time>
      </trkpt>
      <trkpt lat="43.67122" lon="1.18315">
        <ele>129.8</ele>
        <time>2015-11-11T13:13:53Z</time>
      </trkpt>
      <trkpt lat="43.67117" lon="1.18307">
        <ele>129.9</ele>
        <time>2015-11-11T13:13:54Z</time>
      </trkpt>
      <trkpt lat="43.67111" lon="1.18301">
        <ele>130</ele>
        <time>2015-11-11T13:13:55Z</time>
      </trkpt>
      <trkpt lat="43.67105" lon="1.18291">
        <ele>130.1</ele>
        <time>2015-11-11T13:13:56Z</time>
      </trkpt>
      <trkpt lat="43.671" lon="1.18284">
        <ele>130.2</ele>
        <time>2015-11-11T13:13:57Z</time>
      </trkpt>
      <trkpt lat="43.67095" lon="1.1828">
        <ele>130.1</ele>
        <time>2015-11-11T13:13:58Z</time>
      </trkpt>
      <trkpt lat="43.67089" lon="1.18274">
        <ele>130.1</ele>
        <time>2015-11-11T13:13:59Z</time>
      </trkpt>
      <trkpt lat="43.67081" lon="1.18266">
        <ele>130.1</ele>
        <time>2015-11-11T13:14:00Z</time>
      </trkpt>
      <trkpt lat="43.67074" lon="1.18262">
        <ele>130</ele>
        <time>2015-11-11T13:14:01Z</time>
      </trkpt>
      <trkpt lat="43.67068" lon="1.18257">
        <ele>129.9</ele>
        <time>2015-11-11T13:14:02Z</time>
      </trkpt>
      <trkpt lat="43.67064" lon="1.1825">
        <ele>130</ele>
        <time>2015-11-11T13:14:03Z</time>
      </trkpt>
      <trkpt lat="43.67057" lon="1.18244">
        <ele>130.1</ele>
        <time>2015-11-11T13:14:04Z</time>
      </trkpt>
      <trkpt lat="43.67051" lon="1.18239">
        <ele>129.9</ele>
        <time>2015-11-11T13:14:05Z</time>
      </trkpt>
      <trkpt lat="43.67044" lon="1.18235">
        <ele>129.8</ele>
        <time>2015-11-11T13:14:06Z</time>
      </trkpt>
      <trkpt lat="43.67042" lon="1.18232">
        <ele>129.8</ele>
        <time>2015-11-11T13:14:07Z</time>
      </trkpt>
      <trkpt lat="43.67039" lon="1.18228">
        <ele>130</ele>
        <time>2015-11-11T13:14:08Z</time>
      </trkpt>
      <trkpt lat="43.67032" lon="1.18221">
        <ele>130.3</ele>
        <time>2015-11-11T13:14:09Z</time>
      </trkpt>
      <trkpt lat="43.67025" lon="1.18215">
        <ele>130.5</ele>
        <time>2015-11-11T13:14:10Z</time>
      </trkpt>
      <trkpt lat="43.67017" lon="1.1821">
        <ele>130.6</ele>
        <time>2015-11-11T13:14:11Z</time>
      </trkpt>
      <trkpt lat="43.67011" lon="1.18203">
        <ele>130.9</ele>
        <time>2015-11-11T13:14:12Z</time>
      </trkpt>
      <trkpt lat="43.67006" lon="1.182">
        <ele>130.9</ele>
        <time>2015-11-11T13:14:13Z</time>
      </trkpt>
      <trkpt lat="43.67001" lon="1.18193">
        <ele>131.2</ele>
        <time>2015-11-11T13:14:14Z</time>
      </trkpt>
      <trkpt lat="43.66993" lon="1.18187">
        <ele>131.3</ele>
        <time>2015-11-11T13:14:15Z</time>
      </trkpt>
      <trkpt lat="43.66987" lon="1.18182">
        <ele>131.4</ele>
        <time>2015-11-11T13:14:16Z</time>
      </trkpt>
      <trkpt lat="43.66982" lon="1.18178">
        <ele>131.5</ele>
        <time>2015-11-11T13:14:17Z</time>
      </trkpt>
      <trkpt lat="43.66975" lon="1.18171">
        <ele>131.6</ele>
        <time>2015-11-11T13:14:18Z</time>
      </trkpt>
      <trkpt lat="43.66969" lon="1.18166">
        <ele>131.7</ele>
        <time>2015-11-11T13:14:19Z</time>
      </trkpt>
      <trkpt lat="43.66962" lon="1.18161">
        <ele>131.8</ele>
        <time>2015-11-11T13:14:20Z</time>
      </trkpt>
      <trkpt lat="43.66955" lon="1.18156">
        <ele>131.9</ele>
        <time>2015-11-11T13:14:21Z</time>
      </trkpt>
      <trkpt lat="43.66947" lon="1.18149">
        <ele>132.1</ele>
        <time>2015-11-11T13:14:22Z</time>
      </trkpt>
      <trkpt lat="43.6694" lon="1.18143">
        <ele>132.4</ele>
        <time>2015-11-11T13:14:23Z</time>
      </trkpt>
      <trkpt lat="43.66934" lon="1.18139">
        <ele>132.5</ele>
        <time>2015-11-11T13:14:24Z</time>
      </trkpt>
      <trkpt lat="43.66927" lon="1.18135">
        <ele>132.6</ele>
        <time>2015-11-11T13:14:25Z</time>
      </trkpt>
      <trkpt lat="43.6692" lon="1.18131">
        <ele>132.8</ele>
        <time>2015-11-11T13:14:26Z</time>
      </trkpt>
      <trkpt lat="43.66914" lon="1.18126">
        <ele>133</ele>
        <time>2015-11-11T13:14:27Z</time>
      </trkpt>
      <trkpt lat="43.66906" lon="1.18121">
        <ele>133</ele>
        <time>2015-11-11T13:14:28Z</time>
      </trkpt>
      <trkpt lat="43.66899" lon="1.18116">
        <ele>132.9</ele>
        <time>2015-11-11T13:14:29Z</time>
      </trkpt>
      <trkpt lat="43.66891" lon="1.18111">
        <ele>132.8</ele>
        <time>2015-11-11T13:14:30Z</time>
      </trkpt>
      <trkpt lat="43.66885" lon="1.18109">
        <ele>132.7</ele>
        <time>2015-11-11T13:14:31Z</time>
      </trkpt>
      <trkpt lat="43.66877" lon="1.18105">
        <ele>132.5</ele>
        <time>2015-11-11T13:14:32Z</time>
      </trkpt>
      <trkpt lat="43.66871" lon="1.18102">
        <ele>132.3</ele>
        <time>2015-11-11T13:14:33Z</time>
      </trkpt>
      <trkpt lat="43.66864" lon="1.18098">
        <ele>132.1</ele>
        <time>2015-11-11T13:14:34Z</time>
      </trkpt>
      <trkpt lat="43.66857" lon="1.18094">
        <ele>131.8</ele>
        <time>2015-11-11T13:14:35Z</time>
      </trkpt>
      <trkpt lat="43.66852" lon="1.18093">
        <ele>131.7</ele>
        <time>2015-11-11T13:14:36Z</time>
      </trkpt>
      <trkpt lat="43.66846" lon="1.18088">
        <ele>131.5</ele>
        <time>2015-11-11T13:14:37Z</time>
      </trkpt>
      <trkpt lat="43.66839" lon="1.18085">
        <ele>131.4</ele>
        <time>2015-11-11T13:14:38Z</time>
      </trkpt>
      <trkpt lat="43.66834" lon="1.18085">
        <ele>131.3</ele>
        <time>2015-11-11T13:14:39Z</time>
      </trkpt>
      <trkpt lat="43.66829" lon="1.18081">
        <ele>131.2</ele>
        <time>2015-11-11T13:14:40Z</time>
      </trkpt>
      <trkpt lat="43.66824" lon="1.18078">
        <ele>131.1</ele>
        <time>2015-11-11T13:14:41Z</time>
      </trkpt>
      <trkpt lat="43.66818" lon="1.18075">
        <ele>131</ele>
        <time>2015-11-11T13:14:42Z</time>
      </trkpt>
      <trkpt lat="43.66811" lon="1.18074">
        <ele>130.9</ele>
        <time>2015-11-11T13:14:43Z</time>
      </trkpt>
      <trkpt lat="43.66804" lon="1.18068">
        <ele>130.8</ele>
        <time>2015-11-11T13:14:44Z</time>
      </trkpt>
      <trkpt lat="43.66798" lon="1.18062">
        <ele>130.8</ele>
        <time>2015-11-11T13:14:45Z</time>
      </trkpt>
      <trkpt lat="43.66793" lon="1.18055">
        <ele>130.8</ele>
        <time>2015-11-11T13:14:46Z</time>
      </trkpt>
      <trkpt lat="43.66785" lon="1.18048">
        <ele>130.9</ele>
        <time>2015-11-11T13:14:47Z</time>
      </trkpt>
      <trkpt lat="43.66779" lon="1.18043">
        <ele>131</ele>
        <time>2015-11-11T13:14:48Z</time>
      </trkpt>
      <trkpt lat="43.66772" lon="1.18037">
        <ele>131</ele>
        <time>2015-11-11T13:14:49Z</time>
      </trkpt>
      <trkpt lat="43.66769" lon="1.18031">
        <ele>131</ele>
        <time>2015-11-11T13:14:50Z</time>
      </trkpt>
      <trkpt lat="43.66761" lon="1.18025">
        <ele>131.1</ele>
        <time>2015-11-11T13:14:51Z</time>
      </trkpt>
      <trkpt lat="43.66754" lon="1.1802">
        <ele>131.1</ele>
        <time>2015-11-11T13:14:52Z</time>
      </trkpt>
      <trkpt lat="43.66746" lon="1.18014">
        <ele>131.2</ele>
        <time>2015-11-11T13:14:53Z</time>
      </trkpt>
      <trkpt lat="43.66738" lon="1.1801">
        <ele>131.2</ele>
        <time>2015-11-11T13:14:54Z</time>
      </trkpt>
      <trkpt lat="43.6673" lon="1.18">
        <ele>131.4</ele>
        <time>2015-11-11T13:14:55Z</time>
      </trkpt>
      <trkpt lat="43.66722" lon="1.17995">
        <ele>131.5</ele>
        <time>2015-11-11T13:14:56Z</time>
      </trkpt>
      <trkpt lat="43.66719" lon="1.17992">
        <ele>131.5</ele>
        <time>2015-11-11T13:14:57Z</time>
      </trkpt>
      <trkpt lat="43.66715" lon="1.17989">
        <ele>131.6</ele>
        <time>2015-11-11T13:14:58Z</time>
      </trkpt>
      <trkpt lat="43.66709" lon="1.17984">
        <ele>131.7</ele>
        <time>2015-11-11T13:14:59Z</time>
      </trkpt>
      <trkpt lat="43.66704" lon="1.17979">
        <ele>131.6</ele>
        <time>2015-11-11T13:15:00Z</time>
      </trkpt>
      <trkpt lat="43.66699" lon="1.17972">
        <ele>131.6</ele>
        <time>2015-11-11T13:15:01Z</time>
      </trkpt>
      <trkpt lat="43.66696" lon="1.17967">
        <ele>131.6</ele>
        <time>2015-11-11T13:15:02Z</time>
      </trkpt>
      <trkpt lat="43.66691" lon="1.17963">
        <ele>131.5</ele>
        <time>2015-11-11T13:15:03Z</time>
      </trkpt>
      <trkpt lat="43.66689" lon="1.17956">
        <ele>131.6</ele>
        <time>2015-11-11T13:15:04Z</time>
      </trkpt>
      <trkpt lat="43.66686" lon="1.17949">
        <ele>131.7</ele>
        <time>2015-11-11T13:15:05Z</time>
      </trkpt>
      <trkpt lat="43.66682" lon="1.17942">
        <ele>131.7</ele>
        <time>2015-11-11T13:15:06Z</time>
      </trkpt>
      <trkpt lat="43.66677" lon="1.17934">
        <ele>131.7</ele>
        <time>2015-11-11T13:15:07Z</time>
      </trkpt>
      <trkpt lat="43.66673" lon="1.17929">
        <ele>131.7</ele>
        <time>2015-11-11T13:15:08Z</time>
      </trkpt>
      <trkpt lat="43.66668" lon="1.17922">
        <ele>131.7</ele>
        <time>2015-11-11T13:15:09Z</time>
      </trkpt>
      <trkpt lat="43.66664" lon="1.17916">
        <ele>131.7</ele>
        <time>2015-11-11T13:15:10Z</time>
      </trkpt>
      <trkpt lat="43.66658" lon="1.17909">
        <ele>131.6</ele>
        <time>2015-11-11T13:15:11Z</time>
      </trkpt>
      <trkpt lat="43.66652" lon="1.17903">
        <ele>131.5</ele>
        <time>2015-11-11T13:15:12Z</time>
      </trkpt>
      <trkpt lat="43.6665" lon="1.17899">
        <ele>131.5</ele>
        <time>2015-11-11T13:15:13Z</time>
      </trkpt>
      <trkpt lat="43.66646" lon="1.17893">
        <ele>131.5</ele>
        <time>2015-11-11T13:15:14Z</time>
      </trkpt>
      <trkpt lat="43.6664" lon="1.17885">
        <ele>131.4</ele>
        <time>2015-11-11T13:15:15Z</time>
      </trkpt>
      <trkpt lat="43.66635" lon="1.17878">
        <ele>131.3</ele>
        <time>2015-11-11T13:15:16Z</time>
      </trkpt>
      <trkpt lat="43.6663" lon="1.1787">
        <ele>131.4</ele>
        <time>2015-11-11T13:15:17Z</time>
      </trkpt>
      <trkpt lat="43.66626" lon="1.17864">
        <ele>131.5</ele>
        <time>2015-11-11T13:15:18Z</time>
      </trkpt>
      <trkpt lat="43.66621" lon="1.17857">
        <ele>131.7</ele>
        <time>2015-11-11T13:15:19Z</time>
      </trkpt>
      <trkpt lat="43.66617" lon="1.1785">
        <ele>131.8</ele>
        <time>2015-11-11T13:15:20Z</time>
      </trkpt>
      <trkpt lat="43.66615" lon="1.17844">
        <ele>132</ele>
        <time>2015-11-11T13:15:21Z</time>
      </trkpt>
      <trkpt lat="43.6661" lon="1.17837">
        <ele>132.1</ele>
        <time>2015-11-11T13:15:22Z</time>
      </trkpt>
      <trkpt lat="43.66605" lon="1.17828">
        <ele>132.1</ele>
        <time>2015-11-11T13:15:23Z</time>
      </trkpt>
      <trkpt lat="43.666" lon="1.1782">
        <ele>132.1</ele>
        <time>2015-11-11T13:15:24Z</time>
      </trkpt>
      <trkpt lat="43.66594" lon="1.17814">
        <ele>132</ele>
        <time>2015-11-11T13:15:25Z</time>
      </trkpt>
      <trkpt lat="43.66589" lon="1.17806">
        <ele>132</ele>
        <time>2015-11-11T13:15:26Z</time>
      </trkpt>
      <trkpt lat="43.66584" lon="1.17798">
        <ele>131.8</ele>
        <time>2015-11-11T13:15:27Z</time>
      </trkpt>
      <trkpt lat="43.66579" lon="1.1779">
        <ele>131.8</ele>
        <time>2015-11-11T13:15:28Z</time>
      </trkpt>
      <trkpt lat="43.66576" lon="1.17784">
        <ele>131.9</ele>
        <time>2015-11-11T13:15:29Z</time>
      </trkpt>
      <trkpt lat="43.66571" lon="1.17777">
        <ele>132</ele>
        <time>2015-11-11T13:15:30Z</time>
      </trkpt>
      <trkpt lat="43.66569" lon="1.17769">
        <ele>132.3</ele>
        <time>2015-11-11T13:15:31Z</time>
      </trkpt>
      <trkpt lat="43.66566" lon="1.17762">
        <ele>132.4</ele>
        <time>2015-11-11T13:15:32Z</time>
      </trkpt>
      <trkpt lat="43.66561" lon="1.17755">
        <ele>132.5</ele>
        <time>2015-11-11T13:15:33Z</time>
      </trkpt>
      <trkpt lat="43.66558" lon="1.17749">
        <ele>132.5</ele>
        <time>2015-11-11T13:15:34Z</time>
      </trkpt>
      <trkpt lat="43.66554" lon="1.1774">
        <ele>132.7</ele>
        <time>2015-11-11T13:15:35Z</time>
      </trkpt>
      <trkpt lat="43.66551" lon="1.1773">
        <ele>132.9</ele>
        <time>2015-11-11T13:15:36Z</time>
      </trkpt>
      <trkpt lat="43.66547" lon="1.17723">
        <ele>132.8</ele>
        <time>2015-11-11T13:15:37Z</time>
      </trkpt>
      <trkpt lat="43.66543" lon="1.17716">
        <ele>132.8</ele>
        <time>2015-11-11T13:15:38Z</time>
      </trkpt>
      <trkpt lat="43.6654" lon="1.17707">
        <ele>133</ele>
        <time>2015-11-11T13:15:39Z</time>
      </trkpt>
      <trkpt lat="43.66536" lon="1.17697">
        <ele>133.3</ele>
        <time>2015-11-11T13:15:40Z</time>
      </trkpt>
      <trkpt lat="43.66534" lon="1.17688">
        <ele>133.7</ele>
        <time>2015-11-11T13:15:41Z</time>
      </trkpt>
      <trkpt lat="43.6653" lon="1.17681">
        <ele>133.8</ele>
        <time>2015-11-11T13:15:42Z</time>
      </trkpt>
      <trkpt lat="43.66527" lon="1.17675">
        <ele>133.9</ele>
        <time>2015-11-11T13:15:43Z</time>
      </trkpt>
      <trkpt lat="43.66523" lon="1.17668">
        <ele>134.1</ele>
        <time>2015-11-11T13:15:44Z</time>
      </trkpt>
      <trkpt lat="43.66519" lon="1.17662">
        <ele>134.1</ele>
        <time>2015-11-11T13:15:45Z</time>
      </trkpt>
      <trkpt lat="43.66517" lon="1.17654">
        <ele>134.3</ele>
        <time>2015-11-11T13:15:46Z</time>
      </trkpt>
      <trkpt lat="43.66514" lon="1.17644">
        <ele>134.6</ele>
        <time>2015-11-11T13:15:47Z</time>
      </trkpt>
      <trkpt lat="43.66512" lon="1.17635">
        <ele>134.8</ele>
        <time>2015-11-11T13:15:48Z</time>
      </trkpt>
      <trkpt lat="43.6651" lon="1.17626">
        <ele>135.1</ele>
        <time>2015-11-11T13:15:49Z</time>
      </trkpt>
      <trkpt lat="43.66507" lon="1.17616">
        <ele>135.1</ele>
        <time>2015-11-11T13:15:50Z</time>
      </trkpt>
      <trkpt lat="43.66504" lon="1.17609">
        <ele>135.1</ele>
        <time>2015-11-11T13:15:51Z</time>
      </trkpt>
      <trkpt lat="43.66502" lon="1.176">
        <ele>135.2</ele>
        <time>2015-11-11T13:15:52Z</time>
      </trkpt>
      <trkpt lat="43.665" lon="1.17592">
        <ele>135.3</ele>
        <time>2015-11-11T13:15:53Z</time>
      </trkpt>
      <trkpt lat="43.66497" lon="1.17584">
        <ele>135.2</ele>
        <time>2015-11-11T13:15:54Z</time>
      </trkpt>
      <trkpt lat="43.66493" lon="1.17575">
        <ele>135.2</ele>
        <time>2015-11-11T13:15:55Z</time>
      </trkpt>
      <trkpt lat="43.66491" lon="1.17567">
        <ele>135.2</ele>
        <time>2015-11-11T13:15:56Z</time>
      </trkpt>
      <trkpt lat="43.6649" lon="1.17559">
        <ele>135.3</ele>
        <time>2015-11-11T13:15:57Z</time>
      </trkpt>
      <trkpt lat="43.66487" lon="1.17551">
        <ele>135.2</ele>
        <time>2015-11-11T13:15:58Z</time>
      </trkpt>
      <trkpt lat="43.66484" lon="1.17544">
        <ele>135.2</ele>
        <time>2015-11-11T13:15:59Z</time>
      </trkpt>
      <trkpt lat="43.66481" lon="1.17534">
        <ele>135.2</ele>
        <time>2015-11-11T13:16:00Z</time>
      </trkpt>
      <trkpt lat="43.66478" lon="1.17525">
        <ele>135.3</ele>
        <time>2015-11-11T13:16:01Z</time>
      </trkpt>
      <trkpt lat="43.66475" lon="1.17516">
        <ele>135.3</ele>
        <time>2015-11-11T13:16:02Z</time>
      </trkpt>
      <trkpt lat="43.66472" lon="1.17507">
        <ele>135.4</ele>
        <time>2015-11-11T13:16:03Z</time>
      </trkpt>
      <trkpt lat="43.66469" lon="1.17498">
        <ele>135.5</ele>
        <time>2015-11-11T13:16:04Z</time>
      </trkpt>
      <trkpt lat="43.66466" lon="1.17489">
        <ele>135.5</ele>
        <time>2015-11-11T13:16:05Z</time>
      </trkpt>
      <trkpt lat="43.66462" lon="1.17481">
        <ele>135.5</ele>
        <time>2015-11-11T13:16:06Z</time>
      </trkpt>
      <trkpt lat="43.66459" lon="1.17473">
        <ele>135.6</ele>
        <time>2015-11-11T13:16:07Z</time>
      </trkpt>
      <trkpt lat="43.66456" lon="1.17463">
        <ele>135.7</ele>
        <time>2015-11-11T13:16:08Z</time>
      </trkpt>
      <trkpt lat="43.66453" lon="1.17452">
        <ele>135.7</ele>
        <time>2015-11-11T13:16:09Z</time>
      </trkpt>
      <trkpt lat="43.66449" lon="1.17445">
        <ele>135.4</ele>
        <time>2015-11-11T13:16:10Z</time>
      </trkpt>
      <trkpt lat="43.66445" lon="1.17437">
        <ele>135.3</ele>
        <time>2015-11-11T13:16:11Z</time>
      </trkpt>
      <trkpt lat="43.66442" lon="1.17428">
        <ele>135.1</ele>
        <time>2015-11-11T13:16:12Z</time>
      </trkpt>
      <trkpt lat="43.66438" lon="1.17421">
        <ele>134.8</ele>
        <time>2015-11-11T13:16:13Z</time>
      </trkpt>
      <trkpt lat="43.66433" lon="1.17413">
        <ele>134.6</ele>
        <time>2015-11-11T13:16:14Z</time>
      </trkpt>
      <trkpt lat="43.6643" lon="1.17403">
        <ele>134.4</ele>
        <time>2015-11-11T13:16:15Z</time>
      </trkpt>
      <trkpt lat="43.66424" lon="1.17394">
        <ele>134</ele>
        <time>2015-11-11T13:16:16Z</time>
      </trkpt>
      <trkpt lat="43.66419" lon="1.17385">
        <ele>133.6</ele>
        <time>2015-11-11T13:16:17Z</time>
      </trkpt>
      <trkpt lat="43.66414" lon="1.17377">
        <ele>133.3</ele>
        <time>2015-11-11T13:16:18Z</time>
      </trkpt>
      <trkpt lat="43.66409" lon="1.17369">
        <ele>133.1</ele>
        <time>2015-11-11T13:16:19Z</time>
      </trkpt>
      <trkpt lat="43.66402" lon="1.1736">
        <ele>132.9</ele>
        <time>2015-11-11T13:16:20Z</time>
      </trkpt>
      <trkpt lat="43.66397" lon="1.17353">
        <ele>132.8</ele>
        <time>2015-11-11T13:16:21Z</time>
      </trkpt>
      <trkpt lat="43.66392" lon="1.17344">
        <ele>132.8</ele>
        <time>2015-11-11T13:16:22Z</time>
      </trkpt>
      <trkpt lat="43.66387" lon="1.17336">
        <ele>132.8</ele>
        <time>2015-11-11T13:16:23Z</time>
      </trkpt>
      <trkpt lat="43.66382" lon="1.17328">
        <ele>132.7</ele>
        <time>2015-11-11T13:16:24Z</time>
      </trkpt>
      <trkpt lat="43.66376" lon="1.17321">
        <ele>132.7</ele>
        <time>2015-11-11T13:16:25Z</time>
      </trkpt>
      <trkpt lat="43.66372" lon="1.17314">
        <ele>132.8</ele>
        <time>2015-11-11T13:16:26Z</time>
      </trkpt>
      <trkpt lat="43.66363" lon="1.17302">
        <ele>133</ele>
        <time>2015-11-11T13:16:27Z</time>
      </trkpt>
      <trkpt lat="43.66358" lon="1.17294">
        <ele>133.1</ele>
        <time>2015-11-11T13:16:28Z</time>
      </trkpt>
      <trkpt lat="43.66354" lon="1.17285">
        <ele>133.2</ele>
        <time>2015-11-11T13:16:29Z</time>
      </trkpt>
      <trkpt lat="43.66349" lon="1.17276">
        <ele>133.1</ele>
        <time>2015-11-11T13:16:30Z</time>
      </trkpt>
      <trkpt lat="43.66344" lon="1.17267">
        <ele>133</ele>
        <time>2015-11-11T13:16:31Z</time>
      </trkpt>
      <trkpt lat="43.6634" lon="1.17258">
        <ele>133</ele>
        <time>2015-11-11T13:16:32Z</time>
      </trkpt>
      <trkpt lat="43.66336" lon="1.17249">
        <ele>132.9</ele>
        <time>2015-11-11T13:16:33Z</time>
      </trkpt>
      <trkpt lat="43.66332" lon="1.17242">
        <ele>132.8</ele>
        <time>2015-11-11T13:16:34Z</time>
      </trkpt>
      <trkpt lat="43.66329" lon="1.17232">
        <ele>132.8</ele>
        <time>2015-11-11T13:16:35Z</time>
      </trkpt>
      <trkpt lat="43.66325" lon="1.17223">
        <ele>132.7</ele>
        <time>2015-11-11T13:16:36Z</time>
      </trkpt>
      <trkpt lat="43.66324" lon="1.17213">
        <ele>132.9</ele>
        <time>2015-11-11T13:16:37Z</time>
      </trkpt>
      <trkpt lat="43.6632" lon="1.17203">
        <ele>132.8</ele>
        <time>2015-11-11T13:16:38Z</time>
      </trkpt>
      <trkpt lat="43.66317" lon="1.17194">
        <ele>132.7</ele>
        <time>2015-11-11T13:16:39Z</time>
      </trkpt>
      <trkpt lat="43.66312" lon="1.17184">
        <ele>132.7</ele>
        <time>2015-11-11T13:16:40Z</time>
      </trkpt>
      <trkpt lat="43.66309" lon="1.17173">
        <ele>132.7</ele>
        <time>2015-11-11T13:16:41Z</time>
      </trkpt>
      <trkpt lat="43.66307" lon="1.17164">
        <ele>132.8</ele>
        <time>2015-11-11T13:16:42Z</time>
      </trkpt>
      <trkpt lat="43.66303" lon="1.17153">
        <ele>132.8</ele>
        <time>2015-11-11T13:16:43Z</time>
      </trkpt>
      <trkpt lat="43.663" lon="1.17142">
        <ele>132.9</ele>
        <time>2015-11-11T13:16:44Z</time>
      </trkpt>
      <trkpt lat="43.663" lon="1.17134">
        <ele>133.1</ele>
        <time>2015-11-11T13:16:45Z</time>
      </trkpt>
      <trkpt lat="43.66297" lon="1.17122">
        <ele>133.3</ele>
        <time>2015-11-11T13:16:46Z</time>
      </trkpt>
      <trkpt lat="43.66294" lon="1.17112">
        <ele>133.4</ele>
        <time>2015-11-11T13:16:47Z</time>
      </trkpt>
      <trkpt lat="43.66289" lon="1.17104">
        <ele>133.4</ele>
        <time>2015-11-11T13:16:48Z</time>
      </trkpt>
      <trkpt lat="43.66286" lon="1.17095">
        <ele>133.6</ele>
        <time>2015-11-11T13:16:49Z</time>
      </trkpt>
      <trkpt lat="43.66282" lon="1.17084">
        <ele>133.7</ele>
        <time>2015-11-11T13:16:50Z</time>
      </trkpt>
      <trkpt lat="43.6628" lon="1.17076">
        <ele>133.8</ele>
        <time>2015-11-11T13:16:51Z</time>
      </trkpt>
      <trkpt lat="43.66276" lon="1.17065">
        <ele>133.9</ele>
        <time>2015-11-11T13:16:52Z</time>
      </trkpt>
      <trkpt lat="43.66272" lon="1.17058">
        <ele>134</ele>
        <time>2015-11-11T13:16:53Z</time>
      </trkpt>
      <trkpt lat="43.66269" lon="1.17049">
        <ele>134</ele>
        <time>2015-11-11T13:16:54Z</time>
      </trkpt>
      <trkpt lat="43.66268" lon="1.17042">
        <ele>134.1</ele>
        <time>2015-11-11T13:16:55Z</time>
      </trkpt>
      <trkpt lat="43.66265" lon="1.17034">
        <ele>134.3</ele>
        <time>2015-11-11T13:16:56Z</time>
      </trkpt>
      <trkpt lat="43.66261" lon="1.17026">
        <ele>134.3</ele>
        <time>2015-11-11T13:16:57Z</time>
      </trkpt>
      <trkpt lat="43.6626" lon="1.17016">
        <ele>134.6</ele>
        <time>2015-11-11T13:16:58Z</time>
      </trkpt>
      <trkpt lat="43.66258" lon="1.17008">
        <ele>134.7</ele>
        <time>2015-11-11T13:16:59Z</time>
      </trkpt>
      <trkpt lat="43.66255" lon="1.16999">
        <ele>134.8</ele>
        <time>2015-11-11T13:17:00Z</time>
      </trkpt>
      <trkpt lat="43.66254" lon="1.16988">
        <ele>135</ele>
        <time>2015-11-11T13:17:01Z</time>
      </trkpt>
      <trkpt lat="43.66252" lon="1.16979">
        <ele>135.1</ele>
        <time>2015-11-11T13:17:02Z</time>
      </trkpt>
      <trkpt lat="43.6625" lon="1.1697">
        <ele>135.2</ele>
        <time>2015-11-11T13:17:03Z</time>
      </trkpt>
      <trkpt lat="43.6625" lon="1.16963">
        <ele>135.4</ele>
        <time>2015-11-11T13:17:04Z</time>
      </trkpt>
      <trkpt lat="43.66248" lon="1.16953">
        <ele>135.5</ele>
        <time>2015-11-11T13:17:05Z</time>
      </trkpt>
      <trkpt lat="43.6625" lon="1.16948">
        <ele>135.8</ele>
        <time>2015-11-11T13:17:06Z</time>
      </trkpt>
      <trkpt lat="43.6625" lon="1.1694">
        <ele>135.9</ele>
        <time>2015-11-11T13:17:07Z</time>
      </trkpt>
      <trkpt lat="43.66248" lon="1.16932">
        <ele>136</ele>
        <time>2015-11-11T13:17:08Z</time>
      </trkpt>
      <trkpt lat="43.66246" lon="1.16921">
        <ele>136.2</ele>
        <time>2015-11-11T13:17:09Z</time>
      </trkpt>
      <trkpt lat="43.66246" lon="1.16912">
        <ele>136.3</ele>
        <time>2015-11-11T13:17:10Z</time>
      </trkpt>
      <trkpt lat="43.66243" lon="1.16903">
        <ele>136.4</ele>
        <time>2015-11-11T13:17:11Z</time>
      </trkpt>
      <trkpt lat="43.6624" lon="1.16893">
        <ele>136.5</ele>
        <time>2015-11-11T13:17:12Z</time>
      </trkpt>
      <trkpt lat="43.66238" lon="1.16883">
        <ele>136.6</ele>
        <time>2015-11-11T13:17:13Z</time>
      </trkpt>
      <trkpt lat="43.66235" lon="1.16874">
        <ele>136.6</ele>
        <time>2015-11-11T13:17:14Z</time>
      </trkpt>
      <trkpt lat="43.66232" lon="1.16865">
        <ele>136.7</ele>
        <time>2015-11-11T13:17:15Z</time>
      </trkpt>
      <trkpt lat="43.6623" lon="1.16858">
        <ele>136.8</ele>
        <time>2015-11-11T13:17:16Z</time>
      </trkpt>
      <trkpt lat="43.66228" lon="1.16849">
        <ele>136.9</ele>
        <time>2015-11-11T13:17:17Z</time>
      </trkpt>
      <trkpt lat="43.66226" lon="1.1684">
        <ele>137</ele>
        <time>2015-11-11T13:17:18Z</time>
      </trkpt>
      <trkpt lat="43.66224" lon="1.16833">
        <ele>137</ele>
        <time>2015-11-11T13:17:19Z</time>
      </trkpt>
      <trkpt lat="43.66221" lon="1.16823">
        <ele>137.1</ele>
        <time>2015-11-11T13:17:20Z</time>
      </trkpt>
      <trkpt lat="43.66217" lon="1.16815">
        <ele>137.1</ele>
        <time>2015-11-11T13:17:21Z</time>
      </trkpt>
      <trkpt lat="43.66213" lon="1.16807">
        <ele>136.9</ele>
        <time>2015-11-11T13:17:22Z</time>
      </trkpt>
      <trkpt lat="43.66208" lon="1.16801">
        <ele>136.8</ele>
        <time>2015-11-11T13:17:23Z</time>
      </trkpt>
      <trkpt lat="43.66204" lon="1.16791">
        <ele>136.7</ele>
        <time>2015-11-11T13:17:24Z</time>
      </trkpt>
      <trkpt lat="43.66198" lon="1.16785">
        <ele>136.6</ele>
        <time>2015-11-11T13:17:25Z</time>
      </trkpt>
      <trkpt lat="43.66192" lon="1.16778">
        <ele>136.4</ele>
        <time>2015-11-11T13:17:26Z</time>
      </trkpt>
      <trkpt lat="43.66185" lon="1.16771">
        <ele>136.1</ele>
        <time>2015-11-11T13:17:27Z</time>
      </trkpt>
      <trkpt lat="43.66179" lon="1.16765">
        <ele>135.8</ele>
        <time>2015-11-11T13:17:28Z</time>
      </trkpt>
      <trkpt lat="43.66178" lon="1.16757">
        <ele>136</ele>
        <time>2015-11-11T13:17:29Z</time>
      </trkpt>
      <trkpt lat="43.66171" lon="1.16747">
        <ele>135.7</ele>
        <time>2015-11-11T13:17:30Z</time>
      </trkpt>
      <trkpt lat="43.66164" lon="1.16739">
        <ele>135.4</ele>
        <time>2015-11-11T13:17:31Z</time>
      </trkpt>
      <trkpt lat="43.66159" lon="1.1673">
        <ele>135.1</ele>
        <time>2015-11-11T13:17:32Z</time>
      </trkpt>
      <trkpt lat="43.66155" lon="1.16723">
        <ele>134.8</ele>
        <time>2015-11-11T13:17:33Z</time>
      </trkpt>
      <trkpt lat="43.6615" lon="1.16713">
        <ele>134.6</ele>
        <time>2015-11-11T13:17:34Z</time>
      </trkpt>
      <trkpt lat="43.66145" lon="1.16706">
        <ele>134.2</ele>
        <time>2015-11-11T13:17:35Z</time>
      </trkpt>
      <trkpt lat="43.6614" lon="1.16697">
        <ele>134</ele>
        <time>2015-11-11T13:17:36Z</time>
      </trkpt>
      <trkpt lat="43.66136" lon="1.16691">
        <ele>133.8</ele>
        <time>2015-11-11T13:17:37Z</time>
      </trkpt>
      <trkpt lat="43.66132" lon="1.16683">
        <ele>133.6</ele>
        <time>2015-11-11T13:17:38Z</time>
      </trkpt>
      <trkpt lat="43.66126" lon="1.16676">
        <ele>133.3</ele>
        <time>2015-11-11T13:17:39Z</time>
      </trkpt>
      <trkpt lat="43.66123" lon="1.16667">
        <ele>133.5</ele>
        <time>2015-11-11T13:17:40Z</time>
      </trkpt>
      <trkpt lat="43.6612" lon="1.16659">
        <ele>133.7</ele>
        <time>2015-11-11T13:17:41Z</time>
      </trkpt>
      <trkpt lat="43.66116" lon="1.16651">
        <ele>133.8</ele>
        <time>2015-11-11T13:17:42Z</time>
      </trkpt>
      <trkpt lat="43.66113" lon="1.16643">
        <ele>133.9</ele>
        <time>2015-11-11T13:17:43Z</time>
      </trkpt>
      <trkpt lat="43.66109" lon="1.16634">
        <ele>134</ele>
        <time>2015-11-11T13:17:44Z</time>
      </trkpt>
      <trkpt lat="43.66106" lon="1.1663">
        <ele>134</ele>
        <time>2015-11-11T13:17:45Z</time>
      </trkpt>
      <trkpt lat="43.66102" lon="1.16622">
        <ele>133.9</ele>
        <time>2015-11-11T13:17:46Z</time>
      </trkpt>
      <trkpt lat="43.66099" lon="1.16614">
        <ele>133.9</ele>
        <time>2015-11-11T13:17:47Z</time>
      </trkpt>
      <trkpt lat="43.66094" lon="1.16606">
        <ele>133.8</ele>
        <time>2015-11-11T13:17:48Z</time>
      </trkpt>
      <trkpt lat="43.6609" lon="1.16597">
        <ele>133.7</ele>
        <time>2015-11-11T13:17:49Z</time>
      </trkpt>
      <trkpt lat="43.66085" lon="1.16589">
        <ele>133.5</ele>
        <time>2015-11-11T13:17:50Z</time>
      </trkpt>
      <trkpt lat="43.66081" lon="1.16582">
        <ele>133.4</ele>
        <time>2015-11-11T13:17:51Z</time>
      </trkpt>
      <trkpt lat="43.66074" lon="1.16571">
        <ele>133.1</ele>
        <time>2015-11-11T13:17:52Z</time>
      </trkpt>
      <trkpt lat="43.66073" lon="1.1656">
        <ele>133.1</ele>
        <time>2015-11-11T13:17:53Z</time>
      </trkpt>
      <trkpt lat="43.66069" lon="1.1655">
        <ele>132.9</ele>
        <time>2015-11-11T13:17:54Z</time>
      </trkpt>
      <trkpt lat="43.66066" lon="1.1654">
        <ele>132.8</ele>
        <time>2015-11-11T13:17:55Z</time>
      </trkpt>
      <trkpt lat="43.66062" lon="1.16528">
        <ele>132.6</ele>
        <time>2015-11-11T13:17:56Z</time>
      </trkpt>
      <trkpt lat="43.66058" lon="1.16519">
        <ele>132.5</ele>
        <time>2015-11-11T13:17:57Z</time>
      </trkpt>
      <trkpt lat="43.66054" lon="1.1651">
        <ele>132.3</ele>
        <time>2015-11-11T13:17:58Z</time>
      </trkpt>
      <trkpt lat="43.6605" lon="1.16506">
        <ele>132.1</ele>
        <time>2015-11-11T13:17:59Z</time>
      </trkpt>
      <trkpt lat="43.66047" lon="1.16496">
        <ele>132</ele>
        <time>2015-11-11T13:18:00Z</time>
      </trkpt>
      <trkpt lat="43.66044" lon="1.16486">
        <ele>131.8</ele>
        <time>2015-11-11T13:18:01Z</time>
      </trkpt>
      <trkpt lat="43.66042" lon="1.16477">
        <ele>131.8</ele>
        <time>2015-11-11T13:18:02Z</time>
      </trkpt>
      <trkpt lat="43.66037" lon="1.16466">
        <ele>131.8</ele>
        <time>2015-11-11T13:18:03Z</time>
      </trkpt>
      <trkpt lat="43.66034" lon="1.16456">
        <ele>131.9</ele>
        <time>2015-11-11T13:18:04Z</time>
      </trkpt>
      <trkpt lat="43.6603" lon="1.16449">
        <ele>131.9</ele>
        <time>2015-11-11T13:18:05Z</time>
      </trkpt>
      <trkpt lat="43.66028" lon="1.16437">
        <ele>132.2</ele>
        <time>2015-11-11T13:18:06Z</time>
      </trkpt>
      <trkpt lat="43.66026" lon="1.16427">
        <ele>132.4</ele>
        <time>2015-11-11T13:18:07Z</time>
      </trkpt>
      <trkpt lat="43.66023" lon="1.16417">
        <ele>132.5</ele>
        <time>2015-11-11T13:18:08Z</time>
      </trkpt>
      <trkpt lat="43.66019" lon="1.16405">
        <ele>132.8</ele>
        <time>2015-11-11T13:18:09Z</time>
      </trkpt>
      <trkpt lat="43.66018" lon="1.16395">
        <ele>133</ele>
        <time>2015-11-11T13:18:10Z</time>
      </trkpt>
      <trkpt lat="43.66018" lon="1.16386">
        <ele>133.2</ele>
        <time>2015-11-11T13:18:11Z</time>
      </trkpt>
      <trkpt lat="43.66016" lon="1.16379">
        <ele>133.3</ele>
        <time>2015-11-11T13:18:12Z</time>
      </trkpt>
      <trkpt lat="43.66014" lon="1.16372">
        <ele>133.4</ele>
        <time>2015-11-11T13:18:13Z</time>
      </trkpt>
      <trkpt lat="43.66012" lon="1.16362">
        <ele>133.6</ele>
        <time>2015-11-11T13:18:14Z</time>
      </trkpt>
      <trkpt lat="43.66011" lon="1.16353">
        <ele>133.9</ele>
        <time>2015-11-11T13:18:15Z</time>
      </trkpt>
      <trkpt lat="43.66009" lon="1.16345">
        <ele>134</ele>
        <time>2015-11-11T13:18:16Z</time>
      </trkpt>
      <trkpt lat="43.66006" lon="1.16334">
        <ele>134.2</ele>
        <time>2015-11-11T13:18:17Z</time>
      </trkpt>
      <trkpt lat="43.66003" lon="1.16325">
        <ele>134.3</ele>
        <time>2015-11-11T13:18:18Z</time>
      </trkpt>
      <trkpt lat="43.66" lon="1.16314">
        <ele>134.5</ele>
        <time>2015-11-11T13:18:19Z</time>
      </trkpt>
      <trkpt lat="43.65998" lon="1.16304">
        <ele>134.6</ele>
        <time>2015-11-11T13:18:20Z</time>
      </trkpt>
      <trkpt lat="43.65996" lon="1.16297">
        <ele>134.7</ele>
        <time>2015-11-11T13:18:21Z</time>
      </trkpt>
      <trkpt lat="43.65993" lon="1.16288">
        <ele>134.7</ele>
        <time>2015-11-11T13:18:22Z</time>
      </trkpt>
      <trkpt lat="43.65989" lon="1.16279">
        <ele>134.5</ele>
        <time>2015-11-11T13:18:23Z</time>
      </trkpt>
      <trkpt lat="43.65986" lon="1.1627">
        <ele>134.3</ele>
        <time>2015-11-11T13:18:24Z</time>
      </trkpt>
      <trkpt lat="43.65983" lon="1.16261">
        <ele>134.1</ele>
        <time>2015-11-11T13:18:25Z</time>
      </trkpt>
      <trkpt lat="43.65983" lon="1.16252">
        <ele>134.1</ele>
        <time>2015-11-11T13:18:26Z</time>
      </trkpt>
      <trkpt lat="43.65981" lon="1.16244">
        <ele>134</ele>
        <time>2015-11-11T13:18:27Z</time>
      </trkpt>
      <trkpt lat="43.65979" lon="1.16235">
        <ele>133.8</ele>
        <time>2015-11-11T13:18:28Z</time>
      </trkpt>
      <trkpt lat="43.65977" lon="1.16227">
        <ele>133.6</ele>
        <time>2015-11-11T13:18:29Z</time>
      </trkpt>
      <trkpt lat="43.65974" lon="1.16218">
        <ele>133.4</ele>
        <time>2015-11-11T13:18:30Z</time>
      </trkpt>
      <trkpt lat="43.65971" lon="1.16208">
        <ele>133.1</ele>
        <time>2015-11-11T13:18:31Z</time>
      </trkpt>
      <trkpt lat="43.65967" lon="1.16199">
        <ele>133</ele>
        <time>2015-11-11T13:18:32Z</time>
      </trkpt>
      <trkpt lat="43.65963" lon="1.16189">
        <ele>132.9</ele>
        <time>2015-11-11T13:18:33Z</time>
      </trkpt>
      <trkpt lat="43.65962" lon="1.16179">
        <ele>133</ele>
        <time>2015-11-11T13:18:34Z</time>
      </trkpt>
      <trkpt lat="43.65959" lon="1.16169">
        <ele>133</ele>
        <time>2015-11-11T13:18:35Z</time>
      </trkpt>
      <trkpt lat="43.65952" lon="1.16161">
        <ele>133.1</ele>
        <time>2015-11-11T13:18:36Z</time>
      </trkpt>
      <trkpt lat="43.65949" lon="1.16152">
        <ele>133.2</ele>
        <time>2015-11-11T13:18:37Z</time>
      </trkpt>
      <trkpt lat="43.65944" lon="1.16142">
        <ele>133.4</ele>
        <time>2015-11-11T13:18:38Z</time>
      </trkpt>
      <trkpt lat="43.65942" lon="1.16133">
        <ele>133.6</ele>
        <time>2015-11-11T13:18:39Z</time>
      </trkpt>
      <trkpt lat="43.65938" lon="1.16123">
        <ele>133.8</ele>
        <time>2015-11-11T13:18:40Z</time>
      </trkpt>
      <trkpt lat="43.65935" lon="1.16113">
        <ele>133.7</ele>
        <time>2015-11-11T13:18:41Z</time>
      </trkpt>
      <trkpt lat="43.65933" lon="1.16103">
        <ele>133.7</ele>
        <time>2015-11-11T13:18:42Z</time>
      </trkpt>
      <trkpt lat="43.6593" lon="1.16092">
        <ele>133.7</ele>
        <time>2015-11-11T13:18:43Z</time>
      </trkpt>
      <trkpt lat="43.65928" lon="1.16083">
        <ele>133.6</ele>
        <time>2015-11-11T13:18:44Z</time>
      </trkpt>
      <trkpt lat="43.65924" lon="1.16074">
        <ele>133.6</ele>
        <time>2015-11-11T13:18:45Z</time>
      </trkpt>
      <trkpt lat="43.65921" lon="1.16064">
        <ele>133.6</ele>
        <time>2015-11-11T13:18:46Z</time>
      </trkpt>
      <trkpt lat="43.65918" lon="1.16055">
        <ele>133.5</ele>
        <time>2015-11-11T13:18:47Z</time>
      </trkpt>
      <trkpt lat="43.65914" lon="1.16046">
        <ele>133.5</ele>
        <time>2015-11-11T13:18:48Z</time>
      </trkpt>
      <trkpt lat="43.65911" lon="1.16037">
        <ele>133.6</ele>
        <time>2015-11-11T13:18:49Z</time>
      </trkpt>
      <trkpt lat="43.65908" lon="1.16029">
        <ele>133.8</ele>
        <time>2015-11-11T13:18:50Z</time>
      </trkpt>
      <trkpt lat="43.65905" lon="1.1602">
        <ele>134</ele>
        <time>2015-11-11T13:18:51Z</time>
      </trkpt>
      <trkpt lat="43.65902" lon="1.16012">
        <ele>134.1</ele>
        <time>2015-11-11T13:18:52Z</time>
      </trkpt>
      <trkpt lat="43.65898" lon="1.16004">
        <ele>134.2</ele>
        <time>2015-11-11T13:18:53Z</time>
      </trkpt>
      <trkpt lat="43.65896" lon="1.15995">
        <ele>134.4</ele>
        <time>2015-11-11T13:18:54Z</time>
      </trkpt>
      <trkpt lat="43.65892" lon="1.15987">
        <ele>134.4</ele>
        <time>2015-11-11T13:18:55Z</time>
      </trkpt>
      <trkpt lat="43.65888" lon="1.15977">
        <ele>134.4</ele>
        <time>2015-11-11T13:18:56Z</time>
      </trkpt>
      <trkpt lat="43.65885" lon="1.15968">
        <ele>134.4</ele>
        <time>2015-11-11T13:18:57Z</time>
      </trkpt>
      <trkpt lat="43.65882" lon="1.15958">
        <ele>134.4</ele>
        <time>2015-11-11T13:18:58Z</time>
      </trkpt>
      <trkpt lat="43.65878" lon="1.1595">
        <ele>134.2</ele>
        <time>2015-11-11T13:18:59Z</time>
      </trkpt>
      <trkpt lat="43.65874" lon="1.15941">
        <ele>134</ele>
        <time>2015-11-11T13:19:00Z</time>
      </trkpt>
      <trkpt lat="43.65871" lon="1.15932">
        <ele>133.9</ele>
        <time>2015-11-11T13:19:01Z</time>
      </trkpt>
      <trkpt lat="43.65867" lon="1.15923">
        <ele>133.8</ele>
        <time>2015-11-11T13:19:02Z</time>
      </trkpt>
      <trkpt lat="43.65864" lon="1.15915">
        <ele>133.7</ele>
        <time>2015-11-11T13:19:03Z</time>
      </trkpt>
      <trkpt lat="43.6586" lon="1.15905">
        <ele>133.5</ele>
        <time>2015-11-11T13:19:04Z</time>
      </trkpt>
      <trkpt lat="43.65856" lon="1.15896">
        <ele>133.4</ele>
        <time>2015-11-11T13:19:05Z</time>
      </trkpt>
      <trkpt lat="43.65852" lon="1.15887">
        <ele>133.2</ele>
        <time>2015-11-11T13:19:06Z</time>
      </trkpt>
      <trkpt lat="43.65847" lon="1.15878">
        <ele>133</ele>
        <time>2015-11-11T13:19:07Z</time>
      </trkpt>
      <trkpt lat="43.65844" lon="1.15869">
        <ele>133.1</ele>
        <time>2015-11-11T13:19:08Z</time>
      </trkpt>
      <trkpt lat="43.6584" lon="1.15861">
        <ele>133.3</ele>
        <time>2015-11-11T13:19:09Z</time>
      </trkpt>
      <trkpt lat="43.65836" lon="1.15852">
        <ele>133.6</ele>
        <time>2015-11-11T13:19:10Z</time>
      </trkpt>
      <trkpt lat="43.65833" lon="1.15843">
        <ele>133.8</ele>
        <time>2015-11-11T13:19:11Z</time>
      </trkpt>
      <trkpt lat="43.65829" lon="1.15834">
        <ele>134.1</ele>
        <time>2015-11-11T13:19:12Z</time>
      </trkpt>
      <trkpt lat="43.65825" lon="1.15826">
        <ele>134.3</ele>
        <time>2015-11-11T13:19:13Z</time>
      </trkpt>
      <trkpt lat="43.65821" lon="1.15819">
        <ele>134.5</ele>
        <time>2015-11-11T13:19:14Z</time>
      </trkpt>
      <trkpt lat="43.65817" lon="1.15811">
        <ele>134.8</ele>
        <time>2015-11-11T13:19:15Z</time>
      </trkpt>
      <trkpt lat="43.65813" lon="1.15803">
        <ele>135</ele>
        <time>2015-11-11T13:19:16Z</time>
      </trkpt>
      <trkpt lat="43.65809" lon="1.15796">
        <ele>135.2</ele>
        <time>2015-11-11T13:19:17Z</time>
      </trkpt>
      <trkpt lat="43.65803" lon="1.15787">
        <ele>135.4</ele>
        <time>2015-11-11T13:19:18Z</time>
      </trkpt>
      <trkpt lat="43.658" lon="1.15781">
        <ele>135.6</ele>
        <time>2015-11-11T13:19:19Z</time>
      </trkpt>
      <trkpt lat="43.65794" lon="1.15774">
        <ele>135.7</ele>
        <time>2015-11-11T13:19:20Z</time>
      </trkpt>
      <trkpt lat="43.65788" lon="1.15769">
        <ele>135.7</ele>
        <time>2015-11-11T13:19:21Z</time>
      </trkpt>
      <trkpt lat="43.65782" lon="1.15764">
        <ele>135.8</ele>
        <time>2015-11-11T13:19:22Z</time>
      </trkpt>
      <trkpt lat="43.65777" lon="1.15757">
        <ele>135.8</ele>
        <time>2015-11-11T13:19:23Z</time>
      </trkpt>
      <trkpt lat="43.65772" lon="1.15752">
        <ele>135.9</ele>
        <time>2015-11-11T13:19:24Z</time>
      </trkpt>
      <trkpt lat="43.65766" lon="1.15746">
        <ele>135.8</ele>
        <time>2015-11-11T13:19:25Z</time>
      </trkpt>
      <trkpt lat="43.6576" lon="1.1574">
        <ele>135.8</ele>
        <time>2015-11-11T13:19:26Z</time>
      </trkpt>
      <trkpt lat="43.65754" lon="1.15734">
        <ele>135.7</ele>
        <time>2015-11-11T13:19:27Z</time>
      </trkpt>
      <trkpt lat="43.65749" lon="1.15727">
        <ele>135.6</ele>
        <time>2015-11-11T13:19:28Z</time>
      </trkpt>
      <trkpt lat="43.65744" lon="1.1572">
        <ele>135.5</ele>
        <time>2015-11-11T13:19:29Z</time>
      </trkpt>
      <trkpt lat="43.65738" lon="1.15713">
        <ele>135.4</ele>
        <time>2015-11-11T13:19:30Z</time>
      </trkpt>
      <trkpt lat="43.65733" lon="1.15706">
        <ele>135.3</ele>
        <time>2015-11-11T13:19:31Z</time>
      </trkpt>
      <trkpt lat="43.65727" lon="1.15698">
        <ele>135.4</ele>
        <time>2015-11-11T13:19:32Z</time>
      </trkpt>
      <trkpt lat="43.65722" lon="1.1569">
        <ele>135.5</ele>
        <time>2015-11-11T13:19:33Z</time>
      </trkpt>
      <trkpt lat="43.65718" lon="1.15683">
        <ele>135.5</ele>
        <time>2015-11-11T13:19:34Z</time>
      </trkpt>
      <trkpt lat="43.65714" lon="1.15675">
        <ele>135.6</ele>
        <time>2015-11-11T13:19:35Z</time>
      </trkpt>
      <trkpt lat="43.65709" lon="1.15667">
        <ele>135.6</ele>
        <time>2015-11-11T13:19:36Z</time>
      </trkpt>
      <trkpt lat="43.65705" lon="1.15659">
        <ele>135.7</ele>
        <time>2015-11-11T13:19:37Z</time>
      </trkpt>
      <trkpt lat="43.65701" lon="1.1565">
        <ele>135.8</ele>
        <time>2015-11-11T13:19:38Z</time>
      </trkpt>
      <trkpt lat="43.65696" lon="1.15642">
        <ele>135.8</ele>
        <time>2015-11-11T13:19:39Z</time>
      </trkpt>
      <trkpt lat="43.65692" lon="1.15634">
        <ele>135.8</ele>
        <time>2015-11-11T13:19:40Z</time>
      </trkpt>
      <trkpt lat="43.65687" lon="1.15625">
        <ele>135.7</ele>
        <time>2015-11-11T13:19:41Z</time>
      </trkpt>
      <trkpt lat="43.65684" lon="1.15616">
        <ele>135.9</ele>
        <time>2015-11-11T13:19:42Z</time>
      </trkpt>
      <trkpt lat="43.6568" lon="1.15608">
        <ele>136</ele>
        <time>2015-11-11T13:19:43Z</time>
      </trkpt>
      <trkpt lat="43.65676" lon="1.156">
        <ele>135.9</ele>
        <time>2015-11-11T13:19:44Z</time>
      </trkpt>
      <trkpt lat="43.65671" lon="1.15592">
        <ele>135.9</ele>
        <time>2015-11-11T13:19:45Z</time>
      </trkpt>
      <trkpt lat="43.65668" lon="1.15586">
        <ele>135.8</ele>
        <time>2015-11-11T13:19:46Z</time>
      </trkpt>
      <trkpt lat="43.65663" lon="1.15577">
        <ele>135.6</ele>
        <time>2015-11-11T13:19:47Z</time>
      </trkpt>
      <trkpt lat="43.65657" lon="1.15569">
        <ele>135.2</ele>
        <time>2015-11-11T13:19:48Z</time>
      </trkpt>
      <trkpt lat="43.65654" lon="1.15561">
        <ele>135.1</ele>
        <time>2015-11-11T13:19:49Z</time>
      </trkpt>
      <trkpt lat="43.6565" lon="1.15553">
        <ele>134.8</ele>
        <time>2015-11-11T13:19:50Z</time>
      </trkpt>
      <trkpt lat="43.65645" lon="1.15544">
        <ele>134.3</ele>
        <time>2015-11-11T13:19:51Z</time>
      </trkpt>
      <trkpt lat="43.6564" lon="1.15536">
        <ele>133.9</ele>
        <time>2015-11-11T13:19:52Z</time>
      </trkpt>
      <trkpt lat="43.65636" lon="1.15531">
        <ele>133.7</ele>
        <time>2015-11-11T13:19:53Z</time>
      </trkpt>
      <trkpt lat="43.65633" lon="1.15523">
        <ele>133.5</ele>
        <time>2015-11-11T13:19:54Z</time>
      </trkpt>
      <trkpt lat="43.65629" lon="1.15513">
        <ele>133.2</ele>
        <time>2015-11-11T13:19:55Z</time>
      </trkpt>
      <trkpt lat="43.65625" lon="1.15505">
        <ele>132.9</ele>
        <time>2015-11-11T13:19:56Z</time>
      </trkpt>
      <trkpt lat="43.65619" lon="1.15496">
        <ele>133.1</ele>
        <time>2015-11-11T13:19:57Z</time>
      </trkpt>
      <trkpt lat="43.65615" lon="1.15488">
        <ele>133.3</ele>
        <time>2015-11-11T13:19:58Z</time>
      </trkpt>
      <trkpt lat="43.65615" lon="1.15478">
        <ele>133.5</ele>
        <time>2015-11-11T13:19:59Z</time>
      </trkpt>
      <trkpt lat="43.6561" lon="1.15471">
        <ele>133.6</ele>
        <time>2015-11-11T13:20:00Z</time>
      </trkpt>
      <trkpt lat="43.65606" lon="1.1547">
        <ele>133.6</ele>
        <time>2015-11-11T13:20:01Z</time>
      </trkpt>
      <trkpt lat="43.65601" lon="1.15459">
        <ele>133.7</ele>
        <time>2015-11-11T13:20:02Z</time>
      </trkpt>
      <trkpt lat="43.65597" lon="1.15448">
        <ele>134</ele>
        <time>2015-11-11T13:20:03Z</time>
      </trkpt>
      <trkpt lat="43.65592" lon="1.1544">
        <ele>134.1</ele>
        <time>2015-11-11T13:20:04Z</time>
      </trkpt>
      <trkpt lat="43.65587" lon="1.1543">
        <ele>134.2</ele>
        <time>2015-11-11T13:20:05Z</time>
      </trkpt>
      <trkpt lat="43.65582" lon="1.1542">
        <ele>134.1</ele>
        <time>2015-11-11T13:20:06Z</time>
      </trkpt>
      <trkpt lat="43.65577" lon="1.15409">
        <ele>134</ele>
        <time>2015-11-11T13:20:07Z</time>
      </trkpt>
      <trkpt lat="43.65572" lon="1.15402">
        <ele>133.7</ele>
        <time>2015-11-11T13:20:08Z</time>
      </trkpt>
      <trkpt lat="43.65567" lon="1.15391">
        <ele>133.4</ele>
        <time>2015-11-11T13:20:09Z</time>
      </trkpt>
      <trkpt lat="43.65562" lon="1.15383">
        <ele>133</ele>
        <time>2015-11-11T13:20:10Z</time>
      </trkpt>
      <trkpt lat="43.65558" lon="1.15376">
        <ele>132.6</ele>
        <time>2015-11-11T13:20:11Z</time>
      </trkpt>
      <trkpt lat="43.65553" lon="1.15365">
        <ele>132.6</ele>
        <time>2015-11-11T13:20:12Z</time>
      </trkpt>
      <trkpt lat="43.65549" lon="1.15356">
        <ele>132.6</ele>
        <time>2015-11-11T13:20:13Z</time>
      </trkpt>
      <trkpt lat="43.65543" lon="1.1535">
        <ele>132.4</ele>
        <time>2015-11-11T13:20:14Z</time>
      </trkpt>
      <trkpt lat="43.65538" lon="1.15342">
        <ele>132.6</ele>
        <time>2015-11-11T13:20:15Z</time>
      </trkpt>
      <trkpt lat="43.65534" lon="1.15331">
        <ele>133.1</ele>
        <time>2015-11-11T13:20:16Z</time>
      </trkpt>
      <trkpt lat="43.65528" lon="1.15324">
        <ele>133.3</ele>
        <time>2015-11-11T13:20:17Z</time>
      </trkpt>
      <trkpt lat="43.65522" lon="1.15317">
        <ele>133.5</ele>
        <time>2015-11-11T13:20:18Z</time>
      </trkpt>
      <trkpt lat="43.65517" lon="1.15309">
        <ele>133.8</ele>
        <time>2015-11-11T13:20:19Z</time>
      </trkpt>
      <trkpt lat="43.65511" lon="1.15301">
        <ele>133.9</ele>
        <time>2015-11-11T13:20:20Z</time>
      </trkpt>
      <trkpt lat="43.65506" lon="1.15291">
        <ele>134.2</ele>
        <time>2015-11-11T13:20:21Z</time>
      </trkpt>
      <trkpt lat="43.65501" lon="1.15284">
        <ele>134.2</ele>
        <time>2015-11-11T13:20:22Z</time>
      </trkpt>
      <trkpt lat="43.65497" lon="1.15275">
        <ele>134.2</ele>
        <time>2015-11-11T13:20:23Z</time>
      </trkpt>
      <trkpt lat="43.65492" lon="1.15268">
        <ele>134.2</ele>
        <time>2015-11-11T13:20:24Z</time>
      </trkpt>
      <trkpt lat="43.65488" lon="1.1526">
        <ele>134.2</ele>
        <time>2015-11-11T13:20:25Z</time>
      </trkpt>
      <trkpt lat="43.65483" lon="1.15253">
        <ele>134.2</ele>
        <time>2015-11-11T13:20:26Z</time>
      </trkpt>
      <trkpt lat="43.65479" lon="1.15241">
        <ele>134.3</ele>
        <time>2015-11-11T13:20:27Z</time>
      </trkpt>
      <trkpt lat="43.6548" lon="1.15229">
        <ele>134.5</ele>
        <time>2015-11-11T13:20:28Z</time>
      </trkpt>
      <trkpt lat="43.65476" lon="1.15218">
        <ele>134.5</ele>
        <time>2015-11-11T13:20:29Z</time>
      </trkpt>
      <trkpt lat="43.65472" lon="1.1521">
        <ele>134.5</ele>
        <time>2015-11-11T13:20:30Z</time>
      </trkpt>
      <trkpt lat="43.65468" lon="1.15201">
        <ele>134.4</ele>
        <time>2015-11-11T13:20:31Z</time>
      </trkpt>
      <trkpt lat="43.65462" lon="1.15195">
        <ele>134.1</ele>
        <time>2015-11-11T13:20:32Z</time>
      </trkpt>
      <trkpt lat="43.65455" lon="1.15186">
        <ele>133.9</ele>
        <time>2015-11-11T13:20:33Z</time>
      </trkpt>
      <trkpt lat="43.6545" lon="1.15179">
        <ele>133.8</ele>
        <time>2015-11-11T13:20:34Z</time>
      </trkpt>
      <trkpt lat="43.65446" lon="1.1517">
        <ele>133.8</ele>
        <time>2015-11-11T13:20:35Z</time>
      </trkpt>
      <trkpt lat="43.65443" lon="1.15161">
        <ele>133.7</ele>
        <time>2015-11-11T13:20:36Z</time>
      </trkpt>
      <trkpt lat="43.6544" lon="1.15152">
        <ele>133.7</ele>
        <time>2015-11-11T13:20:37Z</time>
      </trkpt>
      <trkpt lat="43.65435" lon="1.15142">
        <ele>133.7</ele>
        <time>2015-11-11T13:20:38Z</time>
      </trkpt>
      <trkpt lat="43.65432" lon="1.15135">
        <ele>133.6</ele>
        <time>2015-11-11T13:20:39Z</time>
      </trkpt>
      <trkpt lat="43.65428" lon="1.15125">
        <ele>133.6</ele>
        <time>2015-11-11T13:20:40Z</time>
      </trkpt>
      <trkpt lat="43.65425" lon="1.15118">
        <ele>133.7</ele>
        <time>2015-11-11T13:20:41Z</time>
      </trkpt>
      <trkpt lat="43.65422" lon="1.15108">
        <ele>133.9</ele>
        <time>2015-11-11T13:20:42Z</time>
      </trkpt>
      <trkpt lat="43.6542" lon="1.15098">
        <ele>134</ele>
        <time>2015-11-11T13:20:43Z</time>
      </trkpt>
      <trkpt lat="43.65421" lon="1.15086">
        <ele>134.3</ele>
        <time>2015-11-11T13:20:44Z</time>
      </trkpt>
      <trkpt lat="43.6542" lon="1.1508">
        <ele>134.4</ele>
        <time>2015-11-11T13:20:45Z</time>
      </trkpt>
      <trkpt lat="43.65418" lon="1.15072">
        <ele>134.5</ele>
        <time>2015-11-11T13:20:46Z</time>
      </trkpt>
      <trkpt lat="43.65416" lon="1.15062">
        <ele>134.6</ele>
        <time>2015-11-11T13:20:47Z</time>
      </trkpt>
      <trkpt lat="43.65414" lon="1.15052">
        <ele>134.8</ele>
        <time>2015-11-11T13:20:48Z</time>
      </trkpt>
      <trkpt lat="43.65413" lon="1.15039">
        <ele>135</ele>
        <time>2015-11-11T13:20:49Z</time>
      </trkpt>
      <trkpt lat="43.65409" lon="1.15029">
        <ele>135.1</ele>
        <time>2015-11-11T13:20:50Z</time>
      </trkpt>
      <trkpt lat="43.65406" lon="1.15019">
        <ele>135.3</ele>
        <time>2015-11-11T13:20:51Z</time>
      </trkpt>
      <trkpt lat="43.65403" lon="1.15009">
        <ele>135.5</ele>
        <time>2015-11-11T13:20:52Z</time>
      </trkpt>
      <trkpt lat="43.65401" lon="1.14999">
        <ele>135.6</ele>
        <time>2015-11-11T13:20:53Z</time>
      </trkpt>
      <trkpt lat="43.65401" lon="1.14991">
        <ele>135.9</ele>
        <time>2015-11-11T13:20:54Z</time>
      </trkpt>
      <trkpt lat="43.654" lon="1.14981">
        <ele>136</ele>
        <time>2015-11-11T13:20:55Z</time>
      </trkpt>
      <trkpt lat="43.65399" lon="1.14975">
        <ele>136.2</ele>
        <time>2015-11-11T13:20:56Z</time>
      </trkpt>
      <trkpt lat="43.65397" lon="1.14966">
        <ele>136.3</ele>
        <time>2015-11-11T13:20:57Z</time>
      </trkpt>
      <trkpt lat="43.65395" lon="1.14957">
        <ele>136.5</ele>
        <time>2015-11-11T13:20:58Z</time>
      </trkpt>
      <trkpt lat="43.65394" lon="1.1495">
        <ele>136.5</ele>
        <time>2015-11-11T13:20:59Z</time>
      </trkpt>
      <trkpt lat="43.65393" lon="1.14942">
        <ele>136.6</ele>
        <time>2015-11-11T13:21:00Z</time>
      </trkpt>
      <trkpt lat="43.65391" lon="1.14931">
        <ele>136.6</ele>
        <time>2015-11-11T13:21:01Z</time>
      </trkpt>
      <trkpt lat="43.65389" lon="1.14924">
        <ele>136.6</ele>
        <time>2015-11-11T13:21:02Z</time>
      </trkpt>
      <trkpt lat="43.65388" lon="1.14918">
        <ele>136.5</ele>
        <time>2015-11-11T13:21:03Z</time>
      </trkpt>
      <trkpt lat="43.65386" lon="1.14908">
        <ele>136.5</ele>
        <time>2015-11-11T13:21:04Z</time>
      </trkpt>
      <trkpt lat="43.65384" lon="1.14897">
        <ele>136.4</ele>
        <time>2015-11-11T13:21:05Z</time>
      </trkpt>
      <trkpt lat="43.65379" lon="1.14888">
        <ele>136.2</ele>
        <time>2015-11-11T13:21:06Z</time>
      </trkpt>
      <trkpt lat="43.65375" lon="1.1488">
        <ele>136</ele>
        <time>2015-11-11T13:21:07Z</time>
      </trkpt>
      <trkpt lat="43.6537" lon="1.14872">
        <ele>136.1</ele>
        <time>2015-11-11T13:21:08Z</time>
      </trkpt>
      <trkpt lat="43.6537" lon="1.14867">
        <ele>136.2</ele>
        <time>2015-11-11T13:21:09Z</time>
      </trkpt>
      <trkpt lat="43.65366" lon="1.14862">
        <ele>136.3</ele>
        <time>2015-11-11T13:21:10Z</time>
      </trkpt>
      <trkpt lat="43.65362" lon="1.14856">
        <ele>136.4</ele>
        <time>2015-11-11T13:21:11Z</time>
      </trkpt>
      <trkpt lat="43.6536" lon="1.14851">
        <ele>136.5</ele>
        <time>2015-11-11T13:21:12Z</time>
      </trkpt>
      <trkpt lat="43.65357" lon="1.14845">
        <ele>136.6</ele>
        <time>2015-11-11T13:21:13Z</time>
      </trkpt>
      <trkpt lat="43.65354" lon="1.1484">
        <ele>136.7</ele>
        <time>2015-11-11T13:21:14Z</time>
      </trkpt>
      <trkpt lat="43.6535" lon="1.14834">
        <ele>136.8</ele>
        <time>2015-11-11T13:21:15Z</time>
      </trkpt>
      <trkpt lat="43.65346" lon="1.1483">
        <ele>136.9</ele>
        <time>2015-11-11T13:21:16Z</time>
      </trkpt>
      <trkpt lat="43.65342" lon="1.14824">
        <ele>137</ele>
        <time>2015-11-11T13:21:17Z</time>
      </trkpt>
      <trkpt lat="43.65339" lon="1.14818">
        <ele>137.1</ele>
        <time>2015-11-11T13:21:18Z</time>
      </trkpt>
      <trkpt lat="43.65335" lon="1.14812">
        <ele>137.1</ele>
        <time>2015-11-11T13:21:19Z</time>
      </trkpt>
      <trkpt lat="43.65333" lon="1.14807">
        <ele>137.2</ele>
        <time>2015-11-11T13:21:20Z</time>
      </trkpt>
      <trkpt lat="43.65329" lon="1.148">
        <ele>137.3</ele>
        <time>2015-11-11T13:21:21Z</time>
      </trkpt>
      <trkpt lat="43.65327" lon="1.14795">
        <ele>137.4</ele>
        <time>2015-11-11T13:21:22Z</time>
      </trkpt>
      <trkpt lat="43.65322" lon="1.14791">
        <ele>137.4</ele>
        <time>2015-11-11T13:21:23Z</time>
      </trkpt>
      <trkpt lat="43.6532" lon="1.14785">
        <ele>137.7</ele>
        <time>2015-11-11T13:21:24Z</time>
      </trkpt>
      <trkpt lat="43.65316" lon="1.14781">
        <ele>137.9</ele>
        <time>2015-11-11T13:21:25Z</time>
      </trkpt>
      <trkpt lat="43.65314" lon="1.14773">
        <ele>138.2</ele>
        <time>2015-11-11T13:21:26Z</time>
      </trkpt>
      <trkpt lat="43.65312" lon="1.14767">
        <ele>138.6</ele>
        <time>2015-11-11T13:21:27Z</time>
      </trkpt>
      <trkpt lat="43.6531" lon="1.14759">
        <ele>139</ele>
        <time>2015-11-11T13:21:28Z</time>
      </trkpt>
      <trkpt lat="43.65309" lon="1.14751">
        <ele>139.5</ele>
        <time>2015-11-11T13:21:29Z</time>
      </trkpt>
      <trkpt lat="43.65308" lon="1.14744">
        <ele>139.9</ele>
        <time>2015-11-11T13:21:30Z</time>
      </trkpt>
      <trkpt lat="43.65307" lon="1.14738">
        <ele>140.2</ele>
        <time>2015-11-11T13:21:31Z</time>
      </trkpt>
      <trkpt lat="43.65306" lon="1.1473">
        <ele>140.6</ele>
        <time>2015-11-11T13:21:32Z</time>
      </trkpt>
      <trkpt lat="43.65306" lon="1.14724">
        <ele>141</ele>
        <time>2015-11-11T13:21:33Z</time>
      </trkpt>
      <trkpt lat="43.65305" lon="1.14715">
        <ele>141.5</ele>
        <time>2015-11-11T13:21:34Z</time>
      </trkpt>
      <trkpt lat="43.65303" lon="1.14705">
        <ele>141.9</ele>
        <time>2015-11-11T13:21:35Z</time>
      </trkpt>
      <trkpt lat="43.65302" lon="1.14696">
        <ele>142.2</ele>
        <time>2015-11-11T13:21:36Z</time>
      </trkpt>
      <trkpt lat="43.65299" lon="1.14687">
        <ele>142.5</ele>
        <time>2015-11-11T13:21:37Z</time>
      </trkpt>
      <trkpt lat="43.65298" lon="1.14679">
        <ele>142.7</ele>
        <time>2015-11-11T13:21:38Z</time>
      </trkpt>
      <trkpt lat="43.65297" lon="1.14669">
        <ele>142.9</ele>
        <time>2015-11-11T13:21:39Z</time>
      </trkpt>
      <trkpt lat="43.65297" lon="1.1466">
        <ele>143.2</ele>
        <time>2015-11-11T13:21:40Z</time>
      </trkpt>
      <trkpt lat="43.65296" lon="1.1465">
        <ele>143.4</ele>
        <time>2015-11-11T13:21:41Z</time>
      </trkpt>
      <trkpt lat="43.65293" lon="1.14641">
        <ele>143.6</ele>
        <time>2015-11-11T13:21:42Z</time>
      </trkpt>
      <trkpt lat="43.65293" lon="1.14632">
        <ele>143.8</ele>
        <time>2015-11-11T13:21:43Z</time>
      </trkpt>
      <trkpt lat="43.65293" lon="1.14624">
        <ele>144</ele>
        <time>2015-11-11T13:21:44Z</time>
      </trkpt>
      <trkpt lat="43.65293" lon="1.14614">
        <ele>143.6</ele>
        <time>2015-11-11T13:21:45Z</time>
      </trkpt>
      <trkpt lat="43.65293" lon="1.14606">
        <ele>143.4</ele>
        <time>2015-11-11T13:21:46Z</time>
      </trkpt>
      <trkpt lat="43.65293" lon="1.14597">
        <ele>143.1</ele>
        <time>2015-11-11T13:21:47Z</time>
      </trkpt>
      <trkpt lat="43.65294" lon="1.1459">
        <ele>142.8</ele>
        <time>2015-11-11T13:21:48Z</time>
      </trkpt>
      <trkpt lat="43.65293" lon="1.1458">
        <ele>142.5</ele>
        <time>2015-11-11T13:21:49Z</time>
      </trkpt>
      <trkpt lat="43.65294" lon="1.14571">
        <ele>142.2</ele>
        <time>2015-11-11T13:21:50Z</time>
      </trkpt>
      <trkpt lat="43.65293" lon="1.14562">
        <ele>141.9</ele>
        <time>2015-11-11T13:21:51Z</time>
      </trkpt>
      <trkpt lat="43.65293" lon="1.14553">
        <ele>141.5</ele>
        <time>2015-11-11T13:21:52Z</time>
      </trkpt>
      <trkpt lat="43.65293" lon="1.14547">
        <ele>141.3</ele>
        <time>2015-11-11T13:21:53Z</time>
      </trkpt>
      <trkpt lat="43.65292" lon="1.14538">
        <ele>141</ele>
        <time>2015-11-11T13:21:54Z</time>
      </trkpt>
      <trkpt lat="43.65292" lon="1.14531">
        <ele>141</ele>
        <time>2015-11-11T13:21:55Z</time>
      </trkpt>
      <trkpt lat="43.6529" lon="1.14521">
        <ele>141</ele>
        <time>2015-11-11T13:21:56Z</time>
      </trkpt>
      <trkpt lat="43.65289" lon="1.14516">
        <ele>141</ele>
        <time>2015-11-11T13:21:57Z</time>
      </trkpt>
      <trkpt lat="43.65286" lon="1.14507">
        <ele>141.1</ele>
        <time>2015-11-11T13:21:58Z</time>
      </trkpt>
      <trkpt lat="43.65283" lon="1.145">
        <ele>141.1</ele>
        <time>2015-11-11T13:21:59Z</time>
      </trkpt>
      <trkpt lat="43.65281" lon="1.14491">
        <ele>141.1</ele>
        <time>2015-11-11T13:22:00Z</time>
      </trkpt>
      <trkpt lat="43.65278" lon="1.14486">
        <ele>141.1</ele>
        <time>2015-11-11T13:22:01Z</time>
      </trkpt>
      <trkpt lat="43.65276" lon="1.14482">
        <ele>141</ele>
        <time>2015-11-11T13:22:02Z</time>
      </trkpt>
      <trkpt lat="43.65272" lon="1.14475">
        <ele>141</ele>
        <time>2015-11-11T13:22:03Z</time>
      </trkpt>
      <trkpt lat="43.65267" lon="1.14467">
        <ele>140.8</ele>
        <time>2015-11-11T13:22:04Z</time>
      </trkpt>
      <trkpt lat="43.65264" lon="1.1446">
        <ele>140.7</ele>
        <time>2015-11-11T13:22:05Z</time>
      </trkpt>
      <trkpt lat="43.65259" lon="1.14455">
        <ele>140.7</ele>
        <time>2015-11-11T13:22:06Z</time>
      </trkpt>
      <trkpt lat="43.65255" lon="1.14447">
        <ele>140.7</ele>
        <time>2015-11-11T13:22:07Z</time>
      </trkpt>
      <trkpt lat="43.65251" lon="1.1444">
        <ele>140.7</ele>
        <time>2015-11-11T13:22:08Z</time>
      </trkpt>
      <trkpt lat="43.65246" lon="1.14434">
        <ele>140.7</ele>
        <time>2015-11-11T13:22:09Z</time>
      </trkpt>
      <trkpt lat="43.65242" lon="1.14427">
        <ele>140.7</ele>
        <time>2015-11-11T13:22:10Z</time>
      </trkpt>
      <trkpt lat="43.65236" lon="1.1442">
        <ele>140.6</ele>
        <time>2015-11-11T13:22:11Z</time>
      </trkpt>
      <trkpt lat="43.65231" lon="1.14413">
        <ele>140.6</ele>
        <time>2015-11-11T13:22:12Z</time>
      </trkpt>
      <trkpt lat="43.65227" lon="1.14405">
        <ele>140.5</ele>
        <time>2015-11-11T13:22:13Z</time>
      </trkpt>
      <trkpt lat="43.65224" lon="1.144">
        <ele>140.4</ele>
        <time>2015-11-11T13:22:14Z</time>
      </trkpt>
      <trkpt lat="43.65219" lon="1.14393">
        <ele>140.3</ele>
        <time>2015-11-11T13:22:15Z</time>
      </trkpt>
      <trkpt lat="43.65214" lon="1.14386">
        <ele>140.2</ele>
        <time>2015-11-11T13:22:16Z</time>
      </trkpt>
      <trkpt lat="43.65211" lon="1.1438">
        <ele>140.1</ele>
        <time>2015-11-11T13:22:17Z</time>
      </trkpt>
      <trkpt lat="43.65207" lon="1.14373">
        <ele>140</ele>
        <time>2015-11-11T13:22:18Z</time>
      </trkpt>
      <trkpt lat="43.65202" lon="1.14363">
        <ele>140.2</ele>
        <time>2015-11-11T13:22:19Z</time>
      </trkpt>
      <trkpt lat="43.65197" lon="1.14357">
        <ele>140.1</ele>
        <time>2015-11-11T13:22:20Z</time>
      </trkpt>
      <trkpt lat="43.65192" lon="1.14349">
        <ele>140.1</ele>
        <time>2015-11-11T13:22:21Z</time>
      </trkpt>
      <trkpt lat="43.65188" lon="1.14342">
        <ele>140</ele>
        <time>2015-11-11T13:22:22Z</time>
      </trkpt>
      <trkpt lat="43.65181" lon="1.14338">
        <ele>139.7</ele>
        <time>2015-11-11T13:22:23Z</time>
      </trkpt>
      <trkpt lat="43.65176" lon="1.14329">
        <ele>139.6</ele>
        <time>2015-11-11T13:22:24Z</time>
      </trkpt>
      <trkpt lat="43.6517" lon="1.14316">
        <ele>139.6</ele>
        <time>2015-11-11T13:22:25Z</time>
      </trkpt>
      <trkpt lat="43.65166" lon="1.14308">
        <ele>139.4</ele>
        <time>2015-11-11T13:22:26Z</time>
      </trkpt>
      <trkpt lat="43.65161" lon="1.14303">
        <ele>139.1</ele>
        <time>2015-11-11T13:22:27Z</time>
      </trkpt>
      <trkpt lat="43.65156" lon="1.14295">
        <ele>138.9</ele>
        <time>2015-11-11T13:22:29Z</time>
      </trkpt>
      <trkpt lat="43.65151" lon="1.1429">
        <ele>138.6</ele>
        <time>2015-11-11T13:22:30Z</time>
      </trkpt>
      <trkpt lat="43.65149" lon="1.14282">
        <ele>138.5</ele>
        <time>2015-11-11T13:22:31Z</time>
      </trkpt>
      <trkpt lat="43.65146" lon="1.14273">
        <ele>138.4</ele>
        <time>2015-11-11T13:22:32Z</time>
      </trkpt>
      <trkpt lat="43.65143" lon="1.14264">
        <ele>138.4</ele>
        <time>2015-11-11T13:22:33Z</time>
      </trkpt>
      <trkpt lat="43.6514" lon="1.14259">
        <ele>138.2</ele>
        <time>2015-11-11T13:22:34Z</time>
      </trkpt>
      <trkpt lat="43.65136" lon="1.1425">
        <ele>138.3</ele>
        <time>2015-11-11T13:22:35Z</time>
      </trkpt>
      <trkpt lat="43.65134" lon="1.14239">
        <ele>138.4</ele>
        <time>2015-11-11T13:22:36Z</time>
      </trkpt>
      <trkpt lat="43.65132" lon="1.14231">
        <ele>138.5</ele>
        <time>2015-11-11T13:22:37Z</time>
      </trkpt>
      <trkpt lat="43.65128" lon="1.14223">
        <ele>138.6</ele>
        <time>2015-11-11T13:22:38Z</time>
      </trkpt>
      <trkpt lat="43.65125" lon="1.14212">
        <ele>138.9</ele>
        <time>2015-11-11T13:22:39Z</time>
      </trkpt>
      <trkpt lat="43.65125" lon="1.14205">
        <ele>138.9</ele>
        <time>2015-11-11T13:22:40Z</time>
      </trkpt>
      <trkpt lat="43.65124" lon="1.14195">
        <ele>138.5</ele>
        <time>2015-11-11T13:22:41Z</time>
      </trkpt>
      <trkpt lat="43.65122" lon="1.14185">
        <ele>138.1</ele>
        <time>2015-11-11T13:22:42Z</time>
      </trkpt>
      <trkpt lat="43.65123" lon="1.14179">
        <ele>137.9</ele>
        <time>2015-11-11T13:22:43Z</time>
      </trkpt>
      <trkpt lat="43.65123" lon="1.14172">
        <ele>137.6</ele>
        <time>2015-11-11T13:22:44Z</time>
      </trkpt>
      <trkpt lat="43.65122" lon="1.14162">
        <ele>137.3</ele>
        <time>2015-11-11T13:22:45Z</time>
      </trkpt>
      <trkpt lat="43.65121" lon="1.14152">
        <ele>136.9</ele>
        <time>2015-11-11T13:22:46Z</time>
      </trkpt>
      <trkpt lat="43.65121" lon="1.14143">
        <ele>136.6</ele>
        <time>2015-11-11T13:22:47Z</time>
      </trkpt>
      <trkpt lat="43.65121" lon="1.14134">
        <ele>136.2</ele>
        <time>2015-11-11T13:22:48Z</time>
      </trkpt>
      <trkpt lat="43.65119" lon="1.14124">
        <ele>135.9</ele>
        <time>2015-11-11T13:22:49Z</time>
      </trkpt>
      <trkpt lat="43.65118" lon="1.14114">
        <ele>135.9</ele>
        <time>2015-11-11T13:22:50Z</time>
      </trkpt>
      <trkpt lat="43.65118" lon="1.14107">
        <ele>135.9</ele>
        <time>2015-11-11T13:22:51Z</time>
      </trkpt>
      <trkpt lat="43.65118" lon="1.14099">
        <ele>135.9</ele>
        <time>2015-11-11T13:22:52Z</time>
      </trkpt>
      <trkpt lat="43.65117" lon="1.14087">
        <ele>135.9</ele>
        <time>2015-11-11T13:22:53Z</time>
      </trkpt>
      <trkpt lat="43.65117" lon="1.14079">
        <ele>135.8</ele>
        <time>2015-11-11T13:22:54Z</time>
      </trkpt>
      <trkpt lat="43.65116" lon="1.14069">
        <ele>135.8</ele>
        <time>2015-11-11T13:22:55Z</time>
      </trkpt>
      <trkpt lat="43.65118" lon="1.14061">
        <ele>135.8</ele>
        <time>2015-11-11T13:22:56Z</time>
      </trkpt>
      <trkpt lat="43.65117" lon="1.14054">
        <ele>135.8</ele>
        <time>2015-11-11T13:22:57Z</time>
      </trkpt>
      <trkpt lat="43.65117" lon="1.14045">
        <ele>135.8</ele>
        <time>2015-11-11T13:22:58Z</time>
      </trkpt>
      <trkpt lat="43.65117" lon="1.14035">
        <ele>135.9</ele>
        <time>2015-11-11T13:22:59Z</time>
      </trkpt>
      <trkpt lat="43.65117" lon="1.14026">
        <ele>136</ele>
        <time>2015-11-11T13:23:00Z</time>
      </trkpt>
      <trkpt lat="43.65117" lon="1.14014">
        <ele>136.2</ele>
        <time>2015-11-11T13:23:01Z</time>
      </trkpt>
      <trkpt lat="43.65117" lon="1.14003">
        <ele>136.4</ele>
        <time>2015-11-11T13:23:02Z</time>
      </trkpt>
      <trkpt lat="43.65118" lon="1.13991">
        <ele>136.5</ele>
        <time>2015-11-11T13:23:03Z</time>
      </trkpt>
      <trkpt lat="43.65119" lon="1.13982">
        <ele>136.7</ele>
        <time>2015-11-11T13:23:04Z</time>
      </trkpt>
      <trkpt lat="43.65119" lon="1.1397">
        <ele>136.8</ele>
        <time>2015-11-11T13:23:05Z</time>
      </trkpt>
      <trkpt lat="43.6512" lon="1.1396">
        <ele>137</ele>
        <time>2015-11-11T13:23:06Z</time>
      </trkpt>
      <trkpt lat="43.65121" lon="1.13949">
        <ele>137</ele>
        <time>2015-11-11T13:23:07Z</time>
      </trkpt>
      <trkpt lat="43.65121" lon="1.13938">
        <ele>137</ele>
        <time>2015-11-11T13:23:08Z</time>
      </trkpt>
      <trkpt lat="43.65121" lon="1.13925">
        <ele>137</ele>
        <time>2015-11-11T13:23:09Z</time>
      </trkpt>
      <trkpt lat="43.65124" lon="1.13918">
        <ele>137</ele>
        <time>2015-11-11T13:23:10Z</time>
      </trkpt>
      <trkpt lat="43.65125" lon="1.13907">
        <ele>137</ele>
        <time>2015-11-11T13:23:11Z</time>
      </trkpt>
      <trkpt lat="43.65125" lon="1.13896">
        <ele>137</ele>
        <time>2015-11-11T13:23:12Z</time>
      </trkpt>
      <trkpt lat="43.65125" lon="1.13887">
        <ele>137</ele>
        <time>2015-11-11T13:23:13Z</time>
      </trkpt>
      <trkpt lat="43.65126" lon="1.13877">
        <ele>137</ele>
        <time>2015-11-11T13:23:14Z</time>
      </trkpt>
      <trkpt lat="43.65127" lon="1.13865">
        <ele>136.8</ele>
        <time>2015-11-11T13:23:15Z</time>
      </trkpt>
      <trkpt lat="43.65127" lon="1.13854">
        <ele>136.6</ele>
        <time>2015-11-11T13:23:16Z</time>
      </trkpt>
      <trkpt lat="43.65127" lon="1.13842">
        <ele>136.3</ele>
        <time>2015-11-11T13:23:17Z</time>
      </trkpt>
      <trkpt lat="43.65129" lon="1.13831">
        <ele>136.1</ele>
        <time>2015-11-11T13:23:18Z</time>
      </trkpt>
      <trkpt lat="43.65131" lon="1.13821">
        <ele>135.9</ele>
        <time>2015-11-11T13:23:19Z</time>
      </trkpt>
      <trkpt lat="43.65135" lon="1.13811">
        <ele>135.9</ele>
        <time>2015-11-11T13:23:20Z</time>
      </trkpt>
      <trkpt lat="43.65138" lon="1.13802">
        <ele>135.8</ele>
        <time>2015-11-11T13:23:21Z</time>
      </trkpt>
      <trkpt lat="43.65144" lon="1.13791">
        <ele>135.9</ele>
        <time>2015-11-11T13:23:22Z</time>
      </trkpt>
      <trkpt lat="43.65146" lon="1.13782">
        <ele>136.1</ele>
        <time>2015-11-11T13:23:23Z</time>
      </trkpt>
      <trkpt lat="43.65149" lon="1.1377">
        <ele>136.2</ele>
        <time>2015-11-11T13:23:24Z</time>
      </trkpt>
      <trkpt lat="43.65152" lon="1.1376">
        <ele>136.4</ele>
        <time>2015-11-11T13:23:25Z</time>
      </trkpt>
      <trkpt lat="43.65156" lon="1.13754">
        <ele>136.6</ele>
        <time>2015-11-11T13:23:26Z</time>
      </trkpt>
      <trkpt lat="43.6516" lon="1.13745">
        <ele>136.8</ele>
        <time>2015-11-11T13:23:27Z</time>
      </trkpt>
      <trkpt lat="43.65163" lon="1.13738">
        <ele>136.9</ele>
        <time>2015-11-11T13:23:28Z</time>
      </trkpt>
      <trkpt lat="43.65167" lon="1.1373">
        <ele>137</ele>
        <time>2015-11-11T13:23:29Z</time>
      </trkpt>
      <trkpt lat="43.65171" lon="1.1372">
        <ele>137.1</ele>
        <time>2015-11-11T13:23:30Z</time>
      </trkpt>
      <trkpt lat="43.65174" lon="1.13711">
        <ele>137.2</ele>
        <time>2015-11-11T13:23:31Z</time>
      </trkpt>
      <trkpt lat="43.65179" lon="1.13703">
        <ele>137.5</ele>
        <time>2015-11-11T13:23:32Z</time>
      </trkpt>
      <trkpt lat="43.65182" lon="1.13693">
        <ele>137.8</ele>
        <time>2015-11-11T13:23:33Z</time>
      </trkpt>
      <trkpt lat="43.65185" lon="1.13683">
        <ele>138.2</ele>
        <time>2015-11-11T13:23:34Z</time>
      </trkpt>
      <trkpt lat="43.65188" lon="1.13675">
        <ele>138.5</ele>
        <time>2015-11-11T13:23:35Z</time>
      </trkpt>
      <trkpt lat="43.65193" lon="1.13666">
        <ele>139</ele>
        <time>2015-11-11T13:23:36Z</time>
      </trkpt>
      <trkpt lat="43.65196" lon="1.13657">
        <ele>139.4</ele>
        <time>2015-11-11T13:23:37Z</time>
      </trkpt>
      <trkpt lat="43.652" lon="1.13649">
        <ele>139.8</ele>
        <time>2015-11-11T13:23:38Z</time>
      </trkpt>
      <trkpt lat="43.65204" lon="1.1364">
        <ele>140.3</ele>
        <time>2015-11-11T13:23:39Z</time>
      </trkpt>
      <trkpt lat="43.65208" lon="1.13633">
        <ele>140.7</ele>
        <time>2015-11-11T13:23:40Z</time>
      </trkpt>
      <trkpt lat="43.6521" lon="1.13623">
        <ele>140.9</ele>
        <time>2015-11-11T13:23:41Z</time>
      </trkpt>
      <trkpt lat="43.65215" lon="1.13614">
        <ele>140.5</ele>
        <time>2015-11-11T13:23:42Z</time>
      </trkpt>
      <trkpt lat="43.65219" lon="1.13602">
        <ele>140.2</ele>
        <time>2015-11-11T13:23:43Z</time>
      </trkpt>
      <trkpt lat="43.65222" lon="1.13592">
        <ele>139.9</ele>
        <time>2015-11-11T13:23:44Z</time>
      </trkpt>
      <trkpt lat="43.65223" lon="1.13583">
        <ele>139.7</ele>
        <time>2015-11-11T13:23:45Z</time>
      </trkpt>
      <trkpt lat="43.65226" lon="1.13573">
        <ele>139.5</ele>
        <time>2015-11-11T13:23:46Z</time>
      </trkpt>
      <trkpt lat="43.65225" lon="1.13563">
        <ele>139.3</ele>
        <time>2015-11-11T13:23:47Z</time>
      </trkpt>
      <trkpt lat="43.65228" lon="1.13553">
        <ele>139.2</ele>
        <time>2015-11-11T13:23:48Z</time>
      </trkpt>
      <trkpt lat="43.65233" lon="1.13545">
        <ele>139</ele>
        <time>2015-11-11T13:23:49Z</time>
      </trkpt>
      <trkpt lat="43.65236" lon="1.13535">
        <ele>138.9</ele>
        <time>2015-11-11T13:23:50Z</time>
      </trkpt>
      <trkpt lat="43.6524" lon="1.13526">
        <ele>138.7</ele>
        <time>2015-11-11T13:23:51Z</time>
      </trkpt>
      <trkpt lat="43.65242" lon="1.13515">
        <ele>138.5</ele>
        <time>2015-11-11T13:23:52Z</time>
      </trkpt>
      <trkpt lat="43.65245" lon="1.13505">
        <ele>138.3</ele>
        <time>2015-11-11T13:23:53Z</time>
      </trkpt>
      <trkpt lat="43.65248" lon="1.13495">
        <ele>138.1</ele>
        <time>2015-11-11T13:23:54Z</time>
      </trkpt>
      <trkpt lat="43.6525" lon="1.13484">
        <ele>138</ele>
        <time>2015-11-11T13:23:55Z</time>
      </trkpt>
      <trkpt lat="43.65251" lon="1.13474">
        <ele>137.8</ele>
        <time>2015-11-11T13:23:56Z</time>
      </trkpt>
      <trkpt lat="43.65253" lon="1.13465">
        <ele>137.6</ele>
        <time>2015-11-11T13:23:57Z</time>
      </trkpt>
      <trkpt lat="43.65255" lon="1.13455">
        <ele>137.5</ele>
        <time>2015-11-11T13:23:58Z</time>
      </trkpt>
      <trkpt lat="43.65258" lon="1.13445">
        <ele>137.5</ele>
        <time>2015-11-11T13:23:59Z</time>
      </trkpt>
      <trkpt lat="43.65261" lon="1.13436">
        <ele>137.5</ele>
        <time>2015-11-11T13:24:00Z</time>
      </trkpt>
      <trkpt lat="43.65264" lon="1.13426">
        <ele>137.4</ele>
        <time>2015-11-11T13:24:01Z</time>
      </trkpt>
      <trkpt lat="43.65267" lon="1.13417">
        <ele>137.4</ele>
        <time>2015-11-11T13:24:02Z</time>
      </trkpt>
      <trkpt lat="43.6527" lon="1.13408">
        <ele>137.3</ele>
        <time>2015-11-11T13:24:03Z</time>
      </trkpt>
      <trkpt lat="43.65273" lon="1.13398">
        <ele>137.2</ele>
        <time>2015-11-11T13:24:04Z</time>
      </trkpt>
      <trkpt lat="43.65275" lon="1.13389">
        <ele>137.1</ele>
        <time>2015-11-11T13:24:05Z</time>
      </trkpt>
      <trkpt lat="43.65279" lon="1.13379">
        <ele>137</ele>
        <time>2015-11-11T13:24:06Z</time>
      </trkpt>
      <trkpt lat="43.65282" lon="1.13369">
        <ele>136.9</ele>
        <time>2015-11-11T13:24:07Z</time>
      </trkpt>
      <trkpt lat="43.65286" lon="1.1336">
        <ele>136.8</ele>
        <time>2015-11-11T13:24:08Z</time>
      </trkpt>
      <trkpt lat="43.65291" lon="1.13351">
        <ele>136.7</ele>
        <time>2015-11-11T13:24:09Z</time>
      </trkpt>
      <trkpt lat="43.65297" lon="1.13342">
        <ele>136.8</ele>
        <time>2015-11-11T13:24:10Z</time>
      </trkpt>
      <trkpt lat="43.65299" lon="1.13334">
        <ele>136.8</ele>
        <time>2015-11-11T13:24:11Z</time>
      </trkpt>
      <trkpt lat="43.65304" lon="1.13325">
        <ele>136.8</ele>
        <time>2015-11-11T13:24:12Z</time>
      </trkpt>
      <trkpt lat="43.65307" lon="1.13316">
        <ele>136.8</ele>
        <time>2015-11-11T13:24:13Z</time>
      </trkpt>
      <trkpt lat="43.65312" lon="1.13307">
        <ele>136.7</ele>
        <time>2015-11-11T13:24:14Z</time>
      </trkpt>
      <trkpt lat="43.65317" lon="1.13299">
        <ele>136.7</ele>
        <time>2015-11-11T13:24:15Z</time>
      </trkpt>
      <trkpt lat="43.65319" lon="1.13293">
        <ele>136.7</ele>
        <time>2015-11-11T13:24:16Z</time>
      </trkpt>
      <trkpt lat="43.65322" lon="1.13287">
        <ele>136.7</ele>
        <time>2015-11-11T13:24:17Z</time>
      </trkpt>
      <trkpt lat="43.65326" lon="1.1328">
        <ele>136.9</ele>
        <time>2015-11-11T13:24:18Z</time>
      </trkpt>
      <trkpt lat="43.65331" lon="1.1327">
        <ele>137.1</ele>
        <time>2015-11-11T13:24:19Z</time>
      </trkpt>
      <trkpt lat="43.65335" lon="1.13259">
        <ele>137.2</ele>
        <time>2015-11-11T13:24:20Z</time>
      </trkpt>
      <trkpt lat="43.6534" lon="1.13253">
        <ele>137.4</ele>
        <time>2015-11-11T13:24:21Z</time>
      </trkpt>
      <trkpt lat="43.65344" lon="1.13243">
        <ele>137.6</ele>
        <time>2015-11-11T13:24:22Z</time>
      </trkpt>
      <trkpt lat="43.65346" lon="1.13233">
        <ele>137.8</ele>
        <time>2015-11-11T13:24:23Z</time>
      </trkpt>
      <trkpt lat="43.65351" lon="1.13226">
        <ele>138</ele>
        <time>2015-11-11T13:24:24Z</time>
      </trkpt>
      <trkpt lat="43.65357" lon="1.13219">
        <ele>138.2</ele>
        <time>2015-11-11T13:24:25Z</time>
      </trkpt>
      <trkpt lat="43.6536" lon="1.13209">
        <ele>138.5</ele>
        <time>2015-11-11T13:24:26Z</time>
      </trkpt>
      <trkpt lat="43.65364" lon="1.132">
        <ele>138.5</ele>
        <time>2015-11-11T13:24:27Z</time>
      </trkpt>
      <trkpt lat="43.65369" lon="1.1319">
        <ele>138.6</ele>
        <time>2015-11-11T13:24:28Z</time>
      </trkpt>
      <trkpt lat="43.65375" lon="1.1318">
        <ele>138.7</ele>
        <time>2015-11-11T13:24:29Z</time>
      </trkpt>
      <trkpt lat="43.65379" lon="1.13173">
        <ele>138.6</ele>
        <time>2015-11-11T13:24:30Z</time>
      </trkpt>
      <trkpt lat="43.65383" lon="1.13165">
        <ele>138.6</ele>
        <time>2015-11-11T13:24:31Z</time>
      </trkpt>
      <trkpt lat="43.65387" lon="1.13159">
        <ele>138.6</ele>
        <time>2015-11-11T13:24:32Z</time>
      </trkpt>
      <trkpt lat="43.6539" lon="1.1315">
        <ele>138.6</ele>
        <time>2015-11-11T13:24:33Z</time>
      </trkpt>
      <trkpt lat="43.65394" lon="1.1314">
        <ele>138.6</ele>
        <time>2015-11-11T13:24:34Z</time>
      </trkpt>
      <trkpt lat="43.65397" lon="1.13131">
        <ele>138.6</ele>
        <time>2015-11-11T13:24:35Z</time>
      </trkpt>
      <trkpt lat="43.65402" lon="1.13124">
        <ele>138.6</ele>
        <time>2015-11-11T13:24:36Z</time>
      </trkpt>
      <trkpt lat="43.65405" lon="1.13116">
        <ele>138.5</ele>
        <time>2015-11-11T13:24:37Z</time>
      </trkpt>
      <trkpt lat="43.65409" lon="1.13109">
        <ele>138.4</ele>
        <time>2015-11-11T13:24:38Z</time>
      </trkpt>
      <trkpt lat="43.65413" lon="1.131">
        <ele>138.2</ele>
        <time>2015-11-11T13:24:39Z</time>
      </trkpt>
      <trkpt lat="43.65419" lon="1.13093">
        <ele>138.1</ele>
        <time>2015-11-11T13:24:40Z</time>
      </trkpt>
      <trkpt lat="43.65423" lon="1.13084">
        <ele>137.8</ele>
        <time>2015-11-11T13:24:41Z</time>
      </trkpt>
      <trkpt lat="43.65427" lon="1.13076">
        <ele>137.5</ele>
        <time>2015-11-11T13:24:42Z</time>
      </trkpt>
      <trkpt lat="43.6543" lon="1.13068">
        <ele>137.3</ele>
        <time>2015-11-11T13:24:43Z</time>
      </trkpt>
      <trkpt lat="43.65433" lon="1.13059">
        <ele>137</ele>
        <time>2015-11-11T13:24:44Z</time>
      </trkpt>
      <trkpt lat="43.65436" lon="1.13051">
        <ele>136.6</ele>
        <time>2015-11-11T13:24:45Z</time>
      </trkpt>
      <trkpt lat="43.6544" lon="1.13042">
        <ele>136.2</ele>
        <time>2015-11-11T13:24:46Z</time>
      </trkpt>
      <trkpt lat="43.65442" lon="1.13035">
        <ele>136.3</ele>
        <time>2015-11-11T13:24:47Z</time>
      </trkpt>
      <trkpt lat="43.65446" lon="1.13028">
        <ele>136.5</ele>
        <time>2015-11-11T13:24:48Z</time>
      </trkpt>
      <trkpt lat="43.6545" lon="1.13019">
        <ele>136.7</ele>
        <time>2015-11-11T13:24:49Z</time>
      </trkpt>
      <trkpt lat="43.65454" lon="1.1301">
        <ele>136.8</ele>
        <time>2015-11-11T13:24:50Z</time>
      </trkpt>
      <trkpt lat="43.65458" lon="1.13001">
        <ele>137</ele>
        <time>2015-11-11T13:24:51Z</time>
      </trkpt>
      <trkpt lat="43.65461" lon="1.12992">
        <ele>137.3</ele>
        <time>2015-11-11T13:24:52Z</time>
      </trkpt>
      <trkpt lat="43.65465" lon="1.12982">
        <ele>137.6</ele>
        <time>2015-11-11T13:24:53Z</time>
      </trkpt>
      <trkpt lat="43.65471" lon="1.12976">
        <ele>137.8</ele>
        <time>2015-11-11T13:24:54Z</time>
      </trkpt>
      <trkpt lat="43.65473" lon="1.12967">
        <ele>137.9</ele>
        <time>2015-11-11T13:24:55Z</time>
      </trkpt>
      <trkpt lat="43.65476" lon="1.12959">
        <ele>138</ele>
        <time>2015-11-11T13:24:56Z</time>
      </trkpt>
      <trkpt lat="43.65479" lon="1.1295">
        <ele>138</ele>
        <time>2015-11-11T13:24:57Z</time>
      </trkpt>
      <trkpt lat="43.65483" lon="1.12942">
        <ele>138.1</ele>
        <time>2015-11-11T13:24:58Z</time>
      </trkpt>
      <trkpt lat="43.65486" lon="1.12933">
        <ele>138.1</ele>
        <time>2015-11-11T13:24:59Z</time>
      </trkpt>
      <trkpt lat="43.65489" lon="1.12923">
        <ele>138.2</ele>
        <time>2015-11-11T13:25:00Z</time>
      </trkpt>
      <trkpt lat="43.65492" lon="1.12914">
        <ele>138.2</ele>
        <time>2015-11-11T13:25:01Z</time>
      </trkpt>
      <trkpt lat="43.65495" lon="1.12906">
        <ele>138.3</ele>
        <time>2015-11-11T13:25:02Z</time>
      </trkpt>
      <trkpt lat="43.65499" lon="1.12897">
        <ele>138.4</ele>
        <time>2015-11-11T13:25:03Z</time>
      </trkpt>
      <trkpt lat="43.65502" lon="1.12889">
        <ele>138.4</ele>
        <time>2015-11-11T13:25:04Z</time>
      </trkpt>
      <trkpt lat="43.65506" lon="1.12881">
        <ele>138.5</ele>
        <time>2015-11-11T13:25:05Z</time>
      </trkpt>
      <trkpt lat="43.65509" lon="1.12872">
        <ele>138.6</ele>
        <time>2015-11-11T13:25:06Z</time>
      </trkpt>
      <trkpt lat="43.65513" lon="1.12864">
        <ele>138.4</ele>
        <time>2015-11-11T13:25:07Z</time>
      </trkpt>
      <trkpt lat="43.65517" lon="1.12857">
        <ele>138.3</ele>
        <time>2015-11-11T13:25:08Z</time>
      </trkpt>
      <trkpt lat="43.65521" lon="1.12848">
        <ele>138.1</ele>
        <time>2015-11-11T13:25:09Z</time>
      </trkpt>
      <trkpt lat="43.65524" lon="1.1284">
        <ele>137.9</ele>
        <time>2015-11-11T13:25:10Z</time>
      </trkpt>
      <trkpt lat="43.65527" lon="1.12831">
        <ele>137.6</ele>
        <time>2015-11-11T13:25:11Z</time>
      </trkpt>
      <trkpt lat="43.65531" lon="1.12822">
        <ele>137.3</ele>
        <time>2015-11-11T13:25:12Z</time>
      </trkpt>
      <trkpt lat="43.65533" lon="1.12814">
        <ele>137</ele>
        <time>2015-11-11T13:25:13Z</time>
      </trkpt>
      <trkpt lat="43.65536" lon="1.12806">
        <ele>136.7</ele>
        <time>2015-11-11T13:25:14Z</time>
      </trkpt>
      <trkpt lat="43.6554" lon="1.12796">
        <ele>136.2</ele>
        <time>2015-11-11T13:25:15Z</time>
      </trkpt>
      <trkpt lat="43.65544" lon="1.12791">
        <ele>136.1</ele>
        <time>2015-11-11T13:25:16Z</time>
      </trkpt>
      <trkpt lat="43.65547" lon="1.12781">
        <ele>136.2</ele>
        <time>2015-11-11T13:25:17Z</time>
      </trkpt>
      <trkpt lat="43.6555" lon="1.12771">
        <ele>136.2</ele>
        <time>2015-11-11T13:25:18Z</time>
      </trkpt>
      <trkpt lat="43.65552" lon="1.12762">
        <ele>136.2</ele>
        <time>2015-11-11T13:25:19Z</time>
      </trkpt>
      <trkpt lat="43.65556" lon="1.12752">
        <ele>136.3</ele>
        <time>2015-11-11T13:25:20Z</time>
      </trkpt>
      <trkpt lat="43.65559" lon="1.12742">
        <ele>136.3</ele>
        <time>2015-11-11T13:25:21Z</time>
      </trkpt>
      <trkpt lat="43.65561" lon="1.12735">
        <ele>136.3</ele>
        <time>2015-11-11T13:25:22Z</time>
      </trkpt>
      <trkpt lat="43.65563" lon="1.12725">
        <ele>136.3</ele>
        <time>2015-11-11T13:25:23Z</time>
      </trkpt>
      <trkpt lat="43.65566" lon="1.12715">
        <ele>136.2</ele>
        <time>2015-11-11T13:25:24Z</time>
      </trkpt>
      <trkpt lat="43.65568" lon="1.12705">
        <ele>136.3</ele>
        <time>2015-11-11T13:25:25Z</time>
      </trkpt>
      <trkpt lat="43.65571" lon="1.12696">
        <ele>136.4</ele>
        <time>2015-11-11T13:25:26Z</time>
      </trkpt>
      <trkpt lat="43.65574" lon="1.12687">
        <ele>136.6</ele>
        <time>2015-11-11T13:25:27Z</time>
      </trkpt>
      <trkpt lat="43.65577" lon="1.12679">
        <ele>136.6</ele>
        <time>2015-11-11T13:25:28Z</time>
      </trkpt>
      <trkpt lat="43.6558" lon="1.12669">
        <ele>136.7</ele>
        <time>2015-11-11T13:25:29Z</time>
      </trkpt>
      <trkpt lat="43.65582" lon="1.12658">
        <ele>136.7</ele>
        <time>2015-11-11T13:25:30Z</time>
      </trkpt>
      <trkpt lat="43.65586" lon="1.12649">
        <ele>136.7</ele>
        <time>2015-11-11T13:25:31Z</time>
      </trkpt>
      <trkpt lat="43.65589" lon="1.1264">
        <ele>136.6</ele>
        <time>2015-11-11T13:25:32Z</time>
      </trkpt>
      <trkpt lat="43.65591" lon="1.1263">
        <ele>136.5</ele>
        <time>2015-11-11T13:25:33Z</time>
      </trkpt>
      <trkpt lat="43.65593" lon="1.1262">
        <ele>136.5</ele>
        <time>2015-11-11T13:25:34Z</time>
      </trkpt>
      <trkpt lat="43.65596" lon="1.1261">
        <ele>136.7</ele>
        <time>2015-11-11T13:25:35Z</time>
      </trkpt>
      <trkpt lat="43.65599" lon="1.126">
        <ele>136.9</ele>
        <time>2015-11-11T13:25:36Z</time>
      </trkpt>
      <trkpt lat="43.65601" lon="1.12591">
        <ele>137.1</ele>
        <time>2015-11-11T13:25:37Z</time>
      </trkpt>
      <trkpt lat="43.65604" lon="1.12582">
        <ele>137.3</ele>
        <time>2015-11-11T13:25:38Z</time>
      </trkpt>
      <trkpt lat="43.65606" lon="1.12573">
        <ele>137.5</ele>
        <time>2015-11-11T13:25:39Z</time>
      </trkpt>
      <trkpt lat="43.65608" lon="1.12564">
        <ele>137.7</ele>
        <time>2015-11-11T13:25:40Z</time>
      </trkpt>
      <trkpt lat="43.6561" lon="1.12554">
        <ele>137.9</ele>
        <time>2015-11-11T13:25:41Z</time>
      </trkpt>
      <trkpt lat="43.65612" lon="1.12545">
        <ele>138.1</ele>
        <time>2015-11-11T13:25:42Z</time>
      </trkpt>
      <trkpt lat="43.65613" lon="1.12536">
        <ele>138.1</ele>
        <time>2015-11-11T13:25:43Z</time>
      </trkpt>
      <trkpt lat="43.65615" lon="1.12526">
        <ele>138.1</ele>
        <time>2015-11-11T13:25:44Z</time>
      </trkpt>
      <trkpt lat="43.65616" lon="1.12517">
        <ele>138.1</ele>
        <time>2015-11-11T13:25:45Z</time>
      </trkpt>
      <trkpt lat="43.65616" lon="1.12506">
        <ele>138.1</ele>
        <time>2015-11-11T13:25:46Z</time>
      </trkpt>
      <trkpt lat="43.65616" lon="1.12496">
        <ele>138</ele>
        <time>2015-11-11T13:25:47Z</time>
      </trkpt>
      <trkpt lat="43.65617" lon="1.12485">
        <ele>138</ele>
        <time>2015-11-11T13:25:48Z</time>
      </trkpt>
      <trkpt lat="43.65618" lon="1.12476">
        <ele>138</ele>
        <time>2015-11-11T13:25:49Z</time>
      </trkpt>
      <trkpt lat="43.65619" lon="1.12466">
        <ele>138</ele>
        <time>2015-11-11T13:25:50Z</time>
      </trkpt>
      <trkpt lat="43.6562" lon="1.12454">
        <ele>138.1</ele>
        <time>2015-11-11T13:25:51Z</time>
      </trkpt>
      <trkpt lat="43.65621" lon="1.12444">
        <ele>138.3</ele>
        <time>2015-11-11T13:25:52Z</time>
      </trkpt>
      <trkpt lat="43.65622" lon="1.12433">
        <ele>138.6</ele>
        <time>2015-11-11T13:25:53Z</time>
      </trkpt>
      <trkpt lat="43.65623" lon="1.12421">
        <ele>138.9</ele>
        <time>2015-11-11T13:25:54Z</time>
      </trkpt>
      <trkpt lat="43.65625" lon="1.12411">
        <ele>139.1</ele>
        <time>2015-11-11T13:25:55Z</time>
      </trkpt>
      <trkpt lat="43.65626" lon="1.12404">
        <ele>139.3</ele>
        <time>2015-11-11T13:25:56Z</time>
      </trkpt>
      <trkpt lat="43.65627" lon="1.12394">
        <ele>139.6</ele>
        <time>2015-11-11T13:25:57Z</time>
      </trkpt>
      <trkpt lat="43.65628" lon="1.12383">
        <ele>139.8</ele>
        <time>2015-11-11T13:25:58Z</time>
      </trkpt>
      <trkpt lat="43.6563" lon="1.12373">
        <ele>140</ele>
        <time>2015-11-11T13:25:59Z</time>
      </trkpt>
      <trkpt lat="43.65631" lon="1.12363">
        <ele>139.9</ele>
        <time>2015-11-11T13:26:00Z</time>
      </trkpt>
      <trkpt lat="43.65632" lon="1.12352">
        <ele>139.8</ele>
        <time>2015-11-11T13:26:01Z</time>
      </trkpt>
      <trkpt lat="43.65633" lon="1.12341">
        <ele>139.7</ele>
        <time>2015-11-11T13:26:02Z</time>
      </trkpt>
      <trkpt lat="43.65633" lon="1.1233">
        <ele>139.6</ele>
        <time>2015-11-11T13:26:03Z</time>
      </trkpt>
      <trkpt lat="43.65634" lon="1.12321">
        <ele>139.5</ele>
        <time>2015-11-11T13:26:04Z</time>
      </trkpt>
      <trkpt lat="43.65634" lon="1.12311">
        <ele>139.4</ele>
        <time>2015-11-11T13:26:05Z</time>
      </trkpt>
      <trkpt lat="43.65636" lon="1.12302">
        <ele>139.4</ele>
        <time>2015-11-11T13:26:06Z</time>
      </trkpt>
      <trkpt lat="43.65636" lon="1.12292">
        <ele>139.3</ele>
        <time>2015-11-11T13:26:07Z</time>
      </trkpt>
      <trkpt lat="43.65637" lon="1.12284">
        <ele>139.3</ele>
        <time>2015-11-11T13:26:08Z</time>
      </trkpt>
      <trkpt lat="43.65636" lon="1.12274">
        <ele>139.3</ele>
        <time>2015-11-11T13:26:09Z</time>
      </trkpt>
      <trkpt lat="43.65637" lon="1.12264">
        <ele>139.3</ele>
        <time>2015-11-11T13:26:10Z</time>
      </trkpt>
      <trkpt lat="43.65635" lon="1.12252">
        <ele>139.3</ele>
        <time>2015-11-11T13:26:11Z</time>
      </trkpt>
      <trkpt lat="43.65636" lon="1.12243">
        <ele>139.3</ele>
        <time>2015-11-11T13:26:12Z</time>
      </trkpt>
      <trkpt lat="43.65635" lon="1.12232">
        <ele>139.3</ele>
        <time>2015-11-11T13:26:13Z</time>
      </trkpt>
      <trkpt lat="43.65633" lon="1.12222">
        <ele>139.3</ele>
        <time>2015-11-11T13:26:14Z</time>
      </trkpt>
      <trkpt lat="43.65633" lon="1.12211">
        <ele>139.3</ele>
        <time>2015-11-11T13:26:15Z</time>
      </trkpt>
      <trkpt lat="43.65632" lon="1.12201">
        <ele>139.3</ele>
        <time>2015-11-11T13:26:16Z</time>
      </trkpt>
      <trkpt lat="43.65635" lon="1.12193">
        <ele>139.5</ele>
        <time>2015-11-11T13:26:17Z</time>
      </trkpt>
      <trkpt lat="43.65635" lon="1.12182">
        <ele>139.6</ele>
        <time>2015-11-11T13:26:18Z</time>
      </trkpt>
      <trkpt lat="43.65635" lon="1.12171">
        <ele>139.7</ele>
        <time>2015-11-11T13:26:19Z</time>
      </trkpt>
      <trkpt lat="43.65635" lon="1.1216">
        <ele>139.8</ele>
        <time>2015-11-11T13:26:20Z</time>
      </trkpt>
      <trkpt lat="43.65637" lon="1.12149">
        <ele>139.9</ele>
        <time>2015-11-11T13:26:21Z</time>
      </trkpt>
      <trkpt lat="43.6564" lon="1.1214">
        <ele>140.1</ele>
        <time>2015-11-11T13:26:22Z</time>
      </trkpt>
      <trkpt lat="43.65643" lon="1.12132">
        <ele>140.2</ele>
        <time>2015-11-11T13:26:23Z</time>
      </trkpt>
      <trkpt lat="43.65646" lon="1.12122">
        <ele>140.2</ele>
        <time>2015-11-11T13:26:24Z</time>
      </trkpt>
      <trkpt lat="43.65649" lon="1.12111">
        <ele>140.3</ele>
        <time>2015-11-11T13:26:25Z</time>
      </trkpt>
      <trkpt lat="43.65653" lon="1.12102">
        <ele>140.3</ele>
        <time>2015-11-11T13:26:26Z</time>
      </trkpt>
      <trkpt lat="43.65656" lon="1.1209">
        <ele>140.4</ele>
        <time>2015-11-11T13:26:27Z</time>
      </trkpt>
      <trkpt lat="43.65659" lon="1.1208">
        <ele>140.4</ele>
        <time>2015-11-11T13:26:28Z</time>
      </trkpt>
      <trkpt lat="43.65662" lon="1.12071">
        <ele>140.4</ele>
        <time>2015-11-11T13:26:29Z</time>
      </trkpt>
      <trkpt lat="43.65664" lon="1.12061">
        <ele>140.5</ele>
        <time>2015-11-11T13:26:30Z</time>
      </trkpt>
      <trkpt lat="43.65668" lon="1.1205">
        <ele>140.5</ele>
        <time>2015-11-11T13:26:31Z</time>
      </trkpt>
      <trkpt lat="43.6567" lon="1.1204">
        <ele>140.6</ele>
        <time>2015-11-11T13:26:32Z</time>
      </trkpt>
      <trkpt lat="43.65672" lon="1.1203">
        <ele>140.6</ele>
        <time>2015-11-11T13:26:33Z</time>
      </trkpt>
      <trkpt lat="43.65675" lon="1.12021">
        <ele>140.8</ele>
        <time>2015-11-11T13:26:34Z</time>
      </trkpt>
      <trkpt lat="43.65678" lon="1.12013">
        <ele>140.9</ele>
        <time>2015-11-11T13:26:35Z</time>
      </trkpt>
      <trkpt lat="43.6568" lon="1.12003">
        <ele>141</ele>
        <time>2015-11-11T13:26:36Z</time>
      </trkpt>
      <trkpt lat="43.65682" lon="1.11994">
        <ele>141.1</ele>
        <time>2015-11-11T13:26:37Z</time>
      </trkpt>
      <trkpt lat="43.65685" lon="1.11985">
        <ele>141.2</ele>
        <time>2015-11-11T13:26:38Z</time>
      </trkpt>
      <trkpt lat="43.65687" lon="1.11975">
        <ele>141.3</ele>
        <time>2015-11-11T13:26:39Z</time>
      </trkpt>
      <trkpt lat="43.65689" lon="1.11965">
        <ele>141.5</ele>
        <time>2015-11-11T13:26:40Z</time>
      </trkpt>
      <trkpt lat="43.65692" lon="1.11955">
        <ele>141.5</ele>
        <time>2015-11-11T13:26:41Z</time>
      </trkpt>
      <trkpt lat="43.65693" lon="1.11945">
        <ele>141.4</ele>
        <time>2015-11-11T13:26:42Z</time>
      </trkpt>
      <trkpt lat="43.65694" lon="1.11935">
        <ele>141.2</ele>
        <time>2015-11-11T13:26:43Z</time>
      </trkpt>
      <trkpt lat="43.65696" lon="1.11924">
        <ele>141</ele>
        <time>2015-11-11T13:26:44Z</time>
      </trkpt>
      <trkpt lat="43.65697" lon="1.11914">
        <ele>140.8</ele>
        <time>2015-11-11T13:26:45Z</time>
      </trkpt>
      <trkpt lat="43.657" lon="1.11905">
        <ele>140.7</ele>
        <time>2015-11-11T13:26:46Z</time>
      </trkpt>
      <trkpt lat="43.65702" lon="1.11893">
        <ele>140.4</ele>
        <time>2015-11-11T13:26:47Z</time>
      </trkpt>
      <trkpt lat="43.65703" lon="1.11883">
        <ele>140.2</ele>
        <time>2015-11-11T13:26:48Z</time>
      </trkpt>
      <trkpt lat="43.65704" lon="1.11871">
        <ele>140</ele>
        <time>2015-11-11T13:26:49Z</time>
      </trkpt>
      <trkpt lat="43.65705" lon="1.11859">
        <ele>140</ele>
        <time>2015-11-11T13:26:50Z</time>
      </trkpt>
      <trkpt lat="43.65706" lon="1.11849">
        <ele>140</ele>
        <time>2015-11-11T13:26:51Z</time>
      </trkpt>
      <trkpt lat="43.65709" lon="1.11838">
        <ele>140</ele>
        <time>2015-11-11T13:26:52Z</time>
      </trkpt>
      <trkpt lat="43.65711" lon="1.11829">
        <ele>140.1</ele>
        <time>2015-11-11T13:26:53Z</time>
      </trkpt>
      <trkpt lat="43.65714" lon="1.11818">
        <ele>140.2</ele>
        <time>2015-11-11T13:26:54Z</time>
      </trkpt>
      <trkpt lat="43.65715" lon="1.11808">
        <ele>140.3</ele>
        <time>2015-11-11T13:26:55Z</time>
      </trkpt>
      <trkpt lat="43.65716" lon="1.11798">
        <ele>140.3</ele>
        <time>2015-11-11T13:26:56Z</time>
      </trkpt>
      <trkpt lat="43.65718" lon="1.11788">
        <ele>140.3</ele>
        <time>2015-11-11T13:26:57Z</time>
      </trkpt>
      <trkpt lat="43.6572" lon="1.1178">
        <ele>140.4</ele>
        <time>2015-11-11T13:26:58Z</time>
      </trkpt>
      <trkpt lat="43.65722" lon="1.11769">
        <ele>140.5</ele>
        <time>2015-11-11T13:26:59Z</time>
      </trkpt>
      <trkpt lat="43.65723" lon="1.11759">
        <ele>140.5</ele>
        <time>2015-11-11T13:27:00Z</time>
      </trkpt>
      <trkpt lat="43.65724" lon="1.11748">
        <ele>140.6</ele>
        <time>2015-11-11T13:27:01Z</time>
      </trkpt>
      <trkpt lat="43.65725" lon="1.11738">
        <ele>140.6</ele>
        <time>2015-11-11T13:27:02Z</time>
      </trkpt>
      <trkpt lat="43.65727" lon="1.1173">
        <ele>140.7</ele>
        <time>2015-11-11T13:27:03Z</time>
      </trkpt>
      <trkpt lat="43.65729" lon="1.11721">
        <ele>140.7</ele>
        <time>2015-11-11T13:27:04Z</time>
      </trkpt>
      <trkpt lat="43.65731" lon="1.11714">
        <ele>140.8</ele>
        <time>2015-11-11T13:27:05Z</time>
      </trkpt>
      <trkpt lat="43.65733" lon="1.11705">
        <ele>140.8</ele>
        <time>2015-11-11T13:27:06Z</time>
      </trkpt>
      <trkpt lat="43.65735" lon="1.11695">
        <ele>140.8</ele>
        <time>2015-11-11T13:27:07Z</time>
      </trkpt>
      <trkpt lat="43.65737" lon="1.11686">
        <ele>140.9</ele>
        <time>2015-11-11T13:27:08Z</time>
      </trkpt>
      <trkpt lat="43.65739" lon="1.11675">
        <ele>140.8</ele>
        <time>2015-11-11T13:27:09Z</time>
      </trkpt>
      <trkpt lat="43.65742" lon="1.11665">
        <ele>140.8</ele>
        <time>2015-11-11T13:27:10Z</time>
      </trkpt>
      <trkpt lat="43.65744" lon="1.11656">
        <ele>140.8</ele>
        <time>2015-11-11T13:27:11Z</time>
      </trkpt>
      <trkpt lat="43.65746" lon="1.11647">
        <ele>140.7</ele>
        <time>2015-11-11T13:27:12Z</time>
      </trkpt>
      <trkpt lat="43.65748" lon="1.11636">
        <ele>140.6</ele>
        <time>2015-11-11T13:27:13Z</time>
      </trkpt>
      <trkpt lat="43.6575" lon="1.11628">
        <ele>140.5</ele>
        <time>2015-11-11T13:27:14Z</time>
      </trkpt>
      <trkpt lat="43.65752" lon="1.11617">
        <ele>140.6</ele>
        <time>2015-11-11T13:27:15Z</time>
      </trkpt>
      <trkpt lat="43.65755" lon="1.11608">
        <ele>140.6</ele>
        <time>2015-11-11T13:27:16Z</time>
      </trkpt>
      <trkpt lat="43.65757" lon="1.11599">
        <ele>140.7</ele>
        <time>2015-11-11T13:27:17Z</time>
      </trkpt>
      <trkpt lat="43.6576" lon="1.1159">
        <ele>140.8</ele>
        <time>2015-11-11T13:27:18Z</time>
      </trkpt>
      <trkpt lat="43.65762" lon="1.11581">
        <ele>140.8</ele>
        <time>2015-11-11T13:27:19Z</time>
      </trkpt>
      <trkpt lat="43.65765" lon="1.11577">
        <ele>140.9</ele>
        <time>2015-11-11T13:27:20Z</time>
      </trkpt>
      <trkpt lat="43.65769" lon="1.1157">
        <ele>140.9</ele>
        <time>2015-11-11T13:27:21Z</time>
      </trkpt>
      <trkpt lat="43.65772" lon="1.11561">
        <ele>140.9</ele>
        <time>2015-11-11T13:27:22Z</time>
      </trkpt>
      <trkpt lat="43.65773" lon="1.11547">
        <ele>141</ele>
        <time>2015-11-11T13:27:23Z</time>
      </trkpt>
      <trkpt lat="43.65776" lon="1.11538">
        <ele>141</ele>
        <time>2015-11-11T13:27:24Z</time>
      </trkpt>
      <trkpt lat="43.65777" lon="1.11525">
        <ele>141.2</ele>
        <time>2015-11-11T13:27:25Z</time>
      </trkpt>
      <trkpt lat="43.65781" lon="1.11524">
        <ele>141.2</ele>
        <time>2015-11-11T13:27:26Z</time>
      </trkpt>
      <trkpt lat="43.65785" lon="1.1152">
        <ele>141.2</ele>
        <time>2015-11-11T13:27:27Z</time>
      </trkpt>
      <trkpt lat="43.65788" lon="1.11508">
        <ele>141.4</ele>
        <time>2015-11-11T13:27:28Z</time>
      </trkpt>
      <trkpt lat="43.65792" lon="1.11499">
        <ele>141.5</ele>
        <time>2015-11-11T13:27:29Z</time>
      </trkpt>
      <trkpt lat="43.65793" lon="1.1149">
        <ele>141.6</ele>
        <time>2015-11-11T13:27:30Z</time>
      </trkpt>
      <trkpt lat="43.65795" lon="1.11479">
        <ele>141.8</ele>
        <time>2015-11-11T13:27:31Z</time>
      </trkpt>
      <trkpt lat="43.65796" lon="1.1147">
        <ele>141.9</ele>
        <time>2015-11-11T13:27:32Z</time>
      </trkpt>
      <trkpt lat="43.65798" lon="1.11458">
        <ele>142.1</ele>
        <time>2015-11-11T13:27:33Z</time>
      </trkpt>
      <trkpt lat="43.65799" lon="1.11448">
        <ele>142.1</ele>
        <time>2015-11-11T13:27:34Z</time>
      </trkpt>
      <trkpt lat="43.65801" lon="1.11437">
        <ele>142.1</ele>
        <time>2015-11-11T13:27:35Z</time>
      </trkpt>
      <trkpt lat="43.65805" lon="1.1143">
        <ele>142.2</ele>
        <time>2015-11-11T13:27:36Z</time>
      </trkpt>
      <trkpt lat="43.65807" lon="1.1142">
        <ele>142.2</ele>
        <time>2015-11-11T13:27:37Z</time>
      </trkpt>
      <trkpt lat="43.6581" lon="1.11411">
        <ele>142.2</ele>
        <time>2015-11-11T13:27:38Z</time>
      </trkpt>
      <trkpt lat="43.65811" lon="1.11399">
        <ele>142.2</ele>
        <time>2015-11-11T13:27:39Z</time>
      </trkpt>
      <trkpt lat="43.65813" lon="1.11386">
        <ele>142.3</ele>
        <time>2015-11-11T13:27:40Z</time>
      </trkpt>
      <trkpt lat="43.65813" lon="1.11376">
        <ele>142.3</ele>
        <time>2015-11-11T13:27:41Z</time>
      </trkpt>
      <trkpt lat="43.65816" lon="1.11366">
        <ele>142.4</ele>
        <time>2015-11-11T13:27:42Z</time>
      </trkpt>
      <trkpt lat="43.65818" lon="1.11356">
        <ele>142.5</ele>
        <time>2015-11-11T13:27:43Z</time>
      </trkpt>
      <trkpt lat="43.6582" lon="1.11346">
        <ele>142.6</ele>
        <time>2015-11-11T13:27:44Z</time>
      </trkpt>
      <trkpt lat="43.65821" lon="1.11334">
        <ele>142.7</ele>
        <time>2015-11-11T13:27:45Z</time>
      </trkpt>
      <trkpt lat="43.65823" lon="1.11324">
        <ele>142.8</ele>
        <time>2015-11-11T13:27:46Z</time>
      </trkpt>
      <trkpt lat="43.65825" lon="1.11313">
        <ele>142.8</ele>
        <time>2015-11-11T13:27:47Z</time>
      </trkpt>
      <trkpt lat="43.65826" lon="1.11301">
        <ele>142.9</ele>
        <time>2015-11-11T13:27:48Z</time>
      </trkpt>
      <trkpt lat="43.65828" lon="1.1129">
        <ele>143</ele>
        <time>2015-11-11T13:27:49Z</time>
      </trkpt>
      <trkpt lat="43.6583" lon="1.11279">
        <ele>143</ele>
        <time>2015-11-11T13:27:50Z</time>
      </trkpt>
      <trkpt lat="43.65832" lon="1.11269">
        <ele>143</ele>
        <time>2015-11-11T13:27:51Z</time>
      </trkpt>
      <trkpt lat="43.65834" lon="1.11256">
        <ele>143</ele>
        <time>2015-11-11T13:27:52Z</time>
      </trkpt>
      <trkpt lat="43.65835" lon="1.11245">
        <ele>143</ele>
        <time>2015-11-11T13:27:53Z</time>
      </trkpt>
      <trkpt lat="43.65837" lon="1.11235">
        <ele>143</ele>
        <time>2015-11-11T13:27:54Z</time>
      </trkpt>
      <trkpt lat="43.65839" lon="1.11224">
        <ele>143</ele>
        <time>2015-11-11T13:27:55Z</time>
      </trkpt>
      <trkpt lat="43.65841" lon="1.1121">
        <ele>143</ele>
        <time>2015-11-11T13:27:56Z</time>
      </trkpt>
      <trkpt lat="43.65841" lon="1.11199">
        <ele>143</ele>
        <time>2015-11-11T13:27:57Z</time>
      </trkpt>
      <trkpt lat="43.65844" lon="1.11187">
        <ele>143</ele>
        <time>2015-11-11T13:27:58Z</time>
      </trkpt>
      <trkpt lat="43.65845" lon="1.11174">
        <ele>143</ele>
        <time>2015-11-11T13:27:59Z</time>
      </trkpt>
      <trkpt lat="43.65848" lon="1.11162">
        <ele>143</ele>
        <time>2015-11-11T13:28:00Z</time>
      </trkpt>
      <trkpt lat="43.6585" lon="1.11153">
        <ele>143.1</ele>
        <time>2015-11-11T13:28:01Z</time>
      </trkpt>
      <trkpt lat="43.65852" lon="1.11143">
        <ele>143.1</ele>
        <time>2015-11-11T13:28:02Z</time>
      </trkpt>
      <trkpt lat="43.65852" lon="1.11133">
        <ele>143.2</ele>
        <time>2015-11-11T13:28:03Z</time>
      </trkpt>
      <trkpt lat="43.65854" lon="1.11124">
        <ele>143.2</ele>
        <time>2015-11-11T13:28:04Z</time>
      </trkpt>
      <trkpt lat="43.65856" lon="1.11114">
        <ele>143.3</ele>
        <time>2015-11-11T13:28:05Z</time>
      </trkpt>
      <trkpt lat="43.65857" lon="1.11102">
        <ele>143.4</ele>
        <time>2015-11-11T13:28:06Z</time>
      </trkpt>
      <trkpt lat="43.6586" lon="1.11097">
        <ele>143.5</ele>
        <time>2015-11-11T13:28:07Z</time>
      </trkpt>
      <trkpt lat="43.65862" lon="1.11088">
        <ele>143.6</ele>
        <time>2015-11-11T13:28:08Z</time>
      </trkpt>
      <trkpt lat="43.65863" lon="1.1108">
        <ele>143.6</ele>
        <time>2015-11-11T13:28:09Z</time>
      </trkpt>
      <trkpt lat="43.65865" lon="1.11072">
        <ele>143.7</ele>
        <time>2015-11-11T13:28:10Z</time>
      </trkpt>
      <trkpt lat="43.65867" lon="1.11063">
        <ele>143.8</ele>
        <time>2015-11-11T13:28:11Z</time>
      </trkpt>
      <trkpt lat="43.6587" lon="1.11056">
        <ele>143.9</ele>
        <time>2015-11-11T13:28:12Z</time>
      </trkpt>
      <trkpt lat="43.65872" lon="1.11047">
        <ele>143.9</ele>
        <time>2015-11-11T13:28:13Z</time>
      </trkpt>
      <trkpt lat="43.65874" lon="1.11039">
        <ele>143.9</ele>
        <time>2015-11-11T13:28:14Z</time>
      </trkpt>
      <trkpt lat="43.65877" lon="1.11031">
        <ele>143.9</ele>
        <time>2015-11-11T13:28:15Z</time>
      </trkpt>
      <trkpt lat="43.65882" lon="1.1103">
        <ele>144.1</ele>
        <time>2015-11-11T13:28:16Z</time>
      </trkpt>
      <trkpt lat="43.65887" lon="1.1103">
        <ele>144.3</ele>
        <time>2015-11-11T13:28:17Z</time>
      </trkpt>
      <trkpt lat="43.65891" lon="1.11034">
        <ele>144.5</ele>
        <time>2015-11-11T13:28:18Z</time>
      </trkpt>
      <trkpt lat="43.65895" lon="1.11038">
        <ele>144.7</ele>
        <time>2015-11-11T13:28:19Z</time>
      </trkpt>
      <trkpt lat="43.65898" lon="1.11042">
        <ele>144.8</ele>
        <time>2015-11-11T13:28:20Z</time>
      </trkpt>
      <trkpt lat="43.65901" lon="1.11043">
        <ele>144.9</ele>
        <time>2015-11-11T13:28:21Z</time>
      </trkpt>
      <trkpt lat="43.65905" lon="1.11047">
        <ele>145.1</ele>
        <time>2015-11-11T13:28:22Z</time>
      </trkpt>
      <trkpt lat="43.65908" lon="1.11053">
        <ele>145.2</ele>
        <time>2015-11-11T13:28:23Z</time>
      </trkpt>
      <trkpt lat="43.65912" lon="1.11057">
        <ele>145.4</ele>
        <time>2015-11-11T13:28:24Z</time>
      </trkpt>
      <trkpt lat="43.65915" lon="1.11062">
        <ele>145.6</ele>
        <time>2015-11-11T13:28:25Z</time>
      </trkpt>
      <trkpt lat="43.65919" lon="1.11064">
        <ele>145.7</ele>
        <time>2015-11-11T13:28:26Z</time>
      </trkpt>
      <trkpt lat="43.65922" lon="1.11069">
        <ele>145.9</ele>
        <time>2015-11-11T13:28:27Z</time>
      </trkpt>
      <trkpt lat="43.65926" lon="1.1107">
        <ele>146</ele>
        <time>2015-11-11T13:28:28Z</time>
      </trkpt>
      <trkpt lat="43.65929" lon="1.11072">
        <ele>146.2</ele>
        <time>2015-11-11T13:28:29Z</time>
      </trkpt>
      <trkpt lat="43.65932" lon="1.11079">
        <ele>146.4</ele>
        <time>2015-11-11T13:28:30Z</time>
      </trkpt>
      <trkpt lat="43.65935" lon="1.11088">
        <ele>146.6</ele>
        <time>2015-11-11T13:28:31Z</time>
      </trkpt>
      <trkpt lat="43.65938" lon="1.11096">
        <ele>146.8</ele>
        <time>2015-11-11T13:28:32Z</time>
      </trkpt>
      <trkpt lat="43.65942" lon="1.11104">
        <ele>147</ele>
        <time>2015-11-11T13:28:33Z</time>
      </trkpt>
      <trkpt lat="43.65945" lon="1.11109">
        <ele>147.2</ele>
        <time>2015-11-11T13:28:34Z</time>
      </trkpt>
      <trkpt lat="43.6595" lon="1.11114">
        <ele>147.5</ele>
        <time>2015-11-11T13:28:35Z</time>
      </trkpt>
      <trkpt lat="43.65953" lon="1.11119">
        <ele>147.7</ele>
        <time>2015-11-11T13:28:36Z</time>
      </trkpt>
      <trkpt lat="43.65957" lon="1.11123">
        <ele>147.9</ele>
        <time>2015-11-11T13:28:37Z</time>
      </trkpt>
      <trkpt lat="43.65958" lon="1.11133">
        <ele>147.9</ele>
        <time>2015-11-11T13:28:38Z</time>
      </trkpt>
      <trkpt lat="43.65962" lon="1.11138">
        <ele>148</ele>
        <time>2015-11-11T13:28:39Z</time>
      </trkpt>
      <trkpt lat="43.65965" lon="1.11144">
        <ele>148.2</ele>
        <time>2015-11-11T13:28:40Z</time>
      </trkpt>
      <trkpt lat="43.65969" lon="1.11148">
        <ele>148.3</ele>
        <time>2015-11-11T13:28:41Z</time>
      </trkpt>
      <trkpt lat="43.65973" lon="1.11154">
        <ele>148.4</ele>
        <time>2015-11-11T13:28:42Z</time>
      </trkpt>
      <trkpt lat="43.65977" lon="1.11161">
        <ele>148.5</ele>
        <time>2015-11-11T13:28:43Z</time>
      </trkpt>
      <trkpt lat="43.6598" lon="1.11166">
        <ele>148.6</ele>
        <time>2015-11-11T13:28:44Z</time>
      </trkpt>
      <trkpt lat="43.65984" lon="1.11171">
        <ele>148.7</ele>
        <time>2015-11-11T13:28:45Z</time>
      </trkpt>
      <trkpt lat="43.65988" lon="1.11175">
        <ele>148.8</ele>
        <time>2015-11-11T13:28:46Z</time>
      </trkpt>
      <trkpt lat="43.65993" lon="1.11179">
        <ele>148.9</ele>
        <time>2015-11-11T13:28:47Z</time>
      </trkpt>
      <trkpt lat="43.65998" lon="1.11184">
        <ele>149</ele>
        <time>2015-11-11T13:28:48Z</time>
      </trkpt>
      <trkpt lat="43.66002" lon="1.11188">
        <ele>149.1</ele>
        <time>2015-11-11T13:28:49Z</time>
      </trkpt>
      <trkpt lat="43.66006" lon="1.11193">
        <ele>149.1</ele>
        <time>2015-11-11T13:28:50Z</time>
      </trkpt>
      <trkpt lat="43.66009" lon="1.11198">
        <ele>149.1</ele>
        <time>2015-11-11T13:28:51Z</time>
      </trkpt>
      <trkpt lat="43.66011" lon="1.11203">
        <ele>149</ele>
        <time>2015-11-11T13:28:52Z</time>
      </trkpt>
      <trkpt lat="43.66015" lon="1.11208">
        <ele>149</ele>
        <time>2015-11-11T13:28:53Z</time>
      </trkpt>
      <trkpt lat="43.66018" lon="1.11214">
        <ele>149.1</ele>
        <time>2015-11-11T13:28:54Z</time>
      </trkpt>
      <trkpt lat="43.66022" lon="1.11217">
        <ele>149.1</ele>
        <time>2015-11-11T13:28:55Z</time>
      </trkpt>
      <trkpt lat="43.66024" lon="1.11222">
        <ele>149.1</ele>
        <time>2015-11-11T13:28:56Z</time>
      </trkpt>
      <trkpt lat="43.66028" lon="1.11227">
        <ele>149.1</ele>
        <time>2015-11-11T13:28:57Z</time>
      </trkpt>
      <trkpt lat="43.66031" lon="1.11232">
        <ele>149.1</ele>
        <time>2015-11-11T13:28:58Z</time>
      </trkpt>
      <trkpt lat="43.66034" lon="1.11238">
        <ele>149.1</ele>
        <time>2015-11-11T13:28:59Z</time>
      </trkpt>
      <trkpt lat="43.66038" lon="1.11243">
        <ele>149.1</ele>
        <time>2015-11-11T13:29:00Z</time>
      </trkpt>
      <trkpt lat="43.66042" lon="1.1125">
        <ele>149</ele>
        <time>2015-11-11T13:29:01Z</time>
      </trkpt>
      <trkpt lat="43.66045" lon="1.11255">
        <ele>149.1</ele>
        <time>2015-11-11T13:29:02Z</time>
      </trkpt>
      <trkpt lat="43.66049" lon="1.1126">
        <ele>149.3</ele>
        <time>2015-11-11T13:29:03Z</time>
      </trkpt>
      <trkpt lat="43.66053" lon="1.11266">
        <ele>149.4</ele>
        <time>2015-11-11T13:29:04Z</time>
      </trkpt>
      <trkpt lat="43.66058" lon="1.11272">
        <ele>149.5</ele>
        <time>2015-11-11T13:29:05Z</time>
      </trkpt>
      <trkpt lat="43.66064" lon="1.11276">
        <ele>149.8</ele>
        <time>2015-11-11T13:29:06Z</time>
      </trkpt>
      <trkpt lat="43.66065" lon="1.11281">
        <ele>149.7</ele>
        <time>2015-11-11T13:29:07Z</time>
      </trkpt>
      <trkpt lat="43.66068" lon="1.11286">
        <ele>149.8</ele>
        <time>2015-11-11T13:29:08Z</time>
      </trkpt>
      <trkpt lat="43.66073" lon="1.11292">
        <ele>149.9</ele>
        <time>2015-11-11T13:29:09Z</time>
      </trkpt>
      <trkpt lat="43.66076" lon="1.11297">
        <ele>150.1</ele>
        <time>2015-11-11T13:29:10Z</time>
      </trkpt>
      <trkpt lat="43.66076" lon="1.11305">
        <ele>150.2</ele>
        <time>2015-11-11T13:29:12Z</time>
      </trkpt>
      <trkpt lat="43.6608" lon="1.1131">
        <ele>150.5</ele>
        <time>2015-11-11T13:29:13Z</time>
      </trkpt>
      <trkpt lat="43.66083" lon="1.11314">
        <ele>150.7</ele>
        <time>2015-11-11T13:29:14Z</time>
      </trkpt>
      <trkpt lat="43.66086" lon="1.11318">
        <ele>151</ele>
        <time>2015-11-11T13:29:15Z</time>
      </trkpt>
      <trkpt lat="43.66089" lon="1.11321">
        <ele>151.2</ele>
        <time>2015-11-11T13:29:16Z</time>
      </trkpt>
      <trkpt lat="43.66092" lon="1.11325">
        <ele>151.4</ele>
        <time>2015-11-11T13:29:17Z</time>
      </trkpt>
      <trkpt lat="43.66094" lon="1.11329">
        <ele>151.6</ele>
        <time>2015-11-11T13:29:18Z</time>
      </trkpt>
      <trkpt lat="43.66098" lon="1.11333">
        <ele>151.8</ele>
        <time>2015-11-11T13:29:19Z</time>
      </trkpt>
      <trkpt lat="43.66101" lon="1.11337">
        <ele>152.1</ele>
        <time>2015-11-11T13:29:20Z</time>
      </trkpt>
      <trkpt lat="43.66103" lon="1.11341">
        <ele>152.3</ele>
        <time>2015-11-11T13:29:21Z</time>
      </trkpt>
      <trkpt lat="43.66107" lon="1.11346">
        <ele>152.6</ele>
        <time>2015-11-11T13:29:22Z</time>
      </trkpt>
      <trkpt lat="43.6611" lon="1.11349">
        <ele>152.8</ele>
        <time>2015-11-11T13:29:23Z</time>
      </trkpt>
      <trkpt lat="43.66113" lon="1.11351">
        <ele>153</ele>
        <time>2015-11-11T13:29:24Z</time>
      </trkpt>
      <trkpt lat="43.66116" lon="1.11354">
        <ele>153.2</ele>
        <time>2015-11-11T13:29:25Z</time>
      </trkpt>
      <trkpt lat="43.66119" lon="1.11357">
        <ele>153.4</ele>
        <time>2015-11-11T13:29:26Z</time>
      </trkpt>
      <trkpt lat="43.66122" lon="1.1136">
        <ele>153.6</ele>
        <time>2015-11-11T13:29:27Z</time>
      </trkpt>
      <trkpt lat="43.66125" lon="1.11364">
        <ele>153.8</ele>
        <time>2015-11-11T13:29:28Z</time>
      </trkpt>
      <trkpt lat="43.66128" lon="1.11368">
        <ele>154.1</ele>
        <time>2015-11-11T13:29:29Z</time>
      </trkpt>
      <trkpt lat="43.66131" lon="1.11372">
        <ele>154.3</ele>
        <time>2015-11-11T13:29:30Z</time>
      </trkpt>
      <trkpt lat="43.66133" lon="1.11376">
        <ele>154.6</ele>
        <time>2015-11-11T13:29:31Z</time>
      </trkpt>
      <trkpt lat="43.66137" lon="1.1138">
        <ele>155.4</ele>
        <time>2015-11-11T13:29:32Z</time>
      </trkpt>
      <trkpt lat="43.6614" lon="1.11384">
        <ele>156</ele>
        <time>2015-11-11T13:29:33Z</time>
      </trkpt>
      <trkpt lat="43.66142" lon="1.11387">
        <ele>156.5</ele>
        <time>2015-11-11T13:29:34Z</time>
      </trkpt>
      <trkpt lat="43.66144" lon="1.11391">
        <ele>157.1</ele>
        <time>2015-11-11T13:29:35Z</time>
      </trkpt>
      <trkpt lat="43.66146" lon="1.11395">
        <ele>157.7</ele>
        <time>2015-11-11T13:29:36Z</time>
      </trkpt>
      <trkpt lat="43.66148" lon="1.11399">
        <ele>158.2</ele>
        <time>2015-11-11T13:29:37Z</time>
      </trkpt>
      <trkpt lat="43.6615" lon="1.11403">
        <ele>158.8</ele>
        <time>2015-11-11T13:29:38Z</time>
      </trkpt>
      <trkpt lat="43.66151" lon="1.11407">
        <ele>159.3</ele>
        <time>2015-11-11T13:29:39Z</time>
      </trkpt>
      <trkpt lat="43.66153" lon="1.11411">
        <ele>159.8</ele>
        <time>2015-11-11T13:29:40Z</time>
      </trkpt>
      <trkpt lat="43.66155" lon="1.11414">
        <ele>160.2</ele>
        <time>2015-11-11T13:29:41Z</time>
      </trkpt>
      <trkpt lat="43.66157" lon="1.11417">
        <ele>160.7</ele>
        <time>2015-11-11T13:29:42Z</time>
      </trkpt>
      <trkpt lat="43.66159" lon="1.11421">
        <ele>161.1</ele>
        <time>2015-11-11T13:29:43Z</time>
      </trkpt>
      <trkpt lat="43.66162" lon="1.11425">
        <ele>161.5</ele>
        <time>2015-11-11T13:29:44Z</time>
      </trkpt>
      <trkpt lat="43.66165" lon="1.11429">
        <ele>162</ele>
        <time>2015-11-11T13:29:45Z</time>
      </trkpt>
      <trkpt lat="43.66168" lon="1.11433">
        <ele>162.4</ele>
        <time>2015-11-11T13:29:46Z</time>
      </trkpt>
      <trkpt lat="43.66171" lon="1.11437">
        <ele>162.8</ele>
        <time>2015-11-11T13:29:47Z</time>
      </trkpt>
      <trkpt lat="43.66173" lon="1.11441">
        <ele>163.2</ele>
        <time>2015-11-11T13:29:48Z</time>
      </trkpt>
      <trkpt lat="43.66176" lon="1.11445">
        <ele>163.6</ele>
        <time>2015-11-11T13:29:49Z</time>
      </trkpt>
      <trkpt lat="43.66179" lon="1.1145">
        <ele>163.9</ele>
        <time>2015-11-11T13:29:50Z</time>
      </trkpt>
      <trkpt lat="43.66182" lon="1.11454">
        <ele>164.2</ele>
        <time>2015-11-11T13:29:51Z</time>
      </trkpt>
      <trkpt lat="43.66185" lon="1.11458">
        <ele>164.5</ele>
        <time>2015-11-11T13:29:52Z</time>
      </trkpt>
      <trkpt lat="43.66188" lon="1.11462">
        <ele>164.8</ele>
        <time>2015-11-11T13:29:53Z</time>
      </trkpt>
      <trkpt lat="43.66191" lon="1.11467">
        <ele>165</ele>
        <time>2015-11-11T13:29:54Z</time>
      </trkpt>
      <trkpt lat="43.66194" lon="1.11471">
        <ele>165.2</ele>
        <time>2015-11-11T13:29:55Z</time>
      </trkpt>
      <trkpt lat="43.66197" lon="1.11475">
        <ele>165.5</ele>
        <time>2015-11-11T13:29:56Z</time>
      </trkpt>
      <trkpt lat="43.662" lon="1.11479">
        <ele>165.7</ele>
        <time>2015-11-11T13:29:57Z</time>
      </trkpt>
      <trkpt lat="43.66203" lon="1.11483">
        <ele>165.9</ele>
        <time>2015-11-11T13:29:58Z</time>
      </trkpt>
      <trkpt lat="43.66206" lon="1.11487">
        <ele>166.1</ele>
        <time>2015-11-11T13:29:59Z</time>
      </trkpt>
      <trkpt lat="43.66209" lon="1.11491">
        <ele>166.4</ele>
        <time>2015-11-11T13:30:00Z</time>
      </trkpt>
      <trkpt lat="43.66212" lon="1.11495">
        <ele>166.7</ele>
        <time>2015-11-11T13:30:01Z</time>
      </trkpt>
      <trkpt lat="43.66214" lon="1.11499">
        <ele>167</ele>
        <time>2015-11-11T13:30:02Z</time>
      </trkpt>
      <trkpt lat="43.66217" lon="1.11502">
        <ele>167.3</ele>
        <time>2015-11-11T13:30:03Z</time>
      </trkpt>
      <trkpt lat="43.6622" lon="1.11506">
        <ele>167.6</ele>
        <time>2015-11-11T13:30:04Z</time>
      </trkpt>
      <trkpt lat="43.66223" lon="1.1151">
        <ele>168</ele>
        <time>2015-11-11T13:30:05Z</time>
      </trkpt>
      <trkpt lat="43.66226" lon="1.11514">
        <ele>168.3</ele>
        <time>2015-11-11T13:30:06Z</time>
      </trkpt>
      <trkpt lat="43.66229" lon="1.11518">
        <ele>168.6</ele>
        <time>2015-11-11T13:30:07Z</time>
      </trkpt>
      <trkpt lat="43.66232" lon="1.11522">
        <ele>169</ele>
        <time>2015-11-11T13:30:08Z</time>
      </trkpt>
      <trkpt lat="43.66234" lon="1.11526">
        <ele>169.3</ele>
        <time>2015-11-11T13:30:09Z</time>
      </trkpt>
      <trkpt lat="43.66237" lon="1.1153">
        <ele>169.5</ele>
        <time>2015-11-11T13:30:10Z</time>
      </trkpt>
      <trkpt lat="43.6624" lon="1.11533">
        <ele>169.8</ele>
        <time>2015-11-11T13:30:11Z</time>
      </trkpt>
      <trkpt lat="43.66243" lon="1.11537">
        <ele>170.1</ele>
        <time>2015-11-11T13:30:12Z</time>
      </trkpt>
      <trkpt lat="43.66247" lon="1.1154">
        <ele>170.4</ele>
        <time>2015-11-11T13:30:13Z</time>
      </trkpt>
      <trkpt lat="43.6625" lon="1.11544">
        <ele>170.6</ele>
        <time>2015-11-11T13:30:14Z</time>
      </trkpt>
      <trkpt lat="43.66253" lon="1.11548">
        <ele>170.7</ele>
        <time>2015-11-11T13:30:15Z</time>
      </trkpt>
      <trkpt lat="43.66255" lon="1.11552">
        <ele>170.8</ele>
        <time>2015-11-11T13:30:16Z</time>
      </trkpt>
      <trkpt lat="43.66258" lon="1.11556">
        <ele>170.9</ele>
        <time>2015-11-11T13:30:17Z</time>
      </trkpt>
      <trkpt lat="43.66261" lon="1.1156">
        <ele>171.1</ele>
        <time>2015-11-11T13:30:18Z</time>
      </trkpt>
      <trkpt lat="43.66264" lon="1.11564">
        <ele>171.2</ele>
        <time>2015-11-11T13:30:19Z</time>
      </trkpt>
      <trkpt lat="43.66267" lon="1.11568">
        <ele>171.3</ele>
        <time>2015-11-11T13:30:20Z</time>
      </trkpt>
      <trkpt lat="43.66269" lon="1.11572">
        <ele>171.4</ele>
        <time>2015-11-11T13:30:21Z</time>
      </trkpt>
      <trkpt lat="43.66271" lon="1.11576">
        <ele>171.6</ele>
        <time>2015-11-11T13:30:22Z</time>
      </trkpt>
      <trkpt lat="43.66274" lon="1.1158">
        <ele>171.7</ele>
        <time>2015-11-11T13:30:23Z</time>
      </trkpt>
      <trkpt lat="43.66277" lon="1.11584">
        <ele>171.8</ele>
        <time>2015-11-11T13:30:24Z</time>
      </trkpt>
      <trkpt lat="43.6628" lon="1.11587">
        <ele>171.9</ele>
        <time>2015-11-11T13:30:25Z</time>
      </trkpt>
      <trkpt lat="43.66282" lon="1.1159">
        <ele>172</ele>
        <time>2015-11-11T13:30:26Z</time>
      </trkpt>
      <trkpt lat="43.66285" lon="1.11593">
        <ele>172.1</ele>
        <time>2015-11-11T13:30:27Z</time>
      </trkpt>
      <trkpt lat="43.66288" lon="1.11596">
        <ele>172.3</ele>
        <time>2015-11-11T13:30:28Z</time>
      </trkpt>
      <trkpt lat="43.66292" lon="1.11599">
        <ele>172.4</ele>
        <time>2015-11-11T13:30:29Z</time>
      </trkpt>
      <trkpt lat="43.66296" lon="1.11603">
        <ele>172.7</ele>
        <time>2015-11-11T13:30:30Z</time>
      </trkpt>
      <trkpt lat="43.66299" lon="1.11606">
        <ele>172.9</ele>
        <time>2015-11-11T13:30:31Z</time>
      </trkpt>
      <trkpt lat="43.66302" lon="1.11609">
        <ele>173.1</ele>
        <time>2015-11-11T13:30:32Z</time>
      </trkpt>
      <trkpt lat="43.66306" lon="1.11612">
        <ele>173.4</ele>
        <time>2015-11-11T13:30:33Z</time>
      </trkpt>
      <trkpt lat="43.66309" lon="1.11616">
        <ele>173.6</ele>
        <time>2015-11-11T13:30:34Z</time>
      </trkpt>
      <trkpt lat="43.66312" lon="1.11619">
        <ele>173.8</ele>
        <time>2015-11-11T13:30:35Z</time>
      </trkpt>
      <trkpt lat="43.66315" lon="1.11621">
        <ele>174</ele>
        <time>2015-11-11T13:30:36Z</time>
      </trkpt>
      <trkpt lat="43.66319" lon="1.11624">
        <ele>174.3</ele>
        <time>2015-11-11T13:30:37Z</time>
      </trkpt>
      <trkpt lat="43.66322" lon="1.11626">
        <ele>174.4</ele>
        <time>2015-11-11T13:30:38Z</time>
      </trkpt>
      <trkpt lat="43.66326" lon="1.11629">
        <ele>174.5</ele>
        <time>2015-11-11T13:30:39Z</time>
      </trkpt>
      <trkpt lat="43.6633" lon="1.11631">
        <ele>174.6</ele>
        <time>2015-11-11T13:30:40Z</time>
      </trkpt>
      <trkpt lat="43.66334" lon="1.11633">
        <ele>174.7</ele>
        <time>2015-11-11T13:30:41Z</time>
      </trkpt>
      <trkpt lat="43.66338" lon="1.11635">
        <ele>174.9</ele>
        <time>2015-11-11T13:30:42Z</time>
      </trkpt>
      <trkpt lat="43.66342" lon="1.11637">
        <ele>175</ele>
        <time>2015-11-11T13:30:43Z</time>
      </trkpt>
      <trkpt lat="43.66346" lon="1.11639">
        <ele>175.1</ele>
        <time>2015-11-11T13:30:44Z</time>
      </trkpt>
      <trkpt lat="43.6635" lon="1.11641">
        <ele>175.3</ele>
        <time>2015-11-11T13:30:45Z</time>
      </trkpt>
      <trkpt lat="43.66353" lon="1.11643">
        <ele>175.4</ele>
        <time>2015-11-11T13:30:46Z</time>
      </trkpt>
      <trkpt lat="43.66356" lon="1.11645">
        <ele>175.5</ele>
        <time>2015-11-11T13:30:47Z</time>
      </trkpt>
      <trkpt lat="43.66359" lon="1.11648">
        <ele>175.6</ele>
        <time>2015-11-11T13:30:48Z</time>
      </trkpt>
      <trkpt lat="43.66362" lon="1.11649">
        <ele>175.7</ele>
        <time>2015-11-11T13:30:49Z</time>
      </trkpt>
      <trkpt lat="43.66364" lon="1.11651">
        <ele>175.8</ele>
        <time>2015-11-11T13:30:50Z</time>
      </trkpt>
      <trkpt lat="43.66367" lon="1.11654">
        <ele>175.9</ele>
        <time>2015-11-11T13:30:51Z</time>
      </trkpt>
      <trkpt lat="43.6637" lon="1.11656">
        <ele>176</ele>
        <time>2015-11-11T13:30:52Z</time>
      </trkpt>
      <trkpt lat="43.66373" lon="1.11658">
        <ele>176.1</ele>
        <time>2015-11-11T13:30:53Z</time>
      </trkpt>
      <trkpt lat="43.66376" lon="1.11661">
        <ele>176.2</ele>
        <time>2015-11-11T13:30:54Z</time>
      </trkpt>
      <trkpt lat="43.6638" lon="1.11662">
        <ele>176.3</ele>
        <time>2015-11-11T13:30:55Z</time>
      </trkpt>
      <trkpt lat="43.66384" lon="1.11664">
        <ele>176.4</ele>
        <time>2015-11-11T13:30:56Z</time>
      </trkpt>
      <trkpt lat="43.66388" lon="1.11666">
        <ele>176.6</ele>
        <time>2015-11-11T13:30:57Z</time>
      </trkpt>
      <trkpt lat="43.66392" lon="1.11668">
        <ele>176.7</ele>
        <time>2015-11-11T13:30:58Z</time>
      </trkpt>
      <trkpt lat="43.66396" lon="1.1167">
        <ele>176.8</ele>
        <time>2015-11-11T13:30:59Z</time>
      </trkpt>
      <trkpt lat="43.664" lon="1.11673">
        <ele>177</ele>
        <time>2015-11-11T13:31:00Z</time>
      </trkpt>
      <trkpt lat="43.66404" lon="1.11675">
        <ele>177.1</ele>
        <time>2015-11-11T13:31:01Z</time>
      </trkpt>
      <trkpt lat="43.66411" lon="1.11679">
        <ele>177.4</ele>
        <time>2015-11-11T13:31:02Z</time>
      </trkpt>
      <trkpt lat="43.66418" lon="1.11681">
        <ele>177.7</ele>
        <time>2015-11-11T13:31:04Z</time>
      </trkpt>
      <trkpt lat="43.66422" lon="1.11683">
        <ele>177.9</ele>
        <time>2015-11-11T13:31:05Z</time>
      </trkpt>
      <trkpt lat="43.66426" lon="1.11684">
        <ele>178.1</ele>
        <time>2015-11-11T13:31:07Z</time>
      </trkpt>
      <trkpt lat="43.66436" lon="1.11685">
        <ele>178.6</ele>
        <time>2015-11-11T13:31:09Z</time>
      </trkpt>
      <trkpt lat="43.66439" lon="1.11686">
        <ele>178.8</ele>
        <time>2015-11-11T13:31:10Z</time>
      </trkpt>
      <trkpt lat="43.66442" lon="1.11686">
        <ele>178.9</ele>
        <time>2015-11-11T13:31:11Z</time>
      </trkpt>
      <trkpt lat="43.66445" lon="1.11686">
        <ele>179.1</ele>
        <time>2015-11-11T13:31:12Z</time>
      </trkpt>
      <trkpt lat="43.66449" lon="1.11687">
        <ele>179.3</ele>
        <time>2015-11-11T13:31:13Z</time>
      </trkpt>
      <trkpt lat="43.66453" lon="1.11687">
        <ele>179.5</ele>
        <time>2015-11-11T13:31:14Z</time>
      </trkpt>
      <trkpt lat="43.66458" lon="1.11688">
        <ele>179.7</ele>
        <time>2015-11-11T13:31:15Z</time>
      </trkpt>
      <trkpt lat="43.66462" lon="1.11689">
        <ele>180</ele>
        <time>2015-11-11T13:31:16Z</time>
      </trkpt>
      <trkpt lat="43.66467" lon="1.11689">
        <ele>180.2</ele>
        <time>2015-11-11T13:31:17Z</time>
      </trkpt>
      <trkpt lat="43.66471" lon="1.11689">
        <ele>180.4</ele>
        <time>2015-11-11T13:31:18Z</time>
      </trkpt>
      <trkpt lat="43.66475" lon="1.11689">
        <ele>180.6</ele>
        <time>2015-11-11T13:31:19Z</time>
      </trkpt>
      <trkpt lat="43.66479" lon="1.11689">
        <ele>180.7</ele>
        <time>2015-11-11T13:31:20Z</time>
      </trkpt>
      <trkpt lat="43.66483" lon="1.11689">
        <ele>180.9</ele>
        <time>2015-11-11T13:31:21Z</time>
      </trkpt>
      <trkpt lat="43.66486" lon="1.11688">
        <ele>181.1</ele>
        <time>2015-11-11T13:31:22Z</time>
      </trkpt>
      <trkpt lat="43.6649" lon="1.11688">
        <ele>181.3</ele>
        <time>2015-11-11T13:31:23Z</time>
      </trkpt>
      <trkpt lat="43.66494" lon="1.11687">
        <ele>181.4</ele>
        <time>2015-11-11T13:31:24Z</time>
      </trkpt>
      <trkpt lat="43.66498" lon="1.11687">
        <ele>181.6</ele>
        <time>2015-11-11T13:31:25Z</time>
      </trkpt>
      <trkpt lat="43.66502" lon="1.11686">
        <ele>181.8</ele>
        <time>2015-11-11T13:31:26Z</time>
      </trkpt>
      <trkpt lat="43.66506" lon="1.11685">
        <ele>182</ele>
        <time>2015-11-11T13:31:27Z</time>
      </trkpt>
      <trkpt lat="43.66511" lon="1.11683">
        <ele>182.2</ele>
        <time>2015-11-11T13:31:28Z</time>
      </trkpt>
      <trkpt lat="43.66515" lon="1.11682">
        <ele>182.4</ele>
        <time>2015-11-11T13:31:29Z</time>
      </trkpt>
      <trkpt lat="43.66519" lon="1.11682">
        <ele>182.6</ele>
        <time>2015-11-11T13:31:30Z</time>
      </trkpt>
      <trkpt lat="43.66524" lon="1.1168">
        <ele>182.8</ele>
        <time>2015-11-11T13:31:31Z</time>
      </trkpt>
      <trkpt lat="43.66528" lon="1.11679">
        <ele>183</ele>
        <time>2015-11-11T13:31:32Z</time>
      </trkpt>
      <trkpt lat="43.66531" lon="1.11678">
        <ele>183.1</ele>
        <time>2015-11-11T13:31:33Z</time>
      </trkpt>
      <trkpt lat="43.66535" lon="1.11677">
        <ele>183.3</ele>
        <time>2015-11-11T13:31:34Z</time>
      </trkpt>
      <trkpt lat="43.66538" lon="1.11676">
        <ele>183.5</ele>
        <time>2015-11-11T13:31:35Z</time>
      </trkpt>
      <trkpt lat="43.66543" lon="1.11676">
        <ele>183.6</ele>
        <time>2015-11-11T13:31:36Z</time>
      </trkpt>
      <trkpt lat="43.66548" lon="1.11675">
        <ele>183.7</ele>
        <time>2015-11-11T13:31:37Z</time>
      </trkpt>
      <trkpt lat="43.66553" lon="1.11674">
        <ele>183.7</ele>
        <time>2015-11-11T13:31:38Z</time>
      </trkpt>
      <trkpt lat="43.66557" lon="1.11673">
        <ele>183.8</ele>
        <time>2015-11-11T13:31:39Z</time>
      </trkpt>
      <trkpt lat="43.66562" lon="1.11672">
        <ele>183.8</ele>
        <time>2015-11-11T13:31:40Z</time>
      </trkpt>
      <trkpt lat="43.66566" lon="1.11671">
        <ele>183.9</ele>
        <time>2015-11-11T13:31:41Z</time>
      </trkpt>
      <trkpt lat="43.66571" lon="1.1167">
        <ele>183.9</ele>
        <time>2015-11-11T13:31:42Z</time>
      </trkpt>
      <trkpt lat="43.66575" lon="1.11669">
        <ele>183.9</ele>
        <time>2015-11-11T13:31:43Z</time>
      </trkpt>
      <trkpt lat="43.66579" lon="1.11668">
        <ele>184</ele>
        <time>2015-11-11T13:31:44Z</time>
      </trkpt>
      <trkpt lat="43.66583" lon="1.11668">
        <ele>184</ele>
        <time>2015-11-11T13:31:45Z</time>
      </trkpt>
      <trkpt lat="43.66587" lon="1.11667">
        <ele>184.1</ele>
        <time>2015-11-11T13:31:46Z</time>
      </trkpt>
      <trkpt lat="43.66592" lon="1.11667">
        <ele>184.1</ele>
        <time>2015-11-11T13:31:47Z</time>
      </trkpt>
      <trkpt lat="43.66597" lon="1.11665">
        <ele>184.1</ele>
        <time>2015-11-11T13:31:48Z</time>
      </trkpt>
      <trkpt lat="43.66601" lon="1.11664">
        <ele>184.1</ele>
        <time>2015-11-11T13:31:49Z</time>
      </trkpt>
      <trkpt lat="43.66605" lon="1.11663">
        <ele>184.2</ele>
        <time>2015-11-11T13:31:50Z</time>
      </trkpt>
      <trkpt lat="43.66609" lon="1.11662">
        <ele>184.1</ele>
        <time>2015-11-11T13:31:51Z</time>
      </trkpt>
      <trkpt lat="43.66613" lon="1.1166">
        <ele>184.1</ele>
        <time>2015-11-11T13:31:52Z</time>
      </trkpt>
      <trkpt lat="43.66617" lon="1.11658">
        <ele>184.1</ele>
        <time>2015-11-11T13:31:53Z</time>
      </trkpt>
      <trkpt lat="43.66621" lon="1.11656">
        <ele>184.1</ele>
        <time>2015-11-11T13:31:54Z</time>
      </trkpt>
      <trkpt lat="43.66624" lon="1.11654">
        <ele>184.1</ele>
        <time>2015-11-11T13:31:55Z</time>
      </trkpt>
      <trkpt lat="43.66627" lon="1.11653">
        <ele>184.2</ele>
        <time>2015-11-11T13:31:56Z</time>
      </trkpt>
      <trkpt lat="43.66631" lon="1.11651">
        <ele>184.5</ele>
        <time>2015-11-11T13:31:57Z</time>
      </trkpt>
      <trkpt lat="43.66634" lon="1.11649">
        <ele>184.8</ele>
        <time>2015-11-11T13:31:58Z</time>
      </trkpt>
      <trkpt lat="43.66637" lon="1.11647">
        <ele>185</ele>
        <time>2015-11-11T13:31:59Z</time>
      </trkpt>
      <trkpt lat="43.6664" lon="1.11646">
        <ele>185.3</ele>
        <time>2015-11-11T13:32:00Z</time>
      </trkpt>
      <trkpt lat="43.66644" lon="1.11644">
        <ele>185.6</ele>
        <time>2015-11-11T13:32:01Z</time>
      </trkpt>
      <trkpt lat="43.66648" lon="1.11643">
        <ele>185.9</ele>
        <time>2015-11-11T13:32:02Z</time>
      </trkpt>
      <trkpt lat="43.66652" lon="1.11641">
        <ele>186.2</ele>
        <time>2015-11-11T13:32:03Z</time>
      </trkpt>
      <trkpt lat="43.66655" lon="1.1164">
        <ele>186.5</ele>
        <time>2015-11-11T13:32:04Z</time>
      </trkpt>
      <trkpt lat="43.66659" lon="1.11639">
        <ele>186.9</ele>
        <time>2015-11-11T13:32:05Z</time>
      </trkpt>
      <trkpt lat="43.66663" lon="1.11638">
        <ele>187.2</ele>
        <time>2015-11-11T13:32:06Z</time>
      </trkpt>
      <trkpt lat="43.66667" lon="1.11637">
        <ele>187.5</ele>
        <time>2015-11-11T13:32:07Z</time>
      </trkpt>
      <trkpt lat="43.6667" lon="1.11636">
        <ele>187.8</ele>
        <time>2015-11-11T13:32:08Z</time>
      </trkpt>
      <trkpt lat="43.66674" lon="1.11634">
        <ele>188.1</ele>
        <time>2015-11-11T13:32:09Z</time>
      </trkpt>
      <trkpt lat="43.66678" lon="1.11632">
        <ele>188.4</ele>
        <time>2015-11-11T13:32:10Z</time>
      </trkpt>
      <trkpt lat="43.66681" lon="1.11631">
        <ele>188.7</ele>
        <time>2015-11-11T13:32:11Z</time>
      </trkpt>
      <trkpt lat="43.66685" lon="1.11629">
        <ele>189</ele>
        <time>2015-11-11T13:32:12Z</time>
      </trkpt>
      <trkpt lat="43.66689" lon="1.11627">
        <ele>189.2</ele>
        <time>2015-11-11T13:32:13Z</time>
      </trkpt>
      <trkpt lat="43.66692" lon="1.11626">
        <ele>189.5</ele>
        <time>2015-11-11T13:32:14Z</time>
      </trkpt>
      <trkpt lat="43.66696" lon="1.11624">
        <ele>189.7</ele>
        <time>2015-11-11T13:32:15Z</time>
      </trkpt>
      <trkpt lat="43.66699" lon="1.11623">
        <ele>190</ele>
        <time>2015-11-11T13:32:16Z</time>
      </trkpt>
      <trkpt lat="43.66703" lon="1.11621">
        <ele>190.2</ele>
        <time>2015-11-11T13:32:17Z</time>
      </trkpt>
      <trkpt lat="43.66707" lon="1.11619">
        <ele>190.4</ele>
        <time>2015-11-11T13:32:18Z</time>
      </trkpt>
      <trkpt lat="43.66711" lon="1.11618">
        <ele>190.6</ele>
        <time>2015-11-11T13:32:19Z</time>
      </trkpt>
      <trkpt lat="43.66715" lon="1.11616">
        <ele>190.8</ele>
        <time>2015-11-11T13:32:20Z</time>
      </trkpt>
      <trkpt lat="43.66719" lon="1.11615">
        <ele>191</ele>
        <time>2015-11-11T13:32:21Z</time>
      </trkpt>
      <trkpt lat="43.66723" lon="1.11613">
        <ele>191.2</ele>
        <time>2015-11-11T13:32:22Z</time>
      </trkpt>
      <trkpt lat="43.66727" lon="1.11611">
        <ele>191.4</ele>
        <time>2015-11-11T13:32:23Z</time>
      </trkpt>
      <trkpt lat="43.66731" lon="1.11609">
        <ele>191.6</ele>
        <time>2015-11-11T13:32:24Z</time>
      </trkpt>
      <trkpt lat="43.66735" lon="1.11608">
        <ele>191.8</ele>
        <time>2015-11-11T13:32:25Z</time>
      </trkpt>
      <trkpt lat="43.66739" lon="1.11606">
        <ele>192</ele>
        <time>2015-11-11T13:32:26Z</time>
      </trkpt>
      <trkpt lat="43.66743" lon="1.11604">
        <ele>192.2</ele>
        <time>2015-11-11T13:32:27Z</time>
      </trkpt>
      <trkpt lat="43.66748" lon="1.11602">
        <ele>192.4</ele>
        <time>2015-11-11T13:32:28Z</time>
      </trkpt>
      <trkpt lat="43.66752" lon="1.116">
        <ele>192.7</ele>
        <time>2015-11-11T13:32:29Z</time>
      </trkpt>
      <trkpt lat="43.66757" lon="1.11598">
        <ele>192.9</ele>
        <time>2015-11-11T13:32:30Z</time>
      </trkpt>
      <trkpt lat="43.66763" lon="1.11596">
        <ele>193.3</ele>
        <time>2015-11-11T13:32:31Z</time>
      </trkpt>
      <trkpt lat="43.66768" lon="1.11595">
        <ele>193.6</ele>
        <time>2015-11-11T13:32:32Z</time>
      </trkpt>
      <trkpt lat="43.66773" lon="1.11593">
        <ele>193.9</ele>
        <time>2015-11-11T13:32:33Z</time>
      </trkpt>
      <trkpt lat="43.66777" lon="1.11591">
        <ele>194.2</ele>
        <time>2015-11-11T13:32:34Z</time>
      </trkpt>
      <trkpt lat="43.6678" lon="1.11589">
        <ele>194.3</ele>
        <time>2015-11-11T13:32:35Z</time>
      </trkpt>
      <trkpt lat="43.66784" lon="1.11587">
        <ele>194.6</ele>
        <time>2015-11-11T13:32:36Z</time>
      </trkpt>
      <trkpt lat="43.66788" lon="1.11587">
        <ele>194.8</ele>
        <time>2015-11-11T13:32:37Z</time>
      </trkpt>
      <trkpt lat="43.66792" lon="1.11585">
        <ele>195.1</ele>
        <time>2015-11-11T13:32:38Z</time>
      </trkpt>
      <trkpt lat="43.66798" lon="1.11582">
        <ele>195</ele>
        <time>2015-11-11T13:32:39Z</time>
      </trkpt>
      <trkpt lat="43.66801" lon="1.1158">
        <ele>194.9</ele>
        <time>2015-11-11T13:32:40Z</time>
      </trkpt>
      <trkpt lat="43.66805" lon="1.11577">
        <ele>194.8</ele>
        <time>2015-11-11T13:32:41Z</time>
      </trkpt>
      <trkpt lat="43.66809" lon="1.11574">
        <ele>194.7</ele>
        <time>2015-11-11T13:32:42Z</time>
      </trkpt>
      <trkpt lat="43.66814" lon="1.11571">
        <ele>194.7</ele>
        <time>2015-11-11T13:32:43Z</time>
      </trkpt>
      <trkpt lat="43.6682" lon="1.11567">
        <ele>194.5</ele>
        <time>2015-11-11T13:32:44Z</time>
      </trkpt>
      <trkpt lat="43.66824" lon="1.11566">
        <ele>194.5</ele>
        <time>2015-11-11T13:32:45Z</time>
      </trkpt>
      <trkpt lat="43.66828" lon="1.11564">
        <ele>194.5</ele>
        <time>2015-11-11T13:32:46Z</time>
      </trkpt>
      <trkpt lat="43.66833" lon="1.11564">
        <ele>194.6</ele>
        <time>2015-11-11T13:32:47Z</time>
      </trkpt>
      <trkpt lat="43.66838" lon="1.11561">
        <ele>194.5</ele>
        <time>2015-11-11T13:32:48Z</time>
      </trkpt>
      <trkpt lat="43.66844" lon="1.1156">
        <ele>194.5</ele>
        <time>2015-11-11T13:32:49Z</time>
      </trkpt>
      <trkpt lat="43.66848" lon="1.11559">
        <ele>194.5</ele>
        <time>2015-11-11T13:32:50Z</time>
      </trkpt>
      <trkpt lat="43.66853" lon="1.11557">
        <ele>194.5</ele>
        <time>2015-11-11T13:32:51Z</time>
      </trkpt>
      <trkpt lat="43.66862" lon="1.11552">
        <ele>194.4</ele>
        <time>2015-11-11T13:32:53Z</time>
      </trkpt>
      <trkpt lat="43.66867" lon="1.11551">
        <ele>194.3</ele>
        <time>2015-11-11T13:32:54Z</time>
      </trkpt>
      <trkpt lat="43.66872" lon="1.1155">
        <ele>194.4</ele>
        <time>2015-11-11T13:32:55Z</time>
      </trkpt>
      <trkpt lat="43.66876" lon="1.11549">
        <ele>194.5</ele>
        <time>2015-11-11T13:32:56Z</time>
      </trkpt>
      <trkpt lat="43.6688" lon="1.11548">
        <ele>194.8</ele>
        <time>2015-11-11T13:32:57Z</time>
      </trkpt>
      <trkpt lat="43.66883" lon="1.11547">
        <ele>195.2</ele>
        <time>2015-11-11T13:32:58Z</time>
      </trkpt>
      <trkpt lat="43.66887" lon="1.11545">
        <ele>195.6</ele>
        <time>2015-11-11T13:32:59Z</time>
      </trkpt>
      <trkpt lat="43.66892" lon="1.11545">
        <ele>196.1</ele>
        <time>2015-11-11T13:33:00Z</time>
      </trkpt>
      <trkpt lat="43.66896" lon="1.11545">
        <ele>196.6</ele>
        <time>2015-11-11T13:33:01Z</time>
      </trkpt>
      <trkpt lat="43.669" lon="1.11545">
        <ele>197</ele>
        <time>2015-11-11T13:33:02Z</time>
      </trkpt>
      <trkpt lat="43.66904" lon="1.11545">
        <ele>197.5</ele>
        <time>2015-11-11T13:33:04Z</time>
      </trkpt>
      <trkpt lat="43.66909" lon="1.11545">
        <ele>198.1</ele>
        <time>2015-11-11T13:33:05Z</time>
      </trkpt>
      <trkpt lat="43.66912" lon="1.11545">
        <ele>198.5</ele>
        <time>2015-11-11T13:33:06Z</time>
      </trkpt>
      <trkpt lat="43.66916" lon="1.11545">
        <ele>198.9</ele>
        <time>2015-11-11T13:33:07Z</time>
      </trkpt>
      <trkpt lat="43.66919" lon="1.11545">
        <ele>199.3</ele>
        <time>2015-11-11T13:33:08Z</time>
      </trkpt>
      <trkpt lat="43.66922" lon="1.11546">
        <ele>199.7</ele>
        <time>2015-11-11T13:33:09Z</time>
      </trkpt>
      <trkpt lat="43.66925" lon="1.11546">
        <ele>200.1</ele>
        <time>2015-11-11T13:33:10Z</time>
      </trkpt>
      <trkpt lat="43.66928" lon="1.11547">
        <ele>200.4</ele>
        <time>2015-11-11T13:33:11Z</time>
      </trkpt>
      <trkpt lat="43.66931" lon="1.11548">
        <ele>200.7</ele>
        <time>2015-11-11T13:33:12Z</time>
      </trkpt>
      <trkpt lat="43.66934" lon="1.11549">
        <ele>201.1</ele>
        <time>2015-11-11T13:33:13Z</time>
      </trkpt>
      <trkpt lat="43.66939" lon="1.11549">
        <ele>201.6</ele>
        <time>2015-11-11T13:33:15Z</time>
      </trkpt>
      <trkpt lat="43.66942" lon="1.1155">
        <ele>201.9</ele>
        <time>2015-11-11T13:33:16Z</time>
      </trkpt>
      <trkpt lat="43.66945" lon="1.1155">
        <ele>202.3</ele>
        <time>2015-11-11T13:33:17Z</time>
      </trkpt>
      <trkpt lat="43.66948" lon="1.1155">
        <ele>202.6</ele>
        <time>2015-11-11T13:33:18Z</time>
      </trkpt>
      <trkpt lat="43.66951" lon="1.1155">
        <ele>202.9</ele>
        <time>2015-11-11T13:33:19Z</time>
      </trkpt>
      <trkpt lat="43.66953" lon="1.1155">
        <ele>203.2</ele>
        <time>2015-11-11T13:33:20Z</time>
      </trkpt>
      <trkpt lat="43.66956" lon="1.1155">
        <ele>203.6</ele>
        <time>2015-11-11T13:33:21Z</time>
      </trkpt>
      <trkpt lat="43.6696" lon="1.1155">
        <ele>203.9</ele>
        <time>2015-11-11T13:33:22Z</time>
      </trkpt>
      <trkpt lat="43.66963" lon="1.1155">
        <ele>204.2</ele>
        <time>2015-11-11T13:33:23Z</time>
      </trkpt>
      <trkpt lat="43.66966" lon="1.1155">
        <ele>204.4</ele>
        <time>2015-11-11T13:33:24Z</time>
      </trkpt>
      <trkpt lat="43.66968" lon="1.11549">
        <ele>204.7</ele>
        <time>2015-11-11T13:33:25Z</time>
      </trkpt>
      <trkpt lat="43.66972" lon="1.11548">
        <ele>205</ele>
        <time>2015-11-11T13:33:26Z</time>
      </trkpt>
      <trkpt lat="43.66975" lon="1.11547">
        <ele>205.3</ele>
        <time>2015-11-11T13:33:27Z</time>
      </trkpt>
      <trkpt lat="43.66978" lon="1.11545">
        <ele>205.7</ele>
        <time>2015-11-11T13:33:28Z</time>
      </trkpt>
      <trkpt lat="43.6698" lon="1.11544">
        <ele>206</ele>
        <time>2015-11-11T13:33:29Z</time>
      </trkpt>
      <trkpt lat="43.66983" lon="1.11544">
        <ele>206.3</ele>
        <time>2015-11-11T13:33:30Z</time>
      </trkpt>
      <trkpt lat="43.66986" lon="1.11543">
        <ele>206.5</ele>
        <time>2015-11-11T13:33:31Z</time>
      </trkpt>
      <trkpt lat="43.66989" lon="1.11543">
        <ele>206.9</ele>
        <time>2015-11-11T13:33:32Z</time>
      </trkpt>
      <trkpt lat="43.66992" lon="1.11542">
        <ele>207.2</ele>
        <time>2015-11-11T13:33:33Z</time>
      </trkpt>
      <trkpt lat="43.66994" lon="1.1154">
        <ele>207.4</ele>
        <time>2015-11-11T13:33:34Z</time>
      </trkpt>
      <trkpt lat="43.66997" lon="1.11539">
        <ele>207.7</ele>
        <time>2015-11-11T13:33:35Z</time>
      </trkpt>
      <trkpt lat="43.66999" lon="1.11537">
        <ele>207.9</ele>
        <time>2015-11-11T13:33:36Z</time>
      </trkpt>
      <trkpt lat="43.67005" lon="1.11534">
        <ele>208.4</ele>
        <time>2015-11-11T13:33:38Z</time>
      </trkpt>
      <trkpt lat="43.67007" lon="1.11533">
        <ele>208.7</ele>
        <time>2015-11-11T13:33:39Z</time>
      </trkpt>
      <trkpt lat="43.6701" lon="1.11532">
        <ele>209</ele>
        <time>2015-11-11T13:33:40Z</time>
      </trkpt>
      <trkpt lat="43.67013" lon="1.11531">
        <ele>209.2</ele>
        <time>2015-11-11T13:33:41Z</time>
      </trkpt>
      <trkpt lat="43.67018" lon="1.11529">
        <ele>209.8</ele>
        <time>2015-11-11T13:33:43Z</time>
      </trkpt>
      <trkpt lat="43.67023" lon="1.11526">
        <ele>210.3</ele>
        <time>2015-11-11T13:33:45Z</time>
      </trkpt>
      <trkpt lat="43.67028" lon="1.11524">
        <ele>210.7</ele>
        <time>2015-11-11T13:33:47Z</time>
      </trkpt>
      <trkpt lat="43.67032" lon="1.11523">
        <ele>211.3</ele>
        <time>2015-11-11T13:33:49Z</time>
      </trkpt>
      <trkpt lat="43.67038" lon="1.11522">
        <ele>211.8</ele>
        <time>2015-11-11T13:33:51Z</time>
      </trkpt>
      <trkpt lat="43.67041" lon="1.11521">
        <ele>212.2</ele>
        <time>2015-11-11T13:33:52Z</time>
      </trkpt>
      <trkpt lat="43.67044" lon="1.1152">
        <ele>212.5</ele>
        <time>2015-11-11T13:33:53Z</time>
      </trkpt>
      <trkpt lat="43.67047" lon="1.1152">
        <ele>212.8</ele>
        <time>2015-11-11T13:33:54Z</time>
      </trkpt>
      <trkpt lat="43.6705" lon="1.11519">
        <ele>213.2</ele>
        <time>2015-11-11T13:33:55Z</time>
      </trkpt>
      <trkpt lat="43.67053" lon="1.11519">
        <ele>213.5</ele>
        <time>2015-11-11T13:33:56Z</time>
      </trkpt>
      <trkpt lat="43.67056" lon="1.11519">
        <ele>213.9</ele>
        <time>2015-11-11T13:33:57Z</time>
      </trkpt>
      <trkpt lat="43.67059" lon="1.11518">
        <ele>214.2</ele>
        <time>2015-11-11T13:33:58Z</time>
      </trkpt>
      <trkpt lat="43.67064" lon="1.11515">
        <ele>214.9</ele>
        <time>2015-11-11T13:34:00Z</time>
      </trkpt>
      <trkpt lat="43.67068" lon="1.11513">
        <ele>215.4</ele>
        <time>2015-11-11T13:34:01Z</time>
      </trkpt>
      <trkpt lat="43.67071" lon="1.11512">
        <ele>215.9</ele>
        <time>2015-11-11T13:34:02Z</time>
      </trkpt>
      <trkpt lat="43.67074" lon="1.11511">
        <ele>216.3</ele>
        <time>2015-11-11T13:34:03Z</time>
      </trkpt>
      <trkpt lat="43.67077" lon="1.1151">
        <ele>216.7</ele>
        <time>2015-11-11T13:34:04Z</time>
      </trkpt>
      <trkpt lat="43.6708" lon="1.11509">
        <ele>217.1</ele>
        <time>2015-11-11T13:34:05Z</time>
      </trkpt>
      <trkpt lat="43.67084" lon="1.11508">
        <ele>217.6</ele>
        <time>2015-11-11T13:34:06Z</time>
      </trkpt>
      <trkpt lat="43.67087" lon="1.11507">
        <ele>218</ele>
        <time>2015-11-11T13:34:07Z</time>
      </trkpt>
      <trkpt lat="43.6709" lon="1.11506">
        <ele>218.5</ele>
        <time>2015-11-11T13:34:08Z</time>
      </trkpt>
      <trkpt lat="43.67094" lon="1.11505">
        <ele>219</ele>
        <time>2015-11-11T13:34:09Z</time>
      </trkpt>
      <trkpt lat="43.67097" lon="1.11504">
        <ele>219.5</ele>
        <time>2015-11-11T13:34:10Z</time>
      </trkpt>
      <trkpt lat="43.671" lon="1.11503">
        <ele>220</ele>
        <time>2015-11-11T13:34:11Z</time>
      </trkpt>
      <trkpt lat="43.67103" lon="1.11501">
        <ele>220.4</ele>
        <time>2015-11-11T13:34:12Z</time>
      </trkpt>
      <trkpt lat="43.67106" lon="1.115">
        <ele>221</ele>
        <time>2015-11-11T13:34:13Z</time>
      </trkpt>
      <trkpt lat="43.67109" lon="1.11498">
        <ele>221.5</ele>
        <time>2015-11-11T13:34:14Z</time>
      </trkpt>
      <trkpt lat="43.67112" lon="1.11497">
        <ele>222.1</ele>
        <time>2015-11-11T13:34:15Z</time>
      </trkpt>
      <trkpt lat="43.67116" lon="1.11495">
        <ele>222.8</ele>
        <time>2015-11-11T13:34:16Z</time>
      </trkpt>
      <trkpt lat="43.67119" lon="1.11492">
        <ele>223.5</ele>
        <time>2015-11-11T13:34:17Z</time>
      </trkpt>
      <trkpt lat="43.67122" lon="1.1149">
        <ele>224.2</ele>
        <time>2015-11-11T13:34:18Z</time>
      </trkpt>
      <trkpt lat="43.67126" lon="1.11487">
        <ele>224.9</ele>
        <time>2015-11-11T13:34:19Z</time>
      </trkpt>
      <trkpt lat="43.67129" lon="1.11485">
        <ele>225.5</ele>
        <time>2015-11-11T13:34:20Z</time>
      </trkpt>
      <trkpt lat="43.67133" lon="1.11482">
        <ele>226</ele>
        <time>2015-11-11T13:34:21Z</time>
      </trkpt>
      <trkpt lat="43.67136" lon="1.1148">
        <ele>226.5</ele>
        <time>2015-11-11T13:34:22Z</time>
      </trkpt>
      <trkpt lat="43.67139" lon="1.11477">
        <ele>227.1</ele>
        <time>2015-11-11T13:34:23Z</time>
      </trkpt>
      <trkpt lat="43.67142" lon="1.11475">
        <ele>227.6</ele>
        <time>2015-11-11T13:34:24Z</time>
      </trkpt>
      <trkpt lat="43.67144" lon="1.11473">
        <ele>228.1</ele>
        <time>2015-11-11T13:34:25Z</time>
      </trkpt>
      <trkpt lat="43.67148" lon="1.11471">
        <ele>228.7</ele>
        <time>2015-11-11T13:34:26Z</time>
      </trkpt>
      <trkpt lat="43.67151" lon="1.11468">
        <ele>229.3</ele>
        <time>2015-11-11T13:34:27Z</time>
      </trkpt>
      <trkpt lat="43.67155" lon="1.11466">
        <ele>229.9</ele>
        <time>2015-11-11T13:34:28Z</time>
      </trkpt>
      <trkpt lat="43.67158" lon="1.11465">
        <ele>230.4</ele>
        <time>2015-11-11T13:34:29Z</time>
      </trkpt>
      <trkpt lat="43.67161" lon="1.11463">
        <ele>230.8</ele>
        <time>2015-11-11T13:34:30Z</time>
      </trkpt>
      <trkpt lat="43.67164" lon="1.11462">
        <ele>231.3</ele>
        <time>2015-11-11T13:34:31Z</time>
      </trkpt>
      <trkpt lat="43.67168" lon="1.11461">
        <ele>231.8</ele>
        <time>2015-11-11T13:34:32Z</time>
      </trkpt>
      <trkpt lat="43.67171" lon="1.11459">
        <ele>232.3</ele>
        <time>2015-11-11T13:34:33Z</time>
      </trkpt>
      <trkpt lat="43.67175" lon="1.11458">
        <ele>232.8</ele>
        <time>2015-11-11T13:34:34Z</time>
      </trkpt>
      <trkpt lat="43.67178" lon="1.11458">
        <ele>233.1</ele>
        <time>2015-11-11T13:34:35Z</time>
      </trkpt>
      <trkpt lat="43.67181" lon="1.11457">
        <ele>233.3</ele>
        <time>2015-11-11T13:34:36Z</time>
      </trkpt>
      <trkpt lat="43.67184" lon="1.11456">
        <ele>233.6</ele>
        <time>2015-11-11T13:34:37Z</time>
      </trkpt>
      <trkpt lat="43.67187" lon="1.11455">
        <ele>233.9</ele>
        <time>2015-11-11T13:34:38Z</time>
      </trkpt>
      <trkpt lat="43.6719" lon="1.11454">
        <ele>234.1</ele>
        <time>2015-11-11T13:34:39Z</time>
      </trkpt>
      <trkpt lat="43.67194" lon="1.11452">
        <ele>234.5</ele>
        <time>2015-11-11T13:34:41Z</time>
      </trkpt>
      <trkpt lat="43.67199" lon="1.11451">
        <ele>235</ele>
        <time>2015-11-11T13:34:43Z</time>
      </trkpt>
      <trkpt lat="43.67202" lon="1.11451">
        <ele>235.4</ele>
        <time>2015-11-11T13:34:44Z</time>
      </trkpt>
      <trkpt lat="43.67206" lon="1.11451">
        <ele>235.7</ele>
        <time>2015-11-11T13:34:45Z</time>
      </trkpt>
      <trkpt lat="43.67209" lon="1.11451">
        <ele>235.9</ele>
        <time>2015-11-11T13:34:46Z</time>
      </trkpt>
      <trkpt lat="43.67214" lon="1.11452">
        <ele>235.2</ele>
        <time>2015-11-11T13:34:47Z</time>
      </trkpt>
      <trkpt lat="43.67218" lon="1.11453">
        <ele>234.6</ele>
        <time>2015-11-11T13:34:48Z</time>
      </trkpt>
      <trkpt lat="43.67223" lon="1.11457">
        <ele>233.8</ele>
        <time>2015-11-11T13:34:49Z</time>
      </trkpt>
      <trkpt lat="43.67229" lon="1.11459">
        <ele>233</ele>
        <time>2015-11-11T13:34:50Z</time>
      </trkpt>
      <trkpt lat="43.67234" lon="1.11461">
        <ele>232.1</ele>
        <time>2015-11-11T13:34:51Z</time>
      </trkpt>
      <trkpt lat="43.67241" lon="1.11464">
        <ele>230.7</ele>
        <time>2015-11-11T13:34:52Z</time>
      </trkpt>
      <trkpt lat="43.67249" lon="1.11465">
        <ele>229.6</ele>
        <time>2015-11-11T13:34:53Z</time>
      </trkpt>
      <trkpt lat="43.67254" lon="1.11465">
        <ele>228.9</ele>
        <time>2015-11-11T13:34:54Z</time>
      </trkpt>
      <trkpt lat="43.67261" lon="1.11466">
        <ele>227.9</ele>
        <time>2015-11-11T13:34:55Z</time>
      </trkpt>
      <trkpt lat="43.67268" lon="1.11467">
        <ele>226.9</ele>
        <time>2015-11-11T13:34:56Z</time>
      </trkpt>
      <trkpt lat="43.67275" lon="1.1147">
        <ele>225.8</ele>
        <time>2015-11-11T13:34:57Z</time>
      </trkpt>
      <trkpt lat="43.6728" lon="1.11472">
        <ele>225.1</ele>
        <time>2015-11-11T13:34:58Z</time>
      </trkpt>
      <trkpt lat="43.67286" lon="1.11473">
        <ele>224.4</ele>
        <time>2015-11-11T13:34:59Z</time>
      </trkpt>
      <trkpt lat="43.67292" lon="1.11476">
        <ele>223.6</ele>
        <time>2015-11-11T13:35:00Z</time>
      </trkpt>
      <trkpt lat="43.67297" lon="1.11479">
        <ele>223.3</ele>
        <time>2015-11-11T13:35:01Z</time>
      </trkpt>
      <trkpt lat="43.673" lon="1.11481">
        <ele>223.2</ele>
        <time>2015-11-11T13:35:02Z</time>
      </trkpt>
      <trkpt lat="43.67305" lon="1.11483">
        <ele>223</ele>
        <time>2015-11-11T13:35:03Z</time>
      </trkpt>
      <trkpt lat="43.67308" lon="1.11485">
        <ele>222.9</ele>
        <time>2015-11-11T13:35:04Z</time>
      </trkpt>
      <trkpt lat="43.67312" lon="1.11486">
        <ele>222.8</ele>
        <time>2015-11-11T13:35:05Z</time>
      </trkpt>
      <trkpt lat="43.67319" lon="1.11486">
        <ele>222.6</ele>
        <time>2015-11-11T13:35:07Z</time>
      </trkpt>
      <trkpt lat="43.67323" lon="1.11486">
        <ele>222.5</ele>
        <time>2015-11-11T13:35:08Z</time>
      </trkpt>
      <trkpt lat="43.67327" lon="1.11488">
        <ele>222.4</ele>
        <time>2015-11-11T13:35:09Z</time>
      </trkpt>
      <trkpt lat="43.67333" lon="1.11491">
        <ele>222.2</ele>
        <time>2015-11-11T13:35:11Z</time>
      </trkpt>
      <trkpt lat="43.67337" lon="1.11492">
        <ele>222.1</ele>
        <time>2015-11-11T13:35:12Z</time>
      </trkpt>
      <trkpt lat="43.67341" lon="1.11493">
        <ele>222</ele>
        <time>2015-11-11T13:35:13Z</time>
      </trkpt>
      <trkpt lat="43.67344" lon="1.11494">
        <ele>222</ele>
        <time>2015-11-11T13:35:14Z</time>
      </trkpt>
      <trkpt lat="43.67349" lon="1.11495">
        <ele>221.9</ele>
        <time>2015-11-11T13:35:15Z</time>
      </trkpt>
      <trkpt lat="43.67354" lon="1.11498">
        <ele>221.8</ele>
        <time>2015-11-11T13:35:16Z</time>
      </trkpt>
      <trkpt lat="43.67358" lon="1.115">
        <ele>221.8</ele>
        <time>2015-11-11T13:35:17Z</time>
      </trkpt>
      <trkpt lat="43.67363" lon="1.11502">
        <ele>221.8</ele>
        <time>2015-11-11T13:35:18Z</time>
      </trkpt>
      <trkpt lat="43.67365" lon="1.11504">
        <ele>221.8</ele>
        <time>2015-11-11T13:35:19Z</time>
      </trkpt>
      <trkpt lat="43.67369" lon="1.11506">
        <ele>221.8</ele>
        <time>2015-11-11T13:35:20Z</time>
      </trkpt>
      <trkpt lat="43.67372" lon="1.11508">
        <ele>221.8</ele>
        <time>2015-11-11T13:35:21Z</time>
      </trkpt>
      <trkpt lat="43.67375" lon="1.11504">
        <ele>221.7</ele>
        <time>2015-11-11T13:35:27Z</time>
      </trkpt>
      <trkpt lat="43.67376" lon="1.11498">
        <ele>221.5</ele>
        <time>2015-11-11T13:35:29Z</time>
      </trkpt>
      <trkpt lat="43.6738" lon="1.11496">
        <ele>221.8</ele>
        <time>2015-11-11T13:37:09Z</time>
      </trkpt>
      <trkpt lat="43.67383" lon="1.11493">
        <ele>221.9</ele>
        <time>2015-11-11T13:37:10Z</time>
      </trkpt>
      <trkpt lat="43.67385" lon="1.11491">
        <ele>222</ele>
        <time>2015-11-11T13:37:11Z</time>
      </trkpt>
      <trkpt lat="43.67388" lon="1.11488">
        <ele>222.1</ele>
        <time>2015-11-11T13:37:12Z</time>
      </trkpt>
      <trkpt lat="43.67391" lon="1.11486">
        <ele>222.3</ele>
        <time>2015-11-11T13:37:13Z</time>
      </trkpt>
      <trkpt lat="43.67394" lon="1.11482">
        <ele>222.3</ele>
        <time>2015-11-11T13:37:14Z</time>
      </trkpt>
      <trkpt lat="43.67397" lon="1.11478">
        <ele>222.3</ele>
        <time>2015-11-11T13:37:15Z</time>
      </trkpt>
      <trkpt lat="43.67399" lon="1.11472">
        <ele>222.2</ele>
        <time>2015-11-11T13:37:16Z</time>
      </trkpt>
      <trkpt lat="43.67402" lon="1.11466">
        <ele>222.1</ele>
        <time>2015-11-11T13:37:17Z</time>
      </trkpt>
      <trkpt lat="43.67406" lon="1.1146">
        <ele>221.9</ele>
        <time>2015-11-11T13:37:18Z</time>
      </trkpt>
      <trkpt lat="43.67409" lon="1.11454">
        <ele>221.6</ele>
        <time>2015-11-11T13:37:19Z</time>
      </trkpt>
      <trkpt lat="43.67412" lon="1.11449">
        <ele>221.2</ele>
        <time>2015-11-11T13:37:20Z</time>
      </trkpt>
      <trkpt lat="43.67416" lon="1.11442">
        <ele>220.7</ele>
        <time>2015-11-11T13:37:21Z</time>
      </trkpt>
      <trkpt lat="43.6742" lon="1.11435">
        <ele>220.2</ele>
        <time>2015-11-11T13:37:22Z</time>
      </trkpt>
      <trkpt lat="43.67424" lon="1.1143">
        <ele>219.8</ele>
        <time>2015-11-11T13:37:23Z</time>
      </trkpt>
      <trkpt lat="43.67427" lon="1.11424">
        <ele>219.3</ele>
        <time>2015-11-11T13:37:24Z</time>
      </trkpt>
      <trkpt lat="43.6743" lon="1.11417">
        <ele>218.7</ele>
        <time>2015-11-11T13:37:25Z</time>
      </trkpt>
      <trkpt lat="43.67434" lon="1.11411">
        <ele>218.2</ele>
        <time>2015-11-11T13:37:26Z</time>
      </trkpt>
      <trkpt lat="43.67439" lon="1.11405">
        <ele>217.7</ele>
        <time>2015-11-11T13:37:27Z</time>
      </trkpt>
      <trkpt lat="43.67443" lon="1.11398">
        <ele>217.1</ele>
        <time>2015-11-11T13:37:28Z</time>
      </trkpt>
      <trkpt lat="43.67448" lon="1.11394">
        <ele>216.9</ele>
        <time>2015-11-11T13:37:29Z</time>
      </trkpt>
      <trkpt lat="43.67452" lon="1.11386">
        <ele>216.1</ele>
        <time>2015-11-11T13:37:30Z</time>
      </trkpt>
      <trkpt lat="43.67454" lon="1.11378">
        <ele>215.3</ele>
        <time>2015-11-11T13:37:31Z</time>
      </trkpt>
      <trkpt lat="43.67459" lon="1.11372">
        <ele>214.9</ele>
        <time>2015-11-11T13:37:32Z</time>
      </trkpt>
      <trkpt lat="43.67464" lon="1.11364">
        <ele>215</ele>
        <time>2015-11-11T13:37:33Z</time>
      </trkpt>
      <trkpt lat="43.67468" lon="1.11357">
        <ele>215.1</ele>
        <time>2015-11-11T13:37:34Z</time>
      </trkpt>
      <trkpt lat="43.67473" lon="1.11349">
        <ele>215.2</ele>
        <time>2015-11-11T13:37:35Z</time>
      </trkpt>
      <trkpt lat="43.67478" lon="1.11343">
        <ele>215.4</ele>
        <time>2015-11-11T13:37:36Z</time>
      </trkpt>
      <trkpt lat="43.67484" lon="1.11336">
        <ele>215.6</ele>
        <time>2015-11-11T13:37:37Z</time>
      </trkpt>
      <trkpt lat="43.6749" lon="1.1133">
        <ele>215.8</ele>
        <time>2015-11-11T13:37:38Z</time>
      </trkpt>
      <trkpt lat="43.67495" lon="1.11325">
        <ele>216</ele>
        <time>2015-11-11T13:37:39Z</time>
      </trkpt>
      <trkpt lat="43.67502" lon="1.11322">
        <ele>216.4</ele>
        <time>2015-11-11T13:37:40Z</time>
      </trkpt>
      <trkpt lat="43.67507" lon="1.11319">
        <ele>216.8</ele>
        <time>2015-11-11T13:37:41Z</time>
      </trkpt>
      <trkpt lat="43.67513" lon="1.11317">
        <ele>217.2</ele>
        <time>2015-11-11T13:37:42Z</time>
      </trkpt>
      <trkpt lat="43.67521" lon="1.11316">
        <ele>217.8</ele>
        <time>2015-11-11T13:37:43Z</time>
      </trkpt>
      <trkpt lat="43.67527" lon="1.11315">
        <ele>218.3</ele>
        <time>2015-11-11T13:37:44Z</time>
      </trkpt>
      <trkpt lat="43.67534" lon="1.11312">
        <ele>218.8</ele>
        <time>2015-11-11T13:37:45Z</time>
      </trkpt>
      <trkpt lat="43.67541" lon="1.11311">
        <ele>219.3</ele>
        <time>2015-11-11T13:37:46Z</time>
      </trkpt>
      <trkpt lat="43.67548" lon="1.11312">
        <ele>219.6</ele>
        <time>2015-11-11T13:37:47Z</time>
      </trkpt>
      <trkpt lat="43.67554" lon="1.1131">
        <ele>219.6</ele>
        <time>2015-11-11T13:37:48Z</time>
      </trkpt>
      <trkpt lat="43.67559" lon="1.11309">
        <ele>219.5</ele>
        <time>2015-11-11T13:37:49Z</time>
      </trkpt>
      <trkpt lat="43.67565" lon="1.11304">
        <ele>219.3</ele>
        <time>2015-11-11T13:37:50Z</time>
      </trkpt>
      <trkpt lat="43.67571" lon="1.11303">
        <ele>219.3</ele>
        <time>2015-11-11T13:37:51Z</time>
      </trkpt>
      <trkpt lat="43.67575" lon="1.11301">
        <ele>219.2</ele>
        <time>2015-11-11T13:37:52Z</time>
      </trkpt>
      <trkpt lat="43.67581" lon="1.11297">
        <ele>218.9</ele>
        <time>2015-11-11T13:37:53Z</time>
      </trkpt>
      <trkpt lat="43.67586" lon="1.11297">
        <ele>219</ele>
        <time>2015-11-11T13:37:54Z</time>
      </trkpt>
      <trkpt lat="43.67591" lon="1.11295">
        <ele>218.9</ele>
        <time>2015-11-11T13:37:55Z</time>
      </trkpt>
      <trkpt lat="43.67596" lon="1.11295">
        <ele>219</ele>
        <time>2015-11-11T13:37:56Z</time>
      </trkpt>
      <trkpt lat="43.676" lon="1.11294">
        <ele>218.9</ele>
        <time>2015-11-11T13:37:57Z</time>
      </trkpt>
      <trkpt lat="43.67604" lon="1.11292">
        <ele>218.8</ele>
        <time>2015-11-11T13:37:58Z</time>
      </trkpt>
      <trkpt lat="43.67609" lon="1.11288">
        <ele>218.6</ele>
        <time>2015-11-11T13:37:59Z</time>
      </trkpt>
      <trkpt lat="43.67613" lon="1.11285">
        <ele>218.5</ele>
        <time>2015-11-11T13:38:00Z</time>
      </trkpt>
      <trkpt lat="43.67618" lon="1.11281">
        <ele>218.4</ele>
        <time>2015-11-11T13:38:01Z</time>
      </trkpt>
      <trkpt lat="43.67622" lon="1.1128">
        <ele>218.4</ele>
        <time>2015-11-11T13:38:02Z</time>
      </trkpt>
      <trkpt lat="43.67625" lon="1.11276">
        <ele>218.3</ele>
        <time>2015-11-11T13:38:03Z</time>
      </trkpt>
      <trkpt lat="43.67629" lon="1.11271">
        <ele>218.7</ele>
        <time>2015-11-11T13:38:04Z</time>
      </trkpt>
      <trkpt lat="43.67633" lon="1.11268">
        <ele>219.2</ele>
        <time>2015-11-11T13:38:05Z</time>
      </trkpt>
      <trkpt lat="43.67637" lon="1.11265">
        <ele>219.7</ele>
        <time>2015-11-11T13:38:06Z</time>
      </trkpt>
      <trkpt lat="43.6764" lon="1.11261">
        <ele>220</ele>
        <time>2015-11-11T13:38:07Z</time>
      </trkpt>
      <trkpt lat="43.67644" lon="1.11257">
        <ele>220.4</ele>
        <time>2015-11-11T13:38:08Z</time>
      </trkpt>
      <trkpt lat="43.67648" lon="1.11252">
        <ele>220.8</ele>
        <time>2015-11-11T13:38:09Z</time>
      </trkpt>
      <trkpt lat="43.67651" lon="1.11247">
        <ele>221.1</ele>
        <time>2015-11-11T13:38:10Z</time>
      </trkpt>
      <trkpt lat="43.67656" lon="1.11244">
        <ele>221.6</ele>
        <time>2015-11-11T13:38:11Z</time>
      </trkpt>
      <trkpt lat="43.6766" lon="1.11239">
        <ele>222.1</ele>
        <time>2015-11-11T13:38:12Z</time>
      </trkpt>
      <trkpt lat="43.67664" lon="1.11234">
        <ele>222.4</ele>
        <time>2015-11-11T13:38:13Z</time>
      </trkpt>
      <trkpt lat="43.67668" lon="1.1123">
        <ele>222.9</ele>
        <time>2015-11-11T13:38:14Z</time>
      </trkpt>
      <trkpt lat="43.67671" lon="1.11225">
        <ele>223</ele>
        <time>2015-11-11T13:38:15Z</time>
      </trkpt>
      <trkpt lat="43.67675" lon="1.11221">
        <ele>223.5</ele>
        <time>2015-11-11T13:38:16Z</time>
      </trkpt>
      <trkpt lat="43.67678" lon="1.11217">
        <ele>223.8</ele>
        <time>2015-11-11T13:38:17Z</time>
      </trkpt>
      <trkpt lat="43.67682" lon="1.11212">
        <ele>224</ele>
        <time>2015-11-11T13:38:18Z</time>
      </trkpt>
      <trkpt lat="43.67685" lon="1.11205">
        <ele>224.1</ele>
        <time>2015-11-11T13:38:19Z</time>
      </trkpt>
      <trkpt lat="43.67687" lon="1.11202">
        <ele>224.2</ele>
        <time>2015-11-11T13:38:20Z</time>
      </trkpt>
      <trkpt lat="43.67691" lon="1.11197">
        <ele>224.5</ele>
        <time>2015-11-11T13:38:21Z</time>
      </trkpt>
      <trkpt lat="43.67695" lon="1.11191">
        <ele>224.7</ele>
        <time>2015-11-11T13:38:22Z</time>
      </trkpt>
      <trkpt lat="43.67698" lon="1.11185">
        <ele>224.8</ele>
        <time>2015-11-11T13:38:23Z</time>
      </trkpt>
      <trkpt lat="43.67701" lon="1.11179">
        <ele>224.8</ele>
        <time>2015-11-11T13:38:24Z</time>
      </trkpt>
      <trkpt lat="43.67704" lon="1.11174">
        <ele>224.8</ele>
        <time>2015-11-11T13:38:25Z</time>
      </trkpt>
      <trkpt lat="43.67706" lon="1.11169">
        <ele>224.9</ele>
        <time>2015-11-11T13:38:26Z</time>
      </trkpt>
      <trkpt lat="43.6771" lon="1.11164">
        <ele>225</ele>
        <time>2015-11-11T13:38:27Z</time>
      </trkpt>
      <trkpt lat="43.67713" lon="1.11159">
        <ele>225.1</ele>
        <time>2015-11-11T13:38:28Z</time>
      </trkpt>
      <trkpt lat="43.67715" lon="1.11153">
        <ele>225.1</ele>
        <time>2015-11-11T13:38:29Z</time>
      </trkpt>
      <trkpt lat="43.67719" lon="1.11148">
        <ele>225.3</ele>
        <time>2015-11-11T13:38:30Z</time>
      </trkpt>
      <trkpt lat="43.67722" lon="1.11142">
        <ele>225.3</ele>
        <time>2015-11-11T13:38:31Z</time>
      </trkpt>
      <trkpt lat="43.67726" lon="1.11137">
        <ele>225.5</ele>
        <time>2015-11-11T13:38:32Z</time>
      </trkpt>
      <trkpt lat="43.67729" lon="1.11133">
        <ele>225.6</ele>
        <time>2015-11-11T13:38:33Z</time>
      </trkpt>
      <trkpt lat="43.67732" lon="1.11126">
        <ele>225.5</ele>
        <time>2015-11-11T13:38:34Z</time>
      </trkpt>
      <trkpt lat="43.67736" lon="1.11121">
        <ele>225.8</ele>
        <time>2015-11-11T13:38:35Z</time>
      </trkpt>
      <trkpt lat="43.67739" lon="1.11115">
        <ele>225.8</ele>
        <time>2015-11-11T13:38:36Z</time>
      </trkpt>
      <trkpt lat="43.67742" lon="1.11112">
        <ele>226.2</ele>
        <time>2015-11-11T13:38:37Z</time>
      </trkpt>
      <trkpt lat="43.67745" lon="1.11106">
        <ele>226.3</ele>
        <time>2015-11-11T13:38:38Z</time>
      </trkpt>
      <trkpt lat="43.67749" lon="1.111">
        <ele>226.5</ele>
        <time>2015-11-11T13:38:39Z</time>
      </trkpt>
      <trkpt lat="43.67753" lon="1.11093">
        <ele>226.6</ele>
        <time>2015-11-11T13:38:40Z</time>
      </trkpt>
      <trkpt lat="43.67757" lon="1.11088">
        <ele>227</ele>
        <time>2015-11-11T13:38:41Z</time>
      </trkpt>
      <trkpt lat="43.6776" lon="1.11083">
        <ele>227.2</ele>
        <time>2015-11-11T13:38:42Z</time>
      </trkpt>
      <trkpt lat="43.67764" lon="1.11078">
        <ele>227.3</ele>
        <time>2015-11-11T13:38:43Z</time>
      </trkpt>
      <trkpt lat="43.67768" lon="1.11071">
        <ele>227.5</ele>
        <time>2015-11-11T13:38:44Z</time>
      </trkpt>
      <trkpt lat="43.67771" lon="1.11069">
        <ele>227.9</ele>
        <time>2015-11-11T13:38:45Z</time>
      </trkpt>
      <trkpt lat="43.67774" lon="1.11065">
        <ele>228</ele>
        <time>2015-11-11T13:38:46Z</time>
      </trkpt>
      <trkpt lat="43.67778" lon="1.1106">
        <ele>228.2</ele>
        <time>2015-11-11T13:38:47Z</time>
      </trkpt>
      <trkpt lat="43.67782" lon="1.11055">
        <ele>228.4</ele>
        <time>2015-11-11T13:38:48Z</time>
      </trkpt>
      <trkpt lat="43.67785" lon="1.1105">
        <ele>228.6</ele>
        <time>2015-11-11T13:38:49Z</time>
      </trkpt>
      <trkpt lat="43.67787" lon="1.11046">
        <ele>228.6</ele>
        <time>2015-11-11T13:38:50Z</time>
      </trkpt>
      <trkpt lat="43.6779" lon="1.11041">
        <ele>228.8</ele>
        <time>2015-11-11T13:38:51Z</time>
      </trkpt>
      <trkpt lat="43.67794" lon="1.11038">
        <ele>229</ele>
        <time>2015-11-11T13:38:52Z</time>
      </trkpt>
      <trkpt lat="43.67796" lon="1.11034">
        <ele>229.2</ele>
        <time>2015-11-11T13:38:53Z</time>
      </trkpt>
      <trkpt lat="43.678" lon="1.11031">
        <ele>229.4</ele>
        <time>2015-11-11T13:38:54Z</time>
      </trkpt>
      <trkpt lat="43.67803" lon="1.11027">
        <ele>229.5</ele>
        <time>2015-11-11T13:38:55Z</time>
      </trkpt>
      <trkpt lat="43.67806" lon="1.11024">
        <ele>229.8</ele>
        <time>2015-11-11T13:38:56Z</time>
      </trkpt>
      <trkpt lat="43.67811" lon="1.11022">
        <ele>230.1</ele>
        <time>2015-11-11T13:38:57Z</time>
      </trkpt>
      <trkpt lat="43.67814" lon="1.11019">
        <ele>230.4</ele>
        <time>2015-11-11T13:38:58Z</time>
      </trkpt>
      <trkpt lat="43.67818" lon="1.11016">
        <ele>230.5</ele>
        <time>2015-11-11T13:38:59Z</time>
      </trkpt>
      <trkpt lat="43.67821" lon="1.11014">
        <ele>230.7</ele>
        <time>2015-11-11T13:39:00Z</time>
      </trkpt>
      <trkpt lat="43.67825" lon="1.11012">
        <ele>231</ele>
        <time>2015-11-11T13:39:01Z</time>
      </trkpt>
      <trkpt lat="43.67829" lon="1.1101">
        <ele>231.2</ele>
        <time>2015-11-11T13:39:02Z</time>
      </trkpt>
      <trkpt lat="43.67832" lon="1.11006">
        <ele>231.3</ele>
        <time>2015-11-11T13:39:03Z</time>
      </trkpt>
      <trkpt lat="43.67837" lon="1.11004">
        <ele>231.6</ele>
        <time>2015-11-11T13:39:04Z</time>
      </trkpt>
      <trkpt lat="43.6784" lon="1.11001">
        <ele>231.7</ele>
        <time>2015-11-11T13:39:05Z</time>
      </trkpt>
      <trkpt lat="43.67844" lon="1.10997">
        <ele>231.8</ele>
        <time>2015-11-11T13:39:06Z</time>
      </trkpt>
      <trkpt lat="43.67849" lon="1.10994">
        <ele>232</ele>
        <time>2015-11-11T13:39:07Z</time>
      </trkpt>
      <trkpt lat="43.67852" lon="1.10992">
        <ele>232.1</ele>
        <time>2015-11-11T13:39:08Z</time>
      </trkpt>
      <trkpt lat="43.67856" lon="1.1099">
        <ele>232.3</ele>
        <time>2015-11-11T13:39:09Z</time>
      </trkpt>
      <trkpt lat="43.6786" lon="1.10989">
        <ele>232.6</ele>
        <time>2015-11-11T13:39:10Z</time>
      </trkpt>
      <trkpt lat="43.67864" lon="1.10987">
        <ele>232.8</ele>
        <time>2015-11-11T13:39:11Z</time>
      </trkpt>
      <trkpt lat="43.67868" lon="1.10986">
        <ele>233</ele>
        <time>2015-11-11T13:39:12Z</time>
      </trkpt>
      <trkpt lat="43.67872" lon="1.10984">
        <ele>233.3</ele>
        <time>2015-11-11T13:39:13Z</time>
      </trkpt>
      <trkpt lat="43.67876" lon="1.10983">
        <ele>233.5</ele>
        <time>2015-11-11T13:39:14Z</time>
      </trkpt>
      <trkpt lat="43.6788" lon="1.10983">
        <ele>234</ele>
        <time>2015-11-11T13:39:15Z</time>
      </trkpt>
      <trkpt lat="43.67884" lon="1.10983">
        <ele>234.5</ele>
        <time>2015-11-11T13:39:16Z</time>
      </trkpt>
      <trkpt lat="43.67888" lon="1.10984">
        <ele>235.1</ele>
        <time>2015-11-11T13:39:17Z</time>
      </trkpt>
      <trkpt lat="43.67892" lon="1.10986">
        <ele>235.8</ele>
        <time>2015-11-11T13:39:18Z</time>
      </trkpt>
      <trkpt lat="43.67896" lon="1.10987">
        <ele>236.5</ele>
        <time>2015-11-11T13:39:19Z</time>
      </trkpt>
      <trkpt lat="43.679" lon="1.10989">
        <ele>237.1</ele>
        <time>2015-11-11T13:39:20Z</time>
      </trkpt>
      <trkpt lat="43.67904" lon="1.10991">
        <ele>237.8</ele>
        <time>2015-11-11T13:39:21Z</time>
      </trkpt>
      <trkpt lat="43.67908" lon="1.10993">
        <ele>238.6</ele>
        <time>2015-11-11T13:39:22Z</time>
      </trkpt>
      <trkpt lat="43.67912" lon="1.10994">
        <ele>239.2</ele>
        <time>2015-11-11T13:39:23Z</time>
      </trkpt>
      <trkpt lat="43.67915" lon="1.10996">
        <ele>239.9</ele>
        <time>2015-11-11T13:39:24Z</time>
      </trkpt>
      <trkpt lat="43.67919" lon="1.10998">
        <ele>240.6</ele>
        <time>2015-11-11T13:39:25Z</time>
      </trkpt>
      <trkpt lat="43.67922" lon="1.11">
        <ele>241.1</ele>
        <time>2015-11-11T13:39:26Z</time>
      </trkpt>
      <trkpt lat="43.67925" lon="1.11002">
        <ele>241.7</ele>
        <time>2015-11-11T13:39:27Z</time>
      </trkpt>
      <trkpt lat="43.67927" lon="1.11004">
        <ele>242.4</ele>
        <time>2015-11-11T13:39:28Z</time>
      </trkpt>
      <trkpt lat="43.6793" lon="1.11006">
        <ele>242.9</ele>
        <time>2015-11-11T13:39:29Z</time>
      </trkpt>
      <trkpt lat="43.67933" lon="1.11008">
        <ele>243.6</ele>
        <time>2015-11-11T13:39:30Z</time>
      </trkpt>
      <trkpt lat="43.67937" lon="1.1101">
        <ele>244.2</ele>
        <time>2015-11-11T13:39:31Z</time>
      </trkpt>
      <trkpt lat="43.67941" lon="1.11011">
        <ele>244.9</ele>
        <time>2015-11-11T13:39:32Z</time>
      </trkpt>
      <trkpt lat="43.67944" lon="1.11012">
        <ele>245.6</ele>
        <time>2015-11-11T13:39:33Z</time>
      </trkpt>
      <trkpt lat="43.67949" lon="1.11013">
        <ele>246.2</ele>
        <time>2015-11-11T13:39:34Z</time>
      </trkpt>
      <trkpt lat="43.67953" lon="1.11014">
        <ele>247</ele>
        <time>2015-11-11T13:39:35Z</time>
      </trkpt>
      <trkpt lat="43.67958" lon="1.11015">
        <ele>247.7</ele>
        <time>2015-11-11T13:39:36Z</time>
      </trkpt>
      <trkpt lat="43.67962" lon="1.11015">
        <ele>248</ele>
        <time>2015-11-11T13:39:37Z</time>
      </trkpt>
      <trkpt lat="43.67966" lon="1.11016">
        <ele>248.2</ele>
        <time>2015-11-11T13:39:38Z</time>
      </trkpt>
      <trkpt lat="43.6797" lon="1.11016">
        <ele>248.3</ele>
        <time>2015-11-11T13:39:39Z</time>
      </trkpt>
      <trkpt lat="43.67973" lon="1.11017">
        <ele>248.5</ele>
        <time>2015-11-11T13:39:40Z</time>
      </trkpt>
      <trkpt lat="43.67975" lon="1.11018">
        <ele>248.6</ele>
        <time>2015-11-11T13:39:41Z</time>
      </trkpt>
      <trkpt lat="43.67978" lon="1.11019">
        <ele>248.9</ele>
        <time>2015-11-11T13:39:42Z</time>
      </trkpt>
      <trkpt lat="43.67982" lon="1.1102">
        <ele>249.1</ele>
        <time>2015-11-11T13:39:43Z</time>
      </trkpt>
      <trkpt lat="43.67985" lon="1.11021">
        <ele>249.3</ele>
        <time>2015-11-11T13:39:44Z</time>
      </trkpt>
      <trkpt lat="43.67988" lon="1.11022">
        <ele>249.5</ele>
        <time>2015-11-11T13:39:45Z</time>
      </trkpt>
      <trkpt lat="43.67993" lon="1.11022">
        <ele>249.6</ele>
        <time>2015-11-11T13:39:46Z</time>
      </trkpt>
      <trkpt lat="43.67997" lon="1.11022">
        <ele>249.7</ele>
        <time>2015-11-11T13:39:47Z</time>
      </trkpt>
      <trkpt lat="43.68001" lon="1.11021">
        <ele>249.8</ele>
        <time>2015-11-11T13:39:48Z</time>
      </trkpt>
      <trkpt lat="43.68006" lon="1.1102">
        <ele>249.8</ele>
        <time>2015-11-11T13:39:49Z</time>
      </trkpt>
      <trkpt lat="43.6801" lon="1.11019">
        <ele>249.9</ele>
        <time>2015-11-11T13:39:50Z</time>
      </trkpt>
      <trkpt lat="43.68015" lon="1.11018">
        <ele>249.9</ele>
        <time>2015-11-11T13:39:51Z</time>
      </trkpt>
      <trkpt lat="43.6802" lon="1.11016">
        <ele>249.9</ele>
        <time>2015-11-11T13:39:52Z</time>
      </trkpt>
      <trkpt lat="43.68025" lon="1.11014">
        <ele>249.8</ele>
        <time>2015-11-11T13:39:53Z</time>
      </trkpt>
      <trkpt lat="43.6803" lon="1.1101">
        <ele>249.6</ele>
        <time>2015-11-11T13:39:54Z</time>
      </trkpt>
      <trkpt lat="43.68035" lon="1.11006">
        <ele>249.4</ele>
        <time>2015-11-11T13:39:55Z</time>
      </trkpt>
      <trkpt lat="43.6804" lon="1.11003">
        <ele>249.2</ele>
        <time>2015-11-11T13:39:56Z</time>
      </trkpt>
      <trkpt lat="43.68044" lon="1.10999">
        <ele>249.1</ele>
        <time>2015-11-11T13:39:57Z</time>
      </trkpt>
      <trkpt lat="43.68048" lon="1.10996">
        <ele>249.2</ele>
        <time>2015-11-11T13:39:58Z</time>
      </trkpt>
      <trkpt lat="43.68052" lon="1.10992">
        <ele>249.2</ele>
        <time>2015-11-11T13:39:59Z</time>
      </trkpt>
      <trkpt lat="43.68055" lon="1.10989">
        <ele>249.2</ele>
        <time>2015-11-11T13:40:00Z</time>
      </trkpt>
      <trkpt lat="43.68059" lon="1.10985">
        <ele>249.2</ele>
        <time>2015-11-11T13:40:01Z</time>
      </trkpt>
      <trkpt lat="43.68062" lon="1.10981">
        <ele>249.2</ele>
        <time>2015-11-11T13:40:02Z</time>
      </trkpt>
      <trkpt lat="43.68065" lon="1.10977">
        <ele>249.2</ele>
        <time>2015-11-11T13:40:03Z</time>
      </trkpt>
      <trkpt lat="43.68069" lon="1.10973">
        <ele>249.2</ele>
        <time>2015-11-11T13:40:04Z</time>
      </trkpt>
      <trkpt lat="43.68072" lon="1.1097">
        <ele>249.2</ele>
        <time>2015-11-11T13:40:05Z</time>
      </trkpt>
      <trkpt lat="43.68075" lon="1.10965">
        <ele>249.2</ele>
        <time>2015-11-11T13:40:06Z</time>
      </trkpt>
      <trkpt lat="43.68078" lon="1.10961">
        <ele>249.1</ele>
        <time>2015-11-11T13:40:07Z</time>
      </trkpt>
      <trkpt lat="43.6808" lon="1.10956">
        <ele>248.9</ele>
        <time>2015-11-11T13:40:08Z</time>
      </trkpt>
      <trkpt lat="43.68083" lon="1.10951">
        <ele>248.7</ele>
        <time>2015-11-11T13:40:09Z</time>
      </trkpt>
      <trkpt lat="43.68085" lon="1.10946">
        <ele>248.4</ele>
        <time>2015-11-11T13:40:10Z</time>
      </trkpt>
      <trkpt lat="43.68088" lon="1.10941">
        <ele>248.1</ele>
        <time>2015-11-11T13:40:11Z</time>
      </trkpt>
      <trkpt lat="43.6809" lon="1.10935">
        <ele>247.7</ele>
        <time>2015-11-11T13:40:12Z</time>
      </trkpt>
      <trkpt lat="43.6809" lon="1.10928">
        <ele>247.1</ele>
        <time>2015-11-11T13:40:13Z</time>
      </trkpt>
      <trkpt lat="43.68092" lon="1.10922">
        <ele>246.8</ele>
        <time>2015-11-11T13:40:14Z</time>
      </trkpt>
      <trkpt lat="43.68094" lon="1.10917">
        <ele>246.5</ele>
        <time>2015-11-11T13:40:15Z</time>
      </trkpt>
      <trkpt lat="43.68095" lon="1.10911">
        <ele>246</ele>
        <time>2015-11-11T13:40:16Z</time>
      </trkpt>
      <trkpt lat="43.68098" lon="1.10907">
        <ele>245.9</ele>
        <time>2015-11-11T13:40:17Z</time>
      </trkpt>
      <trkpt lat="43.681" lon="1.10903">
        <ele>245.9</ele>
        <time>2015-11-11T13:40:18Z</time>
      </trkpt>
      <trkpt lat="43.68104" lon="1.10901">
        <ele>246.1</ele>
        <time>2015-11-11T13:40:19Z</time>
      </trkpt>
      <trkpt lat="43.68107" lon="1.10902">
        <ele>246.7</ele>
        <time>2015-11-11T13:40:20Z</time>
      </trkpt>
      <trkpt lat="43.6811" lon="1.10905">
        <ele>247.4</ele>
        <time>2015-11-11T13:40:21Z</time>
      </trkpt>
      <trkpt lat="43.68112" lon="1.10909">
        <ele>248</ele>
        <time>2015-11-11T13:40:22Z</time>
      </trkpt>
      <trkpt lat="43.68113" lon="1.10912">
        <ele>248.6</ele>
        <time>2015-11-11T13:40:23Z</time>
      </trkpt>
      <trkpt lat="43.68114" lon="1.10917">
        <ele>249.1</ele>
        <time>2015-11-11T13:40:24Z</time>
      </trkpt>
      <trkpt lat="43.68116" lon="1.10921">
        <ele>249.7</ele>
        <time>2015-11-11T13:40:25Z</time>
      </trkpt>
      <trkpt lat="43.68118" lon="1.10925">
        <ele>250.3</ele>
        <time>2015-11-11T13:40:26Z</time>
      </trkpt>
      <trkpt lat="43.68119" lon="1.10929">
        <ele>250.8</ele>
        <time>2015-11-11T13:40:27Z</time>
      </trkpt>
      <trkpt lat="43.6812" lon="1.10934">
        <ele>251.3</ele>
        <time>2015-11-11T13:40:28Z</time>
      </trkpt>
      <trkpt lat="43.68122" lon="1.10937">
        <ele>251.9</ele>
        <time>2015-11-11T13:40:29Z</time>
      </trkpt>
      <trkpt lat="43.68123" lon="1.10941">
        <ele>252.3</ele>
        <time>2015-11-11T13:40:30Z</time>
      </trkpt>
      <trkpt lat="43.68124" lon="1.10946">
        <ele>252.8</ele>
        <time>2015-11-11T13:40:31Z</time>
      </trkpt>
      <trkpt lat="43.68125" lon="1.10949">
        <ele>253.3</ele>
        <time>2015-11-11T13:40:32Z</time>
      </trkpt>
      <trkpt lat="43.68127" lon="1.10953">
        <ele>253.8</ele>
        <time>2015-11-11T13:40:33Z</time>
      </trkpt>
      <trkpt lat="43.68128" lon="1.10957">
        <ele>254.4</ele>
        <time>2015-11-11T13:40:34Z</time>
      </trkpt>
      <trkpt lat="43.68129" lon="1.1096">
        <ele>254.9</ele>
        <time>2015-11-11T13:40:35Z</time>
      </trkpt>
      <trkpt lat="43.68131" lon="1.10967">
        <ele>255.6</ele>
        <time>2015-11-11T13:40:37Z</time>
      </trkpt>
      <trkpt lat="43.68131" lon="1.10971">
        <ele>256</ele>
        <time>2015-11-11T13:40:38Z</time>
      </trkpt>
      <trkpt lat="43.68131" lon="1.10975">
        <ele>256.2</ele>
        <time>2015-11-11T13:40:39Z</time>
      </trkpt>
      <trkpt lat="43.68131" lon="1.10983">
        <ele>256.7</ele>
        <time>2015-11-11T13:40:41Z</time>
      </trkpt>
      <trkpt lat="43.6813" lon="1.10988">
        <ele>256.9</ele>
        <time>2015-11-11T13:40:42Z</time>
      </trkpt>
      <trkpt lat="43.68129" lon="1.10993">
        <ele>257.1</ele>
        <time>2015-11-11T13:40:43Z</time>
      </trkpt>
      <trkpt lat="43.68128" lon="1.10996">
        <ele>257.2</ele>
        <time>2015-11-11T13:40:44Z</time>
      </trkpt>
      <trkpt lat="43.68127" lon="1.11">
        <ele>257.3</ele>
        <time>2015-11-11T13:40:45Z</time>
      </trkpt>
      <trkpt lat="43.68126" lon="1.11004">
        <ele>257.3</ele>
        <time>2015-11-11T13:40:46Z</time>
      </trkpt>
      <trkpt lat="43.68124" lon="1.11007">
        <ele>257.4</ele>
        <time>2015-11-11T13:40:47Z</time>
      </trkpt>
      <trkpt lat="43.68123" lon="1.11011">
        <ele>257.6</ele>
        <time>2015-11-11T13:40:48Z</time>
      </trkpt>
      <trkpt lat="43.68121" lon="1.11015">
        <ele>257.8</ele>
        <time>2015-11-11T13:40:49Z</time>
      </trkpt>
      <trkpt lat="43.6812" lon="1.11019">
        <ele>257.9</ele>
        <time>2015-11-11T13:40:50Z</time>
      </trkpt>
      <trkpt lat="43.68118" lon="1.11023">
        <ele>258</ele>
        <time>2015-11-11T13:40:51Z</time>
      </trkpt>
      <trkpt lat="43.68117" lon="1.11027">
        <ele>258.2</ele>
        <time>2015-11-11T13:40:52Z</time>
      </trkpt>
      <trkpt lat="43.68115" lon="1.1103">
        <ele>258.3</ele>
        <time>2015-11-11T13:40:53Z</time>
      </trkpt>
      <trkpt lat="43.68114" lon="1.11034">
        <ele>258.5</ele>
        <time>2015-11-11T13:40:54Z</time>
      </trkpt>
      <trkpt lat="43.68113" lon="1.11038">
        <ele>258.7</ele>
        <time>2015-11-11T13:40:55Z</time>
      </trkpt>
      <trkpt lat="43.68111" lon="1.11044">
        <ele>259.3</ele>
        <time>2015-11-11T13:40:57Z</time>
      </trkpt>
      <trkpt lat="43.6811" lon="1.11051">
        <ele>260.2</ele>
        <time>2015-11-11T13:40:59Z</time>
      </trkpt>
      <trkpt lat="43.6811" lon="1.11058">
        <ele>261.3</ele>
        <time>2015-11-11T13:41:01Z</time>
      </trkpt>
      <trkpt lat="43.68112" lon="1.11061">
        <ele>261.9</ele>
        <time>2015-11-11T13:41:02Z</time>
      </trkpt>
      <trkpt lat="43.68114" lon="1.11064">
        <ele>262.6</ele>
        <time>2015-11-11T13:41:03Z</time>
      </trkpt>
      <trkpt lat="43.68116" lon="1.11067">
        <ele>263.2</ele>
        <time>2015-11-11T13:41:04Z</time>
      </trkpt>
      <trkpt lat="43.68119" lon="1.1107">
        <ele>263.9</ele>
        <time>2015-11-11T13:41:05Z</time>
      </trkpt>
      <trkpt lat="43.68121" lon="1.11073">
        <ele>264.5</ele>
        <time>2015-11-11T13:41:06Z</time>
      </trkpt>
      <trkpt lat="43.68124" lon="1.11075">
        <ele>265.1</ele>
        <time>2015-11-11T13:41:07Z</time>
      </trkpt>
      <trkpt lat="43.68127" lon="1.11078">
        <ele>265.8</ele>
        <time>2015-11-11T13:41:08Z</time>
      </trkpt>
      <trkpt lat="43.6813" lon="1.1108">
        <ele>266.4</ele>
        <time>2015-11-11T13:41:09Z</time>
      </trkpt>
      <trkpt lat="43.68132" lon="1.11082">
        <ele>266.9</ele>
        <time>2015-11-11T13:41:10Z</time>
      </trkpt>
      <trkpt lat="43.68135" lon="1.11084">
        <ele>267.4</ele>
        <time>2015-11-11T13:41:11Z</time>
      </trkpt>
      <trkpt lat="43.68138" lon="1.11086">
        <ele>267.9</ele>
        <time>2015-11-11T13:41:12Z</time>
      </trkpt>
      <trkpt lat="43.68141" lon="1.11088">
        <ele>268.4</ele>
        <time>2015-11-11T13:41:13Z</time>
      </trkpt>
      <trkpt lat="43.68143" lon="1.1109">
        <ele>268.9</ele>
        <time>2015-11-11T13:41:14Z</time>
      </trkpt>
      <trkpt lat="43.68146" lon="1.11093">
        <ele>269.4</ele>
        <time>2015-11-11T13:41:15Z</time>
      </trkpt>
      <trkpt lat="43.68148" lon="1.11096">
        <ele>270</ele>
        <time>2015-11-11T13:41:16Z</time>
      </trkpt>
      <trkpt lat="43.68151" lon="1.11099">
        <ele>270.6</ele>
        <time>2015-11-11T13:41:17Z</time>
      </trkpt>
      <trkpt lat="43.68155" lon="1.11102">
        <ele>271.2</ele>
        <time>2015-11-11T13:41:18Z</time>
      </trkpt>
      <trkpt lat="43.68158" lon="1.11105">
        <ele>271.7</ele>
        <time>2015-11-11T13:41:19Z</time>
      </trkpt>
      <trkpt lat="43.68162" lon="1.11106">
        <ele>272</ele>
        <time>2015-11-11T13:41:20Z</time>
      </trkpt>
      <trkpt lat="43.68165" lon="1.11107">
        <ele>272.4</ele>
        <time>2015-11-11T13:41:21Z</time>
      </trkpt>
      <trkpt lat="43.68169" lon="1.11108">
        <ele>272.6</ele>
        <time>2015-11-11T13:41:22Z</time>
      </trkpt>
      <trkpt lat="43.68173" lon="1.11109">
        <ele>272.9</ele>
        <time>2015-11-11T13:41:23Z</time>
      </trkpt>
      <trkpt lat="43.68176" lon="1.11109">
        <ele>273.2</ele>
        <time>2015-11-11T13:41:24Z</time>
      </trkpt>
      <trkpt lat="43.68179" lon="1.1111">
        <ele>273.5</ele>
        <time>2015-11-11T13:41:25Z</time>
      </trkpt>
      <trkpt lat="43.68183" lon="1.11111">
        <ele>273.7</ele>
        <time>2015-11-11T13:41:26Z</time>
      </trkpt>
      <trkpt lat="43.68187" lon="1.11112">
        <ele>274</ele>
        <time>2015-11-11T13:41:27Z</time>
      </trkpt>
      <trkpt lat="43.6819" lon="1.11113">
        <ele>274.3</ele>
        <time>2015-11-11T13:41:28Z</time>
      </trkpt>
      <trkpt lat="43.68193" lon="1.11115">
        <ele>274.6</ele>
        <time>2015-11-11T13:41:29Z</time>
      </trkpt>
      <trkpt lat="43.68198" lon="1.11115">
        <ele>274.8</ele>
        <time>2015-11-11T13:41:30Z</time>
      </trkpt>
      <trkpt lat="43.68203" lon="1.11116">
        <ele>275.1</ele>
        <time>2015-11-11T13:41:31Z</time>
      </trkpt>
      <trkpt lat="43.68209" lon="1.11117">
        <ele>275.4</ele>
        <time>2015-11-11T13:41:32Z</time>
      </trkpt>
      <trkpt lat="43.68212" lon="1.11117">
        <ele>275.5</ele>
        <time>2015-11-11T13:41:33Z</time>
      </trkpt>
      <trkpt lat="43.68218" lon="1.11118">
        <ele>275.6</ele>
        <time>2015-11-11T13:41:34Z</time>
      </trkpt>
      <trkpt lat="43.68223" lon="1.1112">
        <ele>275.7</ele>
        <time>2015-11-11T13:41:35Z</time>
      </trkpt>
      <trkpt lat="43.68228" lon="1.11122">
        <ele>275.9</ele>
        <time>2015-11-11T13:41:36Z</time>
      </trkpt>
      <trkpt lat="43.68232" lon="1.11123">
        <ele>275.9</ele>
        <time>2015-11-11T13:41:37Z</time>
      </trkpt>
      <trkpt lat="43.68237" lon="1.11125">
        <ele>276</ele>
        <time>2015-11-11T13:41:38Z</time>
      </trkpt>
      <trkpt lat="43.68244" lon="1.11124">
        <ele>276</ele>
        <time>2015-11-11T13:41:39Z</time>
      </trkpt>
      <trkpt lat="43.68249" lon="1.11127">
        <ele>275.9</ele>
        <time>2015-11-11T13:41:40Z</time>
      </trkpt>
      <trkpt lat="43.68253" lon="1.1113">
        <ele>275.7</ele>
        <time>2015-11-11T13:41:41Z</time>
      </trkpt>
      <trkpt lat="43.68258" lon="1.11132">
        <ele>275.5</ele>
        <time>2015-11-11T13:41:42Z</time>
      </trkpt>
      <trkpt lat="43.68263" lon="1.11133">
        <ele>275.4</ele>
        <time>2015-11-11T13:41:43Z</time>
      </trkpt>
      <trkpt lat="43.68267" lon="1.11136">
        <ele>275.1</ele>
        <time>2015-11-11T13:41:44Z</time>
      </trkpt>
      <trkpt lat="43.6827" lon="1.11139">
        <ele>274.9</ele>
        <time>2015-11-11T13:41:45Z</time>
      </trkpt>
      <trkpt lat="43.68275" lon="1.11142">
        <ele>274.5</ele>
        <time>2015-11-11T13:41:46Z</time>
      </trkpt>
      <trkpt lat="43.68279" lon="1.11145">
        <ele>274.3</ele>
        <time>2015-11-11T13:41:47Z</time>
      </trkpt>
      <trkpt lat="43.68283" lon="1.11148">
        <ele>273.9</ele>
        <time>2015-11-11T13:41:48Z</time>
      </trkpt>
      <trkpt lat="43.68287" lon="1.11152">
        <ele>273.5</ele>
        <time>2015-11-11T13:41:49Z</time>
      </trkpt>
      <trkpt lat="43.68291" lon="1.11154">
        <ele>273.2</ele>
        <time>2015-11-11T13:41:50Z</time>
      </trkpt>
      <trkpt lat="43.68296" lon="1.11157">
        <ele>273.1</ele>
        <time>2015-11-11T13:41:51Z</time>
      </trkpt>
      <trkpt lat="43.68301" lon="1.11161">
        <ele>272.9</ele>
        <time>2015-11-11T13:41:52Z</time>
      </trkpt>
      <trkpt lat="43.68306" lon="1.11164">
        <ele>272.8</ele>
        <time>2015-11-11T13:41:53Z</time>
      </trkpt>
      <trkpt lat="43.68309" lon="1.11168">
        <ele>272.6</ele>
        <time>2015-11-11T13:41:54Z</time>
      </trkpt>
      <trkpt lat="43.68313" lon="1.11172">
        <ele>272.4</ele>
        <time>2015-11-11T13:41:55Z</time>
      </trkpt>
      <trkpt lat="43.68317" lon="1.11175">
        <ele>272.3</ele>
        <time>2015-11-11T13:41:56Z</time>
      </trkpt>
      <trkpt lat="43.68321" lon="1.11178">
        <ele>272.2</ele>
        <time>2015-11-11T13:41:57Z</time>
      </trkpt>
      <trkpt lat="43.68324" lon="1.11183">
        <ele>271.9</ele>
        <time>2015-11-11T13:41:58Z</time>
      </trkpt>
      <trkpt lat="43.68328" lon="1.11186">
        <ele>271.8</ele>
        <time>2015-11-11T13:41:59Z</time>
      </trkpt>
      <trkpt lat="43.68334" lon="1.11189">
        <ele>271.8</ele>
        <time>2015-11-11T13:42:00Z</time>
      </trkpt>
      <trkpt lat="43.68338" lon="1.11193">
        <ele>271.6</ele>
        <time>2015-11-11T13:42:01Z</time>
      </trkpt>
      <trkpt lat="43.68343" lon="1.11197">
        <ele>271.4</ele>
        <time>2015-11-11T13:42:02Z</time>
      </trkpt>
      <trkpt lat="43.68346" lon="1.112">
        <ele>271.3</ele>
        <time>2015-11-11T13:42:03Z</time>
      </trkpt>
      <trkpt lat="43.68349" lon="1.11204">
        <ele>271.1</ele>
        <time>2015-11-11T13:42:04Z</time>
      </trkpt>
      <trkpt lat="43.68352" lon="1.11208">
        <ele>270.9</ele>
        <time>2015-11-11T13:42:05Z</time>
      </trkpt>
      <trkpt lat="43.68356" lon="1.11211">
        <ele>271</ele>
        <time>2015-11-11T13:42:06Z</time>
      </trkpt>
      <trkpt lat="43.68359" lon="1.11215">
        <ele>270.9</ele>
        <time>2015-11-11T13:42:07Z</time>
      </trkpt>
      <trkpt lat="43.68362" lon="1.11218">
        <ele>270.9</ele>
        <time>2015-11-11T13:42:08Z</time>
      </trkpt>
      <trkpt lat="43.68365" lon="1.11221">
        <ele>270.9</ele>
        <time>2015-11-11T13:42:09Z</time>
      </trkpt>
      <trkpt lat="43.68368" lon="1.11225">
        <ele>270.9</ele>
        <time>2015-11-11T13:42:10Z</time>
      </trkpt>
      <trkpt lat="43.68373" lon="1.11228">
        <ele>270.9</ele>
        <time>2015-11-11T13:42:11Z</time>
      </trkpt>
      <trkpt lat="43.68377" lon="1.11232">
        <ele>271</ele>
        <time>2015-11-11T13:42:12Z</time>
      </trkpt>
      <trkpt lat="43.68381" lon="1.11234">
        <ele>271.2</ele>
        <time>2015-11-11T13:42:13Z</time>
      </trkpt>
      <trkpt lat="43.68385" lon="1.11238">
        <ele>271.3</ele>
        <time>2015-11-11T13:42:14Z</time>
      </trkpt>
      <trkpt lat="43.6839" lon="1.1124">
        <ele>271.6</ele>
        <time>2015-11-11T13:42:15Z</time>
      </trkpt>
      <trkpt lat="43.68394" lon="1.11243">
        <ele>271.7</ele>
        <time>2015-11-11T13:42:16Z</time>
      </trkpt>
      <trkpt lat="43.68398" lon="1.11246">
        <ele>272</ele>
        <time>2015-11-11T13:42:17Z</time>
      </trkpt>
      <trkpt lat="43.68402" lon="1.1125">
        <ele>272.1</ele>
        <time>2015-11-11T13:42:18Z</time>
      </trkpt>
      <trkpt lat="43.68406" lon="1.11253">
        <ele>272.3</ele>
        <time>2015-11-11T13:42:19Z</time>
      </trkpt>
      <trkpt lat="43.6841" lon="1.11258">
        <ele>272.4</ele>
        <time>2015-11-11T13:42:20Z</time>
      </trkpt>
      <trkpt lat="43.68413" lon="1.1126">
        <ele>272.7</ele>
        <time>2015-11-11T13:42:21Z</time>
      </trkpt>
      <trkpt lat="43.68422" lon="1.11262">
        <ele>273.3</ele>
        <time>2015-11-11T13:42:22Z</time>
      </trkpt>
      <trkpt lat="43.68425" lon="1.11266">
        <ele>273.5</ele>
        <time>2015-11-11T13:42:23Z</time>
      </trkpt>
      <trkpt lat="43.68431" lon="1.11268">
        <ele>273.9</ele>
        <time>2015-11-11T13:42:24Z</time>
      </trkpt>
      <trkpt lat="43.68434" lon="1.11271">
        <ele>274.1</ele>
        <time>2015-11-11T13:42:25Z</time>
      </trkpt>
      <trkpt lat="43.68438" lon="1.11271">
        <ele>274.5</ele>
        <time>2015-11-11T13:42:26Z</time>
      </trkpt>
      <trkpt lat="43.68441" lon="1.11274">
        <ele>274.7</ele>
        <time>2015-11-11T13:42:27Z</time>
      </trkpt>
      <trkpt lat="43.68444" lon="1.11278">
        <ele>274.9</ele>
        <time>2015-11-11T13:42:28Z</time>
      </trkpt>
      <trkpt lat="43.68448" lon="1.11281">
        <ele>275.1</ele>
        <time>2015-11-11T13:42:29Z</time>
      </trkpt>
      <trkpt lat="43.68449" lon="1.11285">
        <ele>275.2</ele>
        <time>2015-11-11T13:42:30Z</time>
      </trkpt>
      <trkpt lat="43.68451" lon="1.11289">
        <ele>275.4</ele>
        <time>2015-11-11T13:42:31Z</time>
      </trkpt>
      <trkpt lat="43.68454" lon="1.11294">
        <ele>275.5</ele>
        <time>2015-11-11T13:42:32Z</time>
      </trkpt>
      <trkpt lat="43.68456" lon="1.11298">
        <ele>275.6</ele>
        <time>2015-11-11T13:42:33Z</time>
      </trkpt>
      <trkpt lat="43.68462" lon="1.11304">
        <ele>275.8</ele>
        <time>2015-11-11T13:42:34Z</time>
      </trkpt>
      <trkpt lat="43.68466" lon="1.11309">
        <ele>275.8</ele>
        <time>2015-11-11T13:42:35Z</time>
      </trkpt>
      <trkpt lat="43.68471" lon="1.11314">
        <ele>275.9</ele>
        <time>2015-11-11T13:42:36Z</time>
      </trkpt>
      <trkpt lat="43.68476" lon="1.11318">
        <ele>276.1</ele>
        <time>2015-11-11T13:42:37Z</time>
      </trkpt>
      <trkpt lat="43.68479" lon="1.11324">
        <ele>276.1</ele>
        <time>2015-11-11T13:42:38Z</time>
      </trkpt>
      <trkpt lat="43.68482" lon="1.1133">
        <ele>276.2</ele>
        <time>2015-11-11T13:42:39Z</time>
      </trkpt>
      <trkpt lat="43.68484" lon="1.11334">
        <ele>276.2</ele>
        <time>2015-11-11T13:42:40Z</time>
      </trkpt>
      <trkpt lat="43.68487" lon="1.11338">
        <ele>276.3</ele>
        <time>2015-11-11T13:42:41Z</time>
      </trkpt>
      <trkpt lat="43.68491" lon="1.11342">
        <ele>276.5</ele>
        <time>2015-11-11T13:42:42Z</time>
      </trkpt>
      <trkpt lat="43.68492" lon="1.11349">
        <ele>276.6</ele>
        <time>2015-11-11T13:42:43Z</time>
      </trkpt>
      <trkpt lat="43.68495" lon="1.11355">
        <ele>276.7</ele>
        <time>2015-11-11T13:42:44Z</time>
      </trkpt>
      <trkpt lat="43.68499" lon="1.11361">
        <ele>276.9</ele>
        <time>2015-11-11T13:42:45Z</time>
      </trkpt>
      <trkpt lat="43.68501" lon="1.11367">
        <ele>277.1</ele>
        <time>2015-11-11T13:42:46Z</time>
      </trkpt>
      <trkpt lat="43.68502" lon="1.11374">
        <ele>277.2</ele>
        <time>2015-11-11T13:42:47Z</time>
      </trkpt>
      <trkpt lat="43.68507" lon="1.11377">
        <ele>277.5</ele>
        <time>2015-11-11T13:42:48Z</time>
      </trkpt>
      <trkpt lat="43.68509" lon="1.11383">
        <ele>277.6</ele>
        <time>2015-11-11T13:42:49Z</time>
      </trkpt>
      <trkpt lat="43.68512" lon="1.11388">
        <ele>277.8</ele>
        <time>2015-11-11T13:42:50Z</time>
      </trkpt>
      <trkpt lat="43.68514" lon="1.11393">
        <ele>277.9</ele>
        <time>2015-11-11T13:42:51Z</time>
      </trkpt>
      <trkpt lat="43.68517" lon="1.11398">
        <ele>278.1</ele>
        <time>2015-11-11T13:42:52Z</time>
      </trkpt>
      <trkpt lat="43.6852" lon="1.11404">
        <ele>278.3</ele>
        <time>2015-11-11T13:42:53Z</time>
      </trkpt>
      <trkpt lat="43.68522" lon="1.11411">
        <ele>278.5</ele>
        <time>2015-11-11T13:42:54Z</time>
      </trkpt>
      <trkpt lat="43.68525" lon="1.11415">
        <ele>278.7</ele>
        <time>2015-11-11T13:42:55Z</time>
      </trkpt>
      <trkpt lat="43.68528" lon="1.11421">
        <ele>278.9</ele>
        <time>2015-11-11T13:42:56Z</time>
      </trkpt>
      <trkpt lat="43.6853" lon="1.11424">
        <ele>279.1</ele>
        <time>2015-11-11T13:42:57Z</time>
      </trkpt>
      <trkpt lat="43.68534" lon="1.1143">
        <ele>279.4</ele>
        <time>2015-11-11T13:42:58Z</time>
      </trkpt>
      <trkpt lat="43.68536" lon="1.11438">
        <ele>279.5</ele>
        <time>2015-11-11T13:42:59Z</time>
      </trkpt>
      <trkpt lat="43.68539" lon="1.11445">
        <ele>279.8</ele>
        <time>2015-11-11T13:43:00Z</time>
      </trkpt>
      <trkpt lat="43.68542" lon="1.11451">
        <ele>280</ele>
        <time>2015-11-11T13:43:01Z</time>
      </trkpt>
      <trkpt lat="43.68545" lon="1.11457">
        <ele>280</ele>
        <time>2015-11-11T13:43:02Z</time>
      </trkpt>
      <trkpt lat="43.68547" lon="1.11464">
        <ele>279.6</ele>
        <time>2015-11-11T13:43:03Z</time>
      </trkpt>
      <trkpt lat="43.6855" lon="1.11469">
        <ele>279.2</ele>
        <time>2015-11-11T13:43:04Z</time>
      </trkpt>
      <trkpt lat="43.68554" lon="1.11475">
        <ele>278.9</ele>
        <time>2015-11-11T13:43:05Z</time>
      </trkpt>
      <trkpt lat="43.68557" lon="1.11481">
        <ele>278.6</ele>
        <time>2015-11-11T13:43:06Z</time>
      </trkpt>
      <trkpt lat="43.6856" lon="1.11489">
        <ele>278.3</ele>
        <time>2015-11-11T13:43:07Z</time>
      </trkpt>
      <trkpt lat="43.68565" lon="1.11494">
        <ele>278.2</ele>
        <time>2015-11-11T13:43:08Z</time>
      </trkpt>
      <trkpt lat="43.68571" lon="1.11502">
        <ele>278.2</ele>
        <time>2015-11-11T13:43:09Z</time>
      </trkpt>
      <trkpt lat="43.68575" lon="1.11508">
        <ele>278.2</ele>
        <time>2015-11-11T13:43:10Z</time>
      </trkpt>
      <trkpt lat="43.68579" lon="1.11515">
        <ele>278.2</ele>
        <time>2015-11-11T13:43:11Z</time>
      </trkpt>
      <trkpt lat="43.68585" lon="1.11523">
        <ele>278.4</ele>
        <time>2015-11-11T13:43:12Z</time>
      </trkpt>
      <trkpt lat="43.68591" lon="1.1153">
        <ele>278.9</ele>
        <time>2015-11-11T13:43:13Z</time>
      </trkpt>
      <trkpt lat="43.68598" lon="1.11536">
        <ele>279.4</ele>
        <time>2015-11-11T13:43:14Z</time>
      </trkpt>
      <trkpt lat="43.68605" lon="1.11543">
        <ele>280.1</ele>
        <time>2015-11-11T13:43:15Z</time>
      </trkpt>
      <trkpt lat="43.68612" lon="1.11548">
        <ele>280.6</ele>
        <time>2015-11-11T13:43:16Z</time>
      </trkpt>
      <trkpt lat="43.68621" lon="1.11552">
        <ele>281.5</ele>
        <time>2015-11-11T13:43:17Z</time>
      </trkpt>
      <trkpt lat="43.68628" lon="1.11559">
        <ele>281.4</ele>
        <time>2015-11-11T13:43:18Z</time>
      </trkpt>
      <trkpt lat="43.68635" lon="1.11566">
        <ele>280.2</ele>
        <time>2015-11-11T13:43:19Z</time>
      </trkpt>
      <trkpt lat="43.68642" lon="1.11577">
        <ele>279.2</ele>
        <time>2015-11-11T13:43:20Z</time>
      </trkpt>
      <trkpt lat="43.68645" lon="1.11589">
        <ele>278.7</ele>
        <time>2015-11-11T13:43:21Z</time>
      </trkpt>
      <trkpt lat="43.68647" lon="1.116">
        <ele>278.3</ele>
        <time>2015-11-11T13:43:22Z</time>
      </trkpt>
      <trkpt lat="43.68652" lon="1.11612">
        <ele>277.6</ele>
        <time>2015-11-11T13:43:23Z</time>
      </trkpt>
      <trkpt lat="43.68655" lon="1.11625">
        <ele>277</ele>
        <time>2015-11-11T13:43:24Z</time>
      </trkpt>
      <trkpt lat="43.68658" lon="1.11638">
        <ele>275.3</ele>
        <time>2015-11-11T13:43:25Z</time>
      </trkpt>
      <trkpt lat="43.68661" lon="1.1165">
        <ele>273.7</ele>
        <time>2015-11-11T13:43:26Z</time>
      </trkpt>
      <trkpt lat="43.68664" lon="1.11667">
        <ele>271.5</ele>
        <time>2015-11-11T13:43:27Z</time>
      </trkpt>
      <trkpt lat="43.68665" lon="1.11686">
        <ele>269.5</ele>
        <time>2015-11-11T13:43:28Z</time>
      </trkpt>
      <trkpt lat="43.68669" lon="1.11701">
        <ele>267.5</ele>
        <time>2015-11-11T13:43:29Z</time>
      </trkpt>
      <trkpt lat="43.68678" lon="1.11715">
        <ele>265.4</ele>
        <time>2015-11-11T13:43:30Z</time>
      </trkpt>
      <trkpt lat="43.68687" lon="1.11726">
        <ele>263.7</ele>
        <time>2015-11-11T13:43:31Z</time>
      </trkpt>
      <trkpt lat="43.68696" lon="1.11738">
        <ele>262</ele>
        <time>2015-11-11T13:43:32Z</time>
      </trkpt>
      <trkpt lat="43.68707" lon="1.11747">
        <ele>260.4</ele>
        <time>2015-11-11T13:43:33Z</time>
      </trkpt>
      <trkpt lat="43.68717" lon="1.11754">
        <ele>259.1</ele>
        <time>2015-11-11T13:43:34Z</time>
      </trkpt>
      <trkpt lat="43.68728" lon="1.11761">
        <ele>258</ele>
        <time>2015-11-11T13:43:35Z</time>
      </trkpt>
      <trkpt lat="43.68738" lon="1.11768">
        <ele>257.2</ele>
        <time>2015-11-11T13:43:36Z</time>
      </trkpt>
      <trkpt lat="43.68747" lon="1.11774">
        <ele>256.7</ele>
        <time>2015-11-11T13:43:37Z</time>
      </trkpt>
      <trkpt lat="43.68756" lon="1.11781">
        <ele>256.4</ele>
        <time>2015-11-11T13:43:38Z</time>
      </trkpt>
      <trkpt lat="43.68765" lon="1.11788">
        <ele>256.3</ele>
        <time>2015-11-11T13:43:39Z</time>
      </trkpt>
      <trkpt lat="43.68773" lon="1.11795">
        <ele>256.1</ele>
        <time>2015-11-11T13:43:40Z</time>
      </trkpt>
      <trkpt lat="43.68782" lon="1.11801">
        <ele>256</ele>
        <time>2015-11-11T13:43:41Z</time>
      </trkpt>
      <trkpt lat="43.68792" lon="1.11805">
        <ele>256</ele>
        <time>2015-11-11T13:43:42Z</time>
      </trkpt>
      <trkpt lat="43.68802" lon="1.11809">
        <ele>255.9</ele>
        <time>2015-11-11T13:43:43Z</time>
      </trkpt>
      <trkpt lat="43.68813" lon="1.11812">
        <ele>255.7</ele>
        <time>2015-11-11T13:43:44Z</time>
      </trkpt>
      <trkpt lat="43.68825" lon="1.11813">
        <ele>255.6</ele>
        <time>2015-11-11T13:43:45Z</time>
      </trkpt>
      <trkpt lat="43.68837" lon="1.11814">
        <ele>255.5</ele>
        <time>2015-11-11T13:43:46Z</time>
      </trkpt>
      <trkpt lat="43.68849" lon="1.11816">
        <ele>255.3</ele>
        <time>2015-11-11T13:43:47Z</time>
      </trkpt>
      <trkpt lat="43.68861" lon="1.11816">
        <ele>255.2</ele>
        <time>2015-11-11T13:43:48Z</time>
      </trkpt>
      <trkpt lat="43.68873" lon="1.11816">
        <ele>255</ele>
        <time>2015-11-11T13:43:49Z</time>
      </trkpt>
      <trkpt lat="43.68886" lon="1.11817">
        <ele>253.5</ele>
        <time>2015-11-11T13:43:50Z</time>
      </trkpt>
      <trkpt lat="43.68897" lon="1.11819">
        <ele>252.1</ele>
        <time>2015-11-11T13:43:51Z</time>
      </trkpt>
      <trkpt lat="43.68909" lon="1.1182">
        <ele>250.3</ele>
        <time>2015-11-11T13:43:52Z</time>
      </trkpt>
      <trkpt lat="43.68921" lon="1.11821">
        <ele>248.7</ele>
        <time>2015-11-11T13:43:53Z</time>
      </trkpt>
      <trkpt lat="43.68933" lon="1.11822">
        <ele>247</ele>
        <time>2015-11-11T13:43:54Z</time>
      </trkpt>
      <trkpt lat="43.68945" lon="1.11824">
        <ele>245.3</ele>
        <time>2015-11-11T13:43:55Z</time>
      </trkpt>
      <trkpt lat="43.68956" lon="1.11825">
        <ele>243.7</ele>
        <time>2015-11-11T13:43:56Z</time>
      </trkpt>
      <trkpt lat="43.68966" lon="1.11826">
        <ele>242.4</ele>
        <time>2015-11-11T13:43:57Z</time>
      </trkpt>
      <trkpt lat="43.68977" lon="1.11826">
        <ele>241.1</ele>
        <time>2015-11-11T13:43:58Z</time>
      </trkpt>
      <trkpt lat="43.68987" lon="1.11827">
        <ele>239.8</ele>
        <time>2015-11-11T13:43:59Z</time>
      </trkpt>
      <trkpt lat="43.68998" lon="1.11826">
        <ele>238.6</ele>
        <time>2015-11-11T13:44:00Z</time>
      </trkpt>
      <trkpt lat="43.69008" lon="1.1182">
        <ele>237.5</ele>
        <time>2015-11-11T13:44:01Z</time>
      </trkpt>
      <trkpt lat="43.69018" lon="1.11813">
        <ele>236.5</ele>
        <time>2015-11-11T13:44:02Z</time>
      </trkpt>
      <trkpt lat="43.69027" lon="1.11803">
        <ele>235.6</ele>
        <time>2015-11-11T13:44:03Z</time>
      </trkpt>
      <trkpt lat="43.69037" lon="1.11794">
        <ele>234.5</ele>
        <time>2015-11-11T13:44:04Z</time>
      </trkpt>
      <trkpt lat="43.69047" lon="1.11785">
        <ele>233.1</ele>
        <time>2015-11-11T13:44:05Z</time>
      </trkpt>
      <trkpt lat="43.69056" lon="1.11776">
        <ele>231.8</ele>
        <time>2015-11-11T13:44:06Z</time>
      </trkpt>
      <trkpt lat="43.69066" lon="1.11767">
        <ele>230.2</ele>
        <time>2015-11-11T13:44:07Z</time>
      </trkpt>
      <trkpt lat="43.69076" lon="1.11758">
        <ele>228.8</ele>
        <time>2015-11-11T13:44:08Z</time>
      </trkpt>
      <trkpt lat="43.69083" lon="1.11749">
        <ele>227.7</ele>
        <time>2015-11-11T13:44:09Z</time>
      </trkpt>
      <trkpt lat="43.69093" lon="1.1174">
        <ele>226.4</ele>
        <time>2015-11-11T13:44:10Z</time>
      </trkpt>
      <trkpt lat="43.69104" lon="1.11733">
        <ele>225</ele>
        <time>2015-11-11T13:44:11Z</time>
      </trkpt>
      <trkpt lat="43.69113" lon="1.11727">
        <ele>223.8</ele>
        <time>2015-11-11T13:44:12Z</time>
      </trkpt>
      <trkpt lat="43.69124" lon="1.11721">
        <ele>222.6</ele>
        <time>2015-11-11T13:44:13Z</time>
      </trkpt>
      <trkpt lat="43.69134" lon="1.11718">
        <ele>222</ele>
        <time>2015-11-11T13:44:14Z</time>
      </trkpt>
      <trkpt lat="43.69144" lon="1.11715">
        <ele>221.5</ele>
        <time>2015-11-11T13:44:15Z</time>
      </trkpt>
      <trkpt lat="43.69165" lon="1.11709">
        <ele>220.6</ele>
        <time>2015-11-11T13:44:17Z</time>
      </trkpt>
      <trkpt lat="43.69176" lon="1.11704">
        <ele>220</ele>
        <time>2015-11-11T13:44:18Z</time>
      </trkpt>
      <trkpt lat="43.69186" lon="1.117">
        <ele>219.4</ele>
        <time>2015-11-11T13:44:19Z</time>
      </trkpt>
      <trkpt lat="43.69196" lon="1.11697">
        <ele>218.8</ele>
        <time>2015-11-11T13:44:20Z</time>
      </trkpt>
      <trkpt lat="43.69206" lon="1.11691">
        <ele>218.1</ele>
        <time>2015-11-11T13:44:21Z</time>
      </trkpt>
      <trkpt lat="43.69214" lon="1.11688">
        <ele>217.6</ele>
        <time>2015-11-11T13:44:22Z</time>
      </trkpt>
      <trkpt lat="43.69222" lon="1.11684">
        <ele>217.2</ele>
        <time>2015-11-11T13:44:23Z</time>
      </trkpt>
      <trkpt lat="43.69231" lon="1.11681">
        <ele>216.8</ele>
        <time>2015-11-11T13:44:24Z</time>
      </trkpt>
      <trkpt lat="43.6924" lon="1.11681">
        <ele>216.6</ele>
        <time>2015-11-11T13:44:25Z</time>
      </trkpt>
      <trkpt lat="43.69248" lon="1.11678">
        <ele>216.3</ele>
        <time>2015-11-11T13:44:26Z</time>
      </trkpt>
      <trkpt lat="43.69258" lon="1.11673">
        <ele>215.9</ele>
        <time>2015-11-11T13:44:27Z</time>
      </trkpt>
      <trkpt lat="43.69266" lon="1.1167">
        <ele>215.6</ele>
        <time>2015-11-11T13:44:28Z</time>
      </trkpt>
      <trkpt lat="43.69272" lon="1.11668">
        <ele>215.4</ele>
        <time>2015-11-11T13:44:29Z</time>
      </trkpt>
      <trkpt lat="43.6928" lon="1.11665">
        <ele>215.2</ele>
        <time>2015-11-11T13:44:30Z</time>
      </trkpt>
      <trkpt lat="43.69289" lon="1.11666">
        <ele>215</ele>
        <time>2015-11-11T13:44:31Z</time>
      </trkpt>
      <trkpt lat="43.69295" lon="1.1167">
        <ele>215.2</ele>
        <time>2015-11-11T13:44:32Z</time>
      </trkpt>
      <trkpt lat="43.69302" lon="1.11671">
        <ele>215.4</ele>
        <time>2015-11-11T13:44:33Z</time>
      </trkpt>
      <trkpt lat="43.69309" lon="1.11674">
        <ele>215.7</ele>
        <time>2015-11-11T13:44:34Z</time>
      </trkpt>
      <trkpt lat="43.69314" lon="1.11677">
        <ele>215.8</ele>
        <time>2015-11-11T13:44:35Z</time>
      </trkpt>
      <trkpt lat="43.69323" lon="1.11677">
        <ele>216.1</ele>
        <time>2015-11-11T13:44:36Z</time>
      </trkpt>
      <trkpt lat="43.69327" lon="1.11679">
        <ele>216.2</ele>
        <time>2015-11-11T13:44:37Z</time>
      </trkpt>
      <trkpt lat="43.69333" lon="1.11679">
        <ele>216.3</ele>
        <time>2015-11-11T13:44:38Z</time>
      </trkpt>
      <trkpt lat="43.69339" lon="1.11676">
        <ele>216.5</ele>
        <time>2015-11-11T13:44:39Z</time>
      </trkpt>
      <trkpt lat="43.69343" lon="1.1167">
        <ele>216.8</ele>
        <time>2015-11-11T13:44:40Z</time>
      </trkpt>
      <trkpt lat="43.69347" lon="1.11664">
        <ele>217.1</ele>
        <time>2015-11-11T13:44:41Z</time>
      </trkpt>
      <trkpt lat="43.69351" lon="1.11658">
        <ele>217.4</ele>
        <time>2015-11-11T13:44:42Z</time>
      </trkpt>
      <trkpt lat="43.69353" lon="1.11651">
        <ele>217.7</ele>
        <time>2015-11-11T13:44:43Z</time>
      </trkpt>
      <trkpt lat="43.69357" lon="1.11646">
        <ele>218</ele>
        <time>2015-11-11T13:44:44Z</time>
      </trkpt>
      <trkpt lat="43.6936" lon="1.11641">
        <ele>218.3</ele>
        <time>2015-11-11T13:44:45Z</time>
      </trkpt>
      <trkpt lat="43.69362" lon="1.11635">
        <ele>218.7</ele>
        <time>2015-11-11T13:44:46Z</time>
      </trkpt>
      <trkpt lat="43.69364" lon="1.11629">
        <ele>219</ele>
        <time>2015-11-11T13:44:47Z</time>
      </trkpt>
      <trkpt lat="43.69365" lon="1.11624">
        <ele>219.2</ele>
        <time>2015-11-11T13:44:48Z</time>
      </trkpt>
      <trkpt lat="43.69367" lon="1.11617">
        <ele>219.1</ele>
        <time>2015-11-11T13:44:49Z</time>
      </trkpt>
      <trkpt lat="43.69368" lon="1.1161">
        <ele>219</ele>
        <time>2015-11-11T13:44:50Z</time>
      </trkpt>
      <trkpt lat="43.69372" lon="1.11603">
        <ele>219</ele>
        <time>2015-11-11T13:44:51Z</time>
      </trkpt>
      <trkpt lat="43.69373" lon="1.11597">
        <ele>218.8</ele>
        <time>2015-11-11T13:44:52Z</time>
      </trkpt>
      <trkpt lat="43.69373" lon="1.11591">
        <ele>218.7</ele>
        <time>2015-11-11T13:44:53Z</time>
      </trkpt>
      <trkpt lat="43.69377" lon="1.11584">
        <ele>218.5</ele>
        <time>2015-11-11T13:44:54Z</time>
      </trkpt>
      <trkpt lat="43.69379" lon="1.11577">
        <ele>218.3</ele>
        <time>2015-11-11T13:44:55Z</time>
      </trkpt>
      <trkpt lat="43.69382" lon="1.11573">
        <ele>218.1</ele>
        <time>2015-11-11T13:44:56Z</time>
      </trkpt>
      <trkpt lat="43.69385" lon="1.11567">
        <ele>217.9</ele>
        <time>2015-11-11T13:44:57Z</time>
      </trkpt>
      <trkpt lat="43.69386" lon="1.11562">
        <ele>217.7</ele>
        <time>2015-11-11T13:44:58Z</time>
      </trkpt>
      <trkpt lat="43.69387" lon="1.11556">
        <ele>217.5</ele>
        <time>2015-11-11T13:44:59Z</time>
      </trkpt>
      <trkpt lat="43.69389" lon="1.11549">
        <ele>217.3</ele>
        <time>2015-11-11T13:45:00Z</time>
      </trkpt>
      <trkpt lat="43.69391" lon="1.11541">
        <ele>216.9</ele>
        <time>2015-11-11T13:45:01Z</time>
      </trkpt>
      <trkpt lat="43.69394" lon="1.11532">
        <ele>216.5</ele>
        <time>2015-11-11T13:45:02Z</time>
      </trkpt>
      <trkpt lat="43.69399" lon="1.11523">
        <ele>216</ele>
        <time>2015-11-11T13:45:03Z</time>
      </trkpt>
      <trkpt lat="43.69405" lon="1.11514">
        <ele>215.4</ele>
        <time>2015-11-11T13:45:04Z</time>
      </trkpt>
      <trkpt lat="43.6941" lon="1.11503">
        <ele>214.8</ele>
        <time>2015-11-11T13:45:05Z</time>
      </trkpt>
      <trkpt lat="43.69415" lon="1.11493">
        <ele>214.1</ele>
        <time>2015-11-11T13:45:06Z</time>
      </trkpt>
      <trkpt lat="43.6942" lon="1.11479">
        <ele>213.2</ele>
        <time>2015-11-11T13:45:07Z</time>
      </trkpt>
      <trkpt lat="43.69425" lon="1.11466">
        <ele>212.3</ele>
        <time>2015-11-11T13:45:08Z</time>
      </trkpt>
      <trkpt lat="43.69432" lon="1.11451">
        <ele>211.1</ele>
        <time>2015-11-11T13:45:09Z</time>
      </trkpt>
      <trkpt lat="43.69438" lon="1.11437">
        <ele>210</ele>
        <time>2015-11-11T13:45:10Z</time>
      </trkpt>
      <trkpt lat="43.69443" lon="1.11421">
        <ele>208.8</ele>
        <time>2015-11-11T13:45:11Z</time>
      </trkpt>
      <trkpt lat="43.6945" lon="1.11406">
        <ele>207.8</ele>
        <time>2015-11-11T13:45:12Z</time>
      </trkpt>
      <trkpt lat="43.69459" lon="1.11392">
        <ele>207</ele>
        <time>2015-11-11T13:45:13Z</time>
      </trkpt>
      <trkpt lat="43.69467" lon="1.11379">
        <ele>206.2</ele>
        <time>2015-11-11T13:45:14Z</time>
      </trkpt>
      <trkpt lat="43.69476" lon="1.11366">
        <ele>206.3</ele>
        <time>2015-11-11T13:45:15Z</time>
      </trkpt>
      <trkpt lat="43.69485" lon="1.11357">
        <ele>206.8</ele>
        <time>2015-11-11T13:45:16Z</time>
      </trkpt>
      <trkpt lat="43.69493" lon="1.11348">
        <ele>207.3</ele>
        <time>2015-11-11T13:45:17Z</time>
      </trkpt>
      <trkpt lat="43.695" lon="1.11339">
        <ele>207.9</ele>
        <time>2015-11-11T13:45:18Z</time>
      </trkpt>
      <trkpt lat="43.69506" lon="1.1133">
        <ele>208.6</ele>
        <time>2015-11-11T13:45:19Z</time>
      </trkpt>
      <trkpt lat="43.69509" lon="1.11323">
        <ele>209.2</ele>
        <time>2015-11-11T13:45:20Z</time>
      </trkpt>
      <trkpt lat="43.69514" lon="1.11315">
        <ele>209.9</ele>
        <time>2015-11-11T13:45:21Z</time>
      </trkpt>
      <trkpt lat="43.69514" lon="1.11307">
        <ele>210.3</ele>
        <time>2015-11-11T13:45:22Z</time>
      </trkpt>
      <trkpt lat="43.69515" lon="1.11301">
        <ele>210.8</ele>
        <time>2015-11-11T13:45:23Z</time>
      </trkpt>
      <trkpt lat="43.69518" lon="1.11295">
        <ele>211.4</ele>
        <time>2015-11-11T13:45:24Z</time>
      </trkpt>
      <trkpt lat="43.69521" lon="1.11289">
        <ele>211.9</ele>
        <time>2015-11-11T13:45:25Z</time>
      </trkpt>
      <trkpt lat="43.69525" lon="1.11283">
        <ele>212.5</ele>
        <time>2015-11-11T13:45:26Z</time>
      </trkpt>
      <trkpt lat="43.69533" lon="1.11279">
        <ele>213.3</ele>
        <time>2015-11-11T13:45:27Z</time>
      </trkpt>
      <trkpt lat="43.69536" lon="1.11272">
        <ele>213.8</ele>
        <time>2015-11-11T13:45:28Z</time>
      </trkpt>
      <trkpt lat="43.69539" lon="1.11267">
        <ele>214.3</ele>
        <time>2015-11-11T13:45:29Z</time>
      </trkpt>
      <trkpt lat="43.6954" lon="1.11263">
        <ele>214.7</ele>
        <time>2015-11-11T13:45:30Z</time>
      </trkpt>
      <trkpt lat="43.69542" lon="1.11258">
        <ele>215</ele>
        <time>2015-11-11T13:45:31Z</time>
      </trkpt>
      <trkpt lat="43.69543" lon="1.11251">
        <ele>215.5</ele>
        <time>2015-11-11T13:45:32Z</time>
      </trkpt>
      <trkpt lat="43.69546" lon="1.11246">
        <ele>216</ele>
        <time>2015-11-11T13:45:34Z</time>
      </trkpt>
      <trkpt lat="43.69547" lon="1.1124">
        <ele>216.4</ele>
        <time>2015-11-11T13:45:35Z</time>
      </trkpt>
      <trkpt lat="43.69548" lon="1.11234">
        <ele>216.8</ele>
        <time>2015-11-11T13:45:36Z</time>
      </trkpt>
      <trkpt lat="43.6955" lon="1.1123">
        <ele>217.2</ele>
        <time>2015-11-11T13:45:37Z</time>
      </trkpt>
      <trkpt lat="43.69552" lon="1.11225">
        <ele>217.5</ele>
        <time>2015-11-11T13:45:38Z</time>
      </trkpt>
      <trkpt lat="43.69553" lon="1.11219">
        <ele>217.9</ele>
        <time>2015-11-11T13:45:39Z</time>
      </trkpt>
      <trkpt lat="43.69554" lon="1.11215">
        <ele>218.3</ele>
        <time>2015-11-11T13:45:40Z</time>
      </trkpt>
      <trkpt lat="43.69556" lon="1.1121">
        <ele>218.6</ele>
        <time>2015-11-11T13:45:41Z</time>
      </trkpt>
      <trkpt lat="43.69558" lon="1.11206">
        <ele>218.9</ele>
        <time>2015-11-11T13:45:42Z</time>
      </trkpt>
      <trkpt lat="43.69558" lon="1.112">
        <ele>219.4</ele>
        <time>2015-11-11T13:45:43Z</time>
      </trkpt>
      <trkpt lat="43.69559" lon="1.11197">
        <ele>219.7</ele>
        <time>2015-11-11T13:45:44Z</time>
      </trkpt>
      <trkpt lat="43.69559" lon="1.11193">
        <ele>220</ele>
        <time>2015-11-11T13:45:45Z</time>
      </trkpt>
      <trkpt lat="43.6956" lon="1.11186">
        <ele>220.5</ele>
        <time>2015-11-11T13:45:46Z</time>
      </trkpt>
      <trkpt lat="43.69561" lon="1.11181">
        <ele>220.8</ele>
        <time>2015-11-11T13:45:47Z</time>
      </trkpt>
      <trkpt lat="43.69561" lon="1.11176">
        <ele>221.2</ele>
        <time>2015-11-11T13:45:48Z</time>
      </trkpt>
      <trkpt lat="43.69562" lon="1.11171">
        <ele>221.5</ele>
        <time>2015-11-11T13:45:49Z</time>
      </trkpt>
      <trkpt lat="43.69562" lon="1.11167">
        <ele>221.8</ele>
        <time>2015-11-11T13:45:50Z</time>
      </trkpt>
      <trkpt lat="43.69562" lon="1.11162">
        <ele>222.2</ele>
        <time>2015-11-11T13:45:51Z</time>
      </trkpt>
      <trkpt lat="43.69561" lon="1.11157">
        <ele>222.5</ele>
        <time>2015-11-11T13:45:52Z</time>
      </trkpt>
      <trkpt lat="43.69561" lon="1.11152">
        <ele>222.9</ele>
        <time>2015-11-11T13:45:53Z</time>
      </trkpt>
      <trkpt lat="43.69561" lon="1.11146">
        <ele>223.3</ele>
        <time>2015-11-11T13:45:54Z</time>
      </trkpt>
      <trkpt lat="43.6956" lon="1.1114">
        <ele>223.7</ele>
        <time>2015-11-11T13:45:55Z</time>
      </trkpt>
      <trkpt lat="43.6956" lon="1.11135">
        <ele>224.1</ele>
        <time>2015-11-11T13:45:56Z</time>
      </trkpt>
      <trkpt lat="43.6956" lon="1.11129">
        <ele>224.5</ele>
        <time>2015-11-11T13:45:57Z</time>
      </trkpt>
      <trkpt lat="43.69561" lon="1.11124">
        <ele>224.8</ele>
        <time>2015-11-11T13:45:58Z</time>
      </trkpt>
      <trkpt lat="43.69562" lon="1.1112">
        <ele>225.1</ele>
        <time>2015-11-11T13:45:59Z</time>
      </trkpt>
      <trkpt lat="43.69563" lon="1.11115">
        <ele>225.3</ele>
        <time>2015-11-11T13:46:00Z</time>
      </trkpt>
      <trkpt lat="43.69564" lon="1.11111">
        <ele>225.6</ele>
        <time>2015-11-11T13:46:01Z</time>
      </trkpt>
      <trkpt lat="43.69566" lon="1.11106">
        <ele>225.8</ele>
        <time>2015-11-11T13:46:02Z</time>
      </trkpt>
      <trkpt lat="43.69567" lon="1.11102">
        <ele>226</ele>
        <time>2015-11-11T13:46:03Z</time>
      </trkpt>
      <trkpt lat="43.69569" lon="1.11097">
        <ele>226.3</ele>
        <time>2015-11-11T13:46:04Z</time>
      </trkpt>
      <trkpt lat="43.6957" lon="1.11092">
        <ele>226.5</ele>
        <time>2015-11-11T13:46:05Z</time>
      </trkpt>
      <trkpt lat="43.69572" lon="1.11088">
        <ele>226.6</ele>
        <time>2015-11-11T13:46:06Z</time>
      </trkpt>
      <trkpt lat="43.69574" lon="1.11083">
        <ele>226.9</ele>
        <time>2015-11-11T13:46:07Z</time>
      </trkpt>
      <trkpt lat="43.69575" lon="1.11078">
        <ele>227</ele>
        <time>2015-11-11T13:46:08Z</time>
      </trkpt>
      <trkpt lat="43.69577" lon="1.11074">
        <ele>227.2</ele>
        <time>2015-11-11T13:46:09Z</time>
      </trkpt>
      <trkpt lat="43.69578" lon="1.11069">
        <ele>227.4</ele>
        <time>2015-11-11T13:46:10Z</time>
      </trkpt>
      <trkpt lat="43.69579" lon="1.11065">
        <ele>227.6</ele>
        <time>2015-11-11T13:46:11Z</time>
      </trkpt>
      <trkpt lat="43.69581" lon="1.11061">
        <ele>227.7</ele>
        <time>2015-11-11T13:46:12Z</time>
      </trkpt>
      <trkpt lat="43.69582" lon="1.11056">
        <ele>227.9</ele>
        <time>2015-11-11T13:46:13Z</time>
      </trkpt>
      <trkpt lat="43.69584" lon="1.11051">
        <ele>228</ele>
        <time>2015-11-11T13:46:14Z</time>
      </trkpt>
      <trkpt lat="43.69585" lon="1.11046">
        <ele>228.2</ele>
        <time>2015-11-11T13:46:15Z</time>
      </trkpt>
      <trkpt lat="43.69588" lon="1.11041">
        <ele>228.3</ele>
        <time>2015-11-11T13:46:16Z</time>
      </trkpt>
      <trkpt lat="43.69589" lon="1.11036">
        <ele>228.2</ele>
        <time>2015-11-11T13:46:17Z</time>
      </trkpt>
      <trkpt lat="43.69591" lon="1.11032">
        <ele>228.2</ele>
        <time>2015-11-11T13:46:18Z</time>
      </trkpt>
      <trkpt lat="43.69593" lon="1.11027">
        <ele>228.1</ele>
        <time>2015-11-11T13:46:19Z</time>
      </trkpt>
      <trkpt lat="43.69594" lon="1.11023">
        <ele>228.1</ele>
        <time>2015-11-11T13:46:20Z</time>
      </trkpt>
      <trkpt lat="43.69594" lon="1.11018">
        <ele>228.1</ele>
        <time>2015-11-11T13:46:21Z</time>
      </trkpt>
      <trkpt lat="43.69594" lon="1.11013">
        <ele>228.2</ele>
        <time>2015-11-11T13:46:22Z</time>
      </trkpt>
      <trkpt lat="43.69594" lon="1.11008">
        <ele>228.3</ele>
        <time>2015-11-11T13:46:23Z</time>
      </trkpt>
      <trkpt lat="43.69593" lon="1.11003">
        <ele>228.4</ele>
        <time>2015-11-11T13:46:24Z</time>
      </trkpt>
      <trkpt lat="43.69591" lon="1.10998">
        <ele>228.5</ele>
        <time>2015-11-11T13:46:25Z</time>
      </trkpt>
      <trkpt lat="43.6959" lon="1.10993">
        <ele>228.7</ele>
        <time>2015-11-11T13:46:26Z</time>
      </trkpt>
      <trkpt lat="43.69588" lon="1.10988">
        <ele>228.9</ele>
        <time>2015-11-11T13:46:27Z</time>
      </trkpt>
      <trkpt lat="43.69585" lon="1.10982">
        <ele>229.1</ele>
        <time>2015-11-11T13:46:28Z</time>
      </trkpt>
      <trkpt lat="43.69583" lon="1.10977">
        <ele>229.3</ele>
        <time>2015-11-11T13:46:29Z</time>
      </trkpt>
      <trkpt lat="43.6958" lon="1.10972">
        <ele>229.5</ele>
        <time>2015-11-11T13:46:30Z</time>
      </trkpt>
      <trkpt lat="43.69578" lon="1.10968">
        <ele>229.7</ele>
        <time>2015-11-11T13:46:31Z</time>
      </trkpt>
      <trkpt lat="43.69576" lon="1.10963">
        <ele>229.9</ele>
        <time>2015-11-11T13:46:32Z</time>
      </trkpt>
      <trkpt lat="43.69574" lon="1.10958">
        <ele>230.1</ele>
        <time>2015-11-11T13:46:33Z</time>
      </trkpt>
      <trkpt lat="43.69572" lon="1.10953">
        <ele>230.2</ele>
        <time>2015-11-11T13:46:34Z</time>
      </trkpt>
      <trkpt lat="43.6957" lon="1.10948">
        <ele>230.4</ele>
        <time>2015-11-11T13:46:35Z</time>
      </trkpt>
      <trkpt lat="43.69569" lon="1.10942">
        <ele>230.5</ele>
        <time>2015-11-11T13:46:36Z</time>
      </trkpt>
      <trkpt lat="43.69567" lon="1.10937">
        <ele>230.7</ele>
        <time>2015-11-11T13:46:37Z</time>
      </trkpt>
      <trkpt lat="43.69564" lon="1.1093">
        <ele>230.9</ele>
        <time>2015-11-11T13:46:38Z</time>
      </trkpt>
      <trkpt lat="43.69563" lon="1.10926">
        <ele>231</ele>
        <time>2015-11-11T13:46:39Z</time>
      </trkpt>
      <trkpt lat="43.69561" lon="1.10921">
        <ele>231.2</ele>
        <time>2015-11-11T13:46:40Z</time>
      </trkpt>
      <trkpt lat="43.69557" lon="1.10916">
        <ele>231.5</ele>
        <time>2015-11-11T13:46:42Z</time>
      </trkpt>
      <trkpt lat="43.69554" lon="1.10912">
        <ele>231.7</ele>
        <time>2015-11-11T13:46:43Z</time>
      </trkpt>
      <trkpt lat="43.69551" lon="1.10903">
        <ele>232.1</ele>
        <time>2015-11-11T13:46:45Z</time>
      </trkpt>
      <trkpt lat="43.69548" lon="1.10898">
        <ele>232.3</ele>
        <time>2015-11-11T13:46:46Z</time>
      </trkpt>
      <trkpt lat="43.69546" lon="1.10893">
        <ele>232.5</ele>
        <time>2015-11-11T13:46:47Z</time>
      </trkpt>
      <trkpt lat="43.69544" lon="1.10888">
        <ele>232.7</ele>
        <time>2015-11-11T13:46:48Z</time>
      </trkpt>
      <trkpt lat="43.69542" lon="1.10883">
        <ele>232.9</ele>
        <time>2015-11-11T13:46:49Z</time>
      </trkpt>
      <trkpt lat="43.69541" lon="1.10878">
        <ele>233</ele>
        <time>2015-11-11T13:46:50Z</time>
      </trkpt>
      <trkpt lat="43.6954" lon="1.10874">
        <ele>233</ele>
        <time>2015-11-11T13:46:51Z</time>
      </trkpt>
      <trkpt lat="43.69539" lon="1.10869">
        <ele>233</ele>
        <time>2015-11-11T13:46:52Z</time>
      </trkpt>
      <trkpt lat="43.69537" lon="1.10865">
        <ele>233.1</ele>
        <time>2015-11-11T13:46:53Z</time>
      </trkpt>
      <trkpt lat="43.69536" lon="1.1086">
        <ele>233.1</ele>
        <time>2015-11-11T13:46:54Z</time>
      </trkpt>
      <trkpt lat="43.69534" lon="1.10856">
        <ele>233.1</ele>
        <time>2015-11-11T13:46:55Z</time>
      </trkpt>
      <trkpt lat="43.69533" lon="1.10851">
        <ele>233.2</ele>
        <time>2015-11-11T13:46:56Z</time>
      </trkpt>
      <trkpt lat="43.69532" lon="1.10847">
        <ele>233.2</ele>
        <time>2015-11-11T13:46:57Z</time>
      </trkpt>
      <trkpt lat="43.6953" lon="1.10841">
        <ele>233.2</ele>
        <time>2015-11-11T13:46:58Z</time>
      </trkpt>
      <trkpt lat="43.69529" lon="1.10836">
        <ele>233.2</ele>
        <time>2015-11-11T13:46:59Z</time>
      </trkpt>
      <trkpt lat="43.69527" lon="1.1083">
        <ele>233.3</ele>
        <time>2015-11-11T13:47:00Z</time>
      </trkpt>
      <trkpt lat="43.69526" lon="1.10825">
        <ele>233.3</ele>
        <time>2015-11-11T13:47:01Z</time>
      </trkpt>
      <trkpt lat="43.69524" lon="1.1082">
        <ele>233.3</ele>
        <time>2015-11-11T13:47:02Z</time>
      </trkpt>
      <trkpt lat="43.69522" lon="1.10815">
        <ele>233.3</ele>
        <time>2015-11-11T13:47:03Z</time>
      </trkpt>
      <trkpt lat="43.69521" lon="1.1081">
        <ele>233.3</ele>
        <time>2015-11-11T13:47:04Z</time>
      </trkpt>
      <trkpt lat="43.69519" lon="1.10806">
        <ele>233.3</ele>
        <time>2015-11-11T13:47:05Z</time>
      </trkpt>
      <trkpt lat="43.69518" lon="1.10801">
        <ele>233.3</ele>
        <time>2015-11-11T13:47:06Z</time>
      </trkpt>
      <trkpt lat="43.69516" lon="1.10796">
        <ele>233.4</ele>
        <time>2015-11-11T13:47:07Z</time>
      </trkpt>
      <trkpt lat="43.69515" lon="1.1079">
        <ele>233.4</ele>
        <time>2015-11-11T13:47:08Z</time>
      </trkpt>
      <trkpt lat="43.69514" lon="1.10785">
        <ele>233.4</ele>
        <time>2015-11-11T13:47:09Z</time>
      </trkpt>
      <trkpt lat="43.69512" lon="1.1078">
        <ele>233.4</ele>
        <time>2015-11-11T13:47:10Z</time>
      </trkpt>
      <trkpt lat="43.69511" lon="1.10775">
        <ele>233.4</ele>
        <time>2015-11-11T13:47:11Z</time>
      </trkpt>
      <trkpt lat="43.69509" lon="1.10768">
        <ele>233.3</ele>
        <time>2015-11-11T13:47:12Z</time>
      </trkpt>
      <trkpt lat="43.69505" lon="1.1076">
        <ele>233.2</ele>
        <time>2015-11-11T13:47:13Z</time>
      </trkpt>
      <trkpt lat="43.69503" lon="1.10753">
        <ele>233.2</ele>
        <time>2015-11-11T13:47:14Z</time>
      </trkpt>
      <trkpt lat="43.695" lon="1.10745">
        <ele>233</ele>
        <time>2015-11-11T13:47:15Z</time>
      </trkpt>
      <trkpt lat="43.69497" lon="1.10738">
        <ele>232.8</ele>
        <time>2015-11-11T13:47:16Z</time>
      </trkpt>
      <trkpt lat="43.69494" lon="1.10726">
        <ele>232.6</ele>
        <time>2015-11-11T13:47:17Z</time>
      </trkpt>
      <trkpt lat="43.69491" lon="1.10718">
        <ele>232.4</ele>
        <time>2015-11-11T13:47:18Z</time>
      </trkpt>
      <trkpt lat="43.69488" lon="1.1071">
        <ele>232.1</ele>
        <time>2015-11-11T13:47:19Z</time>
      </trkpt>
      <trkpt lat="43.69486" lon="1.10702">
        <ele>232.2</ele>
        <time>2015-11-11T13:47:20Z</time>
      </trkpt>
      <trkpt lat="43.69482" lon="1.10694">
        <ele>232.2</ele>
        <time>2015-11-11T13:47:21Z</time>
      </trkpt>
      <trkpt lat="43.6948" lon="1.10684">
        <ele>232.3</ele>
        <time>2015-11-11T13:47:22Z</time>
      </trkpt>
      <trkpt lat="43.69477" lon="1.10675">
        <ele>232.3</ele>
        <time>2015-11-11T13:47:23Z</time>
      </trkpt>
      <trkpt lat="43.69477" lon="1.1067">
        <ele>232.5</ele>
        <time>2015-11-11T13:47:24Z</time>
      </trkpt>
      <trkpt lat="43.69475" lon="1.1066">
        <ele>232.6</ele>
        <time>2015-11-11T13:47:25Z</time>
      </trkpt>
      <trkpt lat="43.69472" lon="1.10651">
        <ele>232.6</ele>
        <time>2015-11-11T13:47:26Z</time>
      </trkpt>
      <trkpt lat="43.69468" lon="1.10635">
        <ele>232.6</ele>
        <time>2015-11-11T13:47:27Z</time>
      </trkpt>
      <trkpt lat="43.69465" lon="1.10627">
        <ele>232.6</ele>
        <time>2015-11-11T13:47:28Z</time>
      </trkpt>
      <trkpt lat="43.69463" lon="1.10614">
        <ele>233.2</ele>
        <time>2015-11-11T13:47:29Z</time>
      </trkpt>
      <trkpt lat="43.6946" lon="1.10605">
        <ele>233.6</ele>
        <time>2015-11-11T13:47:30Z</time>
      </trkpt>
      <trkpt lat="43.69456" lon="1.10592">
        <ele>234.3</ele>
        <time>2015-11-11T13:47:31Z</time>
      </trkpt>
      <trkpt lat="43.69454" lon="1.10584">
        <ele>234.8</ele>
        <time>2015-11-11T13:47:32Z</time>
      </trkpt>
      <trkpt lat="43.6945" lon="1.10574">
        <ele>235.4</ele>
        <time>2015-11-11T13:47:33Z</time>
      </trkpt>
      <trkpt lat="43.69447" lon="1.10565">
        <ele>236</ele>
        <time>2015-11-11T13:47:34Z</time>
      </trkpt>
      <trkpt lat="43.69445" lon="1.10557">
        <ele>236.4</ele>
        <time>2015-11-11T13:47:35Z</time>
      </trkpt>
      <trkpt lat="43.69441" lon="1.10549">
        <ele>236.8</ele>
        <time>2015-11-11T13:47:36Z</time>
      </trkpt>
      <trkpt lat="43.69439" lon="1.10543">
        <ele>237.2</ele>
        <time>2015-11-11T13:47:37Z</time>
      </trkpt>
      <trkpt lat="43.69437" lon="1.10537">
        <ele>237.5</ele>
        <time>2015-11-11T13:47:38Z</time>
      </trkpt>
      <trkpt lat="43.69436" lon="1.10531">
        <ele>237.8</ele>
        <time>2015-11-11T13:47:39Z</time>
      </trkpt>
      <trkpt lat="43.69434" lon="1.10525">
        <ele>238.1</ele>
        <time>2015-11-11T13:47:40Z</time>
      </trkpt>
      <trkpt lat="43.69431" lon="1.10518">
        <ele>238.3</ele>
        <time>2015-11-11T13:47:41Z</time>
      </trkpt>
      <trkpt lat="43.69429" lon="1.10513">
        <ele>238.6</ele>
        <time>2015-11-11T13:47:42Z</time>
      </trkpt>
      <trkpt lat="43.69428" lon="1.10509">
        <ele>238.7</ele>
        <time>2015-11-11T13:47:43Z</time>
      </trkpt>
      <trkpt lat="43.69426" lon="1.10503">
        <ele>238.9</ele>
        <time>2015-11-11T13:47:44Z</time>
      </trkpt>
      <trkpt lat="43.69424" lon="1.10498">
        <ele>239</ele>
        <time>2015-11-11T13:47:45Z</time>
      </trkpt>
      <trkpt lat="43.69424" lon="1.10494">
        <ele>239.2</ele>
        <time>2015-11-11T13:47:46Z</time>
      </trkpt>
      <trkpt lat="43.69422" lon="1.10489">
        <ele>239.4</ele>
        <time>2015-11-11T13:47:47Z</time>
      </trkpt>
      <trkpt lat="43.6942" lon="1.10484">
        <ele>239.5</ele>
        <time>2015-11-11T13:47:48Z</time>
      </trkpt>
      <trkpt lat="43.69418" lon="1.10479">
        <ele>239.6</ele>
        <time>2015-11-11T13:47:49Z</time>
      </trkpt>
      <trkpt lat="43.69416" lon="1.10474">
        <ele>239.7</ele>
        <time>2015-11-11T13:47:50Z</time>
      </trkpt>
      <trkpt lat="43.69414" lon="1.10469">
        <ele>239.8</ele>
        <time>2015-11-11T13:47:51Z</time>
      </trkpt>
      <trkpt lat="43.69412" lon="1.10463">
        <ele>239.9</ele>
        <time>2015-11-11T13:47:52Z</time>
      </trkpt>
      <trkpt lat="43.6941" lon="1.10458">
        <ele>240</ele>
        <time>2015-11-11T13:47:53Z</time>
      </trkpt>
      <trkpt lat="43.6941" lon="1.10453">
        <ele>240.2</ele>
        <time>2015-11-11T13:47:54Z</time>
      </trkpt>
      <trkpt lat="43.69408" lon="1.10448">
        <ele>240.3</ele>
        <time>2015-11-11T13:47:55Z</time>
      </trkpt>
      <trkpt lat="43.69407" lon="1.10442">
        <ele>240.3</ele>
        <time>2015-11-11T13:47:56Z</time>
      </trkpt>
      <trkpt lat="43.69405" lon="1.10438">
        <ele>240.4</ele>
        <time>2015-11-11T13:47:57Z</time>
      </trkpt>
      <trkpt lat="43.69404" lon="1.10433">
        <ele>240.4</ele>
        <time>2015-11-11T13:47:58Z</time>
      </trkpt>
      <trkpt lat="43.69402" lon="1.10428">
        <ele>240.5</ele>
        <time>2015-11-11T13:47:59Z</time>
      </trkpt>
      <trkpt lat="43.69401" lon="1.10423">
        <ele>240.6</ele>
        <time>2015-11-11T13:48:00Z</time>
      </trkpt>
      <trkpt lat="43.694" lon="1.10418">
        <ele>240.6</ele>
        <time>2015-11-11T13:48:01Z</time>
      </trkpt>
      <trkpt lat="43.69398" lon="1.10413">
        <ele>240.6</ele>
        <time>2015-11-11T13:48:02Z</time>
      </trkpt>
      <trkpt lat="43.69396" lon="1.10408">
        <ele>240.6</ele>
        <time>2015-11-11T13:48:03Z</time>
      </trkpt>
      <trkpt lat="43.69395" lon="1.10403">
        <ele>240.6</ele>
        <time>2015-11-11T13:48:04Z</time>
      </trkpt>
      <trkpt lat="43.69392" lon="1.10396">
        <ele>240.5</ele>
        <time>2015-11-11T13:48:05Z</time>
      </trkpt>
      <trkpt lat="43.6939" lon="1.1039">
        <ele>240.5</ele>
        <time>2015-11-11T13:48:06Z</time>
      </trkpt>
      <trkpt lat="43.69388" lon="1.10383">
        <ele>240.5</ele>
        <time>2015-11-11T13:48:07Z</time>
      </trkpt>
      <trkpt lat="43.69388" lon="1.10379">
        <ele>240.6</ele>
        <time>2015-11-11T13:48:08Z</time>
      </trkpt>
      <trkpt lat="43.69387" lon="1.10373">
        <ele>240.6</ele>
        <time>2015-11-11T13:48:09Z</time>
      </trkpt>
      <trkpt lat="43.69385" lon="1.1037">
        <ele>240.5</ele>
        <time>2015-11-11T13:48:10Z</time>
      </trkpt>
      <trkpt lat="43.69384" lon="1.10364">
        <ele>240.5</ele>
        <time>2015-11-11T13:48:11Z</time>
      </trkpt>
      <trkpt lat="43.69383" lon="1.10359">
        <ele>240.4</ele>
        <time>2015-11-11T13:48:12Z</time>
      </trkpt>
      <trkpt lat="43.69379" lon="1.10353">
        <ele>240.1</ele>
        <time>2015-11-11T13:48:13Z</time>
      </trkpt>
      <trkpt lat="43.69377" lon="1.10348">
        <ele>239.9</ele>
        <time>2015-11-11T13:48:14Z</time>
      </trkpt>
      <trkpt lat="43.69375" lon="1.10342">
        <ele>239.7</ele>
        <time>2015-11-11T13:48:15Z</time>
      </trkpt>
      <trkpt lat="43.69373" lon="1.10336">
        <ele>239.7</ele>
        <time>2015-11-11T13:48:16Z</time>
      </trkpt>
      <trkpt lat="43.6937" lon="1.1033">
        <ele>239.5</ele>
        <time>2015-11-11T13:48:17Z</time>
      </trkpt>
      <trkpt lat="43.69368" lon="1.10323">
        <ele>239.4</ele>
        <time>2015-11-11T13:48:18Z</time>
      </trkpt>
      <trkpt lat="43.69367" lon="1.10317">
        <ele>239.4</ele>
        <time>2015-11-11T13:48:19Z</time>
      </trkpt>
      <trkpt lat="43.69365" lon="1.1031">
        <ele>239.3</ele>
        <time>2015-11-11T13:48:20Z</time>
      </trkpt>
      <trkpt lat="43.69364" lon="1.10304">
        <ele>239.4</ele>
        <time>2015-11-11T13:48:21Z</time>
      </trkpt>
      <trkpt lat="43.69362" lon="1.10297">
        <ele>239.3</ele>
        <time>2015-11-11T13:48:22Z</time>
      </trkpt>
      <trkpt lat="43.69359" lon="1.10287">
        <ele>239.2</ele>
        <time>2015-11-11T13:48:23Z</time>
      </trkpt>
      <trkpt lat="43.69358" lon="1.10279">
        <ele>239.4</ele>
        <time>2015-11-11T13:48:24Z</time>
      </trkpt>
      <trkpt lat="43.69356" lon="1.1027">
        <ele>239.5</ele>
        <time>2015-11-11T13:48:25Z</time>
      </trkpt>
      <trkpt lat="43.69353" lon="1.10263">
        <ele>239.4</ele>
        <time>2015-11-11T13:48:26Z</time>
      </trkpt>
      <trkpt lat="43.69351" lon="1.10256">
        <ele>239.4</ele>
        <time>2015-11-11T13:48:27Z</time>
      </trkpt>
      <trkpt lat="43.6935" lon="1.10246">
        <ele>239.6</ele>
        <time>2015-11-11T13:48:28Z</time>
      </trkpt>
      <trkpt lat="43.69347" lon="1.10238">
        <ele>239.6</ele>
        <time>2015-11-11T13:48:29Z</time>
      </trkpt>
      <trkpt lat="43.69344" lon="1.1023">
        <ele>239.5</ele>
        <time>2015-11-11T13:48:30Z</time>
      </trkpt>
      <trkpt lat="43.69342" lon="1.10222">
        <ele>239.6</ele>
        <time>2015-11-11T13:48:31Z</time>
      </trkpt>
      <trkpt lat="43.69338" lon="1.10215">
        <ele>239.3</ele>
        <time>2015-11-11T13:48:32Z</time>
      </trkpt>
      <trkpt lat="43.69337" lon="1.10207">
        <ele>239.6</ele>
        <time>2015-11-11T13:48:33Z</time>
      </trkpt>
      <trkpt lat="43.69334" lon="1.10199">
        <ele>239.7</ele>
        <time>2015-11-11T13:48:34Z</time>
      </trkpt>
      <trkpt lat="43.69331" lon="1.10191">
        <ele>239.8</ele>
        <time>2015-11-11T13:48:35Z</time>
      </trkpt>
      <trkpt lat="43.69329" lon="1.10185">
        <ele>240</ele>
        <time>2015-11-11T13:48:36Z</time>
      </trkpt>
      <trkpt lat="43.69327" lon="1.10178">
        <ele>240.2</ele>
        <time>2015-11-11T13:48:37Z</time>
      </trkpt>
      <trkpt lat="43.69323" lon="1.1017">
        <ele>240.2</ele>
        <time>2015-11-11T13:48:38Z</time>
      </trkpt>
      <trkpt lat="43.6932" lon="1.10161">
        <ele>240.4</ele>
        <time>2015-11-11T13:48:39Z</time>
      </trkpt>
      <trkpt lat="43.69319" lon="1.10156">
        <ele>240.6</ele>
        <time>2015-11-11T13:48:40Z</time>
      </trkpt>
      <trkpt lat="43.69316" lon="1.10149">
        <ele>240.7</ele>
        <time>2015-11-11T13:48:41Z</time>
      </trkpt>
      <trkpt lat="43.69314" lon="1.10141">
        <ele>240.9</ele>
        <time>2015-11-11T13:48:42Z</time>
      </trkpt>
      <trkpt lat="43.69309" lon="1.1013">
        <ele>241</ele>
        <time>2015-11-11T13:48:43Z</time>
      </trkpt>
      <trkpt lat="43.69307" lon="1.10123">
        <ele>241</ele>
        <time>2015-11-11T13:48:44Z</time>
      </trkpt>
      <trkpt lat="43.69305" lon="1.10116">
        <ele>240.9</ele>
        <time>2015-11-11T13:48:45Z</time>
      </trkpt>
      <trkpt lat="43.69302" lon="1.1011">
        <ele>240.6</ele>
        <time>2015-11-11T13:48:46Z</time>
      </trkpt>
      <trkpt lat="43.693" lon="1.10103">
        <ele>240.3</ele>
        <time>2015-11-11T13:48:47Z</time>
      </trkpt>
      <trkpt lat="43.69297" lon="1.10095">
        <ele>240</ele>
        <time>2015-11-11T13:48:48Z</time>
      </trkpt>
      <trkpt lat="43.69296" lon="1.1009">
        <ele>240</ele>
        <time>2015-11-11T13:48:49Z</time>
      </trkpt>
      <trkpt lat="43.69294" lon="1.10084">
        <ele>239.8</ele>
        <time>2015-11-11T13:48:50Z</time>
      </trkpt>
      <trkpt lat="43.69293" lon="1.10078">
        <ele>239.8</ele>
        <time>2015-11-11T13:48:51Z</time>
      </trkpt>
      <trkpt lat="43.69292" lon="1.10072">
        <ele>239.7</ele>
        <time>2015-11-11T13:48:52Z</time>
      </trkpt>
      <trkpt lat="43.69289" lon="1.10065">
        <ele>239.7</ele>
        <time>2015-11-11T13:48:53Z</time>
      </trkpt>
      <trkpt lat="43.69286" lon="1.10058">
        <ele>239.7</ele>
        <time>2015-11-11T13:48:54Z</time>
      </trkpt>
      <trkpt lat="43.69284" lon="1.10053">
        <ele>239.7</ele>
        <time>2015-11-11T13:48:55Z</time>
      </trkpt>
      <trkpt lat="43.69282" lon="1.10048">
        <ele>239.8</ele>
        <time>2015-11-11T13:48:56Z</time>
      </trkpt>
      <trkpt lat="43.6928" lon="1.10041">
        <ele>239.9</ele>
        <time>2015-11-11T13:48:57Z</time>
      </trkpt>
      <trkpt lat="43.69277" lon="1.10034">
        <ele>239.9</ele>
        <time>2015-11-11T13:48:58Z</time>
      </trkpt>
      <trkpt lat="43.69275" lon="1.10029">
        <ele>240</ele>
        <time>2015-11-11T13:48:59Z</time>
      </trkpt>
      <trkpt lat="43.69273" lon="1.10023">
        <ele>240</ele>
        <time>2015-11-11T13:49:00Z</time>
      </trkpt>
      <trkpt lat="43.69271" lon="1.10016">
        <ele>240.1</ele>
        <time>2015-11-11T13:49:01Z</time>
      </trkpt>
      <trkpt lat="43.69267" lon="1.10012">
        <ele>240.1</ele>
        <time>2015-11-11T13:49:02Z</time>
      </trkpt>
      <trkpt lat="43.69265" lon="1.10007">
        <ele>240.1</ele>
        <time>2015-11-11T13:49:03Z</time>
      </trkpt>
      <trkpt lat="43.69264" lon="1.09999">
        <ele>240.2</ele>
        <time>2015-11-11T13:49:04Z</time>
      </trkpt>
      <trkpt lat="43.69261" lon="1.09991">
        <ele>240.2</ele>
        <time>2015-11-11T13:49:05Z</time>
      </trkpt>
      <trkpt lat="43.69258" lon="1.09983">
        <ele>240.3</ele>
        <time>2015-11-11T13:49:06Z</time>
      </trkpt>
      <trkpt lat="43.69256" lon="1.09976">
        <ele>240.4</ele>
        <time>2015-11-11T13:49:07Z</time>
      </trkpt>
      <trkpt lat="43.69255" lon="1.09971">
        <ele>240.4</ele>
        <time>2015-11-11T13:49:08Z</time>
      </trkpt>
      <trkpt lat="43.69253" lon="1.09962">
        <ele>240.5</ele>
        <time>2015-11-11T13:49:09Z</time>
      </trkpt>
      <trkpt lat="43.69251" lon="1.09953">
        <ele>240.3</ele>
        <time>2015-11-11T13:49:10Z</time>
      </trkpt>
      <trkpt lat="43.69247" lon="1.09944">
        <ele>240</ele>
        <time>2015-11-11T13:49:11Z</time>
      </trkpt>
      <trkpt lat="43.69245" lon="1.09935">
        <ele>239.6</ele>
        <time>2015-11-11T13:49:12Z</time>
      </trkpt>
      <trkpt lat="43.69242" lon="1.09925">
        <ele>239.3</ele>
        <time>2015-11-11T13:49:13Z</time>
      </trkpt>
      <trkpt lat="43.69239" lon="1.09915">
        <ele>238.9</ele>
        <time>2015-11-11T13:49:14Z</time>
      </trkpt>
      <trkpt lat="43.69237" lon="1.09905">
        <ele>238.6</ele>
        <time>2015-11-11T13:49:15Z</time>
      </trkpt>
      <trkpt lat="43.69234" lon="1.09895">
        <ele>238.3</ele>
        <time>2015-11-11T13:49:16Z</time>
      </trkpt>
      <trkpt lat="43.69232" lon="1.09884">
        <ele>238</ele>
        <time>2015-11-11T13:49:17Z</time>
      </trkpt>
      <trkpt lat="43.69227" lon="1.09873">
        <ele>237.7</ele>
        <time>2015-11-11T13:49:18Z</time>
      </trkpt>
      <trkpt lat="43.69225" lon="1.09862">
        <ele>237.4</ele>
        <time>2015-11-11T13:49:19Z</time>
      </trkpt>
      <trkpt lat="43.69222" lon="1.09852">
        <ele>237.2</ele>
        <time>2015-11-11T13:49:20Z</time>
      </trkpt>
      <trkpt lat="43.6922" lon="1.09842">
        <ele>237</ele>
        <time>2015-11-11T13:49:21Z</time>
      </trkpt>
      <trkpt lat="43.69218" lon="1.09832">
        <ele>236.7</ele>
        <time>2015-11-11T13:49:22Z</time>
      </trkpt>
      <trkpt lat="43.69216" lon="1.0982">
        <ele>236.5</ele>
        <time>2015-11-11T13:49:23Z</time>
      </trkpt>
      <trkpt lat="43.69213" lon="1.09809">
        <ele>236.3</ele>
        <time>2015-11-11T13:49:24Z</time>
      </trkpt>
      <trkpt lat="43.69212" lon="1.09798">
        <ele>236</ele>
        <time>2015-11-11T13:49:25Z</time>
      </trkpt>
      <trkpt lat="43.6921" lon="1.09787">
        <ele>235.9</ele>
        <time>2015-11-11T13:49:26Z</time>
      </trkpt>
      <trkpt lat="43.69208" lon="1.09775">
        <ele>235.8</ele>
        <time>2015-11-11T13:49:27Z</time>
      </trkpt>
      <trkpt lat="43.69206" lon="1.09762">
        <ele>235.8</ele>
        <time>2015-11-11T13:49:28Z</time>
      </trkpt>
      <trkpt lat="43.69205" lon="1.09751">
        <ele>235.7</ele>
        <time>2015-11-11T13:49:29Z</time>
      </trkpt>
      <trkpt lat="43.69203" lon="1.09738">
        <ele>235.7</ele>
        <time>2015-11-11T13:49:30Z</time>
      </trkpt>
      <trkpt lat="43.69204" lon="1.0973">
        <ele>235.5</ele>
        <time>2015-11-11T13:49:31Z</time>
      </trkpt>
      <trkpt lat="43.69203" lon="1.09718">
        <ele>235.4</ele>
        <time>2015-11-11T13:49:32Z</time>
      </trkpt>
      <trkpt lat="43.69202" lon="1.09706">
        <ele>235.3</ele>
        <time>2015-11-11T13:49:33Z</time>
      </trkpt>
      <trkpt lat="43.69201" lon="1.09694">
        <ele>235.1</ele>
        <time>2015-11-11T13:49:34Z</time>
      </trkpt>
      <trkpt lat="43.692" lon="1.09682">
        <ele>234.9</ele>
        <time>2015-11-11T13:49:35Z</time>
      </trkpt>
      <trkpt lat="43.69197" lon="1.0967">
        <ele>234.8</ele>
        <time>2015-11-11T13:49:36Z</time>
      </trkpt>
      <trkpt lat="43.69196" lon="1.09658">
        <ele>234.6</ele>
        <time>2015-11-11T13:49:37Z</time>
      </trkpt>
      <trkpt lat="43.69196" lon="1.09646">
        <ele>234.4</ele>
        <time>2015-11-11T13:49:38Z</time>
      </trkpt>
      <trkpt lat="43.69194" lon="1.09634">
        <ele>234.2</ele>
        <time>2015-11-11T13:49:39Z</time>
      </trkpt>
      <trkpt lat="43.69192" lon="1.09623">
        <ele>234.2</ele>
        <time>2015-11-11T13:49:40Z</time>
      </trkpt>
      <trkpt lat="43.6919" lon="1.0961">
        <ele>234.3</ele>
        <time>2015-11-11T13:49:41Z</time>
      </trkpt>
      <trkpt lat="43.6919" lon="1.09599">
        <ele>234.4</ele>
        <time>2015-11-11T13:49:42Z</time>
      </trkpt>
      <trkpt lat="43.69189" lon="1.09587">
        <ele>234.5</ele>
        <time>2015-11-11T13:49:43Z</time>
      </trkpt>
      <trkpt lat="43.69187" lon="1.09576">
        <ele>234.7</ele>
        <time>2015-11-11T13:49:44Z</time>
      </trkpt>
      <trkpt lat="43.69185" lon="1.09564">
        <ele>234.9</ele>
        <time>2015-11-11T13:49:45Z</time>
      </trkpt>
      <trkpt lat="43.69184" lon="1.09547">
        <ele>235</ele>
        <time>2015-11-11T13:49:46Z</time>
      </trkpt>
      <trkpt lat="43.69183" lon="1.0954">
        <ele>235.1</ele>
        <time>2015-11-11T13:49:47Z</time>
      </trkpt>
      <trkpt lat="43.69181" lon="1.0953">
        <ele>235.3</ele>
        <time>2015-11-11T13:49:48Z</time>
      </trkpt>
      <trkpt lat="43.69178" lon="1.09518">
        <ele>235.4</ele>
        <time>2015-11-11T13:49:49Z</time>
      </trkpt>
      <trkpt lat="43.69178" lon="1.09508">
        <ele>235.4</ele>
        <time>2015-11-11T13:49:50Z</time>
      </trkpt>
      <trkpt lat="43.69175" lon="1.09497">
        <ele>235.6</ele>
        <time>2015-11-11T13:49:51Z</time>
      </trkpt>
      <trkpt lat="43.69174" lon="1.09487">
        <ele>235.7</ele>
        <time>2015-11-11T13:49:52Z</time>
      </trkpt>
      <trkpt lat="43.69173" lon="1.09476">
        <ele>235.6</ele>
        <time>2015-11-11T13:49:53Z</time>
      </trkpt>
      <trkpt lat="43.69172" lon="1.09465">
        <ele>235.6</ele>
        <time>2015-11-11T13:49:54Z</time>
      </trkpt>
      <trkpt lat="43.69169" lon="1.09454">
        <ele>235.7</ele>
        <time>2015-11-11T13:49:55Z</time>
      </trkpt>
      <trkpt lat="43.69169" lon="1.09444">
        <ele>235.6</ele>
        <time>2015-11-11T13:49:56Z</time>
      </trkpt>
      <trkpt lat="43.69168" lon="1.09435">
        <ele>235.6</ele>
        <time>2015-11-11T13:49:57Z</time>
      </trkpt>
      <trkpt lat="43.69169" lon="1.09427">
        <ele>235.4</ele>
        <time>2015-11-11T13:49:58Z</time>
      </trkpt>
      <trkpt lat="43.69168" lon="1.09418">
        <ele>235.5</ele>
        <time>2015-11-11T13:49:59Z</time>
      </trkpt>
      <trkpt lat="43.69166" lon="1.09409">
        <ele>235.5</ele>
        <time>2015-11-11T13:50:00Z</time>
      </trkpt>
      <trkpt lat="43.69165" lon="1.094">
        <ele>235.5</ele>
        <time>2015-11-11T13:50:01Z</time>
      </trkpt>
      <trkpt lat="43.69163" lon="1.0939">
        <ele>235.5</ele>
        <time>2015-11-11T13:50:02Z</time>
      </trkpt>
      <trkpt lat="43.69163" lon="1.09382">
        <ele>235.5</ele>
        <time>2015-11-11T13:50:03Z</time>
      </trkpt>
      <trkpt lat="43.69162" lon="1.09373">
        <ele>235.4</ele>
        <time>2015-11-11T13:50:04Z</time>
      </trkpt>
      <trkpt lat="43.6916" lon="1.09364">
        <ele>235.7</ele>
        <time>2015-11-11T13:50:05Z</time>
      </trkpt>
      <trkpt lat="43.6916" lon="1.09355">
        <ele>235.8</ele>
        <time>2015-11-11T13:50:06Z</time>
      </trkpt>
      <trkpt lat="43.6916" lon="1.09346">
        <ele>235.8</ele>
        <time>2015-11-11T13:50:07Z</time>
      </trkpt>
      <trkpt lat="43.6916" lon="1.09337">
        <ele>235.8</ele>
        <time>2015-11-11T13:50:08Z</time>
      </trkpt>
      <trkpt lat="43.69161" lon="1.09327">
        <ele>235.8</ele>
        <time>2015-11-11T13:50:09Z</time>
      </trkpt>
      <trkpt lat="43.69161" lon="1.09317">
        <ele>235.9</ele>
        <time>2015-11-11T13:50:10Z</time>
      </trkpt>
      <trkpt lat="43.69161" lon="1.09306">
        <ele>235.9</ele>
        <time>2015-11-11T13:50:11Z</time>
      </trkpt>
      <trkpt lat="43.69163" lon="1.09295">
        <ele>235.8</ele>
        <time>2015-11-11T13:50:12Z</time>
      </trkpt>
      <trkpt lat="43.69166" lon="1.09288">
        <ele>235.6</ele>
        <time>2015-11-11T13:50:13Z</time>
      </trkpt>
      <trkpt lat="43.69169" lon="1.09282">
        <ele>235.5</ele>
        <time>2015-11-11T13:50:14Z</time>
      </trkpt>
      <trkpt lat="43.6917" lon="1.09272">
        <ele>235.6</ele>
        <time>2015-11-11T13:50:15Z</time>
      </trkpt>
      <trkpt lat="43.69173" lon="1.09262">
        <ele>235.5</ele>
        <time>2015-11-11T13:50:16Z</time>
      </trkpt>
      <trkpt lat="43.69174" lon="1.09254">
        <ele>235.5</ele>
        <time>2015-11-11T13:50:17Z</time>
      </trkpt>
      <trkpt lat="43.69176" lon="1.09245">
        <ele>235.5</ele>
        <time>2015-11-11T13:50:18Z</time>
      </trkpt>
      <trkpt lat="43.69177" lon="1.09238">
        <ele>235.6</ele>
        <time>2015-11-11T13:50:19Z</time>
      </trkpt>
      <trkpt lat="43.6918" lon="1.09229">
        <ele>235.4</ele>
        <time>2015-11-11T13:50:20Z</time>
      </trkpt>
      <trkpt lat="43.69182" lon="1.09222">
        <ele>235.3</ele>
        <time>2015-11-11T13:50:21Z</time>
      </trkpt>
      <trkpt lat="43.69184" lon="1.09212">
        <ele>235.3</ele>
        <time>2015-11-11T13:50:22Z</time>
      </trkpt>
      <trkpt lat="43.69187" lon="1.09203">
        <ele>235.1</ele>
        <time>2015-11-11T13:50:23Z</time>
      </trkpt>
      <trkpt lat="43.69187" lon="1.09192">
        <ele>235.2</ele>
        <time>2015-11-11T13:50:24Z</time>
      </trkpt>
      <trkpt lat="43.69189" lon="1.09182">
        <ele>235.1</ele>
        <time>2015-11-11T13:50:25Z</time>
      </trkpt>
      <trkpt lat="43.6919" lon="1.09174">
        <ele>235.1</ele>
        <time>2015-11-11T13:50:26Z</time>
      </trkpt>
      <trkpt lat="43.69193" lon="1.09171">
        <ele>234.8</ele>
        <time>2015-11-11T13:50:27Z</time>
      </trkpt>
      <trkpt lat="43.69194" lon="1.09163">
        <ele>234.8</ele>
        <time>2015-11-11T13:50:28Z</time>
      </trkpt>
      <trkpt lat="43.69196" lon="1.09157">
        <ele>234.7</ele>
        <time>2015-11-11T13:50:29Z</time>
      </trkpt>
      <trkpt lat="43.69198" lon="1.09152">
        <ele>234.6</ele>
        <time>2015-11-11T13:50:30Z</time>
      </trkpt>
      <trkpt lat="43.69201" lon="1.09148">
        <ele>234.4</ele>
        <time>2015-11-11T13:50:31Z</time>
      </trkpt>
      <trkpt lat="43.69204" lon="1.09146">
        <ele>234.1</ele>
        <time>2015-11-11T13:50:32Z</time>
      </trkpt>
      <trkpt lat="43.69208" lon="1.09143">
        <ele>233.8</ele>
        <time>2015-11-11T13:50:33Z</time>
      </trkpt>
      <trkpt lat="43.69213" lon="1.09138">
        <ele>233.5</ele>
        <time>2015-11-11T13:50:34Z</time>
      </trkpt>
      <trkpt lat="43.69219" lon="1.09133">
        <ele>233.1</ele>
        <time>2015-11-11T13:50:35Z</time>
      </trkpt>
      <trkpt lat="43.69227" lon="1.09128">
        <ele>232.6</ele>
        <time>2015-11-11T13:50:36Z</time>
      </trkpt>
      <trkpt lat="43.69233" lon="1.09123">
        <ele>232.2</ele>
        <time>2015-11-11T13:50:37Z</time>
      </trkpt>
      <trkpt lat="43.69239" lon="1.09119">
        <ele>231.8</ele>
        <time>2015-11-11T13:50:38Z</time>
      </trkpt>
      <trkpt lat="43.69246" lon="1.09116">
        <ele>231.4</ele>
        <time>2015-11-11T13:50:39Z</time>
      </trkpt>
      <trkpt lat="43.69253" lon="1.09114">
        <ele>230.9</ele>
        <time>2015-11-11T13:50:40Z</time>
      </trkpt>
      <trkpt lat="43.6926" lon="1.09112">
        <ele>230.4</ele>
        <time>2015-11-11T13:50:41Z</time>
      </trkpt>
      <trkpt lat="43.69268" lon="1.0911">
        <ele>230</ele>
        <time>2015-11-11T13:50:42Z</time>
      </trkpt>
      <trkpt lat="43.69275" lon="1.09108">
        <ele>229.6</ele>
        <time>2015-11-11T13:50:43Z</time>
      </trkpt>
      <trkpt lat="43.69282" lon="1.09107">
        <ele>229.1</ele>
        <time>2015-11-11T13:50:44Z</time>
      </trkpt>
      <trkpt lat="43.6929" lon="1.09107">
        <ele>228.5</ele>
        <time>2015-11-11T13:50:45Z</time>
      </trkpt>
      <trkpt lat="43.69298" lon="1.09108">
        <ele>228.4</ele>
        <time>2015-11-11T13:50:46Z</time>
      </trkpt>
      <trkpt lat="43.69306" lon="1.09111">
        <ele>228.3</ele>
        <time>2015-11-11T13:50:47Z</time>
      </trkpt>
      <trkpt lat="43.69313" lon="1.09113">
        <ele>228.3</ele>
        <time>2015-11-11T13:50:48Z</time>
      </trkpt>
      <trkpt lat="43.6932" lon="1.09116">
        <ele>228.2</ele>
        <time>2015-11-11T13:50:49Z</time>
      </trkpt>
      <trkpt lat="43.69326" lon="1.09119">
        <ele>228.1</ele>
        <time>2015-11-11T13:50:50Z</time>
      </trkpt>
      <trkpt lat="43.69332" lon="1.09122">
        <ele>228.1</ele>
        <time>2015-11-11T13:50:51Z</time>
      </trkpt>
      <trkpt lat="43.69338" lon="1.09124">
        <ele>228</ele>
        <time>2015-11-11T13:50:52Z</time>
      </trkpt>
      <trkpt lat="43.69344" lon="1.09128">
        <ele>227.9</ele>
        <time>2015-11-11T13:50:53Z</time>
      </trkpt>
      <trkpt lat="43.69348" lon="1.09131">
        <ele>227.8</ele>
        <time>2015-11-11T13:50:54Z</time>
      </trkpt>
      <trkpt lat="43.69354" lon="1.09134">
        <ele>227.7</ele>
        <time>2015-11-11T13:50:55Z</time>
      </trkpt>
      <trkpt lat="43.69359" lon="1.09136">
        <ele>227.6</ele>
        <time>2015-11-11T13:50:56Z</time>
      </trkpt>
      <trkpt lat="43.69366" lon="1.09139">
        <ele>227.5</ele>
        <time>2015-11-11T13:50:57Z</time>
      </trkpt>
      <trkpt lat="43.69372" lon="1.09141">
        <ele>227.4</ele>
        <time>2015-11-11T13:50:58Z</time>
      </trkpt>
      <trkpt lat="43.69376" lon="1.09143">
        <ele>227.3</ele>
        <time>2015-11-11T13:50:59Z</time>
      </trkpt>
      <trkpt lat="43.6938" lon="1.09145">
        <ele>227.2</ele>
        <time>2015-11-11T13:51:00Z</time>
      </trkpt>
      <trkpt lat="43.69384" lon="1.09149">
        <ele>227.1</ele>
        <time>2015-11-11T13:51:01Z</time>
      </trkpt>
      <trkpt lat="43.69389" lon="1.09151">
        <ele>227</ele>
        <time>2015-11-11T13:51:02Z</time>
      </trkpt>
      <trkpt lat="43.69394" lon="1.09153">
        <ele>226.9</ele>
        <time>2015-11-11T13:51:03Z</time>
      </trkpt>
      <trkpt lat="43.694" lon="1.09154">
        <ele>226.9</ele>
        <time>2015-11-11T13:51:04Z</time>
      </trkpt>
      <trkpt lat="43.69405" lon="1.09155">
        <ele>226.8</ele>
        <time>2015-11-11T13:51:05Z</time>
      </trkpt>
      <trkpt lat="43.6941" lon="1.0916">
        <ele>226.7</ele>
        <time>2015-11-11T13:51:06Z</time>
      </trkpt>
      <trkpt lat="43.69415" lon="1.09162">
        <ele>226.6</ele>
        <time>2015-11-11T13:51:07Z</time>
      </trkpt>
      <trkpt lat="43.6942" lon="1.09165">
        <ele>226.5</ele>
        <time>2015-11-11T13:51:08Z</time>
      </trkpt>
      <trkpt lat="43.69426" lon="1.09168">
        <ele>226.5</ele>
        <time>2015-11-11T13:51:09Z</time>
      </trkpt>
      <trkpt lat="43.69433" lon="1.09171">
        <ele>226.4</ele>
        <time>2015-11-11T13:51:10Z</time>
      </trkpt>
      <trkpt lat="43.69438" lon="1.09172">
        <ele>226.4</ele>
        <time>2015-11-11T13:51:11Z</time>
      </trkpt>
      <trkpt lat="43.69444" lon="1.09173">
        <ele>226.4</ele>
        <time>2015-11-11T13:51:12Z</time>
      </trkpt>
      <trkpt lat="43.69451" lon="1.09172">
        <ele>226.4</ele>
        <time>2015-11-11T13:51:13Z</time>
      </trkpt>
      <trkpt lat="43.69457" lon="1.0917">
        <ele>226.5</ele>
        <time>2015-11-11T13:51:14Z</time>
      </trkpt>
      <trkpt lat="43.69463" lon="1.09165">
        <ele>226.4</ele>
        <time>2015-11-11T13:51:15Z</time>
      </trkpt>
      <trkpt lat="43.6947" lon="1.09159">
        <ele>226.4</ele>
        <time>2015-11-11T13:51:16Z</time>
      </trkpt>
      <trkpt lat="43.69474" lon="1.09153">
        <ele>226.3</ele>
        <time>2015-11-11T13:51:17Z</time>
      </trkpt>
      <trkpt lat="43.69479" lon="1.09145">
        <ele>226.2</ele>
        <time>2015-11-11T13:51:18Z</time>
      </trkpt>
      <trkpt lat="43.69484" lon="1.09138">
        <ele>226.1</ele>
        <time>2015-11-11T13:51:19Z</time>
      </trkpt>
      <trkpt lat="43.69489" lon="1.09132">
        <ele>225.9</ele>
        <time>2015-11-11T13:51:20Z</time>
      </trkpt>
      <trkpt lat="43.69494" lon="1.09125">
        <ele>225.7</ele>
        <time>2015-11-11T13:51:21Z</time>
      </trkpt>
      <trkpt lat="43.695" lon="1.0912">
        <ele>225.5</ele>
        <time>2015-11-11T13:51:22Z</time>
      </trkpt>
      <trkpt lat="43.69505" lon="1.09112">
        <ele>225.3</ele>
        <time>2015-11-11T13:51:23Z</time>
      </trkpt>
      <trkpt lat="43.6951" lon="1.09105">
        <ele>225.1</ele>
        <time>2015-11-11T13:51:24Z</time>
      </trkpt>
      <trkpt lat="43.69515" lon="1.09097">
        <ele>224.9</ele>
        <time>2015-11-11T13:51:25Z</time>
      </trkpt>
      <trkpt lat="43.6952" lon="1.0909">
        <ele>224.6</ele>
        <time>2015-11-11T13:51:26Z</time>
      </trkpt>
      <trkpt lat="43.69525" lon="1.09082">
        <ele>224.3</ele>
        <time>2015-11-11T13:51:27Z</time>
      </trkpt>
      <trkpt lat="43.6953" lon="1.09074">
        <ele>224</ele>
        <time>2015-11-11T13:51:28Z</time>
      </trkpt>
      <trkpt lat="43.69536" lon="1.09066">
        <ele>223.6</ele>
        <time>2015-11-11T13:51:29Z</time>
      </trkpt>
      <trkpt lat="43.69541" lon="1.09059">
        <ele>223.2</ele>
        <time>2015-11-11T13:51:30Z</time>
      </trkpt>
      <trkpt lat="43.69545" lon="1.09051">
        <ele>223</ele>
        <time>2015-11-11T13:51:31Z</time>
      </trkpt>
      <trkpt lat="43.69551" lon="1.09044">
        <ele>222.7</ele>
        <time>2015-11-11T13:51:32Z</time>
      </trkpt>
      <trkpt lat="43.69557" lon="1.09035">
        <ele>222.4</ele>
        <time>2015-11-11T13:51:33Z</time>
      </trkpt>
      <trkpt lat="43.69564" lon="1.09025">
        <ele>222.2</ele>
        <time>2015-11-11T13:51:34Z</time>
      </trkpt>
      <trkpt lat="43.69571" lon="1.09016">
        <ele>221.8</ele>
        <time>2015-11-11T13:51:35Z</time>
      </trkpt>
      <trkpt lat="43.69577" lon="1.0901">
        <ele>221.6</ele>
        <time>2015-11-11T13:51:36Z</time>
      </trkpt>
      <trkpt lat="43.69584" lon="1.09">
        <ele>221.2</ele>
        <time>2015-11-11T13:51:37Z</time>
      </trkpt>
      <trkpt lat="43.6959" lon="1.08992">
        <ele>220.9</ele>
        <time>2015-11-11T13:51:38Z</time>
      </trkpt>
      <trkpt lat="43.69596" lon="1.08984">
        <ele>220.6</ele>
        <time>2015-11-11T13:51:39Z</time>
      </trkpt>
      <trkpt lat="43.69604" lon="1.08981">
        <ele>220.2</ele>
        <time>2015-11-11T13:51:40Z</time>
      </trkpt>
      <trkpt lat="43.69612" lon="1.08977">
        <ele>219.8</ele>
        <time>2015-11-11T13:51:41Z</time>
      </trkpt>
      <trkpt lat="43.69618" lon="1.08975">
        <ele>219.5</ele>
        <time>2015-11-11T13:51:42Z</time>
      </trkpt>
      <trkpt lat="43.69627" lon="1.08973">
        <ele>219.1</ele>
        <time>2015-11-11T13:51:43Z</time>
      </trkpt>
      <trkpt lat="43.69636" lon="1.08971">
        <ele>218.6</ele>
        <time>2015-11-11T13:51:44Z</time>
      </trkpt>
      <trkpt lat="43.69644" lon="1.0897">
        <ele>218.3</ele>
        <time>2015-11-11T13:51:45Z</time>
      </trkpt>
      <trkpt lat="43.69651" lon="1.08968">
        <ele>217.9</ele>
        <time>2015-11-11T13:51:46Z</time>
      </trkpt>
      <trkpt lat="43.69661" lon="1.08966">
        <ele>217.4</ele>
        <time>2015-11-11T13:51:47Z</time>
      </trkpt>
      <trkpt lat="43.69668" lon="1.08964">
        <ele>217</ele>
        <time>2015-11-11T13:51:48Z</time>
      </trkpt>
      <trkpt lat="43.69677" lon="1.08961">
        <ele>216.5</ele>
        <time>2015-11-11T13:51:49Z</time>
      </trkpt>
      <trkpt lat="43.69686" lon="1.08959">
        <ele>216.1</ele>
        <time>2015-11-11T13:51:50Z</time>
      </trkpt>
      <trkpt lat="43.69696" lon="1.08957">
        <ele>215.6</ele>
        <time>2015-11-11T13:51:51Z</time>
      </trkpt>
      <trkpt lat="43.69704" lon="1.08953">
        <ele>215</ele>
        <time>2015-11-11T13:51:52Z</time>
      </trkpt>
      <trkpt lat="43.69717" lon="1.08948">
        <ele>214.4</ele>
        <time>2015-11-11T13:51:53Z</time>
      </trkpt>
      <trkpt lat="43.69725" lon="1.08946">
        <ele>214.1</ele>
        <time>2015-11-11T13:51:54Z</time>
      </trkpt>
      <trkpt lat="43.69732" lon="1.08941">
        <ele>213.8</ele>
        <time>2015-11-11T13:51:55Z</time>
      </trkpt>
      <trkpt lat="43.69739" lon="1.08934">
        <ele>213.4</ele>
        <time>2015-11-11T13:51:56Z</time>
      </trkpt>
      <trkpt lat="43.69745" lon="1.08925">
        <ele>212.9</ele>
        <time>2015-11-11T13:51:57Z</time>
      </trkpt>
      <trkpt lat="43.69752" lon="1.08919">
        <ele>212.5</ele>
        <time>2015-11-11T13:51:58Z</time>
      </trkpt>
      <trkpt lat="43.6976" lon="1.08911">
        <ele>212.1</ele>
        <time>2015-11-11T13:51:59Z</time>
      </trkpt>
      <trkpt lat="43.69768" lon="1.08904">
        <ele>211.6</ele>
        <time>2015-11-11T13:52:00Z</time>
      </trkpt>
      <trkpt lat="43.69776" lon="1.08896">
        <ele>211.1</ele>
        <time>2015-11-11T13:52:01Z</time>
      </trkpt>
      <trkpt lat="43.69783" lon="1.08887">
        <ele>210.6</ele>
        <time>2015-11-11T13:52:02Z</time>
      </trkpt>
      <trkpt lat="43.6979" lon="1.08882">
        <ele>210.3</ele>
        <time>2015-11-11T13:52:03Z</time>
      </trkpt>
      <trkpt lat="43.69797" lon="1.08873">
        <ele>209.9</ele>
        <time>2015-11-11T13:52:04Z</time>
      </trkpt>
      <trkpt lat="43.69805" lon="1.08866">
        <ele>209.5</ele>
        <time>2015-11-11T13:52:05Z</time>
      </trkpt>
      <trkpt lat="43.69813" lon="1.08859">
        <ele>209.2</ele>
        <time>2015-11-11T13:52:06Z</time>
      </trkpt>
      <trkpt lat="43.6982" lon="1.08852">
        <ele>208.9</ele>
        <time>2015-11-11T13:52:07Z</time>
      </trkpt>
      <trkpt lat="43.69828" lon="1.08844">
        <ele>208.4</ele>
        <time>2015-11-11T13:52:08Z</time>
      </trkpt>
      <trkpt lat="43.69835" lon="1.08836">
        <ele>208</ele>
        <time>2015-11-11T13:52:09Z</time>
      </trkpt>
      <trkpt lat="43.69843" lon="1.08829">
        <ele>207.6</ele>
        <time>2015-11-11T13:52:10Z</time>
      </trkpt>
      <trkpt lat="43.6985" lon="1.08822">
        <ele>207.1</ele>
        <time>2015-11-11T13:52:11Z</time>
      </trkpt>
      <trkpt lat="43.69857" lon="1.08814">
        <ele>206.5</ele>
        <time>2015-11-11T13:52:12Z</time>
      </trkpt>
      <trkpt lat="43.69865" lon="1.08809">
        <ele>206.1</ele>
        <time>2015-11-11T13:52:13Z</time>
      </trkpt>
      <trkpt lat="43.69873" lon="1.08803">
        <ele>205.5</ele>
        <time>2015-11-11T13:52:14Z</time>
      </trkpt>
      <trkpt lat="43.69882" lon="1.08797">
        <ele>205.2</ele>
        <time>2015-11-11T13:52:15Z</time>
      </trkpt>
      <trkpt lat="43.69889" lon="1.0879">
        <ele>205.2</ele>
        <time>2015-11-11T13:52:16Z</time>
      </trkpt>
      <trkpt lat="43.69896" lon="1.08783">
        <ele>205.5</ele>
        <time>2015-11-11T13:52:17Z</time>
      </trkpt>
      <trkpt lat="43.69903" lon="1.08777">
        <ele>205.7</ele>
        <time>2015-11-11T13:52:18Z</time>
      </trkpt>
      <trkpt lat="43.6991" lon="1.0877">
        <ele>205.9</ele>
        <time>2015-11-11T13:52:19Z</time>
      </trkpt>
      <trkpt lat="43.69918" lon="1.08764">
        <ele>206</ele>
        <time>2015-11-11T13:52:20Z</time>
      </trkpt>
      <trkpt lat="43.69925" lon="1.08757">
        <ele>206.1</ele>
        <time>2015-11-11T13:52:21Z</time>
      </trkpt>
      <trkpt lat="43.69931" lon="1.0875">
        <ele>206.2</ele>
        <time>2015-11-11T13:52:22Z</time>
      </trkpt>
      <trkpt lat="43.69938" lon="1.08742">
        <ele>206.2</ele>
        <time>2015-11-11T13:52:23Z</time>
      </trkpt>
      <trkpt lat="43.69944" lon="1.08733">
        <ele>206.2</ele>
        <time>2015-11-11T13:52:24Z</time>
      </trkpt>
      <trkpt lat="43.6995" lon="1.08725">
        <ele>206.1</ele>
        <time>2015-11-11T13:52:25Z</time>
      </trkpt>
      <trkpt lat="43.69957" lon="1.08717">
        <ele>206</ele>
        <time>2015-11-11T13:52:26Z</time>
      </trkpt>
      <trkpt lat="43.69963" lon="1.08711">
        <ele>206.1</ele>
        <time>2015-11-11T13:52:27Z</time>
      </trkpt>
      <trkpt lat="43.6997" lon="1.08705">
        <ele>206.2</ele>
        <time>2015-11-11T13:52:28Z</time>
      </trkpt>
      <trkpt lat="43.69977" lon="1.08703">
        <ele>206.3</ele>
        <time>2015-11-11T13:52:29Z</time>
      </trkpt>
      <trkpt lat="43.69984" lon="1.08701">
        <ele>206.3</ele>
        <time>2015-11-11T13:52:30Z</time>
      </trkpt>
      <trkpt lat="43.69992" lon="1.08701">
        <ele>206.4</ele>
        <time>2015-11-11T13:52:31Z</time>
      </trkpt>
      <trkpt lat="43.69999" lon="1.08697">
        <ele>206.5</ele>
        <time>2015-11-11T13:52:32Z</time>
      </trkpt>
      <trkpt lat="43.70005" lon="1.08695">
        <ele>206.5</ele>
        <time>2015-11-11T13:52:33Z</time>
      </trkpt>
      <trkpt lat="43.70012" lon="1.08693">
        <ele>206.6</ele>
        <time>2015-11-11T13:52:34Z</time>
      </trkpt>
      <trkpt lat="43.70018" lon="1.08692">
        <ele>206.6</ele>
        <time>2015-11-11T13:52:35Z</time>
      </trkpt>
      <trkpt lat="43.70023" lon="1.0869">
        <ele>206.6</ele>
        <time>2015-11-11T13:52:36Z</time>
      </trkpt>
      <trkpt lat="43.70029" lon="1.08689">
        <ele>206.7</ele>
        <time>2015-11-11T13:52:37Z</time>
      </trkpt>
      <trkpt lat="43.70034" lon="1.08687">
        <ele>206.7</ele>
        <time>2015-11-11T13:52:38Z</time>
      </trkpt>
      <trkpt lat="43.7004" lon="1.08686">
        <ele>206.7</ele>
        <time>2015-11-11T13:52:39Z</time>
      </trkpt>
      <trkpt lat="43.70045" lon="1.08685">
        <ele>206.9</ele>
        <time>2015-11-11T13:52:40Z</time>
      </trkpt>
      <trkpt lat="43.70051" lon="1.08684">
        <ele>207.2</ele>
        <time>2015-11-11T13:52:41Z</time>
      </trkpt>
      <trkpt lat="43.70057" lon="1.08683">
        <ele>207.5</ele>
        <time>2015-11-11T13:52:42Z</time>
      </trkpt>
      <trkpt lat="43.70062" lon="1.08682">
        <ele>207.8</ele>
        <time>2015-11-11T13:52:43Z</time>
      </trkpt>
      <trkpt lat="43.70066" lon="1.08679">
        <ele>207.9</ele>
        <time>2015-11-11T13:52:44Z</time>
      </trkpt>
      <trkpt lat="43.7007" lon="1.08677">
        <ele>208.1</ele>
        <time>2015-11-11T13:52:45Z</time>
      </trkpt>
      <trkpt lat="43.70075" lon="1.08677">
        <ele>208.3</ele>
        <time>2015-11-11T13:52:46Z</time>
      </trkpt>
      <trkpt lat="43.7008" lon="1.08675">
        <ele>208.5</ele>
        <time>2015-11-11T13:52:47Z</time>
      </trkpt>
      <trkpt lat="43.70086" lon="1.08673">
        <ele>208.8</ele>
        <time>2015-11-11T13:52:48Z</time>
      </trkpt>
      <trkpt lat="43.7009" lon="1.08673">
        <ele>209</ele>
        <time>2015-11-11T13:52:49Z</time>
      </trkpt>
      <trkpt lat="43.70097" lon="1.08672">
        <ele>209.3</ele>
        <time>2015-11-11T13:52:50Z</time>
      </trkpt>
      <trkpt lat="43.70102" lon="1.08671">
        <ele>209.5</ele>
        <time>2015-11-11T13:52:51Z</time>
      </trkpt>
      <trkpt lat="43.70107" lon="1.08667">
        <ele>209.6</ele>
        <time>2015-11-11T13:52:52Z</time>
      </trkpt>
      <trkpt lat="43.70113" lon="1.08663">
        <ele>209.8</ele>
        <time>2015-11-11T13:52:53Z</time>
      </trkpt>
      <trkpt lat="43.70119" lon="1.08661">
        <ele>210</ele>
        <time>2015-11-11T13:52:54Z</time>
      </trkpt>
      <trkpt lat="43.70124" lon="1.08658">
        <ele>210.1</ele>
        <time>2015-11-11T13:52:55Z</time>
      </trkpt>
      <trkpt lat="43.7013" lon="1.08656">
        <ele>210.3</ele>
        <time>2015-11-11T13:52:56Z</time>
      </trkpt>
      <trkpt lat="43.70135" lon="1.08654">
        <ele>210.5</ele>
        <time>2015-11-11T13:52:57Z</time>
      </trkpt>
      <trkpt lat="43.7014" lon="1.08654">
        <ele>210.6</ele>
        <time>2015-11-11T13:52:58Z</time>
      </trkpt>
      <trkpt lat="43.70144" lon="1.08654">
        <ele>210.8</ele>
        <time>2015-11-11T13:52:59Z</time>
      </trkpt>
      <trkpt lat="43.70149" lon="1.08652">
        <ele>210.9</ele>
        <time>2015-11-11T13:53:00Z</time>
      </trkpt>
      <trkpt lat="43.70154" lon="1.08651">
        <ele>211.1</ele>
        <time>2015-11-11T13:53:01Z</time>
      </trkpt>
      <trkpt lat="43.70159" lon="1.08651">
        <ele>211.3</ele>
        <time>2015-11-11T13:53:02Z</time>
      </trkpt>
      <trkpt lat="43.70162" lon="1.0865">
        <ele>211.4</ele>
        <time>2015-11-11T13:53:03Z</time>
      </trkpt>
      <trkpt lat="43.70166" lon="1.08647">
        <ele>211.5</ele>
        <time>2015-11-11T13:53:04Z</time>
      </trkpt>
      <trkpt lat="43.70171" lon="1.08645">
        <ele>211.7</ele>
        <time>2015-11-11T13:53:05Z</time>
      </trkpt>
      <trkpt lat="43.70175" lon="1.08646">
        <ele>211.9</ele>
        <time>2015-11-11T13:53:06Z</time>
      </trkpt>
      <trkpt lat="43.7018" lon="1.08645">
        <ele>212</ele>
        <time>2015-11-11T13:53:07Z</time>
      </trkpt>
      <trkpt lat="43.70186" lon="1.08643">
        <ele>212.3</ele>
        <time>2015-11-11T13:53:08Z</time>
      </trkpt>
      <trkpt lat="43.70193" lon="1.08642">
        <ele>212.6</ele>
        <time>2015-11-11T13:53:09Z</time>
      </trkpt>
      <trkpt lat="43.70199" lon="1.0864">
        <ele>212.8</ele>
        <time>2015-11-11T13:53:10Z</time>
      </trkpt>
      <trkpt lat="43.70204" lon="1.08639">
        <ele>213</ele>
        <time>2015-11-11T13:53:11Z</time>
      </trkpt>
      <trkpt lat="43.70208" lon="1.08637">
        <ele>213.1</ele>
        <time>2015-11-11T13:53:12Z</time>
      </trkpt>
      <trkpt lat="43.70214" lon="1.08636">
        <ele>213.3</ele>
        <time>2015-11-11T13:53:14Z</time>
      </trkpt>
      <trkpt lat="43.70218" lon="1.08635">
        <ele>213.5</ele>
        <time>2015-11-11T13:53:15Z</time>
      </trkpt>
      <trkpt lat="43.70221" lon="1.08632">
        <ele>213.5</ele>
        <time>2015-11-11T13:53:16Z</time>
      </trkpt>
      <trkpt lat="43.70225" lon="1.08631">
        <ele>213.7</ele>
        <time>2015-11-11T13:53:17Z</time>
      </trkpt>
      <trkpt lat="43.70229" lon="1.0863">
        <ele>213.8</ele>
        <time>2015-11-11T13:53:18Z</time>
      </trkpt>
      <trkpt lat="43.70234" lon="1.08629">
        <ele>214</ele>
        <time>2015-11-11T13:53:19Z</time>
      </trkpt>
      <trkpt lat="43.70239" lon="1.08628">
        <ele>214.1</ele>
        <time>2015-11-11T13:53:20Z</time>
      </trkpt>
      <trkpt lat="43.70244" lon="1.08628">
        <ele>214.3</ele>
        <time>2015-11-11T13:53:21Z</time>
      </trkpt>
      <trkpt lat="43.70248" lon="1.08627">
        <ele>214.5</ele>
        <time>2015-11-11T13:53:22Z</time>
      </trkpt>
      <trkpt lat="43.70254" lon="1.08625">
        <ele>214.6</ele>
        <time>2015-11-11T13:53:23Z</time>
      </trkpt>
      <trkpt lat="43.70258" lon="1.08624">
        <ele>214.8</ele>
        <time>2015-11-11T13:53:24Z</time>
      </trkpt>
      <trkpt lat="43.70263" lon="1.08623">
        <ele>214.9</ele>
        <time>2015-11-11T13:53:25Z</time>
      </trkpt>
      <trkpt lat="43.70267" lon="1.08619">
        <ele>215</ele>
        <time>2015-11-11T13:53:26Z</time>
      </trkpt>
      <trkpt lat="43.70272" lon="1.08617">
        <ele>215.2</ele>
        <time>2015-11-11T13:53:27Z</time>
      </trkpt>
      <trkpt lat="43.70277" lon="1.08616">
        <ele>215.3</ele>
        <time>2015-11-11T13:53:28Z</time>
      </trkpt>
      <trkpt lat="43.70281" lon="1.08615">
        <ele>215.5</ele>
        <time>2015-11-11T13:53:29Z</time>
      </trkpt>
      <trkpt lat="43.70286" lon="1.08616">
        <ele>215.7</ele>
        <time>2015-11-11T13:53:30Z</time>
      </trkpt>
      <trkpt lat="43.7029" lon="1.08616">
        <ele>215.8</ele>
        <time>2015-11-11T13:53:31Z</time>
      </trkpt>
      <trkpt lat="43.70295" lon="1.08615">
        <ele>216.1</ele>
        <time>2015-11-11T13:53:32Z</time>
      </trkpt>
      <trkpt lat="43.703" lon="1.08613">
        <ele>216.4</ele>
        <time>2015-11-11T13:53:33Z</time>
      </trkpt>
      <trkpt lat="43.70303" lon="1.08613">
        <ele>216.6</ele>
        <time>2015-11-11T13:53:34Z</time>
      </trkpt>
      <trkpt lat="43.70307" lon="1.08612">
        <ele>216.8</ele>
        <time>2015-11-11T13:53:35Z</time>
      </trkpt>
      <trkpt lat="43.70312" lon="1.08611">
        <ele>217.1</ele>
        <time>2015-11-11T13:53:36Z</time>
      </trkpt>
      <trkpt lat="43.70316" lon="1.0861">
        <ele>217.3</ele>
        <time>2015-11-11T13:53:37Z</time>
      </trkpt>
      <trkpt lat="43.7032" lon="1.08609">
        <ele>217.6</ele>
        <time>2015-11-11T13:53:38Z</time>
      </trkpt>
      <trkpt lat="43.70325" lon="1.08608">
        <ele>217.9</ele>
        <time>2015-11-11T13:53:39Z</time>
      </trkpt>
      <trkpt lat="43.7033" lon="1.08606">
        <ele>218.2</ele>
        <time>2015-11-11T13:53:40Z</time>
      </trkpt>
      <trkpt lat="43.70336" lon="1.08604">
        <ele>218.5</ele>
        <time>2015-11-11T13:53:41Z</time>
      </trkpt>
      <trkpt lat="43.70339" lon="1.08603">
        <ele>218.8</ele>
        <time>2015-11-11T13:53:42Z</time>
      </trkpt>
      <trkpt lat="43.70344" lon="1.08601">
        <ele>219</ele>
        <time>2015-11-11T13:53:43Z</time>
      </trkpt>
      <trkpt lat="43.70348" lon="1.08599">
        <ele>219.3</ele>
        <time>2015-11-11T13:53:44Z</time>
      </trkpt>
      <trkpt lat="43.70351" lon="1.08599">
        <ele>219.5</ele>
        <time>2015-11-11T13:53:45Z</time>
      </trkpt>
      <trkpt lat="43.70355" lon="1.08598">
        <ele>219.7</ele>
        <time>2015-11-11T13:53:46Z</time>
      </trkpt>
      <trkpt lat="43.70358" lon="1.08597">
        <ele>219.9</ele>
        <time>2015-11-11T13:53:47Z</time>
      </trkpt>
      <trkpt lat="43.70362" lon="1.08596">
        <ele>220.2</ele>
        <time>2015-11-11T13:53:48Z</time>
      </trkpt>
      <trkpt lat="43.70365" lon="1.08595">
        <ele>220.4</ele>
        <time>2015-11-11T13:53:49Z</time>
      </trkpt>
      <trkpt lat="43.70369" lon="1.08594">
        <ele>220.6</ele>
        <time>2015-11-11T13:53:50Z</time>
      </trkpt>
      <trkpt lat="43.70372" lon="1.08592">
        <ele>220.8</ele>
        <time>2015-11-11T13:53:51Z</time>
      </trkpt>
      <trkpt lat="43.70375" lon="1.08591">
        <ele>221</ele>
        <time>2015-11-11T13:53:52Z</time>
      </trkpt>
      <trkpt lat="43.70378" lon="1.08589">
        <ele>221.3</ele>
        <time>2015-11-11T13:53:53Z</time>
      </trkpt>
      <trkpt lat="43.70381" lon="1.08588">
        <ele>221.5</ele>
        <time>2015-11-11T13:53:54Z</time>
      </trkpt>
      <trkpt lat="43.70384" lon="1.08588">
        <ele>221.8</ele>
        <time>2015-11-11T13:53:55Z</time>
      </trkpt>
      <trkpt lat="43.70387" lon="1.08587">
        <ele>222.1</ele>
        <time>2015-11-11T13:53:56Z</time>
      </trkpt>
      <trkpt lat="43.7039" lon="1.08587">
        <ele>222.4</ele>
        <time>2015-11-11T13:53:57Z</time>
      </trkpt>
      <trkpt lat="43.70393" lon="1.08587">
        <ele>222.6</ele>
        <time>2015-11-11T13:53:58Z</time>
      </trkpt>
      <trkpt lat="43.70397" lon="1.08587">
        <ele>222.9</ele>
        <time>2015-11-11T13:53:59Z</time>
      </trkpt>
      <trkpt lat="43.70399" lon="1.08587">
        <ele>223.2</ele>
        <time>2015-11-11T13:54:00Z</time>
      </trkpt>
      <trkpt lat="43.70402" lon="1.08586">
        <ele>223.5</ele>
        <time>2015-11-11T13:54:01Z</time>
      </trkpt>
      <trkpt lat="43.70406" lon="1.08585">
        <ele>223.8</ele>
        <time>2015-11-11T13:54:02Z</time>
      </trkpt>
      <trkpt lat="43.70409" lon="1.08584">
        <ele>224</ele>
        <time>2015-11-11T13:54:03Z</time>
      </trkpt>
      <trkpt lat="43.70414" lon="1.08583">
        <ele>224.5</ele>
        <time>2015-11-11T13:54:05Z</time>
      </trkpt>
      <trkpt lat="43.70419" lon="1.08581">
        <ele>224.9</ele>
        <time>2015-11-11T13:54:07Z</time>
      </trkpt>
      <trkpt lat="43.70422" lon="1.0858">
        <ele>225.2</ele>
        <time>2015-11-11T13:54:08Z</time>
      </trkpt>
      <trkpt lat="43.70426" lon="1.08579">
        <ele>225.5</ele>
        <time>2015-11-11T13:54:09Z</time>
      </trkpt>
      <trkpt lat="43.7043" lon="1.08578">
        <ele>225.9</ele>
        <time>2015-11-11T13:54:10Z</time>
      </trkpt>
      <trkpt lat="43.70433" lon="1.08576">
        <ele>226.1</ele>
        <time>2015-11-11T13:54:11Z</time>
      </trkpt>
      <trkpt lat="43.70436" lon="1.08575">
        <ele>226.4</ele>
        <time>2015-11-11T13:54:12Z</time>
      </trkpt>
      <trkpt lat="43.70439" lon="1.08574">
        <ele>226.6</ele>
        <time>2015-11-11T13:54:13Z</time>
      </trkpt>
      <trkpt lat="43.70442" lon="1.08573">
        <ele>226.9</ele>
        <time>2015-11-11T13:54:14Z</time>
      </trkpt>
      <trkpt lat="43.70445" lon="1.08572">
        <ele>227.2</ele>
        <time>2015-11-11T13:54:15Z</time>
      </trkpt>
      <trkpt lat="43.70448" lon="1.08572">
        <ele>227.5</ele>
        <time>2015-11-11T13:54:16Z</time>
      </trkpt>
      <trkpt lat="43.70452" lon="1.08572">
        <ele>227.8</ele>
        <time>2015-11-11T13:54:17Z</time>
      </trkpt>
      <trkpt lat="43.70455" lon="1.08572">
        <ele>228.1</ele>
        <time>2015-11-11T13:54:18Z</time>
      </trkpt>
      <trkpt lat="43.70459" lon="1.08572">
        <ele>228.4</ele>
        <time>2015-11-11T13:54:19Z</time>
      </trkpt>
      <trkpt lat="43.70462" lon="1.08571">
        <ele>228.7</ele>
        <time>2015-11-11T13:54:20Z</time>
      </trkpt>
      <trkpt lat="43.70466" lon="1.08571">
        <ele>229</ele>
        <time>2015-11-11T13:54:21Z</time>
      </trkpt>
      <trkpt lat="43.70469" lon="1.0857">
        <ele>229.3</ele>
        <time>2015-11-11T13:54:22Z</time>
      </trkpt>
      <trkpt lat="43.70472" lon="1.0857">
        <ele>229.5</ele>
        <time>2015-11-11T13:54:23Z</time>
      </trkpt>
      <trkpt lat="43.70477" lon="1.0857">
        <ele>230</ele>
        <time>2015-11-11T13:54:25Z</time>
      </trkpt>
      <trkpt lat="43.70482" lon="1.0857">
        <ele>230.4</ele>
        <time>2015-11-11T13:54:27Z</time>
      </trkpt>
      <trkpt lat="43.70487" lon="1.0857">
        <ele>230.9</ele>
        <time>2015-11-11T13:54:29Z</time>
      </trkpt>
      <trkpt lat="43.7049" lon="1.0857">
        <ele>231.2</ele>
        <time>2015-11-11T13:54:30Z</time>
      </trkpt>
      <trkpt lat="43.70493" lon="1.0857">
        <ele>231.4</ele>
        <time>2015-11-11T13:54:31Z</time>
      </trkpt>
      <trkpt lat="43.70499" lon="1.0857">
        <ele>231.9</ele>
        <time>2015-11-11T13:54:33Z</time>
      </trkpt>
      <trkpt lat="43.70502" lon="1.08569">
        <ele>232.2</ele>
        <time>2015-11-11T13:54:34Z</time>
      </trkpt>
      <trkpt lat="43.70506" lon="1.08569">
        <ele>232.5</ele>
        <time>2015-11-11T13:54:35Z</time>
      </trkpt>
      <trkpt lat="43.70509" lon="1.08569">
        <ele>232.8</ele>
        <time>2015-11-11T13:54:36Z</time>
      </trkpt>
      <trkpt lat="43.70513" lon="1.08568">
        <ele>233.1</ele>
        <time>2015-11-11T13:54:37Z</time>
      </trkpt>
      <trkpt lat="43.70516" lon="1.08568">
        <ele>233.4</ele>
        <time>2015-11-11T13:54:38Z</time>
      </trkpt>
      <trkpt lat="43.70519" lon="1.08568">
        <ele>233.7</ele>
        <time>2015-11-11T13:54:39Z</time>
      </trkpt>
      <trkpt lat="43.70522" lon="1.08568">
        <ele>233.9</ele>
        <time>2015-11-11T13:54:40Z</time>
      </trkpt>
      <trkpt lat="43.70525" lon="1.08568">
        <ele>234.2</ele>
        <time>2015-11-11T13:54:41Z</time>
      </trkpt>
      <trkpt lat="43.70528" lon="1.08568">
        <ele>234.4</ele>
        <time>2015-11-11T13:54:42Z</time>
      </trkpt>
      <trkpt lat="43.70531" lon="1.08568">
        <ele>234.7</ele>
        <time>2015-11-11T13:54:43Z</time>
      </trkpt>
      <trkpt lat="43.70533" lon="1.08568">
        <ele>235</ele>
        <time>2015-11-11T13:54:44Z</time>
      </trkpt>
      <trkpt lat="43.70537" lon="1.08567">
        <ele>235.2</ele>
        <time>2015-11-11T13:54:45Z</time>
      </trkpt>
      <trkpt lat="43.70539" lon="1.08567">
        <ele>235.5</ele>
        <time>2015-11-11T13:54:46Z</time>
      </trkpt>
      <trkpt lat="43.70545" lon="1.08566">
        <ele>236.1</ele>
        <time>2015-11-11T13:54:48Z</time>
      </trkpt>
      <trkpt lat="43.70547" lon="1.08566">
        <ele>236.4</ele>
        <time>2015-11-11T13:54:49Z</time>
      </trkpt>
      <trkpt lat="43.70551" lon="1.08565">
        <ele>236.8</ele>
        <time>2015-11-11T13:54:50Z</time>
      </trkpt>
      <trkpt lat="43.70554" lon="1.08563">
        <ele>237.3</ele>
        <time>2015-11-11T13:54:51Z</time>
      </trkpt>
      <trkpt lat="43.70558" lon="1.08562">
        <ele>237.7</ele>
        <time>2015-11-11T13:54:52Z</time>
      </trkpt>
      <trkpt lat="43.70561" lon="1.08561">
        <ele>238.2</ele>
        <time>2015-11-11T13:54:53Z</time>
      </trkpt>
      <trkpt lat="43.70564" lon="1.08561">
        <ele>238.5</ele>
        <time>2015-11-11T13:54:54Z</time>
      </trkpt>
      <trkpt lat="43.70566" lon="1.0856">
        <ele>238.9</ele>
        <time>2015-11-11T13:54:55Z</time>
      </trkpt>
      <trkpt lat="43.70569" lon="1.08559">
        <ele>239.3</ele>
        <time>2015-11-11T13:54:56Z</time>
      </trkpt>
      <trkpt lat="43.70573" lon="1.08558">
        <ele>239.7</ele>
        <time>2015-11-11T13:54:57Z</time>
      </trkpt>
      <trkpt lat="43.70578" lon="1.08557">
        <ele>240.3</ele>
        <time>2015-11-11T13:54:59Z</time>
      </trkpt>
      <trkpt lat="43.70583" lon="1.08555">
        <ele>241.1</ele>
        <time>2015-11-11T13:55:01Z</time>
      </trkpt>
      <trkpt lat="43.70586" lon="1.08554">
        <ele>241.4</ele>
        <time>2015-11-11T13:55:02Z</time>
      </trkpt>
      <trkpt lat="43.70588" lon="1.08554">
        <ele>241.8</ele>
        <time>2015-11-11T13:55:03Z</time>
      </trkpt>
      <trkpt lat="43.70591" lon="1.08553">
        <ele>242.2</ele>
        <time>2015-11-11T13:55:04Z</time>
      </trkpt>
      <trkpt lat="43.70594" lon="1.08552">
        <ele>242.5</ele>
        <time>2015-11-11T13:55:05Z</time>
      </trkpt>
      <trkpt lat="43.70599" lon="1.08551">
        <ele>243.2</ele>
        <time>2015-11-11T13:55:07Z</time>
      </trkpt>
      <trkpt lat="43.70604" lon="1.08549">
        <ele>243.9</ele>
        <time>2015-11-11T13:55:09Z</time>
      </trkpt>
      <trkpt lat="43.70607" lon="1.08549">
        <ele>244.3</ele>
        <time>2015-11-11T13:55:10Z</time>
      </trkpt>
      <trkpt lat="43.7061" lon="1.08549">
        <ele>244.7</ele>
        <time>2015-11-11T13:55:11Z</time>
      </trkpt>
      <trkpt lat="43.70613" lon="1.08549">
        <ele>245.1</ele>
        <time>2015-11-11T13:55:12Z</time>
      </trkpt>
      <trkpt lat="43.70616" lon="1.08548">
        <ele>245.5</ele>
        <time>2015-11-11T13:55:13Z</time>
      </trkpt>
      <trkpt lat="43.70618" lon="1.08548">
        <ele>245.8</ele>
        <time>2015-11-11T13:55:14Z</time>
      </trkpt>
      <trkpt lat="43.70621" lon="1.08548">
        <ele>246.2</ele>
        <time>2015-11-11T13:55:15Z</time>
      </trkpt>
      <trkpt lat="43.70624" lon="1.08548">
        <ele>246.6</ele>
        <time>2015-11-11T13:55:16Z</time>
      </trkpt>
      <trkpt lat="43.70627" lon="1.08548">
        <ele>246.9</ele>
        <time>2015-11-11T13:55:17Z</time>
      </trkpt>
      <trkpt lat="43.7063" lon="1.08547">
        <ele>247.1</ele>
        <time>2015-11-11T13:55:18Z</time>
      </trkpt>
      <trkpt lat="43.70633" lon="1.08547">
        <ele>247.3</ele>
        <time>2015-11-11T13:55:19Z</time>
      </trkpt>
      <trkpt lat="43.70636" lon="1.08547">
        <ele>247.4</ele>
        <time>2015-11-11T13:55:20Z</time>
      </trkpt>
      <trkpt lat="43.70639" lon="1.08546">
        <ele>247.6</ele>
        <time>2015-11-11T13:55:21Z</time>
      </trkpt>
      <trkpt lat="43.70642" lon="1.08546">
        <ele>247.8</ele>
        <time>2015-11-11T13:55:22Z</time>
      </trkpt>
      <trkpt lat="43.70646" lon="1.08546">
        <ele>248.1</ele>
        <time>2015-11-11T13:55:23Z</time>
      </trkpt>
      <trkpt lat="43.70649" lon="1.08545">
        <ele>248.3</ele>
        <time>2015-11-11T13:55:24Z</time>
      </trkpt>
      <trkpt lat="43.70653" lon="1.08545">
        <ele>248.5</ele>
        <time>2015-11-11T13:55:25Z</time>
      </trkpt>
      <trkpt lat="43.70656" lon="1.08544">
        <ele>248.7</ele>
        <time>2015-11-11T13:55:26Z</time>
      </trkpt>
      <trkpt lat="43.70659" lon="1.08544">
        <ele>249</ele>
        <time>2015-11-11T13:55:27Z</time>
      </trkpt>
      <trkpt lat="43.70663" lon="1.08544">
        <ele>249.2</ele>
        <time>2015-11-11T13:55:28Z</time>
      </trkpt>
      <trkpt lat="43.70666" lon="1.08544">
        <ele>249.4</ele>
        <time>2015-11-11T13:55:29Z</time>
      </trkpt>
      <trkpt lat="43.7067" lon="1.08543">
        <ele>249.6</ele>
        <time>2015-11-11T13:55:30Z</time>
      </trkpt>
      <trkpt lat="43.70673" lon="1.08543">
        <ele>249.8</ele>
        <time>2015-11-11T13:55:31Z</time>
      </trkpt>
      <trkpt lat="43.70677" lon="1.08543">
        <ele>250.1</ele>
        <time>2015-11-11T13:55:32Z</time>
      </trkpt>
      <trkpt lat="43.70681" lon="1.08544">
        <ele>250.3</ele>
        <time>2015-11-11T13:55:33Z</time>
      </trkpt>
      <trkpt lat="43.70685" lon="1.08544">
        <ele>250.5</ele>
        <time>2015-11-11T13:55:34Z</time>
      </trkpt>
      <trkpt lat="43.70688" lon="1.08544">
        <ele>250.7</ele>
        <time>2015-11-11T13:55:35Z</time>
      </trkpt>
      <trkpt lat="43.70692" lon="1.08545">
        <ele>250.9</ele>
        <time>2015-11-11T13:55:36Z</time>
      </trkpt>
      <trkpt lat="43.70696" lon="1.08545">
        <ele>251.1</ele>
        <time>2015-11-11T13:55:37Z</time>
      </trkpt>
      <trkpt lat="43.70699" lon="1.08546">
        <ele>251.3</ele>
        <time>2015-11-11T13:55:38Z</time>
      </trkpt>
      <trkpt lat="43.70702" lon="1.08547">
        <ele>251.5</ele>
        <time>2015-11-11T13:55:39Z</time>
      </trkpt>
      <trkpt lat="43.70705" lon="1.08547">
        <ele>251.7</ele>
        <time>2015-11-11T13:55:40Z</time>
      </trkpt>
      <trkpt lat="43.70708" lon="1.08548">
        <ele>251.9</ele>
        <time>2015-11-11T13:55:41Z</time>
      </trkpt>
      <trkpt lat="43.70712" lon="1.08549">
        <ele>251.8</ele>
        <time>2015-11-11T13:55:42Z</time>
      </trkpt>
      <trkpt lat="43.70716" lon="1.08549">
        <ele>251.8</ele>
        <time>2015-11-11T13:55:43Z</time>
      </trkpt>
      <trkpt lat="43.70719" lon="1.0855">
        <ele>251.7</ele>
        <time>2015-11-11T13:55:44Z</time>
      </trkpt>
      <trkpt lat="43.70722" lon="1.08551">
        <ele>251.7</ele>
        <time>2015-11-11T13:55:45Z</time>
      </trkpt>
      <trkpt lat="43.70726" lon="1.08552">
        <ele>251.6</ele>
        <time>2015-11-11T13:55:46Z</time>
      </trkpt>
      <trkpt lat="43.7073" lon="1.08552">
        <ele>251.6</ele>
        <time>2015-11-11T13:55:47Z</time>
      </trkpt>
      <trkpt lat="43.70734" lon="1.08553">
        <ele>251.6</ele>
        <time>2015-11-11T13:55:48Z</time>
      </trkpt>
      <trkpt lat="43.70737" lon="1.08553">
        <ele>251.5</ele>
        <time>2015-11-11T13:55:49Z</time>
      </trkpt>
      <trkpt lat="43.7074" lon="1.08554">
        <ele>251.5</ele>
        <time>2015-11-11T13:55:50Z</time>
      </trkpt>
      <trkpt lat="43.70744" lon="1.08555">
        <ele>251.5</ele>
        <time>2015-11-11T13:55:51Z</time>
      </trkpt>
      <trkpt lat="43.70748" lon="1.08555">
        <ele>251.4</ele>
        <time>2015-11-11T13:55:52Z</time>
      </trkpt>
      <trkpt lat="43.70751" lon="1.08556">
        <ele>251.4</ele>
        <time>2015-11-11T13:55:53Z</time>
      </trkpt>
      <trkpt lat="43.70756" lon="1.08556">
        <ele>251.4</ele>
        <time>2015-11-11T13:55:54Z</time>
      </trkpt>
      <trkpt lat="43.7076" lon="1.08556">
        <ele>251.4</ele>
        <time>2015-11-11T13:55:55Z</time>
      </trkpt>
      <trkpt lat="43.70764" lon="1.08556">
        <ele>251.3</ele>
        <time>2015-11-11T13:55:56Z</time>
      </trkpt>
      <trkpt lat="43.70769" lon="1.08556">
        <ele>251.3</ele>
        <time>2015-11-11T13:55:57Z</time>
      </trkpt>
      <trkpt lat="43.70775" lon="1.08555">
        <ele>251.3</ele>
        <time>2015-11-11T13:55:58Z</time>
      </trkpt>
      <trkpt lat="43.7078" lon="1.08552">
        <ele>251.2</ele>
        <time>2015-11-11T13:55:59Z</time>
      </trkpt>
      <trkpt lat="43.70784" lon="1.08553">
        <ele>251.2</ele>
        <time>2015-11-11T13:56:00Z</time>
      </trkpt>
      <trkpt lat="43.70789" lon="1.08551">
        <ele>251.1</ele>
        <time>2015-11-11T13:56:01Z</time>
      </trkpt>
      <trkpt lat="43.70794" lon="1.08549">
        <ele>251.1</ele>
        <time>2015-11-11T13:56:02Z</time>
      </trkpt>
      <trkpt lat="43.70797" lon="1.08547">
        <ele>251</ele>
        <time>2015-11-11T13:56:03Z</time>
      </trkpt>
      <trkpt lat="43.70802" lon="1.08544">
        <ele>250.9</ele>
        <time>2015-11-11T13:56:04Z</time>
      </trkpt>
      <trkpt lat="43.70807" lon="1.08541">
        <ele>250.8</ele>
        <time>2015-11-11T13:56:05Z</time>
      </trkpt>
      <trkpt lat="43.70813" lon="1.08539">
        <ele>250.7</ele>
        <time>2015-11-11T13:56:06Z</time>
      </trkpt>
      <trkpt lat="43.70818" lon="1.08537">
        <ele>250.6</ele>
        <time>2015-11-11T13:56:07Z</time>
      </trkpt>
      <trkpt lat="43.70822" lon="1.08537">
        <ele>250.5</ele>
        <time>2015-11-11T13:56:08Z</time>
      </trkpt>
      <trkpt lat="43.70827" lon="1.08536">
        <ele>250.4</ele>
        <time>2015-11-11T13:56:09Z</time>
      </trkpt>
      <trkpt lat="43.70832" lon="1.08534">
        <ele>250.3</ele>
        <time>2015-11-11T13:56:10Z</time>
      </trkpt>
      <trkpt lat="43.70837" lon="1.08532">
        <ele>250.2</ele>
        <time>2015-11-11T13:56:11Z</time>
      </trkpt>
      <trkpt lat="43.70843" lon="1.0853">
        <ele>250.1</ele>
        <time>2015-11-11T13:56:12Z</time>
      </trkpt>
      <trkpt lat="43.70848" lon="1.08529">
        <ele>250.1</ele>
        <time>2015-11-11T13:56:13Z</time>
      </trkpt>
      <trkpt lat="43.70854" lon="1.08527">
        <ele>250</ele>
        <time>2015-11-11T13:56:14Z</time>
      </trkpt>
      <trkpt lat="43.70859" lon="1.08524">
        <ele>249.9</ele>
        <time>2015-11-11T13:56:15Z</time>
      </trkpt>
      <trkpt lat="43.70863" lon="1.08523">
        <ele>249.8</ele>
        <time>2015-11-11T13:56:16Z</time>
      </trkpt>
      <trkpt lat="43.70868" lon="1.0852">
        <ele>249.8</ele>
        <time>2015-11-11T13:56:17Z</time>
      </trkpt>
      <trkpt lat="43.70874" lon="1.08519">
        <ele>249.7</ele>
        <time>2015-11-11T13:56:18Z</time>
      </trkpt>
      <trkpt lat="43.70879" lon="1.08516">
        <ele>249.9</ele>
        <time>2015-11-11T13:56:19Z</time>
      </trkpt>
      <trkpt lat="43.70884" lon="1.08515">
        <ele>250.2</ele>
        <time>2015-11-11T13:56:20Z</time>
      </trkpt>
      <trkpt lat="43.70889" lon="1.08513">
        <ele>250.6</ele>
        <time>2015-11-11T13:56:21Z</time>
      </trkpt>
      <trkpt lat="43.70893" lon="1.08511">
        <ele>250.8</ele>
        <time>2015-11-11T13:56:22Z</time>
      </trkpt>
      <trkpt lat="43.70897" lon="1.08509">
        <ele>251</ele>
        <time>2015-11-11T13:56:23Z</time>
      </trkpt>
      <trkpt lat="43.709" lon="1.08509">
        <ele>251.2</ele>
        <time>2015-11-11T13:56:24Z</time>
      </trkpt>
      <trkpt lat="43.70905" lon="1.08508">
        <ele>251.5</ele>
        <time>2015-11-11T13:56:25Z</time>
      </trkpt>
      <trkpt lat="43.70908" lon="1.08506">
        <ele>251.7</ele>
        <time>2015-11-11T13:56:26Z</time>
      </trkpt>
      <trkpt lat="43.70913" lon="1.08503">
        <ele>252</ele>
        <time>2015-11-11T13:56:27Z</time>
      </trkpt>
      <trkpt lat="43.70916" lon="1.085">
        <ele>252.2</ele>
        <time>2015-11-11T13:56:28Z</time>
      </trkpt>
      <trkpt lat="43.70921" lon="1.08498">
        <ele>252.5</ele>
        <time>2015-11-11T13:56:29Z</time>
      </trkpt>
      <trkpt lat="43.70926" lon="1.08496">
        <ele>252.8</ele>
        <time>2015-11-11T13:56:30Z</time>
      </trkpt>
      <trkpt lat="43.7093" lon="1.08494">
        <ele>253.1</ele>
        <time>2015-11-11T13:56:31Z</time>
      </trkpt>
      <trkpt lat="43.70934" lon="1.08491">
        <ele>253.4</ele>
        <time>2015-11-11T13:56:32Z</time>
      </trkpt>
      <trkpt lat="43.7094" lon="1.08489">
        <ele>253.7</ele>
        <time>2015-11-11T13:56:33Z</time>
      </trkpt>
      <trkpt lat="43.70944" lon="1.08487">
        <ele>254</ele>
        <time>2015-11-11T13:56:34Z</time>
      </trkpt>
      <trkpt lat="43.70948" lon="1.08485">
        <ele>254.3</ele>
        <time>2015-11-11T13:56:35Z</time>
      </trkpt>
      <trkpt lat="43.70954" lon="1.08481">
        <ele>254.7</ele>
        <time>2015-11-11T13:56:36Z</time>
      </trkpt>
      <trkpt lat="43.70958" lon="1.08477">
        <ele>255</ele>
        <time>2015-11-11T13:56:37Z</time>
      </trkpt>
      <trkpt lat="43.70964" lon="1.08475">
        <ele>255.4</ele>
        <time>2015-11-11T13:56:38Z</time>
      </trkpt>
      <trkpt lat="43.70966" lon="1.08473">
        <ele>255.6</ele>
        <time>2015-11-11T13:56:39Z</time>
      </trkpt>
      <trkpt lat="43.7097" lon="1.0847">
        <ele>255.8</ele>
        <time>2015-11-11T13:56:40Z</time>
      </trkpt>
      <trkpt lat="43.70974" lon="1.08467">
        <ele>256.1</ele>
        <time>2015-11-11T13:56:41Z</time>
      </trkpt>
      <trkpt lat="43.7098" lon="1.08464">
        <ele>256.5</ele>
        <time>2015-11-11T13:56:42Z</time>
      </trkpt>
      <trkpt lat="43.70985" lon="1.0846">
        <ele>256.9</ele>
        <time>2015-11-11T13:56:43Z</time>
      </trkpt>
      <trkpt lat="43.70989" lon="1.08457">
        <ele>257.1</ele>
        <time>2015-11-11T13:56:44Z</time>
      </trkpt>
      <trkpt lat="43.70993" lon="1.08456">
        <ele>257.4</ele>
        <time>2015-11-11T13:56:45Z</time>
      </trkpt>
      <trkpt lat="43.70997" lon="1.08454">
        <ele>257.6</ele>
        <time>2015-11-11T13:56:46Z</time>
      </trkpt>
      <trkpt lat="43.71002" lon="1.08451">
        <ele>257.8</ele>
        <time>2015-11-11T13:56:47Z</time>
      </trkpt>
      <trkpt lat="43.71005" lon="1.08446">
        <ele>257.8</ele>
        <time>2015-11-11T13:56:48Z</time>
      </trkpt>
      <trkpt lat="43.7101" lon="1.08444">
        <ele>258</ele>
        <time>2015-11-11T13:56:49Z</time>
      </trkpt>
      <trkpt lat="43.71015" lon="1.08442">
        <ele>258.3</ele>
        <time>2015-11-11T13:56:50Z</time>
      </trkpt>
      <trkpt lat="43.71019" lon="1.08443">
        <ele>258.7</ele>
        <time>2015-11-11T13:56:51Z</time>
      </trkpt>
      <trkpt lat="43.71025" lon="1.08444">
        <ele>259.1</ele>
        <time>2015-11-11T13:56:52Z</time>
      </trkpt>
      <trkpt lat="43.71029" lon="1.08443">
        <ele>259.4</ele>
        <time>2015-11-11T13:56:53Z</time>
      </trkpt>
      <trkpt lat="43.71033" lon="1.08442">
        <ele>259.6</ele>
        <time>2015-11-11T13:56:54Z</time>
      </trkpt>
      <trkpt lat="43.71037" lon="1.08443">
        <ele>259.9</ele>
        <time>2015-11-11T13:56:55Z</time>
      </trkpt>
      <trkpt lat="43.71041" lon="1.08446">
        <ele>260.4</ele>
        <time>2015-11-11T13:56:56Z</time>
      </trkpt>
      <trkpt lat="43.71045" lon="1.08448">
        <ele>260.7</ele>
        <time>2015-11-11T13:56:57Z</time>
      </trkpt>
      <trkpt lat="43.7105" lon="1.08446">
        <ele>260.8</ele>
        <time>2015-11-11T13:56:58Z</time>
      </trkpt>
      <trkpt lat="43.71055" lon="1.08446">
        <ele>261.1</ele>
        <time>2015-11-11T13:56:59Z</time>
      </trkpt>
      <trkpt lat="43.7106" lon="1.08447">
        <ele>261.4</ele>
        <time>2015-11-11T13:57:00Z</time>
      </trkpt>
      <trkpt lat="43.71064" lon="1.08449">
        <ele>261.7</ele>
        <time>2015-11-11T13:57:01Z</time>
      </trkpt>
      <trkpt lat="43.71069" lon="1.08449">
        <ele>261.9</ele>
        <time>2015-11-11T13:57:02Z</time>
      </trkpt>
      <trkpt lat="43.71074" lon="1.0845">
        <ele>262.3</ele>
        <time>2015-11-11T13:57:03Z</time>
      </trkpt>
      <trkpt lat="43.71078" lon="1.0845">
        <ele>262.5</ele>
        <time>2015-11-11T13:57:04Z</time>
      </trkpt>
      <trkpt lat="43.71084" lon="1.08449">
        <ele>262.8</ele>
        <time>2015-11-11T13:57:05Z</time>
      </trkpt>
      <trkpt lat="43.71089" lon="1.0845">
        <ele>263</ele>
        <time>2015-11-11T13:57:06Z</time>
      </trkpt>
      <trkpt lat="43.71094" lon="1.0845">
        <ele>263.3</ele>
        <time>2015-11-11T13:57:07Z</time>
      </trkpt>
      <trkpt lat="43.71099" lon="1.08452">
        <ele>263.6</ele>
        <time>2015-11-11T13:57:08Z</time>
      </trkpt>
      <trkpt lat="43.71104" lon="1.08452">
        <ele>263.8</ele>
        <time>2015-11-11T13:57:09Z</time>
      </trkpt>
      <trkpt lat="43.71108" lon="1.0845">
        <ele>264</ele>
        <time>2015-11-11T13:57:10Z</time>
      </trkpt>
      <trkpt lat="43.71113" lon="1.08453">
        <ele>264.3</ele>
        <time>2015-11-11T13:57:11Z</time>
      </trkpt>
      <trkpt lat="43.71117" lon="1.08454">
        <ele>264.6</ele>
        <time>2015-11-11T13:57:12Z</time>
      </trkpt>
      <trkpt lat="43.71122" lon="1.08456">
        <ele>264.8</ele>
        <time>2015-11-11T13:57:13Z</time>
      </trkpt>
      <trkpt lat="43.71127" lon="1.08459">
        <ele>265</ele>
        <time>2015-11-11T13:57:14Z</time>
      </trkpt>
      <trkpt lat="43.71132" lon="1.08459">
        <ele>264.8</ele>
        <time>2015-11-11T13:57:15Z</time>
      </trkpt>
      <trkpt lat="43.71135" lon="1.0846">
        <ele>264.7</ele>
        <time>2015-11-11T13:57:16Z</time>
      </trkpt>
      <trkpt lat="43.7114" lon="1.08463">
        <ele>264.5</ele>
        <time>2015-11-11T13:57:17Z</time>
      </trkpt>
      <trkpt lat="43.71143" lon="1.08464">
        <ele>264.4</ele>
        <time>2015-11-11T13:57:18Z</time>
      </trkpt>
      <trkpt lat="43.7115" lon="1.08465">
        <ele>264.2</ele>
        <time>2015-11-11T13:57:19Z</time>
      </trkpt>
      <trkpt lat="43.71155" lon="1.08466">
        <ele>264.1</ele>
        <time>2015-11-11T13:57:20Z</time>
      </trkpt>
      <trkpt lat="43.71159" lon="1.08466">
        <ele>264</ele>
        <time>2015-11-11T13:57:21Z</time>
      </trkpt>
      <trkpt lat="43.71166" lon="1.08466">
        <ele>263.8</ele>
        <time>2015-11-11T13:57:22Z</time>
      </trkpt>
      <trkpt lat="43.7117" lon="1.08466">
        <ele>263.8</ele>
        <time>2015-11-11T13:57:23Z</time>
      </trkpt>
      <trkpt lat="43.71175" lon="1.08466">
        <ele>263.7</ele>
        <time>2015-11-11T13:57:24Z</time>
      </trkpt>
      <trkpt lat="43.71178" lon="1.08467">
        <ele>263.6</ele>
        <time>2015-11-11T13:57:25Z</time>
      </trkpt>
      <trkpt lat="43.71187" lon="1.08466">
        <ele>263.4</ele>
        <time>2015-11-11T13:57:26Z</time>
      </trkpt>
      <trkpt lat="43.71191" lon="1.08465">
        <ele>263.3</ele>
        <time>2015-11-11T13:57:27Z</time>
      </trkpt>
      <trkpt lat="43.71196" lon="1.08464">
        <ele>263.3</ele>
        <time>2015-11-11T13:57:29Z</time>
      </trkpt>
      <trkpt lat="43.712" lon="1.08462">
        <ele>263.2</ele>
        <time>2015-11-11T13:57:30Z</time>
      </trkpt>
      <trkpt lat="43.71205" lon="1.08462">
        <ele>263.1</ele>
        <time>2015-11-11T13:57:31Z</time>
      </trkpt>
      <trkpt lat="43.71212" lon="1.08462">
        <ele>263</ele>
        <time>2015-11-11T13:57:32Z</time>
      </trkpt>
      <trkpt lat="43.71217" lon="1.08462">
        <ele>263.1</ele>
        <time>2015-11-11T13:57:33Z</time>
      </trkpt>
      <trkpt lat="43.71222" lon="1.08462">
        <ele>263.2</ele>
        <time>2015-11-11T13:57:34Z</time>
      </trkpt>
      <trkpt lat="43.71229" lon="1.08462">
        <ele>263.3</ele>
        <time>2015-11-11T13:57:35Z</time>
      </trkpt>
      <trkpt lat="43.71232" lon="1.08462">
        <ele>263.3</ele>
        <time>2015-11-11T13:57:36Z</time>
      </trkpt>
      <trkpt lat="43.71236" lon="1.08462">
        <ele>263.4</ele>
        <time>2015-11-11T13:57:37Z</time>
      </trkpt>
      <trkpt lat="43.71241" lon="1.08462">
        <ele>263.4</ele>
        <time>2015-11-11T13:57:38Z</time>
      </trkpt>
      <trkpt lat="43.71244" lon="1.08461">
        <ele>263.4</ele>
        <time>2015-11-11T13:57:39Z</time>
      </trkpt>
      <trkpt lat="43.71248" lon="1.0846">
        <ele>263.5</ele>
        <time>2015-11-11T13:57:40Z</time>
      </trkpt>
      <trkpt lat="43.71254" lon="1.08459">
        <ele>263.5</ele>
        <time>2015-11-11T13:57:41Z</time>
      </trkpt>
      <trkpt lat="43.71258" lon="1.08459">
        <ele>263.6</ele>
        <time>2015-11-11T13:57:42Z</time>
      </trkpt>
      <trkpt lat="43.71264" lon="1.08459">
        <ele>263.7</ele>
        <time>2015-11-11T13:57:43Z</time>
      </trkpt>
      <trkpt lat="43.71267" lon="1.08457">
        <ele>263.6</ele>
        <time>2015-11-11T13:57:44Z</time>
      </trkpt>
      <trkpt lat="43.71272" lon="1.08458">
        <ele>263.7</ele>
        <time>2015-11-11T13:57:45Z</time>
      </trkpt>
      <trkpt lat="43.71276" lon="1.0846">
        <ele>263.8</ele>
        <time>2015-11-11T13:57:46Z</time>
      </trkpt>
      <trkpt lat="43.7128" lon="1.08462">
        <ele>263.9</ele>
        <time>2015-11-11T13:57:47Z</time>
      </trkpt>
      <trkpt lat="43.71287" lon="1.08462">
        <ele>264</ele>
        <time>2015-11-11T13:57:48Z</time>
      </trkpt>
      <trkpt lat="43.71292" lon="1.08464">
        <ele>264.1</ele>
        <time>2015-11-11T13:57:49Z</time>
      </trkpt>
      <trkpt lat="43.713" lon="1.08467">
        <ele>264.9</ele>
        <time>2015-11-11T13:57:50Z</time>
      </trkpt>
      <trkpt lat="43.71303" lon="1.0847">
        <ele>265.2</ele>
        <time>2015-11-11T13:57:51Z</time>
      </trkpt>
      <trkpt lat="43.71307" lon="1.08472">
        <ele>265.6</ele>
        <time>2015-11-11T13:57:52Z</time>
      </trkpt>
      <trkpt lat="43.71312" lon="1.08474">
        <ele>266</ele>
        <time>2015-11-11T13:57:53Z</time>
      </trkpt>
      <trkpt lat="43.71318" lon="1.08474">
        <ele>266.6</ele>
        <time>2015-11-11T13:57:54Z</time>
      </trkpt>
      <trkpt lat="43.71322" lon="1.08477">
        <ele>266.9</ele>
        <time>2015-11-11T13:57:55Z</time>
      </trkpt>
      <trkpt lat="43.71326" lon="1.08477">
        <ele>267.4</ele>
        <time>2015-11-11T13:57:56Z</time>
      </trkpt>
      <trkpt lat="43.7133" lon="1.0848">
        <ele>267.7</ele>
        <time>2015-11-11T13:57:57Z</time>
      </trkpt>
      <trkpt lat="43.71334" lon="1.08483">
        <ele>268.1</ele>
        <time>2015-11-11T13:57:58Z</time>
      </trkpt>
      <trkpt lat="43.71338" lon="1.08488">
        <ele>268.4</ele>
        <time>2015-11-11T13:57:59Z</time>
      </trkpt>
      <trkpt lat="43.71343" lon="1.0849">
        <ele>268.9</ele>
        <time>2015-11-11T13:58:00Z</time>
      </trkpt>
      <trkpt lat="43.71348" lon="1.08492">
        <ele>269.3</ele>
        <time>2015-11-11T13:58:01Z</time>
      </trkpt>
      <trkpt lat="43.71353" lon="1.08494">
        <ele>269.7</ele>
        <time>2015-11-11T13:58:02Z</time>
      </trkpt>
      <trkpt lat="43.71356" lon="1.08498">
        <ele>269.9</ele>
        <time>2015-11-11T13:58:03Z</time>
      </trkpt>
      <trkpt lat="43.7136" lon="1.085">
        <ele>270.2</ele>
        <time>2015-11-11T13:58:04Z</time>
      </trkpt>
      <trkpt lat="43.71363" lon="1.08502">
        <ele>270.5</ele>
        <time>2015-11-11T13:58:05Z</time>
      </trkpt>
      <trkpt lat="43.71367" lon="1.08504">
        <ele>270.7</ele>
        <time>2015-11-11T13:58:06Z</time>
      </trkpt>
      <trkpt lat="43.7137" lon="1.08507">
        <ele>271</ele>
        <time>2015-11-11T13:58:07Z</time>
      </trkpt>
      <trkpt lat="43.71373" lon="1.08509">
        <ele>271.2</ele>
        <time>2015-11-11T13:58:08Z</time>
      </trkpt>
      <trkpt lat="43.71376" lon="1.08513">
        <ele>271.5</ele>
        <time>2015-11-11T13:58:09Z</time>
      </trkpt>
      <trkpt lat="43.71379" lon="1.08516">
        <ele>271.7</ele>
        <time>2015-11-11T13:58:11Z</time>
      </trkpt>
      <trkpt lat="43.71382" lon="1.08518">
        <ele>271.9</ele>
        <time>2015-11-11T13:58:12Z</time>
      </trkpt>
      <trkpt lat="43.71385" lon="1.08519">
        <ele>272.2</ele>
        <time>2015-11-11T13:58:13Z</time>
      </trkpt>
      <trkpt lat="43.71389" lon="1.0852">
        <ele>272.6</ele>
        <time>2015-11-11T13:58:14Z</time>
      </trkpt>
      <trkpt lat="43.71393" lon="1.08521">
        <ele>272.9</ele>
        <time>2015-11-11T13:58:15Z</time>
      </trkpt>
      <trkpt lat="43.71397" lon="1.08522">
        <ele>273.3</ele>
        <time>2015-11-11T13:58:16Z</time>
      </trkpt>
      <trkpt lat="43.71401" lon="1.08523">
        <ele>273.7</ele>
        <time>2015-11-11T13:58:17Z</time>
      </trkpt>
      <trkpt lat="43.71405" lon="1.08523">
        <ele>274.1</ele>
        <time>2015-11-11T13:58:18Z</time>
      </trkpt>
      <trkpt lat="43.71409" lon="1.08522">
        <ele>274.5</ele>
        <time>2015-11-11T13:58:19Z</time>
      </trkpt>
      <trkpt lat="43.71412" lon="1.0852">
        <ele>274.8</ele>
        <time>2015-11-11T13:58:20Z</time>
      </trkpt>
      <trkpt lat="43.71415" lon="1.08516">
        <ele>275.1</ele>
        <time>2015-11-11T13:58:21Z</time>
      </trkpt>
      <trkpt lat="43.71418" lon="1.08511">
        <ele>275.2</ele>
        <time>2015-11-11T13:58:22Z</time>
      </trkpt>
      <trkpt lat="43.71419" lon="1.08506">
        <ele>275.2</ele>
        <time>2015-11-11T13:58:23Z</time>
      </trkpt>
      <trkpt lat="43.71419" lon="1.085">
        <ele>275.2</ele>
        <time>2015-11-11T13:58:24Z</time>
      </trkpt>
      <trkpt lat="43.7142" lon="1.08494">
        <ele>275.1</ele>
        <time>2015-11-11T13:58:25Z</time>
      </trkpt>
      <trkpt lat="43.7142" lon="1.08487">
        <ele>275.1</ele>
        <time>2015-11-11T13:58:26Z</time>
      </trkpt>
      <trkpt lat="43.7142" lon="1.08482">
        <ele>275</ele>
        <time>2015-11-11T13:58:27Z</time>
      </trkpt>
      <trkpt lat="43.71421" lon="1.08476">
        <ele>275</ele>
        <time>2015-11-11T13:58:28Z</time>
      </trkpt>
      <trkpt lat="43.71421" lon="1.0847">
        <ele>274.9</ele>
        <time>2015-11-11T13:58:29Z</time>
      </trkpt>
      <trkpt lat="43.71422" lon="1.08465">
        <ele>274.9</ele>
        <time>2015-11-11T13:58:30Z</time>
      </trkpt>
      <trkpt lat="43.71421" lon="1.0846">
        <ele>274.8</ele>
        <time>2015-11-11T13:58:31Z</time>
      </trkpt>
      <trkpt lat="43.71421" lon="1.08452">
        <ele>274.5</ele>
        <time>2015-11-11T13:58:32Z</time>
      </trkpt>
      <trkpt lat="43.71423" lon="1.08444">
        <ele>274.3</ele>
        <time>2015-11-11T13:58:33Z</time>
      </trkpt>
      <trkpt lat="43.71426" lon="1.08437">
        <ele>274.1</ele>
        <time>2015-11-11T13:58:34Z</time>
      </trkpt>
      <trkpt lat="43.71427" lon="1.08429">
        <ele>273.8</ele>
        <time>2015-11-11T13:58:35Z</time>
      </trkpt>
      <trkpt lat="43.71429" lon="1.08424">
        <ele>273.7</ele>
        <time>2015-11-11T13:58:36Z</time>
      </trkpt>
      <trkpt lat="43.71432" lon="1.08419">
        <ele>273.7</ele>
        <time>2015-11-11T13:58:37Z</time>
      </trkpt>
      <trkpt lat="43.71434" lon="1.08412">
        <ele>273.5</ele>
        <time>2015-11-11T13:58:38Z</time>
      </trkpt>
      <trkpt lat="43.71435" lon="1.08405">
        <ele>273.2</ele>
        <time>2015-11-11T13:58:39Z</time>
      </trkpt>
      <trkpt lat="43.71437" lon="1.08398">
        <ele>273</ele>
        <time>2015-11-11T13:58:40Z</time>
      </trkpt>
      <trkpt lat="43.7144" lon="1.0839">
        <ele>272.8</ele>
        <time>2015-11-11T13:58:41Z</time>
      </trkpt>
      <trkpt lat="43.71442" lon="1.08383">
        <ele>272.5</ele>
        <time>2015-11-11T13:58:42Z</time>
      </trkpt>
      <trkpt lat="43.71442" lon="1.08376">
        <ele>272.3</ele>
        <time>2015-11-11T13:58:43Z</time>
      </trkpt>
      <trkpt lat="43.71442" lon="1.08367">
        <ele>271.5</ele>
        <time>2015-11-11T13:58:44Z</time>
      </trkpt>
      <trkpt lat="43.7144" lon="1.0836">
        <ele>270.7</ele>
        <time>2015-11-11T13:58:45Z</time>
      </trkpt>
      <trkpt lat="43.71438" lon="1.08352">
        <ele>269.7</ele>
        <time>2015-11-11T13:58:46Z</time>
      </trkpt>
      <trkpt lat="43.71435" lon="1.08346">
        <ele>268.9</ele>
        <time>2015-11-11T13:58:47Z</time>
      </trkpt>
      <trkpt lat="43.7143" lon="1.08339">
        <ele>267.9</ele>
        <time>2015-11-11T13:58:48Z</time>
      </trkpt>
      <trkpt lat="43.71426" lon="1.08334">
        <ele>267</ele>
        <time>2015-11-11T13:58:49Z</time>
      </trkpt>
      <trkpt lat="43.71421" lon="1.08327">
        <ele>265.9</ele>
        <time>2015-11-11T13:58:50Z</time>
      </trkpt>
      <trkpt lat="43.71417" lon="1.08321">
        <ele>264.9</ele>
        <time>2015-11-11T13:58:51Z</time>
      </trkpt>
      <trkpt lat="43.7141" lon="1.08312">
        <ele>263.2</ele>
        <time>2015-11-11T13:58:52Z</time>
      </trkpt>
      <trkpt lat="43.71404" lon="1.08304">
        <ele>261.6</ele>
        <time>2015-11-11T13:58:53Z</time>
      </trkpt>
      <trkpt lat="43.71397" lon="1.08295">
        <ele>259.8</ele>
        <time>2015-11-11T13:58:54Z</time>
      </trkpt>
      <trkpt lat="43.71389" lon="1.08289">
        <ele>258</ele>
        <time>2015-11-11T13:58:55Z</time>
      </trkpt>
      <trkpt lat="43.71382" lon="1.08282">
        <ele>256.3</ele>
        <time>2015-11-11T13:58:56Z</time>
      </trkpt>
      <trkpt lat="43.71377" lon="1.08274">
        <ele>254.4</ele>
        <time>2015-11-11T13:58:57Z</time>
      </trkpt>
      <trkpt lat="43.71373" lon="1.08265">
        <ele>252.7</ele>
        <time>2015-11-11T13:58:58Z</time>
      </trkpt>
      <trkpt lat="43.71369" lon="1.08256">
        <ele>250.9</ele>
        <time>2015-11-11T13:58:59Z</time>
      </trkpt>
      <trkpt lat="43.71372" lon="1.08244">
        <ele>249.3</ele>
        <time>2015-11-11T13:59:00Z</time>
      </trkpt>
      <trkpt lat="43.71375" lon="1.08234">
        <ele>248</ele>
        <time>2015-11-11T13:59:01Z</time>
      </trkpt>
      <trkpt lat="43.71381" lon="1.08223">
        <ele>247</ele>
        <time>2015-11-11T13:59:02Z</time>
      </trkpt>
      <trkpt lat="43.71388" lon="1.08213">
        <ele>246.3</ele>
        <time>2015-11-11T13:59:03Z</time>
      </trkpt>
      <trkpt lat="43.71396" lon="1.08204">
        <ele>246.2</ele>
        <time>2015-11-11T13:59:04Z</time>
      </trkpt>
      <trkpt lat="43.71405" lon="1.08196">
        <ele>246.7</ele>
        <time>2015-11-11T13:59:05Z</time>
      </trkpt>
      <trkpt lat="43.71414" lon="1.0819">
        <ele>247.3</ele>
        <time>2015-11-11T13:59:06Z</time>
      </trkpt>
      <trkpt lat="43.71421" lon="1.0818">
        <ele>247.5</ele>
        <time>2015-11-11T13:59:07Z</time>
      </trkpt>
      <trkpt lat="43.71428" lon="1.08171">
        <ele>247.7</ele>
        <time>2015-11-11T13:59:08Z</time>
      </trkpt>
      <trkpt lat="43.71433" lon="1.08159">
        <ele>247.4</ele>
        <time>2015-11-11T13:59:09Z</time>
      </trkpt>
      <trkpt lat="43.71435" lon="1.08147">
        <ele>246.8</ele>
        <time>2015-11-11T13:59:10Z</time>
      </trkpt>
      <trkpt lat="43.71436" lon="1.08134">
        <ele>245.9</ele>
        <time>2015-11-11T13:59:11Z</time>
      </trkpt>
      <trkpt lat="43.71434" lon="1.08122">
        <ele>244.9</ele>
        <time>2015-11-11T13:59:12Z</time>
      </trkpt>
      <trkpt lat="43.71431" lon="1.08107">
        <ele>243.9</ele>
        <time>2015-11-11T13:59:13Z</time>
      </trkpt>
      <trkpt lat="43.71429" lon="1.08092">
        <ele>242.8</ele>
        <time>2015-11-11T13:59:14Z</time>
      </trkpt>
      <trkpt lat="43.71426" lon="1.08075">
        <ele>241.7</ele>
        <time>2015-11-11T13:59:15Z</time>
      </trkpt>
      <trkpt lat="43.71423" lon="1.08059">
        <ele>240.6</ele>
        <time>2015-11-11T13:59:16Z</time>
      </trkpt>
      <trkpt lat="43.7142" lon="1.08041">
        <ele>239.4</ele>
        <time>2015-11-11T13:59:17Z</time>
      </trkpt>
      <trkpt lat="43.71419" lon="1.08024">
        <ele>238.6</ele>
        <time>2015-11-11T13:59:18Z</time>
      </trkpt>
      <trkpt lat="43.71418" lon="1.08007">
        <ele>237.8</ele>
        <time>2015-11-11T13:59:19Z</time>
      </trkpt>
      <trkpt lat="43.71417" lon="1.0799">
        <ele>237.2</ele>
        <time>2015-11-11T13:59:20Z</time>
      </trkpt>
      <trkpt lat="43.71417" lon="1.07973">
        <ele>236.6</ele>
        <time>2015-11-11T13:59:21Z</time>
      </trkpt>
      <trkpt lat="43.71418" lon="1.07956">
        <ele>236</ele>
        <time>2015-11-11T13:59:22Z</time>
      </trkpt>
      <trkpt lat="43.71419" lon="1.07939">
        <ele>235.5</ele>
        <time>2015-11-11T13:59:23Z</time>
      </trkpt>
      <trkpt lat="43.71421" lon="1.07922">
        <ele>235</ele>
        <time>2015-11-11T13:59:24Z</time>
      </trkpt>
      <trkpt lat="43.71423" lon="1.07907">
        <ele>234.4</ele>
        <time>2015-11-11T13:59:25Z</time>
      </trkpt>
      <trkpt lat="43.71423" lon="1.07889">
        <ele>233.8</ele>
        <time>2015-11-11T13:59:26Z</time>
      </trkpt>
      <trkpt lat="43.71425" lon="1.07871">
        <ele>233.1</ele>
        <time>2015-11-11T13:59:27Z</time>
      </trkpt>
      <trkpt lat="43.71427" lon="1.07854">
        <ele>232.2</ele>
        <time>2015-11-11T13:59:28Z</time>
      </trkpt>
      <trkpt lat="43.71429" lon="1.07835">
        <ele>231.1</ele>
        <time>2015-11-11T13:59:29Z</time>
      </trkpt>
      <trkpt lat="43.71431" lon="1.07815">
        <ele>230</ele>
        <time>2015-11-11T13:59:30Z</time>
      </trkpt>
      <trkpt lat="43.71434" lon="1.07798">
        <ele>228.9</ele>
        <time>2015-11-11T13:59:31Z</time>
      </trkpt>
      <trkpt lat="43.71436" lon="1.07781">
        <ele>228</ele>
        <time>2015-11-11T13:59:32Z</time>
      </trkpt>
      <trkpt lat="43.71438" lon="1.07762">
        <ele>226.9</ele>
        <time>2015-11-11T13:59:33Z</time>
      </trkpt>
      <trkpt lat="43.7144" lon="1.07743">
        <ele>225.8</ele>
        <time>2015-11-11T13:59:34Z</time>
      </trkpt>
      <trkpt lat="43.71443" lon="1.07723">
        <ele>224.6</ele>
        <time>2015-11-11T13:59:35Z</time>
      </trkpt>
      <trkpt lat="43.71445" lon="1.07704">
        <ele>223.4</ele>
        <time>2015-11-11T13:59:36Z</time>
      </trkpt>
      <trkpt lat="43.71448" lon="1.07686">
        <ele>222.4</ele>
        <time>2015-11-11T13:59:37Z</time>
      </trkpt>
      <trkpt lat="43.71451" lon="1.07665">
        <ele>221.3</ele>
        <time>2015-11-11T13:59:38Z</time>
      </trkpt>
      <trkpt lat="43.71454" lon="1.07644">
        <ele>220.1</ele>
        <time>2015-11-11T13:59:39Z</time>
      </trkpt>
      <trkpt lat="43.71456" lon="1.07622">
        <ele>218.8</ele>
        <time>2015-11-11T13:59:40Z</time>
      </trkpt>
      <trkpt lat="43.71459" lon="1.07602">
        <ele>217.9</ele>
        <time>2015-11-11T13:59:41Z</time>
      </trkpt>
      <trkpt lat="43.71462" lon="1.07581">
        <ele>216.7</ele>
        <time>2015-11-11T13:59:42Z</time>
      </trkpt>
      <trkpt lat="43.71464" lon="1.07559">
        <ele>215.6</ele>
        <time>2015-11-11T13:59:43Z</time>
      </trkpt>
      <trkpt lat="43.71468" lon="1.07538">
        <ele>214.5</ele>
        <time>2015-11-11T13:59:44Z</time>
      </trkpt>
      <trkpt lat="43.71471" lon="1.07516">
        <ele>213.3</ele>
        <time>2015-11-11T13:59:45Z</time>
      </trkpt>
      <trkpt lat="43.71473" lon="1.07494">
        <ele>212.2</ele>
        <time>2015-11-11T13:59:46Z</time>
      </trkpt>
      <trkpt lat="43.71475" lon="1.07474">
        <ele>211.1</ele>
        <time>2015-11-11T13:59:47Z</time>
      </trkpt>
      <trkpt lat="43.71477" lon="1.07456">
        <ele>210.2</ele>
        <time>2015-11-11T13:59:48Z</time>
      </trkpt>
      <trkpt lat="43.71481" lon="1.07436">
        <ele>209.4</ele>
        <time>2015-11-11T13:59:49Z</time>
      </trkpt>
      <trkpt lat="43.71483" lon="1.07416">
        <ele>208.6</ele>
        <time>2015-11-11T13:59:50Z</time>
      </trkpt>
      <trkpt lat="43.71486" lon="1.07395">
        <ele>207.7</ele>
        <time>2015-11-11T13:59:51Z</time>
      </trkpt>
      <trkpt lat="43.71489" lon="1.07376">
        <ele>206.9</ele>
        <time>2015-11-11T13:59:52Z</time>
      </trkpt>
      <trkpt lat="43.71493" lon="1.07354">
        <ele>206.1</ele>
        <time>2015-11-11T13:59:53Z</time>
      </trkpt>
      <trkpt lat="43.71496" lon="1.07334">
        <ele>205.4</ele>
        <time>2015-11-11T13:59:54Z</time>
      </trkpt>
      <trkpt lat="43.715" lon="1.07314">
        <ele>204.7</ele>
        <time>2015-11-11T13:59:55Z</time>
      </trkpt>
      <trkpt lat="43.71504" lon="1.07295">
        <ele>204</ele>
        <time>2015-11-11T13:59:56Z</time>
      </trkpt>
      <trkpt lat="43.71504" lon="1.07276">
        <ele>204.4</ele>
        <time>2015-11-11T13:59:57Z</time>
      </trkpt>
      <trkpt lat="43.71506" lon="1.07258">
        <ele>204.8</ele>
        <time>2015-11-11T13:59:58Z</time>
      </trkpt>
      <trkpt lat="43.71509" lon="1.07242">
        <ele>205.1</ele>
        <time>2015-11-11T13:59:59Z</time>
      </trkpt>
      <trkpt lat="43.71512" lon="1.07224">
        <ele>205.4</ele>
        <time>2015-11-11T14:00:00Z</time>
      </trkpt>
      <trkpt lat="43.71516" lon="1.07174">
        <ele>207.6</ele>
        <time>2015-11-11T14:00:03Z</time>
      </trkpt>
      <trkpt lat="43.71517" lon="1.07161">
        <ele>208.3</ele>
        <time>2015-11-11T14:00:04Z</time>
      </trkpt>
      <trkpt lat="43.71518" lon="1.07148">
        <ele>209</ele>
        <time>2015-11-11T14:00:05Z</time>
      </trkpt>
      <trkpt lat="43.71518" lon="1.07136">
        <ele>209.6</ele>
        <time>2015-11-11T14:00:06Z</time>
      </trkpt>
      <trkpt lat="43.71519" lon="1.07126">
        <ele>210.2</ele>
        <time>2015-11-11T14:00:07Z</time>
      </trkpt>
      <trkpt lat="43.71519" lon="1.07118">
        <ele>210.4</ele>
        <time>2015-11-11T14:00:08Z</time>
      </trkpt>
      <trkpt lat="43.71521" lon="1.07108">
        <ele>210.5</ele>
        <time>2015-11-11T14:00:09Z</time>
      </trkpt>
      <trkpt lat="43.71523" lon="1.07099">
        <ele>210.6</ele>
        <time>2015-11-11T14:00:10Z</time>
      </trkpt>
      <trkpt lat="43.71524" lon="1.07092">
        <ele>210.7</ele>
        <time>2015-11-11T14:00:11Z</time>
      </trkpt>
      <trkpt lat="43.71526" lon="1.07085">
        <ele>210.8</ele>
        <time>2015-11-11T14:00:12Z</time>
      </trkpt>
      <trkpt lat="43.71528" lon="1.07077">
        <ele>210.9</ele>
        <time>2015-11-11T14:00:13Z</time>
      </trkpt>
      <trkpt lat="43.7153" lon="1.07069">
        <ele>211</ele>
        <time>2015-11-11T14:00:14Z</time>
      </trkpt>
      <trkpt lat="43.71533" lon="1.07061">
        <ele>211</ele>
        <time>2015-11-11T14:00:15Z</time>
      </trkpt>
      <trkpt lat="43.71537" lon="1.07053">
        <ele>211</ele>
        <time>2015-11-11T14:00:16Z</time>
      </trkpt>
      <trkpt lat="43.71539" lon="1.07044">
        <ele>211.1</ele>
        <time>2015-11-11T14:00:17Z</time>
      </trkpt>
      <trkpt lat="43.71543" lon="1.07036">
        <ele>211</ele>
        <time>2015-11-11T14:00:18Z</time>
      </trkpt>
      <trkpt lat="43.71547" lon="1.07026">
        <ele>211</ele>
        <time>2015-11-11T14:00:19Z</time>
      </trkpt>
      <trkpt lat="43.71551" lon="1.07016">
        <ele>211.1</ele>
        <time>2015-11-11T14:00:20Z</time>
      </trkpt>
      <trkpt lat="43.71558" lon="1.06988">
        <ele>211.7</ele>
        <time>2015-11-11T14:00:23Z</time>
      </trkpt>
      <trkpt lat="43.71562" lon="1.06977">
        <ele>212</ele>
        <time>2015-11-11T14:00:24Z</time>
      </trkpt>
      <trkpt lat="43.71564" lon="1.06968">
        <ele>212.3</ele>
        <time>2015-11-11T14:00:25Z</time>
      </trkpt>
      <trkpt lat="43.71565" lon="1.06959">
        <ele>212.6</ele>
        <time>2015-11-11T14:00:26Z</time>
      </trkpt>
      <trkpt lat="43.71566" lon="1.0695">
        <ele>213.1</ele>
        <time>2015-11-11T14:00:27Z</time>
      </trkpt>
      <trkpt lat="43.71567" lon="1.06942">
        <ele>213.6</ele>
        <time>2015-11-11T14:00:28Z</time>
      </trkpt>
      <trkpt lat="43.71569" lon="1.06934">
        <ele>214.1</ele>
        <time>2015-11-11T14:00:29Z</time>
      </trkpt>
      <trkpt lat="43.71571" lon="1.06928">
        <ele>214.5</ele>
        <time>2015-11-11T14:00:30Z</time>
      </trkpt>
      <trkpt lat="43.71571" lon="1.06921">
        <ele>214.9</ele>
        <time>2015-11-11T14:00:31Z</time>
      </trkpt>
      <trkpt lat="43.71573" lon="1.06915">
        <ele>215.3</ele>
        <time>2015-11-11T14:00:32Z</time>
      </trkpt>
      <trkpt lat="43.71576" lon="1.0691">
        <ele>215.6</ele>
        <time>2015-11-11T14:00:33Z</time>
      </trkpt>
      <trkpt lat="43.71577" lon="1.06904">
        <ele>215.9</ele>
        <time>2015-11-11T14:00:34Z</time>
      </trkpt>
      <trkpt lat="43.71579" lon="1.06898">
        <ele>216.3</ele>
        <time>2015-11-11T14:00:35Z</time>
      </trkpt>
      <trkpt lat="43.7158" lon="1.06892">
        <ele>216.6</ele>
        <time>2015-11-11T14:00:36Z</time>
      </trkpt>
      <trkpt lat="43.71581" lon="1.06886">
        <ele>216.9</ele>
        <time>2015-11-11T14:00:37Z</time>
      </trkpt>
      <trkpt lat="43.71584" lon="1.06881">
        <ele>217.2</ele>
        <time>2015-11-11T14:00:38Z</time>
      </trkpt>
      <trkpt lat="43.71586" lon="1.06875">
        <ele>217.5</ele>
        <time>2015-11-11T14:00:39Z</time>
      </trkpt>
      <trkpt lat="43.71586" lon="1.06871">
        <ele>217.7</ele>
        <time>2015-11-11T14:00:40Z</time>
      </trkpt>
      <trkpt lat="43.71587" lon="1.06867">
        <ele>217.9</ele>
        <time>2015-11-11T14:00:41Z</time>
      </trkpt>
      <trkpt lat="43.71589" lon="1.06862">
        <ele>218.1</ele>
        <time>2015-11-11T14:00:42Z</time>
      </trkpt>
      <trkpt lat="43.71591" lon="1.06857">
        <ele>218.2</ele>
        <time>2015-11-11T14:00:43Z</time>
      </trkpt>
      <trkpt lat="43.71593" lon="1.0685">
        <ele>218.5</ele>
        <time>2015-11-11T14:00:44Z</time>
      </trkpt>
      <trkpt lat="43.71594" lon="1.06845">
        <ele>218.7</ele>
        <time>2015-11-11T14:00:45Z</time>
      </trkpt>
      <trkpt lat="43.71597" lon="1.06841">
        <ele>218.8</ele>
        <time>2015-11-11T14:00:46Z</time>
      </trkpt>
      <trkpt lat="43.71599" lon="1.06837">
        <ele>219</ele>
        <time>2015-11-11T14:00:47Z</time>
      </trkpt>
      <trkpt lat="43.71601" lon="1.06833">
        <ele>219.1</ele>
        <time>2015-11-11T14:00:48Z</time>
      </trkpt>
      <trkpt lat="43.71603" lon="1.06829">
        <ele>219.2</ele>
        <time>2015-11-11T14:00:49Z</time>
      </trkpt>
      <trkpt lat="43.71605" lon="1.06824">
        <ele>219.4</ele>
        <time>2015-11-11T14:00:50Z</time>
      </trkpt>
      <trkpt lat="43.71606" lon="1.0682">
        <ele>219.5</ele>
        <time>2015-11-11T14:00:51Z</time>
      </trkpt>
      <trkpt lat="43.71608" lon="1.06815">
        <ele>219.6</ele>
        <time>2015-11-11T14:00:52Z</time>
      </trkpt>
      <trkpt lat="43.7161" lon="1.06811">
        <ele>219.8</ele>
        <time>2015-11-11T14:00:53Z</time>
      </trkpt>
      <trkpt lat="43.71612" lon="1.06806">
        <ele>219.9</ele>
        <time>2015-11-11T14:00:54Z</time>
      </trkpt>
      <trkpt lat="43.71615" lon="1.06802">
        <ele>220</ele>
        <time>2015-11-11T14:00:55Z</time>
      </trkpt>
      <trkpt lat="43.71617" lon="1.06798">
        <ele>220.1</ele>
        <time>2015-11-11T14:00:56Z</time>
      </trkpt>
      <trkpt lat="43.71619" lon="1.06793">
        <ele>220.1</ele>
        <time>2015-11-11T14:00:57Z</time>
      </trkpt>
      <trkpt lat="43.71621" lon="1.06789">
        <ele>220.2</ele>
        <time>2015-11-11T14:00:58Z</time>
      </trkpt>
      <trkpt lat="43.71624" lon="1.06785">
        <ele>220.2</ele>
        <time>2015-11-11T14:00:59Z</time>
      </trkpt>
      <trkpt lat="43.71626" lon="1.06781">
        <ele>220.2</ele>
        <time>2015-11-11T14:01:00Z</time>
      </trkpt>
      <trkpt lat="43.71628" lon="1.06777">
        <ele>220.2</ele>
        <time>2015-11-11T14:01:01Z</time>
      </trkpt>
      <trkpt lat="43.7163" lon="1.06772">
        <ele>220.3</ele>
        <time>2015-11-11T14:01:02Z</time>
      </trkpt>
      <trkpt lat="43.71632" lon="1.06767">
        <ele>220.3</ele>
        <time>2015-11-11T14:01:03Z</time>
      </trkpt>
      <trkpt lat="43.71634" lon="1.06763">
        <ele>220.3</ele>
        <time>2015-11-11T14:01:04Z</time>
      </trkpt>
      <trkpt lat="43.71636" lon="1.06759">
        <ele>220.3</ele>
        <time>2015-11-11T14:01:05Z</time>
      </trkpt>
      <trkpt lat="43.71637" lon="1.06755">
        <ele>220.3</ele>
        <time>2015-11-11T14:01:06Z</time>
      </trkpt>
      <trkpt lat="43.7164" lon="1.06747">
        <ele>220.2</ele>
        <time>2015-11-11T14:01:07Z</time>
      </trkpt>
      <trkpt lat="43.71642" lon="1.06741">
        <ele>220.2</ele>
        <time>2015-11-11T14:01:08Z</time>
      </trkpt>
      <trkpt lat="43.71646" lon="1.06737">
        <ele>220</ele>
        <time>2015-11-11T14:01:09Z</time>
      </trkpt>
      <trkpt lat="43.71648" lon="1.06728">
        <ele>220.1</ele>
        <time>2015-11-11T14:01:10Z</time>
      </trkpt>
      <trkpt lat="43.7165" lon="1.06723">
        <ele>220</ele>
        <time>2015-11-11T14:01:11Z</time>
      </trkpt>
      <trkpt lat="43.71653" lon="1.06717">
        <ele>219.9</ele>
        <time>2015-11-11T14:01:12Z</time>
      </trkpt>
      <trkpt lat="43.71656" lon="1.06711">
        <ele>219.7</ele>
        <time>2015-11-11T14:01:13Z</time>
      </trkpt>
      <trkpt lat="43.7166" lon="1.06705">
        <ele>219.6</ele>
        <time>2015-11-11T14:01:14Z</time>
      </trkpt>
      <trkpt lat="43.71662" lon="1.06696">
        <ele>219.6</ele>
        <time>2015-11-11T14:01:15Z</time>
      </trkpt>
      <trkpt lat="43.71667" lon="1.0669">
        <ele>219.4</ele>
        <time>2015-11-11T14:01:16Z</time>
      </trkpt>
      <trkpt lat="43.7167" lon="1.06682">
        <ele>219.4</ele>
        <time>2015-11-11T14:01:17Z</time>
      </trkpt>
      <trkpt lat="43.71672" lon="1.06674">
        <ele>219.4</ele>
        <time>2015-11-11T14:01:18Z</time>
      </trkpt>
      <trkpt lat="43.71675" lon="1.06667">
        <ele>219.4</ele>
        <time>2015-11-11T14:01:19Z</time>
      </trkpt>
      <trkpt lat="43.71678" lon="1.0666">
        <ele>219.3</ele>
        <time>2015-11-11T14:01:20Z</time>
      </trkpt>
      <trkpt lat="43.71681" lon="1.06652">
        <ele>219.3</ele>
        <time>2015-11-11T14:01:21Z</time>
      </trkpt>
      <trkpt lat="43.71685" lon="1.06643">
        <ele>219.3</ele>
        <time>2015-11-11T14:01:22Z</time>
      </trkpt>
      <trkpt lat="43.71689" lon="1.06636">
        <ele>219.1</ele>
        <time>2015-11-11T14:01:23Z</time>
      </trkpt>
      <trkpt lat="43.71693" lon="1.06627">
        <ele>219</ele>
        <time>2015-11-11T14:01:24Z</time>
      </trkpt>
      <trkpt lat="43.71698" lon="1.06621">
        <ele>218.9</ele>
        <time>2015-11-11T14:01:25Z</time>
      </trkpt>
      <trkpt lat="43.71702" lon="1.06614">
        <ele>219</ele>
        <time>2015-11-11T14:01:26Z</time>
      </trkpt>
      <trkpt lat="43.71707" lon="1.06605">
        <ele>219.1</ele>
        <time>2015-11-11T14:01:27Z</time>
      </trkpt>
      <trkpt lat="43.7171" lon="1.06599">
        <ele>219.1</ele>
        <time>2015-11-11T14:01:28Z</time>
      </trkpt>
      <trkpt lat="43.71715" lon="1.06592">
        <ele>219.1</ele>
        <time>2015-11-11T14:01:29Z</time>
      </trkpt>
      <trkpt lat="43.71719" lon="1.06586">
        <ele>219.1</ele>
        <time>2015-11-11T14:01:30Z</time>
      </trkpt>
      <trkpt lat="43.71723" lon="1.06578">
        <ele>219.1</ele>
        <time>2015-11-11T14:01:31Z</time>
      </trkpt>
      <trkpt lat="43.71728" lon="1.0657">
        <ele>219</ele>
        <time>2015-11-11T14:01:32Z</time>
      </trkpt>
      <trkpt lat="43.71733" lon="1.06565">
        <ele>218.8</ele>
        <time>2015-11-11T14:01:33Z</time>
      </trkpt>
      <trkpt lat="43.71738" lon="1.06558">
        <ele>218.6</ele>
        <time>2015-11-11T14:01:34Z</time>
      </trkpt>
      <trkpt lat="43.71744" lon="1.06551">
        <ele>218.3</ele>
        <time>2015-11-11T14:01:35Z</time>
      </trkpt>
      <trkpt lat="43.71751" lon="1.06543">
        <ele>217.9</ele>
        <time>2015-11-11T14:01:36Z</time>
      </trkpt>
      <trkpt lat="43.71756" lon="1.06535">
        <ele>217.6</ele>
        <time>2015-11-11T14:01:37Z</time>
      </trkpt>
      <trkpt lat="43.71762" lon="1.06527">
        <ele>217.3</ele>
        <time>2015-11-11T14:01:38Z</time>
      </trkpt>
      <trkpt lat="43.71769" lon="1.0652">
        <ele>216.8</ele>
        <time>2015-11-11T14:01:39Z</time>
      </trkpt>
      <trkpt lat="43.71776" lon="1.06514">
        <ele>216.3</ele>
        <time>2015-11-11T14:01:40Z</time>
      </trkpt>
      <trkpt lat="43.71782" lon="1.06507">
        <ele>215.8</ele>
        <time>2015-11-11T14:01:41Z</time>
      </trkpt>
      <trkpt lat="43.71785" lon="1.06498">
        <ele>215.7</ele>
        <time>2015-11-11T14:01:42Z</time>
      </trkpt>
      <trkpt lat="43.71791" lon="1.0649">
        <ele>215.3</ele>
        <time>2015-11-11T14:01:43Z</time>
      </trkpt>
      <trkpt lat="43.71797" lon="1.06487">
        <ele>215</ele>
        <time>2015-11-11T14:01:44Z</time>
      </trkpt>
      <trkpt lat="43.71802" lon="1.06479">
        <ele>214.9</ele>
        <time>2015-11-11T14:01:45Z</time>
      </trkpt>
      <trkpt lat="43.71808" lon="1.06472">
        <ele>214.7</ele>
        <time>2015-11-11T14:01:46Z</time>
      </trkpt>
      <trkpt lat="43.71815" lon="1.06465">
        <ele>214.5</ele>
        <time>2015-11-11T14:01:47Z</time>
      </trkpt>
      <trkpt lat="43.7182" lon="1.06458">
        <ele>214.3</ele>
        <time>2015-11-11T14:01:48Z</time>
      </trkpt>
      <trkpt lat="43.71826" lon="1.06449">
        <ele>214</ele>
        <time>2015-11-11T14:01:49Z</time>
      </trkpt>
      <trkpt lat="43.71831" lon="1.06441">
        <ele>213.7</ele>
        <time>2015-11-11T14:01:50Z</time>
      </trkpt>
      <trkpt lat="43.71837" lon="1.06433">
        <ele>213.5</ele>
        <time>2015-11-11T14:01:51Z</time>
      </trkpt>
      <trkpt lat="43.71842" lon="1.06424">
        <ele>213.2</ele>
        <time>2015-11-11T14:01:52Z</time>
      </trkpt>
      <trkpt lat="43.71847" lon="1.06415">
        <ele>213</ele>
        <time>2015-11-11T14:01:53Z</time>
      </trkpt>
      <trkpt lat="43.71852" lon="1.06406">
        <ele>212.9</ele>
        <time>2015-11-11T14:01:54Z</time>
      </trkpt>
      <trkpt lat="43.71855" lon="1.06397">
        <ele>212.7</ele>
        <time>2015-11-11T14:01:55Z</time>
      </trkpt>
      <trkpt lat="43.71859" lon="1.06388">
        <ele>212.6</ele>
        <time>2015-11-11T14:01:56Z</time>
      </trkpt>
      <trkpt lat="43.71862" lon="1.0638">
        <ele>212.6</ele>
        <time>2015-11-11T14:01:57Z</time>
      </trkpt>
      <trkpt lat="43.71865" lon="1.06371">
        <ele>212.5</ele>
        <time>2015-11-11T14:01:58Z</time>
      </trkpt>
      <trkpt lat="43.71869" lon="1.06362">
        <ele>212.4</ele>
        <time>2015-11-11T14:01:59Z</time>
      </trkpt>
      <trkpt lat="43.71873" lon="1.06352">
        <ele>212.4</ele>
        <time>2015-11-11T14:02:00Z</time>
      </trkpt>
      <trkpt lat="43.71876" lon="1.06344">
        <ele>212.3</ele>
        <time>2015-11-11T14:02:01Z</time>
      </trkpt>
      <trkpt lat="43.71879" lon="1.06338">
        <ele>212.2</ele>
        <time>2015-11-11T14:02:02Z</time>
      </trkpt>
      <trkpt lat="43.71882" lon="1.0633">
        <ele>212.1</ele>
        <time>2015-11-11T14:02:03Z</time>
      </trkpt>
      <trkpt lat="43.71885" lon="1.06321">
        <ele>212.1</ele>
        <time>2015-11-11T14:02:04Z</time>
      </trkpt>
      <trkpt lat="43.71887" lon="1.06312">
        <ele>212.1</ele>
        <time>2015-11-11T14:02:05Z</time>
      </trkpt>
      <trkpt lat="43.71889" lon="1.06303">
        <ele>212.1</ele>
        <time>2015-11-11T14:02:06Z</time>
      </trkpt>
      <trkpt lat="43.71892" lon="1.06293">
        <ele>212.2</ele>
        <time>2015-11-11T14:02:07Z</time>
      </trkpt>
      <trkpt lat="43.71894" lon="1.06286">
        <ele>212.1</ele>
        <time>2015-11-11T14:02:08Z</time>
      </trkpt>
      <trkpt lat="43.71896" lon="1.06277">
        <ele>212.1</ele>
        <time>2015-11-11T14:02:09Z</time>
      </trkpt>
      <trkpt lat="43.71898" lon="1.06269">
        <ele>212.1</ele>
        <time>2015-11-11T14:02:10Z</time>
      </trkpt>
      <trkpt lat="43.719" lon="1.06261">
        <ele>212</ele>
        <time>2015-11-11T14:02:11Z</time>
      </trkpt>
      <trkpt lat="43.71906" lon="1.06255">
        <ele>211.8</ele>
        <time>2015-11-11T14:02:12Z</time>
      </trkpt>
      <trkpt lat="43.71908" lon="1.06245">
        <ele>211.8</ele>
        <time>2015-11-11T14:02:13Z</time>
      </trkpt>
      <trkpt lat="43.71907" lon="1.06233">
        <ele>211.9</ele>
        <time>2015-11-11T14:02:14Z</time>
      </trkpt>
      <trkpt lat="43.7191" lon="1.06226">
        <ele>211.8</ele>
        <time>2015-11-11T14:02:15Z</time>
      </trkpt>
      <trkpt lat="43.71911" lon="1.06217">
        <ele>211.8</ele>
        <time>2015-11-11T14:02:16Z</time>
      </trkpt>
      <trkpt lat="43.71915" lon="1.06208">
        <ele>211.6</ele>
        <time>2015-11-11T14:02:17Z</time>
      </trkpt>
      <trkpt lat="43.71916" lon="1.06199">
        <ele>211.5</ele>
        <time>2015-11-11T14:02:18Z</time>
      </trkpt>
      <trkpt lat="43.71921" lon="1.06188">
        <ele>211.3</ele>
        <time>2015-11-11T14:02:19Z</time>
      </trkpt>
      <trkpt lat="43.71926" lon="1.06179">
        <ele>211</ele>
        <time>2015-11-11T14:02:20Z</time>
      </trkpt>
      <trkpt lat="43.7193" lon="1.06168">
        <ele>210.9</ele>
        <time>2015-11-11T14:02:21Z</time>
      </trkpt>
      <trkpt lat="43.71934" lon="1.0616">
        <ele>210.7</ele>
        <time>2015-11-11T14:02:22Z</time>
      </trkpt>
      <trkpt lat="43.71938" lon="1.06151">
        <ele>210.6</ele>
        <time>2015-11-11T14:02:23Z</time>
      </trkpt>
      <trkpt lat="43.71943" lon="1.06142">
        <ele>210.4</ele>
        <time>2015-11-11T14:02:24Z</time>
      </trkpt>
      <trkpt lat="43.71948" lon="1.06135">
        <ele>210.3</ele>
        <time>2015-11-11T14:02:25Z</time>
      </trkpt>
      <trkpt lat="43.71952" lon="1.06126">
        <ele>210.2</ele>
        <time>2015-11-11T14:02:26Z</time>
      </trkpt>
      <trkpt lat="43.71957" lon="1.06117">
        <ele>209.8</ele>
        <time>2015-11-11T14:02:27Z</time>
      </trkpt>
      <trkpt lat="43.71963" lon="1.06109">
        <ele>209</ele>
        <time>2015-11-11T14:02:28Z</time>
      </trkpt>
      <trkpt lat="43.71968" lon="1.061">
        <ele>208.3</ele>
        <time>2015-11-11T14:02:29Z</time>
      </trkpt>
      <trkpt lat="43.71973" lon="1.06091">
        <ele>207.6</ele>
        <time>2015-11-11T14:02:30Z</time>
      </trkpt>
      <trkpt lat="43.71978" lon="1.06082">
        <ele>207</ele>
        <time>2015-11-11T14:02:31Z</time>
      </trkpt>
      <trkpt lat="43.71983" lon="1.06072">
        <ele>206.2</ele>
        <time>2015-11-11T14:02:32Z</time>
      </trkpt>
      <trkpt lat="43.71988" lon="1.06063">
        <ele>205.6</ele>
        <time>2015-11-11T14:02:33Z</time>
      </trkpt>
      <trkpt lat="43.71993" lon="1.06054">
        <ele>204.9</ele>
        <time>2015-11-11T14:02:34Z</time>
      </trkpt>
      <trkpt lat="43.71997" lon="1.06043">
        <ele>204.3</ele>
        <time>2015-11-11T14:02:35Z</time>
      </trkpt>
      <trkpt lat="43.72002" lon="1.06033">
        <ele>203.6</ele>
        <time>2015-11-11T14:02:36Z</time>
      </trkpt>
      <trkpt lat="43.72007" lon="1.06023">
        <ele>203</ele>
        <time>2015-11-11T14:02:37Z</time>
      </trkpt>
      <trkpt lat="43.72013" lon="1.06014">
        <ele>202.4</ele>
        <time>2015-11-11T14:02:38Z</time>
      </trkpt>
      <trkpt lat="43.7202" lon="1.06002">
        <ele>201.7</ele>
        <time>2015-11-11T14:02:39Z</time>
      </trkpt>
      <trkpt lat="43.72025" lon="1.05992">
        <ele>201.2</ele>
        <time>2015-11-11T14:02:40Z</time>
      </trkpt>
      <trkpt lat="43.72032" lon="1.05983">
        <ele>200.8</ele>
        <time>2015-11-11T14:02:41Z</time>
      </trkpt>
      <trkpt lat="43.72038" lon="1.05974">
        <ele>200.4</ele>
        <time>2015-11-11T14:02:42Z</time>
      </trkpt>
      <trkpt lat="43.72044" lon="1.05964">
        <ele>200</ele>
        <time>2015-11-11T14:02:43Z</time>
      </trkpt>
      <trkpt lat="43.72049" lon="1.05955">
        <ele>199.7</ele>
        <time>2015-11-11T14:02:44Z</time>
      </trkpt>
      <trkpt lat="43.72055" lon="1.05946">
        <ele>199.4</ele>
        <time>2015-11-11T14:02:45Z</time>
      </trkpt>
      <trkpt lat="43.72061" lon="1.05937">
        <ele>199.1</ele>
        <time>2015-11-11T14:02:46Z</time>
      </trkpt>
      <trkpt lat="43.72066" lon="1.05928">
        <ele>198.8</ele>
        <time>2015-11-11T14:02:47Z</time>
      </trkpt>
      <trkpt lat="43.72072" lon="1.05918">
        <ele>198.4</ele>
        <time>2015-11-11T14:02:48Z</time>
      </trkpt>
      <trkpt lat="43.72077" lon="1.05908">
        <ele>198.1</ele>
        <time>2015-11-11T14:02:49Z</time>
      </trkpt>
      <trkpt lat="43.72083" lon="1.05899">
        <ele>197.8</ele>
        <time>2015-11-11T14:02:50Z</time>
      </trkpt>
      <trkpt lat="43.72088" lon="1.05889">
        <ele>197.5</ele>
        <time>2015-11-11T14:02:51Z</time>
      </trkpt>
      <trkpt lat="43.72094" lon="1.05879">
        <ele>197.2</ele>
        <time>2015-11-11T14:02:52Z</time>
      </trkpt>
      <trkpt lat="43.721" lon="1.05869">
        <ele>196.8</ele>
        <time>2015-11-11T14:02:53Z</time>
      </trkpt>
      <trkpt lat="43.72106" lon="1.05857">
        <ele>196.4</ele>
        <time>2015-11-11T14:02:54Z</time>
      </trkpt>
      <trkpt lat="43.72112" lon="1.05845">
        <ele>196.1</ele>
        <time>2015-11-11T14:02:55Z</time>
      </trkpt>
      <trkpt lat="43.72118" lon="1.05836">
        <ele>195.7</ele>
        <time>2015-11-11T14:02:56Z</time>
      </trkpt>
      <trkpt lat="43.72124" lon="1.05825">
        <ele>195.4</ele>
        <time>2015-11-11T14:02:57Z</time>
      </trkpt>
      <trkpt lat="43.7213" lon="1.05815">
        <ele>195.1</ele>
        <time>2015-11-11T14:02:58Z</time>
      </trkpt>
      <trkpt lat="43.72136" lon="1.05804">
        <ele>194.8</ele>
        <time>2015-11-11T14:02:59Z</time>
      </trkpt>
      <trkpt lat="43.72142" lon="1.05795">
        <ele>194.6</ele>
        <time>2015-11-11T14:03:00Z</time>
      </trkpt>
      <trkpt lat="43.72148" lon="1.05785">
        <ele>194.7</ele>
        <time>2015-11-11T14:03:01Z</time>
      </trkpt>
      <trkpt lat="43.72154" lon="1.05774">
        <ele>194.9</ele>
        <time>2015-11-11T14:03:02Z</time>
      </trkpt>
      <trkpt lat="43.72159" lon="1.05767">
        <ele>195</ele>
        <time>2015-11-11T14:03:03Z</time>
      </trkpt>
      <trkpt lat="43.72164" lon="1.05758">
        <ele>195.1</ele>
        <time>2015-11-11T14:03:04Z</time>
      </trkpt>
      <trkpt lat="43.72169" lon="1.0575">
        <ele>195.2</ele>
        <time>2015-11-11T14:03:05Z</time>
      </trkpt>
      <trkpt lat="43.72174" lon="1.0574">
        <ele>195.3</ele>
        <time>2015-11-11T14:03:06Z</time>
      </trkpt>
      <trkpt lat="43.72179" lon="1.05733">
        <ele>195.4</ele>
        <time>2015-11-11T14:03:07Z</time>
      </trkpt>
      <trkpt lat="43.72184" lon="1.05725">
        <ele>195.4</ele>
        <time>2015-11-11T14:03:08Z</time>
      </trkpt>
      <trkpt lat="43.72189" lon="1.05717">
        <ele>195.4</ele>
        <time>2015-11-11T14:03:09Z</time>
      </trkpt>
      <trkpt lat="43.72195" lon="1.0571">
        <ele>195.4</ele>
        <time>2015-11-11T14:03:10Z</time>
      </trkpt>
      <trkpt lat="43.72199" lon="1.05703">
        <ele>195.4</ele>
        <time>2015-11-11T14:03:11Z</time>
      </trkpt>
      <trkpt lat="43.72204" lon="1.05698">
        <ele>195.3</ele>
        <time>2015-11-11T14:03:12Z</time>
      </trkpt>
      <trkpt lat="43.72209" lon="1.05691">
        <ele>195.2</ele>
        <time>2015-11-11T14:03:13Z</time>
      </trkpt>
      <trkpt lat="43.72213" lon="1.05685">
        <ele>195.4</ele>
        <time>2015-11-11T14:03:14Z</time>
      </trkpt>
      <trkpt lat="43.72218" lon="1.05679">
        <ele>195.5</ele>
        <time>2015-11-11T14:03:15Z</time>
      </trkpt>
      <trkpt lat="43.72221" lon="1.05674">
        <ele>195.7</ele>
        <time>2015-11-11T14:03:16Z</time>
      </trkpt>
      <trkpt lat="43.72226" lon="1.05668">
        <ele>195.8</ele>
        <time>2015-11-11T14:03:17Z</time>
      </trkpt>
      <trkpt lat="43.7223" lon="1.05664">
        <ele>195.9</ele>
        <time>2015-11-11T14:03:18Z</time>
      </trkpt>
      <trkpt lat="43.72234" lon="1.05659">
        <ele>196</ele>
        <time>2015-11-11T14:03:19Z</time>
      </trkpt>
      <trkpt lat="43.72237" lon="1.05654">
        <ele>196.1</ele>
        <time>2015-11-11T14:03:20Z</time>
      </trkpt>
      <trkpt lat="43.72241" lon="1.05649">
        <ele>196.2</ele>
        <time>2015-11-11T14:03:21Z</time>
      </trkpt>
      <trkpt lat="43.72244" lon="1.05644">
        <ele>196.3</ele>
        <time>2015-11-11T14:03:22Z</time>
      </trkpt>
      <trkpt lat="43.72247" lon="1.05638">
        <ele>196.4</ele>
        <time>2015-11-11T14:03:23Z</time>
      </trkpt>
      <trkpt lat="43.72251" lon="1.05634">
        <ele>196.5</ele>
        <time>2015-11-11T14:03:24Z</time>
      </trkpt>
      <trkpt lat="43.72254" lon="1.05631">
        <ele>196.5</ele>
        <time>2015-11-11T14:03:25Z</time>
      </trkpt>
      <trkpt lat="43.72256" lon="1.05628">
        <ele>196.6</ele>
        <time>2015-11-11T14:03:26Z</time>
      </trkpt>
      <trkpt lat="43.7226" lon="1.05625">
        <ele>196.6</ele>
        <time>2015-11-11T14:03:27Z</time>
      </trkpt>
      <trkpt lat="43.72263" lon="1.05619">
        <ele>196.9</ele>
        <time>2015-11-11T14:03:28Z</time>
      </trkpt>
      <trkpt lat="43.72267" lon="1.05614">
        <ele>197.1</ele>
        <time>2015-11-11T14:03:29Z</time>
      </trkpt>
      <trkpt lat="43.7227" lon="1.0561">
        <ele>197.2</ele>
        <time>2015-11-11T14:03:30Z</time>
      </trkpt>
      <trkpt lat="43.72274" lon="1.05606">
        <ele>197.4</ele>
        <time>2015-11-11T14:03:31Z</time>
      </trkpt>
      <trkpt lat="43.72278" lon="1.05603">
        <ele>197.6</ele>
        <time>2015-11-11T14:03:32Z</time>
      </trkpt>
      <trkpt lat="43.72282" lon="1.05598">
        <ele>197.8</ele>
        <time>2015-11-11T14:03:33Z</time>
      </trkpt>
      <trkpt lat="43.72286" lon="1.05594">
        <ele>198</ele>
        <time>2015-11-11T14:03:34Z</time>
      </trkpt>
      <trkpt lat="43.7229" lon="1.05591">
        <ele>198.2</ele>
        <time>2015-11-11T14:03:35Z</time>
      </trkpt>
      <trkpt lat="43.72293" lon="1.05588">
        <ele>198.4</ele>
        <time>2015-11-11T14:03:36Z</time>
      </trkpt>
      <trkpt lat="43.72297" lon="1.05583">
        <ele>198.7</ele>
        <time>2015-11-11T14:03:37Z</time>
      </trkpt>
      <trkpt lat="43.72301" lon="1.0558">
        <ele>198.9</ele>
        <time>2015-11-11T14:03:38Z</time>
      </trkpt>
      <trkpt lat="43.72304" lon="1.05576">
        <ele>199.1</ele>
        <time>2015-11-11T14:03:39Z</time>
      </trkpt>
      <trkpt lat="43.72308" lon="1.05571">
        <ele>199.4</ele>
        <time>2015-11-11T14:03:40Z</time>
      </trkpt>
      <trkpt lat="43.72312" lon="1.05568">
        <ele>199.5</ele>
        <time>2015-11-11T14:03:41Z</time>
      </trkpt>
      <trkpt lat="43.72317" lon="1.05563">
        <ele>199.7</ele>
        <time>2015-11-11T14:03:42Z</time>
      </trkpt>
      <trkpt lat="43.72321" lon="1.0556">
        <ele>199.8</ele>
        <time>2015-11-11T14:03:43Z</time>
      </trkpt>
      <trkpt lat="43.72326" lon="1.05556">
        <ele>199.9</ele>
        <time>2015-11-11T14:03:44Z</time>
      </trkpt>
      <trkpt lat="43.7233" lon="1.05551">
        <ele>200</ele>
        <time>2015-11-11T14:03:45Z</time>
      </trkpt>
      <trkpt lat="43.72333" lon="1.05546">
        <ele>200</ele>
        <time>2015-11-11T14:03:46Z</time>
      </trkpt>
      <trkpt lat="43.72337" lon="1.05541">
        <ele>200</ele>
        <time>2015-11-11T14:03:47Z</time>
      </trkpt>
      <trkpt lat="43.72341" lon="1.05537">
        <ele>200.1</ele>
        <time>2015-11-11T14:03:48Z</time>
      </trkpt>
      <trkpt lat="43.72345" lon="1.05534">
        <ele>200.2</ele>
        <time>2015-11-11T14:03:49Z</time>
      </trkpt>
      <trkpt lat="43.72348" lon="1.05529">
        <ele>200.3</ele>
        <time>2015-11-11T14:03:50Z</time>
      </trkpt>
      <trkpt lat="43.72352" lon="1.05525">
        <ele>200.4</ele>
        <time>2015-11-11T14:03:51Z</time>
      </trkpt>
      <trkpt lat="43.72356" lon="1.05521">
        <ele>200.4</ele>
        <time>2015-11-11T14:03:52Z</time>
      </trkpt>
      <trkpt lat="43.7236" lon="1.05516">
        <ele>200.5</ele>
        <time>2015-11-11T14:03:53Z</time>
      </trkpt>
      <trkpt lat="43.72365" lon="1.05512">
        <ele>200.5</ele>
        <time>2015-11-11T14:03:54Z</time>
      </trkpt>
      <trkpt lat="43.72367" lon="1.05509">
        <ele>200.5</ele>
        <time>2015-11-11T14:03:55Z</time>
      </trkpt>
      <trkpt lat="43.72371" lon="1.05506">
        <ele>200.5</ele>
        <time>2015-11-11T14:03:56Z</time>
      </trkpt>
      <trkpt lat="43.72376" lon="1.05502">
        <ele>200.6</ele>
        <time>2015-11-11T14:03:57Z</time>
      </trkpt>
      <trkpt lat="43.72381" lon="1.05499">
        <ele>200.9</ele>
        <time>2015-11-11T14:03:58Z</time>
      </trkpt>
      <trkpt lat="43.72386" lon="1.05496">
        <ele>201.3</ele>
        <time>2015-11-11T14:03:59Z</time>
      </trkpt>
      <trkpt lat="43.7239" lon="1.05492">
        <ele>201.6</ele>
        <time>2015-11-11T14:04:00Z</time>
      </trkpt>
      <trkpt lat="43.72395" lon="1.05487">
        <ele>201.9</ele>
        <time>2015-11-11T14:04:01Z</time>
      </trkpt>
      <trkpt lat="43.72398" lon="1.05483">
        <ele>202.2</ele>
        <time>2015-11-11T14:04:02Z</time>
      </trkpt>
      <trkpt lat="43.72402" lon="1.0548">
        <ele>202.4</ele>
        <time>2015-11-11T14:04:03Z</time>
      </trkpt>
      <trkpt lat="43.72406" lon="1.05476">
        <ele>202.6</ele>
        <time>2015-11-11T14:04:04Z</time>
      </trkpt>
      <trkpt lat="43.7241" lon="1.05471">
        <ele>202.8</ele>
        <time>2015-11-11T14:04:05Z</time>
      </trkpt>
      <trkpt lat="43.72413" lon="1.05467">
        <ele>202.9</ele>
        <time>2015-11-11T14:04:06Z</time>
      </trkpt>
      <trkpt lat="43.72416" lon="1.05464">
        <ele>203</ele>
        <time>2015-11-11T14:04:07Z</time>
      </trkpt>
      <trkpt lat="43.72419" lon="1.0546">
        <ele>203.1</ele>
        <time>2015-11-11T14:04:08Z</time>
      </trkpt>
      <trkpt lat="43.72423" lon="1.05455">
        <ele>203.4</ele>
        <time>2015-11-11T14:04:09Z</time>
      </trkpt>
      <trkpt lat="43.72427" lon="1.05451">
        <ele>203.7</ele>
        <time>2015-11-11T14:04:10Z</time>
      </trkpt>
      <trkpt lat="43.7243" lon="1.0545">
        <ele>203.9</ele>
        <time>2015-11-11T14:04:11Z</time>
      </trkpt>
      <trkpt lat="43.72434" lon="1.05443">
        <ele>204.2</ele>
        <time>2015-11-11T14:04:12Z</time>
      </trkpt>
      <trkpt lat="43.72438" lon="1.05439">
        <ele>204.5</ele>
        <time>2015-11-11T14:04:13Z</time>
      </trkpt>
      <trkpt lat="43.72442" lon="1.05434">
        <ele>204.7</ele>
        <time>2015-11-11T14:04:14Z</time>
      </trkpt>
      <trkpt lat="43.72445" lon="1.05428">
        <ele>205</ele>
        <time>2015-11-11T14:04:15Z</time>
      </trkpt>
      <trkpt lat="43.72449" lon="1.05424">
        <ele>205.2</ele>
        <time>2015-11-11T14:04:16Z</time>
      </trkpt>
      <trkpt lat="43.72452" lon="1.05418">
        <ele>205.3</ele>
        <time>2015-11-11T14:04:17Z</time>
      </trkpt>
      <trkpt lat="43.72457" lon="1.05412">
        <ele>205.5</ele>
        <time>2015-11-11T14:04:18Z</time>
      </trkpt>
      <trkpt lat="43.72461" lon="1.05404">
        <ele>205.7</ele>
        <time>2015-11-11T14:04:19Z</time>
      </trkpt>
      <trkpt lat="43.72465" lon="1.05399">
        <ele>205.9</ele>
        <time>2015-11-11T14:04:20Z</time>
      </trkpt>
      <trkpt lat="43.72469" lon="1.05393">
        <ele>206</ele>
        <time>2015-11-11T14:04:21Z</time>
      </trkpt>
      <trkpt lat="43.72473" lon="1.05387">
        <ele>206.1</ele>
        <time>2015-11-11T14:04:22Z</time>
      </trkpt>
      <trkpt lat="43.72477" lon="1.05381">
        <ele>206.2</ele>
        <time>2015-11-11T14:04:23Z</time>
      </trkpt>
      <trkpt lat="43.72482" lon="1.05376">
        <ele>206.3</ele>
        <time>2015-11-11T14:04:24Z</time>
      </trkpt>
      <trkpt lat="43.72484" lon="1.05369">
        <ele>206.6</ele>
        <time>2015-11-11T14:04:25Z</time>
      </trkpt>
      <trkpt lat="43.72489" lon="1.05365">
        <ele>206.9</ele>
        <time>2015-11-11T14:04:26Z</time>
      </trkpt>
      <trkpt lat="43.72492" lon="1.0536">
        <ele>207.1</ele>
        <time>2015-11-11T14:04:27Z</time>
      </trkpt>
      <trkpt lat="43.72496" lon="1.05355">
        <ele>207.4</ele>
        <time>2015-11-11T14:04:28Z</time>
      </trkpt>
      <trkpt lat="43.72499" lon="1.05351">
        <ele>207.6</ele>
        <time>2015-11-11T14:04:29Z</time>
      </trkpt>
      <trkpt lat="43.72503" lon="1.05346">
        <ele>207.9</ele>
        <time>2015-11-11T14:04:30Z</time>
      </trkpt>
      <trkpt lat="43.72506" lon="1.05341">
        <ele>208.2</ele>
        <time>2015-11-11T14:04:31Z</time>
      </trkpt>
      <trkpt lat="43.72509" lon="1.05338">
        <ele>208.4</ele>
        <time>2015-11-11T14:04:32Z</time>
      </trkpt>
      <trkpt lat="43.72511" lon="1.05333">
        <ele>208.6</ele>
        <time>2015-11-11T14:04:33Z</time>
      </trkpt>
      <trkpt lat="43.72514" lon="1.05331">
        <ele>208.8</ele>
        <time>2015-11-11T14:04:34Z</time>
      </trkpt>
      <trkpt lat="43.72517" lon="1.05326">
        <ele>209</ele>
        <time>2015-11-11T14:04:35Z</time>
      </trkpt>
      <trkpt lat="43.72519" lon="1.05323">
        <ele>209.3</ele>
        <time>2015-11-11T14:04:36Z</time>
      </trkpt>
      <trkpt lat="43.72522" lon="1.05318">
        <ele>209.5</ele>
        <time>2015-11-11T14:04:37Z</time>
      </trkpt>
      <trkpt lat="43.72524" lon="1.05314">
        <ele>209.7</ele>
        <time>2015-11-11T14:04:38Z</time>
      </trkpt>
      <trkpt lat="43.72526" lon="1.0531">
        <ele>209.9</ele>
        <time>2015-11-11T14:04:39Z</time>
      </trkpt>
      <trkpt lat="43.72528" lon="1.05306">
        <ele>210.2</ele>
        <time>2015-11-11T14:04:40Z</time>
      </trkpt>
      <trkpt lat="43.7253" lon="1.05302">
        <ele>210.3</ele>
        <time>2015-11-11T14:04:41Z</time>
      </trkpt>
      <trkpt lat="43.72533" lon="1.05299">
        <ele>210.5</ele>
        <time>2015-11-11T14:04:42Z</time>
      </trkpt>
      <trkpt lat="43.72535" lon="1.05296">
        <ele>210.7</ele>
        <time>2015-11-11T14:04:43Z</time>
      </trkpt>
      <trkpt lat="43.72537" lon="1.05293">
        <ele>210.9</ele>
        <time>2015-11-11T14:04:44Z</time>
      </trkpt>
      <trkpt lat="43.72539" lon="1.0529">
        <ele>211.1</ele>
        <time>2015-11-11T14:04:45Z</time>
      </trkpt>
      <trkpt lat="43.72542" lon="1.05287">
        <ele>211.3</ele>
        <time>2015-11-11T14:04:46Z</time>
      </trkpt>
      <trkpt lat="43.72544" lon="1.05284">
        <ele>211.7</ele>
        <time>2015-11-11T14:04:47Z</time>
      </trkpt>
      <trkpt lat="43.72546" lon="1.05281">
        <ele>212</ele>
        <time>2015-11-11T14:04:48Z</time>
      </trkpt>
      <trkpt lat="43.72548" lon="1.05279">
        <ele>212.3</ele>
        <time>2015-11-11T14:04:49Z</time>
      </trkpt>
      <trkpt lat="43.72551" lon="1.05276">
        <ele>212.7</ele>
        <time>2015-11-11T14:04:50Z</time>
      </trkpt>
      <trkpt lat="43.72553" lon="1.05272">
        <ele>213</ele>
        <time>2015-11-11T14:04:51Z</time>
      </trkpt>
      <trkpt lat="43.72555" lon="1.05269">
        <ele>213.4</ele>
        <time>2015-11-11T14:04:52Z</time>
      </trkpt>
      <trkpt lat="43.72557" lon="1.05266">
        <ele>213.7</ele>
        <time>2015-11-11T14:04:53Z</time>
      </trkpt>
      <trkpt lat="43.72559" lon="1.05263">
        <ele>214</ele>
        <time>2015-11-11T14:04:54Z</time>
      </trkpt>
      <trkpt lat="43.72561" lon="1.0526">
        <ele>214.4</ele>
        <time>2015-11-11T14:04:55Z</time>
      </trkpt>
      <trkpt lat="43.72564" lon="1.05258">
        <ele>214.7</ele>
        <time>2015-11-11T14:04:56Z</time>
      </trkpt>
      <trkpt lat="43.72567" lon="1.05255">
        <ele>215</ele>
        <time>2015-11-11T14:04:57Z</time>
      </trkpt>
      <trkpt lat="43.72569" lon="1.05253">
        <ele>215.3</ele>
        <time>2015-11-11T14:04:58Z</time>
      </trkpt>
      <trkpt lat="43.72572" lon="1.0525">
        <ele>215.6</ele>
        <time>2015-11-11T14:04:59Z</time>
      </trkpt>
      <trkpt lat="43.72574" lon="1.05247">
        <ele>215.9</ele>
        <time>2015-11-11T14:05:00Z</time>
      </trkpt>
      <trkpt lat="43.72577" lon="1.05245">
        <ele>216.3</ele>
        <time>2015-11-11T14:05:01Z</time>
      </trkpt>
      <trkpt lat="43.72579" lon="1.05242">
        <ele>216.6</ele>
        <time>2015-11-11T14:05:02Z</time>
      </trkpt>
      <trkpt lat="43.72582" lon="1.05239">
        <ele>216.9</ele>
        <time>2015-11-11T14:05:03Z</time>
      </trkpt>
      <trkpt lat="43.72584" lon="1.05236">
        <ele>217.2</ele>
        <time>2015-11-11T14:05:04Z</time>
      </trkpt>
      <trkpt lat="43.72586" lon="1.05233">
        <ele>217.5</ele>
        <time>2015-11-11T14:05:05Z</time>
      </trkpt>
      <trkpt lat="43.72588" lon="1.0523">
        <ele>217.8</ele>
        <time>2015-11-11T14:05:06Z</time>
      </trkpt>
      <trkpt lat="43.7259" lon="1.05227">
        <ele>218.1</ele>
        <time>2015-11-11T14:05:07Z</time>
      </trkpt>
      <trkpt lat="43.72592" lon="1.05224">
        <ele>218.4</ele>
        <time>2015-11-11T14:05:08Z</time>
      </trkpt>
      <trkpt lat="43.72594" lon="1.0522">
        <ele>218.7</ele>
        <time>2015-11-11T14:05:09Z</time>
      </trkpt>
      <trkpt lat="43.72596" lon="1.05217">
        <ele>219.1</ele>
        <time>2015-11-11T14:05:10Z</time>
      </trkpt>
      <trkpt lat="43.72598" lon="1.05213">
        <ele>219.4</ele>
        <time>2015-11-11T14:05:11Z</time>
      </trkpt>
      <trkpt lat="43.726" lon="1.05209">
        <ele>219.8</ele>
        <time>2015-11-11T14:05:12Z</time>
      </trkpt>
      <trkpt lat="43.72602" lon="1.05205">
        <ele>220.1</ele>
        <time>2015-11-11T14:05:13Z</time>
      </trkpt>
      <trkpt lat="43.72604" lon="1.05202">
        <ele>220.4</ele>
        <time>2015-11-11T14:05:14Z</time>
      </trkpt>
      <trkpt lat="43.72607" lon="1.05199">
        <ele>220.6</ele>
        <time>2015-11-11T14:05:15Z</time>
      </trkpt>
      <trkpt lat="43.72609" lon="1.05197">
        <ele>220.9</ele>
        <time>2015-11-11T14:05:16Z</time>
      </trkpt>
      <trkpt lat="43.72611" lon="1.05194">
        <ele>221.2</ele>
        <time>2015-11-11T14:05:17Z</time>
      </trkpt>
      <trkpt lat="43.72613" lon="1.05191">
        <ele>221.4</ele>
        <time>2015-11-11T14:05:18Z</time>
      </trkpt>
      <trkpt lat="43.72616" lon="1.05188">
        <ele>221.7</ele>
        <time>2015-11-11T14:05:19Z</time>
      </trkpt>
      <trkpt lat="43.72618" lon="1.05185">
        <ele>222</ele>
        <time>2015-11-11T14:05:20Z</time>
      </trkpt>
      <trkpt lat="43.72619" lon="1.05181">
        <ele>222.3</ele>
        <time>2015-11-11T14:05:21Z</time>
      </trkpt>
      <trkpt lat="43.72623" lon="1.05177">
        <ele>222.8</ele>
        <time>2015-11-11T14:05:23Z</time>
      </trkpt>
      <trkpt lat="43.72626" lon="1.05175">
        <ele>223.1</ele>
        <time>2015-11-11T14:05:24Z</time>
      </trkpt>
      <trkpt lat="43.72628" lon="1.05172">
        <ele>223.4</ele>
        <time>2015-11-11T14:05:25Z</time>
      </trkpt>
      <trkpt lat="43.72632" lon="1.05168">
        <ele>223.9</ele>
        <time>2015-11-11T14:05:27Z</time>
      </trkpt>
      <trkpt lat="43.72634" lon="1.05165">
        <ele>224.2</ele>
        <time>2015-11-11T14:05:28Z</time>
      </trkpt>
      <trkpt lat="43.72638" lon="1.0516">
        <ele>224.8</ele>
        <time>2015-11-11T14:05:30Z</time>
      </trkpt>
      <trkpt lat="43.7264" lon="1.05157">
        <ele>225.2</ele>
        <time>2015-11-11T14:05:31Z</time>
      </trkpt>
      <trkpt lat="43.72642" lon="1.05154">
        <ele>225.5</ele>
        <time>2015-11-11T14:05:32Z</time>
      </trkpt>
      <trkpt lat="43.72644" lon="1.05151">
        <ele>225.8</ele>
        <time>2015-11-11T14:05:33Z</time>
      </trkpt>
      <trkpt lat="43.72647" lon="1.05145">
        <ele>226.4</ele>
        <time>2015-11-11T14:05:35Z</time>
      </trkpt>
      <trkpt lat="43.7265" lon="1.05139">
        <ele>226.9</ele>
        <time>2015-11-11T14:05:37Z</time>
      </trkpt>
      <trkpt lat="43.72653" lon="1.05134">
        <ele>227.5</ele>
        <time>2015-11-11T14:05:39Z</time>
      </trkpt>
      <trkpt lat="43.72655" lon="1.05131">
        <ele>227.8</ele>
        <time>2015-11-11T14:05:40Z</time>
      </trkpt>
      <trkpt lat="43.72657" lon="1.05129">
        <ele>228.1</ele>
        <time>2015-11-11T14:05:41Z</time>
      </trkpt>
      <trkpt lat="43.72659" lon="1.05126">
        <ele>228.4</ele>
        <time>2015-11-11T14:05:42Z</time>
      </trkpt>
      <trkpt lat="43.72663" lon="1.05121">
        <ele>228.9</ele>
        <time>2015-11-11T14:05:44Z</time>
      </trkpt>
      <trkpt lat="43.72665" lon="1.05118">
        <ele>229.1</ele>
        <time>2015-11-11T14:05:45Z</time>
      </trkpt>
      <trkpt lat="43.72667" lon="1.05115">
        <ele>229.4</ele>
        <time>2015-11-11T14:05:46Z</time>
      </trkpt>
      <trkpt lat="43.72669" lon="1.05112">
        <ele>229.7</ele>
        <time>2015-11-11T14:05:47Z</time>
      </trkpt>
      <trkpt lat="43.72673" lon="1.05109">
        <ele>230.2</ele>
        <time>2015-11-11T14:05:49Z</time>
      </trkpt>
      <trkpt lat="43.72677" lon="1.05108">
        <ele>230.6</ele>
        <time>2015-11-11T14:05:51Z</time>
      </trkpt>
      <trkpt lat="43.72682" lon="1.05111">
        <ele>230.9</ele>
        <time>2015-11-11T14:05:53Z</time>
      </trkpt>
      <trkpt lat="43.72685" lon="1.05112">
        <ele>231</ele>
        <time>2015-11-11T14:05:54Z</time>
      </trkpt>
      <trkpt lat="43.72688" lon="1.05114">
        <ele>231.2</ele>
        <time>2015-11-11T14:05:55Z</time>
      </trkpt>
      <trkpt lat="43.72692" lon="1.05115">
        <ele>231.5</ele>
        <time>2015-11-11T14:05:56Z</time>
      </trkpt>
      <trkpt lat="43.72696" lon="1.05115">
        <ele>231.8</ele>
        <time>2015-11-11T14:05:57Z</time>
      </trkpt>
      <trkpt lat="43.727" lon="1.05114">
        <ele>232.1</ele>
        <time>2015-11-11T14:05:58Z</time>
      </trkpt>
      <trkpt lat="43.72703" lon="1.05112">
        <ele>232.5</ele>
        <time>2015-11-11T14:05:59Z</time>
      </trkpt>
      <trkpt lat="43.72706" lon="1.0511">
        <ele>232.9</ele>
        <time>2015-11-11T14:06:00Z</time>
      </trkpt>
      <trkpt lat="43.7271" lon="1.05107">
        <ele>233.3</ele>
        <time>2015-11-11T14:06:01Z</time>
      </trkpt>
      <trkpt lat="43.72713" lon="1.05105">
        <ele>233.6</ele>
        <time>2015-11-11T14:06:02Z</time>
      </trkpt>
      <trkpt lat="43.72716" lon="1.05103">
        <ele>233.9</ele>
        <time>2015-11-11T14:06:03Z</time>
      </trkpt>
      <trkpt lat="43.72719" lon="1.051">
        <ele>234.2</ele>
        <time>2015-11-11T14:06:04Z</time>
      </trkpt>
      <trkpt lat="43.72723" lon="1.05095">
        <ele>234.7</ele>
        <time>2015-11-11T14:06:06Z</time>
      </trkpt>
      <trkpt lat="43.72725" lon="1.05093">
        <ele>234.9</ele>
        <time>2015-11-11T14:06:07Z</time>
      </trkpt>
      <trkpt lat="43.72727" lon="1.0509">
        <ele>235.2</ele>
        <time>2015-11-11T14:06:08Z</time>
      </trkpt>
      <trkpt lat="43.7273" lon="1.05087">
        <ele>235.5</ele>
        <time>2015-11-11T14:06:09Z</time>
      </trkpt>
      <trkpt lat="43.72734" lon="1.05084">
        <ele>235.8</ele>
        <time>2015-11-11T14:06:10Z</time>
      </trkpt>
      <trkpt lat="43.72737" lon="1.05083">
        <ele>236.1</ele>
        <time>2015-11-11T14:06:11Z</time>
      </trkpt>
      <trkpt lat="43.72741" lon="1.05081">
        <ele>236.3</ele>
        <time>2015-11-11T14:06:12Z</time>
      </trkpt>
      <trkpt lat="43.72744" lon="1.0508">
        <ele>236.6</ele>
        <time>2015-11-11T14:06:13Z</time>
      </trkpt>
      <trkpt lat="43.72747" lon="1.05078">
        <ele>236.8</ele>
        <time>2015-11-11T14:06:14Z</time>
      </trkpt>
      <trkpt lat="43.7275" lon="1.05076">
        <ele>237.1</ele>
        <time>2015-11-11T14:06:15Z</time>
      </trkpt>
      <trkpt lat="43.72753" lon="1.05073">
        <ele>237.3</ele>
        <time>2015-11-11T14:06:16Z</time>
      </trkpt>
      <trkpt lat="43.72756" lon="1.05071">
        <ele>237.6</ele>
        <time>2015-11-11T14:06:17Z</time>
      </trkpt>
      <trkpt lat="43.72759" lon="1.05068">
        <ele>237.9</ele>
        <time>2015-11-11T14:06:18Z</time>
      </trkpt>
      <trkpt lat="43.72761" lon="1.05065">
        <ele>238.3</ele>
        <time>2015-11-11T14:06:19Z</time>
      </trkpt>
      <trkpt lat="43.72763" lon="1.05061">
        <ele>238.6</ele>
        <time>2015-11-11T14:06:20Z</time>
      </trkpt>
      <trkpt lat="43.72765" lon="1.05058">
        <ele>238.9</ele>
        <time>2015-11-11T14:06:21Z</time>
      </trkpt>
      <trkpt lat="43.72767" lon="1.05054">
        <ele>239.2</ele>
        <time>2015-11-11T14:06:22Z</time>
      </trkpt>
      <trkpt lat="43.72768" lon="1.05051">
        <ele>239.5</ele>
        <time>2015-11-11T14:06:23Z</time>
      </trkpt>
      <trkpt lat="43.7277" lon="1.05047">
        <ele>239.9</ele>
        <time>2015-11-11T14:06:24Z</time>
      </trkpt>
      <trkpt lat="43.72772" lon="1.05042">
        <ele>240.3</ele>
        <time>2015-11-11T14:06:25Z</time>
      </trkpt>
      <trkpt lat="43.72773" lon="1.05038">
        <ele>240.4</ele>
        <time>2015-11-11T14:06:26Z</time>
      </trkpt>
      <trkpt lat="43.72775" lon="1.05033">
        <ele>240.5</ele>
        <time>2015-11-11T14:06:27Z</time>
      </trkpt>
      <trkpt lat="43.72776" lon="1.05029">
        <ele>240.6</ele>
        <time>2015-11-11T14:06:28Z</time>
      </trkpt>
      <trkpt lat="43.72778" lon="1.05024">
        <ele>240.8</ele>
        <time>2015-11-11T14:06:29Z</time>
      </trkpt>
      <trkpt lat="43.7278" lon="1.05019">
        <ele>241</ele>
        <time>2015-11-11T14:06:30Z</time>
      </trkpt>
      <trkpt lat="43.72782" lon="1.05013">
        <ele>241.2</ele>
        <time>2015-11-11T14:06:31Z</time>
      </trkpt>
      <trkpt lat="43.72784" lon="1.05008">
        <ele>241.4</ele>
        <time>2015-11-11T14:06:32Z</time>
      </trkpt>
      <trkpt lat="43.72786" lon="1.05003">
        <ele>241.6</ele>
        <time>2015-11-11T14:06:33Z</time>
      </trkpt>
      <trkpt lat="43.72788" lon="1.04998">
        <ele>241.8</ele>
        <time>2015-11-11T14:06:34Z</time>
      </trkpt>
      <trkpt lat="43.7279" lon="1.04993">
        <ele>242</ele>
        <time>2015-11-11T14:06:35Z</time>
      </trkpt>
      <trkpt lat="43.72791" lon="1.04988">
        <ele>242.3</ele>
        <time>2015-11-11T14:06:36Z</time>
      </trkpt>
      <trkpt lat="43.72793" lon="1.04984">
        <ele>242.4</ele>
        <time>2015-11-11T14:06:37Z</time>
      </trkpt>
      <trkpt lat="43.72795" lon="1.0498">
        <ele>242.4</ele>
        <time>2015-11-11T14:06:38Z</time>
      </trkpt>
      <trkpt lat="43.72797" lon="1.04975">
        <ele>242.5</ele>
        <time>2015-11-11T14:06:39Z</time>
      </trkpt>
      <trkpt lat="43.72798" lon="1.04971">
        <ele>242.6</ele>
        <time>2015-11-11T14:06:40Z</time>
      </trkpt>
      <trkpt lat="43.72799" lon="1.04966">
        <ele>242.7</ele>
        <time>2015-11-11T14:06:41Z</time>
      </trkpt>
      <trkpt lat="43.72799" lon="1.04963">
        <ele>242.8</ele>
        <time>2015-11-11T14:06:42Z</time>
      </trkpt>
      <trkpt lat="43.72801" lon="1.04956">
        <ele>242.7</ele>
        <time>2015-11-11T14:06:44Z</time>
      </trkpt>
      <trkpt lat="43.72804" lon="1.04951">
        <ele>242.5</ele>
        <time>2015-11-11T14:06:46Z</time>
      </trkpt>
      <trkpt lat="43.72807" lon="1.0495">
        <ele>242.4</ele>
        <time>2015-11-11T14:06:47Z</time>
      </trkpt>
      <trkpt lat="43.72809" lon="1.0495">
        <ele>242.3</ele>
        <time>2015-11-11T14:06:48Z</time>
      </trkpt>
      <trkpt lat="43.72813" lon="1.0495">
        <ele>242.4</ele>
        <time>2015-11-11T14:06:49Z</time>
      </trkpt>
      <trkpt lat="43.72817" lon="1.04952">
        <ele>242.4</ele>
        <time>2015-11-11T14:06:50Z</time>
      </trkpt>
      <trkpt lat="43.72822" lon="1.04958">
        <ele>242.6</ele>
        <time>2015-11-11T14:06:51Z</time>
      </trkpt>
      <trkpt lat="43.72826" lon="1.04962">
        <ele>242.5</ele>
        <time>2015-11-11T14:06:52Z</time>
      </trkpt>
      <trkpt lat="43.72833" lon="1.04969">
        <ele>242.3</ele>
        <time>2015-11-11T14:06:53Z</time>
      </trkpt>
      <trkpt lat="43.72839" lon="1.04975">
        <ele>242</ele>
        <time>2015-11-11T14:06:54Z</time>
      </trkpt>
      <trkpt lat="43.72845" lon="1.0498">
        <ele>241.8</ele>
        <time>2015-11-11T14:06:55Z</time>
      </trkpt>
      <trkpt lat="43.7285" lon="1.04982">
        <ele>241.7</ele>
        <time>2015-11-11T14:06:56Z</time>
      </trkpt>
      <trkpt lat="43.72855" lon="1.04986">
        <ele>241.6</ele>
        <time>2015-11-11T14:06:57Z</time>
      </trkpt>
      <trkpt lat="43.72862" lon="1.04985">
        <ele>241.5</ele>
        <time>2015-11-11T14:06:58Z</time>
      </trkpt>
      <trkpt lat="43.72861" lon="1.04991">
        <ele>241.4</ele>
        <time>2015-11-11T14:06:59Z</time>
      </trkpt>
      <trkpt lat="43.72865" lon="1.04993">
        <ele>241.3</ele>
        <time>2015-11-11T14:07:00Z</time>
      </trkpt>
      <trkpt lat="43.72867" lon="1.04998">
        <ele>241.1</ele>
        <time>2015-11-11T14:07:01Z</time>
      </trkpt>
      <trkpt lat="43.72865" lon="1.05003">
        <ele>241.1</ele>
        <time>2015-11-11T14:07:02Z</time>
      </trkpt>
      <trkpt lat="43.72864" lon="1.05009">
        <ele>240.9</ele>
        <time>2015-11-11T14:07:03Z</time>
      </trkpt>
      <trkpt lat="43.72863" lon="1.05016">
        <ele>240.8</ele>
        <time>2015-11-11T14:07:04Z</time>
      </trkpt>
      <trkpt lat="43.72862" lon="1.05022">
        <ele>240.6</ele>
        <time>2015-11-11T14:07:05Z</time>
      </trkpt>
      <trkpt lat="43.7286" lon="1.05028">
        <ele>240.5</ele>
        <time>2015-11-11T14:07:06Z</time>
      </trkpt>
      <trkpt lat="43.7286" lon="1.05034">
        <ele>240.4</ele>
        <time>2015-11-11T14:07:07Z</time>
      </trkpt>
      <trkpt lat="43.72859" lon="1.05041">
        <ele>240.2</ele>
        <time>2015-11-11T14:07:08Z</time>
      </trkpt>
      <trkpt lat="43.72858" lon="1.05047">
        <ele>240</ele>
        <time>2015-11-11T14:07:09Z</time>
      </trkpt>
      <trkpt lat="43.72857" lon="1.05055">
        <ele>239.7</ele>
        <time>2015-11-11T14:07:10Z</time>
      </trkpt>
      <trkpt lat="43.72856" lon="1.05062">
        <ele>239.3</ele>
        <time>2015-11-11T14:07:11Z</time>
      </trkpt>
      <trkpt lat="43.72855" lon="1.05071">
        <ele>238.9</ele>
        <time>2015-11-11T14:07:12Z</time>
      </trkpt>
      <trkpt lat="43.72854" lon="1.05077">
        <ele>238.7</ele>
        <time>2015-11-11T14:07:13Z</time>
      </trkpt>
      <trkpt lat="43.72853" lon="1.05084">
        <ele>238.3</ele>
        <time>2015-11-11T14:07:14Z</time>
      </trkpt>
      <trkpt lat="43.72852" lon="1.05091">
        <ele>238</ele>
        <time>2015-11-11T14:07:15Z</time>
      </trkpt>
      <trkpt lat="43.72851" lon="1.05097">
        <ele>237.7</ele>
        <time>2015-11-11T14:07:16Z</time>
      </trkpt>
      <trkpt lat="43.72849" lon="1.05104">
        <ele>237.3</ele>
        <time>2015-11-11T14:07:17Z</time>
      </trkpt>
      <trkpt lat="43.72848" lon="1.05112">
        <ele>237</ele>
        <time>2015-11-11T14:07:18Z</time>
      </trkpt>
      <trkpt lat="43.72847" lon="1.05119">
        <ele>236.6</ele>
        <time>2015-11-11T14:07:19Z</time>
      </trkpt>
      <trkpt lat="43.72846" lon="1.05126">
        <ele>236.2</ele>
        <time>2015-11-11T14:07:20Z</time>
      </trkpt>
      <trkpt lat="43.72844" lon="1.05133">
        <ele>235.9</ele>
        <time>2015-11-11T14:07:21Z</time>
      </trkpt>
      <trkpt lat="43.72845" lon="1.05138">
        <ele>235.7</ele>
        <time>2015-11-11T14:07:22Z</time>
      </trkpt>
      <trkpt lat="43.72845" lon="1.05146">
        <ele>235.3</ele>
        <time>2015-11-11T14:07:23Z</time>
      </trkpt>
      <trkpt lat="43.72844" lon="1.05153">
        <ele>234.9</ele>
        <time>2015-11-11T14:07:24Z</time>
      </trkpt>
      <trkpt lat="43.72843" lon="1.0516">
        <ele>234.6</ele>
        <time>2015-11-11T14:07:25Z</time>
      </trkpt>
      <trkpt lat="43.72842" lon="1.05168">
        <ele>234.2</ele>
        <time>2015-11-11T14:07:26Z</time>
      </trkpt>
      <trkpt lat="43.72841" lon="1.05175">
        <ele>233.8</ele>
        <time>2015-11-11T14:07:27Z</time>
      </trkpt>
      <trkpt lat="43.7284" lon="1.05182">
        <ele>233.4</ele>
        <time>2015-11-11T14:07:28Z</time>
      </trkpt>
      <trkpt lat="43.7284" lon="1.05186">
        <ele>233.2</ele>
        <time>2015-11-11T14:07:29Z</time>
      </trkpt>
      <trkpt lat="43.72839" lon="1.05193">
        <ele>232.8</ele>
        <time>2015-11-11T14:07:30Z</time>
      </trkpt>
      <trkpt lat="43.72838" lon="1.05201">
        <ele>232.3</ele>
        <time>2015-11-11T14:07:31Z</time>
      </trkpt>
      <trkpt lat="43.72837" lon="1.05207">
        <ele>231.9</ele>
        <time>2015-11-11T14:07:32Z</time>
      </trkpt>
      <trkpt lat="43.72835" lon="1.05214">
        <ele>231.4</ele>
        <time>2015-11-11T14:07:33Z</time>
      </trkpt>
      <trkpt lat="43.72834" lon="1.05222">
        <ele>231.2</ele>
        <time>2015-11-11T14:07:34Z</time>
      </trkpt>
      <trkpt lat="43.72833" lon="1.05228">
        <ele>230.8</ele>
        <time>2015-11-11T14:07:35Z</time>
      </trkpt>
      <trkpt lat="43.72831" lon="1.05233">
        <ele>230.6</ele>
        <time>2015-11-11T14:07:36Z</time>
      </trkpt>
      <trkpt lat="43.72831" lon="1.05241">
        <ele>230.3</ele>
        <time>2015-11-11T14:07:37Z</time>
      </trkpt>
      <trkpt lat="43.7283" lon="1.05247">
        <ele>230</ele>
        <time>2015-11-11T14:07:38Z</time>
      </trkpt>
      <trkpt lat="43.72829" lon="1.05254">
        <ele>229.7</ele>
        <time>2015-11-11T14:07:39Z</time>
      </trkpt>
      <trkpt lat="43.72829" lon="1.05261">
        <ele>229.4</ele>
        <time>2015-11-11T14:07:40Z</time>
      </trkpt>
      <trkpt lat="43.7283" lon="1.05272">
        <ele>229.2</ele>
        <time>2015-11-11T14:07:41Z</time>
      </trkpt>
      <trkpt lat="43.72828" lon="1.05278">
        <ele>228.8</ele>
        <time>2015-11-11T14:07:42Z</time>
      </trkpt>
      <trkpt lat="43.72825" lon="1.05285">
        <ele>228.3</ele>
        <time>2015-11-11T14:07:43Z</time>
      </trkpt>
      <trkpt lat="43.72824" lon="1.05294">
        <ele>227.9</ele>
        <time>2015-11-11T14:07:44Z</time>
      </trkpt>
      <trkpt lat="43.72823" lon="1.05299">
        <ele>227.8</ele>
        <time>2015-11-11T14:07:45Z</time>
      </trkpt>
      <trkpt lat="43.72823" lon="1.0531">
        <ele>227.9</ele>
        <time>2015-11-11T14:07:46Z</time>
      </trkpt>
      <trkpt lat="43.72823" lon="1.05315">
        <ele>228</ele>
        <time>2015-11-11T14:07:47Z</time>
      </trkpt>
      <trkpt lat="43.72822" lon="1.05328">
        <ele>228</ele>
        <time>2015-11-11T14:07:49Z</time>
      </trkpt>
      <trkpt lat="43.72821" lon="1.05337">
        <ele>228</ele>
        <time>2015-11-11T14:07:50Z</time>
      </trkpt>
      <trkpt lat="43.72821" lon="1.05344">
        <ele>228.1</ele>
        <time>2015-11-11T14:07:51Z</time>
      </trkpt>
      <trkpt lat="43.72822" lon="1.05352">
        <ele>228.3</ele>
        <time>2015-11-11T14:07:52Z</time>
      </trkpt>
      <trkpt lat="43.72821" lon="1.05359">
        <ele>228.3</ele>
        <time>2015-11-11T14:07:53Z</time>
      </trkpt>
      <trkpt lat="43.7282" lon="1.05367">
        <ele>228.2</ele>
        <time>2015-11-11T14:07:54Z</time>
      </trkpt>
      <trkpt lat="43.72819" lon="1.05374">
        <ele>228.3</ele>
        <time>2015-11-11T14:07:55Z</time>
      </trkpt>
      <trkpt lat="43.72817" lon="1.0538">
        <ele>228.3</ele>
        <time>2015-11-11T14:07:56Z</time>
      </trkpt>
      <trkpt lat="43.72817" lon="1.05388">
        <ele>228.4</ele>
        <time>2015-11-11T14:07:57Z</time>
      </trkpt>
      <trkpt lat="43.72816" lon="1.05396">
        <ele>228.5</ele>
        <time>2015-11-11T14:07:58Z</time>
      </trkpt>
      <trkpt lat="43.72816" lon="1.05403">
        <ele>228.6</ele>
        <time>2015-11-11T14:07:59Z</time>
      </trkpt>
      <trkpt lat="43.72816" lon="1.0541">
        <ele>228.8</ele>
        <time>2015-11-11T14:08:00Z</time>
      </trkpt>
      <trkpt lat="43.72816" lon="1.05417">
        <ele>228.9</ele>
        <time>2015-11-11T14:08:01Z</time>
      </trkpt>
      <trkpt lat="43.72819" lon="1.05424">
        <ele>229.3</ele>
        <time>2015-11-11T14:08:02Z</time>
      </trkpt>
      <trkpt lat="43.7282" lon="1.05431">
        <ele>229.5</ele>
        <time>2015-11-11T14:08:03Z</time>
      </trkpt>
      <trkpt lat="43.72821" lon="1.05438">
        <ele>229.7</ele>
        <time>2015-11-11T14:08:04Z</time>
      </trkpt>
      <trkpt lat="43.72821" lon="1.05446">
        <ele>229.9</ele>
        <time>2015-11-11T14:08:05Z</time>
      </trkpt>
      <trkpt lat="43.72822" lon="1.05454">
        <ele>230.1</ele>
        <time>2015-11-11T14:08:06Z</time>
      </trkpt>
      <trkpt lat="43.72822" lon="1.05465">
        <ele>230.2</ele>
        <time>2015-11-11T14:08:07Z</time>
      </trkpt>
      <trkpt lat="43.72824" lon="1.05473">
        <ele>230.3</ele>
        <time>2015-11-11T14:08:08Z</time>
      </trkpt>
      <trkpt lat="43.72826" lon="1.05481">
        <ele>230.5</ele>
        <time>2015-11-11T14:08:09Z</time>
      </trkpt>
      <trkpt lat="43.72828" lon="1.0549">
        <ele>230.6</ele>
        <time>2015-11-11T14:08:10Z</time>
      </trkpt>
      <trkpt lat="43.7283" lon="1.05498">
        <ele>230.8</ele>
        <time>2015-11-11T14:08:11Z</time>
      </trkpt>
      <trkpt lat="43.72833" lon="1.05507">
        <ele>231</ele>
        <time>2015-11-11T14:08:12Z</time>
      </trkpt>
      <trkpt lat="43.72835" lon="1.05515">
        <ele>231.1</ele>
        <time>2015-11-11T14:08:13Z</time>
      </trkpt>
      <trkpt lat="43.72837" lon="1.05523">
        <ele>231.2</ele>
        <time>2015-11-11T14:08:14Z</time>
      </trkpt>
      <trkpt lat="43.7284" lon="1.0553">
        <ele>231.5</ele>
        <time>2015-11-11T14:08:15Z</time>
      </trkpt>
      <trkpt lat="43.72843" lon="1.05537">
        <ele>231.7</ele>
        <time>2015-11-11T14:08:16Z</time>
      </trkpt>
      <trkpt lat="43.72846" lon="1.05543">
        <ele>231.9</ele>
        <time>2015-11-11T14:08:17Z</time>
      </trkpt>
      <trkpt lat="43.7285" lon="1.05554">
        <ele>232.1</ele>
        <time>2015-11-11T14:08:18Z</time>
      </trkpt>
      <trkpt lat="43.72853" lon="1.05562">
        <ele>232.2</ele>
        <time>2015-11-11T14:08:19Z</time>
      </trkpt>
      <trkpt lat="43.72856" lon="1.05571">
        <ele>232.4</ele>
        <time>2015-11-11T14:08:20Z</time>
      </trkpt>
      <trkpt lat="43.72858" lon="1.05577">
        <ele>232.6</ele>
        <time>2015-11-11T14:08:21Z</time>
      </trkpt>
      <trkpt lat="43.72862" lon="1.05586">
        <ele>232.9</ele>
        <time>2015-11-11T14:08:22Z</time>
      </trkpt>
      <trkpt lat="43.72865" lon="1.05593">
        <ele>233.2</ele>
        <time>2015-11-11T14:08:23Z</time>
      </trkpt>
      <trkpt lat="43.72869" lon="1.05598">
        <ele>233.4</ele>
        <time>2015-11-11T14:08:24Z</time>
      </trkpt>
      <trkpt lat="43.72871" lon="1.05606">
        <ele>233.6</ele>
        <time>2015-11-11T14:08:25Z</time>
      </trkpt>
      <trkpt lat="43.72872" lon="1.05614">
        <ele>233.7</ele>
        <time>2015-11-11T14:08:26Z</time>
      </trkpt>
      <trkpt lat="43.72873" lon="1.05621">
        <ele>233.8</ele>
        <time>2015-11-11T14:08:27Z</time>
      </trkpt>
      <trkpt lat="43.72876" lon="1.05628">
        <ele>233.9</ele>
        <time>2015-11-11T14:08:28Z</time>
      </trkpt>
      <trkpt lat="43.72877" lon="1.05635">
        <ele>233.8</ele>
        <time>2015-11-11T14:08:29Z</time>
      </trkpt>
      <trkpt lat="43.72877" lon="1.05646">
        <ele>233.8</ele>
        <time>2015-11-11T14:08:30Z</time>
      </trkpt>
      <trkpt lat="43.7288" lon="1.0566">
        <ele>233.5</ele>
        <time>2015-11-11T14:08:31Z</time>
      </trkpt>
      <trkpt lat="43.72881" lon="1.05668">
        <ele>233.4</ele>
        <time>2015-11-11T14:08:32Z</time>
      </trkpt>
      <trkpt lat="43.72884" lon="1.05672">
        <ele>233.1</ele>
        <time>2015-11-11T14:08:33Z</time>
      </trkpt>
      <trkpt lat="43.72885" lon="1.05679">
        <ele>233</ele>
        <time>2015-11-11T14:08:34Z</time>
      </trkpt>
      <trkpt lat="43.72884" lon="1.05686">
        <ele>233.1</ele>
        <time>2015-11-11T14:08:35Z</time>
      </trkpt>
      <trkpt lat="43.72883" lon="1.05693">
        <ele>233.1</ele>
        <time>2015-11-11T14:08:36Z</time>
      </trkpt>
      <trkpt lat="43.72884" lon="1.05703">
        <ele>233</ele>
        <time>2015-11-11T14:08:37Z</time>
      </trkpt>
      <trkpt lat="43.72885" lon="1.05711">
        <ele>233</ele>
        <time>2015-11-11T14:08:38Z</time>
      </trkpt>
      <trkpt lat="43.72885" lon="1.05721">
        <ele>233.4</ele>
        <time>2015-11-11T14:08:39Z</time>
      </trkpt>
      <trkpt lat="43.72885" lon="1.05727">
        <ele>233.6</ele>
        <time>2015-11-11T14:08:40Z</time>
      </trkpt>
      <trkpt lat="43.72885" lon="1.05738">
        <ele>234</ele>
        <time>2015-11-11T14:08:41Z</time>
      </trkpt>
      <trkpt lat="43.72883" lon="1.05746">
        <ele>234.4</ele>
        <time>2015-11-11T14:08:42Z</time>
      </trkpt>
      <trkpt lat="43.72884" lon="1.05755">
        <ele>234.7</ele>
        <time>2015-11-11T14:08:43Z</time>
      </trkpt>
      <trkpt lat="43.72884" lon="1.05764">
        <ele>235</ele>
        <time>2015-11-11T14:08:44Z</time>
      </trkpt>
      <trkpt lat="43.72884" lon="1.05773">
        <ele>235.3</ele>
        <time>2015-11-11T14:08:45Z</time>
      </trkpt>
      <trkpt lat="43.72883" lon="1.05781">
        <ele>235.7</ele>
        <time>2015-11-11T14:08:46Z</time>
      </trkpt>
      <trkpt lat="43.72883" lon="1.05791">
        <ele>236.1</ele>
        <time>2015-11-11T14:08:47Z</time>
      </trkpt>
      <trkpt lat="43.72883" lon="1.05801">
        <ele>236.1</ele>
        <time>2015-11-11T14:08:48Z</time>
      </trkpt>
      <trkpt lat="43.72882" lon="1.05812">
        <ele>236.1</ele>
        <time>2015-11-11T14:08:49Z</time>
      </trkpt>
      <trkpt lat="43.72881" lon="1.05819">
        <ele>236.2</ele>
        <time>2015-11-11T14:08:50Z</time>
      </trkpt>
      <trkpt lat="43.72882" lon="1.05825">
        <ele>236.2</ele>
        <time>2015-11-11T14:08:51Z</time>
      </trkpt>
      <trkpt lat="43.7288" lon="1.05833">
        <ele>236.4</ele>
        <time>2015-11-11T14:08:52Z</time>
      </trkpt>
      <trkpt lat="43.72879" lon="1.05844">
        <ele>236.6</ele>
        <time>2015-11-11T14:08:53Z</time>
      </trkpt>
      <trkpt lat="43.72879" lon="1.05851">
        <ele>236.5</ele>
        <time>2015-11-11T14:08:54Z</time>
      </trkpt>
      <trkpt lat="43.72879" lon="1.05863">
        <ele>236.5</ele>
        <time>2015-11-11T14:08:55Z</time>
      </trkpt>
      <trkpt lat="43.72879" lon="1.05873">
        <ele>236.5</ele>
        <time>2015-11-11T14:08:56Z</time>
      </trkpt>
      <trkpt lat="43.72879" lon="1.05885">
        <ele>236</ele>
        <time>2015-11-11T14:08:57Z</time>
      </trkpt>
      <trkpt lat="43.72879" lon="1.05898">
        <ele>235.4</ele>
        <time>2015-11-11T14:08:58Z</time>
      </trkpt>
      <trkpt lat="43.7288" lon="1.05909">
        <ele>234.8</ele>
        <time>2015-11-11T14:08:59Z</time>
      </trkpt>
      <trkpt lat="43.72881" lon="1.0592">
        <ele>234.2</ele>
        <time>2015-11-11T14:09:00Z</time>
      </trkpt>
      <trkpt lat="43.72882" lon="1.05932">
        <ele>233.6</ele>
        <time>2015-11-11T14:09:01Z</time>
      </trkpt>
      <trkpt lat="43.72883" lon="1.05942">
        <ele>233</ele>
        <time>2015-11-11T14:09:02Z</time>
      </trkpt>
      <trkpt lat="43.72885" lon="1.05953">
        <ele>232.4</ele>
        <time>2015-11-11T14:09:03Z</time>
      </trkpt>
      <trkpt lat="43.72886" lon="1.05963">
        <ele>231.9</ele>
        <time>2015-11-11T14:09:04Z</time>
      </trkpt>
      <trkpt lat="43.72888" lon="1.05976">
        <ele>231.3</ele>
        <time>2015-11-11T14:09:05Z</time>
      </trkpt>
      <trkpt lat="43.7289" lon="1.05987">
        <ele>230.8</ele>
        <time>2015-11-11T14:09:06Z</time>
      </trkpt>
      <trkpt lat="43.72892" lon="1.05998">
        <ele>230.3</ele>
        <time>2015-11-11T14:09:07Z</time>
      </trkpt>
      <trkpt lat="43.72894" lon="1.0601">
        <ele>229.8</ele>
        <time>2015-11-11T14:09:08Z</time>
      </trkpt>
      <trkpt lat="43.72896" lon="1.06021">
        <ele>229.4</ele>
        <time>2015-11-11T14:09:09Z</time>
      </trkpt>
      <trkpt lat="43.72897" lon="1.06032">
        <ele>228.9</ele>
        <time>2015-11-11T14:09:10Z</time>
      </trkpt>
      <trkpt lat="43.72898" lon="1.06043">
        <ele>228.6</ele>
        <time>2015-11-11T14:09:11Z</time>
      </trkpt>
      <trkpt lat="43.729" lon="1.06054">
        <ele>228.2</ele>
        <time>2015-11-11T14:09:12Z</time>
      </trkpt>
      <trkpt lat="43.72902" lon="1.06066">
        <ele>227.7</ele>
        <time>2015-11-11T14:09:13Z</time>
      </trkpt>
      <trkpt lat="43.72903" lon="1.06076">
        <ele>227.4</ele>
        <time>2015-11-11T14:09:14Z</time>
      </trkpt>
      <trkpt lat="43.72905" lon="1.06086">
        <ele>227</ele>
        <time>2015-11-11T14:09:15Z</time>
      </trkpt>
      <trkpt lat="43.72909" lon="1.06097">
        <ele>226.5</ele>
        <time>2015-11-11T14:09:16Z</time>
      </trkpt>
      <trkpt lat="43.72913" lon="1.06107">
        <ele>226.1</ele>
        <time>2015-11-11T14:09:17Z</time>
      </trkpt>
      <trkpt lat="43.72916" lon="1.06113">
        <ele>225.8</ele>
        <time>2015-11-11T14:09:18Z</time>
      </trkpt>
      <trkpt lat="43.72919" lon="1.06123">
        <ele>225.5</ele>
        <time>2015-11-11T14:09:19Z</time>
      </trkpt>
      <trkpt lat="43.7292" lon="1.06133">
        <ele>224.9</ele>
        <time>2015-11-11T14:09:20Z</time>
      </trkpt>
      <trkpt lat="43.72924" lon="1.06142">
        <ele>224.2</ele>
        <time>2015-11-11T14:09:21Z</time>
      </trkpt>
      <trkpt lat="43.72928" lon="1.06152">
        <ele>223.6</ele>
        <time>2015-11-11T14:09:22Z</time>
      </trkpt>
      <trkpt lat="43.72933" lon="1.06163">
        <ele>222.8</ele>
        <time>2015-11-11T14:09:23Z</time>
      </trkpt>
      <trkpt lat="43.72937" lon="1.06175">
        <ele>222.1</ele>
        <time>2015-11-11T14:09:24Z</time>
      </trkpt>
      <trkpt lat="43.72942" lon="1.06186">
        <ele>221.4</ele>
        <time>2015-11-11T14:09:25Z</time>
      </trkpt>
      <trkpt lat="43.72945" lon="1.06195">
        <ele>220.9</ele>
        <time>2015-11-11T14:09:26Z</time>
      </trkpt>
      <trkpt lat="43.72948" lon="1.06204">
        <ele>220.3</ele>
        <time>2015-11-11T14:09:27Z</time>
      </trkpt>
      <trkpt lat="43.72953" lon="1.06206">
        <ele>220.2</ele>
        <time>2015-11-11T14:09:28Z</time>
      </trkpt>
      <trkpt lat="43.72954" lon="1.06218">
        <ele>219.9</ele>
        <time>2015-11-11T14:09:29Z</time>
      </trkpt>
      <trkpt lat="43.72956" lon="1.06231">
        <ele>219.7</ele>
        <time>2015-11-11T14:09:30Z</time>
      </trkpt>
      <trkpt lat="43.72958" lon="1.0624">
        <ele>219.6</ele>
        <time>2015-11-11T14:09:31Z</time>
      </trkpt>
      <trkpt lat="43.7296" lon="1.06248">
        <ele>219.5</ele>
        <time>2015-11-11T14:09:32Z</time>
      </trkpt>
      <trkpt lat="43.72962" lon="1.06256">
        <ele>219.4</ele>
        <time>2015-11-11T14:09:33Z</time>
      </trkpt>
      <trkpt lat="43.72963" lon="1.06267">
        <ele>219.3</ele>
        <time>2015-11-11T14:09:34Z</time>
      </trkpt>
      <trkpt lat="43.72966" lon="1.06278">
        <ele>219.1</ele>
        <time>2015-11-11T14:09:35Z</time>
      </trkpt>
      <trkpt lat="43.72969" lon="1.06286">
        <ele>219</ele>
        <time>2015-11-11T14:09:36Z</time>
      </trkpt>
      <trkpt lat="43.72972" lon="1.06295">
        <ele>218.9</ele>
        <time>2015-11-11T14:09:37Z</time>
      </trkpt>
      <trkpt lat="43.72974" lon="1.06305">
        <ele>218.5</ele>
        <time>2015-11-11T14:09:38Z</time>
      </trkpt>
      <trkpt lat="43.72977" lon="1.06313">
        <ele>218.3</ele>
        <time>2015-11-11T14:09:39Z</time>
      </trkpt>
      <trkpt lat="43.72977" lon="1.06322">
        <ele>217.9</ele>
        <time>2015-11-11T14:09:40Z</time>
      </trkpt>
      <trkpt lat="43.72979" lon="1.0633">
        <ele>217.7</ele>
        <time>2015-11-11T14:09:41Z</time>
      </trkpt>
      <trkpt lat="43.72982" lon="1.06339">
        <ele>217.5</ele>
        <time>2015-11-11T14:09:42Z</time>
      </trkpt>
      <trkpt lat="43.72983" lon="1.0635">
        <ele>217.2</ele>
        <time>2015-11-11T14:09:43Z</time>
      </trkpt>
      <trkpt lat="43.72984" lon="1.0636">
        <ele>217</ele>
        <time>2015-11-11T14:09:44Z</time>
      </trkpt>
      <trkpt lat="43.72986" lon="1.0637">
        <ele>216.8</ele>
        <time>2015-11-11T14:09:45Z</time>
      </trkpt>
      <trkpt lat="43.72988" lon="1.0638">
        <ele>216.8</ele>
        <time>2015-11-11T14:09:46Z</time>
      </trkpt>
      <trkpt lat="43.72991" lon="1.06388">
        <ele>216.9</ele>
        <time>2015-11-11T14:09:47Z</time>
      </trkpt>
      <trkpt lat="43.72993" lon="1.06399">
        <ele>217</ele>
        <time>2015-11-11T14:09:48Z</time>
      </trkpt>
      <trkpt lat="43.72995" lon="1.06406">
        <ele>217.1</ele>
        <time>2015-11-11T14:09:49Z</time>
      </trkpt>
      <trkpt lat="43.72997" lon="1.06413">
        <ele>217.2</ele>
        <time>2015-11-11T14:09:50Z</time>
      </trkpt>
      <trkpt lat="43.72998" lon="1.06421">
        <ele>217.3</ele>
        <time>2015-11-11T14:09:51Z</time>
      </trkpt>
      <trkpt lat="43.72999" lon="1.06431">
        <ele>217.4</ele>
        <time>2015-11-11T14:09:52Z</time>
      </trkpt>
      <trkpt lat="43.73" lon="1.0644">
        <ele>217.5</ele>
        <time>2015-11-11T14:09:53Z</time>
      </trkpt>
      <trkpt lat="43.73001" lon="1.06449">
        <ele>217.6</ele>
        <time>2015-11-11T14:09:54Z</time>
      </trkpt>
      <trkpt lat="43.73002" lon="1.06459">
        <ele>217.7</ele>
        <time>2015-11-11T14:09:55Z</time>
      </trkpt>
      <trkpt lat="43.73002" lon="1.06464">
        <ele>217.6</ele>
        <time>2015-11-11T14:09:56Z</time>
      </trkpt>
      <trkpt lat="43.73003" lon="1.06474">
        <ele>217.6</ele>
        <time>2015-11-11T14:09:57Z</time>
      </trkpt>
      <trkpt lat="43.73004" lon="1.06485">
        <ele>217.6</ele>
        <time>2015-11-11T14:09:58Z</time>
      </trkpt>
      <trkpt lat="43.73005" lon="1.06494">
        <ele>217.5</ele>
        <time>2015-11-11T14:09:59Z</time>
      </trkpt>
      <trkpt lat="43.73002" lon="1.06504">
        <ele>217.2</ele>
        <time>2015-11-11T14:10:00Z</time>
      </trkpt>
      <trkpt lat="43.73005" lon="1.06509">
        <ele>217.4</ele>
        <time>2015-11-11T14:10:01Z</time>
      </trkpt>
      <trkpt lat="43.73008" lon="1.06521">
        <ele>217.4</ele>
        <time>2015-11-11T14:10:02Z</time>
      </trkpt>
      <trkpt lat="43.73011" lon="1.06533">
        <ele>217.5</ele>
        <time>2015-11-11T14:10:03Z</time>
      </trkpt>
      <trkpt lat="43.73013" lon="1.06542">
        <ele>217.6</ele>
        <time>2015-11-11T14:10:04Z</time>
      </trkpt>
      <trkpt lat="43.73016" lon="1.06552">
        <ele>217.7</ele>
        <time>2015-11-11T14:10:05Z</time>
      </trkpt>
      <trkpt lat="43.7302" lon="1.06565">
        <ele>217.8</ele>
        <time>2015-11-11T14:10:06Z</time>
      </trkpt>
      <trkpt lat="43.73022" lon="1.06575">
        <ele>217.8</ele>
        <time>2015-11-11T14:10:07Z</time>
      </trkpt>
      <trkpt lat="43.73023" lon="1.06585">
        <ele>217.7</ele>
        <time>2015-11-11T14:10:08Z</time>
      </trkpt>
      <trkpt lat="43.73027" lon="1.06595">
        <ele>217.8</ele>
        <time>2015-11-11T14:10:09Z</time>
      </trkpt>
      <trkpt lat="43.7303" lon="1.06605">
        <ele>217.8</ele>
        <time>2015-11-11T14:10:10Z</time>
      </trkpt>
      <trkpt lat="43.73032" lon="1.06617">
        <ele>217.7</ele>
        <time>2015-11-11T14:10:11Z</time>
      </trkpt>
      <trkpt lat="43.73035" lon="1.06628">
        <ele>217.7</ele>
        <time>2015-11-11T14:10:12Z</time>
      </trkpt>
      <trkpt lat="43.73039" lon="1.06641">
        <ele>218</ele>
        <time>2015-11-11T14:10:13Z</time>
      </trkpt>
      <trkpt lat="43.7304" lon="1.06651">
        <ele>218.2</ele>
        <time>2015-11-11T14:10:14Z</time>
      </trkpt>
      <trkpt lat="43.73043" lon="1.06661">
        <ele>218.4</ele>
        <time>2015-11-11T14:10:15Z</time>
      </trkpt>
      <trkpt lat="43.73044" lon="1.06672">
        <ele>218.3</ele>
        <time>2015-11-11T14:10:16Z</time>
      </trkpt>
      <trkpt lat="43.73047" lon="1.06685">
        <ele>218.2</ele>
        <time>2015-11-11T14:10:17Z</time>
      </trkpt>
      <trkpt lat="43.7305" lon="1.06696">
        <ele>218.1</ele>
        <time>2015-11-11T14:10:18Z</time>
      </trkpt>
      <trkpt lat="43.73052" lon="1.06708">
        <ele>218</ele>
        <time>2015-11-11T14:10:19Z</time>
      </trkpt>
      <trkpt lat="43.73055" lon="1.06717">
        <ele>217.5</ele>
        <time>2015-11-11T14:10:20Z</time>
      </trkpt>
      <trkpt lat="43.73057" lon="1.06729">
        <ele>217</ele>
        <time>2015-11-11T14:10:21Z</time>
      </trkpt>
      <trkpt lat="43.73058" lon="1.0674">
        <ele>216.6</ele>
        <time>2015-11-11T14:10:22Z</time>
      </trkpt>
      <trkpt lat="43.73061" lon="1.06752">
        <ele>216</ele>
        <time>2015-11-11T14:10:23Z</time>
      </trkpt>
      <trkpt lat="43.73063" lon="1.06763">
        <ele>215.4</ele>
        <time>2015-11-11T14:10:24Z</time>
      </trkpt>
      <trkpt lat="43.73067" lon="1.06775">
        <ele>214.7</ele>
        <time>2015-11-11T14:10:25Z</time>
      </trkpt>
      <trkpt lat="43.73069" lon="1.06787">
        <ele>214.2</ele>
        <time>2015-11-11T14:10:26Z</time>
      </trkpt>
      <trkpt lat="43.73071" lon="1.06797">
        <ele>213.5</ele>
        <time>2015-11-11T14:10:27Z</time>
      </trkpt>
      <trkpt lat="43.73074" lon="1.06809">
        <ele>212.6</ele>
        <time>2015-11-11T14:10:28Z</time>
      </trkpt>
      <trkpt lat="43.73075" lon="1.0682">
        <ele>211.8</ele>
        <time>2015-11-11T14:10:29Z</time>
      </trkpt>
      <trkpt lat="43.73078" lon="1.06833">
        <ele>210.9</ele>
        <time>2015-11-11T14:10:30Z</time>
      </trkpt>
      <trkpt lat="43.7308" lon="1.06847">
        <ele>210.1</ele>
        <time>2015-11-11T14:10:31Z</time>
      </trkpt>
      <trkpt lat="43.73082" lon="1.06857">
        <ele>209.4</ele>
        <time>2015-11-11T14:10:32Z</time>
      </trkpt>
      <trkpt lat="43.73084" lon="1.06868">
        <ele>208.8</ele>
        <time>2015-11-11T14:10:33Z</time>
      </trkpt>
      <trkpt lat="43.73086" lon="1.0688">
        <ele>208.2</ele>
        <time>2015-11-11T14:10:34Z</time>
      </trkpt>
      <trkpt lat="43.7309" lon="1.06891">
        <ele>207.7</ele>
        <time>2015-11-11T14:10:35Z</time>
      </trkpt>
      <trkpt lat="43.73095" lon="1.06903">
        <ele>207.2</ele>
        <time>2015-11-11T14:10:36Z</time>
      </trkpt>
      <trkpt lat="43.73098" lon="1.06913">
        <ele>206.8</ele>
        <time>2015-11-11T14:10:37Z</time>
      </trkpt>
      <trkpt lat="43.73102" lon="1.06924">
        <ele>206.4</ele>
        <time>2015-11-11T14:10:38Z</time>
      </trkpt>
      <trkpt lat="43.73105" lon="1.06935">
        <ele>206.1</ele>
        <time>2015-11-11T14:10:39Z</time>
      </trkpt>
      <trkpt lat="43.7311" lon="1.06945">
        <ele>205.9</ele>
        <time>2015-11-11T14:10:40Z</time>
      </trkpt>
      <trkpt lat="43.73113" lon="1.06953">
        <ele>205.8</ele>
        <time>2015-11-11T14:10:41Z</time>
      </trkpt>
      <trkpt lat="43.73118" lon="1.06963">
        <ele>205.7</ele>
        <time>2015-11-11T14:10:42Z</time>
      </trkpt>
      <trkpt lat="43.73122" lon="1.06971">
        <ele>205.6</ele>
        <time>2015-11-11T14:10:43Z</time>
      </trkpt>
      <trkpt lat="43.73125" lon="1.06979">
        <ele>205.5</ele>
        <time>2015-11-11T14:10:44Z</time>
      </trkpt>
      <trkpt lat="43.73131" lon="1.0699">
        <ele>205.3</ele>
        <time>2015-11-11T14:10:45Z</time>
      </trkpt>
      <trkpt lat="43.73134" lon="1.06996">
        <ele>205.3</ele>
        <time>2015-11-11T14:10:46Z</time>
      </trkpt>
      <trkpt lat="43.73136" lon="1.07004">
        <ele>205.1</ele>
        <time>2015-11-11T14:10:47Z</time>
      </trkpt>
      <trkpt lat="43.73141" lon="1.07011">
        <ele>205.1</ele>
        <time>2015-11-11T14:10:48Z</time>
      </trkpt>
      <trkpt lat="43.73145" lon="1.0702">
        <ele>204.9</ele>
        <time>2015-11-11T14:10:49Z</time>
      </trkpt>
      <trkpt lat="43.73148" lon="1.07029">
        <ele>204.8</ele>
        <time>2015-11-11T14:10:50Z</time>
      </trkpt>
      <trkpt lat="43.73151" lon="1.07036">
        <ele>204.7</ele>
        <time>2015-11-11T14:10:51Z</time>
      </trkpt>
      <trkpt lat="43.73153" lon="1.07044">
        <ele>204.6</ele>
        <time>2015-11-11T14:10:52Z</time>
      </trkpt>
      <trkpt lat="43.73156" lon="1.07051">
        <ele>204.6</ele>
        <time>2015-11-11T14:10:53Z</time>
      </trkpt>
      <trkpt lat="43.73159" lon="1.07059">
        <ele>204.6</ele>
        <time>2015-11-11T14:10:54Z</time>
      </trkpt>
      <trkpt lat="43.73162" lon="1.07067">
        <ele>204.6</ele>
        <time>2015-11-11T14:10:55Z</time>
      </trkpt>
      <trkpt lat="43.73164" lon="1.07075">
        <ele>204.5</ele>
        <time>2015-11-11T14:10:56Z</time>
      </trkpt>
      <trkpt lat="43.73167" lon="1.07083">
        <ele>204.5</ele>
        <time>2015-11-11T14:10:57Z</time>
      </trkpt>
      <trkpt lat="43.7317" lon="1.07091">
        <ele>204.5</ele>
        <time>2015-11-11T14:10:58Z</time>
      </trkpt>
      <trkpt lat="43.73172" lon="1.07099">
        <ele>204.4</ele>
        <time>2015-11-11T14:10:59Z</time>
      </trkpt>
      <trkpt lat="43.73173" lon="1.07108">
        <ele>204.4</ele>
        <time>2015-11-11T14:11:00Z</time>
      </trkpt>
      <trkpt lat="43.73176" lon="1.07117">
        <ele>204.3</ele>
        <time>2015-11-11T14:11:01Z</time>
      </trkpt>
      <trkpt lat="43.73178" lon="1.07125">
        <ele>204.3</ele>
        <time>2015-11-11T14:11:02Z</time>
      </trkpt>
      <trkpt lat="43.73181" lon="1.07133">
        <ele>204.1</ele>
        <time>2015-11-11T14:11:03Z</time>
      </trkpt>
      <trkpt lat="43.73182" lon="1.07144">
        <ele>203.8</ele>
        <time>2015-11-11T14:11:04Z</time>
      </trkpt>
      <trkpt lat="43.73184" lon="1.07153">
        <ele>203.6</ele>
        <time>2015-11-11T14:11:05Z</time>
      </trkpt>
      <trkpt lat="43.73187" lon="1.07162">
        <ele>203.4</ele>
        <time>2015-11-11T14:11:06Z</time>
      </trkpt>
      <trkpt lat="43.73189" lon="1.07171">
        <ele>203.1</ele>
        <time>2015-11-11T14:11:07Z</time>
      </trkpt>
      <trkpt lat="43.73191" lon="1.07181">
        <ele>202.9</ele>
        <time>2015-11-11T14:11:08Z</time>
      </trkpt>
      <trkpt lat="43.73192" lon="1.07191">
        <ele>202.5</ele>
        <time>2015-11-11T14:11:09Z</time>
      </trkpt>
      <trkpt lat="43.73194" lon="1.07203">
        <ele>202.2</ele>
        <time>2015-11-11T14:11:10Z</time>
      </trkpt>
      <trkpt lat="43.73195" lon="1.07212">
        <ele>201.8</ele>
        <time>2015-11-11T14:11:11Z</time>
      </trkpt>
      <trkpt lat="43.73196" lon="1.07222">
        <ele>201.4</ele>
        <time>2015-11-11T14:11:12Z</time>
      </trkpt>
      <trkpt lat="43.73197" lon="1.07234">
        <ele>201</ele>
        <time>2015-11-11T14:11:13Z</time>
      </trkpt>
      <trkpt lat="43.73197" lon="1.07245">
        <ele>200.6</ele>
        <time>2015-11-11T14:11:14Z</time>
      </trkpt>
      <trkpt lat="43.73199" lon="1.07254">
        <ele>200.2</ele>
        <time>2015-11-11T14:11:15Z</time>
      </trkpt>
      <trkpt lat="43.73199" lon="1.07264">
        <ele>199.9</ele>
        <time>2015-11-11T14:11:16Z</time>
      </trkpt>
      <trkpt lat="43.73198" lon="1.07273">
        <ele>199.5</ele>
        <time>2015-11-11T14:11:17Z</time>
      </trkpt>
      <trkpt lat="43.73198" lon="1.07283">
        <ele>199.1</ele>
        <time>2015-11-11T14:11:18Z</time>
      </trkpt>
      <trkpt lat="43.73197" lon="1.07293">
        <ele>198.7</ele>
        <time>2015-11-11T14:11:19Z</time>
      </trkpt>
      <trkpt lat="43.73197" lon="1.07303">
        <ele>198.4</ele>
        <time>2015-11-11T14:11:20Z</time>
      </trkpt>
      <trkpt lat="43.73197" lon="1.07311">
        <ele>198.2</ele>
        <time>2015-11-11T14:11:21Z</time>
      </trkpt>
      <trkpt lat="43.73199" lon="1.0732">
        <ele>198</ele>
        <time>2015-11-11T14:11:22Z</time>
      </trkpt>
      <trkpt lat="43.73199" lon="1.0733">
        <ele>197.7</ele>
        <time>2015-11-11T14:11:23Z</time>
      </trkpt>
      <trkpt lat="43.73199" lon="1.07341">
        <ele>197.4</ele>
        <time>2015-11-11T14:11:24Z</time>
      </trkpt>
      <trkpt lat="43.732" lon="1.07349">
        <ele>197.2</ele>
        <time>2015-11-11T14:11:25Z</time>
      </trkpt>
      <trkpt lat="43.73201" lon="1.07358">
        <ele>197</ele>
        <time>2015-11-11T14:11:26Z</time>
      </trkpt>
      <trkpt lat="43.73202" lon="1.07366">
        <ele>196.9</ele>
        <time>2015-11-11T14:11:27Z</time>
      </trkpt>
      <trkpt lat="43.73203" lon="1.07376">
        <ele>196.6</ele>
        <time>2015-11-11T14:11:28Z</time>
      </trkpt>
      <trkpt lat="43.73204" lon="1.07385">
        <ele>196.3</ele>
        <time>2015-11-11T14:11:29Z</time>
      </trkpt>
      <trkpt lat="43.73206" lon="1.07398">
        <ele>196</ele>
        <time>2015-11-11T14:11:30Z</time>
      </trkpt>
      <trkpt lat="43.73208" lon="1.07408">
        <ele>195.8</ele>
        <time>2015-11-11T14:11:31Z</time>
      </trkpt>
      <trkpt lat="43.73211" lon="1.07417">
        <ele>195.7</ele>
        <time>2015-11-11T14:11:32Z</time>
      </trkpt>
      <trkpt lat="43.73215" lon="1.07427">
        <ele>195.6</ele>
        <time>2015-11-11T14:11:33Z</time>
      </trkpt>
      <trkpt lat="43.73218" lon="1.07437">
        <ele>195.5</ele>
        <time>2015-11-11T14:11:34Z</time>
      </trkpt>
      <trkpt lat="43.73222" lon="1.07448">
        <ele>195.5</ele>
        <time>2015-11-11T14:11:35Z</time>
      </trkpt>
      <trkpt lat="43.73226" lon="1.07458">
        <ele>195.5</ele>
        <time>2015-11-11T14:11:36Z</time>
      </trkpt>
      <trkpt lat="43.73229" lon="1.07466">
        <ele>195.2</ele>
        <time>2015-11-11T14:11:37Z</time>
      </trkpt>
      <trkpt lat="43.73233" lon="1.07476">
        <ele>194.8</ele>
        <time>2015-11-11T14:11:38Z</time>
      </trkpt>
      <trkpt lat="43.73245" lon="1.07509">
        <ele>193.9</ele>
        <time>2015-11-11T14:11:41Z</time>
      </trkpt>
      <trkpt lat="43.7325" lon="1.0752">
        <ele>193.8</ele>
        <time>2015-11-11T14:11:42Z</time>
      </trkpt>
      <trkpt lat="43.73256" lon="1.07529">
        <ele>193.9</ele>
        <time>2015-11-11T14:11:43Z</time>
      </trkpt>
      <trkpt lat="43.73262" lon="1.07539">
        <ele>194.2</ele>
        <time>2015-11-11T14:11:44Z</time>
      </trkpt>
      <trkpt lat="43.73269" lon="1.07549">
        <ele>194.4</ele>
        <time>2015-11-11T14:11:45Z</time>
      </trkpt>
      <trkpt lat="43.73274" lon="1.07558">
        <ele>194.3</ele>
        <time>2015-11-11T14:11:46Z</time>
      </trkpt>
      <trkpt lat="43.73281" lon="1.07565">
        <ele>194.5</ele>
        <time>2015-11-11T14:11:47Z</time>
      </trkpt>
      <trkpt lat="43.73289" lon="1.07574">
        <ele>194.5</ele>
        <time>2015-11-11T14:11:48Z</time>
      </trkpt>
      <trkpt lat="43.73296" lon="1.07582">
        <ele>194.2</ele>
        <time>2015-11-11T14:11:49Z</time>
      </trkpt>
      <trkpt lat="43.73301" lon="1.0759">
        <ele>193.4</ele>
        <time>2015-11-11T14:11:50Z</time>
      </trkpt>
      <trkpt lat="43.73307" lon="1.07597">
        <ele>192.8</ele>
        <time>2015-11-11T14:11:51Z</time>
      </trkpt>
      <trkpt lat="43.73314" lon="1.07605">
        <ele>192.2</ele>
        <time>2015-11-11T14:11:52Z</time>
      </trkpt>
      <trkpt lat="43.73322" lon="1.07614">
        <ele>191.6</ele>
        <time>2015-11-11T14:11:53Z</time>
      </trkpt>
      <trkpt lat="43.7333" lon="1.07621">
        <ele>191.2</ele>
        <time>2015-11-11T14:11:54Z</time>
      </trkpt>
      <trkpt lat="43.73339" lon="1.0763">
        <ele>190.8</ele>
        <time>2015-11-11T14:11:55Z</time>
      </trkpt>
      <trkpt lat="43.73348" lon="1.07639">
        <ele>190.4</ele>
        <time>2015-11-11T14:11:56Z</time>
      </trkpt>
      <trkpt lat="43.73356" lon="1.07648">
        <ele>190</ele>
        <time>2015-11-11T14:11:57Z</time>
      </trkpt>
      <trkpt lat="43.73363" lon="1.07658">
        <ele>189.6</ele>
        <time>2015-11-11T14:11:58Z</time>
      </trkpt>
      <trkpt lat="43.73372" lon="1.07667">
        <ele>189.3</ele>
        <time>2015-11-11T14:11:59Z</time>
      </trkpt>
      <trkpt lat="43.7338" lon="1.07676">
        <ele>189.2</ele>
        <time>2015-11-11T14:12:00Z</time>
      </trkpt>
      <trkpt lat="43.73387" lon="1.07686">
        <ele>189.2</ele>
        <time>2015-11-11T14:12:01Z</time>
      </trkpt>
      <trkpt lat="43.73396" lon="1.07696">
        <ele>189.4</ele>
        <time>2015-11-11T14:12:02Z</time>
      </trkpt>
      <trkpt lat="43.73404" lon="1.07707">
        <ele>189.4</ele>
        <time>2015-11-11T14:12:03Z</time>
      </trkpt>
      <trkpt lat="43.73409" lon="1.0772">
        <ele>189</ele>
        <time>2015-11-11T14:12:04Z</time>
      </trkpt>
      <trkpt lat="43.73415" lon="1.07731">
        <ele>188.6</ele>
        <time>2015-11-11T14:12:05Z</time>
      </trkpt>
      <trkpt lat="43.7342" lon="1.07742">
        <ele>188.2</ele>
        <time>2015-11-11T14:12:06Z</time>
      </trkpt>
      <trkpt lat="43.73426" lon="1.07753">
        <ele>187.7</ele>
        <time>2015-11-11T14:12:07Z</time>
      </trkpt>
      <trkpt lat="43.73433" lon="1.07765">
        <ele>187.4</ele>
        <time>2015-11-11T14:12:08Z</time>
      </trkpt>
      <trkpt lat="43.7344" lon="1.07776">
        <ele>186.9</ele>
        <time>2015-11-11T14:12:09Z</time>
      </trkpt>
      <trkpt lat="43.73448" lon="1.07785">
        <ele>186.8</ele>
        <time>2015-11-11T14:12:10Z</time>
      </trkpt>
      <trkpt lat="43.73454" lon="1.07797">
        <ele>186.1</ele>
        <time>2015-11-11T14:12:11Z</time>
      </trkpt>
      <trkpt lat="43.73459" lon="1.07809">
        <ele>185.1</ele>
        <time>2015-11-11T14:12:12Z</time>
      </trkpt>
      <trkpt lat="43.73464" lon="1.07823">
        <ele>184</ele>
        <time>2015-11-11T14:12:13Z</time>
      </trkpt>
      <trkpt lat="43.73468" lon="1.07852">
        <ele>181.2</ele>
        <time>2015-11-11T14:12:15Z</time>
      </trkpt>
      <trkpt lat="43.73467" lon="1.07864">
        <ele>179.7</ele>
        <time>2015-11-11T14:12:16Z</time>
      </trkpt>
      <trkpt lat="43.73464" lon="1.07879">
        <ele>178.3</ele>
        <time>2015-11-11T14:12:17Z</time>
      </trkpt>
      <trkpt lat="43.73461" lon="1.07892">
        <ele>177.9</ele>
        <time>2015-11-11T14:12:18Z</time>
      </trkpt>
      <trkpt lat="43.73457" lon="1.07904">
        <ele>177.7</ele>
        <time>2015-11-11T14:12:19Z</time>
      </trkpt>
      <trkpt lat="43.73453" lon="1.07915">
        <ele>177.9</ele>
        <time>2015-11-11T14:12:20Z</time>
      </trkpt>
      <trkpt lat="43.7345" lon="1.07927">
        <ele>177.9</ele>
        <time>2015-11-11T14:12:21Z</time>
      </trkpt>
      <trkpt lat="43.73449" lon="1.07944">
        <ele>177.8</ele>
        <time>2015-11-11T14:12:22Z</time>
      </trkpt>
      <trkpt lat="43.73448" lon="1.07954">
        <ele>177.7</ele>
        <time>2015-11-11T14:12:23Z</time>
      </trkpt>
      <trkpt lat="43.73447" lon="1.07965">
        <ele>177.7</ele>
        <time>2015-11-11T14:12:24Z</time>
      </trkpt>
      <trkpt lat="43.73445" lon="1.07973">
        <ele>177.7</ele>
        <time>2015-11-11T14:12:25Z</time>
      </trkpt>
      <trkpt lat="43.73446" lon="1.07978">
        <ele>177.7</ele>
        <time>2015-11-11T14:12:26Z</time>
      </trkpt>
      <trkpt lat="43.73446" lon="1.07988">
        <ele>177.6</ele>
        <time>2015-11-11T14:12:27Z</time>
      </trkpt>
      <trkpt lat="43.73446" lon="1.07997">
        <ele>177.6</ele>
        <time>2015-11-11T14:12:28Z</time>
      </trkpt>
      <trkpt lat="43.73444" lon="1.08006">
        <ele>177.7</ele>
        <time>2015-11-11T14:12:29Z</time>
      </trkpt>
      <trkpt lat="43.73444" lon="1.08011">
        <ele>177.6</ele>
        <time>2015-11-11T14:12:30Z</time>
      </trkpt>
      <trkpt lat="43.73444" lon="1.08017">
        <ele>177.6</ele>
        <time>2015-11-11T14:12:31Z</time>
      </trkpt>
      <trkpt lat="43.73443" lon="1.08024">
        <ele>177.6</ele>
        <time>2015-11-11T14:12:32Z</time>
      </trkpt>
      <trkpt lat="43.73442" lon="1.08031">
        <ele>177.6</ele>
        <time>2015-11-11T14:12:33Z</time>
      </trkpt>
      <trkpt lat="43.73442" lon="1.08039">
        <ele>177.6</ele>
        <time>2015-11-11T14:12:34Z</time>
      </trkpt>
      <trkpt lat="43.73441" lon="1.08045">
        <ele>177.8</ele>
        <time>2015-11-11T14:12:35Z</time>
      </trkpt>
      <trkpt lat="43.73441" lon="1.08052">
        <ele>178.3</ele>
        <time>2015-11-11T14:12:36Z</time>
      </trkpt>
      <trkpt lat="43.73441" lon="1.08059">
        <ele>178.7</ele>
        <time>2015-11-11T14:12:37Z</time>
      </trkpt>
      <trkpt lat="43.7344" lon="1.08066">
        <ele>179.2</ele>
        <time>2015-11-11T14:12:38Z</time>
      </trkpt>
      <trkpt lat="43.7344" lon="1.08074">
        <ele>179.7</ele>
        <time>2015-11-11T14:12:39Z</time>
      </trkpt>
      <trkpt lat="43.7344" lon="1.08081">
        <ele>180.1</ele>
        <time>2015-11-11T14:12:40Z</time>
      </trkpt>
      <trkpt lat="43.7344" lon="1.08088">
        <ele>180.6</ele>
        <time>2015-11-11T14:12:41Z</time>
      </trkpt>
      <trkpt lat="43.73439" lon="1.08095">
        <ele>181</ele>
        <time>2015-11-11T14:12:42Z</time>
      </trkpt>
      <trkpt lat="43.73439" lon="1.08102">
        <ele>181.5</ele>
        <time>2015-11-11T14:12:43Z</time>
      </trkpt>
      <trkpt lat="43.73438" lon="1.08108">
        <ele>181.9</ele>
        <time>2015-11-11T14:12:44Z</time>
      </trkpt>
      <trkpt lat="43.73438" lon="1.08115">
        <ele>182.3</ele>
        <time>2015-11-11T14:12:45Z</time>
      </trkpt>
      <trkpt lat="43.73438" lon="1.08123">
        <ele>182.8</ele>
        <time>2015-11-11T14:12:46Z</time>
      </trkpt>
      <trkpt lat="43.73438" lon="1.08128">
        <ele>183.1</ele>
        <time>2015-11-11T14:12:47Z</time>
      </trkpt>
      <trkpt lat="43.73439" lon="1.08134">
        <ele>183.3</ele>
        <time>2015-11-11T14:12:48Z</time>
      </trkpt>
      <trkpt lat="43.73439" lon="1.0814">
        <ele>183.6</ele>
        <time>2015-11-11T14:12:49Z</time>
      </trkpt>
      <trkpt lat="43.73439" lon="1.08147">
        <ele>183.9</ele>
        <time>2015-11-11T14:12:50Z</time>
      </trkpt>
      <trkpt lat="43.73438" lon="1.08154">
        <ele>184.3</ele>
        <time>2015-11-11T14:12:51Z</time>
      </trkpt>
      <trkpt lat="43.73437" lon="1.08161">
        <ele>184.6</ele>
        <time>2015-11-11T14:12:52Z</time>
      </trkpt>
      <trkpt lat="43.73436" lon="1.08168">
        <ele>185</ele>
        <time>2015-11-11T14:12:53Z</time>
      </trkpt>
      <trkpt lat="43.73437" lon="1.08173">
        <ele>185.2</ele>
        <time>2015-11-11T14:12:54Z</time>
      </trkpt>
      <trkpt lat="43.73437" lon="1.0818">
        <ele>185.5</ele>
        <time>2015-11-11T14:12:55Z</time>
      </trkpt>
      <trkpt lat="43.73437" lon="1.08188">
        <ele>185.8</ele>
        <time>2015-11-11T14:12:56Z</time>
      </trkpt>
      <trkpt lat="43.73436" lon="1.08194">
        <ele>186.2</ele>
        <time>2015-11-11T14:12:57Z</time>
      </trkpt>
      <trkpt lat="43.73436" lon="1.08201">
        <ele>186.5</ele>
        <time>2015-11-11T14:12:58Z</time>
      </trkpt>
      <trkpt lat="43.73435" lon="1.08208">
        <ele>186.8</ele>
        <time>2015-11-11T14:12:59Z</time>
      </trkpt>
      <trkpt lat="43.73435" lon="1.08214">
        <ele>187</ele>
        <time>2015-11-11T14:13:00Z</time>
      </trkpt>
      <trkpt lat="43.73434" lon="1.08221">
        <ele>187.2</ele>
        <time>2015-11-11T14:13:01Z</time>
      </trkpt>
      <trkpt lat="43.73434" lon="1.08227">
        <ele>187.3</ele>
        <time>2015-11-11T14:13:02Z</time>
      </trkpt>
      <trkpt lat="43.73433" lon="1.08234">
        <ele>187.5</ele>
        <time>2015-11-11T14:13:03Z</time>
      </trkpt>
      <trkpt lat="43.73434" lon="1.08238">
        <ele>187.6</ele>
        <time>2015-11-11T14:13:04Z</time>
      </trkpt>
      <trkpt lat="43.73433" lon="1.08244">
        <ele>187.8</ele>
        <time>2015-11-11T14:13:05Z</time>
      </trkpt>
      <trkpt lat="43.73433" lon="1.08251">
        <ele>187.9</ele>
        <time>2015-11-11T14:13:06Z</time>
      </trkpt>
      <trkpt lat="43.73433" lon="1.08258">
        <ele>188.1</ele>
        <time>2015-11-11T14:13:07Z</time>
      </trkpt>
      <trkpt lat="43.73432" lon="1.08265">
        <ele>188.3</ele>
        <time>2015-11-11T14:13:08Z</time>
      </trkpt>
      <trkpt lat="43.73431" lon="1.08272">
        <ele>188.5</ele>
        <time>2015-11-11T14:13:09Z</time>
      </trkpt>
      <trkpt lat="43.73431" lon="1.08279">
        <ele>188.7</ele>
        <time>2015-11-11T14:13:10Z</time>
      </trkpt>
      <trkpt lat="43.73431" lon="1.08285">
        <ele>188.8</ele>
        <time>2015-11-11T14:13:11Z</time>
      </trkpt>
      <trkpt lat="43.7343" lon="1.08291">
        <ele>189</ele>
        <time>2015-11-11T14:13:12Z</time>
      </trkpt>
      <trkpt lat="43.73429" lon="1.08296">
        <ele>189.1</ele>
        <time>2015-11-11T14:13:13Z</time>
      </trkpt>
      <trkpt lat="43.7343" lon="1.08303">
        <ele>189.2</ele>
        <time>2015-11-11T14:13:14Z</time>
      </trkpt>
      <trkpt lat="43.7343" lon="1.08309">
        <ele>189.2</ele>
        <time>2015-11-11T14:13:15Z</time>
      </trkpt>
      <trkpt lat="43.73429" lon="1.08315">
        <ele>189.3</ele>
        <time>2015-11-11T14:13:16Z</time>
      </trkpt>
      <trkpt lat="43.73429" lon="1.08322">
        <ele>189.4</ele>
        <time>2015-11-11T14:13:17Z</time>
      </trkpt>
      <trkpt lat="43.73429" lon="1.0833">
        <ele>189.5</ele>
        <time>2015-11-11T14:13:18Z</time>
      </trkpt>
      <trkpt lat="43.73428" lon="1.08337">
        <ele>189.6</ele>
        <time>2015-11-11T14:13:19Z</time>
      </trkpt>
      <trkpt lat="43.73427" lon="1.08344">
        <ele>189.7</ele>
        <time>2015-11-11T14:13:20Z</time>
      </trkpt>
      <trkpt lat="43.73427" lon="1.08351">
        <ele>189.8</ele>
        <time>2015-11-11T14:13:21Z</time>
      </trkpt>
      <trkpt lat="43.73427" lon="1.08358">
        <ele>189.9</ele>
        <time>2015-11-11T14:13:22Z</time>
      </trkpt>
      <trkpt lat="43.73428" lon="1.08365">
        <ele>190</ele>
        <time>2015-11-11T14:13:23Z</time>
      </trkpt>
      <trkpt lat="43.73427" lon="1.08372">
        <ele>190.1</ele>
        <time>2015-11-11T14:13:24Z</time>
      </trkpt>
      <trkpt lat="43.73426" lon="1.08375">
        <ele>190.2</ele>
        <time>2015-11-11T14:13:25Z</time>
      </trkpt>
      <trkpt lat="43.73426" lon="1.08381">
        <ele>190.2</ele>
        <time>2015-11-11T14:13:26Z</time>
      </trkpt>
      <trkpt lat="43.73426" lon="1.08387">
        <ele>190.3</ele>
        <time>2015-11-11T14:13:27Z</time>
      </trkpt>
      <trkpt lat="43.73426" lon="1.08395">
        <ele>190.4</ele>
        <time>2015-11-11T14:13:28Z</time>
      </trkpt>
      <trkpt lat="43.73426" lon="1.08401">
        <ele>190.4</ele>
        <time>2015-11-11T14:13:29Z</time>
      </trkpt>
      <trkpt lat="43.73426" lon="1.08406">
        <ele>190.4</ele>
        <time>2015-11-11T14:13:30Z</time>
      </trkpt>
      <trkpt lat="43.73426" lon="1.08412">
        <ele>190.5</ele>
        <time>2015-11-11T14:13:31Z</time>
      </trkpt>
      <trkpt lat="43.73426" lon="1.08419">
        <ele>190.6</ele>
        <time>2015-11-11T14:13:32Z</time>
      </trkpt>
      <trkpt lat="43.73426" lon="1.08425">
        <ele>190.6</ele>
        <time>2015-11-11T14:13:33Z</time>
      </trkpt>
      <trkpt lat="43.73426" lon="1.08431">
        <ele>190.7</ele>
        <time>2015-11-11T14:13:34Z</time>
      </trkpt>
      <trkpt lat="43.73425" lon="1.08439">
        <ele>190.8</ele>
        <time>2015-11-11T14:13:35Z</time>
      </trkpt>
      <trkpt lat="43.73425" lon="1.08446">
        <ele>190.9</ele>
        <time>2015-11-11T14:13:36Z</time>
      </trkpt>
      <trkpt lat="43.73424" lon="1.08451">
        <ele>191</ele>
        <time>2015-11-11T14:13:37Z</time>
      </trkpt>
      <trkpt lat="43.73425" lon="1.08455">
        <ele>191</ele>
        <time>2015-11-11T14:13:38Z</time>
      </trkpt>
      <trkpt lat="43.73423" lon="1.08462">
        <ele>191.2</ele>
        <time>2015-11-11T14:13:39Z</time>
      </trkpt>
      <trkpt lat="43.73423" lon="1.08469">
        <ele>191.5</ele>
        <time>2015-11-11T14:13:40Z</time>
      </trkpt>
      <trkpt lat="43.73422" lon="1.08476">
        <ele>191.8</ele>
        <time>2015-11-11T14:13:41Z</time>
      </trkpt>
      <trkpt lat="43.73421" lon="1.08483">
        <ele>192</ele>
        <time>2015-11-11T14:13:42Z</time>
      </trkpt>
      <trkpt lat="43.73421" lon="1.0849">
        <ele>192.2</ele>
        <time>2015-11-11T14:13:43Z</time>
      </trkpt>
      <trkpt lat="43.73421" lon="1.08497">
        <ele>192.5</ele>
        <time>2015-11-11T14:13:44Z</time>
      </trkpt>
      <trkpt lat="43.73422" lon="1.08502">
        <ele>192.6</ele>
        <time>2015-11-11T14:13:45Z</time>
      </trkpt>
      <trkpt lat="43.73421" lon="1.08509">
        <ele>192.8</ele>
        <time>2015-11-11T14:13:46Z</time>
      </trkpt>
      <trkpt lat="43.73421" lon="1.08517">
        <ele>193.1</ele>
        <time>2015-11-11T14:13:47Z</time>
      </trkpt>
      <trkpt lat="43.7342" lon="1.08524">
        <ele>193.4</ele>
        <time>2015-11-11T14:13:48Z</time>
      </trkpt>
      <trkpt lat="43.73421" lon="1.08529">
        <ele>193.5</ele>
        <time>2015-11-11T14:13:49Z</time>
      </trkpt>
      <trkpt lat="43.73421" lon="1.08535">
        <ele>193.7</ele>
        <time>2015-11-11T14:13:50Z</time>
      </trkpt>
      <trkpt lat="43.7342" lon="1.08541">
        <ele>193.9</ele>
        <time>2015-11-11T14:13:51Z</time>
      </trkpt>
      <trkpt lat="43.7342" lon="1.08546">
        <ele>194.1</ele>
        <time>2015-11-11T14:13:52Z</time>
      </trkpt>
      <trkpt lat="43.7342" lon="1.08554">
        <ele>194.4</ele>
        <time>2015-11-11T14:13:53Z</time>
      </trkpt>
      <trkpt lat="43.73419" lon="1.0856">
        <ele>194.7</ele>
        <time>2015-11-11T14:13:54Z</time>
      </trkpt>
      <trkpt lat="43.73419" lon="1.08569">
        <ele>195.1</ele>
        <time>2015-11-11T14:13:55Z</time>
      </trkpt>
      <trkpt lat="43.73419" lon="1.08574">
        <ele>195.3</ele>
        <time>2015-11-11T14:13:56Z</time>
      </trkpt>
      <trkpt lat="43.73417" lon="1.08579">
        <ele>195.6</ele>
        <time>2015-11-11T14:13:57Z</time>
      </trkpt>
      <trkpt lat="43.73417" lon="1.08586">
        <ele>195.8</ele>
        <time>2015-11-11T14:13:58Z</time>
      </trkpt>
      <trkpt lat="43.73417" lon="1.08592">
        <ele>196.1</ele>
        <time>2015-11-11T14:13:59Z</time>
      </trkpt>
      <trkpt lat="43.73417" lon="1.08599">
        <ele>196.4</ele>
        <time>2015-11-11T14:14:00Z</time>
      </trkpt>
      <trkpt lat="43.73417" lon="1.08606">
        <ele>196.7</ele>
        <time>2015-11-11T14:14:01Z</time>
      </trkpt>
      <trkpt lat="43.73417" lon="1.08613">
        <ele>197</ele>
        <time>2015-11-11T14:14:02Z</time>
      </trkpt>
      <trkpt lat="43.73415" lon="1.08619">
        <ele>197.3</ele>
        <time>2015-11-11T14:14:03Z</time>
      </trkpt>
      <trkpt lat="43.73414" lon="1.08627">
        <ele>197.5</ele>
        <time>2015-11-11T14:14:04Z</time>
      </trkpt>
      <trkpt lat="43.73412" lon="1.08632">
        <ele>197.5</ele>
        <time>2015-11-11T14:14:05Z</time>
      </trkpt>
      <trkpt lat="43.73411" lon="1.08638">
        <ele>197.5</ele>
        <time>2015-11-11T14:14:06Z</time>
      </trkpt>
      <trkpt lat="43.7341" lon="1.08646">
        <ele>197.5</ele>
        <time>2015-11-11T14:14:07Z</time>
      </trkpt>
      <trkpt lat="43.73408" lon="1.08651">
        <ele>197.6</ele>
        <time>2015-11-11T14:14:08Z</time>
      </trkpt>
      <trkpt lat="43.73406" lon="1.08659">
        <ele>197.6</ele>
        <time>2015-11-11T14:14:09Z</time>
      </trkpt>
      <trkpt lat="43.73404" lon="1.08664">
        <ele>197.6</ele>
        <time>2015-11-11T14:14:10Z</time>
      </trkpt>
      <trkpt lat="43.73407" lon="1.08671">
        <ele>197.5</ele>
        <time>2015-11-11T14:14:11Z</time>
      </trkpt>
      <trkpt lat="43.73408" lon="1.08677">
        <ele>197.5</ele>
        <time>2015-11-11T14:14:12Z</time>
      </trkpt>
      <trkpt lat="43.73412" lon="1.08685">
        <ele>197.3</ele>
        <time>2015-11-11T14:14:13Z</time>
      </trkpt>
      <trkpt lat="43.73419" lon="1.0868">
        <ele>197.1</ele>
        <time>2015-11-11T14:14:14Z</time>
      </trkpt>
      <trkpt lat="43.73425" lon="1.08677">
        <ele>196.9</ele>
        <time>2015-11-11T14:14:15Z</time>
      </trkpt>
      <trkpt lat="43.7343" lon="1.08675">
        <ele>196.8</ele>
        <time>2015-11-11T14:14:16Z</time>
      </trkpt>
      <trkpt lat="43.73435" lon="1.08673">
        <ele>196.6</ele>
        <time>2015-11-11T14:14:17Z</time>
      </trkpt>
      <trkpt lat="43.73441" lon="1.08672">
        <ele>196.4</ele>
        <time>2015-11-11T14:14:18Z</time>
      </trkpt>
      <trkpt lat="43.73447" lon="1.0867">
        <ele>196.3</ele>
        <time>2015-11-11T14:14:19Z</time>
      </trkpt>
      <trkpt lat="43.73454" lon="1.08671">
        <ele>196</ele>
        <time>2015-11-11T14:14:20Z</time>
      </trkpt>
      <trkpt lat="43.73461" lon="1.0867">
        <ele>195.8</ele>
        <time>2015-11-11T14:14:21Z</time>
      </trkpt>
      <trkpt lat="43.73469" lon="1.0867">
        <ele>195.4</ele>
        <time>2015-11-11T14:14:22Z</time>
      </trkpt>
      <trkpt lat="43.73476" lon="1.0867">
        <ele>195</ele>
        <time>2015-11-11T14:14:23Z</time>
      </trkpt>
      <trkpt lat="43.73484" lon="1.08669">
        <ele>194.6</ele>
        <time>2015-11-11T14:14:24Z</time>
      </trkpt>
      <trkpt lat="43.73493" lon="1.08669">
        <ele>194.1</ele>
        <time>2015-11-11T14:14:25Z</time>
      </trkpt>
      <trkpt lat="43.73501" lon="1.08669">
        <ele>193.6</ele>
        <time>2015-11-11T14:14:26Z</time>
      </trkpt>
      <trkpt lat="43.73509" lon="1.08668">
        <ele>193.2</ele>
        <time>2015-11-11T14:14:27Z</time>
      </trkpt>
      <trkpt lat="43.73518" lon="1.08668">
        <ele>192.8</ele>
        <time>2015-11-11T14:14:28Z</time>
      </trkpt>
      <trkpt lat="43.73527" lon="1.08667">
        <ele>192.3</ele>
        <time>2015-11-11T14:14:29Z</time>
      </trkpt>
      <trkpt lat="43.73535" lon="1.08667">
        <ele>191.9</ele>
        <time>2015-11-11T14:14:30Z</time>
      </trkpt>
      <trkpt lat="43.73544" lon="1.08667">
        <ele>191.3</ele>
        <time>2015-11-11T14:14:31Z</time>
      </trkpt>
      <trkpt lat="43.73553" lon="1.08666">
        <ele>190.8</ele>
        <time>2015-11-11T14:14:32Z</time>
      </trkpt>
      <trkpt lat="43.73563" lon="1.08665">
        <ele>190.1</ele>
        <time>2015-11-11T14:14:33Z</time>
      </trkpt>
      <trkpt lat="43.73573" lon="1.08664">
        <ele>189.4</ele>
        <time>2015-11-11T14:14:34Z</time>
      </trkpt>
      <trkpt lat="43.73583" lon="1.08664">
        <ele>188.8</ele>
        <time>2015-11-11T14:14:35Z</time>
      </trkpt>
      <trkpt lat="43.73594" lon="1.08663">
        <ele>188</ele>
        <time>2015-11-11T14:14:36Z</time>
      </trkpt>
      <trkpt lat="43.73603" lon="1.08663">
        <ele>187.4</ele>
        <time>2015-11-11T14:14:37Z</time>
      </trkpt>
      <trkpt lat="43.73612" lon="1.08661">
        <ele>186.7</ele>
        <time>2015-11-11T14:14:38Z</time>
      </trkpt>
      <trkpt lat="43.73623" lon="1.08661">
        <ele>186</ele>
        <time>2015-11-11T14:14:39Z</time>
      </trkpt>
      <trkpt lat="43.73632" lon="1.08661">
        <ele>185.5</ele>
        <time>2015-11-11T14:14:40Z</time>
      </trkpt>
      <trkpt lat="43.73641" lon="1.0866">
        <ele>184.9</ele>
        <time>2015-11-11T14:14:41Z</time>
      </trkpt>
      <trkpt lat="43.73652" lon="1.08659">
        <ele>184.3</ele>
        <time>2015-11-11T14:14:42Z</time>
      </trkpt>
      <trkpt lat="43.73662" lon="1.08658">
        <ele>183.7</ele>
        <time>2015-11-11T14:14:43Z</time>
      </trkpt>
      <trkpt lat="43.73673" lon="1.08657">
        <ele>183.1</ele>
        <time>2015-11-11T14:14:44Z</time>
      </trkpt>
      <trkpt lat="43.73684" lon="1.08656">
        <ele>182.5</ele>
        <time>2015-11-11T14:14:45Z</time>
      </trkpt>
      <trkpt lat="43.73694" lon="1.08656">
        <ele>181.9</ele>
        <time>2015-11-11T14:14:46Z</time>
      </trkpt>
      <trkpt lat="43.73705" lon="1.08655">
        <ele>181.3</ele>
        <time>2015-11-11T14:14:47Z</time>
      </trkpt>
      <trkpt lat="43.73714" lon="1.08653">
        <ele>180.8</ele>
        <time>2015-11-11T14:14:48Z</time>
      </trkpt>
      <trkpt lat="43.73725" lon="1.08651">
        <ele>180.2</ele>
        <time>2015-11-11T14:14:49Z</time>
      </trkpt>
      <trkpt lat="43.73736" lon="1.0865">
        <ele>179.6</ele>
        <time>2015-11-11T14:14:50Z</time>
      </trkpt>
      <trkpt lat="43.73747" lon="1.08649">
        <ele>179.1</ele>
        <time>2015-11-11T14:14:51Z</time>
      </trkpt>
      <trkpt lat="43.73758" lon="1.08645">
        <ele>178.5</ele>
        <time>2015-11-11T14:14:52Z</time>
      </trkpt>
      <trkpt lat="43.73765" lon="1.08644">
        <ele>178.1</ele>
        <time>2015-11-11T14:14:53Z</time>
      </trkpt>
      <trkpt lat="43.73772" lon="1.08645">
        <ele>177.8</ele>
        <time>2015-11-11T14:14:54Z</time>
      </trkpt>
      <trkpt lat="43.7378" lon="1.08645">
        <ele>177.5</ele>
        <time>2015-11-11T14:14:55Z</time>
      </trkpt>
      <trkpt lat="43.73788" lon="1.08645">
        <ele>177.2</ele>
        <time>2015-11-11T14:14:56Z</time>
      </trkpt>
      <trkpt lat="43.73797" lon="1.08646">
        <ele>176.8</ele>
        <time>2015-11-11T14:14:57Z</time>
      </trkpt>
      <trkpt lat="43.73806" lon="1.08645">
        <ele>176.5</ele>
        <time>2015-11-11T14:14:58Z</time>
      </trkpt>
      <trkpt lat="43.73814" lon="1.08644">
        <ele>176.2</ele>
        <time>2015-11-11T14:14:59Z</time>
      </trkpt>
      <trkpt lat="43.73823" lon="1.08645">
        <ele>176</ele>
        <time>2015-11-11T14:15:00Z</time>
      </trkpt>
      <trkpt lat="43.73832" lon="1.08645">
        <ele>175.7</ele>
        <time>2015-11-11T14:15:01Z</time>
      </trkpt>
      <trkpt lat="43.7384" lon="1.08645">
        <ele>175.5</ele>
        <time>2015-11-11T14:15:02Z</time>
      </trkpt>
      <trkpt lat="43.73846" lon="1.08648">
        <ele>175.5</ele>
        <time>2015-11-11T14:15:03Z</time>
      </trkpt>
      <trkpt lat="43.73855" lon="1.08649">
        <ele>175.3</ele>
        <time>2015-11-11T14:15:04Z</time>
      </trkpt>
      <trkpt lat="43.73862" lon="1.0865">
        <ele>175.2</ele>
        <time>2015-11-11T14:15:05Z</time>
      </trkpt>
      <trkpt lat="43.7387" lon="1.08651">
        <ele>175</ele>
        <time>2015-11-11T14:15:06Z</time>
      </trkpt>
      <trkpt lat="43.73878" lon="1.08653">
        <ele>174.9</ele>
        <time>2015-11-11T14:15:07Z</time>
      </trkpt>
      <trkpt lat="43.73884" lon="1.08655">
        <ele>174.8</ele>
        <time>2015-11-11T14:15:08Z</time>
      </trkpt>
      <trkpt lat="43.73892" lon="1.08657">
        <ele>174.7</ele>
        <time>2015-11-11T14:15:09Z</time>
      </trkpt>
      <trkpt lat="43.73901" lon="1.08659">
        <ele>174.4</ele>
        <time>2015-11-11T14:15:10Z</time>
      </trkpt>
      <trkpt lat="43.73909" lon="1.0866">
        <ele>174.2</ele>
        <time>2015-11-11T14:15:11Z</time>
      </trkpt>
      <trkpt lat="43.73917" lon="1.0866">
        <ele>173.8</ele>
        <time>2015-11-11T14:15:12Z</time>
      </trkpt>
      <trkpt lat="43.73924" lon="1.0866">
        <ele>173.6</ele>
        <time>2015-11-11T14:15:13Z</time>
      </trkpt>
      <trkpt lat="43.73928" lon="1.08662">
        <ele>173.5</ele>
        <time>2015-11-11T14:15:14Z</time>
      </trkpt>
      <trkpt lat="43.73935" lon="1.08662">
        <ele>173.3</ele>
        <time>2015-11-11T14:15:15Z</time>
      </trkpt>
      <trkpt lat="43.73942" lon="1.08658">
        <ele>172.8</ele>
        <time>2015-11-11T14:15:16Z</time>
      </trkpt>
      <trkpt lat="43.73949" lon="1.08654">
        <ele>172.4</ele>
        <time>2015-11-11T14:15:17Z</time>
      </trkpt>
      <trkpt lat="43.73956" lon="1.08648">
        <ele>171.9</ele>
        <time>2015-11-11T14:15:18Z</time>
      </trkpt>
      <trkpt lat="43.73962" lon="1.08641">
        <ele>171.6</ele>
        <time>2015-11-11T14:15:19Z</time>
      </trkpt>
      <trkpt lat="43.73968" lon="1.08634">
        <ele>171.5</ele>
        <time>2015-11-11T14:15:20Z</time>
      </trkpt>
      <trkpt lat="43.73972" lon="1.08628">
        <ele>171.4</ele>
        <time>2015-11-11T14:15:21Z</time>
      </trkpt>
      <trkpt lat="43.73978" lon="1.08622">
        <ele>171.6</ele>
        <time>2015-11-11T14:15:22Z</time>
      </trkpt>
      <trkpt lat="43.73984" lon="1.08617">
        <ele>171.9</ele>
        <time>2015-11-11T14:15:23Z</time>
      </trkpt>
      <trkpt lat="43.73989" lon="1.08609">
        <ele>172.2</ele>
        <time>2015-11-11T14:15:24Z</time>
      </trkpt>
      <trkpt lat="43.73995" lon="1.08603">
        <ele>172.4</ele>
        <time>2015-11-11T14:15:25Z</time>
      </trkpt>
      <trkpt lat="43.74001" lon="1.08597">
        <ele>172.7</ele>
        <time>2015-11-11T14:15:26Z</time>
      </trkpt>
      <trkpt lat="43.74007" lon="1.08591">
        <ele>172.9</ele>
        <time>2015-11-11T14:15:27Z</time>
      </trkpt>
      <trkpt lat="43.74013" lon="1.08584">
        <ele>173.1</ele>
        <time>2015-11-11T14:15:28Z</time>
      </trkpt>
      <trkpt lat="43.74018" lon="1.08579">
        <ele>173.3</ele>
        <time>2015-11-11T14:15:29Z</time>
      </trkpt>
      <trkpt lat="43.74023" lon="1.08572">
        <ele>173.5</ele>
        <time>2015-11-11T14:15:30Z</time>
      </trkpt>
      <trkpt lat="43.74026" lon="1.08568">
        <ele>173.6</ele>
        <time>2015-11-11T14:15:31Z</time>
      </trkpt>
      <trkpt lat="43.74031" lon="1.08562">
        <ele>173.7</ele>
        <time>2015-11-11T14:15:32Z</time>
      </trkpt>
      <trkpt lat="43.74036" lon="1.08558">
        <ele>173.8</ele>
        <time>2015-11-11T14:15:33Z</time>
      </trkpt>
      <trkpt lat="43.74041" lon="1.08559">
        <ele>173.8</ele>
        <time>2015-11-11T14:15:34Z</time>
      </trkpt>
      <trkpt lat="43.74048" lon="1.08561">
        <ele>174</ele>
        <time>2015-11-11T14:15:35Z</time>
      </trkpt>
      <trkpt lat="43.74051" lon="1.08569">
        <ele>174</ele>
        <time>2015-11-11T14:15:36Z</time>
      </trkpt>
      <trkpt lat="43.74055" lon="1.08577">
        <ele>174</ele>
        <time>2015-11-11T14:15:37Z</time>
      </trkpt>
      <trkpt lat="43.7406" lon="1.08586">
        <ele>174</ele>
        <time>2015-11-11T14:15:38Z</time>
      </trkpt>
      <trkpt lat="43.74063" lon="1.08592">
        <ele>174</ele>
        <time>2015-11-11T14:15:39Z</time>
      </trkpt>
      <trkpt lat="43.74067" lon="1.08595">
        <ele>174.1</ele>
        <time>2015-11-11T14:15:40Z</time>
      </trkpt>
      <trkpt lat="43.74071" lon="1.086">
        <ele>174.1</ele>
        <time>2015-11-11T14:15:41Z</time>
      </trkpt>
      <trkpt lat="43.74075" lon="1.08607">
        <ele>174.1</ele>
        <time>2015-11-11T14:15:42Z</time>
      </trkpt>
      <trkpt lat="43.74078" lon="1.08615">
        <ele>174</ele>
        <time>2015-11-11T14:15:43Z</time>
      </trkpt>
      <trkpt lat="43.74081" lon="1.08621">
        <ele>174</ele>
        <time>2015-11-11T14:15:44Z</time>
      </trkpt>
      <trkpt lat="43.74082" lon="1.08631">
        <ele>173.9</ele>
        <time>2015-11-11T14:15:45Z</time>
      </trkpt>
      <trkpt lat="43.74086" lon="1.08635">
        <ele>174</ele>
        <time>2015-11-11T14:15:46Z</time>
      </trkpt>
      <trkpt lat="43.7409" lon="1.08642">
        <ele>174</ele>
        <time>2015-11-11T14:15:47Z</time>
      </trkpt>
      <trkpt lat="43.74095" lon="1.08649">
        <ele>174</ele>
        <time>2015-11-11T14:15:48Z</time>
      </trkpt>
      <trkpt lat="43.74097" lon="1.08658">
        <ele>173.9</ele>
        <time>2015-11-11T14:15:49Z</time>
      </trkpt>
      <trkpt lat="43.74099" lon="1.08666">
        <ele>173.9</ele>
        <time>2015-11-11T14:15:50Z</time>
      </trkpt>
      <trkpt lat="43.74102" lon="1.08675">
        <ele>173.8</ele>
        <time>2015-11-11T14:15:51Z</time>
      </trkpt>
      <trkpt lat="43.74104" lon="1.08682">
        <ele>173.8</ele>
        <time>2015-11-11T14:15:52Z</time>
      </trkpt>
      <trkpt lat="43.74106" lon="1.08689">
        <ele>173.8</ele>
        <time>2015-11-11T14:15:53Z</time>
      </trkpt>
      <trkpt lat="43.74106" lon="1.08697">
        <ele>173.7</ele>
        <time>2015-11-11T14:15:54Z</time>
      </trkpt>
      <trkpt lat="43.74109" lon="1.08704">
        <ele>173.7</ele>
        <time>2015-11-11T14:15:55Z</time>
      </trkpt>
      <trkpt lat="43.7411" lon="1.08711">
        <ele>173.7</ele>
        <time>2015-11-11T14:15:56Z</time>
      </trkpt>
      <trkpt lat="43.74112" lon="1.08718">
        <ele>173.7</ele>
        <time>2015-11-11T14:15:57Z</time>
      </trkpt>
      <trkpt lat="43.74113" lon="1.08726">
        <ele>173.8</ele>
        <time>2015-11-11T14:15:58Z</time>
      </trkpt>
      <trkpt lat="43.74113" lon="1.08733">
        <ele>173.8</ele>
        <time>2015-11-11T14:15:59Z</time>
      </trkpt>
      <trkpt lat="43.74115" lon="1.0874">
        <ele>173.9</ele>
        <time>2015-11-11T14:16:00Z</time>
      </trkpt>
      <trkpt lat="43.74117" lon="1.08749">
        <ele>173.9</ele>
        <time>2015-11-11T14:16:01Z</time>
      </trkpt>
      <trkpt lat="43.74118" lon="1.08757">
        <ele>173.9</ele>
        <time>2015-11-11T14:16:02Z</time>
      </trkpt>
      <trkpt lat="43.74121" lon="1.08763">
        <ele>174</ele>
        <time>2015-11-11T14:16:03Z</time>
      </trkpt>
      <trkpt lat="43.74121" lon="1.0877">
        <ele>174</ele>
        <time>2015-11-11T14:16:04Z</time>
      </trkpt>
      <trkpt lat="43.74123" lon="1.08777">
        <ele>174</ele>
        <time>2015-11-11T14:16:05Z</time>
      </trkpt>
      <trkpt lat="43.74124" lon="1.08785">
        <ele>174</ele>
        <time>2015-11-11T14:16:06Z</time>
      </trkpt>
      <trkpt lat="43.74125" lon="1.08793">
        <ele>174</ele>
        <time>2015-11-11T14:16:07Z</time>
      </trkpt>
      <trkpt lat="43.74126" lon="1.088">
        <ele>174</ele>
        <time>2015-11-11T14:16:08Z</time>
      </trkpt>
      <trkpt lat="43.74128" lon="1.08807">
        <ele>174.1</ele>
        <time>2015-11-11T14:16:09Z</time>
      </trkpt>
      <trkpt lat="43.74128" lon="1.08814">
        <ele>174.1</ele>
        <time>2015-11-11T14:16:10Z</time>
      </trkpt>
      <trkpt lat="43.74129" lon="1.08821">
        <ele>174.1</ele>
        <time>2015-11-11T14:16:11Z</time>
      </trkpt>
      <trkpt lat="43.74131" lon="1.08828">
        <ele>174.2</ele>
        <time>2015-11-11T14:16:12Z</time>
      </trkpt>
      <trkpt lat="43.74131" lon="1.08834">
        <ele>174.1</ele>
        <time>2015-11-11T14:16:13Z</time>
      </trkpt>
      <trkpt lat="43.74132" lon="1.0884">
        <ele>174.2</ele>
        <time>2015-11-11T14:16:14Z</time>
      </trkpt>
      <trkpt lat="43.74134" lon="1.08848">
        <ele>174.3</ele>
        <time>2015-11-11T14:16:15Z</time>
      </trkpt>
      <trkpt lat="43.74135" lon="1.08855">
        <ele>174.4</ele>
        <time>2015-11-11T14:16:16Z</time>
      </trkpt>
      <trkpt lat="43.74136" lon="1.08863">
        <ele>174.4</ele>
        <time>2015-11-11T14:16:17Z</time>
      </trkpt>
      <trkpt lat="43.74138" lon="1.08869">
        <ele>174.6</ele>
        <time>2015-11-11T14:16:18Z</time>
      </trkpt>
      <trkpt lat="43.74139" lon="1.08875">
        <ele>174.7</ele>
        <time>2015-11-11T14:16:19Z</time>
      </trkpt>
      <trkpt lat="43.7414" lon="1.08881">
        <ele>174.7</ele>
        <time>2015-11-11T14:16:20Z</time>
      </trkpt>
      <trkpt lat="43.74143" lon="1.08888">
        <ele>174.8</ele>
        <time>2015-11-11T14:16:21Z</time>
      </trkpt>
      <trkpt lat="43.74144" lon="1.08894">
        <ele>174.9</ele>
        <time>2015-11-11T14:16:22Z</time>
      </trkpt>
      <trkpt lat="43.74146" lon="1.08902">
        <ele>174.9</ele>
        <time>2015-11-11T14:16:23Z</time>
      </trkpt>
      <trkpt lat="43.74149" lon="1.08909">
        <ele>175.1</ele>
        <time>2015-11-11T14:16:24Z</time>
      </trkpt>
      <trkpt lat="43.74151" lon="1.08915">
        <ele>175.3</ele>
        <time>2015-11-11T14:16:25Z</time>
      </trkpt>
      <trkpt lat="43.74153" lon="1.08921">
        <ele>175.5</ele>
        <time>2015-11-11T14:16:26Z</time>
      </trkpt>
      <trkpt lat="43.74157" lon="1.08922">
        <ele>175.9</ele>
        <time>2015-11-11T14:16:27Z</time>
      </trkpt>
      <trkpt lat="43.74159" lon="1.08926">
        <ele>176.1</ele>
        <time>2015-11-11T14:16:28Z</time>
      </trkpt>
      <trkpt lat="43.74163" lon="1.08933">
        <ele>176.4</ele>
        <time>2015-11-11T14:16:29Z</time>
      </trkpt>
      <trkpt lat="43.74166" lon="1.08938">
        <ele>176.7</ele>
        <time>2015-11-11T14:16:30Z</time>
      </trkpt>
      <trkpt lat="43.7417" lon="1.08945">
        <ele>177.2</ele>
        <time>2015-11-11T14:16:31Z</time>
      </trkpt>
      <trkpt lat="43.74172" lon="1.08953">
        <ele>177.3</ele>
        <time>2015-11-11T14:16:32Z</time>
      </trkpt>
      <trkpt lat="43.74173" lon="1.08961">
        <ele>177.3</ele>
        <time>2015-11-11T14:16:33Z</time>
      </trkpt>
      <trkpt lat="43.74176" lon="1.08966">
        <ele>177.6</ele>
        <time>2015-11-11T14:16:34Z</time>
      </trkpt>
      <trkpt lat="43.74179" lon="1.08974">
        <ele>177.8</ele>
        <time>2015-11-11T14:16:35Z</time>
      </trkpt>
      <trkpt lat="43.74183" lon="1.0898">
        <ele>178.1</ele>
        <time>2015-11-11T14:16:36Z</time>
      </trkpt>
      <trkpt lat="43.74185" lon="1.08986">
        <ele>178.3</ele>
        <time>2015-11-11T14:16:37Z</time>
      </trkpt>
      <trkpt lat="43.74189" lon="1.0899">
        <ele>178.6</ele>
        <time>2015-11-11T14:16:38Z</time>
      </trkpt>
      <trkpt lat="43.74192" lon="1.08996">
        <ele>178.8</ele>
        <time>2015-11-11T14:16:39Z</time>
      </trkpt>
      <trkpt lat="43.74194" lon="1.09001">
        <ele>178.9</ele>
        <time>2015-11-11T14:16:40Z</time>
      </trkpt>
      <trkpt lat="43.74197" lon="1.09006">
        <ele>179.1</ele>
        <time>2015-11-11T14:16:41Z</time>
      </trkpt>
      <trkpt lat="43.74201" lon="1.09011">
        <ele>179.3</ele>
        <time>2015-11-11T14:16:42Z</time>
      </trkpt>
      <trkpt lat="43.74203" lon="1.09017">
        <ele>179.4</ele>
        <time>2015-11-11T14:16:43Z</time>
      </trkpt>
      <trkpt lat="43.74206" lon="1.09023">
        <ele>179.4</ele>
        <time>2015-11-11T14:16:44Z</time>
      </trkpt>
      <trkpt lat="43.74209" lon="1.09027">
        <ele>179.5</ele>
        <time>2015-11-11T14:16:45Z</time>
      </trkpt>
      <trkpt lat="43.74211" lon="1.09031">
        <ele>179.7</ele>
        <time>2015-11-11T14:16:46Z</time>
      </trkpt>
      <trkpt lat="43.74214" lon="1.09036">
        <ele>180</ele>
        <time>2015-11-11T14:16:47Z</time>
      </trkpt>
      <trkpt lat="43.74217" lon="1.0904">
        <ele>180.2</ele>
        <time>2015-11-11T14:16:48Z</time>
      </trkpt>
      <trkpt lat="43.74219" lon="1.09045">
        <ele>180.3</ele>
        <time>2015-11-11T14:16:49Z</time>
      </trkpt>
      <trkpt lat="43.74222" lon="1.09051">
        <ele>180.5</ele>
        <time>2015-11-11T14:16:50Z</time>
      </trkpt>
      <trkpt lat="43.74225" lon="1.09055">
        <ele>180.6</ele>
        <time>2015-11-11T14:16:51Z</time>
      </trkpt>
      <trkpt lat="43.74229" lon="1.09051">
        <ele>181.3</ele>
        <time>2015-11-11T14:16:52Z</time>
      </trkpt>
      <trkpt lat="43.74232" lon="1.09057">
        <ele>181.6</ele>
        <time>2015-11-11T14:16:53Z</time>
      </trkpt>
      <trkpt lat="43.74235" lon="1.09062">
        <ele>181.7</ele>
        <time>2015-11-11T14:16:54Z</time>
      </trkpt>
      <trkpt lat="43.74242" lon="1.09071">
        <ele>182.2</ele>
        <time>2015-11-11T14:16:55Z</time>
      </trkpt>
      <trkpt lat="43.74245" lon="1.09077">
        <ele>182.4</ele>
        <time>2015-11-11T14:16:56Z</time>
      </trkpt>
      <trkpt lat="43.74249" lon="1.09083">
        <ele>182.6</ele>
        <time>2015-11-11T14:16:57Z</time>
      </trkpt>
      <trkpt lat="43.74252" lon="1.09089">
        <ele>182.7</ele>
        <time>2015-11-11T14:16:58Z</time>
      </trkpt>
      <trkpt lat="43.74255" lon="1.09094">
        <ele>182.9</ele>
        <time>2015-11-11T14:16:59Z</time>
      </trkpt>
      <trkpt lat="43.74258" lon="1.091">
        <ele>183.1</ele>
        <time>2015-11-11T14:17:00Z</time>
      </trkpt>
      <trkpt lat="43.7426" lon="1.09107">
        <ele>183</ele>
        <time>2015-11-11T14:17:01Z</time>
      </trkpt>
      <trkpt lat="43.74263" lon="1.09113">
        <ele>183.1</ele>
        <time>2015-11-11T14:17:02Z</time>
      </trkpt>
      <trkpt lat="43.74267" lon="1.0912">
        <ele>183.2</ele>
        <time>2015-11-11T14:17:03Z</time>
      </trkpt>
      <trkpt lat="43.7427" lon="1.09126">
        <ele>183.3</ele>
        <time>2015-11-11T14:17:04Z</time>
      </trkpt>
      <trkpt lat="43.74271" lon="1.09132">
        <ele>183.2</ele>
        <time>2015-11-11T14:17:05Z</time>
      </trkpt>
      <trkpt lat="43.74275" lon="1.09138">
        <ele>183.4</ele>
        <time>2015-11-11T14:17:06Z</time>
      </trkpt>
      <trkpt lat="43.74277" lon="1.09143">
        <ele>183.4</ele>
        <time>2015-11-11T14:17:07Z</time>
      </trkpt>
      <trkpt lat="43.74277" lon="1.0915">
        <ele>183.1</ele>
        <time>2015-11-11T14:17:08Z</time>
      </trkpt>
      <trkpt lat="43.74281" lon="1.09156">
        <ele>183.3</ele>
        <time>2015-11-11T14:17:09Z</time>
      </trkpt>
      <trkpt lat="43.74284" lon="1.09161">
        <ele>183.4</ele>
        <time>2015-11-11T14:17:10Z</time>
      </trkpt>
      <trkpt lat="43.74287" lon="1.09168">
        <ele>183.4</ele>
        <time>2015-11-11T14:17:11Z</time>
      </trkpt>
      <trkpt lat="43.74289" lon="1.09174">
        <ele>183.3</ele>
        <time>2015-11-11T14:17:12Z</time>
      </trkpt>
      <trkpt lat="43.7429" lon="1.09182">
        <ele>183.1</ele>
        <time>2015-11-11T14:17:13Z</time>
      </trkpt>
      <trkpt lat="43.74294" lon="1.09191">
        <ele>183.1</ele>
        <time>2015-11-11T14:17:14Z</time>
      </trkpt>
      <trkpt lat="43.74294" lon="1.09198">
        <ele>182.8</ele>
        <time>2015-11-11T14:17:15Z</time>
      </trkpt>
      <trkpt lat="43.74296" lon="1.09204">
        <ele>182.8</ele>
        <time>2015-11-11T14:17:16Z</time>
      </trkpt>
      <trkpt lat="43.74301" lon="1.09209">
        <ele>183.1</ele>
        <time>2015-11-11T14:17:17Z</time>
      </trkpt>
      <trkpt lat="43.74305" lon="1.09214">
        <ele>183.5</ele>
        <time>2015-11-11T14:17:18Z</time>
      </trkpt>
      <trkpt lat="43.74308" lon="1.09222">
        <ele>183.6</ele>
        <time>2015-11-11T14:17:19Z</time>
      </trkpt>
      <trkpt lat="43.7431" lon="1.09228">
        <ele>183.6</ele>
        <time>2015-11-11T14:17:20Z</time>
      </trkpt>
      <trkpt lat="43.74311" lon="1.09234">
        <ele>183.7</ele>
        <time>2015-11-11T14:17:21Z</time>
      </trkpt>
      <trkpt lat="43.7431" lon="1.09238">
        <ele>183.5</ele>
        <time>2015-11-11T14:17:22Z</time>
      </trkpt>
      <trkpt lat="43.74313" lon="1.09244">
        <ele>183.6</ele>
        <time>2015-11-11T14:17:23Z</time>
      </trkpt>
      <trkpt lat="43.74316" lon="1.09252">
        <ele>184</ele>
        <time>2015-11-11T14:17:24Z</time>
      </trkpt>
      <trkpt lat="43.74319" lon="1.09259">
        <ele>184.2</ele>
        <time>2015-11-11T14:17:25Z</time>
      </trkpt>
      <trkpt lat="43.74322" lon="1.09266">
        <ele>184.6</ele>
        <time>2015-11-11T14:17:26Z</time>
      </trkpt>
      <trkpt lat="43.74325" lon="1.09274">
        <ele>184.9</ele>
        <time>2015-11-11T14:17:27Z</time>
      </trkpt>
      <trkpt lat="43.7433" lon="1.0928">
        <ele>185.6</ele>
        <time>2015-11-11T14:17:28Z</time>
      </trkpt>
      <trkpt lat="43.74332" lon="1.09287">
        <ele>185.8</ele>
        <time>2015-11-11T14:17:29Z</time>
      </trkpt>
      <trkpt lat="43.74332" lon="1.09295">
        <ele>185.6</ele>
        <time>2015-11-11T14:17:30Z</time>
      </trkpt>
      <trkpt lat="43.74333" lon="1.09302">
        <ele>185.6</ele>
        <time>2015-11-11T14:17:31Z</time>
      </trkpt>
      <trkpt lat="43.74339" lon="1.09308">
        <ele>186.3</ele>
        <time>2015-11-11T14:17:32Z</time>
      </trkpt>
      <trkpt lat="43.74342" lon="1.09315">
        <ele>186.4</ele>
        <time>2015-11-11T14:17:33Z</time>
      </trkpt>
      <trkpt lat="43.74346" lon="1.09321">
        <ele>186.8</ele>
        <time>2015-11-11T14:17:34Z</time>
      </trkpt>
      <trkpt lat="43.74349" lon="1.09328">
        <ele>187</ele>
        <time>2015-11-11T14:17:35Z</time>
      </trkpt>
      <trkpt lat="43.74353" lon="1.09335">
        <ele>187.3</ele>
        <time>2015-11-11T14:17:36Z</time>
      </trkpt>
      <trkpt lat="43.74356" lon="1.09343">
        <ele>187.4</ele>
        <time>2015-11-11T14:17:37Z</time>
      </trkpt>
      <trkpt lat="43.74359" lon="1.09351">
        <ele>187.5</ele>
        <time>2015-11-11T14:17:38Z</time>
      </trkpt>
      <trkpt lat="43.74362" lon="1.09357">
        <ele>187.9</ele>
        <time>2015-11-11T14:17:39Z</time>
      </trkpt>
      <trkpt lat="43.74365" lon="1.09364">
        <ele>187.9</ele>
        <time>2015-11-11T14:17:40Z</time>
      </trkpt>
      <trkpt lat="43.74368" lon="1.0937">
        <ele>188.1</ele>
        <time>2015-11-11T14:17:41Z</time>
      </trkpt>
      <trkpt lat="43.74371" lon="1.09379">
        <ele>188</ele>
        <time>2015-11-11T14:17:42Z</time>
      </trkpt>
      <trkpt lat="43.74374" lon="1.09387">
        <ele>187.7</ele>
        <time>2015-11-11T14:17:43Z</time>
      </trkpt>
      <trkpt lat="43.74376" lon="1.09396">
        <ele>187.4</ele>
        <time>2015-11-11T14:17:44Z</time>
      </trkpt>
      <trkpt lat="43.74383" lon="1.09403">
        <ele>187.6</ele>
        <time>2015-11-11T14:17:45Z</time>
      </trkpt>
      <trkpt lat="43.74387" lon="1.09413">
        <ele>187.2</ele>
        <time>2015-11-11T14:17:46Z</time>
      </trkpt>
      <trkpt lat="43.74393" lon="1.09421">
        <ele>187.1</ele>
        <time>2015-11-11T14:17:47Z</time>
      </trkpt>
      <trkpt lat="43.74399" lon="1.09428">
        <ele>187</ele>
        <time>2015-11-11T14:17:48Z</time>
      </trkpt>
      <trkpt lat="43.74404" lon="1.09437">
        <ele>186.7</ele>
        <time>2015-11-11T14:17:49Z</time>
      </trkpt>
      <trkpt lat="43.7441" lon="1.09447">
        <ele>186.4</ele>
        <time>2015-11-11T14:17:50Z</time>
      </trkpt>
      <trkpt lat="43.74416" lon="1.09455">
        <ele>186.3</ele>
        <time>2015-11-11T14:17:51Z</time>
      </trkpt>
      <trkpt lat="43.74422" lon="1.09463">
        <ele>186.1</ele>
        <time>2015-11-11T14:17:52Z</time>
      </trkpt>
      <trkpt lat="43.74429" lon="1.09473">
        <ele>185.8</ele>
        <time>2015-11-11T14:17:53Z</time>
      </trkpt>
      <trkpt lat="43.74435" lon="1.09484">
        <ele>185.1</ele>
        <time>2015-11-11T14:17:54Z</time>
      </trkpt>
      <trkpt lat="43.74442" lon="1.09494">
        <ele>184.6</ele>
        <time>2015-11-11T14:17:55Z</time>
      </trkpt>
      <trkpt lat="43.74447" lon="1.09498">
        <ele>184.4</ele>
        <time>2015-11-11T14:17:56Z</time>
      </trkpt>
      <trkpt lat="43.74452" lon="1.09511">
        <ele>183.3</ele>
        <time>2015-11-11T14:17:57Z</time>
      </trkpt>
      <trkpt lat="43.74458" lon="1.09518">
        <ele>182.8</ele>
        <time>2015-11-11T14:17:58Z</time>
      </trkpt>
      <trkpt lat="43.74463" lon="1.09526">
        <ele>182</ele>
        <time>2015-11-11T14:17:59Z</time>
      </trkpt>
      <trkpt lat="43.74468" lon="1.09534">
        <ele>181.4</ele>
        <time>2015-11-11T14:18:00Z</time>
      </trkpt>
      <trkpt lat="43.74472" lon="1.09538">
        <ele>181.2</ele>
        <time>2015-11-11T14:18:01Z</time>
      </trkpt>
      <trkpt lat="43.74477" lon="1.09543">
        <ele>181</ele>
        <time>2015-11-11T14:18:02Z</time>
      </trkpt>
      <trkpt lat="43.74481" lon="1.09548">
        <ele>180.9</ele>
        <time>2015-11-11T14:18:03Z</time>
      </trkpt>
      <trkpt lat="43.74484" lon="1.09553">
        <ele>180.9</ele>
        <time>2015-11-11T14:18:04Z</time>
      </trkpt>
      <trkpt lat="43.74487" lon="1.09558">
        <ele>180.8</ele>
        <time>2015-11-11T14:18:05Z</time>
      </trkpt>
      <trkpt lat="43.74491" lon="1.09561">
        <ele>180.8</ele>
        <time>2015-11-11T14:18:06Z</time>
      </trkpt>
      <trkpt lat="43.74494" lon="1.09566">
        <ele>180.7</ele>
        <time>2015-11-11T14:18:07Z</time>
      </trkpt>
      <trkpt lat="43.74498" lon="1.0957">
        <ele>180.8</ele>
        <time>2015-11-11T14:18:08Z</time>
      </trkpt>
      <trkpt lat="43.74501" lon="1.09573">
        <ele>180.9</ele>
        <time>2015-11-11T14:18:09Z</time>
      </trkpt>
      <trkpt lat="43.74504" lon="1.09576">
        <ele>180.9</ele>
        <time>2015-11-11T14:18:10Z</time>
      </trkpt>
      <trkpt lat="43.74507" lon="1.0958">
        <ele>181</ele>
        <time>2015-11-11T14:18:11Z</time>
      </trkpt>
      <trkpt lat="43.7451" lon="1.09584">
        <ele>181</ele>
        <time>2015-11-11T14:18:12Z</time>
      </trkpt>
      <trkpt lat="43.74515" lon="1.09587">
        <ele>181.2</ele>
        <time>2015-11-11T14:18:13Z</time>
      </trkpt>
      <trkpt lat="43.74518" lon="1.09592">
        <ele>181.3</ele>
        <time>2015-11-11T14:18:14Z</time>
      </trkpt>
      <trkpt lat="43.74522" lon="1.09594">
        <ele>181.5</ele>
        <time>2015-11-11T14:18:15Z</time>
      </trkpt>
      <trkpt lat="43.74526" lon="1.09598">
        <ele>181.7</ele>
        <time>2015-11-11T14:18:16Z</time>
      </trkpt>
      <trkpt lat="43.74529" lon="1.09604">
        <ele>181.7</ele>
        <time>2015-11-11T14:18:17Z</time>
      </trkpt>
      <trkpt lat="43.74533" lon="1.09608">
        <ele>181.9</ele>
        <time>2015-11-11T14:18:18Z</time>
      </trkpt>
      <trkpt lat="43.74538" lon="1.0961">
        <ele>182.2</ele>
        <time>2015-11-11T14:18:19Z</time>
      </trkpt>
      <trkpt lat="43.74543" lon="1.09612">
        <ele>182.5</ele>
        <time>2015-11-11T14:18:20Z</time>
      </trkpt>
      <trkpt lat="43.74547" lon="1.09616">
        <ele>182.6</ele>
        <time>2015-11-11T14:18:21Z</time>
      </trkpt>
      <trkpt lat="43.74551" lon="1.09619">
        <ele>182.7</ele>
        <time>2015-11-11T14:18:22Z</time>
      </trkpt>
      <trkpt lat="43.74554" lon="1.09623">
        <ele>182.7</ele>
        <time>2015-11-11T14:18:23Z</time>
      </trkpt>
      <trkpt lat="43.74558" lon="1.09627">
        <ele>182.7</ele>
        <time>2015-11-11T14:18:24Z</time>
      </trkpt>
      <trkpt lat="43.74562" lon="1.09631">
        <ele>182.7</ele>
        <time>2015-11-11T14:18:25Z</time>
      </trkpt>
      <trkpt lat="43.74566" lon="1.09635">
        <ele>182.7</ele>
        <time>2015-11-11T14:18:26Z</time>
      </trkpt>
      <trkpt lat="43.7457" lon="1.09639">
        <ele>182.7</ele>
        <time>2015-11-11T14:18:27Z</time>
      </trkpt>
      <trkpt lat="43.74575" lon="1.09643">
        <ele>182.8</ele>
        <time>2015-11-11T14:18:28Z</time>
      </trkpt>
      <trkpt lat="43.7458" lon="1.09647">
        <ele>182.9</ele>
        <time>2015-11-11T14:18:29Z</time>
      </trkpt>
      <trkpt lat="43.74584" lon="1.09652">
        <ele>182.9</ele>
        <time>2015-11-11T14:18:30Z</time>
      </trkpt>
      <trkpt lat="43.74587" lon="1.09658">
        <ele>182.8</ele>
        <time>2015-11-11T14:18:31Z</time>
      </trkpt>
      <trkpt lat="43.74595" lon="1.09662">
        <ele>183.1</ele>
        <time>2015-11-11T14:18:32Z</time>
      </trkpt>
      <trkpt lat="43.74596" lon="1.09665">
        <ele>183</ele>
        <time>2015-11-11T14:18:33Z</time>
      </trkpt>
      <trkpt lat="43.74601" lon="1.0967">
        <ele>183.1</ele>
        <time>2015-11-11T14:18:34Z</time>
      </trkpt>
      <trkpt lat="43.74605" lon="1.09673">
        <ele>183.2</ele>
        <time>2015-11-11T14:18:35Z</time>
      </trkpt>
      <trkpt lat="43.74611" lon="1.09678">
        <ele>183.3</ele>
        <time>2015-11-11T14:18:36Z</time>
      </trkpt>
      <trkpt lat="43.74617" lon="1.09679">
        <ele>183.6</ele>
        <time>2015-11-11T14:18:37Z</time>
      </trkpt>
      <trkpt lat="43.74622" lon="1.09683">
        <ele>183.7</ele>
        <time>2015-11-11T14:18:38Z</time>
      </trkpt>
      <trkpt lat="43.74628" lon="1.09685">
        <ele>184</ele>
        <time>2015-11-11T14:18:39Z</time>
      </trkpt>
      <trkpt lat="43.74632" lon="1.0969">
        <ele>184.2</ele>
        <time>2015-11-11T14:18:40Z</time>
      </trkpt>
      <trkpt lat="43.74639" lon="1.09696">
        <ele>184.4</ele>
        <time>2015-11-11T14:18:42Z</time>
      </trkpt>
      <trkpt lat="43.74644" lon="1.097">
        <ele>184.6</ele>
        <time>2015-11-11T14:18:43Z</time>
      </trkpt>
      <trkpt lat="43.74646" lon="1.09703">
        <ele>184.7</ele>
        <time>2015-11-11T14:18:44Z</time>
      </trkpt>
      <trkpt lat="43.74651" lon="1.09706">
        <ele>185</ele>
        <time>2015-11-11T14:18:45Z</time>
      </trkpt>
      <trkpt lat="43.74656" lon="1.09709">
        <ele>185.2</ele>
        <time>2015-11-11T14:18:46Z</time>
      </trkpt>
      <trkpt lat="43.74659" lon="1.09711">
        <ele>185.3</ele>
        <time>2015-11-11T14:18:47Z</time>
      </trkpt>
      <trkpt lat="43.74665" lon="1.09715">
        <ele>185.5</ele>
        <time>2015-11-11T14:18:48Z</time>
      </trkpt>
      <trkpt lat="43.74669" lon="1.09719">
        <ele>185.7</ele>
        <time>2015-11-11T14:18:49Z</time>
      </trkpt>
      <trkpt lat="43.74673" lon="1.09722">
        <ele>185.8</ele>
        <time>2015-11-11T14:18:50Z</time>
      </trkpt>
      <trkpt lat="43.74677" lon="1.09726">
        <ele>186</ele>
        <time>2015-11-11T14:18:51Z</time>
      </trkpt>
      <trkpt lat="43.7468" lon="1.09728">
        <ele>186</ele>
        <time>2015-11-11T14:18:52Z</time>
      </trkpt>
      <trkpt lat="43.74684" lon="1.0973">
        <ele>186.3</ele>
        <time>2015-11-11T14:18:53Z</time>
      </trkpt>
      <trkpt lat="43.74687" lon="1.09732">
        <ele>186.5</ele>
        <time>2015-11-11T14:18:54Z</time>
      </trkpt>
      <trkpt lat="43.7469" lon="1.09735">
        <ele>186.6</ele>
        <time>2015-11-11T14:18:55Z</time>
      </trkpt>
      <trkpt lat="43.74694" lon="1.09737">
        <ele>186.8</ele>
        <time>2015-11-11T14:18:56Z</time>
      </trkpt>
      <trkpt lat="43.74697" lon="1.09739">
        <ele>186.9</ele>
        <time>2015-11-11T14:18:57Z</time>
      </trkpt>
      <trkpt lat="43.747" lon="1.09743">
        <ele>187.1</ele>
        <time>2015-11-11T14:18:58Z</time>
      </trkpt>
      <trkpt lat="43.74705" lon="1.09745">
        <ele>187.4</ele>
        <time>2015-11-11T14:18:59Z</time>
      </trkpt>
      <trkpt lat="43.74709" lon="1.09748">
        <ele>187.6</ele>
        <time>2015-11-11T14:19:00Z</time>
      </trkpt>
      <trkpt lat="43.74716" lon="1.09748">
        <ele>187.8</ele>
        <time>2015-11-11T14:19:01Z</time>
      </trkpt>
      <trkpt lat="43.7472" lon="1.0975">
        <ele>187.9</ele>
        <time>2015-11-11T14:19:02Z</time>
      </trkpt>
      <trkpt lat="43.74724" lon="1.09754">
        <ele>187.8</ele>
        <time>2015-11-11T14:19:03Z</time>
      </trkpt>
      <trkpt lat="43.74729" lon="1.09756">
        <ele>187.9</ele>
        <time>2015-11-11T14:19:04Z</time>
      </trkpt>
      <trkpt lat="43.74733" lon="1.09761">
        <ele>187.8</ele>
        <time>2015-11-11T14:19:05Z</time>
      </trkpt>
      <trkpt lat="43.74738" lon="1.09763">
        <ele>187.9</ele>
        <time>2015-11-11T14:19:06Z</time>
      </trkpt>
      <trkpt lat="43.74743" lon="1.09766">
        <ele>187.9</ele>
        <time>2015-11-11T14:19:07Z</time>
      </trkpt>
      <trkpt lat="43.74747" lon="1.09767">
        <ele>188</ele>
        <time>2015-11-11T14:19:08Z</time>
      </trkpt>
      <trkpt lat="43.74753" lon="1.09768">
        <ele>188.1</ele>
        <time>2015-11-11T14:19:09Z</time>
      </trkpt>
      <trkpt lat="43.7476" lon="1.09772">
        <ele>188.1</ele>
        <time>2015-11-11T14:19:10Z</time>
      </trkpt>
      <trkpt lat="43.74764" lon="1.09771">
        <ele>188.3</ele>
        <time>2015-11-11T14:19:11Z</time>
      </trkpt>
      <trkpt lat="43.7477" lon="1.09771">
        <ele>188.4</ele>
        <time>2015-11-11T14:19:12Z</time>
      </trkpt>
      <trkpt lat="43.74777" lon="1.09773">
        <ele>188.5</ele>
        <time>2015-11-11T14:19:13Z</time>
      </trkpt>
      <trkpt lat="43.74786" lon="1.09775">
        <ele>188.6</ele>
        <time>2015-11-11T14:19:14Z</time>
      </trkpt>
      <trkpt lat="43.74796" lon="1.09778">
        <ele>188.5</ele>
        <time>2015-11-11T14:19:15Z</time>
      </trkpt>
      <trkpt lat="43.74804" lon="1.09779">
        <ele>188</ele>
        <time>2015-11-11T14:19:16Z</time>
      </trkpt>
      <trkpt lat="43.74815" lon="1.09781">
        <ele>187.5</ele>
        <time>2015-11-11T14:19:17Z</time>
      </trkpt>
      <trkpt lat="43.74826" lon="1.09781">
        <ele>187</ele>
        <time>2015-11-11T14:19:18Z</time>
      </trkpt>
      <trkpt lat="43.74835" lon="1.0978">
        <ele>186.5</ele>
        <time>2015-11-11T14:19:19Z</time>
      </trkpt>
      <trkpt lat="43.74848" lon="1.09783">
        <ele>185.8</ele>
        <time>2015-11-11T14:19:20Z</time>
      </trkpt>
      <trkpt lat="43.74859" lon="1.09782">
        <ele>185.3</ele>
        <time>2015-11-11T14:19:21Z</time>
      </trkpt>
      <trkpt lat="43.74872" lon="1.09781">
        <ele>184.8</ele>
        <time>2015-11-11T14:19:22Z</time>
      </trkpt>
      <trkpt lat="43.74884" lon="1.0978">
        <ele>184.5</ele>
        <time>2015-11-11T14:19:23Z</time>
      </trkpt>
      <trkpt lat="43.74895" lon="1.09783">
        <ele>184</ele>
        <time>2015-11-11T14:19:24Z</time>
      </trkpt>
      <trkpt lat="43.74902" lon="1.09783">
        <ele>183.8</ele>
        <time>2015-11-11T14:19:25Z</time>
      </trkpt>
      <trkpt lat="43.74911" lon="1.09782">
        <ele>183.7</ele>
        <time>2015-11-11T14:19:26Z</time>
      </trkpt>
      <trkpt lat="43.7492" lon="1.0978">
        <ele>183.5</ele>
        <time>2015-11-11T14:19:27Z</time>
      </trkpt>
      <trkpt lat="43.7493" lon="1.09779">
        <ele>183.3</ele>
        <time>2015-11-11T14:19:28Z</time>
      </trkpt>
      <trkpt lat="43.74939" lon="1.09779">
        <ele>183.1</ele>
        <time>2015-11-11T14:19:29Z</time>
      </trkpt>
      <trkpt lat="43.74945" lon="1.0978">
        <ele>182.9</ele>
        <time>2015-11-11T14:19:30Z</time>
      </trkpt>
      <trkpt lat="43.74953" lon="1.0978">
        <ele>182.7</ele>
        <time>2015-11-11T14:19:31Z</time>
      </trkpt>
      <trkpt lat="43.7496" lon="1.09783">
        <ele>182.4</ele>
        <time>2015-11-11T14:19:32Z</time>
      </trkpt>
      <trkpt lat="43.74965" lon="1.09783">
        <ele>182.3</ele>
        <time>2015-11-11T14:19:33Z</time>
      </trkpt>
      <trkpt lat="43.74971" lon="1.09782">
        <ele>182.3</ele>
        <time>2015-11-11T14:19:34Z</time>
      </trkpt>
      <trkpt lat="43.74977" lon="1.09779">
        <ele>182.3</ele>
        <time>2015-11-11T14:19:35Z</time>
      </trkpt>
      <trkpt lat="43.74982" lon="1.09779">
        <ele>182.2</ele>
        <time>2015-11-11T14:19:36Z</time>
      </trkpt>
      <trkpt lat="43.74989" lon="1.09777">
        <ele>182.1</ele>
        <time>2015-11-11T14:19:37Z</time>
      </trkpt>
      <trkpt lat="43.74992" lon="1.09775">
        <ele>182.1</ele>
        <time>2015-11-11T14:19:38Z</time>
      </trkpt>
      <trkpt lat="43.74997" lon="1.09774">
        <ele>182.1</ele>
        <time>2015-11-11T14:19:39Z</time>
      </trkpt>
      <trkpt lat="43.75004" lon="1.09773">
        <ele>182</ele>
        <time>2015-11-11T14:19:40Z</time>
      </trkpt>
      <trkpt lat="43.75009" lon="1.09774">
        <ele>181.9</ele>
        <time>2015-11-11T14:19:41Z</time>
      </trkpt>
      <trkpt lat="43.75015" lon="1.09774">
        <ele>181.7</ele>
        <time>2015-11-11T14:19:42Z</time>
      </trkpt>
      <trkpt lat="43.75018" lon="1.09774">
        <ele>181.7</ele>
        <time>2015-11-11T14:19:43Z</time>
      </trkpt>
      <trkpt lat="43.75022" lon="1.09775">
        <ele>181.6</ele>
        <time>2015-11-11T14:19:44Z</time>
      </trkpt>
      <trkpt lat="43.75026" lon="1.09776">
        <ele>181.5</ele>
        <time>2015-11-11T14:19:45Z</time>
      </trkpt>
      <trkpt lat="43.75033" lon="1.09774">
        <ele>181.4</ele>
        <time>2015-11-11T14:19:47Z</time>
      </trkpt>
      <trkpt lat="43.75037" lon="1.09776">
        <ele>181.3</ele>
        <time>2015-11-11T14:19:48Z</time>
      </trkpt>
      <trkpt lat="43.75041" lon="1.0978">
        <ele>181.2</ele>
        <time>2015-11-11T14:19:49Z</time>
      </trkpt>
      <trkpt lat="43.75045" lon="1.0978">
        <ele>181.3</ele>
        <time>2015-11-11T14:19:50Z</time>
      </trkpt>
      <trkpt lat="43.75049" lon="1.09779">
        <ele>181.5</ele>
        <time>2015-11-11T14:19:51Z</time>
      </trkpt>
      <trkpt lat="43.75054" lon="1.09778">
        <ele>181.7</ele>
        <time>2015-11-11T14:19:52Z</time>
      </trkpt>
      <trkpt lat="43.75059" lon="1.09777">
        <ele>181.9</ele>
        <time>2015-11-11T14:19:53Z</time>
      </trkpt>
      <trkpt lat="43.75063" lon="1.09778">
        <ele>182.1</ele>
        <time>2015-11-11T14:19:54Z</time>
      </trkpt>
      <trkpt lat="43.75071" lon="1.09778">
        <ele>182.4</ele>
        <time>2015-11-11T14:19:56Z</time>
      </trkpt>
      <trkpt lat="43.75075" lon="1.09779">
        <ele>182.6</ele>
        <time>2015-11-11T14:19:57Z</time>
      </trkpt>
      <trkpt lat="43.7508" lon="1.0978">
        <ele>182.9</ele>
        <time>2015-11-11T14:19:58Z</time>
      </trkpt>
      <trkpt lat="43.75084" lon="1.0978">
        <ele>183</ele>
        <time>2015-11-11T14:19:59Z</time>
      </trkpt>
      <trkpt lat="43.75088" lon="1.09782">
        <ele>183.2</ele>
        <time>2015-11-11T14:20:00Z</time>
      </trkpt>
      <trkpt lat="43.75092" lon="1.09784">
        <ele>183.4</ele>
        <time>2015-11-11T14:20:01Z</time>
      </trkpt>
      <trkpt lat="43.75096" lon="1.09785">
        <ele>183.6</ele>
        <time>2015-11-11T14:20:02Z</time>
      </trkpt>
      <trkpt lat="43.751" lon="1.09786">
        <ele>183.8</ele>
        <time>2015-11-11T14:20:03Z</time>
      </trkpt>
      <trkpt lat="43.75104" lon="1.09788">
        <ele>184</ele>
        <time>2015-11-11T14:20:04Z</time>
      </trkpt>
      <trkpt lat="43.75108" lon="1.09789">
        <ele>184.2</ele>
        <time>2015-11-11T14:20:05Z</time>
      </trkpt>
      <trkpt lat="43.75112" lon="1.09791">
        <ele>184.4</ele>
        <time>2015-11-11T14:20:06Z</time>
      </trkpt>
      <trkpt lat="43.75116" lon="1.09792">
        <ele>184.6</ele>
        <time>2015-11-11T14:20:07Z</time>
      </trkpt>
      <trkpt lat="43.75119" lon="1.09794">
        <ele>184.8</ele>
        <time>2015-11-11T14:20:08Z</time>
      </trkpt>
      <trkpt lat="43.75123" lon="1.09795">
        <ele>185</ele>
        <time>2015-11-11T14:20:09Z</time>
      </trkpt>
      <trkpt lat="43.75127" lon="1.09797">
        <ele>185.3</ele>
        <time>2015-11-11T14:20:10Z</time>
      </trkpt>
      <trkpt lat="43.7513" lon="1.09798">
        <ele>185.6</ele>
        <time>2015-11-11T14:20:11Z</time>
      </trkpt>
      <trkpt lat="43.75133" lon="1.098">
        <ele>185.9</ele>
        <time>2015-11-11T14:20:12Z</time>
      </trkpt>
      <trkpt lat="43.75136" lon="1.09802">
        <ele>186.2</ele>
        <time>2015-11-11T14:20:13Z</time>
      </trkpt>
      <trkpt lat="43.7514" lon="1.09804">
        <ele>186.6</ele>
        <time>2015-11-11T14:20:14Z</time>
      </trkpt>
      <trkpt lat="43.75144" lon="1.09806">
        <ele>187</ele>
        <time>2015-11-11T14:20:15Z</time>
      </trkpt>
      <trkpt lat="43.75148" lon="1.09808">
        <ele>187.4</ele>
        <time>2015-11-11T14:20:16Z</time>
      </trkpt>
      <trkpt lat="43.75153" lon="1.0981">
        <ele>187.9</ele>
        <time>2015-11-11T14:20:17Z</time>
      </trkpt>
      <trkpt lat="43.75157" lon="1.09812">
        <ele>188.3</ele>
        <time>2015-11-11T14:20:18Z</time>
      </trkpt>
      <trkpt lat="43.75162" lon="1.09814">
        <ele>188.7</ele>
        <time>2015-11-11T14:20:19Z</time>
      </trkpt>
      <trkpt lat="43.75166" lon="1.09816">
        <ele>189.1</ele>
        <time>2015-11-11T14:20:20Z</time>
      </trkpt>
      <trkpt lat="43.75171" lon="1.09818">
        <ele>189.5</ele>
        <time>2015-11-11T14:20:21Z</time>
      </trkpt>
      <trkpt lat="43.75176" lon="1.0982">
        <ele>189.9</ele>
        <time>2015-11-11T14:20:22Z</time>
      </trkpt>
      <trkpt lat="43.7518" lon="1.09822">
        <ele>190.3</ele>
        <time>2015-11-11T14:20:23Z</time>
      </trkpt>
      <trkpt lat="43.75184" lon="1.09824">
        <ele>190.6</ele>
        <time>2015-11-11T14:20:24Z</time>
      </trkpt>
      <trkpt lat="43.75188" lon="1.09827">
        <ele>190.9</ele>
        <time>2015-11-11T14:20:25Z</time>
      </trkpt>
      <trkpt lat="43.75191" lon="1.09829">
        <ele>191.2</ele>
        <time>2015-11-11T14:20:26Z</time>
      </trkpt>
      <trkpt lat="43.75195" lon="1.09832">
        <ele>191.5</ele>
        <time>2015-11-11T14:20:27Z</time>
      </trkpt>
      <trkpt lat="43.75199" lon="1.09834">
        <ele>191.8</ele>
        <time>2015-11-11T14:20:28Z</time>
      </trkpt>
      <trkpt lat="43.75204" lon="1.09837">
        <ele>192.1</ele>
        <time>2015-11-11T14:20:29Z</time>
      </trkpt>
      <trkpt lat="43.75209" lon="1.09839">
        <ele>192.5</ele>
        <time>2015-11-11T14:20:30Z</time>
      </trkpt>
      <trkpt lat="43.75213" lon="1.09841">
        <ele>192.8</ele>
        <time>2015-11-11T14:20:31Z</time>
      </trkpt>
      <trkpt lat="43.75218" lon="1.09843">
        <ele>193.1</ele>
        <time>2015-11-11T14:20:32Z</time>
      </trkpt>
      <trkpt lat="43.75222" lon="1.09845">
        <ele>193.3</ele>
        <time>2015-11-11T14:20:33Z</time>
      </trkpt>
      <trkpt lat="43.75226" lon="1.09847">
        <ele>193.6</ele>
        <time>2015-11-11T14:20:34Z</time>
      </trkpt>
      <trkpt lat="43.75229" lon="1.09849">
        <ele>193.8</ele>
        <time>2015-11-11T14:20:35Z</time>
      </trkpt>
      <trkpt lat="43.75233" lon="1.09852">
        <ele>194.1</ele>
        <time>2015-11-11T14:20:36Z</time>
      </trkpt>
      <trkpt lat="43.75238" lon="1.09854">
        <ele>194.4</ele>
        <time>2015-11-11T14:20:37Z</time>
      </trkpt>
      <trkpt lat="43.75242" lon="1.09856">
        <ele>194.6</ele>
        <time>2015-11-11T14:20:38Z</time>
      </trkpt>
      <trkpt lat="43.75246" lon="1.09858">
        <ele>194.9</ele>
        <time>2015-11-11T14:20:39Z</time>
      </trkpt>
      <trkpt lat="43.7525" lon="1.0986">
        <ele>195.2</ele>
        <time>2015-11-11T14:20:40Z</time>
      </trkpt>
      <trkpt lat="43.75254" lon="1.09861">
        <ele>195.5</ele>
        <time>2015-11-11T14:20:41Z</time>
      </trkpt>
      <trkpt lat="43.75259" lon="1.09861">
        <ele>195.8</ele>
        <time>2015-11-11T14:20:42Z</time>
      </trkpt>
      <trkpt lat="43.75263" lon="1.09861">
        <ele>196.1</ele>
        <time>2015-11-11T14:20:43Z</time>
      </trkpt>
      <trkpt lat="43.75267" lon="1.0986">
        <ele>196.4</ele>
        <time>2015-11-11T14:20:44Z</time>
      </trkpt>
      <trkpt lat="43.75272" lon="1.09859">
        <ele>196.8</ele>
        <time>2015-11-11T14:20:45Z</time>
      </trkpt>
      <trkpt lat="43.75277" lon="1.09858">
        <ele>197.1</ele>
        <time>2015-11-11T14:20:46Z</time>
      </trkpt>
      <trkpt lat="43.75282" lon="1.09857">
        <ele>197.5</ele>
        <time>2015-11-11T14:20:47Z</time>
      </trkpt>
      <trkpt lat="43.75286" lon="1.09856">
        <ele>197.8</ele>
        <time>2015-11-11T14:20:48Z</time>
      </trkpt>
      <trkpt lat="43.75289" lon="1.09855">
        <ele>198.1</ele>
        <time>2015-11-11T14:20:49Z</time>
      </trkpt>
      <trkpt lat="43.75293" lon="1.09854">
        <ele>198.3</ele>
        <time>2015-11-11T14:20:50Z</time>
      </trkpt>
      <trkpt lat="43.75297" lon="1.09854">
        <ele>198.7</ele>
        <time>2015-11-11T14:20:51Z</time>
      </trkpt>
      <trkpt lat="43.75301" lon="1.09853">
        <ele>199</ele>
        <time>2015-11-11T14:20:52Z</time>
      </trkpt>
      <trkpt lat="43.75305" lon="1.09853">
        <ele>199.4</ele>
        <time>2015-11-11T14:20:53Z</time>
      </trkpt>
      <trkpt lat="43.75309" lon="1.09853">
        <ele>199.7</ele>
        <time>2015-11-11T14:20:54Z</time>
      </trkpt>
      <trkpt lat="43.75313" lon="1.09852">
        <ele>200</ele>
        <time>2015-11-11T14:20:55Z</time>
      </trkpt>
      <trkpt lat="43.75317" lon="1.09851">
        <ele>200.4</ele>
        <time>2015-11-11T14:20:56Z</time>
      </trkpt>
      <trkpt lat="43.75321" lon="1.0985">
        <ele>200.8</ele>
        <time>2015-11-11T14:20:57Z</time>
      </trkpt>
      <trkpt lat="43.75325" lon="1.09849">
        <ele>201.1</ele>
        <time>2015-11-11T14:20:58Z</time>
      </trkpt>
      <trkpt lat="43.75329" lon="1.09849">
        <ele>201.5</ele>
        <time>2015-11-11T14:20:59Z</time>
      </trkpt>
      <trkpt lat="43.75334" lon="1.09849">
        <ele>201.8</ele>
        <time>2015-11-11T14:21:00Z</time>
      </trkpt>
      <trkpt lat="43.75338" lon="1.09849">
        <ele>202.2</ele>
        <time>2015-11-11T14:21:01Z</time>
      </trkpt>
      <trkpt lat="43.75342" lon="1.09849">
        <ele>202.6</ele>
        <time>2015-11-11T14:21:02Z</time>
      </trkpt>
      <trkpt lat="43.75346" lon="1.09848">
        <ele>202.9</ele>
        <time>2015-11-11T14:21:03Z</time>
      </trkpt>
      <trkpt lat="43.7535" lon="1.09848">
        <ele>203.2</ele>
        <time>2015-11-11T14:21:04Z</time>
      </trkpt>
      <trkpt lat="43.75354" lon="1.09849">
        <ele>203.5</ele>
        <time>2015-11-11T14:21:05Z</time>
      </trkpt>
      <trkpt lat="43.75358" lon="1.09849">
        <ele>203.9</ele>
        <time>2015-11-11T14:21:06Z</time>
      </trkpt>
      <trkpt lat="43.75361" lon="1.0985">
        <ele>204.1</ele>
        <time>2015-11-11T14:21:07Z</time>
      </trkpt>
      <trkpt lat="43.75365" lon="1.09851">
        <ele>204.5</ele>
        <time>2015-11-11T14:21:08Z</time>
      </trkpt>
      <trkpt lat="43.7537" lon="1.09853">
        <ele>204.8</ele>
        <time>2015-11-11T14:21:09Z</time>
      </trkpt>
      <trkpt lat="43.75374" lon="1.09855">
        <ele>205.1</ele>
        <time>2015-11-11T14:21:10Z</time>
      </trkpt>
      <trkpt lat="43.75378" lon="1.09859">
        <ele>205.3</ele>
        <time>2015-11-11T14:21:11Z</time>
      </trkpt>
      <trkpt lat="43.75381" lon="1.09862">
        <ele>205.4</ele>
        <time>2015-11-11T14:21:12Z</time>
      </trkpt>
      <trkpt lat="43.75387" lon="1.09867">
        <ele>205.5</ele>
        <time>2015-11-11T14:21:13Z</time>
      </trkpt>
      <trkpt lat="43.75391" lon="1.09871">
        <ele>205.6</ele>
        <time>2015-11-11T14:21:14Z</time>
      </trkpt>
      <trkpt lat="43.75396" lon="1.09875">
        <ele>205.7</ele>
        <time>2015-11-11T14:21:15Z</time>
      </trkpt>
      <trkpt lat="43.754" lon="1.0988">
        <ele>205.5</ele>
        <time>2015-11-11T14:21:16Z</time>
      </trkpt>
      <trkpt lat="43.75404" lon="1.09886">
        <ele>205.3</ele>
        <time>2015-11-11T14:21:17Z</time>
      </trkpt>
      <trkpt lat="43.7541" lon="1.09888">
        <ele>205.4</ele>
        <time>2015-11-11T14:21:18Z</time>
      </trkpt>
      <trkpt lat="43.75415" lon="1.09892">
        <ele>205.3</ele>
        <time>2015-11-11T14:21:19Z</time>
      </trkpt>
      <trkpt lat="43.75421" lon="1.09897">
        <ele>205.2</ele>
        <time>2015-11-11T14:21:20Z</time>
      </trkpt>
      <trkpt lat="43.75425" lon="1.09905">
        <ele>204.9</ele>
        <time>2015-11-11T14:21:21Z</time>
      </trkpt>
      <trkpt lat="43.75426" lon="1.09908">
        <ele>204.8</ele>
        <time>2015-11-11T14:21:22Z</time>
      </trkpt>
      <trkpt lat="43.7543" lon="1.09913">
        <ele>204.7</ele>
        <time>2015-11-11T14:21:23Z</time>
      </trkpt>
      <trkpt lat="43.75433" lon="1.09911">
        <ele>205</ele>
        <time>2015-11-11T14:21:24Z</time>
      </trkpt>
      <trkpt lat="43.75436" lon="1.09917">
        <ele>204.8</ele>
        <time>2015-11-11T14:21:25Z</time>
      </trkpt>
      <trkpt lat="43.75441" lon="1.09921">
        <ele>204.8</ele>
        <time>2015-11-11T14:21:26Z</time>
      </trkpt>
      <trkpt lat="43.75444" lon="1.09928">
        <ele>204.6</ele>
        <time>2015-11-11T14:21:27Z</time>
      </trkpt>
      <trkpt lat="43.75448" lon="1.09932">
        <ele>204.7</ele>
        <time>2015-11-11T14:21:28Z</time>
      </trkpt>
      <trkpt lat="43.75453" lon="1.09933">
        <ele>204.9</ele>
        <time>2015-11-11T14:21:29Z</time>
      </trkpt>
      <trkpt lat="43.75456" lon="1.09938">
        <ele>204.9</ele>
        <time>2015-11-11T14:21:30Z</time>
      </trkpt>
      <trkpt lat="43.75462" lon="1.09944">
        <ele>204.7</ele>
        <time>2015-11-11T14:21:31Z</time>
      </trkpt>
      <trkpt lat="43.75466" lon="1.0995">
        <ele>204.5</ele>
        <time>2015-11-11T14:21:32Z</time>
      </trkpt>
      <trkpt lat="43.75469" lon="1.09956">
        <ele>204.3</ele>
        <time>2015-11-11T14:21:33Z</time>
      </trkpt>
      <trkpt lat="43.75473" lon="1.09957">
        <ele>204.2</ele>
        <time>2015-11-11T14:21:34Z</time>
      </trkpt>
      <trkpt lat="43.75478" lon="1.09962">
        <ele>204.1</ele>
        <time>2015-11-11T14:21:35Z</time>
      </trkpt>
      <trkpt lat="43.7548" lon="1.09965">
        <ele>203.9</ele>
        <time>2015-11-11T14:21:36Z</time>
      </trkpt>
      <trkpt lat="43.75484" lon="1.0997">
        <ele>203.7</ele>
        <time>2015-11-11T14:21:37Z</time>
      </trkpt>
      <trkpt lat="43.75487" lon="1.09974">
        <ele>203.6</ele>
        <time>2015-11-11T14:21:38Z</time>
      </trkpt>
      <trkpt lat="43.75491" lon="1.09979">
        <ele>203.4</ele>
        <time>2015-11-11T14:21:39Z</time>
      </trkpt>
      <trkpt lat="43.75493" lon="1.0999">
        <ele>202.9</ele>
        <time>2015-11-11T14:21:40Z</time>
      </trkpt>
      <trkpt lat="43.75495" lon="1.09998">
        <ele>202.6</ele>
        <time>2015-11-11T14:21:41Z</time>
      </trkpt>
      <trkpt lat="43.75495" lon="1.10001">
        <ele>202.4</ele>
        <time>2015-11-11T14:21:42Z</time>
      </trkpt>
      <trkpt lat="43.75496" lon="1.10009">
        <ele>202</ele>
        <time>2015-11-11T14:21:43Z</time>
      </trkpt>
      <trkpt lat="43.75496" lon="1.10014">
        <ele>201.8</ele>
        <time>2015-11-11T14:21:44Z</time>
      </trkpt>
      <trkpt lat="43.75492" lon="1.10021">
        <ele>201.4</ele>
        <time>2015-11-11T14:21:46Z</time>
      </trkpt>
      <trkpt lat="43.75489" lon="1.10027">
        <ele>201.1</ele>
        <time>2015-11-11T14:21:47Z</time>
      </trkpt>
      <trkpt lat="43.75484" lon="1.10032">
        <ele>200.8</ele>
        <time>2015-11-11T14:21:48Z</time>
      </trkpt>
      <trkpt lat="43.75479" lon="1.10039">
        <ele>200.4</ele>
        <time>2015-11-11T14:21:49Z</time>
      </trkpt>
      <trkpt lat="43.75476" lon="1.10041">
        <ele>200.2</ele>
        <time>2015-11-11T14:21:50Z</time>
      </trkpt>
      <trkpt lat="43.75475" lon="1.10048">
        <ele>199.8</ele>
        <time>2015-11-11T14:21:51Z</time>
      </trkpt>
      <trkpt lat="43.75476" lon="1.10057">
        <ele>199.3</ele>
        <time>2015-11-11T14:21:52Z</time>
      </trkpt>
      <trkpt lat="43.75478" lon="1.10064">
        <ele>199</ele>
        <time>2015-11-11T14:21:53Z</time>
      </trkpt>
      <trkpt lat="43.75482" lon="1.10071">
        <ele>198.6</ele>
        <time>2015-11-11T14:21:54Z</time>
      </trkpt>
      <trkpt lat="43.75486" lon="1.10078">
        <ele>198.3</ele>
        <time>2015-11-11T14:21:55Z</time>
      </trkpt>
      <trkpt lat="43.7549" lon="1.10084">
        <ele>198</ele>
        <time>2015-11-11T14:21:56Z</time>
      </trkpt>
      <trkpt lat="43.75493" lon="1.10089">
        <ele>197.8</ele>
        <time>2015-11-11T14:21:57Z</time>
      </trkpt>
      <trkpt lat="43.75497" lon="1.10093">
        <ele>197.6</ele>
        <time>2015-11-11T14:21:58Z</time>
      </trkpt>
      <trkpt lat="43.755" lon="1.101">
        <ele>197.3</ele>
        <time>2015-11-11T14:21:59Z</time>
      </trkpt>
      <trkpt lat="43.75504" lon="1.10106">
        <ele>197.1</ele>
        <time>2015-11-11T14:22:00Z</time>
      </trkpt>
      <trkpt lat="43.75508" lon="1.1011">
        <ele>197</ele>
        <time>2015-11-11T14:22:01Z</time>
      </trkpt>
      <trkpt lat="43.75512" lon="1.10116">
        <ele>196.8</ele>
        <time>2015-11-11T14:22:02Z</time>
      </trkpt>
      <trkpt lat="43.75516" lon="1.10121">
        <ele>196.6</ele>
        <time>2015-11-11T14:22:03Z</time>
      </trkpt>
      <trkpt lat="43.75524" lon="1.10134">
        <ele>196.2</ele>
        <time>2015-11-11T14:22:05Z</time>
      </trkpt>
      <trkpt lat="43.75526" lon="1.10138">
        <ele>196.1</ele>
        <time>2015-11-11T14:22:06Z</time>
      </trkpt>
      <trkpt lat="43.75529" lon="1.10143">
        <ele>196</ele>
        <time>2015-11-11T14:22:07Z</time>
      </trkpt>
      <trkpt lat="43.75536" lon="1.10143">
        <ele>196.2</ele>
        <time>2015-11-11T14:22:08Z</time>
      </trkpt>
      <trkpt lat="43.75537" lon="1.10149">
        <ele>196</ele>
        <time>2015-11-11T14:22:09Z</time>
      </trkpt>
      <trkpt lat="43.75541" lon="1.10153">
        <ele>196</ele>
        <time>2015-11-11T14:22:10Z</time>
      </trkpt>
      <trkpt lat="43.75544" lon="1.10159">
        <ele>195.8</ele>
        <time>2015-11-11T14:22:11Z</time>
      </trkpt>
      <trkpt lat="43.75548" lon="1.10164">
        <ele>195.6</ele>
        <time>2015-11-11T14:22:12Z</time>
      </trkpt>
      <trkpt lat="43.75552" lon="1.1017">
        <ele>195.4</ele>
        <time>2015-11-11T14:22:13Z</time>
      </trkpt>
      <trkpt lat="43.75556" lon="1.10171">
        <ele>195.4</ele>
        <time>2015-11-11T14:22:14Z</time>
      </trkpt>
      <trkpt lat="43.75561" lon="1.10176">
        <ele>195.3</ele>
        <time>2015-11-11T14:22:15Z</time>
      </trkpt>
      <trkpt lat="43.75565" lon="1.10181">
        <ele>195.2</ele>
        <time>2015-11-11T14:22:16Z</time>
      </trkpt>
      <trkpt lat="43.75568" lon="1.10186">
        <ele>195.1</ele>
        <time>2015-11-11T14:22:17Z</time>
      </trkpt>
      <trkpt lat="43.75572" lon="1.1019">
        <ele>195.1</ele>
        <time>2015-11-11T14:22:18Z</time>
      </trkpt>
      <trkpt lat="43.75575" lon="1.10196">
        <ele>195</ele>
        <time>2015-11-11T14:22:19Z</time>
      </trkpt>
      <trkpt lat="43.75579" lon="1.10201">
        <ele>195</ele>
        <time>2015-11-11T14:22:20Z</time>
      </trkpt>
      <trkpt lat="43.75582" lon="1.10207">
        <ele>195</ele>
        <time>2015-11-11T14:22:21Z</time>
      </trkpt>
      <trkpt lat="43.75587" lon="1.10213">
        <ele>195</ele>
        <time>2015-11-11T14:22:22Z</time>
      </trkpt>
      <trkpt lat="43.75591" lon="1.1022">
        <ele>195.1</ele>
        <time>2015-11-11T14:22:23Z</time>
      </trkpt>
      <trkpt lat="43.75595" lon="1.10226">
        <ele>195.1</ele>
        <time>2015-11-11T14:22:24Z</time>
      </trkpt>
      <trkpt lat="43.75597" lon="1.10233">
        <ele>195.1</ele>
        <time>2015-11-11T14:22:25Z</time>
      </trkpt>
      <trkpt lat="43.75599" lon="1.1024">
        <ele>195.2</ele>
        <time>2015-11-11T14:22:26Z</time>
      </trkpt>
      <trkpt lat="43.75603" lon="1.10243">
        <ele>195.3</ele>
        <time>2015-11-11T14:22:27Z</time>
      </trkpt>
      <trkpt lat="43.75607" lon="1.10247">
        <ele>195.4</ele>
        <time>2015-11-11T14:22:28Z</time>
      </trkpt>
      <trkpt lat="43.75611" lon="1.10252">
        <ele>195.5</ele>
        <time>2015-11-11T14:22:29Z</time>
      </trkpt>
      <trkpt lat="43.75615" lon="1.10257">
        <ele>195.6</ele>
        <time>2015-11-11T14:22:30Z</time>
      </trkpt>
      <trkpt lat="43.75618" lon="1.1026">
        <ele>195.7</ele>
        <time>2015-11-11T14:22:31Z</time>
      </trkpt>
      <trkpt lat="43.75623" lon="1.10262">
        <ele>195.9</ele>
        <time>2015-11-11T14:22:32Z</time>
      </trkpt>
      <trkpt lat="43.75626" lon="1.10268">
        <ele>196</ele>
        <time>2015-11-11T14:22:33Z</time>
      </trkpt>
      <trkpt lat="43.75633" lon="1.10273">
        <ele>196.1</ele>
        <time>2015-11-11T14:22:34Z</time>
      </trkpt>
      <trkpt lat="43.75638" lon="1.10277">
        <ele>196.2</ele>
        <time>2015-11-11T14:22:35Z</time>
      </trkpt>
      <trkpt lat="43.75642" lon="1.10282">
        <ele>196.2</ele>
        <time>2015-11-11T14:22:36Z</time>
      </trkpt>
      <trkpt lat="43.75647" lon="1.10289">
        <ele>196.3</ele>
        <time>2015-11-11T14:22:37Z</time>
      </trkpt>
      <trkpt lat="43.75652" lon="1.10295">
        <ele>196.3</ele>
        <time>2015-11-11T14:22:38Z</time>
      </trkpt>
      <trkpt lat="43.75658" lon="1.10302">
        <ele>196.2</ele>
        <time>2015-11-11T14:22:39Z</time>
      </trkpt>
      <trkpt lat="43.75662" lon="1.1031">
        <ele>196.2</ele>
        <time>2015-11-11T14:22:40Z</time>
      </trkpt>
      <trkpt lat="43.75667" lon="1.10318">
        <ele>196</ele>
        <time>2015-11-11T14:22:41Z</time>
      </trkpt>
      <trkpt lat="43.75672" lon="1.10326">
        <ele>195.9</ele>
        <time>2015-11-11T14:22:42Z</time>
      </trkpt>
      <trkpt lat="43.75676" lon="1.10332">
        <ele>195.7</ele>
        <time>2015-11-11T14:22:43Z</time>
      </trkpt>
      <trkpt lat="43.75681" lon="1.10342">
        <ele>195.5</ele>
        <time>2015-11-11T14:22:44Z</time>
      </trkpt>
      <trkpt lat="43.75686" lon="1.10351">
        <ele>195.2</ele>
        <time>2015-11-11T14:22:45Z</time>
      </trkpt>
      <trkpt lat="43.75693" lon="1.1036">
        <ele>194.8</ele>
        <time>2015-11-11T14:22:46Z</time>
      </trkpt>
      <trkpt lat="43.75697" lon="1.10368">
        <ele>194.5</ele>
        <time>2015-11-11T14:22:47Z</time>
      </trkpt>
      <trkpt lat="43.75702" lon="1.10376">
        <ele>194.1</ele>
        <time>2015-11-11T14:22:48Z</time>
      </trkpt>
      <trkpt lat="43.75709" lon="1.10386">
        <ele>193.3</ele>
        <time>2015-11-11T14:22:49Z</time>
      </trkpt>
      <trkpt lat="43.75715" lon="1.10395">
        <ele>192.5</ele>
        <time>2015-11-11T14:22:50Z</time>
      </trkpt>
      <trkpt lat="43.75721" lon="1.10406">
        <ele>191.6</ele>
        <time>2015-11-11T14:22:51Z</time>
      </trkpt>
      <trkpt lat="43.75727" lon="1.10415">
        <ele>190.9</ele>
        <time>2015-11-11T14:22:52Z</time>
      </trkpt>
      <trkpt lat="43.75733" lon="1.10422">
        <ele>190.4</ele>
        <time>2015-11-11T14:22:53Z</time>
      </trkpt>
      <trkpt lat="43.75742" lon="1.10426">
        <ele>189.9</ele>
        <time>2015-11-11T14:22:54Z</time>
      </trkpt>
      <trkpt lat="43.75749" lon="1.10434">
        <ele>189.4</ele>
        <time>2015-11-11T14:22:55Z</time>
      </trkpt>
      <trkpt lat="43.75756" lon="1.10443">
        <ele>188.9</ele>
        <time>2015-11-11T14:22:56Z</time>
      </trkpt>
      <trkpt lat="43.75761" lon="1.10452">
        <ele>188.6</ele>
        <time>2015-11-11T14:22:57Z</time>
      </trkpt>
      <trkpt lat="43.75768" lon="1.10459">
        <ele>188.3</ele>
        <time>2015-11-11T14:22:58Z</time>
      </trkpt>
      <trkpt lat="43.75773" lon="1.10467">
        <ele>187.9</ele>
        <time>2015-11-11T14:22:59Z</time>
      </trkpt>
      <trkpt lat="43.75779" lon="1.10476">
        <ele>187.6</ele>
        <time>2015-11-11T14:23:00Z</time>
      </trkpt>
      <trkpt lat="43.75783" lon="1.10484">
        <ele>187.4</ele>
        <time>2015-11-11T14:23:01Z</time>
      </trkpt>
      <trkpt lat="43.75789" lon="1.10491">
        <ele>187.2</ele>
        <time>2015-11-11T14:23:02Z</time>
      </trkpt>
      <trkpt lat="43.75793" lon="1.10494">
        <ele>187.1</ele>
        <time>2015-11-11T14:23:03Z</time>
      </trkpt>
      <trkpt lat="43.758" lon="1.10502">
        <ele>186.9</ele>
        <time>2015-11-11T14:23:04Z</time>
      </trkpt>
      <trkpt lat="43.75807" lon="1.10509">
        <ele>186.6</ele>
        <time>2015-11-11T14:23:05Z</time>
      </trkpt>
      <trkpt lat="43.75811" lon="1.10516">
        <ele>186.5</ele>
        <time>2015-11-11T14:23:06Z</time>
      </trkpt>
      <trkpt lat="43.75815" lon="1.10523">
        <ele>186.3</ele>
        <time>2015-11-11T14:23:07Z</time>
      </trkpt>
      <trkpt lat="43.7582" lon="1.10527">
        <ele>186.2</ele>
        <time>2015-11-11T14:23:08Z</time>
      </trkpt>
      <trkpt lat="43.75826" lon="1.10534">
        <ele>186.1</ele>
        <time>2015-11-11T14:23:09Z</time>
      </trkpt>
      <trkpt lat="43.75829" lon="1.1054">
        <ele>186</ele>
        <time>2015-11-11T14:23:10Z</time>
      </trkpt>
      <trkpt lat="43.75833" lon="1.10546">
        <ele>185.9</ele>
        <time>2015-11-11T14:23:11Z</time>
      </trkpt>
      <trkpt lat="43.75836" lon="1.10554">
        <ele>185.7</ele>
        <time>2015-11-11T14:23:12Z</time>
      </trkpt>
      <trkpt lat="43.75839" lon="1.10563">
        <ele>185.6</ele>
        <time>2015-11-11T14:23:13Z</time>
      </trkpt>
      <trkpt lat="43.75841" lon="1.10571">
        <ele>185.4</ele>
        <time>2015-11-11T14:23:14Z</time>
      </trkpt>
      <trkpt lat="43.7585" lon="1.10581">
        <ele>185.4</ele>
        <time>2015-11-11T14:23:15Z</time>
      </trkpt>
      <trkpt lat="43.75852" lon="1.10587">
        <ele>185.4</ele>
        <time>2015-11-11T14:23:16Z</time>
      </trkpt>
      <trkpt lat="43.75855" lon="1.10595">
        <ele>185.4</ele>
        <time>2015-11-11T14:23:17Z</time>
      </trkpt>
      <trkpt lat="43.75858" lon="1.10606">
        <ele>185.4</ele>
        <time>2015-11-11T14:23:18Z</time>
      </trkpt>
      <trkpt lat="43.75859" lon="1.10618">
        <ele>185.3</ele>
        <time>2015-11-11T14:23:19Z</time>
      </trkpt>
      <trkpt lat="43.75861" lon="1.10625">
        <ele>185.3</ele>
        <time>2015-11-11T14:23:20Z</time>
      </trkpt>
      <trkpt lat="43.75863" lon="1.10633">
        <ele>185.4</ele>
        <time>2015-11-11T14:23:21Z</time>
      </trkpt>
      <trkpt lat="43.75865" lon="1.10639">
        <ele>185.5</ele>
        <time>2015-11-11T14:23:22Z</time>
      </trkpt>
      <trkpt lat="43.75866" lon="1.10647">
        <ele>185.5</ele>
        <time>2015-11-11T14:23:23Z</time>
      </trkpt>
      <trkpt lat="43.75868" lon="1.10657">
        <ele>185.6</ele>
        <time>2015-11-11T14:23:24Z</time>
      </trkpt>
      <trkpt lat="43.75868" lon="1.10665">
        <ele>185.6</ele>
        <time>2015-11-11T14:23:25Z</time>
      </trkpt>
      <trkpt lat="43.75868" lon="1.10674">
        <ele>185.6</ele>
        <time>2015-11-11T14:23:26Z</time>
      </trkpt>
      <trkpt lat="43.75868" lon="1.1068">
        <ele>185.6</ele>
        <time>2015-11-11T14:23:27Z</time>
      </trkpt>
      <trkpt lat="43.75868" lon="1.10689">
        <ele>185.5</ele>
        <time>2015-11-11T14:23:28Z</time>
      </trkpt>
      <trkpt lat="43.75869" lon="1.10698">
        <ele>185.6</ele>
        <time>2015-11-11T14:23:29Z</time>
      </trkpt>
      <trkpt lat="43.75868" lon="1.10707">
        <ele>185.5</ele>
        <time>2015-11-11T14:23:30Z</time>
      </trkpt>
      <trkpt lat="43.75868" lon="1.10717">
        <ele>185.3</ele>
        <time>2015-11-11T14:23:31Z</time>
      </trkpt>
      <trkpt lat="43.75867" lon="1.10727">
        <ele>185</ele>
        <time>2015-11-11T14:23:32Z</time>
      </trkpt>
      <trkpt lat="43.75868" lon="1.10736">
        <ele>184.8</ele>
        <time>2015-11-11T14:23:33Z</time>
      </trkpt>
      <trkpt lat="43.75868" lon="1.10745">
        <ele>184.6</ele>
        <time>2015-11-11T14:23:34Z</time>
      </trkpt>
      <trkpt lat="43.75868" lon="1.10753">
        <ele>184.4</ele>
        <time>2015-11-11T14:23:35Z</time>
      </trkpt>
      <trkpt lat="43.75866" lon="1.10763">
        <ele>184</ele>
        <time>2015-11-11T14:23:36Z</time>
      </trkpt>
      <trkpt lat="43.75865" lon="1.10773">
        <ele>183.7</ele>
        <time>2015-11-11T14:23:37Z</time>
      </trkpt>
      <trkpt lat="43.75867" lon="1.10784">
        <ele>183.5</ele>
        <time>2015-11-11T14:23:38Z</time>
      </trkpt>
      <trkpt lat="43.75868" lon="1.10794">
        <ele>183.4</ele>
        <time>2015-11-11T14:23:39Z</time>
      </trkpt>
      <trkpt lat="43.75867" lon="1.10804">
        <ele>183.1</ele>
        <time>2015-11-11T14:23:40Z</time>
      </trkpt>
      <trkpt lat="43.75867" lon="1.10813">
        <ele>182.8</ele>
        <time>2015-11-11T14:23:41Z</time>
      </trkpt>
      <trkpt lat="43.75867" lon="1.10821">
        <ele>182.7</ele>
        <time>2015-11-11T14:23:42Z</time>
      </trkpt>
      <trkpt lat="43.75866" lon="1.10829">
        <ele>182.4</ele>
        <time>2015-11-11T14:23:43Z</time>
      </trkpt>
      <trkpt lat="43.75864" lon="1.10839">
        <ele>182.1</ele>
        <time>2015-11-11T14:23:44Z</time>
      </trkpt>
      <trkpt lat="43.75864" lon="1.10848">
        <ele>181.9</ele>
        <time>2015-11-11T14:23:45Z</time>
      </trkpt>
      <trkpt lat="43.75863" lon="1.10857">
        <ele>181.7</ele>
        <time>2015-11-11T14:23:46Z</time>
      </trkpt>
      <trkpt lat="43.75864" lon="1.10863">
        <ele>181.6</ele>
        <time>2015-11-11T14:23:47Z</time>
      </trkpt>
      <trkpt lat="43.75864" lon="1.10873">
        <ele>181.4</ele>
        <time>2015-11-11T14:23:48Z</time>
      </trkpt>
      <trkpt lat="43.75863" lon="1.10882">
        <ele>181.5</ele>
        <time>2015-11-11T14:23:49Z</time>
      </trkpt>
      <trkpt lat="43.75864" lon="1.10891">
        <ele>181.7</ele>
        <time>2015-11-11T14:23:50Z</time>
      </trkpt>
      <trkpt lat="43.75863" lon="1.109">
        <ele>181.9</ele>
        <time>2015-11-11T14:23:51Z</time>
      </trkpt>
      <trkpt lat="43.75863" lon="1.10911">
        <ele>182.1</ele>
        <time>2015-11-11T14:23:52Z</time>
      </trkpt>
      <trkpt lat="43.75864" lon="1.10919">
        <ele>182.4</ele>
        <time>2015-11-11T14:23:53Z</time>
      </trkpt>
      <trkpt lat="43.75863" lon="1.10928">
        <ele>182.5</ele>
        <time>2015-11-11T14:23:54Z</time>
      </trkpt>
      <trkpt lat="43.75863" lon="1.10936">
        <ele>182.8</ele>
        <time>2015-11-11T14:23:55Z</time>
      </trkpt>
      <trkpt lat="43.75862" lon="1.10946">
        <ele>182.9</ele>
        <time>2015-11-11T14:23:56Z</time>
      </trkpt>
      <trkpt lat="43.75863" lon="1.10956">
        <ele>183.2</ele>
        <time>2015-11-11T14:23:57Z</time>
      </trkpt>
      <trkpt lat="43.75862" lon="1.10966">
        <ele>183.4</ele>
        <time>2015-11-11T14:23:58Z</time>
      </trkpt>
      <trkpt lat="43.75862" lon="1.10975">
        <ele>183.5</ele>
        <time>2015-11-11T14:23:59Z</time>
      </trkpt>
      <trkpt lat="43.75862" lon="1.10985">
        <ele>183.7</ele>
        <time>2015-11-11T14:24:00Z</time>
      </trkpt>
      <trkpt lat="43.75862" lon="1.10995">
        <ele>183.9</ele>
        <time>2015-11-11T14:24:01Z</time>
      </trkpt>
      <trkpt lat="43.75862" lon="1.11003">
        <ele>184</ele>
        <time>2015-11-11T14:24:02Z</time>
      </trkpt>
      <trkpt lat="43.75863" lon="1.11013">
        <ele>184.2</ele>
        <time>2015-11-11T14:24:03Z</time>
      </trkpt>
      <trkpt lat="43.75862" lon="1.11022">
        <ele>184.3</ele>
        <time>2015-11-11T14:24:04Z</time>
      </trkpt>
      <trkpt lat="43.75862" lon="1.11032">
        <ele>184.5</ele>
        <time>2015-11-11T14:24:05Z</time>
      </trkpt>
      <trkpt lat="43.75861" lon="1.11041">
        <ele>184.6</ele>
        <time>2015-11-11T14:24:06Z</time>
      </trkpt>
      <trkpt lat="43.7586" lon="1.1105">
        <ele>184.8</ele>
        <time>2015-11-11T14:24:07Z</time>
      </trkpt>
      <trkpt lat="43.75861" lon="1.11057">
        <ele>185</ele>
        <time>2015-11-11T14:24:08Z</time>
      </trkpt>
      <trkpt lat="43.75861" lon="1.11066">
        <ele>185.2</ele>
        <time>2015-11-11T14:24:09Z</time>
      </trkpt>
      <trkpt lat="43.7586" lon="1.11073">
        <ele>185.3</ele>
        <time>2015-11-11T14:24:10Z</time>
      </trkpt>
      <trkpt lat="43.75861" lon="1.11081">
        <ele>185.5</ele>
        <time>2015-11-11T14:24:11Z</time>
      </trkpt>
      <trkpt lat="43.7586" lon="1.11089">
        <ele>185.7</ele>
        <time>2015-11-11T14:24:12Z</time>
      </trkpt>
      <trkpt lat="43.7586" lon="1.11096">
        <ele>185.8</ele>
        <time>2015-11-11T14:24:13Z</time>
      </trkpt>
      <trkpt lat="43.75861" lon="1.11104">
        <ele>186</ele>
        <time>2015-11-11T14:24:14Z</time>
      </trkpt>
      <trkpt lat="43.75862" lon="1.11112">
        <ele>186.2</ele>
        <time>2015-11-11T14:24:15Z</time>
      </trkpt>
      <trkpt lat="43.75862" lon="1.11118">
        <ele>186.4</ele>
        <time>2015-11-11T14:24:16Z</time>
      </trkpt>
      <trkpt lat="43.75864" lon="1.11127">
        <ele>186.6</ele>
        <time>2015-11-11T14:24:17Z</time>
      </trkpt>
      <trkpt lat="43.75864" lon="1.11136">
        <ele>186.5</ele>
        <time>2015-11-11T14:24:18Z</time>
      </trkpt>
      <trkpt lat="43.75867" lon="1.11153">
        <ele>186.3</ele>
        <time>2015-11-11T14:24:20Z</time>
      </trkpt>
      <trkpt lat="43.75869" lon="1.11164">
        <ele>186.2</ele>
        <time>2015-11-11T14:24:21Z</time>
      </trkpt>
      <trkpt lat="43.75871" lon="1.11172">
        <ele>186.2</ele>
        <time>2015-11-11T14:24:22Z</time>
      </trkpt>
      <trkpt lat="43.75873" lon="1.11183">
        <ele>186.2</ele>
        <time>2015-11-11T14:24:23Z</time>
      </trkpt>
      <trkpt lat="43.75874" lon="1.11191">
        <ele>186.2</ele>
        <time>2015-11-11T14:24:24Z</time>
      </trkpt>
      <trkpt lat="43.75876" lon="1.11201">
        <ele>186.1</ele>
        <time>2015-11-11T14:24:25Z</time>
      </trkpt>
      <trkpt lat="43.75877" lon="1.11212">
        <ele>185.9</ele>
        <time>2015-11-11T14:24:26Z</time>
      </trkpt>
      <trkpt lat="43.75878" lon="1.11222">
        <ele>185.5</ele>
        <time>2015-11-11T14:24:27Z</time>
      </trkpt>
      <trkpt lat="43.7588" lon="1.11232">
        <ele>185.2</ele>
        <time>2015-11-11T14:24:28Z</time>
      </trkpt>
      <trkpt lat="43.75881" lon="1.11241">
        <ele>184.9</ele>
        <time>2015-11-11T14:24:29Z</time>
      </trkpt>
      <trkpt lat="43.75882" lon="1.11252">
        <ele>184.5</ele>
        <time>2015-11-11T14:24:30Z</time>
      </trkpt>
      <trkpt lat="43.75884" lon="1.11262">
        <ele>184.2</ele>
        <time>2015-11-11T14:24:31Z</time>
      </trkpt>
      <trkpt lat="43.75885" lon="1.11271">
        <ele>183.9</ele>
        <time>2015-11-11T14:24:32Z</time>
      </trkpt>
      <trkpt lat="43.75886" lon="1.11281">
        <ele>183.6</ele>
        <time>2015-11-11T14:24:33Z</time>
      </trkpt>
      <trkpt lat="43.75887" lon="1.11291">
        <ele>183.3</ele>
        <time>2015-11-11T14:24:34Z</time>
      </trkpt>
      <trkpt lat="43.7589" lon="1.11308">
        <ele>182.9</ele>
        <time>2015-11-11T14:24:36Z</time>
      </trkpt>
      <trkpt lat="43.75891" lon="1.11318">
        <ele>182.7</ele>
        <time>2015-11-11T14:24:37Z</time>
      </trkpt>
      <trkpt lat="43.75892" lon="1.11328">
        <ele>182.5</ele>
        <time>2015-11-11T14:24:38Z</time>
      </trkpt>
      <trkpt lat="43.75893" lon="1.11336">
        <ele>182.3</ele>
        <time>2015-11-11T14:24:39Z</time>
      </trkpt>
      <trkpt lat="43.75895" lon="1.11345">
        <ele>182</ele>
        <time>2015-11-11T14:24:40Z</time>
      </trkpt>
      <trkpt lat="43.75896" lon="1.11356">
        <ele>181.8</ele>
        <time>2015-11-11T14:24:41Z</time>
      </trkpt>
      <trkpt lat="43.75898" lon="1.11365">
        <ele>181.5</ele>
        <time>2015-11-11T14:24:42Z</time>
      </trkpt>
      <trkpt lat="43.75899" lon="1.11374">
        <ele>181.3</ele>
        <time>2015-11-11T14:24:43Z</time>
      </trkpt>
      <trkpt lat="43.759" lon="1.11384">
        <ele>181.2</ele>
        <time>2015-11-11T14:24:44Z</time>
      </trkpt>
      <trkpt lat="43.75902" lon="1.11394">
        <ele>181.2</ele>
        <time>2015-11-11T14:24:45Z</time>
      </trkpt>
      <trkpt lat="43.75904" lon="1.11404">
        <ele>181.1</ele>
        <time>2015-11-11T14:24:46Z</time>
      </trkpt>
      <trkpt lat="43.75905" lon="1.11415">
        <ele>181</ele>
        <time>2015-11-11T14:24:47Z</time>
      </trkpt>
      <trkpt lat="43.75906" lon="1.11425">
        <ele>181</ele>
        <time>2015-11-11T14:24:48Z</time>
      </trkpt>
      <trkpt lat="43.75909" lon="1.11433">
        <ele>181</ele>
        <time>2015-11-11T14:24:49Z</time>
      </trkpt>
      <trkpt lat="43.75911" lon="1.11445">
        <ele>181</ele>
        <time>2015-11-11T14:24:50Z</time>
      </trkpt>
      <trkpt lat="43.75912" lon="1.11451">
        <ele>180.9</ele>
        <time>2015-11-11T14:24:51Z</time>
      </trkpt>
      <trkpt lat="43.75913" lon="1.11462">
        <ele>180.8</ele>
        <time>2015-11-11T14:24:52Z</time>
      </trkpt>
      <trkpt lat="43.75915" lon="1.11473">
        <ele>180.4</ele>
        <time>2015-11-11T14:24:53Z</time>
      </trkpt>
      <trkpt lat="43.75917" lon="1.11485">
        <ele>180.1</ele>
        <time>2015-11-11T14:24:54Z</time>
      </trkpt>
      <trkpt lat="43.75919" lon="1.11495">
        <ele>179.8</ele>
        <time>2015-11-11T14:24:55Z</time>
      </trkpt>
      <trkpt lat="43.75921" lon="1.11504">
        <ele>179.6</ele>
        <time>2015-11-11T14:24:56Z</time>
      </trkpt>
      <trkpt lat="43.75923" lon="1.11514">
        <ele>179.3</ele>
        <time>2015-11-11T14:24:57Z</time>
      </trkpt>
      <trkpt lat="43.75925" lon="1.11524">
        <ele>179.2</ele>
        <time>2015-11-11T14:24:58Z</time>
      </trkpt>
      <trkpt lat="43.75927" lon="1.11535">
        <ele>178.9</ele>
        <time>2015-11-11T14:24:59Z</time>
      </trkpt>
      <trkpt lat="43.75927" lon="1.11545">
        <ele>178.6</ele>
        <time>2015-11-11T14:25:00Z</time>
      </trkpt>
      <trkpt lat="43.75929" lon="1.11557">
        <ele>178.1</ele>
        <time>2015-11-11T14:25:01Z</time>
      </trkpt>
      <trkpt lat="43.7593" lon="1.11568">
        <ele>177.7</ele>
        <time>2015-11-11T14:25:02Z</time>
      </trkpt>
      <trkpt lat="43.75932" lon="1.11579">
        <ele>177.3</ele>
        <time>2015-11-11T14:25:03Z</time>
      </trkpt>
      <trkpt lat="43.75933" lon="1.11591">
        <ele>176.8</ele>
        <time>2015-11-11T14:25:04Z</time>
      </trkpt>
      <trkpt lat="43.75934" lon="1.11604">
        <ele>176.4</ele>
        <time>2015-11-11T14:25:05Z</time>
      </trkpt>
      <trkpt lat="43.75936" lon="1.11616">
        <ele>176.1</ele>
        <time>2015-11-11T14:25:06Z</time>
      </trkpt>
      <trkpt lat="43.75939" lon="1.11628">
        <ele>175.7</ele>
        <time>2015-11-11T14:25:07Z</time>
      </trkpt>
      <trkpt lat="43.7594" lon="1.11641">
        <ele>175.2</ele>
        <time>2015-11-11T14:25:08Z</time>
      </trkpt>
      <trkpt lat="43.75942" lon="1.11653">
        <ele>174.7</ele>
        <time>2015-11-11T14:25:09Z</time>
      </trkpt>
      <trkpt lat="43.75945" lon="1.11666">
        <ele>174.2</ele>
        <time>2015-11-11T14:25:10Z</time>
      </trkpt>
      <trkpt lat="43.75948" lon="1.11679">
        <ele>173.8</ele>
        <time>2015-11-11T14:25:11Z</time>
      </trkpt>
      <trkpt lat="43.7595" lon="1.11692">
        <ele>173.2</ele>
        <time>2015-11-11T14:25:12Z</time>
      </trkpt>
      <trkpt lat="43.75953" lon="1.11705">
        <ele>172.8</ele>
        <time>2015-11-11T14:25:13Z</time>
      </trkpt>
      <trkpt lat="43.75956" lon="1.11715">
        <ele>172.5</ele>
        <time>2015-11-11T14:25:14Z</time>
      </trkpt>
      <trkpt lat="43.75958" lon="1.11727">
        <ele>172.3</ele>
        <time>2015-11-11T14:25:15Z</time>
      </trkpt>
      <trkpt lat="43.7596" lon="1.1174">
        <ele>171.9</ele>
        <time>2015-11-11T14:25:16Z</time>
      </trkpt>
      <trkpt lat="43.75962" lon="1.11752">
        <ele>171.4</ele>
        <time>2015-11-11T14:25:17Z</time>
      </trkpt>
      <trkpt lat="43.75964" lon="1.11765">
        <ele>171</ele>
        <time>2015-11-11T14:25:18Z</time>
      </trkpt>
      <trkpt lat="43.75967" lon="1.11777">
        <ele>170.6</ele>
        <time>2015-11-11T14:25:19Z</time>
      </trkpt>
      <trkpt lat="43.75969" lon="1.11789">
        <ele>170.2</ele>
        <time>2015-11-11T14:25:20Z</time>
      </trkpt>
      <trkpt lat="43.75968" lon="1.11801">
        <ele>169.8</ele>
        <time>2015-11-11T14:25:21Z</time>
      </trkpt>
      <trkpt lat="43.7597" lon="1.11814">
        <ele>169.3</ele>
        <time>2015-11-11T14:25:22Z</time>
      </trkpt>
      <trkpt lat="43.75971" lon="1.11825">
        <ele>169</ele>
        <time>2015-11-11T14:25:23Z</time>
      </trkpt>
      <trkpt lat="43.75973" lon="1.11838">
        <ele>168.5</ele>
        <time>2015-11-11T14:25:24Z</time>
      </trkpt>
      <trkpt lat="43.75973" lon="1.11847">
        <ele>168.2</ele>
        <time>2015-11-11T14:25:25Z</time>
      </trkpt>
      <trkpt lat="43.75974" lon="1.1186">
        <ele>167.7</ele>
        <time>2015-11-11T14:25:26Z</time>
      </trkpt>
      <trkpt lat="43.75975" lon="1.11873">
        <ele>167.3</ele>
        <time>2015-11-11T14:25:27Z</time>
      </trkpt>
      <trkpt lat="43.75974" lon="1.11886">
        <ele>166.7</ele>
        <time>2015-11-11T14:25:28Z</time>
      </trkpt>
      <trkpt lat="43.75974" lon="1.11898">
        <ele>166.1</ele>
        <time>2015-11-11T14:25:29Z</time>
      </trkpt>
      <trkpt lat="43.75973" lon="1.11913">
        <ele>165.5</ele>
        <time>2015-11-11T14:25:30Z</time>
      </trkpt>
      <trkpt lat="43.75973" lon="1.11923">
        <ele>165</ele>
        <time>2015-11-11T14:25:31Z</time>
      </trkpt>
      <trkpt lat="43.75971" lon="1.11936">
        <ele>164.3</ele>
        <time>2015-11-11T14:25:32Z</time>
      </trkpt>
      <trkpt lat="43.7597" lon="1.11947">
        <ele>163.8</ele>
        <time>2015-11-11T14:25:33Z</time>
      </trkpt>
      <trkpt lat="43.7597" lon="1.1196">
        <ele>163.3</ele>
        <time>2015-11-11T14:25:34Z</time>
      </trkpt>
      <trkpt lat="43.75969" lon="1.11973">
        <ele>163.4</ele>
        <time>2015-11-11T14:25:35Z</time>
      </trkpt>
      <trkpt lat="43.75968" lon="1.11986">
        <ele>163.5</ele>
        <time>2015-11-11T14:25:36Z</time>
      </trkpt>
      <trkpt lat="43.75965" lon="1.12">
        <ele>163.6</ele>
        <time>2015-11-11T14:25:37Z</time>
      </trkpt>
      <trkpt lat="43.75963" lon="1.12012">
        <ele>163.7</ele>
        <time>2015-11-11T14:25:38Z</time>
      </trkpt>
      <trkpt lat="43.75962" lon="1.12022">
        <ele>163.8</ele>
        <time>2015-11-11T14:25:39Z</time>
      </trkpt>
      <trkpt lat="43.7596" lon="1.12036">
        <ele>163.9</ele>
        <time>2015-11-11T14:25:40Z</time>
      </trkpt>
      <trkpt lat="43.75958" lon="1.12047">
        <ele>163.8</ele>
        <time>2015-11-11T14:25:41Z</time>
      </trkpt>
      <trkpt lat="43.75958" lon="1.12055">
        <ele>163.5</ele>
        <time>2015-11-11T14:25:42Z</time>
      </trkpt>
      <trkpt lat="43.75958" lon="1.12065">
        <ele>163.2</ele>
        <time>2015-11-11T14:25:43Z</time>
      </trkpt>
      <trkpt lat="43.75956" lon="1.12074">
        <ele>162.8</ele>
        <time>2015-11-11T14:25:44Z</time>
      </trkpt>
      <trkpt lat="43.75955" lon="1.12084">
        <ele>162.4</ele>
        <time>2015-11-11T14:25:45Z</time>
      </trkpt>
      <trkpt lat="43.75954" lon="1.12096">
        <ele>162</ele>
        <time>2015-11-11T14:25:46Z</time>
      </trkpt>
      <trkpt lat="43.75952" lon="1.12107">
        <ele>161.6</ele>
        <time>2015-11-11T14:25:47Z</time>
      </trkpt>
      <trkpt lat="43.75951" lon="1.12117">
        <ele>161.3</ele>
        <time>2015-11-11T14:25:48Z</time>
      </trkpt>
      <trkpt lat="43.75948" lon="1.12127">
        <ele>161</ele>
        <time>2015-11-11T14:25:49Z</time>
      </trkpt>
      <trkpt lat="43.75946" lon="1.12139">
        <ele>160.7</ele>
        <time>2015-11-11T14:25:50Z</time>
      </trkpt>
      <trkpt lat="43.75943" lon="1.12151">
        <ele>160.4</ele>
        <time>2015-11-11T14:25:51Z</time>
      </trkpt>
      <trkpt lat="43.75943" lon="1.12162">
        <ele>160.2</ele>
        <time>2015-11-11T14:25:52Z</time>
      </trkpt>
      <trkpt lat="43.75941" lon="1.12174">
        <ele>159.9</ele>
        <time>2015-11-11T14:25:53Z</time>
      </trkpt>
      <trkpt lat="43.7594" lon="1.12184">
        <ele>159.7</ele>
        <time>2015-11-11T14:25:54Z</time>
      </trkpt>
      <trkpt lat="43.75938" lon="1.12195">
        <ele>159.5</ele>
        <time>2015-11-11T14:25:55Z</time>
      </trkpt>
      <trkpt lat="43.75937" lon="1.12207">
        <ele>159.3</ele>
        <time>2015-11-11T14:25:56Z</time>
      </trkpt>
      <trkpt lat="43.75935" lon="1.12216">
        <ele>159.3</ele>
        <time>2015-11-11T14:25:57Z</time>
      </trkpt>
      <trkpt lat="43.75934" lon="1.12226">
        <ele>159.2</ele>
        <time>2015-11-11T14:25:58Z</time>
      </trkpt>
      <trkpt lat="43.75934" lon="1.12235">
        <ele>159.2</ele>
        <time>2015-11-11T14:25:59Z</time>
      </trkpt>
      <trkpt lat="43.75933" lon="1.12242">
        <ele>159.2</ele>
        <time>2015-11-11T14:26:00Z</time>
      </trkpt>
      <trkpt lat="43.75931" lon="1.12253">
        <ele>159.2</ele>
        <time>2015-11-11T14:26:01Z</time>
      </trkpt>
      <trkpt lat="43.7593" lon="1.12262">
        <ele>159.1</ele>
        <time>2015-11-11T14:26:02Z</time>
      </trkpt>
      <trkpt lat="43.75929" lon="1.12274">
        <ele>159.1</ele>
        <time>2015-11-11T14:26:03Z</time>
      </trkpt>
      <trkpt lat="43.75926" lon="1.12285">
        <ele>159</ele>
        <time>2015-11-11T14:26:04Z</time>
      </trkpt>
      <trkpt lat="43.75927" lon="1.12292">
        <ele>159</ele>
        <time>2015-11-11T14:26:05Z</time>
      </trkpt>
      <trkpt lat="43.75925" lon="1.12303">
        <ele>158.9</ele>
        <time>2015-11-11T14:26:06Z</time>
      </trkpt>
      <trkpt lat="43.75924" lon="1.12314">
        <ele>158.9</ele>
        <time>2015-11-11T14:26:07Z</time>
      </trkpt>
      <trkpt lat="43.75923" lon="1.12321">
        <ele>158.9</ele>
        <time>2015-11-11T14:26:08Z</time>
      </trkpt>
      <trkpt lat="43.75922" lon="1.12331">
        <ele>158.8</ele>
        <time>2015-11-11T14:26:09Z</time>
      </trkpt>
      <trkpt lat="43.75921" lon="1.12342">
        <ele>158.7</ele>
        <time>2015-11-11T14:26:10Z</time>
      </trkpt>
      <trkpt lat="43.7592" lon="1.1235">
        <ele>158.7</ele>
        <time>2015-11-11T14:26:11Z</time>
      </trkpt>
      <trkpt lat="43.75917" lon="1.12362">
        <ele>158.6</ele>
        <time>2015-11-11T14:26:12Z</time>
      </trkpt>
      <trkpt lat="43.75916" lon="1.12373">
        <ele>158.5</ele>
        <time>2015-11-11T14:26:13Z</time>
      </trkpt>
      <trkpt lat="43.75912" lon="1.12395">
        <ele>158.4</ele>
        <time>2015-11-11T14:26:15Z</time>
      </trkpt>
      <trkpt lat="43.75911" lon="1.12404">
        <ele>158.4</ele>
        <time>2015-11-11T14:26:16Z</time>
      </trkpt>
      <trkpt lat="43.7591" lon="1.12414">
        <ele>158.4</ele>
        <time>2015-11-11T14:26:17Z</time>
      </trkpt>
      <trkpt lat="43.75909" lon="1.12425">
        <ele>158.4</ele>
        <time>2015-11-11T14:26:18Z</time>
      </trkpt>
      <trkpt lat="43.75908" lon="1.12435">
        <ele>158.4</ele>
        <time>2015-11-11T14:26:19Z</time>
      </trkpt>
      <trkpt lat="43.75908" lon="1.12445">
        <ele>158.4</ele>
        <time>2015-11-11T14:26:20Z</time>
      </trkpt>
      <trkpt lat="43.75906" lon="1.12455">
        <ele>158.4</ele>
        <time>2015-11-11T14:26:21Z</time>
      </trkpt>
      <trkpt lat="43.75905" lon="1.12466">
        <ele>158.3</ele>
        <time>2015-11-11T14:26:22Z</time>
      </trkpt>
      <trkpt lat="43.75906" lon="1.12476">
        <ele>158.3</ele>
        <time>2015-11-11T14:26:23Z</time>
      </trkpt>
      <trkpt lat="43.75907" lon="1.12486">
        <ele>158.3</ele>
        <time>2015-11-11T14:26:24Z</time>
      </trkpt>
      <trkpt lat="43.75908" lon="1.12495">
        <ele>158.2</ele>
        <time>2015-11-11T14:26:25Z</time>
      </trkpt>
      <trkpt lat="43.7591" lon="1.12506">
        <ele>158.2</ele>
        <time>2015-11-11T14:26:26Z</time>
      </trkpt>
      <trkpt lat="43.75913" lon="1.12514">
        <ele>158.1</ele>
        <time>2015-11-11T14:26:27Z</time>
      </trkpt>
      <trkpt lat="43.75917" lon="1.12521">
        <ele>158.1</ele>
        <time>2015-11-11T14:26:28Z</time>
      </trkpt>
      <trkpt lat="43.7592" lon="1.12529">
        <ele>158.1</ele>
        <time>2015-11-11T14:26:29Z</time>
      </trkpt>
      <trkpt lat="43.75924" lon="1.12538">
        <ele>158</ele>
        <time>2015-11-11T14:26:30Z</time>
      </trkpt>
      <trkpt lat="43.75928" lon="1.12546">
        <ele>158</ele>
        <time>2015-11-11T14:26:31Z</time>
      </trkpt>
      <trkpt lat="43.75933" lon="1.12553">
        <ele>158</ele>
        <time>2015-11-11T14:26:32Z</time>
      </trkpt>
      <trkpt lat="43.75938" lon="1.1256">
        <ele>158.1</ele>
        <time>2015-11-11T14:26:33Z</time>
      </trkpt>
      <trkpt lat="43.75942" lon="1.12567">
        <ele>158.1</ele>
        <time>2015-11-11T14:26:34Z</time>
      </trkpt>
      <trkpt lat="43.75948" lon="1.12574">
        <ele>158</ele>
        <time>2015-11-11T14:26:35Z</time>
      </trkpt>
      <trkpt lat="43.75953" lon="1.12581">
        <ele>158</ele>
        <time>2015-11-11T14:26:36Z</time>
      </trkpt>
      <trkpt lat="43.75958" lon="1.12586">
        <ele>158</ele>
        <time>2015-11-11T14:26:37Z</time>
      </trkpt>
      <trkpt lat="43.75961" lon="1.12592">
        <ele>158.1</ele>
        <time>2015-11-11T14:26:38Z</time>
      </trkpt>
      <trkpt lat="43.75965" lon="1.12598">
        <ele>158.2</ele>
        <time>2015-11-11T14:26:39Z</time>
      </trkpt>
      <trkpt lat="43.7597" lon="1.12605">
        <ele>158.3</ele>
        <time>2015-11-11T14:26:40Z</time>
      </trkpt>
      <trkpt lat="43.75975" lon="1.12613">
        <ele>158.4</ele>
        <time>2015-11-11T14:26:41Z</time>
      </trkpt>
      <trkpt lat="43.7598" lon="1.1262">
        <ele>158.5</ele>
        <time>2015-11-11T14:26:42Z</time>
      </trkpt>
      <trkpt lat="43.75983" lon="1.12625">
        <ele>158.6</ele>
        <time>2015-11-11T14:26:43Z</time>
      </trkpt>
      <trkpt lat="43.75988" lon="1.12633">
        <ele>158.6</ele>
        <time>2015-11-11T14:26:44Z</time>
      </trkpt>
      <trkpt lat="43.75991" lon="1.12642">
        <ele>158.5</ele>
        <time>2015-11-11T14:26:45Z</time>
      </trkpt>
      <trkpt lat="43.75996" lon="1.12648">
        <ele>158.5</ele>
        <time>2015-11-11T14:26:46Z</time>
      </trkpt>
      <trkpt lat="43.76" lon="1.12655">
        <ele>158.5</ele>
        <time>2015-11-11T14:26:47Z</time>
      </trkpt>
      <trkpt lat="43.76005" lon="1.12661">
        <ele>158.4</ele>
        <time>2015-11-11T14:26:48Z</time>
      </trkpt>
      <trkpt lat="43.7601" lon="1.12668">
        <ele>158.4</ele>
        <time>2015-11-11T14:26:49Z</time>
      </trkpt>
      <trkpt lat="43.76015" lon="1.12674">
        <ele>158.4</ele>
        <time>2015-11-11T14:26:50Z</time>
      </trkpt>
      <trkpt lat="43.7602" lon="1.12681">
        <ele>158.3</ele>
        <time>2015-11-11T14:26:51Z</time>
      </trkpt>
      <trkpt lat="43.76026" lon="1.1269">
        <ele>158.2</ele>
        <time>2015-11-11T14:26:52Z</time>
      </trkpt>
      <trkpt lat="43.7603" lon="1.12697">
        <ele>158.1</ele>
        <time>2015-11-11T14:26:53Z</time>
      </trkpt>
      <trkpt lat="43.76035" lon="1.12704">
        <ele>158</ele>
        <time>2015-11-11T14:26:54Z</time>
      </trkpt>
      <trkpt lat="43.76039" lon="1.12711">
        <ele>157.9</ele>
        <time>2015-11-11T14:26:55Z</time>
      </trkpt>
      <trkpt lat="43.76044" lon="1.12718">
        <ele>157.9</ele>
        <time>2015-11-11T14:26:56Z</time>
      </trkpt>
      <trkpt lat="43.76049" lon="1.12723">
        <ele>158</ele>
        <time>2015-11-11T14:26:57Z</time>
      </trkpt>
      <trkpt lat="43.76055" lon="1.1273">
        <ele>158.1</ele>
        <time>2015-11-11T14:26:58Z</time>
      </trkpt>
      <trkpt lat="43.76061" lon="1.12737">
        <ele>158.1</ele>
        <time>2015-11-11T14:26:59Z</time>
      </trkpt>
      <trkpt lat="43.76065" lon="1.12743">
        <ele>158.2</ele>
        <time>2015-11-11T14:27:00Z</time>
      </trkpt>
      <trkpt lat="43.76071" lon="1.12749">
        <ele>158.2</ele>
        <time>2015-11-11T14:27:01Z</time>
      </trkpt>
      <trkpt lat="43.76076" lon="1.12756">
        <ele>158.2</ele>
        <time>2015-11-11T14:27:02Z</time>
      </trkpt>
      <trkpt lat="43.76081" lon="1.12763">
        <ele>158.3</ele>
        <time>2015-11-11T14:27:03Z</time>
      </trkpt>
      <trkpt lat="43.76085" lon="1.12771">
        <ele>158.3</ele>
        <time>2015-11-11T14:27:04Z</time>
      </trkpt>
      <trkpt lat="43.76091" lon="1.12778">
        <ele>158.3</ele>
        <time>2015-11-11T14:27:05Z</time>
      </trkpt>
      <trkpt lat="43.76095" lon="1.12785">
        <ele>158.4</ele>
        <time>2015-11-11T14:27:06Z</time>
      </trkpt>
      <trkpt lat="43.761" lon="1.12792">
        <ele>158.4</ele>
        <time>2015-11-11T14:27:07Z</time>
      </trkpt>
      <trkpt lat="43.76105" lon="1.12798">
        <ele>158.5</ele>
        <time>2015-11-11T14:27:08Z</time>
      </trkpt>
      <trkpt lat="43.76109" lon="1.12805">
        <ele>158.5</ele>
        <time>2015-11-11T14:27:09Z</time>
      </trkpt>
      <trkpt lat="43.76114" lon="1.12811">
        <ele>158.5</ele>
        <time>2015-11-11T14:27:10Z</time>
      </trkpt>
      <trkpt lat="43.76118" lon="1.12818">
        <ele>158.5</ele>
        <time>2015-11-11T14:27:11Z</time>
      </trkpt>
      <trkpt lat="43.76122" lon="1.12827">
        <ele>158.5</ele>
        <time>2015-11-11T14:27:12Z</time>
      </trkpt>
      <trkpt lat="43.7612" lon="1.12836">
        <ele>158.4</ele>
        <time>2015-11-11T14:27:13Z</time>
      </trkpt>
      <trkpt lat="43.76116" lon="1.12843">
        <ele>158.2</ele>
        <time>2015-11-11T14:27:14Z</time>
      </trkpt>
      <trkpt lat="43.76113" lon="1.1285">
        <ele>158.1</ele>
        <time>2015-11-11T14:27:15Z</time>
      </trkpt>
      <trkpt lat="43.76109" lon="1.12855">
        <ele>158</ele>
        <time>2015-11-11T14:27:16Z</time>
      </trkpt>
      <trkpt lat="43.76105" lon="1.12861">
        <ele>157.9</ele>
        <time>2015-11-11T14:27:17Z</time>
      </trkpt>
      <trkpt lat="43.76101" lon="1.12868">
        <ele>157.8</ele>
        <time>2015-11-11T14:27:18Z</time>
      </trkpt>
      <trkpt lat="43.76096" lon="1.12875">
        <ele>157.7</ele>
        <time>2015-11-11T14:27:19Z</time>
      </trkpt>
      <trkpt lat="43.76092" lon="1.12881">
        <ele>157.6</ele>
        <time>2015-11-11T14:27:20Z</time>
      </trkpt>
      <trkpt lat="43.76087" lon="1.12888">
        <ele>157.5</ele>
        <time>2015-11-11T14:27:21Z</time>
      </trkpt>
      <trkpt lat="43.76082" lon="1.12893">
        <ele>157.5</ele>
        <time>2015-11-11T14:27:22Z</time>
      </trkpt>
      <trkpt lat="43.76077" lon="1.12899">
        <ele>157.5</ele>
        <time>2015-11-11T14:27:23Z</time>
      </trkpt>
      <trkpt lat="43.76073" lon="1.12907">
        <ele>157.5</ele>
        <time>2015-11-11T14:27:24Z</time>
      </trkpt>
      <trkpt lat="43.76069" lon="1.12913">
        <ele>157.5</ele>
        <time>2015-11-11T14:27:25Z</time>
      </trkpt>
      <trkpt lat="43.76064" lon="1.12919">
        <ele>157.5</ele>
        <time>2015-11-11T14:27:26Z</time>
      </trkpt>
      <trkpt lat="43.7606" lon="1.12925">
        <ele>157.6</ele>
        <time>2015-11-11T14:27:27Z</time>
      </trkpt>
      <trkpt lat="43.76056" lon="1.12931">
        <ele>157.6</ele>
        <time>2015-11-11T14:27:28Z</time>
      </trkpt>
      <trkpt lat="43.76053" lon="1.12938">
        <ele>157.7</ele>
        <time>2015-11-11T14:27:29Z</time>
      </trkpt>
      <trkpt lat="43.7605" lon="1.12943">
        <ele>157.8</ele>
        <time>2015-11-11T14:27:30Z</time>
      </trkpt>
      <trkpt lat="43.76047" lon="1.1295">
        <ele>157.9</ele>
        <time>2015-11-11T14:27:31Z</time>
      </trkpt>
      <trkpt lat="43.76044" lon="1.12957">
        <ele>158</ele>
        <time>2015-11-11T14:27:32Z</time>
      </trkpt>
      <trkpt lat="43.76041" lon="1.12965">
        <ele>158.3</ele>
        <time>2015-11-11T14:27:33Z</time>
      </trkpt>
      <trkpt lat="43.7604" lon="1.12971">
        <ele>158.6</ele>
        <time>2015-11-11T14:27:34Z</time>
      </trkpt>
      <trkpt lat="43.76037" lon="1.12976">
        <ele>158.8</ele>
        <time>2015-11-11T14:27:35Z</time>
      </trkpt>
      <trkpt lat="43.76035" lon="1.12982">
        <ele>159.1</ele>
        <time>2015-11-11T14:27:36Z</time>
      </trkpt>
      <trkpt lat="43.76033" lon="1.12989">
        <ele>159.4</ele>
        <time>2015-11-11T14:27:37Z</time>
      </trkpt>
      <trkpt lat="43.76029" lon="1.13001">
        <ele>160</ele>
        <time>2015-11-11T14:27:39Z</time>
      </trkpt>
      <trkpt lat="43.76027" lon="1.13007">
        <ele>160.2</ele>
        <time>2015-11-11T14:27:40Z</time>
      </trkpt>
      <trkpt lat="43.76025" lon="1.13013">
        <ele>160.5</ele>
        <time>2015-11-11T14:27:41Z</time>
      </trkpt>
      <trkpt lat="43.76024" lon="1.13019">
        <ele>160.7</ele>
        <time>2015-11-11T14:27:42Z</time>
      </trkpt>
      <trkpt lat="43.76022" lon="1.13026">
        <ele>161</ele>
        <time>2015-11-11T14:27:43Z</time>
      </trkpt>
      <trkpt lat="43.7602" lon="1.13031">
        <ele>161.3</ele>
        <time>2015-11-11T14:27:44Z</time>
      </trkpt>
      <trkpt lat="43.76018" lon="1.13036">
        <ele>161.5</ele>
        <time>2015-11-11T14:27:45Z</time>
      </trkpt>
      <trkpt lat="43.76014" lon="1.13044">
        <ele>161.8</ele>
        <time>2015-11-11T14:27:47Z</time>
      </trkpt>
      <trkpt lat="43.76013" lon="1.13048">
        <ele>161.9</ele>
        <time>2015-11-11T14:27:48Z</time>
      </trkpt>
      <trkpt lat="43.76011" lon="1.13054">
        <ele>162.2</ele>
        <time>2015-11-11T14:27:49Z</time>
      </trkpt>
      <trkpt lat="43.7601" lon="1.1306">
        <ele>162.4</ele>
        <time>2015-11-11T14:27:50Z</time>
      </trkpt>
      <trkpt lat="43.76007" lon="1.13061">
        <ele>162.4</ele>
        <time>2015-11-11T14:27:51Z</time>
      </trkpt>
      <trkpt lat="43.76006" lon="1.13067">
        <ele>162.7</ele>
        <time>2015-11-11T14:27:52Z</time>
      </trkpt>
      <trkpt lat="43.76004" lon="1.13072">
        <ele>162.9</ele>
        <time>2015-11-11T14:27:53Z</time>
      </trkpt>
      <trkpt lat="43.76003" lon="1.13077">
        <ele>163</ele>
        <time>2015-11-11T14:27:54Z</time>
      </trkpt>
      <trkpt lat="43.76001" lon="1.13082">
        <ele>163.2</ele>
        <time>2015-11-11T14:27:55Z</time>
      </trkpt>
      <trkpt lat="43.76" lon="1.13087">
        <ele>163.4</ele>
        <time>2015-11-11T14:27:56Z</time>
      </trkpt>
      <trkpt lat="43.75998" lon="1.13092">
        <ele>163.6</ele>
        <time>2015-11-11T14:27:57Z</time>
      </trkpt>
      <trkpt lat="43.75997" lon="1.13097">
        <ele>163.7</ele>
        <time>2015-11-11T14:27:58Z</time>
      </trkpt>
      <trkpt lat="43.75995" lon="1.13102">
        <ele>163.9</ele>
        <time>2015-11-11T14:27:59Z</time>
      </trkpt>
      <trkpt lat="43.75994" lon="1.13107">
        <ele>164.1</ele>
        <time>2015-11-11T14:28:00Z</time>
      </trkpt>
      <trkpt lat="43.75992" lon="1.13112">
        <ele>164.3</ele>
        <time>2015-11-11T14:28:01Z</time>
      </trkpt>
      <trkpt lat="43.75991" lon="1.13117">
        <ele>164.4</ele>
        <time>2015-11-11T14:28:02Z</time>
      </trkpt>
      <trkpt lat="43.75989" lon="1.13122">
        <ele>164.6</ele>
        <time>2015-11-11T14:28:03Z</time>
      </trkpt>
      <trkpt lat="43.75988" lon="1.13126">
        <ele>164.8</ele>
        <time>2015-11-11T14:28:04Z</time>
      </trkpt>
      <trkpt lat="43.75986" lon="1.13131">
        <ele>165</ele>
        <time>2015-11-11T14:28:05Z</time>
      </trkpt>
      <trkpt lat="43.75982" lon="1.13141">
        <ele>165.5</ele>
        <time>2015-11-11T14:28:07Z</time>
      </trkpt>
      <trkpt lat="43.75981" lon="1.13146">
        <ele>165.7</ele>
        <time>2015-11-11T14:28:08Z</time>
      </trkpt>
      <trkpt lat="43.75979" lon="1.1315">
        <ele>165.9</ele>
        <time>2015-11-11T14:28:09Z</time>
      </trkpt>
      <trkpt lat="43.75977" lon="1.13155">
        <ele>166.2</ele>
        <time>2015-11-11T14:28:10Z</time>
      </trkpt>
      <trkpt lat="43.75976" lon="1.1316">
        <ele>166.4</ele>
        <time>2015-11-11T14:28:11Z</time>
      </trkpt>
      <trkpt lat="43.75974" lon="1.13164">
        <ele>166.6</ele>
        <time>2015-11-11T14:28:12Z</time>
      </trkpt>
      <trkpt lat="43.75972" lon="1.13169">
        <ele>166.9</ele>
        <time>2015-11-11T14:28:13Z</time>
      </trkpt>
      <trkpt lat="43.7597" lon="1.13174">
        <ele>167.2</ele>
        <time>2015-11-11T14:28:14Z</time>
      </trkpt>
      <trkpt lat="43.75969" lon="1.13179">
        <ele>167.4</ele>
        <time>2015-11-11T14:28:15Z</time>
      </trkpt>
      <trkpt lat="43.75967" lon="1.13184">
        <ele>167.6</ele>
        <time>2015-11-11T14:28:16Z</time>
      </trkpt>
      <trkpt lat="43.75966" lon="1.13188">
        <ele>167.9</ele>
        <time>2015-11-11T14:28:17Z</time>
      </trkpt>
      <trkpt lat="43.75965" lon="1.13193">
        <ele>168.2</ele>
        <time>2015-11-11T14:28:18Z</time>
      </trkpt>
      <trkpt lat="43.75963" lon="1.13197">
        <ele>168.4</ele>
        <time>2015-11-11T14:28:19Z</time>
      </trkpt>
      <trkpt lat="43.75962" lon="1.13201">
        <ele>168.6</ele>
        <time>2015-11-11T14:28:20Z</time>
      </trkpt>
      <trkpt lat="43.75961" lon="1.13206">
        <ele>168.9</ele>
        <time>2015-11-11T14:28:21Z</time>
      </trkpt>
      <trkpt lat="43.7596" lon="1.1321">
        <ele>169.2</ele>
        <time>2015-11-11T14:28:22Z</time>
      </trkpt>
      <trkpt lat="43.75959" lon="1.13214">
        <ele>169.5</ele>
        <time>2015-11-11T14:28:23Z</time>
      </trkpt>
      <trkpt lat="43.75958" lon="1.13219">
        <ele>169.8</ele>
        <time>2015-11-11T14:28:24Z</time>
      </trkpt>
      <trkpt lat="43.75956" lon="1.13223">
        <ele>170.1</ele>
        <time>2015-11-11T14:28:25Z</time>
      </trkpt>
      <trkpt lat="43.75954" lon="1.13227">
        <ele>170.4</ele>
        <time>2015-11-11T14:28:26Z</time>
      </trkpt>
      <trkpt lat="43.75953" lon="1.13231">
        <ele>170.6</ele>
        <time>2015-11-11T14:28:27Z</time>
      </trkpt>
      <trkpt lat="43.75952" lon="1.13235">
        <ele>170.9</ele>
        <time>2015-11-11T14:28:28Z</time>
      </trkpt>
      <trkpt lat="43.75951" lon="1.13239">
        <ele>171.1</ele>
        <time>2015-11-11T14:28:29Z</time>
      </trkpt>
      <trkpt lat="43.7595" lon="1.13243">
        <ele>171.4</ele>
        <time>2015-11-11T14:28:30Z</time>
      </trkpt>
      <trkpt lat="43.75949" lon="1.13247">
        <ele>171.7</ele>
        <time>2015-11-11T14:28:31Z</time>
      </trkpt>
      <trkpt lat="43.75948" lon="1.13251">
        <ele>171.9</ele>
        <time>2015-11-11T14:28:32Z</time>
      </trkpt>
      <trkpt lat="43.75947" lon="1.13256">
        <ele>172.2</ele>
        <time>2015-11-11T14:28:33Z</time>
      </trkpt>
      <trkpt lat="43.75945" lon="1.1326">
        <ele>172.4</ele>
        <time>2015-11-11T14:28:34Z</time>
      </trkpt>
      <trkpt lat="43.75944" lon="1.13265">
        <ele>172.6</ele>
        <time>2015-11-11T14:28:35Z</time>
      </trkpt>
      <trkpt lat="43.75943" lon="1.13269">
        <ele>172.8</ele>
        <time>2015-11-11T14:28:36Z</time>
      </trkpt>
      <trkpt lat="43.75942" lon="1.13273">
        <ele>173</ele>
        <time>2015-11-11T14:28:37Z</time>
      </trkpt>
      <trkpt lat="43.75941" lon="1.13277">
        <ele>173.2</ele>
        <time>2015-11-11T14:28:38Z</time>
      </trkpt>
      <trkpt lat="43.7594" lon="1.13281">
        <ele>173.5</ele>
        <time>2015-11-11T14:28:39Z</time>
      </trkpt>
      <trkpt lat="43.75938" lon="1.13286">
        <ele>173.7</ele>
        <time>2015-11-11T14:28:40Z</time>
      </trkpt>
      <trkpt lat="43.75937" lon="1.1329">
        <ele>173.9</ele>
        <time>2015-11-11T14:28:41Z</time>
      </trkpt>
      <trkpt lat="43.75936" lon="1.13295">
        <ele>174</ele>
        <time>2015-11-11T14:28:42Z</time>
      </trkpt>
      <trkpt lat="43.75934" lon="1.133">
        <ele>174</ele>
        <time>2015-11-11T14:28:43Z</time>
      </trkpt>
      <trkpt lat="43.75933" lon="1.13304">
        <ele>174</ele>
        <time>2015-11-11T14:28:44Z</time>
      </trkpt>
      <trkpt lat="43.75932" lon="1.13309">
        <ele>174.1</ele>
        <time>2015-11-11T14:28:45Z</time>
      </trkpt>
      <trkpt lat="43.7593" lon="1.13314">
        <ele>174.1</ele>
        <time>2015-11-11T14:28:46Z</time>
      </trkpt>
      <trkpt lat="43.75929" lon="1.13318">
        <ele>174.1</ele>
        <time>2015-11-11T14:28:47Z</time>
      </trkpt>
      <trkpt lat="43.75928" lon="1.13322">
        <ele>174.1</ele>
        <time>2015-11-11T14:28:48Z</time>
      </trkpt>
      <trkpt lat="43.75926" lon="1.13327">
        <ele>174.2</ele>
        <time>2015-11-11T14:28:49Z</time>
      </trkpt>
      <trkpt lat="43.75924" lon="1.13332">
        <ele>174.2</ele>
        <time>2015-11-11T14:28:50Z</time>
      </trkpt>
      <trkpt lat="43.75923" lon="1.13336">
        <ele>174.2</ele>
        <time>2015-11-11T14:28:51Z</time>
      </trkpt>
      <trkpt lat="43.75922" lon="1.13341">
        <ele>174.3</ele>
        <time>2015-11-11T14:28:52Z</time>
      </trkpt>
      <trkpt lat="43.75921" lon="1.13346">
        <ele>174.3</ele>
        <time>2015-11-11T14:28:53Z</time>
      </trkpt>
      <trkpt lat="43.7592" lon="1.1335">
        <ele>174.4</ele>
        <time>2015-11-11T14:28:54Z</time>
      </trkpt>
      <trkpt lat="43.75919" lon="1.13355">
        <ele>174.5</ele>
        <time>2015-11-11T14:28:55Z</time>
      </trkpt>
      <trkpt lat="43.75917" lon="1.1336">
        <ele>174.5</ele>
        <time>2015-11-11T14:28:56Z</time>
      </trkpt>
      <trkpt lat="43.75916" lon="1.13364">
        <ele>174.5</ele>
        <time>2015-11-11T14:28:57Z</time>
      </trkpt>
      <trkpt lat="43.75915" lon="1.13368">
        <ele>174.6</ele>
        <time>2015-11-11T14:28:58Z</time>
      </trkpt>
      <trkpt lat="43.75914" lon="1.13373">
        <ele>174.6</ele>
        <time>2015-11-11T14:28:59Z</time>
      </trkpt>
      <trkpt lat="43.75912" lon="1.13378">
        <ele>174.7</ele>
        <time>2015-11-11T14:29:00Z</time>
      </trkpt>
      <trkpt lat="43.75911" lon="1.13383">
        <ele>174.7</ele>
        <time>2015-11-11T14:29:01Z</time>
      </trkpt>
      <trkpt lat="43.7591" lon="1.13388">
        <ele>174.8</ele>
        <time>2015-11-11T14:29:02Z</time>
      </trkpt>
      <trkpt lat="43.75908" lon="1.13392">
        <ele>174.8</ele>
        <time>2015-11-11T14:29:03Z</time>
      </trkpt>
      <trkpt lat="43.75906" lon="1.13397">
        <ele>174.9</ele>
        <time>2015-11-11T14:29:04Z</time>
      </trkpt>
      <trkpt lat="43.75905" lon="1.13402">
        <ele>174.9</ele>
        <time>2015-11-11T14:29:05Z</time>
      </trkpt>
      <trkpt lat="43.75904" lon="1.13407">
        <ele>175</ele>
        <time>2015-11-11T14:29:06Z</time>
      </trkpt>
      <trkpt lat="43.75902" lon="1.13411">
        <ele>175.1</ele>
        <time>2015-11-11T14:29:07Z</time>
      </trkpt>
      <trkpt lat="43.75901" lon="1.13416">
        <ele>175.2</ele>
        <time>2015-11-11T14:29:08Z</time>
      </trkpt>
      <trkpt lat="43.75899" lon="1.13421">
        <ele>175.2</ele>
        <time>2015-11-11T14:29:09Z</time>
      </trkpt>
      <trkpt lat="43.75898" lon="1.13426">
        <ele>175.3</ele>
        <time>2015-11-11T14:29:10Z</time>
      </trkpt>
      <trkpt lat="43.75897" lon="1.13431">
        <ele>175.4</ele>
        <time>2015-11-11T14:29:11Z</time>
      </trkpt>
      <trkpt lat="43.75896" lon="1.13437">
        <ele>175.6</ele>
        <time>2015-11-11T14:29:12Z</time>
      </trkpt>
      <trkpt lat="43.75895" lon="1.13442">
        <ele>175.8</ele>
        <time>2015-11-11T14:29:13Z</time>
      </trkpt>
      <trkpt lat="43.75894" lon="1.13448">
        <ele>175.9</ele>
        <time>2015-11-11T14:29:14Z</time>
      </trkpt>
      <trkpt lat="43.75893" lon="1.13453">
        <ele>176.1</ele>
        <time>2015-11-11T14:29:15Z</time>
      </trkpt>
      <trkpt lat="43.75892" lon="1.13458">
        <ele>176.3</ele>
        <time>2015-11-11T14:29:16Z</time>
      </trkpt>
      <trkpt lat="43.75892" lon="1.13463">
        <ele>176.6</ele>
        <time>2015-11-11T14:29:17Z</time>
      </trkpt>
      <trkpt lat="43.75891" lon="1.13467">
        <ele>176.9</ele>
        <time>2015-11-11T14:29:18Z</time>
      </trkpt>
      <trkpt lat="43.75891" lon="1.13472">
        <ele>177.4</ele>
        <time>2015-11-11T14:29:19Z</time>
      </trkpt>
      <trkpt lat="43.7589" lon="1.13478">
        <ele>177.8</ele>
        <time>2015-11-11T14:29:20Z</time>
      </trkpt>
      <trkpt lat="43.7589" lon="1.13483">
        <ele>178.2</ele>
        <time>2015-11-11T14:29:21Z</time>
      </trkpt>
      <trkpt lat="43.7589" lon="1.13488">
        <ele>178.7</ele>
        <time>2015-11-11T14:29:22Z</time>
      </trkpt>
      <trkpt lat="43.7589" lon="1.13493">
        <ele>179.1</ele>
        <time>2015-11-11T14:29:23Z</time>
      </trkpt>
      <trkpt lat="43.75891" lon="1.13498">
        <ele>179.6</ele>
        <time>2015-11-11T14:29:24Z</time>
      </trkpt>
      <trkpt lat="43.75891" lon="1.13503">
        <ele>180</ele>
        <time>2015-11-11T14:29:25Z</time>
      </trkpt>
      <trkpt lat="43.75891" lon="1.13508">
        <ele>180.4</ele>
        <time>2015-11-11T14:29:26Z</time>
      </trkpt>
      <trkpt lat="43.7589" lon="1.13513">
        <ele>180.8</ele>
        <time>2015-11-11T14:29:27Z</time>
      </trkpt>
      <trkpt lat="43.7589" lon="1.13518">
        <ele>181.3</ele>
        <time>2015-11-11T14:29:28Z</time>
      </trkpt>
      <trkpt lat="43.7589" lon="1.13523">
        <ele>181.7</ele>
        <time>2015-11-11T14:29:29Z</time>
      </trkpt>
      <trkpt lat="43.75889" lon="1.13528">
        <ele>182.1</ele>
        <time>2015-11-11T14:29:30Z</time>
      </trkpt>
      <trkpt lat="43.75888" lon="1.13534">
        <ele>182.6</ele>
        <time>2015-11-11T14:29:31Z</time>
      </trkpt>
      <trkpt lat="43.75887" lon="1.13539">
        <ele>183</ele>
        <time>2015-11-11T14:29:32Z</time>
      </trkpt>
      <trkpt lat="43.75886" lon="1.13544">
        <ele>183.3</ele>
        <time>2015-11-11T14:29:33Z</time>
      </trkpt>
      <trkpt lat="43.75885" lon="1.13549">
        <ele>183.5</ele>
        <time>2015-11-11T14:29:34Z</time>
      </trkpt>
      <trkpt lat="43.75884" lon="1.13555">
        <ele>183.7</ele>
        <time>2015-11-11T14:29:35Z</time>
      </trkpt>
      <trkpt lat="43.75883" lon="1.1356">
        <ele>183.9</ele>
        <time>2015-11-11T14:29:36Z</time>
      </trkpt>
      <trkpt lat="43.75882" lon="1.13566">
        <ele>184</ele>
        <time>2015-11-11T14:29:37Z</time>
      </trkpt>
      <trkpt lat="43.75881" lon="1.13571">
        <ele>184.2</ele>
        <time>2015-11-11T14:29:38Z</time>
      </trkpt>
      <trkpt lat="43.7588" lon="1.13576">
        <ele>184.4</ele>
        <time>2015-11-11T14:29:39Z</time>
      </trkpt>
      <trkpt lat="43.75879" lon="1.13581">
        <ele>184.5</ele>
        <time>2015-11-11T14:29:40Z</time>
      </trkpt>
      <trkpt lat="43.75878" lon="1.13585">
        <ele>184.6</ele>
        <time>2015-11-11T14:29:41Z</time>
      </trkpt>
      <trkpt lat="43.75877" lon="1.13589">
        <ele>184.7</ele>
        <time>2015-11-11T14:29:42Z</time>
      </trkpt>
      <trkpt lat="43.75876" lon="1.13593">
        <ele>184.9</ele>
        <time>2015-11-11T14:29:43Z</time>
      </trkpt>
      <trkpt lat="43.75875" lon="1.13597">
        <ele>185</ele>
        <time>2015-11-11T14:29:44Z</time>
      </trkpt>
      <trkpt lat="43.75873" lon="1.13601">
        <ele>185.1</ele>
        <time>2015-11-11T14:29:45Z</time>
      </trkpt>
      <trkpt lat="43.75872" lon="1.13605">
        <ele>185.3</ele>
        <time>2015-11-11T14:29:46Z</time>
      </trkpt>
      <trkpt lat="43.7587" lon="1.13609">
        <ele>185.4</ele>
        <time>2015-11-11T14:29:47Z</time>
      </trkpt>
      <trkpt lat="43.75869" lon="1.13614">
        <ele>185.6</ele>
        <time>2015-11-11T14:29:48Z</time>
      </trkpt>
      <trkpt lat="43.75867" lon="1.13617">
        <ele>185.7</ele>
        <time>2015-11-11T14:29:49Z</time>
      </trkpt>
      <trkpt lat="43.75866" lon="1.1362">
        <ele>185.8</ele>
        <time>2015-11-11T14:29:50Z</time>
      </trkpt>
      <trkpt lat="43.75864" lon="1.13624">
        <ele>185.9</ele>
        <time>2015-11-11T14:29:51Z</time>
      </trkpt>
      <trkpt lat="43.75862" lon="1.13627">
        <ele>186.1</ele>
        <time>2015-11-11T14:29:52Z</time>
      </trkpt>
      <trkpt lat="43.75861" lon="1.1363">
        <ele>186.3</ele>
        <time>2015-11-11T14:29:53Z</time>
      </trkpt>
      <trkpt lat="43.7586" lon="1.13634">
        <ele>186.5</ele>
        <time>2015-11-11T14:29:54Z</time>
      </trkpt>
      <trkpt lat="43.75858" lon="1.13637">
        <ele>186.8</ele>
        <time>2015-11-11T14:29:55Z</time>
      </trkpt>
      <trkpt lat="43.75857" lon="1.13642">
        <ele>187</ele>
        <time>2015-11-11T14:29:56Z</time>
      </trkpt>
      <trkpt lat="43.75855" lon="1.13647">
        <ele>187.3</ele>
        <time>2015-11-11T14:29:57Z</time>
      </trkpt>
      <trkpt lat="43.75854" lon="1.13651">
        <ele>187.6</ele>
        <time>2015-11-11T14:29:58Z</time>
      </trkpt>
      <trkpt lat="43.75853" lon="1.13657">
        <ele>187.9</ele>
        <time>2015-11-11T14:29:59Z</time>
      </trkpt>
      <trkpt lat="43.75851" lon="1.13662">
        <ele>188.2</ele>
        <time>2015-11-11T14:30:00Z</time>
      </trkpt>
      <trkpt lat="43.7585" lon="1.13668">
        <ele>188.4</ele>
        <time>2015-11-11T14:30:01Z</time>
      </trkpt>
      <trkpt lat="43.75849" lon="1.13673">
        <ele>188.7</ele>
        <time>2015-11-11T14:30:02Z</time>
      </trkpt>
      <trkpt lat="43.75847" lon="1.13678">
        <ele>189</ele>
        <time>2015-11-11T14:30:03Z</time>
      </trkpt>
      <trkpt lat="43.75846" lon="1.13683">
        <ele>189.2</ele>
        <time>2015-11-11T14:30:04Z</time>
      </trkpt>
      <trkpt lat="43.75844" lon="1.13689">
        <ele>189.5</ele>
        <time>2015-11-11T14:30:05Z</time>
      </trkpt>
      <trkpt lat="43.75843" lon="1.13695">
        <ele>189.7</ele>
        <time>2015-11-11T14:30:06Z</time>
      </trkpt>
      <trkpt lat="43.75841" lon="1.137">
        <ele>190</ele>
        <time>2015-11-11T14:30:07Z</time>
      </trkpt>
      <trkpt lat="43.7584" lon="1.13706">
        <ele>190.2</ele>
        <time>2015-11-11T14:30:08Z</time>
      </trkpt>
      <trkpt lat="43.75839" lon="1.13711">
        <ele>190.6</ele>
        <time>2015-11-11T14:30:09Z</time>
      </trkpt>
      <trkpt lat="43.75837" lon="1.13717">
        <ele>191.1</ele>
        <time>2015-11-11T14:30:10Z</time>
      </trkpt>
      <trkpt lat="43.75836" lon="1.13723">
        <ele>191.6</ele>
        <time>2015-11-11T14:30:11Z</time>
      </trkpt>
      <trkpt lat="43.75834" lon="1.13729">
        <ele>192.1</ele>
        <time>2015-11-11T14:30:12Z</time>
      </trkpt>
      <trkpt lat="43.75832" lon="1.13734">
        <ele>192.5</ele>
        <time>2015-11-11T14:30:13Z</time>
      </trkpt>
      <trkpt lat="43.75831" lon="1.13739">
        <ele>192.9</ele>
        <time>2015-11-11T14:30:14Z</time>
      </trkpt>
      <trkpt lat="43.75829" lon="1.13744">
        <ele>193.2</ele>
        <time>2015-11-11T14:30:15Z</time>
      </trkpt>
      <trkpt lat="43.75827" lon="1.13748">
        <ele>193.4</ele>
        <time>2015-11-11T14:30:16Z</time>
      </trkpt>
      <trkpt lat="43.75825" lon="1.13753">
        <ele>193.7</ele>
        <time>2015-11-11T14:30:17Z</time>
      </trkpt>
      <trkpt lat="43.75824" lon="1.13757">
        <ele>193.9</ele>
        <time>2015-11-11T14:30:18Z</time>
      </trkpt>
      <trkpt lat="43.75823" lon="1.13762">
        <ele>194.2</ele>
        <time>2015-11-11T14:30:19Z</time>
      </trkpt>
      <trkpt lat="43.75821" lon="1.13766">
        <ele>194.4</ele>
        <time>2015-11-11T14:30:20Z</time>
      </trkpt>
      <trkpt lat="43.7582" lon="1.13771">
        <ele>194.6</ele>
        <time>2015-11-11T14:30:21Z</time>
      </trkpt>
      <trkpt lat="43.75819" lon="1.13775">
        <ele>194.8</ele>
        <time>2015-11-11T14:30:22Z</time>
      </trkpt>
      <trkpt lat="43.75817" lon="1.13781">
        <ele>195.1</ele>
        <time>2015-11-11T14:30:23Z</time>
      </trkpt>
      <trkpt lat="43.75816" lon="1.13786">
        <ele>195.4</ele>
        <time>2015-11-11T14:30:24Z</time>
      </trkpt>
      <trkpt lat="43.75815" lon="1.13792">
        <ele>195.7</ele>
        <time>2015-11-11T14:30:25Z</time>
      </trkpt>
      <trkpt lat="43.75815" lon="1.13799">
        <ele>196.1</ele>
        <time>2015-11-11T14:30:26Z</time>
      </trkpt>
      <trkpt lat="43.75815" lon="1.13805">
        <ele>196.6</ele>
        <time>2015-11-11T14:30:27Z</time>
      </trkpt>
      <trkpt lat="43.75815" lon="1.13812">
        <ele>197</ele>
        <time>2015-11-11T14:30:28Z</time>
      </trkpt>
      <trkpt lat="43.75815" lon="1.13818">
        <ele>197.6</ele>
        <time>2015-11-11T14:30:29Z</time>
      </trkpt>
      <trkpt lat="43.75815" lon="1.13824">
        <ele>198</ele>
        <time>2015-11-11T14:30:30Z</time>
      </trkpt>
      <trkpt lat="43.75816" lon="1.1383">
        <ele>198.5</ele>
        <time>2015-11-11T14:30:31Z</time>
      </trkpt>
      <trkpt lat="43.75816" lon="1.13835">
        <ele>199</ele>
        <time>2015-11-11T14:30:32Z</time>
      </trkpt>
      <trkpt lat="43.75817" lon="1.13841">
        <ele>199.5</ele>
        <time>2015-11-11T14:30:33Z</time>
      </trkpt>
      <trkpt lat="43.75817" lon="1.13848">
        <ele>200</ele>
        <time>2015-11-11T14:30:34Z</time>
      </trkpt>
      <trkpt lat="43.75818" lon="1.13852">
        <ele>200.5</ele>
        <time>2015-11-11T14:30:35Z</time>
      </trkpt>
      <trkpt lat="43.75816" lon="1.1386">
        <ele>200.8</ele>
        <time>2015-11-11T14:30:36Z</time>
      </trkpt>
      <trkpt lat="43.75815" lon="1.13865">
        <ele>201.1</ele>
        <time>2015-11-11T14:30:37Z</time>
      </trkpt>
      <trkpt lat="43.75814" lon="1.13871">
        <ele>201.4</ele>
        <time>2015-11-11T14:30:38Z</time>
      </trkpt>
      <trkpt lat="43.75814" lon="1.13878">
        <ele>201.8</ele>
        <time>2015-11-11T14:30:39Z</time>
      </trkpt>
      <trkpt lat="43.75813" lon="1.13883">
        <ele>202</ele>
        <time>2015-11-11T14:30:40Z</time>
      </trkpt>
      <trkpt lat="43.75811" lon="1.13888">
        <ele>202.2</ele>
        <time>2015-11-11T14:30:41Z</time>
      </trkpt>
      <trkpt lat="43.7581" lon="1.13894">
        <ele>202.4</ele>
        <time>2015-11-11T14:30:42Z</time>
      </trkpt>
      <trkpt lat="43.75807" lon="1.13902">
        <ele>202.7</ele>
        <time>2015-11-11T14:30:43Z</time>
      </trkpt>
      <trkpt lat="43.75805" lon="1.13908">
        <ele>202.9</ele>
        <time>2015-11-11T14:30:44Z</time>
      </trkpt>
      <trkpt lat="43.75803" lon="1.13914">
        <ele>203.2</ele>
        <time>2015-11-11T14:30:45Z</time>
      </trkpt>
      <trkpt lat="43.75802" lon="1.13919">
        <ele>203.4</ele>
        <time>2015-11-11T14:30:46Z</time>
      </trkpt>
      <trkpt lat="43.758" lon="1.13925">
        <ele>203.8</ele>
        <time>2015-11-11T14:30:47Z</time>
      </trkpt>
      <trkpt lat="43.75799" lon="1.1393">
        <ele>204.1</ele>
        <time>2015-11-11T14:30:48Z</time>
      </trkpt>
      <trkpt lat="43.75797" lon="1.13936">
        <ele>204.5</ele>
        <time>2015-11-11T14:30:49Z</time>
      </trkpt>
      <trkpt lat="43.75796" lon="1.13943">
        <ele>204.9</ele>
        <time>2015-11-11T14:30:50Z</time>
      </trkpt>
      <trkpt lat="43.75794" lon="1.13949">
        <ele>205.3</ele>
        <time>2015-11-11T14:30:51Z</time>
      </trkpt>
      <trkpt lat="43.75792" lon="1.13954">
        <ele>205.6</ele>
        <time>2015-11-11T14:30:52Z</time>
      </trkpt>
      <trkpt lat="43.7579" lon="1.13959">
        <ele>206</ele>
        <time>2015-11-11T14:30:53Z</time>
      </trkpt>
      <trkpt lat="43.75788" lon="1.13964">
        <ele>206.2</ele>
        <time>2015-11-11T14:30:54Z</time>
      </trkpt>
      <trkpt lat="43.75786" lon="1.1397">
        <ele>206.4</ele>
        <time>2015-11-11T14:30:55Z</time>
      </trkpt>
      <trkpt lat="43.75784" lon="1.13975">
        <ele>206.7</ele>
        <time>2015-11-11T14:30:56Z</time>
      </trkpt>
      <trkpt lat="43.75783" lon="1.1398">
        <ele>206.9</ele>
        <time>2015-11-11T14:30:57Z</time>
      </trkpt>
      <trkpt lat="43.75782" lon="1.13985">
        <ele>207.1</ele>
        <time>2015-11-11T14:30:58Z</time>
      </trkpt>
      <trkpt lat="43.7578" lon="1.13989">
        <ele>207.3</ele>
        <time>2015-11-11T14:30:59Z</time>
      </trkpt>
      <trkpt lat="43.75779" lon="1.13994">
        <ele>207.5</ele>
        <time>2015-11-11T14:31:00Z</time>
      </trkpt>
      <trkpt lat="43.75777" lon="1.14">
        <ele>207.8</ele>
        <time>2015-11-11T14:31:01Z</time>
      </trkpt>
      <trkpt lat="43.75776" lon="1.14005">
        <ele>208.1</ele>
        <time>2015-11-11T14:31:02Z</time>
      </trkpt>
      <trkpt lat="43.75775" lon="1.14011">
        <ele>208.4</ele>
        <time>2015-11-11T14:31:03Z</time>
      </trkpt>
      <trkpt lat="43.75773" lon="1.14016">
        <ele>208.6</ele>
        <time>2015-11-11T14:31:04Z</time>
      </trkpt>
      <trkpt lat="43.75772" lon="1.14022">
        <ele>208.9</ele>
        <time>2015-11-11T14:31:05Z</time>
      </trkpt>
      <trkpt lat="43.75771" lon="1.14028">
        <ele>209.2</ele>
        <time>2015-11-11T14:31:06Z</time>
      </trkpt>
      <trkpt lat="43.75769" lon="1.14034">
        <ele>209.6</ele>
        <time>2015-11-11T14:31:07Z</time>
      </trkpt>
      <trkpt lat="43.75769" lon="1.1404">
        <ele>209.9</ele>
        <time>2015-11-11T14:31:08Z</time>
      </trkpt>
      <trkpt lat="43.75768" lon="1.14045">
        <ele>210.1</ele>
        <time>2015-11-11T14:31:09Z</time>
      </trkpt>
      <trkpt lat="43.75767" lon="1.14051">
        <ele>210.3</ele>
        <time>2015-11-11T14:31:10Z</time>
      </trkpt>
      <trkpt lat="43.75766" lon="1.14057">
        <ele>210.4</ele>
        <time>2015-11-11T14:31:11Z</time>
      </trkpt>
      <trkpt lat="43.75765" lon="1.14064">
        <ele>210.6</ele>
        <time>2015-11-11T14:31:12Z</time>
      </trkpt>
      <trkpt lat="43.75763" lon="1.1407">
        <ele>210.8</ele>
        <time>2015-11-11T14:31:13Z</time>
      </trkpt>
      <trkpt lat="43.75761" lon="1.14076">
        <ele>211</ele>
        <time>2015-11-11T14:31:14Z</time>
      </trkpt>
      <trkpt lat="43.75757" lon="1.14085">
        <ele>211.3</ele>
        <time>2015-11-11T14:31:15Z</time>
      </trkpt>
      <trkpt lat="43.75755" lon="1.14091">
        <ele>211.5</ele>
        <time>2015-11-11T14:31:16Z</time>
      </trkpt>
      <trkpt lat="43.75751" lon="1.14097">
        <ele>211.6</ele>
        <time>2015-11-11T14:31:17Z</time>
      </trkpt>
      <trkpt lat="43.75748" lon="1.14104">
        <ele>211.9</ele>
        <time>2015-11-11T14:31:18Z</time>
      </trkpt>
      <trkpt lat="43.75745" lon="1.14109">
        <ele>212.1</ele>
        <time>2015-11-11T14:31:19Z</time>
      </trkpt>
      <trkpt lat="43.75743" lon="1.14114">
        <ele>212.2</ele>
        <time>2015-11-11T14:31:20Z</time>
      </trkpt>
      <trkpt lat="43.7574" lon="1.14119">
        <ele>212.4</ele>
        <time>2015-11-11T14:31:21Z</time>
      </trkpt>
      <trkpt lat="43.75734" lon="1.14127">
        <ele>212.6</ele>
        <time>2015-11-11T14:31:22Z</time>
      </trkpt>
      <trkpt lat="43.75731" lon="1.14136">
        <ele>212.4</ele>
        <time>2015-11-11T14:31:23Z</time>
      </trkpt>
      <trkpt lat="43.75727" lon="1.14143">
        <ele>212.3</ele>
        <time>2015-11-11T14:31:24Z</time>
      </trkpt>
      <trkpt lat="43.75725" lon="1.14148">
        <ele>212.2</ele>
        <time>2015-11-11T14:31:25Z</time>
      </trkpt>
      <trkpt lat="43.75726" lon="1.14157">
        <ele>212</ele>
        <time>2015-11-11T14:31:26Z</time>
      </trkpt>
      <trkpt lat="43.7572" lon="1.14166">
        <ele>211.8</ele>
        <time>2015-11-11T14:31:27Z</time>
      </trkpt>
      <trkpt lat="43.75714" lon="1.14175">
        <ele>211.7</ele>
        <time>2015-11-11T14:31:28Z</time>
      </trkpt>
      <trkpt lat="43.7571" lon="1.14184">
        <ele>211.6</ele>
        <time>2015-11-11T14:31:29Z</time>
      </trkpt>
      <trkpt lat="43.75706" lon="1.1419">
        <ele>211.5</ele>
        <time>2015-11-11T14:31:30Z</time>
      </trkpt>
      <trkpt lat="43.75701" lon="1.14197">
        <ele>211.4</ele>
        <time>2015-11-11T14:31:31Z</time>
      </trkpt>
      <trkpt lat="43.75696" lon="1.14206">
        <ele>211.3</ele>
        <time>2015-11-11T14:31:32Z</time>
      </trkpt>
      <trkpt lat="43.75692" lon="1.14215">
        <ele>211.2</ele>
        <time>2015-11-11T14:31:33Z</time>
      </trkpt>
      <trkpt lat="43.75686" lon="1.14223">
        <ele>211</ele>
        <time>2015-11-11T14:31:34Z</time>
      </trkpt>
      <trkpt lat="43.75682" lon="1.1423">
        <ele>210.8</ele>
        <time>2015-11-11T14:31:35Z</time>
      </trkpt>
      <trkpt lat="43.75677" lon="1.14237">
        <ele>210.6</ele>
        <time>2015-11-11T14:31:36Z</time>
      </trkpt>
      <trkpt lat="43.75672" lon="1.14245">
        <ele>210.4</ele>
        <time>2015-11-11T14:31:37Z</time>
      </trkpt>
      <trkpt lat="43.75668" lon="1.14252">
        <ele>210.2</ele>
        <time>2015-11-11T14:31:38Z</time>
      </trkpt>
      <trkpt lat="43.75663" lon="1.1426">
        <ele>209.9</ele>
        <time>2015-11-11T14:31:39Z</time>
      </trkpt>
      <trkpt lat="43.75659" lon="1.14267">
        <ele>209.6</ele>
        <time>2015-11-11T14:31:40Z</time>
      </trkpt>
      <trkpt lat="43.75655" lon="1.14274">
        <ele>209.4</ele>
        <time>2015-11-11T14:31:41Z</time>
      </trkpt>
      <trkpt lat="43.75651" lon="1.1428">
        <ele>209.2</ele>
        <time>2015-11-11T14:31:42Z</time>
      </trkpt>
      <trkpt lat="43.75647" lon="1.14287">
        <ele>208.9</ele>
        <time>2015-11-11T14:31:43Z</time>
      </trkpt>
      <trkpt lat="43.75643" lon="1.14293">
        <ele>208.8</ele>
        <time>2015-11-11T14:31:44Z</time>
      </trkpt>
      <trkpt lat="43.7564" lon="1.14299">
        <ele>208.7</ele>
        <time>2015-11-11T14:31:45Z</time>
      </trkpt>
      <trkpt lat="43.75636" lon="1.14307">
        <ele>208.7</ele>
        <time>2015-11-11T14:31:46Z</time>
      </trkpt>
      <trkpt lat="43.75632" lon="1.14313">
        <ele>208.6</ele>
        <time>2015-11-11T14:31:47Z</time>
      </trkpt>
      <trkpt lat="43.75629" lon="1.14321">
        <ele>208.6</ele>
        <time>2015-11-11T14:31:48Z</time>
      </trkpt>
      <trkpt lat="43.75625" lon="1.14328">
        <ele>208.6</ele>
        <time>2015-11-11T14:31:49Z</time>
      </trkpt>
      <trkpt lat="43.75621" lon="1.14335">
        <ele>208.6</ele>
        <time>2015-11-11T14:31:50Z</time>
      </trkpt>
      <trkpt lat="43.75617" lon="1.14342">
        <ele>208.6</ele>
        <time>2015-11-11T14:31:51Z</time>
      </trkpt>
      <trkpt lat="43.75613" lon="1.14351">
        <ele>208.6</ele>
        <time>2015-11-11T14:31:52Z</time>
      </trkpt>
      <trkpt lat="43.75609" lon="1.14359">
        <ele>208.6</ele>
        <time>2015-11-11T14:31:53Z</time>
      </trkpt>
      <trkpt lat="43.75605" lon="1.14366">
        <ele>208.6</ele>
        <time>2015-11-11T14:31:54Z</time>
      </trkpt>
      <trkpt lat="43.75602" lon="1.14373">
        <ele>208.6</ele>
        <time>2015-11-11T14:31:55Z</time>
      </trkpt>
      <trkpt lat="43.756" lon="1.14378">
        <ele>208.6</ele>
        <time>2015-11-11T14:31:56Z</time>
      </trkpt>
      <trkpt lat="43.75597" lon="1.14385">
        <ele>208.6</ele>
        <time>2015-11-11T14:31:57Z</time>
      </trkpt>
      <trkpt lat="43.75593" lon="1.14391">
        <ele>208.6</ele>
        <time>2015-11-11T14:31:58Z</time>
      </trkpt>
      <trkpt lat="43.7559" lon="1.14397">
        <ele>208.6</ele>
        <time>2015-11-11T14:31:59Z</time>
      </trkpt>
      <trkpt lat="43.75587" lon="1.14404">
        <ele>208.6</ele>
        <time>2015-11-11T14:32:00Z</time>
      </trkpt>
      <trkpt lat="43.75582" lon="1.1441">
        <ele>208.6</ele>
        <time>2015-11-11T14:32:01Z</time>
      </trkpt>
      <trkpt lat="43.7558" lon="1.14416">
        <ele>208.6</ele>
        <time>2015-11-11T14:32:02Z</time>
      </trkpt>
      <trkpt lat="43.75577" lon="1.14424">
        <ele>208.6</ele>
        <time>2015-11-11T14:32:03Z</time>
      </trkpt>
      <trkpt lat="43.75574" lon="1.1443">
        <ele>208.6</ele>
        <time>2015-11-11T14:32:04Z</time>
      </trkpt>
      <trkpt lat="43.75569" lon="1.14437">
        <ele>208.6</ele>
        <time>2015-11-11T14:32:05Z</time>
      </trkpt>
      <trkpt lat="43.75565" lon="1.14443">
        <ele>208.6</ele>
        <time>2015-11-11T14:32:06Z</time>
      </trkpt>
      <trkpt lat="43.75561" lon="1.14451">
        <ele>208.6</ele>
        <time>2015-11-11T14:32:07Z</time>
      </trkpt>
      <trkpt lat="43.75557" lon="1.14458">
        <ele>208.6</ele>
        <time>2015-11-11T14:32:08Z</time>
      </trkpt>
      <trkpt lat="43.75553" lon="1.14465">
        <ele>208.6</ele>
        <time>2015-11-11T14:32:09Z</time>
      </trkpt>
      <trkpt lat="43.75549" lon="1.14473">
        <ele>208.5</ele>
        <time>2015-11-11T14:32:10Z</time>
      </trkpt>
      <trkpt lat="43.75546" lon="1.14478">
        <ele>208.4</ele>
        <time>2015-11-11T14:32:11Z</time>
      </trkpt>
      <trkpt lat="43.75543" lon="1.14483">
        <ele>208.4</ele>
        <time>2015-11-11T14:32:12Z</time>
      </trkpt>
      <trkpt lat="43.75539" lon="1.14489">
        <ele>208.2</ele>
        <time>2015-11-11T14:32:13Z</time>
      </trkpt>
      <trkpt lat="43.75536" lon="1.14495">
        <ele>208.1</ele>
        <time>2015-11-11T14:32:14Z</time>
      </trkpt>
      <trkpt lat="43.75532" lon="1.14502">
        <ele>207.9</ele>
        <time>2015-11-11T14:32:15Z</time>
      </trkpt>
      <trkpt lat="43.75528" lon="1.14509">
        <ele>207.7</ele>
        <time>2015-11-11T14:32:16Z</time>
      </trkpt>
      <trkpt lat="43.75524" lon="1.14516">
        <ele>207.5</ele>
        <time>2015-11-11T14:32:17Z</time>
      </trkpt>
      <trkpt lat="43.7552" lon="1.14525">
        <ele>207.2</ele>
        <time>2015-11-11T14:32:18Z</time>
      </trkpt>
      <trkpt lat="43.75515" lon="1.14534">
        <ele>206.9</ele>
        <time>2015-11-11T14:32:19Z</time>
      </trkpt>
      <trkpt lat="43.75511" lon="1.14541">
        <ele>206.7</ele>
        <time>2015-11-11T14:32:20Z</time>
      </trkpt>
      <trkpt lat="43.75508" lon="1.14546">
        <ele>206.6</ele>
        <time>2015-11-11T14:32:21Z</time>
      </trkpt>
      <trkpt lat="43.75503" lon="1.14553">
        <ele>206.5</ele>
        <time>2015-11-11T14:32:22Z</time>
      </trkpt>
      <trkpt lat="43.75498" lon="1.14561">
        <ele>206.5</ele>
        <time>2015-11-11T14:32:23Z</time>
      </trkpt>
      <trkpt lat="43.75493" lon="1.14567">
        <ele>206.4</ele>
        <time>2015-11-11T14:32:24Z</time>
      </trkpt>
      <trkpt lat="43.75488" lon="1.14574">
        <ele>206.4</ele>
        <time>2015-11-11T14:32:25Z</time>
      </trkpt>
      <trkpt lat="43.75485" lon="1.1458">
        <ele>206.3</ele>
        <time>2015-11-11T14:32:26Z</time>
      </trkpt>
      <trkpt lat="43.7548" lon="1.14588">
        <ele>206.3</ele>
        <time>2015-11-11T14:32:27Z</time>
      </trkpt>
      <trkpt lat="43.75476" lon="1.14597">
        <ele>206.2</ele>
        <time>2015-11-11T14:32:28Z</time>
      </trkpt>
      <trkpt lat="43.75472" lon="1.14603">
        <ele>206.2</ele>
        <time>2015-11-11T14:32:29Z</time>
      </trkpt>
      <trkpt lat="43.75468" lon="1.1461">
        <ele>206.1</ele>
        <time>2015-11-11T14:32:30Z</time>
      </trkpt>
      <trkpt lat="43.75464" lon="1.14616">
        <ele>206.1</ele>
        <time>2015-11-11T14:32:31Z</time>
      </trkpt>
      <trkpt lat="43.75459" lon="1.14623">
        <ele>206</ele>
        <time>2015-11-11T14:32:32Z</time>
      </trkpt>
      <trkpt lat="43.75454" lon="1.14628">
        <ele>206</ele>
        <time>2015-11-11T14:32:33Z</time>
      </trkpt>
      <trkpt lat="43.75451" lon="1.14634">
        <ele>205.9</ele>
        <time>2015-11-11T14:32:34Z</time>
      </trkpt>
      <trkpt lat="43.75446" lon="1.1464">
        <ele>205.8</ele>
        <time>2015-11-11T14:32:35Z</time>
      </trkpt>
      <trkpt lat="43.75442" lon="1.14646">
        <ele>205.6</ele>
        <time>2015-11-11T14:32:36Z</time>
      </trkpt>
      <trkpt lat="43.75437" lon="1.14656">
        <ele>205.4</ele>
        <time>2015-11-11T14:32:37Z</time>
      </trkpt>
      <trkpt lat="43.75432" lon="1.14664">
        <ele>205.2</ele>
        <time>2015-11-11T14:32:38Z</time>
      </trkpt>
      <trkpt lat="43.75427" lon="1.1467">
        <ele>205.1</ele>
        <time>2015-11-11T14:32:39Z</time>
      </trkpt>
      <trkpt lat="43.75421" lon="1.14675">
        <ele>205</ele>
        <time>2015-11-11T14:32:40Z</time>
      </trkpt>
      <trkpt lat="43.75417" lon="1.14682">
        <ele>204.8</ele>
        <time>2015-11-11T14:32:41Z</time>
      </trkpt>
      <trkpt lat="43.75412" lon="1.14689">
        <ele>204.6</ele>
        <time>2015-11-11T14:32:42Z</time>
      </trkpt>
      <trkpt lat="43.75408" lon="1.14699">
        <ele>204.3</ele>
        <time>2015-11-11T14:32:43Z</time>
      </trkpt>
      <trkpt lat="43.75402" lon="1.14715">
        <ele>203.9</ele>
        <time>2015-11-11T14:32:44Z</time>
      </trkpt>
      <trkpt lat="43.75398" lon="1.14721">
        <ele>203.9</ele>
        <time>2015-11-11T14:32:45Z</time>
      </trkpt>
      <trkpt lat="43.75393" lon="1.14728">
        <ele>203.8</ele>
        <time>2015-11-11T14:32:46Z</time>
      </trkpt>
      <trkpt lat="43.75389" lon="1.14735">
        <ele>203.7</ele>
        <time>2015-11-11T14:32:47Z</time>
      </trkpt>
      <trkpt lat="43.75384" lon="1.14742">
        <ele>203.6</ele>
        <time>2015-11-11T14:32:48Z</time>
      </trkpt>
      <trkpt lat="43.7538" lon="1.14752">
        <ele>203.5</ele>
        <time>2015-11-11T14:32:49Z</time>
      </trkpt>
      <trkpt lat="43.75376" lon="1.14757">
        <ele>203.4</ele>
        <time>2015-11-11T14:32:50Z</time>
      </trkpt>
      <trkpt lat="43.75373" lon="1.14762">
        <ele>203.4</ele>
        <time>2015-11-11T14:32:51Z</time>
      </trkpt>
      <trkpt lat="43.75368" lon="1.14768">
        <ele>203.5</ele>
        <time>2015-11-11T14:32:52Z</time>
      </trkpt>
      <trkpt lat="43.75364" lon="1.14773">
        <ele>203.6</ele>
        <time>2015-11-11T14:32:53Z</time>
      </trkpt>
      <trkpt lat="43.75359" lon="1.14779">
        <ele>203.7</ele>
        <time>2015-11-11T14:32:54Z</time>
      </trkpt>
      <trkpt lat="43.75355" lon="1.14786">
        <ele>203.8</ele>
        <time>2015-11-11T14:32:55Z</time>
      </trkpt>
      <trkpt lat="43.7535" lon="1.14793">
        <ele>203.9</ele>
        <time>2015-11-11T14:32:56Z</time>
      </trkpt>
      <trkpt lat="43.75346" lon="1.14801">
        <ele>203.9</ele>
        <time>2015-11-11T14:32:57Z</time>
      </trkpt>
      <trkpt lat="43.75342" lon="1.14809">
        <ele>203.9</ele>
        <time>2015-11-11T14:32:58Z</time>
      </trkpt>
      <trkpt lat="43.75337" lon="1.14816">
        <ele>203.9</ele>
        <time>2015-11-11T14:32:59Z</time>
      </trkpt>
      <trkpt lat="43.75332" lon="1.14823">
        <ele>204</ele>
        <time>2015-11-11T14:33:00Z</time>
      </trkpt>
      <trkpt lat="43.75328" lon="1.14832">
        <ele>203.9</ele>
        <time>2015-11-11T14:33:01Z</time>
      </trkpt>
      <trkpt lat="43.75323" lon="1.14839">
        <ele>203.9</ele>
        <time>2015-11-11T14:33:02Z</time>
      </trkpt>
      <trkpt lat="43.75318" lon="1.14846">
        <ele>203.9</ele>
        <time>2015-11-11T14:33:03Z</time>
      </trkpt>
      <trkpt lat="43.75313" lon="1.14854">
        <ele>203.9</ele>
        <time>2015-11-11T14:33:04Z</time>
      </trkpt>
      <trkpt lat="43.75308" lon="1.14862">
        <ele>203.9</ele>
        <time>2015-11-11T14:33:05Z</time>
      </trkpt>
      <trkpt lat="43.75303" lon="1.14871">
        <ele>203.8</ele>
        <time>2015-11-11T14:33:06Z</time>
      </trkpt>
      <trkpt lat="43.75298" lon="1.14878">
        <ele>203.8</ele>
        <time>2015-11-11T14:33:07Z</time>
      </trkpt>
      <trkpt lat="43.75293" lon="1.14883">
        <ele>204</ele>
        <time>2015-11-11T14:33:08Z</time>
      </trkpt>
      <trkpt lat="43.75289" lon="1.14888">
        <ele>204</ele>
        <time>2015-11-11T14:33:09Z</time>
      </trkpt>
      <trkpt lat="43.75285" lon="1.14897">
        <ele>203.9</ele>
        <time>2015-11-11T14:33:10Z</time>
      </trkpt>
      <trkpt lat="43.7528" lon="1.14904">
        <ele>203.9</ele>
        <time>2015-11-11T14:33:11Z</time>
      </trkpt>
      <trkpt lat="43.75276" lon="1.14912">
        <ele>203.8</ele>
        <time>2015-11-11T14:33:12Z</time>
      </trkpt>
      <trkpt lat="43.75271" lon="1.14919">
        <ele>203.7</ele>
        <time>2015-11-11T14:33:13Z</time>
      </trkpt>
      <trkpt lat="43.75266" lon="1.14927">
        <ele>203.7</ele>
        <time>2015-11-11T14:33:14Z</time>
      </trkpt>
      <trkpt lat="43.75261" lon="1.14934">
        <ele>203.6</ele>
        <time>2015-11-11T14:33:15Z</time>
      </trkpt>
      <trkpt lat="43.75257" lon="1.14942">
        <ele>203.6</ele>
        <time>2015-11-11T14:33:16Z</time>
      </trkpt>
      <trkpt lat="43.75253" lon="1.1495">
        <ele>203.5</ele>
        <time>2015-11-11T14:33:17Z</time>
      </trkpt>
      <trkpt lat="43.75248" lon="1.14959">
        <ele>203.5</ele>
        <time>2015-11-11T14:33:18Z</time>
      </trkpt>
      <trkpt lat="43.75244" lon="1.14965">
        <ele>203.4</ele>
        <time>2015-11-11T14:33:19Z</time>
      </trkpt>
      <trkpt lat="43.75239" lon="1.14973">
        <ele>203.3</ele>
        <time>2015-11-11T14:33:20Z</time>
      </trkpt>
      <trkpt lat="43.75233" lon="1.14981">
        <ele>203.2</ele>
        <time>2015-11-11T14:33:21Z</time>
      </trkpt>
      <trkpt lat="43.75229" lon="1.14988">
        <ele>203.2</ele>
        <time>2015-11-11T14:33:22Z</time>
      </trkpt>
      <trkpt lat="43.75225" lon="1.14994">
        <ele>203.1</ele>
        <time>2015-11-11T14:33:23Z</time>
      </trkpt>
      <trkpt lat="43.75221" lon="1.15">
        <ele>203.1</ele>
        <time>2015-11-11T14:33:24Z</time>
      </trkpt>
      <trkpt lat="43.75217" lon="1.15007">
        <ele>203</ele>
        <time>2015-11-11T14:33:25Z</time>
      </trkpt>
      <trkpt lat="43.75213" lon="1.15013">
        <ele>203</ele>
        <time>2015-11-11T14:33:26Z</time>
      </trkpt>
      <trkpt lat="43.75207" lon="1.15022">
        <ele>203</ele>
        <time>2015-11-11T14:33:27Z</time>
      </trkpt>
      <trkpt lat="43.75204" lon="1.15028">
        <ele>203</ele>
        <time>2015-11-11T14:33:28Z</time>
      </trkpt>
      <trkpt lat="43.752" lon="1.15036">
        <ele>203</ele>
        <time>2015-11-11T14:33:29Z</time>
      </trkpt>
      <trkpt lat="43.75194" lon="1.15045">
        <ele>202.9</ele>
        <time>2015-11-11T14:33:30Z</time>
      </trkpt>
      <trkpt lat="43.7519" lon="1.15052">
        <ele>202.8</ele>
        <time>2015-11-11T14:33:31Z</time>
      </trkpt>
      <trkpt lat="43.75185" lon="1.1506">
        <ele>202.6</ele>
        <time>2015-11-11T14:33:32Z</time>
      </trkpt>
      <trkpt lat="43.75181" lon="1.15068">
        <ele>202.5</ele>
        <time>2015-11-11T14:33:33Z</time>
      </trkpt>
      <trkpt lat="43.75176" lon="1.15075">
        <ele>202.4</ele>
        <time>2015-11-11T14:33:34Z</time>
      </trkpt>
      <trkpt lat="43.75172" lon="1.15079">
        <ele>202.3</ele>
        <time>2015-11-11T14:33:35Z</time>
      </trkpt>
      <trkpt lat="43.75167" lon="1.15087">
        <ele>202.2</ele>
        <time>2015-11-11T14:33:36Z</time>
      </trkpt>
      <trkpt lat="43.75163" lon="1.15091">
        <ele>202.1</ele>
        <time>2015-11-11T14:33:37Z</time>
      </trkpt>
      <trkpt lat="43.75159" lon="1.15098">
        <ele>202.1</ele>
        <time>2015-11-11T14:33:38Z</time>
      </trkpt>
      <trkpt lat="43.75155" lon="1.15105">
        <ele>202</ele>
        <time>2015-11-11T14:33:39Z</time>
      </trkpt>
      <trkpt lat="43.75151" lon="1.15113">
        <ele>201.9</ele>
        <time>2015-11-11T14:33:40Z</time>
      </trkpt>
      <trkpt lat="43.75146" lon="1.15121">
        <ele>201.8</ele>
        <time>2015-11-11T14:33:41Z</time>
      </trkpt>
      <trkpt lat="43.75141" lon="1.15128">
        <ele>201.8</ele>
        <time>2015-11-11T14:33:42Z</time>
      </trkpt>
      <trkpt lat="43.75135" lon="1.15135">
        <ele>201.9</ele>
        <time>2015-11-11T14:33:43Z</time>
      </trkpt>
      <trkpt lat="43.75131" lon="1.15144">
        <ele>201.9</ele>
        <time>2015-11-11T14:33:44Z</time>
      </trkpt>
      <trkpt lat="43.75127" lon="1.1515">
        <ele>202</ele>
        <time>2015-11-11T14:33:45Z</time>
      </trkpt>
      <trkpt lat="43.75122" lon="1.15158">
        <ele>201.9</ele>
        <time>2015-11-11T14:33:46Z</time>
      </trkpt>
      <trkpt lat="43.75117" lon="1.15167">
        <ele>201.8</ele>
        <time>2015-11-11T14:33:47Z</time>
      </trkpt>
      <trkpt lat="43.75112" lon="1.15176">
        <ele>201.7</ele>
        <time>2015-11-11T14:33:48Z</time>
      </trkpt>
      <trkpt lat="43.75107" lon="1.15183">
        <ele>201.6</ele>
        <time>2015-11-11T14:33:49Z</time>
      </trkpt>
      <trkpt lat="43.75103" lon="1.15191">
        <ele>201.5</ele>
        <time>2015-11-11T14:33:50Z</time>
      </trkpt>
      <trkpt lat="43.75098" lon="1.15199">
        <ele>201.4</ele>
        <time>2015-11-11T14:33:51Z</time>
      </trkpt>
      <trkpt lat="43.75094" lon="1.15209">
        <ele>201.2</ele>
        <time>2015-11-11T14:33:52Z</time>
      </trkpt>
      <trkpt lat="43.75089" lon="1.15215">
        <ele>201</ele>
        <time>2015-11-11T14:33:53Z</time>
      </trkpt>
      <trkpt lat="43.75083" lon="1.15224">
        <ele>200.8</ele>
        <time>2015-11-11T14:33:54Z</time>
      </trkpt>
      <trkpt lat="43.75078" lon="1.15233">
        <ele>200.6</ele>
        <time>2015-11-11T14:33:55Z</time>
      </trkpt>
      <trkpt lat="43.75073" lon="1.15241">
        <ele>200.4</ele>
        <time>2015-11-11T14:33:56Z</time>
      </trkpt>
      <trkpt lat="43.75069" lon="1.1525">
        <ele>200.1</ele>
        <time>2015-11-11T14:33:57Z</time>
      </trkpt>
      <trkpt lat="43.75065" lon="1.15258">
        <ele>200</ele>
        <time>2015-11-11T14:33:58Z</time>
      </trkpt>
      <trkpt lat="43.75061" lon="1.15268">
        <ele>199.7</ele>
        <time>2015-11-11T14:33:59Z</time>
      </trkpt>
      <trkpt lat="43.75057" lon="1.15276">
        <ele>199.6</ele>
        <time>2015-11-11T14:34:00Z</time>
      </trkpt>
      <trkpt lat="43.75052" lon="1.15282">
        <ele>199.4</ele>
        <time>2015-11-11T14:34:01Z</time>
      </trkpt>
      <trkpt lat="43.75046" lon="1.15291">
        <ele>199.1</ele>
        <time>2015-11-11T14:34:02Z</time>
      </trkpt>
      <trkpt lat="43.75041" lon="1.153">
        <ele>198.9</ele>
        <time>2015-11-11T14:34:03Z</time>
      </trkpt>
      <trkpt lat="43.75036" lon="1.15308">
        <ele>198.5</ele>
        <time>2015-11-11T14:34:04Z</time>
      </trkpt>
      <trkpt lat="43.75033" lon="1.15312">
        <ele>198.3</ele>
        <time>2015-11-11T14:34:05Z</time>
      </trkpt>
      <trkpt lat="43.75028" lon="1.1532">
        <ele>198</ele>
        <time>2015-11-11T14:34:06Z</time>
      </trkpt>
      <trkpt lat="43.75024" lon="1.15328">
        <ele>197.7</ele>
        <time>2015-11-11T14:34:07Z</time>
      </trkpt>
      <trkpt lat="43.75019" lon="1.15337">
        <ele>197.4</ele>
        <time>2015-11-11T14:34:08Z</time>
      </trkpt>
      <trkpt lat="43.75014" lon="1.15347">
        <ele>197</ele>
        <time>2015-11-11T14:34:09Z</time>
      </trkpt>
      <trkpt lat="43.75009" lon="1.15357">
        <ele>196.6</ele>
        <time>2015-11-11T14:34:10Z</time>
      </trkpt>
      <trkpt lat="43.75004" lon="1.15365">
        <ele>196.3</ele>
        <time>2015-11-11T14:34:11Z</time>
      </trkpt>
      <trkpt lat="43.74999" lon="1.15374">
        <ele>196</ele>
        <time>2015-11-11T14:34:12Z</time>
      </trkpt>
      <trkpt lat="43.74994" lon="1.1538">
        <ele>195.6</ele>
        <time>2015-11-11T14:34:13Z</time>
      </trkpt>
      <trkpt lat="43.74988" lon="1.15389">
        <ele>195.2</ele>
        <time>2015-11-11T14:34:14Z</time>
      </trkpt>
      <trkpt lat="43.74984" lon="1.15398">
        <ele>194.8</ele>
        <time>2015-11-11T14:34:15Z</time>
      </trkpt>
      <trkpt lat="43.74979" lon="1.15406">
        <ele>194.4</ele>
        <time>2015-11-11T14:34:16Z</time>
      </trkpt>
      <trkpt lat="43.74974" lon="1.15415">
        <ele>194</ele>
        <time>2015-11-11T14:34:17Z</time>
      </trkpt>
      <trkpt lat="43.74968" lon="1.15427">
        <ele>193.4</ele>
        <time>2015-11-11T14:34:18Z</time>
      </trkpt>
      <trkpt lat="43.74963" lon="1.15437">
        <ele>192.8</ele>
        <time>2015-11-11T14:34:19Z</time>
      </trkpt>
      <trkpt lat="43.74958" lon="1.15448">
        <ele>192.3</ele>
        <time>2015-11-11T14:34:20Z</time>
      </trkpt>
      <trkpt lat="43.74953" lon="1.15458">
        <ele>192.2</ele>
        <time>2015-11-11T14:34:21Z</time>
      </trkpt>
      <trkpt lat="43.74949" lon="1.15469">
        <ele>192.4</ele>
        <time>2015-11-11T14:34:22Z</time>
      </trkpt>
      <trkpt lat="43.74945" lon="1.15481">
        <ele>192.6</ele>
        <time>2015-11-11T14:34:23Z</time>
      </trkpt>
      <trkpt lat="43.74939" lon="1.15491">
        <ele>192.8</ele>
        <time>2015-11-11T14:34:24Z</time>
      </trkpt>
      <trkpt lat="43.74934" lon="1.155">
        <ele>192.9</ele>
        <time>2015-11-11T14:34:25Z</time>
      </trkpt>
      <trkpt lat="43.74929" lon="1.15511">
        <ele>193</ele>
        <time>2015-11-11T14:34:26Z</time>
      </trkpt>
      <trkpt lat="43.74924" lon="1.15521">
        <ele>193.1</ele>
        <time>2015-11-11T14:34:27Z</time>
      </trkpt>
      <trkpt lat="43.74917" lon="1.1553">
        <ele>193.1</ele>
        <time>2015-11-11T14:34:28Z</time>
      </trkpt>
      <trkpt lat="43.74912" lon="1.1554">
        <ele>193</ele>
        <time>2015-11-11T14:34:29Z</time>
      </trkpt>
      <trkpt lat="43.74906" lon="1.1555">
        <ele>193.1</ele>
        <time>2015-11-11T14:34:30Z</time>
      </trkpt>
      <trkpt lat="43.749" lon="1.15558">
        <ele>193.2</ele>
        <time>2015-11-11T14:34:31Z</time>
      </trkpt>
      <trkpt lat="43.74892" lon="1.15566">
        <ele>193.4</ele>
        <time>2015-11-11T14:34:32Z</time>
      </trkpt>
      <trkpt lat="43.74885" lon="1.15575">
        <ele>193.7</ele>
        <time>2015-11-11T14:34:33Z</time>
      </trkpt>
      <trkpt lat="43.74877" lon="1.15581">
        <ele>193.9</ele>
        <time>2015-11-11T14:34:34Z</time>
      </trkpt>
      <trkpt lat="43.74872" lon="1.1559">
        <ele>194.4</ele>
        <time>2015-11-11T14:34:35Z</time>
      </trkpt>
      <trkpt lat="43.74869" lon="1.156">
        <ele>194.8</ele>
        <time>2015-11-11T14:34:36Z</time>
      </trkpt>
      <trkpt lat="43.74866" lon="1.15612">
        <ele>195.2</ele>
        <time>2015-11-11T14:34:37Z</time>
      </trkpt>
      <trkpt lat="43.74865" lon="1.15622">
        <ele>195.4</ele>
        <time>2015-11-11T14:34:38Z</time>
      </trkpt>
      <trkpt lat="43.74865" lon="1.15634">
        <ele>195.1</ele>
        <time>2015-11-11T14:34:39Z</time>
      </trkpt>
      <trkpt lat="43.74864" lon="1.15644">
        <ele>194.8</ele>
        <time>2015-11-11T14:34:40Z</time>
      </trkpt>
      <trkpt lat="43.74863" lon="1.15658">
        <ele>194.3</ele>
        <time>2015-11-11T14:34:41Z</time>
      </trkpt>
      <trkpt lat="43.74862" lon="1.1567">
        <ele>193.9</ele>
        <time>2015-11-11T14:34:42Z</time>
      </trkpt>
      <trkpt lat="43.7486" lon="1.15681">
        <ele>193.6</ele>
        <time>2015-11-11T14:34:43Z</time>
      </trkpt>
      <trkpt lat="43.74856" lon="1.15694">
        <ele>193.2</ele>
        <time>2015-11-11T14:34:44Z</time>
      </trkpt>
      <trkpt lat="43.74854" lon="1.15703">
        <ele>193</ele>
        <time>2015-11-11T14:34:45Z</time>
      </trkpt>
      <trkpt lat="43.74851" lon="1.15714">
        <ele>192.8</ele>
        <time>2015-11-11T14:34:46Z</time>
      </trkpt>
      <trkpt lat="43.74848" lon="1.15725">
        <ele>192.7</ele>
        <time>2015-11-11T14:34:47Z</time>
      </trkpt>
      <trkpt lat="43.74844" lon="1.15737">
        <ele>192.5</ele>
        <time>2015-11-11T14:34:48Z</time>
      </trkpt>
      <trkpt lat="43.74841" lon="1.15749">
        <ele>192.3</ele>
        <time>2015-11-11T14:34:49Z</time>
      </trkpt>
      <trkpt lat="43.74838" lon="1.1576">
        <ele>192.2</ele>
        <time>2015-11-11T14:34:50Z</time>
      </trkpt>
      <trkpt lat="43.74835" lon="1.15771">
        <ele>192</ele>
        <time>2015-11-11T14:34:51Z</time>
      </trkpt>
      <trkpt lat="43.74832" lon="1.15781">
        <ele>191.8</ele>
        <time>2015-11-11T14:34:52Z</time>
      </trkpt>
      <trkpt lat="43.74829" lon="1.15792">
        <ele>191.5</ele>
        <time>2015-11-11T14:34:53Z</time>
      </trkpt>
      <trkpt lat="43.74828" lon="1.15802">
        <ele>191.4</ele>
        <time>2015-11-11T14:34:54Z</time>
      </trkpt>
      <trkpt lat="43.74825" lon="1.15813">
        <ele>191.2</ele>
        <time>2015-11-11T14:34:55Z</time>
      </trkpt>
      <trkpt lat="43.74822" lon="1.15826">
        <ele>191.1</ele>
        <time>2015-11-11T14:34:56Z</time>
      </trkpt>
      <trkpt lat="43.74819" lon="1.15838">
        <ele>190.9</ele>
        <time>2015-11-11T14:34:57Z</time>
      </trkpt>
      <trkpt lat="43.74815" lon="1.15849">
        <ele>190.8</ele>
        <time>2015-11-11T14:34:58Z</time>
      </trkpt>
      <trkpt lat="43.74812" lon="1.1586">
        <ele>190.7</ele>
        <time>2015-11-11T14:34:59Z</time>
      </trkpt>
      <trkpt lat="43.74809" lon="1.15871">
        <ele>190.6</ele>
        <time>2015-11-11T14:35:00Z</time>
      </trkpt>
      <trkpt lat="43.74805" lon="1.15885">
        <ele>190.2</ele>
        <time>2015-11-11T14:35:01Z</time>
      </trkpt>
      <trkpt lat="43.74802" lon="1.15897">
        <ele>189.7</ele>
        <time>2015-11-11T14:35:02Z</time>
      </trkpt>
      <trkpt lat="43.74799" lon="1.15906">
        <ele>189.3</ele>
        <time>2015-11-11T14:35:03Z</time>
      </trkpt>
      <trkpt lat="43.74796" lon="1.15917">
        <ele>188.9</ele>
        <time>2015-11-11T14:35:04Z</time>
      </trkpt>
      <trkpt lat="43.74793" lon="1.15926">
        <ele>188.5</ele>
        <time>2015-11-11T14:35:05Z</time>
      </trkpt>
      <trkpt lat="43.7479" lon="1.15937">
        <ele>188.1</ele>
        <time>2015-11-11T14:35:06Z</time>
      </trkpt>
      <trkpt lat="43.74786" lon="1.15948">
        <ele>187.6</ele>
        <time>2015-11-11T14:35:07Z</time>
      </trkpt>
      <trkpt lat="43.74783" lon="1.15959">
        <ele>187.2</ele>
        <time>2015-11-11T14:35:08Z</time>
      </trkpt>
      <trkpt lat="43.74778" lon="1.15973">
        <ele>187</ele>
        <time>2015-11-11T14:35:09Z</time>
      </trkpt>
      <trkpt lat="43.74775" lon="1.15983">
        <ele>186.7</ele>
        <time>2015-11-11T14:35:10Z</time>
      </trkpt>
      <trkpt lat="43.74772" lon="1.15993">
        <ele>186.5</ele>
        <time>2015-11-11T14:35:11Z</time>
      </trkpt>
      <trkpt lat="43.7477" lon="1.16002">
        <ele>186.3</ele>
        <time>2015-11-11T14:35:12Z</time>
      </trkpt>
      <trkpt lat="43.74766" lon="1.16014">
        <ele>186.1</ele>
        <time>2015-11-11T14:35:13Z</time>
      </trkpt>
      <trkpt lat="43.74765" lon="1.16025">
        <ele>185.8</ele>
        <time>2015-11-11T14:35:14Z</time>
      </trkpt>
      <trkpt lat="43.7476" lon="1.16037">
        <ele>185.5</ele>
        <time>2015-11-11T14:35:15Z</time>
      </trkpt>
      <trkpt lat="43.74755" lon="1.16048">
        <ele>185.2</ele>
        <time>2015-11-11T14:35:16Z</time>
      </trkpt>
      <trkpt lat="43.74751" lon="1.16059">
        <ele>185</ele>
        <time>2015-11-11T14:35:17Z</time>
      </trkpt>
      <trkpt lat="43.74747" lon="1.16068">
        <ele>184.7</ele>
        <time>2015-11-11T14:35:18Z</time>
      </trkpt>
      <trkpt lat="43.74742" lon="1.16079">
        <ele>184.4</ele>
        <time>2015-11-11T14:35:19Z</time>
      </trkpt>
      <trkpt lat="43.74737" lon="1.16089">
        <ele>184.1</ele>
        <time>2015-11-11T14:35:20Z</time>
      </trkpt>
      <trkpt lat="43.74732" lon="1.16097">
        <ele>183.9</ele>
        <time>2015-11-11T14:35:21Z</time>
      </trkpt>
      <trkpt lat="43.74727" lon="1.16106">
        <ele>183.6</ele>
        <time>2015-11-11T14:35:22Z</time>
      </trkpt>
      <trkpt lat="43.74721" lon="1.16114">
        <ele>183.4</ele>
        <time>2015-11-11T14:35:23Z</time>
      </trkpt>
      <trkpt lat="43.74718" lon="1.16118">
        <ele>183.2</ele>
        <time>2015-11-11T14:35:24Z</time>
      </trkpt>
      <trkpt lat="43.74713" lon="1.16125">
        <ele>183</ele>
        <time>2015-11-11T14:35:25Z</time>
      </trkpt>
      <trkpt lat="43.74707" lon="1.16131">
        <ele>183.1</ele>
        <time>2015-11-11T14:35:26Z</time>
      </trkpt>
      <trkpt lat="43.747" lon="1.16139">
        <ele>183.3</ele>
        <time>2015-11-11T14:35:27Z</time>
      </trkpt>
      <trkpt lat="43.74693" lon="1.16146">
        <ele>183.5</ele>
        <time>2015-11-11T14:35:28Z</time>
      </trkpt>
      <trkpt lat="43.74686" lon="1.16154">
        <ele>183.7</ele>
        <time>2015-11-11T14:35:29Z</time>
      </trkpt>
      <trkpt lat="43.7468" lon="1.16161">
        <ele>183.8</ele>
        <time>2015-11-11T14:35:30Z</time>
      </trkpt>
      <trkpt lat="43.74673" lon="1.16169">
        <ele>183.9</ele>
        <time>2015-11-11T14:35:31Z</time>
      </trkpt>
      <trkpt lat="43.74667" lon="1.16175">
        <ele>184</ele>
        <time>2015-11-11T14:35:32Z</time>
      </trkpt>
      <trkpt lat="43.7466" lon="1.16182">
        <ele>184.1</ele>
        <time>2015-11-11T14:35:33Z</time>
      </trkpt>
      <trkpt lat="43.74653" lon="1.16189">
        <ele>184.1</ele>
        <time>2015-11-11T14:35:34Z</time>
      </trkpt>
      <trkpt lat="43.74646" lon="1.16195">
        <ele>184.1</ele>
        <time>2015-11-11T14:35:35Z</time>
      </trkpt>
      <trkpt lat="43.7464" lon="1.16203">
        <ele>184</ele>
        <time>2015-11-11T14:35:36Z</time>
      </trkpt>
      <trkpt lat="43.74634" lon="1.1621">
        <ele>184</ele>
        <time>2015-11-11T14:35:37Z</time>
      </trkpt>
      <trkpt lat="43.74628" lon="1.16212">
        <ele>184</ele>
        <time>2015-11-11T14:35:38Z</time>
      </trkpt>
      <trkpt lat="43.7462" lon="1.16219">
        <ele>183.9</ele>
        <time>2015-11-11T14:35:39Z</time>
      </trkpt>
      <trkpt lat="43.74614" lon="1.16225">
        <ele>183.8</ele>
        <time>2015-11-11T14:35:40Z</time>
      </trkpt>
      <trkpt lat="43.74607" lon="1.16234">
        <ele>183.6</ele>
        <time>2015-11-11T14:35:41Z</time>
      </trkpt>
      <trkpt lat="43.74601" lon="1.1624">
        <ele>183.5</ele>
        <time>2015-11-11T14:35:42Z</time>
      </trkpt>
      <trkpt lat="43.74595" lon="1.16247">
        <ele>183.4</ele>
        <time>2015-11-11T14:35:43Z</time>
      </trkpt>
      <trkpt lat="43.74591" lon="1.16255">
        <ele>183.2</ele>
        <time>2015-11-11T14:35:44Z</time>
      </trkpt>
      <trkpt lat="43.74586" lon="1.1626">
        <ele>183.1</ele>
        <time>2015-11-11T14:35:45Z</time>
      </trkpt>
      <trkpt lat="43.74581" lon="1.16266">
        <ele>182.9</ele>
        <time>2015-11-11T14:35:46Z</time>
      </trkpt>
      <trkpt lat="43.74575" lon="1.16272">
        <ele>182.8</ele>
        <time>2015-11-11T14:35:47Z</time>
      </trkpt>
      <trkpt lat="43.7457" lon="1.16276">
        <ele>182.7</ele>
        <time>2015-11-11T14:35:48Z</time>
      </trkpt>
      <trkpt lat="43.74566" lon="1.16282">
        <ele>182.5</ele>
        <time>2015-11-11T14:35:49Z</time>
      </trkpt>
      <trkpt lat="43.74562" lon="1.16288">
        <ele>182.3</ele>
        <time>2015-11-11T14:35:50Z</time>
      </trkpt>
      <trkpt lat="43.74557" lon="1.16295">
        <ele>182.1</ele>
        <time>2015-11-11T14:35:51Z</time>
      </trkpt>
      <trkpt lat="43.74554" lon="1.16301">
        <ele>181.9</ele>
        <time>2015-11-11T14:35:52Z</time>
      </trkpt>
      <trkpt lat="43.74552" lon="1.16307">
        <ele>181.7</ele>
        <time>2015-11-11T14:35:53Z</time>
      </trkpt>
      <trkpt lat="43.74547" lon="1.16316">
        <ele>181.5</ele>
        <time>2015-11-11T14:35:54Z</time>
      </trkpt>
      <trkpt lat="43.74543" lon="1.16323">
        <ele>181.3</ele>
        <time>2015-11-11T14:35:55Z</time>
      </trkpt>
      <trkpt lat="43.74538" lon="1.16329">
        <ele>181.2</ele>
        <time>2015-11-11T14:35:56Z</time>
      </trkpt>
      <trkpt lat="43.74535" lon="1.16338">
        <ele>181</ele>
        <time>2015-11-11T14:35:57Z</time>
      </trkpt>
      <trkpt lat="43.7453" lon="1.16345">
        <ele>180.9</ele>
        <time>2015-11-11T14:35:58Z</time>
      </trkpt>
      <trkpt lat="43.74526" lon="1.16353">
        <ele>180.9</ele>
        <time>2015-11-11T14:35:59Z</time>
      </trkpt>
      <trkpt lat="43.74521" lon="1.1636">
        <ele>180.8</ele>
        <time>2015-11-11T14:36:00Z</time>
      </trkpt>
      <trkpt lat="43.74516" lon="1.16369">
        <ele>180.7</ele>
        <time>2015-11-11T14:36:01Z</time>
      </trkpt>
      <trkpt lat="43.74512" lon="1.16376">
        <ele>180.7</ele>
        <time>2015-11-11T14:36:02Z</time>
      </trkpt>
      <trkpt lat="43.74507" lon="1.16384">
        <ele>180.7</ele>
        <time>2015-11-11T14:36:03Z</time>
      </trkpt>
      <trkpt lat="43.74503" lon="1.16391">
        <ele>180.7</ele>
        <time>2015-11-11T14:36:04Z</time>
      </trkpt>
      <trkpt lat="43.74499" lon="1.16398">
        <ele>180.8</ele>
        <time>2015-11-11T14:36:05Z</time>
      </trkpt>
      <trkpt lat="43.74494" lon="1.16405">
        <ele>180.8</ele>
        <time>2015-11-11T14:36:06Z</time>
      </trkpt>
      <trkpt lat="43.7449" lon="1.16413">
        <ele>180.9</ele>
        <time>2015-11-11T14:36:07Z</time>
      </trkpt>
      <trkpt lat="43.74486" lon="1.16423">
        <ele>181</ele>
        <time>2015-11-11T14:36:08Z</time>
      </trkpt>
      <trkpt lat="43.74481" lon="1.1643">
        <ele>181.1</ele>
        <time>2015-11-11T14:36:09Z</time>
      </trkpt>
      <trkpt lat="43.74477" lon="1.16437">
        <ele>181.2</ele>
        <time>2015-11-11T14:36:10Z</time>
      </trkpt>
      <trkpt lat="43.74472" lon="1.16446">
        <ele>181.4</ele>
        <time>2015-11-11T14:36:11Z</time>
      </trkpt>
      <trkpt lat="43.74467" lon="1.16454">
        <ele>181.6</ele>
        <time>2015-11-11T14:36:12Z</time>
      </trkpt>
      <trkpt lat="43.74463" lon="1.16462">
        <ele>181.7</ele>
        <time>2015-11-11T14:36:13Z</time>
      </trkpt>
      <trkpt lat="43.74459" lon="1.1647">
        <ele>181.8</ele>
        <time>2015-11-11T14:36:14Z</time>
      </trkpt>
      <trkpt lat="43.74455" lon="1.16476">
        <ele>181.8</ele>
        <time>2015-11-11T14:36:15Z</time>
      </trkpt>
      <trkpt lat="43.74451" lon="1.16483">
        <ele>181.7</ele>
        <time>2015-11-11T14:36:16Z</time>
      </trkpt>
      <trkpt lat="43.74446" lon="1.16491">
        <ele>181.7</ele>
        <time>2015-11-11T14:36:17Z</time>
      </trkpt>
      <trkpt lat="43.74441" lon="1.165">
        <ele>181.6</ele>
        <time>2015-11-11T14:36:18Z</time>
      </trkpt>
      <trkpt lat="43.74437" lon="1.16508">
        <ele>181.6</ele>
        <time>2015-11-11T14:36:19Z</time>
      </trkpt>
      <trkpt lat="43.74433" lon="1.16517">
        <ele>181.5</ele>
        <time>2015-11-11T14:36:20Z</time>
      </trkpt>
      <trkpt lat="43.74429" lon="1.16523">
        <ele>181.5</ele>
        <time>2015-11-11T14:36:21Z</time>
      </trkpt>
      <trkpt lat="43.74424" lon="1.16532">
        <ele>181.5</ele>
        <time>2015-11-11T14:36:22Z</time>
      </trkpt>
      <trkpt lat="43.7442" lon="1.1654">
        <ele>181.5</ele>
        <time>2015-11-11T14:36:23Z</time>
      </trkpt>
      <trkpt lat="43.74417" lon="1.1655">
        <ele>181.4</ele>
        <time>2015-11-11T14:36:24Z</time>
      </trkpt>
      <trkpt lat="43.74415" lon="1.16561">
        <ele>181.3</ele>
        <time>2015-11-11T14:36:25Z</time>
      </trkpt>
      <trkpt lat="43.74411" lon="1.16569">
        <ele>181.2</ele>
        <time>2015-11-11T14:36:26Z</time>
      </trkpt>
      <trkpt lat="43.74407" lon="1.1658">
        <ele>181.2</ele>
        <time>2015-11-11T14:36:27Z</time>
      </trkpt>
      <trkpt lat="43.74402" lon="1.1659">
        <ele>181.1</ele>
        <time>2015-11-11T14:36:28Z</time>
      </trkpt>
      <trkpt lat="43.74398" lon="1.16598">
        <ele>181.1</ele>
        <time>2015-11-11T14:36:29Z</time>
      </trkpt>
      <trkpt lat="43.74394" lon="1.16606">
        <ele>181</ele>
        <time>2015-11-11T14:36:30Z</time>
      </trkpt>
      <trkpt lat="43.7439" lon="1.16619">
        <ele>180.9</ele>
        <time>2015-11-11T14:36:31Z</time>
      </trkpt>
      <trkpt lat="43.74388" lon="1.16627">
        <ele>180.8</ele>
        <time>2015-11-11T14:36:32Z</time>
      </trkpt>
      <trkpt lat="43.74384" lon="1.16637">
        <ele>180.8</ele>
        <time>2015-11-11T14:36:33Z</time>
      </trkpt>
      <trkpt lat="43.7438" lon="1.16645">
        <ele>180.7</ele>
        <time>2015-11-11T14:36:34Z</time>
      </trkpt>
      <trkpt lat="43.74376" lon="1.16655">
        <ele>180.6</ele>
        <time>2015-11-11T14:36:35Z</time>
      </trkpt>
      <trkpt lat="43.74373" lon="1.16663">
        <ele>180.6</ele>
        <time>2015-11-11T14:36:36Z</time>
      </trkpt>
      <trkpt lat="43.7437" lon="1.16666">
        <ele>180.5</ele>
        <time>2015-11-11T14:36:37Z</time>
      </trkpt>
      <trkpt lat="43.74367" lon="1.16675">
        <ele>180.5</ele>
        <time>2015-11-11T14:36:38Z</time>
      </trkpt>
      <trkpt lat="43.74363" lon="1.16683">
        <ele>180.4</ele>
        <time>2015-11-11T14:36:39Z</time>
      </trkpt>
      <trkpt lat="43.74359" lon="1.16692">
        <ele>180.4</ele>
        <time>2015-11-11T14:36:40Z</time>
      </trkpt>
      <trkpt lat="43.74357" lon="1.16698">
        <ele>180.3</ele>
        <time>2015-11-11T14:36:41Z</time>
      </trkpt>
      <trkpt lat="43.74353" lon="1.16707">
        <ele>180.3</ele>
        <time>2015-11-11T14:36:42Z</time>
      </trkpt>
      <trkpt lat="43.74349" lon="1.16713">
        <ele>180.3</ele>
        <time>2015-11-11T14:36:43Z</time>
      </trkpt>
      <trkpt lat="43.74345" lon="1.16721">
        <ele>180.2</ele>
        <time>2015-11-11T14:36:44Z</time>
      </trkpt>
      <trkpt lat="43.74342" lon="1.16732">
        <ele>180.1</ele>
        <time>2015-11-11T14:36:45Z</time>
      </trkpt>
      <trkpt lat="43.74338" lon="1.1674">
        <ele>180.1</ele>
        <time>2015-11-11T14:36:46Z</time>
      </trkpt>
      <trkpt lat="43.74335" lon="1.16749">
        <ele>180</ele>
        <time>2015-11-11T14:36:47Z</time>
      </trkpt>
      <trkpt lat="43.74331" lon="1.16758">
        <ele>179.9</ele>
        <time>2015-11-11T14:36:48Z</time>
      </trkpt>
      <trkpt lat="43.74328" lon="1.16766">
        <ele>179.9</ele>
        <time>2015-11-11T14:36:49Z</time>
      </trkpt>
      <trkpt lat="43.74324" lon="1.16776">
        <ele>179.8</ele>
        <time>2015-11-11T14:36:50Z</time>
      </trkpt>
      <trkpt lat="43.74321" lon="1.16785">
        <ele>179.7</ele>
        <time>2015-11-11T14:36:51Z</time>
      </trkpt>
      <trkpt lat="43.74317" lon="1.16793">
        <ele>179.7</ele>
        <time>2015-11-11T14:36:52Z</time>
      </trkpt>
      <trkpt lat="43.74314" lon="1.16803">
        <ele>179.8</ele>
        <time>2015-11-11T14:36:53Z</time>
      </trkpt>
      <trkpt lat="43.74311" lon="1.16812">
        <ele>179.8</ele>
        <time>2015-11-11T14:36:54Z</time>
      </trkpt>
      <trkpt lat="43.74308" lon="1.16822">
        <ele>179.9</ele>
        <time>2015-11-11T14:36:55Z</time>
      </trkpt>
      <trkpt lat="43.74305" lon="1.1683">
        <ele>179.9</ele>
        <time>2015-11-11T14:36:56Z</time>
      </trkpt>
      <trkpt lat="43.74302" lon="1.1684">
        <ele>179.9</ele>
        <time>2015-11-11T14:36:57Z</time>
      </trkpt>
      <trkpt lat="43.743" lon="1.16847">
        <ele>180</ele>
        <time>2015-11-11T14:36:58Z</time>
      </trkpt>
      <trkpt lat="43.74297" lon="1.16856">
        <ele>180</ele>
        <time>2015-11-11T14:36:59Z</time>
      </trkpt>
      <trkpt lat="43.74295" lon="1.16866">
        <ele>180</ele>
        <time>2015-11-11T14:37:00Z</time>
      </trkpt>
      <trkpt lat="43.74293" lon="1.16876">
        <ele>180</ele>
        <time>2015-11-11T14:37:01Z</time>
      </trkpt>
      <trkpt lat="43.74292" lon="1.16886">
        <ele>180.1</ele>
        <time>2015-11-11T14:37:02Z</time>
      </trkpt>
      <trkpt lat="43.74289" lon="1.16896">
        <ele>180.3</ele>
        <time>2015-11-11T14:37:03Z</time>
      </trkpt>
      <trkpt lat="43.74287" lon="1.16904">
        <ele>180.4</ele>
        <time>2015-11-11T14:37:04Z</time>
      </trkpt>
      <trkpt lat="43.74285" lon="1.16912">
        <ele>180.5</ele>
        <time>2015-11-11T14:37:05Z</time>
      </trkpt>
      <trkpt lat="43.74285" lon="1.16919">
        <ele>180.6</ele>
        <time>2015-11-11T14:37:06Z</time>
      </trkpt>
      <trkpt lat="43.74283" lon="1.16929">
        <ele>180.7</ele>
        <time>2015-11-11T14:37:07Z</time>
      </trkpt>
      <trkpt lat="43.7428" lon="1.16939">
        <ele>180.8</ele>
        <time>2015-11-11T14:37:08Z</time>
      </trkpt>
      <trkpt lat="43.74277" lon="1.16951">
        <ele>180.9</ele>
        <time>2015-11-11T14:37:09Z</time>
      </trkpt>
      <trkpt lat="43.74274" lon="1.1696">
        <ele>181</ele>
        <time>2015-11-11T14:37:10Z</time>
      </trkpt>
      <trkpt lat="43.74271" lon="1.16971">
        <ele>180.7</ele>
        <time>2015-11-11T14:37:11Z</time>
      </trkpt>
      <trkpt lat="43.74268" lon="1.16981">
        <ele>180.4</ele>
        <time>2015-11-11T14:37:12Z</time>
      </trkpt>
      <trkpt lat="43.74265" lon="1.16992">
        <ele>180.1</ele>
        <time>2015-11-11T14:37:13Z</time>
      </trkpt>
      <trkpt lat="43.74262" lon="1.17002">
        <ele>179.8</ele>
        <time>2015-11-11T14:37:14Z</time>
      </trkpt>
      <trkpt lat="43.74259" lon="1.17013">
        <ele>179.4</ele>
        <time>2015-11-11T14:37:15Z</time>
      </trkpt>
      <trkpt lat="43.74258" lon="1.17025">
        <ele>179.1</ele>
        <time>2015-11-11T14:37:16Z</time>
      </trkpt>
      <trkpt lat="43.7426" lon="1.17034">
        <ele>178.8</ele>
        <time>2015-11-11T14:37:17Z</time>
      </trkpt>
      <trkpt lat="43.74259" lon="1.17044">
        <ele>178.6</ele>
        <time>2015-11-11T14:37:18Z</time>
      </trkpt>
      <trkpt lat="43.74258" lon="1.17054">
        <ele>178.4</ele>
        <time>2015-11-11T14:37:19Z</time>
      </trkpt>
      <trkpt lat="43.74258" lon="1.17065">
        <ele>178.2</ele>
        <time>2015-11-11T14:37:20Z</time>
      </trkpt>
      <trkpt lat="43.74257" lon="1.17075">
        <ele>177.9</ele>
        <time>2015-11-11T14:37:21Z</time>
      </trkpt>
      <trkpt lat="43.74258" lon="1.17088">
        <ele>177.7</ele>
        <time>2015-11-11T14:37:22Z</time>
      </trkpt>
      <trkpt lat="43.74258" lon="1.17098">
        <ele>177.5</ele>
        <time>2015-11-11T14:37:23Z</time>
      </trkpt>
      <trkpt lat="43.74259" lon="1.1711">
        <ele>177.3</ele>
        <time>2015-11-11T14:37:24Z</time>
      </trkpt>
      <trkpt lat="43.7426" lon="1.1712">
        <ele>177.1</ele>
        <time>2015-11-11T14:37:25Z</time>
      </trkpt>
      <trkpt lat="43.74261" lon="1.1713">
        <ele>177</ele>
        <time>2015-11-11T14:37:26Z</time>
      </trkpt>
      <trkpt lat="43.74263" lon="1.1714">
        <ele>176.9</ele>
        <time>2015-11-11T14:37:27Z</time>
      </trkpt>
      <trkpt lat="43.74263" lon="1.17151">
        <ele>176.9</ele>
        <time>2015-11-11T14:37:28Z</time>
      </trkpt>
      <trkpt lat="43.74265" lon="1.17162">
        <ele>176.9</ele>
        <time>2015-11-11T14:37:29Z</time>
      </trkpt>
      <trkpt lat="43.74268" lon="1.17172">
        <ele>176.8</ele>
        <time>2015-11-11T14:37:30Z</time>
      </trkpt>
      <trkpt lat="43.74268" lon="1.17181">
        <ele>176.8</ele>
        <time>2015-11-11T14:37:31Z</time>
      </trkpt>
      <trkpt lat="43.7427" lon="1.1719">
        <ele>176.8</ele>
        <time>2015-11-11T14:37:32Z</time>
      </trkpt>
      <trkpt lat="43.74272" lon="1.172">
        <ele>176.8</ele>
        <time>2015-11-11T14:37:33Z</time>
      </trkpt>
      <trkpt lat="43.74274" lon="1.17209">
        <ele>176.8</ele>
        <time>2015-11-11T14:37:34Z</time>
      </trkpt>
      <trkpt lat="43.74277" lon="1.17219">
        <ele>176.8</ele>
        <time>2015-11-11T14:37:35Z</time>
      </trkpt>
      <trkpt lat="43.74279" lon="1.17228">
        <ele>176.8</ele>
        <time>2015-11-11T14:37:36Z</time>
      </trkpt>
      <trkpt lat="43.74279" lon="1.17239">
        <ele>176.9</ele>
        <time>2015-11-11T14:37:37Z</time>
      </trkpt>
      <trkpt lat="43.74281" lon="1.17247">
        <ele>176.9</ele>
        <time>2015-11-11T14:37:38Z</time>
      </trkpt>
      <trkpt lat="43.74283" lon="1.17257">
        <ele>176.9</ele>
        <time>2015-11-11T14:37:39Z</time>
      </trkpt>
      <trkpt lat="43.74285" lon="1.17267">
        <ele>176.9</ele>
        <time>2015-11-11T14:37:40Z</time>
      </trkpt>
      <trkpt lat="43.74289" lon="1.17276">
        <ele>177</ele>
        <time>2015-11-11T14:37:41Z</time>
      </trkpt>
      <trkpt lat="43.74289" lon="1.17284">
        <ele>177</ele>
        <time>2015-11-11T14:37:42Z</time>
      </trkpt>
      <trkpt lat="43.74292" lon="1.17295">
        <ele>177</ele>
        <time>2015-11-11T14:37:43Z</time>
      </trkpt>
      <trkpt lat="43.74294" lon="1.17307">
        <ele>176.9</ele>
        <time>2015-11-11T14:37:44Z</time>
      </trkpt>
      <trkpt lat="43.74295" lon="1.17317">
        <ele>176.9</ele>
        <time>2015-11-11T14:37:45Z</time>
      </trkpt>
      <trkpt lat="43.74297" lon="1.17327">
        <ele>176.9</ele>
        <time>2015-11-11T14:37:46Z</time>
      </trkpt>
      <trkpt lat="43.74299" lon="1.17336">
        <ele>176.8</ele>
        <time>2015-11-11T14:37:47Z</time>
      </trkpt>
      <trkpt lat="43.74302" lon="1.17333">
        <ele>176.7</ele>
        <time>2015-11-11T14:37:48Z</time>
      </trkpt>
      <trkpt lat="43.74304" lon="1.17342">
        <ele>176.7</ele>
        <time>2015-11-11T14:37:49Z</time>
      </trkpt>
      <trkpt lat="43.74307" lon="1.1735">
        <ele>176.6</ele>
        <time>2015-11-11T14:37:50Z</time>
      </trkpt>
      <trkpt lat="43.74308" lon="1.17362">
        <ele>176.6</ele>
        <time>2015-11-11T14:37:51Z</time>
      </trkpt>
      <trkpt lat="43.7431" lon="1.17373">
        <ele>176.6</ele>
        <time>2015-11-11T14:37:52Z</time>
      </trkpt>
      <trkpt lat="43.74311" lon="1.17379">
        <ele>176.4</ele>
        <time>2015-11-11T14:37:53Z</time>
      </trkpt>
      <trkpt lat="43.74313" lon="1.17389">
        <ele>176.1</ele>
        <time>2015-11-11T14:37:54Z</time>
      </trkpt>
      <trkpt lat="43.74315" lon="1.17398">
        <ele>175.8</ele>
        <time>2015-11-11T14:37:55Z</time>
      </trkpt>
      <trkpt lat="43.74316" lon="1.17408">
        <ele>175.5</ele>
        <time>2015-11-11T14:37:56Z</time>
      </trkpt>
      <trkpt lat="43.74318" lon="1.17417">
        <ele>175.2</ele>
        <time>2015-11-11T14:37:57Z</time>
      </trkpt>
      <trkpt lat="43.74318" lon="1.17428">
        <ele>174.9</ele>
        <time>2015-11-11T14:37:58Z</time>
      </trkpt>
      <trkpt lat="43.74319" lon="1.17438">
        <ele>174.6</ele>
        <time>2015-11-11T14:37:59Z</time>
      </trkpt>
      <trkpt lat="43.74321" lon="1.17446">
        <ele>174.3</ele>
        <time>2015-11-11T14:38:00Z</time>
      </trkpt>
      <trkpt lat="43.74322" lon="1.17456">
        <ele>174.1</ele>
        <time>2015-11-11T14:38:01Z</time>
      </trkpt>
      <trkpt lat="43.74322" lon="1.17466">
        <ele>174</ele>
        <time>2015-11-11T14:38:02Z</time>
      </trkpt>
      <trkpt lat="43.74322" lon="1.17479">
        <ele>174.1</ele>
        <time>2015-11-11T14:38:03Z</time>
      </trkpt>
      <trkpt lat="43.74322" lon="1.1749">
        <ele>174.1</ele>
        <time>2015-11-11T14:38:04Z</time>
      </trkpt>
      <trkpt lat="43.74322" lon="1.17499">
        <ele>174.1</ele>
        <time>2015-11-11T14:38:05Z</time>
      </trkpt>
      <trkpt lat="43.74324" lon="1.1751">
        <ele>174.1</ele>
        <time>2015-11-11T14:38:06Z</time>
      </trkpt>
      <trkpt lat="43.74324" lon="1.1752">
        <ele>174.2</ele>
        <time>2015-11-11T14:38:07Z</time>
      </trkpt>
      <trkpt lat="43.74322" lon="1.17532">
        <ele>174.2</ele>
        <time>2015-11-11T14:38:08Z</time>
      </trkpt>
      <trkpt lat="43.74323" lon="1.17543">
        <ele>174.3</ele>
        <time>2015-11-11T14:38:09Z</time>
      </trkpt>
      <trkpt lat="43.74325" lon="1.17551">
        <ele>174.5</ele>
        <time>2015-11-11T14:38:10Z</time>
      </trkpt>
      <trkpt lat="43.74325" lon="1.1756">
        <ele>174.7</ele>
        <time>2015-11-11T14:38:11Z</time>
      </trkpt>
      <trkpt lat="43.74326" lon="1.1757">
        <ele>175</ele>
        <time>2015-11-11T14:38:12Z</time>
      </trkpt>
      <trkpt lat="43.74326" lon="1.1758">
        <ele>175.3</ele>
        <time>2015-11-11T14:38:13Z</time>
      </trkpt>
      <trkpt lat="43.74326" lon="1.17589">
        <ele>175.5</ele>
        <time>2015-11-11T14:38:14Z</time>
      </trkpt>
      <trkpt lat="43.74327" lon="1.17599">
        <ele>175.8</ele>
        <time>2015-11-11T14:38:15Z</time>
      </trkpt>
      <trkpt lat="43.74328" lon="1.17608">
        <ele>176.1</ele>
        <time>2015-11-11T14:38:16Z</time>
      </trkpt>
      <trkpt lat="43.74328" lon="1.17618">
        <ele>176.4</ele>
        <time>2015-11-11T14:38:17Z</time>
      </trkpt>
      <trkpt lat="43.74329" lon="1.17628">
        <ele>176.6</ele>
        <time>2015-11-11T14:38:18Z</time>
      </trkpt>
      <trkpt lat="43.7433" lon="1.1764">
        <ele>176.8</ele>
        <time>2015-11-11T14:38:19Z</time>
      </trkpt>
      <trkpt lat="43.74331" lon="1.17649">
        <ele>177</ele>
        <time>2015-11-11T14:38:20Z</time>
      </trkpt>
      <trkpt lat="43.74333" lon="1.17656">
        <ele>177.1</ele>
        <time>2015-11-11T14:38:21Z</time>
      </trkpt>
      <trkpt lat="43.74335" lon="1.17664">
        <ele>177.2</ele>
        <time>2015-11-11T14:38:22Z</time>
      </trkpt>
      <trkpt lat="43.74335" lon="1.17673">
        <ele>177.3</ele>
        <time>2015-11-11T14:38:23Z</time>
      </trkpt>
      <trkpt lat="43.74335" lon="1.17683">
        <ele>177.5</ele>
        <time>2015-11-11T14:38:24Z</time>
      </trkpt>
      <trkpt lat="43.74337" lon="1.17688">
        <ele>177.6</ele>
        <time>2015-11-11T14:38:25Z</time>
      </trkpt>
      <trkpt lat="43.74339" lon="1.17697">
        <ele>177.7</ele>
        <time>2015-11-11T14:38:26Z</time>
      </trkpt>
      <trkpt lat="43.7434" lon="1.17706">
        <ele>177.8</ele>
        <time>2015-11-11T14:38:27Z</time>
      </trkpt>
      <trkpt lat="43.7434" lon="1.17715">
        <ele>178</ele>
        <time>2015-11-11T14:38:28Z</time>
      </trkpt>
      <trkpt lat="43.74339" lon="1.17724">
        <ele>178.3</ele>
        <time>2015-11-11T14:38:29Z</time>
      </trkpt>
      <trkpt lat="43.7434" lon="1.17735">
        <ele>178.6</ele>
        <time>2015-11-11T14:38:30Z</time>
      </trkpt>
      <trkpt lat="43.7434" lon="1.17743">
        <ele>178.8</ele>
        <time>2015-11-11T14:38:31Z</time>
      </trkpt>
      <trkpt lat="43.74341" lon="1.17753">
        <ele>179.1</ele>
        <time>2015-11-11T14:38:32Z</time>
      </trkpt>
      <trkpt lat="43.74342" lon="1.17759">
        <ele>179.3</ele>
        <time>2015-11-11T14:38:33Z</time>
      </trkpt>
      <trkpt lat="43.74342" lon="1.17769">
        <ele>179.5</ele>
        <time>2015-11-11T14:38:34Z</time>
      </trkpt>
      <trkpt lat="43.74343" lon="1.17779">
        <ele>179.8</ele>
        <time>2015-11-11T14:38:35Z</time>
      </trkpt>
      <trkpt lat="43.74343" lon="1.17787">
        <ele>180</ele>
        <time>2015-11-11T14:38:36Z</time>
      </trkpt>
      <trkpt lat="43.74342" lon="1.17798">
        <ele>180.2</ele>
        <time>2015-11-11T14:38:37Z</time>
      </trkpt>
      <trkpt lat="43.74342" lon="1.17807">
        <ele>180.3</ele>
        <time>2015-11-11T14:38:38Z</time>
      </trkpt>
      <trkpt lat="43.74343" lon="1.17817">
        <ele>180.4</ele>
        <time>2015-11-11T14:38:39Z</time>
      </trkpt>
      <trkpt lat="43.74343" lon="1.17828">
        <ele>180.5</ele>
        <time>2015-11-11T14:38:40Z</time>
      </trkpt>
      <trkpt lat="43.74344" lon="1.17839">
        <ele>180.6</ele>
        <time>2015-11-11T14:38:41Z</time>
      </trkpt>
      <trkpt lat="43.74346" lon="1.17845">
        <ele>180.7</ele>
        <time>2015-11-11T14:38:42Z</time>
      </trkpt>
      <trkpt lat="43.74347" lon="1.17856">
        <ele>180.8</ele>
        <time>2015-11-11T14:38:43Z</time>
      </trkpt>
      <trkpt lat="43.74348" lon="1.17867">
        <ele>180.9</ele>
        <time>2015-11-11T14:38:44Z</time>
      </trkpt>
      <trkpt lat="43.74348" lon="1.17877">
        <ele>181</ele>
        <time>2015-11-11T14:38:45Z</time>
      </trkpt>
      <trkpt lat="43.74348" lon="1.17886">
        <ele>181</ele>
        <time>2015-11-11T14:38:46Z</time>
      </trkpt>
      <trkpt lat="43.74349" lon="1.17897">
        <ele>180.9</ele>
        <time>2015-11-11T14:38:47Z</time>
      </trkpt>
      <trkpt lat="43.7435" lon="1.17907">
        <ele>180.8</ele>
        <time>2015-11-11T14:38:48Z</time>
      </trkpt>
      <trkpt lat="43.74349" lon="1.17918">
        <ele>180.8</ele>
        <time>2015-11-11T14:38:49Z</time>
      </trkpt>
      <trkpt lat="43.74349" lon="1.17927">
        <ele>180.8</ele>
        <time>2015-11-11T14:38:50Z</time>
      </trkpt>
      <trkpt lat="43.7435" lon="1.17937">
        <ele>180.7</ele>
        <time>2015-11-11T14:38:51Z</time>
      </trkpt>
      <trkpt lat="43.74352" lon="1.17946">
        <ele>180.6</ele>
        <time>2015-11-11T14:38:52Z</time>
      </trkpt>
      <trkpt lat="43.74352" lon="1.17956">
        <ele>180.6</ele>
        <time>2015-11-11T14:38:53Z</time>
      </trkpt>
      <trkpt lat="43.74352" lon="1.17968">
        <ele>180.6</ele>
        <time>2015-11-11T14:38:54Z</time>
      </trkpt>
      <trkpt lat="43.7435" lon="1.17976">
        <ele>180.7</ele>
        <time>2015-11-11T14:38:55Z</time>
      </trkpt>
      <trkpt lat="43.74348" lon="1.17985">
        <ele>180.9</ele>
        <time>2015-11-11T14:38:56Z</time>
      </trkpt>
      <trkpt lat="43.74344" lon="1.17994">
        <ele>181</ele>
        <time>2015-11-11T14:38:57Z</time>
      </trkpt>
      <trkpt lat="43.7434" lon="1.18002">
        <ele>181.1</ele>
        <time>2015-11-11T14:38:58Z</time>
      </trkpt>
      <trkpt lat="43.74337" lon="1.18011">
        <ele>181.3</ele>
        <time>2015-11-11T14:38:59Z</time>
      </trkpt>
      <trkpt lat="43.74334" lon="1.18019">
        <ele>181.3</ele>
        <time>2015-11-11T14:39:00Z</time>
      </trkpt>
      <trkpt lat="43.74333" lon="1.18028">
        <ele>181.4</ele>
        <time>2015-11-11T14:39:01Z</time>
      </trkpt>
      <trkpt lat="43.74332" lon="1.18037">
        <ele>181.5</ele>
        <time>2015-11-11T14:39:02Z</time>
      </trkpt>
      <trkpt lat="43.74331" lon="1.18047">
        <ele>181.6</ele>
        <time>2015-11-11T14:39:03Z</time>
      </trkpt>
      <trkpt lat="43.74329" lon="1.18056">
        <ele>181.6</ele>
        <time>2015-11-11T14:39:04Z</time>
      </trkpt>
      <trkpt lat="43.74329" lon="1.18064">
        <ele>181.6</ele>
        <time>2015-11-11T14:39:05Z</time>
      </trkpt>
      <trkpt lat="43.74331" lon="1.18075">
        <ele>181.7</ele>
        <time>2015-11-11T14:39:06Z</time>
      </trkpt>
      <trkpt lat="43.74332" lon="1.18083">
        <ele>181.7</ele>
        <time>2015-11-11T14:39:07Z</time>
      </trkpt>
      <trkpt lat="43.74332" lon="1.18095">
        <ele>181.8</ele>
        <time>2015-11-11T14:39:08Z</time>
      </trkpt>
      <trkpt lat="43.74332" lon="1.18103">
        <ele>181.8</ele>
        <time>2015-11-11T14:39:09Z</time>
      </trkpt>
      <trkpt lat="43.7433" lon="1.18112">
        <ele>181.9</ele>
        <time>2015-11-11T14:39:10Z</time>
      </trkpt>
      <trkpt lat="43.74328" lon="1.18121">
        <ele>181.9</ele>
        <time>2015-11-11T14:39:11Z</time>
      </trkpt>
      <trkpt lat="43.74327" lon="1.18132">
        <ele>181.6</ele>
        <time>2015-11-11T14:39:12Z</time>
      </trkpt>
      <trkpt lat="43.74326" lon="1.18141">
        <ele>181.2</ele>
        <time>2015-11-11T14:39:13Z</time>
      </trkpt>
      <trkpt lat="43.74324" lon="1.18151">
        <ele>180.9</ele>
        <time>2015-11-11T14:39:14Z</time>
      </trkpt>
      <trkpt lat="43.74323" lon="1.18159">
        <ele>180.5</ele>
        <time>2015-11-11T14:39:15Z</time>
      </trkpt>
      <trkpt lat="43.74322" lon="1.18168">
        <ele>180.2</ele>
        <time>2015-11-11T14:39:16Z</time>
      </trkpt>
      <trkpt lat="43.7432" lon="1.18177">
        <ele>179.8</ele>
        <time>2015-11-11T14:39:17Z</time>
      </trkpt>
      <trkpt lat="43.74319" lon="1.18186">
        <ele>179.5</ele>
        <time>2015-11-11T14:39:18Z</time>
      </trkpt>
      <trkpt lat="43.74318" lon="1.18195">
        <ele>179.1</ele>
        <time>2015-11-11T14:39:19Z</time>
      </trkpt>
      <trkpt lat="43.74316" lon="1.18204">
        <ele>178.7</ele>
        <time>2015-11-11T14:39:20Z</time>
      </trkpt>
      <trkpt lat="43.74316" lon="1.18213">
        <ele>178.5</ele>
        <time>2015-11-11T14:39:21Z</time>
      </trkpt>
      <trkpt lat="43.74313" lon="1.18222">
        <ele>178.4</ele>
        <time>2015-11-11T14:39:22Z</time>
      </trkpt>
      <trkpt lat="43.74312" lon="1.18231">
        <ele>178.3</ele>
        <time>2015-11-11T14:39:23Z</time>
      </trkpt>
      <trkpt lat="43.7431" lon="1.18239">
        <ele>178.2</ele>
        <time>2015-11-11T14:39:24Z</time>
      </trkpt>
      <trkpt lat="43.74308" lon="1.18249">
        <ele>178</ele>
        <time>2015-11-11T14:39:25Z</time>
      </trkpt>
      <trkpt lat="43.74307" lon="1.18259">
        <ele>177.9</ele>
        <time>2015-11-11T14:39:26Z</time>
      </trkpt>
      <trkpt lat="43.74305" lon="1.18268">
        <ele>177.7</ele>
        <time>2015-11-11T14:39:27Z</time>
      </trkpt>
      <trkpt lat="43.74302" lon="1.18278">
        <ele>177.5</ele>
        <time>2015-11-11T14:39:28Z</time>
      </trkpt>
      <trkpt lat="43.743" lon="1.18288">
        <ele>177.4</ele>
        <time>2015-11-11T14:39:29Z</time>
      </trkpt>
      <trkpt lat="43.743" lon="1.18297">
        <ele>177.2</ele>
        <time>2015-11-11T14:39:30Z</time>
      </trkpt>
      <trkpt lat="43.74297" lon="1.18306">
        <ele>177</ele>
        <time>2015-11-11T14:39:31Z</time>
      </trkpt>
      <trkpt lat="43.74296" lon="1.18315">
        <ele>176.8</ele>
        <time>2015-11-11T14:39:32Z</time>
      </trkpt>
      <trkpt lat="43.74294" lon="1.18324">
        <ele>176.7</ele>
        <time>2015-11-11T14:39:33Z</time>
      </trkpt>
      <trkpt lat="43.74292" lon="1.18333">
        <ele>176.5</ele>
        <time>2015-11-11T14:39:34Z</time>
      </trkpt>
      <trkpt lat="43.74291" lon="1.18342">
        <ele>176.4</ele>
        <time>2015-11-11T14:39:35Z</time>
      </trkpt>
      <trkpt lat="43.7429" lon="1.18349">
        <ele>176.4</ele>
        <time>2015-11-11T14:39:36Z</time>
      </trkpt>
      <trkpt lat="43.74287" lon="1.18359">
        <ele>176.4</ele>
        <time>2015-11-11T14:39:37Z</time>
      </trkpt>
      <trkpt lat="43.74285" lon="1.18368">
        <ele>176.3</ele>
        <time>2015-11-11T14:39:38Z</time>
      </trkpt>
      <trkpt lat="43.74285" lon="1.18375">
        <ele>176.3</ele>
        <time>2015-11-11T14:39:39Z</time>
      </trkpt>
      <trkpt lat="43.74283" lon="1.18384">
        <ele>176.2</ele>
        <time>2015-11-11T14:39:40Z</time>
      </trkpt>
      <trkpt lat="43.74282" lon="1.18393">
        <ele>176.1</ele>
        <time>2015-11-11T14:39:41Z</time>
      </trkpt>
      <trkpt lat="43.74279" lon="1.18401">
        <ele>176</ele>
        <time>2015-11-11T14:39:42Z</time>
      </trkpt>
      <trkpt lat="43.74278" lon="1.18409">
        <ele>175.9</ele>
        <time>2015-11-11T14:39:43Z</time>
      </trkpt>
      <trkpt lat="43.74276" lon="1.18418">
        <ele>175.8</ele>
        <time>2015-11-11T14:39:44Z</time>
      </trkpt>
      <trkpt lat="43.74274" lon="1.18426">
        <ele>175.6</ele>
        <time>2015-11-11T14:39:45Z</time>
      </trkpt>
      <trkpt lat="43.74272" lon="1.18434">
        <ele>175.5</ele>
        <time>2015-11-11T14:39:46Z</time>
      </trkpt>
      <trkpt lat="43.7427" lon="1.18444">
        <ele>175.3</ele>
        <time>2015-11-11T14:39:47Z</time>
      </trkpt>
      <trkpt lat="43.7427" lon="1.18452">
        <ele>175.1</ele>
        <time>2015-11-11T14:39:48Z</time>
      </trkpt>
      <trkpt lat="43.74267" lon="1.18461">
        <ele>175</ele>
        <time>2015-11-11T14:39:49Z</time>
      </trkpt>
      <trkpt lat="43.74265" lon="1.18469">
        <ele>174.9</ele>
        <time>2015-11-11T14:39:50Z</time>
      </trkpt>
      <trkpt lat="43.74263" lon="1.18476">
        <ele>174.8</ele>
        <time>2015-11-11T14:39:51Z</time>
      </trkpt>
      <trkpt lat="43.74261" lon="1.18485">
        <ele>174.7</ele>
        <time>2015-11-11T14:39:52Z</time>
      </trkpt>
      <trkpt lat="43.74261" lon="1.18494">
        <ele>174.6</ele>
        <time>2015-11-11T14:39:53Z</time>
      </trkpt>
      <trkpt lat="43.74261" lon="1.18501">
        <ele>174.5</ele>
        <time>2015-11-11T14:39:54Z</time>
      </trkpt>
      <trkpt lat="43.7426" lon="1.18509">
        <ele>174.4</ele>
        <time>2015-11-11T14:39:55Z</time>
      </trkpt>
      <trkpt lat="43.7426" lon="1.18517">
        <ele>174.3</ele>
        <time>2015-11-11T14:39:56Z</time>
      </trkpt>
      <trkpt lat="43.74258" lon="1.18525">
        <ele>174.2</ele>
        <time>2015-11-11T14:39:57Z</time>
      </trkpt>
      <trkpt lat="43.74255" lon="1.18534">
        <ele>174.1</ele>
        <time>2015-11-11T14:39:58Z</time>
      </trkpt>
      <trkpt lat="43.74254" lon="1.18541">
        <ele>174</ele>
        <time>2015-11-11T14:39:59Z</time>
      </trkpt>
      <trkpt lat="43.74254" lon="1.1855">
        <ele>174</ele>
        <time>2015-11-11T14:40:00Z</time>
      </trkpt>
      <trkpt lat="43.74253" lon="1.18561">
        <ele>174</ele>
        <time>2015-11-11T14:40:01Z</time>
      </trkpt>
      <trkpt lat="43.74251" lon="1.18569">
        <ele>174</ele>
        <time>2015-11-11T14:40:02Z</time>
      </trkpt>
      <trkpt lat="43.74249" lon="1.18578">
        <ele>174</ele>
        <time>2015-11-11T14:40:03Z</time>
      </trkpt>
      <trkpt lat="43.74249" lon="1.18586">
        <ele>174</ele>
        <time>2015-11-11T14:40:04Z</time>
      </trkpt>
      <trkpt lat="43.74248" lon="1.18594">
        <ele>174</ele>
        <time>2015-11-11T14:40:05Z</time>
      </trkpt>
      <trkpt lat="43.74246" lon="1.18603">
        <ele>174</ele>
        <time>2015-11-11T14:40:06Z</time>
      </trkpt>
      <trkpt lat="43.74246" lon="1.1861">
        <ele>174</ele>
        <time>2015-11-11T14:40:07Z</time>
      </trkpt>
      <trkpt lat="43.74243" lon="1.18617">
        <ele>174</ele>
        <time>2015-11-11T14:40:08Z</time>
      </trkpt>
      <trkpt lat="43.74242" lon="1.18625">
        <ele>174</ele>
        <time>2015-11-11T14:40:09Z</time>
      </trkpt>
      <trkpt lat="43.74239" lon="1.18633">
        <ele>174</ele>
        <time>2015-11-11T14:40:10Z</time>
      </trkpt>
      <trkpt lat="43.74238" lon="1.1864">
        <ele>174.1</ele>
        <time>2015-11-11T14:40:11Z</time>
      </trkpt>
      <trkpt lat="43.74237" lon="1.18646">
        <ele>174.1</ele>
        <time>2015-11-11T14:40:12Z</time>
      </trkpt>
      <trkpt lat="43.74235" lon="1.18655">
        <ele>174.1</ele>
        <time>2015-11-11T14:40:13Z</time>
      </trkpt>
      <trkpt lat="43.74233" lon="1.18664">
        <ele>174.1</ele>
        <time>2015-11-11T14:40:14Z</time>
      </trkpt>
      <trkpt lat="43.74232" lon="1.18672">
        <ele>174.2</ele>
        <time>2015-11-11T14:40:15Z</time>
      </trkpt>
      <trkpt lat="43.74229" lon="1.18681">
        <ele>174.2</ele>
        <time>2015-11-11T14:40:16Z</time>
      </trkpt>
      <trkpt lat="43.74227" lon="1.18692">
        <ele>174.2</ele>
        <time>2015-11-11T14:40:17Z</time>
      </trkpt>
      <trkpt lat="43.74225" lon="1.18701">
        <ele>174.2</ele>
        <time>2015-11-11T14:40:18Z</time>
      </trkpt>
      <trkpt lat="43.74223" lon="1.1871">
        <ele>174.2</ele>
        <time>2015-11-11T14:40:19Z</time>
      </trkpt>
      <trkpt lat="43.74221" lon="1.18718">
        <ele>174.1</ele>
        <time>2015-11-11T14:40:20Z</time>
      </trkpt>
      <trkpt lat="43.7422" lon="1.18725">
        <ele>174.1</ele>
        <time>2015-11-11T14:40:21Z</time>
      </trkpt>
      <trkpt lat="43.74218" lon="1.18734">
        <ele>174</ele>
        <time>2015-11-11T14:40:22Z</time>
      </trkpt>
      <trkpt lat="43.74215" lon="1.18743">
        <ele>174</ele>
        <time>2015-11-11T14:40:23Z</time>
      </trkpt>
      <trkpt lat="43.74213" lon="1.18752">
        <ele>174</ele>
        <time>2015-11-11T14:40:24Z</time>
      </trkpt>
      <trkpt lat="43.74211" lon="1.18761">
        <ele>174</ele>
        <time>2015-11-11T14:40:25Z</time>
      </trkpt>
      <trkpt lat="43.74209" lon="1.1877">
        <ele>174</ele>
        <time>2015-11-11T14:40:26Z</time>
      </trkpt>
      <trkpt lat="43.74206" lon="1.18779">
        <ele>174</ele>
        <time>2015-11-11T14:40:27Z</time>
      </trkpt>
      <trkpt lat="43.74204" lon="1.18789">
        <ele>173.9</ele>
        <time>2015-11-11T14:40:28Z</time>
      </trkpt>
      <trkpt lat="43.74202" lon="1.18797">
        <ele>173.8</ele>
        <time>2015-11-11T14:40:29Z</time>
      </trkpt>
      <trkpt lat="43.74199" lon="1.18805">
        <ele>173.6</ele>
        <time>2015-11-11T14:40:30Z</time>
      </trkpt>
      <trkpt lat="43.74196" lon="1.18815">
        <ele>173.4</ele>
        <time>2015-11-11T14:40:31Z</time>
      </trkpt>
      <trkpt lat="43.74195" lon="1.18823">
        <ele>173.3</ele>
        <time>2015-11-11T14:40:32Z</time>
      </trkpt>
      <trkpt lat="43.74193" lon="1.18832">
        <ele>173.1</ele>
        <time>2015-11-11T14:40:33Z</time>
      </trkpt>
      <trkpt lat="43.74191" lon="1.18842">
        <ele>173</ele>
        <time>2015-11-11T14:40:34Z</time>
      </trkpt>
      <trkpt lat="43.7419" lon="1.18851">
        <ele>172.8</ele>
        <time>2015-11-11T14:40:35Z</time>
      </trkpt>
      <trkpt lat="43.74187" lon="1.1886">
        <ele>172.7</ele>
        <time>2015-11-11T14:40:36Z</time>
      </trkpt>
      <trkpt lat="43.74185" lon="1.18869">
        <ele>172.5</ele>
        <time>2015-11-11T14:40:37Z</time>
      </trkpt>
      <trkpt lat="43.74183" lon="1.18878">
        <ele>172.3</ele>
        <time>2015-11-11T14:40:38Z</time>
      </trkpt>
      <trkpt lat="43.74181" lon="1.18887">
        <ele>172</ele>
        <time>2015-11-11T14:40:39Z</time>
      </trkpt>
      <trkpt lat="43.74178" lon="1.18894">
        <ele>171.7</ele>
        <time>2015-11-11T14:40:40Z</time>
      </trkpt>
      <trkpt lat="43.74176" lon="1.18902">
        <ele>171.4</ele>
        <time>2015-11-11T14:40:41Z</time>
      </trkpt>
      <trkpt lat="43.74174" lon="1.18911">
        <ele>171.2</ele>
        <time>2015-11-11T14:40:42Z</time>
      </trkpt>
      <trkpt lat="43.74171" lon="1.18917">
        <ele>171</ele>
        <time>2015-11-11T14:40:43Z</time>
      </trkpt>
      <trkpt lat="43.74169" lon="1.18925">
        <ele>170.8</ele>
        <time>2015-11-11T14:40:44Z</time>
      </trkpt>
      <trkpt lat="43.74167" lon="1.18934">
        <ele>170.6</ele>
        <time>2015-11-11T14:40:45Z</time>
      </trkpt>
      <trkpt lat="43.74168" lon="1.18941">
        <ele>170.4</ele>
        <time>2015-11-11T14:40:46Z</time>
      </trkpt>
      <trkpt lat="43.74166" lon="1.18949">
        <ele>170.2</ele>
        <time>2015-11-11T14:40:47Z</time>
      </trkpt>
      <trkpt lat="43.74163" lon="1.18959">
        <ele>170.1</ele>
        <time>2015-11-11T14:40:48Z</time>
      </trkpt>
      <trkpt lat="43.74161" lon="1.18968">
        <ele>170.1</ele>
        <time>2015-11-11T14:40:49Z</time>
      </trkpt>
      <trkpt lat="43.74159" lon="1.18976">
        <ele>170.1</ele>
        <time>2015-11-11T14:40:50Z</time>
      </trkpt>
      <trkpt lat="43.74156" lon="1.18984">
        <ele>170.1</ele>
        <time>2015-11-11T14:40:51Z</time>
      </trkpt>
      <trkpt lat="43.74155" lon="1.18993">
        <ele>170</ele>
        <time>2015-11-11T14:40:52Z</time>
      </trkpt>
      <trkpt lat="43.74154" lon="1.19">
        <ele>170</ele>
        <time>2015-11-11T14:40:53Z</time>
      </trkpt>
      <trkpt lat="43.74152" lon="1.19009">
        <ele>169.9</ele>
        <time>2015-11-11T14:40:54Z</time>
      </trkpt>
      <trkpt lat="43.7415" lon="1.19018">
        <ele>169.9</ele>
        <time>2015-11-11T14:40:55Z</time>
      </trkpt>
      <trkpt lat="43.74149" lon="1.19026">
        <ele>169.8</ele>
        <time>2015-11-11T14:40:56Z</time>
      </trkpt>
      <trkpt lat="43.74149" lon="1.19033">
        <ele>169.8</ele>
        <time>2015-11-11T14:40:57Z</time>
      </trkpt>
      <trkpt lat="43.74147" lon="1.19043">
        <ele>169.7</ele>
        <time>2015-11-11T14:40:58Z</time>
      </trkpt>
      <trkpt lat="43.74146" lon="1.19054">
        <ele>169.8</ele>
        <time>2015-11-11T14:40:59Z</time>
      </trkpt>
      <trkpt lat="43.74145" lon="1.19063">
        <ele>169.8</ele>
        <time>2015-11-11T14:41:00Z</time>
      </trkpt>
      <trkpt lat="43.74144" lon="1.19069">
        <ele>169.9</ele>
        <time>2015-11-11T14:41:01Z</time>
      </trkpt>
      <trkpt lat="43.74142" lon="1.19079">
        <ele>169.9</ele>
        <time>2015-11-11T14:41:02Z</time>
      </trkpt>
      <trkpt lat="43.74142" lon="1.19088">
        <ele>169.9</ele>
        <time>2015-11-11T14:41:03Z</time>
      </trkpt>
      <trkpt lat="43.74141" lon="1.19097">
        <ele>169.9</ele>
        <time>2015-11-11T14:41:04Z</time>
      </trkpt>
      <trkpt lat="43.74138" lon="1.19107">
        <ele>170</ele>
        <time>2015-11-11T14:41:05Z</time>
      </trkpt>
      <trkpt lat="43.74137" lon="1.19116">
        <ele>170</ele>
        <time>2015-11-11T14:41:06Z</time>
      </trkpt>
      <trkpt lat="43.74136" lon="1.19126">
        <ele>170</ele>
        <time>2015-11-11T14:41:07Z</time>
      </trkpt>
      <trkpt lat="43.74134" lon="1.19133">
        <ele>170.1</ele>
        <time>2015-11-11T14:41:08Z</time>
      </trkpt>
      <trkpt lat="43.74132" lon="1.19142">
        <ele>170.2</ele>
        <time>2015-11-11T14:41:09Z</time>
      </trkpt>
      <trkpt lat="43.74132" lon="1.19149">
        <ele>170.3</ele>
        <time>2015-11-11T14:41:10Z</time>
      </trkpt>
      <trkpt lat="43.7413" lon="1.19159">
        <ele>170.4</ele>
        <time>2015-11-11T14:41:11Z</time>
      </trkpt>
      <trkpt lat="43.74128" lon="1.1917">
        <ele>170.5</ele>
        <time>2015-11-11T14:41:12Z</time>
      </trkpt>
      <trkpt lat="43.74127" lon="1.1918">
        <ele>170.6</ele>
        <time>2015-11-11T14:41:13Z</time>
      </trkpt>
      <trkpt lat="43.74124" lon="1.1919">
        <ele>170.8</ele>
        <time>2015-11-11T14:41:14Z</time>
      </trkpt>
      <trkpt lat="43.74123" lon="1.19202">
        <ele>170.9</ele>
        <time>2015-11-11T14:41:15Z</time>
      </trkpt>
      <trkpt lat="43.74122" lon="1.19213">
        <ele>170.9</ele>
        <time>2015-11-11T14:41:16Z</time>
      </trkpt>
      <trkpt lat="43.74122" lon="1.19223">
        <ele>170.6</ele>
        <time>2015-11-11T14:41:17Z</time>
      </trkpt>
      <trkpt lat="43.7412" lon="1.19237">
        <ele>170.3</ele>
        <time>2015-11-11T14:41:18Z</time>
      </trkpt>
      <trkpt lat="43.74119" lon="1.19247">
        <ele>170.1</ele>
        <time>2015-11-11T14:41:19Z</time>
      </trkpt>
      <trkpt lat="43.74118" lon="1.19258">
        <ele>169.8</ele>
        <time>2015-11-11T14:41:20Z</time>
      </trkpt>
      <trkpt lat="43.74117" lon="1.1927">
        <ele>169.6</ele>
        <time>2015-11-11T14:41:21Z</time>
      </trkpt>
      <trkpt lat="43.74117" lon="1.19281">
        <ele>169.3</ele>
        <time>2015-11-11T14:41:22Z</time>
      </trkpt>
      <trkpt lat="43.74116" lon="1.19293">
        <ele>169.1</ele>
        <time>2015-11-11T14:41:23Z</time>
      </trkpt>
      <trkpt lat="43.74114" lon="1.19304">
        <ele>169.1</ele>
        <time>2015-11-11T14:41:24Z</time>
      </trkpt>
      <trkpt lat="43.74113" lon="1.19314">
        <ele>169.1</ele>
        <time>2015-11-11T14:41:25Z</time>
      </trkpt>
      <trkpt lat="43.74112" lon="1.19324">
        <ele>169.1</ele>
        <time>2015-11-11T14:41:26Z</time>
      </trkpt>
      <trkpt lat="43.74111" lon="1.19337">
        <ele>169.1</ele>
        <time>2015-11-11T14:41:27Z</time>
      </trkpt>
      <trkpt lat="43.74111" lon="1.19347">
        <ele>169.1</ele>
        <time>2015-11-11T14:41:28Z</time>
      </trkpt>
      <trkpt lat="43.74112" lon="1.19359">
        <ele>169</ele>
        <time>2015-11-11T14:41:29Z</time>
      </trkpt>
      <trkpt lat="43.74111" lon="1.19372">
        <ele>169</ele>
        <time>2015-11-11T14:41:30Z</time>
      </trkpt>
      <trkpt lat="43.74111" lon="1.19382">
        <ele>169</ele>
        <time>2015-11-11T14:41:31Z</time>
      </trkpt>
      <trkpt lat="43.74111" lon="1.19392">
        <ele>168.9</ele>
        <time>2015-11-11T14:41:32Z</time>
      </trkpt>
      <trkpt lat="43.74111" lon="1.19403">
        <ele>168.9</ele>
        <time>2015-11-11T14:41:33Z</time>
      </trkpt>
      <trkpt lat="43.74111" lon="1.19416">
        <ele>168.8</ele>
        <time>2015-11-11T14:41:34Z</time>
      </trkpt>
      <trkpt lat="43.74111" lon="1.19428">
        <ele>168.8</ele>
        <time>2015-11-11T14:41:35Z</time>
      </trkpt>
      <trkpt lat="43.7411" lon="1.19439">
        <ele>168.7</ele>
        <time>2015-11-11T14:41:36Z</time>
      </trkpt>
      <trkpt lat="43.7411" lon="1.1945">
        <ele>168.7</ele>
        <time>2015-11-11T14:41:37Z</time>
      </trkpt>
      <trkpt lat="43.74109" lon="1.19462">
        <ele>168.5</ele>
        <time>2015-11-11T14:41:38Z</time>
      </trkpt>
      <trkpt lat="43.74109" lon="1.19474">
        <ele>168.1</ele>
        <time>2015-11-11T14:41:39Z</time>
      </trkpt>
      <trkpt lat="43.74109" lon="1.19487">
        <ele>167.7</ele>
        <time>2015-11-11T14:41:40Z</time>
      </trkpt>
      <trkpt lat="43.74108" lon="1.19497">
        <ele>167.4</ele>
        <time>2015-11-11T14:41:41Z</time>
      </trkpt>
      <trkpt lat="43.74106" lon="1.19509">
        <ele>167</ele>
        <time>2015-11-11T14:41:42Z</time>
      </trkpt>
      <trkpt lat="43.74102" lon="1.19523">
        <ele>166.6</ele>
        <time>2015-11-11T14:41:43Z</time>
      </trkpt>
      <trkpt lat="43.74101" lon="1.19533">
        <ele>166.2</ele>
        <time>2015-11-11T14:41:44Z</time>
      </trkpt>
      <trkpt lat="43.74101" lon="1.19543">
        <ele>166</ele>
        <time>2015-11-11T14:41:45Z</time>
      </trkpt>
      <trkpt lat="43.74099" lon="1.19555">
        <ele>165.6</ele>
        <time>2015-11-11T14:41:46Z</time>
      </trkpt>
      <trkpt lat="43.74098" lon="1.1957">
        <ele>165.1</ele>
        <time>2015-11-11T14:41:47Z</time>
      </trkpt>
      <trkpt lat="43.74099" lon="1.19581">
        <ele>164.7</ele>
        <time>2015-11-11T14:41:48Z</time>
      </trkpt>
      <trkpt lat="43.74099" lon="1.19592">
        <ele>164.4</ele>
        <time>2015-11-11T14:41:49Z</time>
      </trkpt>
      <trkpt lat="43.74098" lon="1.19602">
        <ele>164.1</ele>
        <time>2015-11-11T14:41:50Z</time>
      </trkpt>
      <trkpt lat="43.74099" lon="1.19614">
        <ele>163.7</ele>
        <time>2015-11-11T14:41:51Z</time>
      </trkpt>
      <trkpt lat="43.74098" lon="1.19629">
        <ele>163.2</ele>
        <time>2015-11-11T14:41:52Z</time>
      </trkpt>
      <trkpt lat="43.74098" lon="1.1964">
        <ele>163</ele>
        <time>2015-11-11T14:41:53Z</time>
      </trkpt>
      <trkpt lat="43.74098" lon="1.19649">
        <ele>162.7</ele>
        <time>2015-11-11T14:41:54Z</time>
      </trkpt>
      <trkpt lat="43.74098" lon="1.1966">
        <ele>162.5</ele>
        <time>2015-11-11T14:41:55Z</time>
      </trkpt>
      <trkpt lat="43.74095" lon="1.19674">
        <ele>162.1</ele>
        <time>2015-11-11T14:41:56Z</time>
      </trkpt>
      <trkpt lat="43.74094" lon="1.19685">
        <ele>161.9</ele>
        <time>2015-11-11T14:41:57Z</time>
      </trkpt>
      <trkpt lat="43.74092" lon="1.19697">
        <ele>161.5</ele>
        <time>2015-11-11T14:41:58Z</time>
      </trkpt>
      <trkpt lat="43.74091" lon="1.19708">
        <ele>161.2</ele>
        <time>2015-11-11T14:41:59Z</time>
      </trkpt>
      <trkpt lat="43.74094" lon="1.19721">
        <ele>160.8</ele>
        <time>2015-11-11T14:42:00Z</time>
      </trkpt>
      <trkpt lat="43.74093" lon="1.19732">
        <ele>160.5</ele>
        <time>2015-11-11T14:42:01Z</time>
      </trkpt>
      <trkpt lat="43.74093" lon="1.19737">
        <ele>160.3</ele>
        <time>2015-11-11T14:42:02Z</time>
      </trkpt>
      <trkpt lat="43.74092" lon="1.19749">
        <ele>160</ele>
        <time>2015-11-11T14:42:03Z</time>
      </trkpt>
      <trkpt lat="43.74093" lon="1.19758">
        <ele>159.7</ele>
        <time>2015-11-11T14:42:04Z</time>
      </trkpt>
      <trkpt lat="43.74092" lon="1.1977">
        <ele>159.3</ele>
        <time>2015-11-11T14:42:05Z</time>
      </trkpt>
      <trkpt lat="43.74091" lon="1.19779">
        <ele>159</ele>
        <time>2015-11-11T14:42:06Z</time>
      </trkpt>
      <trkpt lat="43.7409" lon="1.1979">
        <ele>158.6</ele>
        <time>2015-11-11T14:42:07Z</time>
      </trkpt>
      <trkpt lat="43.7409" lon="1.198">
        <ele>158.5</ele>
        <time>2015-11-11T14:42:08Z</time>
      </trkpt>
      <trkpt lat="43.74089" lon="1.1981">
        <ele>158.4</ele>
        <time>2015-11-11T14:42:09Z</time>
      </trkpt>
      <trkpt lat="43.74088" lon="1.1982">
        <ele>158.4</ele>
        <time>2015-11-11T14:42:10Z</time>
      </trkpt>
      <trkpt lat="43.74088" lon="1.19828">
        <ele>158.3</ele>
        <time>2015-11-11T14:42:11Z</time>
      </trkpt>
      <trkpt lat="43.74087" lon="1.19839">
        <ele>158.2</ele>
        <time>2015-11-11T14:42:12Z</time>
      </trkpt>
      <trkpt lat="43.74087" lon="1.19848">
        <ele>158.2</ele>
        <time>2015-11-11T14:42:13Z</time>
      </trkpt>
      <trkpt lat="43.74086" lon="1.19859">
        <ele>158.1</ele>
        <time>2015-11-11T14:42:14Z</time>
      </trkpt>
      <trkpt lat="43.74086" lon="1.1987">
        <ele>158</ele>
        <time>2015-11-11T14:42:15Z</time>
      </trkpt>
      <trkpt lat="43.74085" lon="1.19878">
        <ele>158</ele>
        <time>2015-11-11T14:42:16Z</time>
      </trkpt>
      <trkpt lat="43.74084" lon="1.19889">
        <ele>157.9</ele>
        <time>2015-11-11T14:42:17Z</time>
      </trkpt>
      <trkpt lat="43.74083" lon="1.19899">
        <ele>157.9</ele>
        <time>2015-11-11T14:42:18Z</time>
      </trkpt>
      <trkpt lat="43.74082" lon="1.19909">
        <ele>157.8</ele>
        <time>2015-11-11T14:42:19Z</time>
      </trkpt>
      <trkpt lat="43.7408" lon="1.19919">
        <ele>157.8</ele>
        <time>2015-11-11T14:42:20Z</time>
      </trkpt>
      <trkpt lat="43.7408" lon="1.19928">
        <ele>157.7</ele>
        <time>2015-11-11T14:42:21Z</time>
      </trkpt>
      <trkpt lat="43.74078" lon="1.19937">
        <ele>157.7</ele>
        <time>2015-11-11T14:42:22Z</time>
      </trkpt>
      <trkpt lat="43.74076" lon="1.19948">
        <ele>157.6</ele>
        <time>2015-11-11T14:42:23Z</time>
      </trkpt>
      <trkpt lat="43.74075" lon="1.19957">
        <ele>157.6</ele>
        <time>2015-11-11T14:42:24Z</time>
      </trkpt>
      <trkpt lat="43.74073" lon="1.19967">
        <ele>157.8</ele>
        <time>2015-11-11T14:42:25Z</time>
      </trkpt>
      <trkpt lat="43.74073" lon="1.19974">
        <ele>157.9</ele>
        <time>2015-11-11T14:42:26Z</time>
      </trkpt>
      <trkpt lat="43.74072" lon="1.19983">
        <ele>158</ele>
        <time>2015-11-11T14:42:27Z</time>
      </trkpt>
      <trkpt lat="43.74069" lon="1.19992">
        <ele>158.2</ele>
        <time>2015-11-11T14:42:28Z</time>
      </trkpt>
      <trkpt lat="43.74067" lon="1.2">
        <ele>158.3</ele>
        <time>2015-11-11T14:42:29Z</time>
      </trkpt>
      <trkpt lat="43.74065" lon="1.20009">
        <ele>158.5</ele>
        <time>2015-11-11T14:42:30Z</time>
      </trkpt>
      <trkpt lat="43.74061" lon="1.20018">
        <ele>158.7</ele>
        <time>2015-11-11T14:42:31Z</time>
      </trkpt>
      <trkpt lat="43.74059" lon="1.20028">
        <ele>158.8</ele>
        <time>2015-11-11T14:42:32Z</time>
      </trkpt>
      <trkpt lat="43.74055" lon="1.20036">
        <ele>158.9</ele>
        <time>2015-11-11T14:42:33Z</time>
      </trkpt>
      <trkpt lat="43.74051" lon="1.20044">
        <ele>159.2</ele>
        <time>2015-11-11T14:42:34Z</time>
      </trkpt>
      <trkpt lat="43.74047" lon="1.2005">
        <ele>159.5</ele>
        <time>2015-11-11T14:42:35Z</time>
      </trkpt>
      <trkpt lat="43.74043" lon="1.20059">
        <ele>160</ele>
        <time>2015-11-11T14:42:36Z</time>
      </trkpt>
      <trkpt lat="43.74039" lon="1.20067">
        <ele>160.6</ele>
        <time>2015-11-11T14:42:37Z</time>
      </trkpt>
      <trkpt lat="43.74036" lon="1.20073">
        <ele>161.1</ele>
        <time>2015-11-11T14:42:38Z</time>
      </trkpt>
      <trkpt lat="43.74031" lon="1.20079">
        <ele>161.7</ele>
        <time>2015-11-11T14:42:39Z</time>
      </trkpt>
      <trkpt lat="43.7403" lon="1.20083">
        <ele>162</ele>
        <time>2015-11-11T14:42:40Z</time>
      </trkpt>
      <trkpt lat="43.74025" lon="1.2009">
        <ele>162.6</ele>
        <time>2015-11-11T14:42:41Z</time>
      </trkpt>
      <trkpt lat="43.74023" lon="1.20096">
        <ele>163.1</ele>
        <time>2015-11-11T14:42:42Z</time>
      </trkpt>
      <trkpt lat="43.74021" lon="1.201">
        <ele>163.4</ele>
        <time>2015-11-11T14:42:43Z</time>
      </trkpt>
      <trkpt lat="43.74018" lon="1.20105">
        <ele>163.9</ele>
        <time>2015-11-11T14:42:44Z</time>
      </trkpt>
      <trkpt lat="43.74013" lon="1.2011">
        <ele>164.4</ele>
        <time>2015-11-11T14:42:45Z</time>
      </trkpt>
      <trkpt lat="43.7401" lon="1.20114">
        <ele>164.8</ele>
        <time>2015-11-11T14:42:46Z</time>
      </trkpt>
      <trkpt lat="43.74006" lon="1.2012">
        <ele>165.4</ele>
        <time>2015-11-11T14:42:47Z</time>
      </trkpt>
      <trkpt lat="43.74003" lon="1.20124">
        <ele>165.8</ele>
        <time>2015-11-11T14:42:48Z</time>
      </trkpt>
      <trkpt lat="43.74002" lon="1.20128">
        <ele>166</ele>
        <time>2015-11-11T14:42:49Z</time>
      </trkpt>
      <trkpt lat="43.73998" lon="1.20132">
        <ele>166.3</ele>
        <time>2015-11-11T14:42:50Z</time>
      </trkpt>
      <trkpt lat="43.73996" lon="1.20138">
        <ele>166.6</ele>
        <time>2015-11-11T14:42:51Z</time>
      </trkpt>
      <trkpt lat="43.73993" lon="1.20143">
        <ele>166.9</ele>
        <time>2015-11-11T14:42:52Z</time>
      </trkpt>
      <trkpt lat="43.73992" lon="1.20152">
        <ele>167.3</ele>
        <time>2015-11-11T14:42:53Z</time>
      </trkpt>
      <trkpt lat="43.73989" lon="1.20156">
        <ele>167.5</ele>
        <time>2015-11-11T14:42:54Z</time>
      </trkpt>
      <trkpt lat="43.73986" lon="1.20165">
        <ele>168</ele>
        <time>2015-11-11T14:42:55Z</time>
      </trkpt>
      <trkpt lat="43.73984" lon="1.20171">
        <ele>168.2</ele>
        <time>2015-11-11T14:42:56Z</time>
      </trkpt>
      <trkpt lat="43.73981" lon="1.20177">
        <ele>168.5</ele>
        <time>2015-11-11T14:42:57Z</time>
      </trkpt>
      <trkpt lat="43.73978" lon="1.20183">
        <ele>168.8</ele>
        <time>2015-11-11T14:42:58Z</time>
      </trkpt>
      <trkpt lat="43.73975" lon="1.20191">
        <ele>169.1</ele>
        <time>2015-11-11T14:42:59Z</time>
      </trkpt>
      <trkpt lat="43.73973" lon="1.20197">
        <ele>169.3</ele>
        <time>2015-11-11T14:43:00Z</time>
      </trkpt>
      <trkpt lat="43.7397" lon="1.20202">
        <ele>169.6</ele>
        <time>2015-11-11T14:43:01Z</time>
      </trkpt>
      <trkpt lat="43.73968" lon="1.20208">
        <ele>169.8</ele>
        <time>2015-11-11T14:43:02Z</time>
      </trkpt>
      <trkpt lat="43.73969" lon="1.20213">
        <ele>169.7</ele>
        <time>2015-11-11T14:43:03Z</time>
      </trkpt>
      <trkpt lat="43.73966" lon="1.2022">
        <ele>169.7</ele>
        <time>2015-11-11T14:43:04Z</time>
      </trkpt>
      <trkpt lat="43.73964" lon="1.20225">
        <ele>169.7</ele>
        <time>2015-11-11T14:43:05Z</time>
      </trkpt>
      <trkpt lat="43.73961" lon="1.20231">
        <ele>169.7</ele>
        <time>2015-11-11T14:43:06Z</time>
      </trkpt>
      <trkpt lat="43.73959" lon="1.20237">
        <ele>169.7</ele>
        <time>2015-11-11T14:43:07Z</time>
      </trkpt>
      <trkpt lat="43.73956" lon="1.20243">
        <ele>169.6</ele>
        <time>2015-11-11T14:43:08Z</time>
      </trkpt>
      <trkpt lat="43.73954" lon="1.20247">
        <ele>169.5</ele>
        <time>2015-11-11T14:43:09Z</time>
      </trkpt>
      <trkpt lat="43.73952" lon="1.20253">
        <ele>169.4</ele>
        <time>2015-11-11T14:43:10Z</time>
      </trkpt>
      <trkpt lat="43.7395" lon="1.2026">
        <ele>169.3</ele>
        <time>2015-11-11T14:43:11Z</time>
      </trkpt>
      <trkpt lat="43.73948" lon="1.2027">
        <ele>169.2</ele>
        <time>2015-11-11T14:43:13Z</time>
      </trkpt>
      <trkpt lat="43.73945" lon="1.20277">
        <ele>169.2</ele>
        <time>2015-11-11T14:43:14Z</time>
      </trkpt>
      <trkpt lat="43.73943" lon="1.20284">
        <ele>169.1</ele>
        <time>2015-11-11T14:43:15Z</time>
      </trkpt>
      <trkpt lat="43.7394" lon="1.20291">
        <ele>169</ele>
        <time>2015-11-11T14:43:16Z</time>
      </trkpt>
      <trkpt lat="43.73937" lon="1.20301">
        <ele>168.9</ele>
        <time>2015-11-11T14:43:18Z</time>
      </trkpt>
      <trkpt lat="43.73935" lon="1.20308">
        <ele>168.8</ele>
        <time>2015-11-11T14:43:19Z</time>
      </trkpt>
      <trkpt lat="43.73933" lon="1.20315">
        <ele>168.7</ele>
        <time>2015-11-11T14:43:20Z</time>
      </trkpt>
      <trkpt lat="43.73931" lon="1.20323">
        <ele>168.6</ele>
        <time>2015-11-11T14:43:21Z</time>
      </trkpt>
      <trkpt lat="43.73929" lon="1.20329">
        <ele>168.5</ele>
        <time>2015-11-11T14:43:22Z</time>
      </trkpt>
      <trkpt lat="43.73926" lon="1.20337">
        <ele>168.5</ele>
        <time>2015-11-11T14:43:23Z</time>
      </trkpt>
      <trkpt lat="43.73924" lon="1.20344">
        <ele>168.4</ele>
        <time>2015-11-11T14:43:24Z</time>
      </trkpt>
      <trkpt lat="43.73921" lon="1.20353">
        <ele>168.3</ele>
        <time>2015-11-11T14:43:25Z</time>
      </trkpt>
      <trkpt lat="43.73918" lon="1.20361">
        <ele>168.2</ele>
        <time>2015-11-11T14:43:26Z</time>
      </trkpt>
      <trkpt lat="43.73915" lon="1.20368">
        <ele>168.1</ele>
        <time>2015-11-11T14:43:27Z</time>
      </trkpt>
      <trkpt lat="43.73913" lon="1.20376">
        <ele>168</ele>
        <time>2015-11-11T14:43:28Z</time>
      </trkpt>
      <trkpt lat="43.73911" lon="1.20383">
        <ele>168</ele>
        <time>2015-11-11T14:43:29Z</time>
      </trkpt>
      <trkpt lat="43.73908" lon="1.20392">
        <ele>168</ele>
        <time>2015-11-11T14:43:30Z</time>
      </trkpt>
      <trkpt lat="43.73906" lon="1.20399">
        <ele>168</ele>
        <time>2015-11-11T14:43:31Z</time>
      </trkpt>
      <trkpt lat="43.73905" lon="1.20406">
        <ele>168</ele>
        <time>2015-11-11T14:43:32Z</time>
      </trkpt>
      <trkpt lat="43.73901" lon="1.20413">
        <ele>168</ele>
        <time>2015-11-11T14:43:33Z</time>
      </trkpt>
      <trkpt lat="43.73898" lon="1.2042">
        <ele>168</ele>
        <time>2015-11-11T14:43:34Z</time>
      </trkpt>
      <trkpt lat="43.73895" lon="1.20427">
        <ele>168</ele>
        <time>2015-11-11T14:43:35Z</time>
      </trkpt>
      <trkpt lat="43.73891" lon="1.20434">
        <ele>168</ele>
        <time>2015-11-11T14:43:36Z</time>
      </trkpt>
      <trkpt lat="43.73887" lon="1.20443">
        <ele>168</ele>
        <time>2015-11-11T14:43:37Z</time>
      </trkpt>
      <trkpt lat="43.73883" lon="1.2045">
        <ele>168</ele>
        <time>2015-11-11T14:43:38Z</time>
      </trkpt>
      <trkpt lat="43.73878" lon="1.20459">
        <ele>168</ele>
        <time>2015-11-11T14:43:39Z</time>
      </trkpt>
      <trkpt lat="43.73873" lon="1.20466">
        <ele>167.9</ele>
        <time>2015-11-11T14:43:40Z</time>
      </trkpt>
      <trkpt lat="43.7387" lon="1.20473">
        <ele>167.8</ele>
        <time>2015-11-11T14:43:41Z</time>
      </trkpt>
      <trkpt lat="43.73866" lon="1.2048">
        <ele>167.7</ele>
        <time>2015-11-11T14:43:42Z</time>
      </trkpt>
      <trkpt lat="43.73862" lon="1.20486">
        <ele>167.7</ele>
        <time>2015-11-11T14:43:43Z</time>
      </trkpt>
      <trkpt lat="43.73858" lon="1.20493">
        <ele>167.6</ele>
        <time>2015-11-11T14:43:44Z</time>
      </trkpt>
      <trkpt lat="43.73855" lon="1.20498">
        <ele>167.5</ele>
        <time>2015-11-11T14:43:45Z</time>
      </trkpt>
      <trkpt lat="43.7385" lon="1.20505">
        <ele>167.4</ele>
        <time>2015-11-11T14:43:46Z</time>
      </trkpt>
      <trkpt lat="43.73846" lon="1.20514">
        <ele>167.3</ele>
        <time>2015-11-11T14:43:47Z</time>
      </trkpt>
      <trkpt lat="43.73842" lon="1.20522">
        <ele>167.2</ele>
        <time>2015-11-11T14:43:48Z</time>
      </trkpt>
      <trkpt lat="43.73837" lon="1.2053">
        <ele>167.1</ele>
        <time>2015-11-11T14:43:49Z</time>
      </trkpt>
      <trkpt lat="43.73832" lon="1.20538">
        <ele>167</ele>
        <time>2015-11-11T14:43:50Z</time>
      </trkpt>
      <trkpt lat="43.73829" lon="1.20543">
        <ele>167</ele>
        <time>2015-11-11T14:43:51Z</time>
      </trkpt>
      <trkpt lat="43.73825" lon="1.2055">
        <ele>167</ele>
        <time>2015-11-11T14:43:52Z</time>
      </trkpt>
      <trkpt lat="43.73821" lon="1.20557">
        <ele>166.9</ele>
        <time>2015-11-11T14:43:53Z</time>
      </trkpt>
      <trkpt lat="43.73817" lon="1.20565">
        <ele>166.9</ele>
        <time>2015-11-11T14:43:54Z</time>
      </trkpt>
      <trkpt lat="43.73812" lon="1.20573">
        <ele>166.9</ele>
        <time>2015-11-11T14:43:55Z</time>
      </trkpt>
      <trkpt lat="43.73808" lon="1.2058">
        <ele>166.9</ele>
        <time>2015-11-11T14:43:56Z</time>
      </trkpt>
      <trkpt lat="43.73805" lon="1.20588">
        <ele>166.9</ele>
        <time>2015-11-11T14:43:57Z</time>
      </trkpt>
      <trkpt lat="43.738" lon="1.20596">
        <ele>166.9</ele>
        <time>2015-11-11T14:43:58Z</time>
      </trkpt>
      <trkpt lat="43.73796" lon="1.20603">
        <ele>167</ele>
        <time>2015-11-11T14:43:59Z</time>
      </trkpt>
      <trkpt lat="43.73792" lon="1.20609">
        <ele>167</ele>
        <time>2015-11-11T14:44:00Z</time>
      </trkpt>
      <trkpt lat="43.73788" lon="1.20616">
        <ele>167.1</ele>
        <time>2015-11-11T14:44:01Z</time>
      </trkpt>
      <trkpt lat="43.73783" lon="1.20623">
        <ele>167.2</ele>
        <time>2015-11-11T14:44:02Z</time>
      </trkpt>
      <trkpt lat="43.73779" lon="1.20632">
        <ele>167.4</ele>
        <time>2015-11-11T14:44:03Z</time>
      </trkpt>
      <trkpt lat="43.73775" lon="1.2064">
        <ele>167.5</ele>
        <time>2015-11-11T14:44:04Z</time>
      </trkpt>
      <trkpt lat="43.73771" lon="1.20649">
        <ele>167.6</ele>
        <time>2015-11-11T14:44:05Z</time>
      </trkpt>
      <trkpt lat="43.73769" lon="1.20657">
        <ele>167.7</ele>
        <time>2015-11-11T14:44:06Z</time>
      </trkpt>
      <trkpt lat="43.73764" lon="1.20665">
        <ele>167.8</ele>
        <time>2015-11-11T14:44:07Z</time>
      </trkpt>
      <trkpt lat="43.73761" lon="1.20673">
        <ele>167.9</ele>
        <time>2015-11-11T14:44:08Z</time>
      </trkpt>
      <trkpt lat="43.73759" lon="1.20681">
        <ele>167.9</ele>
        <time>2015-11-11T14:44:09Z</time>
      </trkpt>
      <trkpt lat="43.73757" lon="1.20688">
        <ele>168</ele>
        <time>2015-11-11T14:44:10Z</time>
      </trkpt>
      <trkpt lat="43.73755" lon="1.20698">
        <ele>168</ele>
        <time>2015-11-11T14:44:11Z</time>
      </trkpt>
      <trkpt lat="43.73753" lon="1.20707">
        <ele>168</ele>
        <time>2015-11-11T14:44:12Z</time>
      </trkpt>
      <trkpt lat="43.73749" lon="1.20716">
        <ele>167.8</ele>
        <time>2015-11-11T14:44:13Z</time>
      </trkpt>
      <trkpt lat="43.73746" lon="1.20726">
        <ele>167.6</ele>
        <time>2015-11-11T14:44:14Z</time>
      </trkpt>
      <trkpt lat="43.73744" lon="1.20735">
        <ele>167.3</ele>
        <time>2015-11-11T14:44:15Z</time>
      </trkpt>
      <trkpt lat="43.73741" lon="1.20744">
        <ele>167.1</ele>
        <time>2015-11-11T14:44:16Z</time>
      </trkpt>
      <trkpt lat="43.73739" lon="1.20751">
        <ele>166.8</ele>
        <time>2015-11-11T14:44:17Z</time>
      </trkpt>
      <trkpt lat="43.73737" lon="1.20761">
        <ele>166.5</ele>
        <time>2015-11-11T14:44:18Z</time>
      </trkpt>
      <trkpt lat="43.73735" lon="1.2077">
        <ele>166.3</ele>
        <time>2015-11-11T14:44:19Z</time>
      </trkpt>
      <trkpt lat="43.73733" lon="1.20779">
        <ele>166</ele>
        <time>2015-11-11T14:44:20Z</time>
      </trkpt>
      <trkpt lat="43.7373" lon="1.20788">
        <ele>165.6</ele>
        <time>2015-11-11T14:44:21Z</time>
      </trkpt>
      <trkpt lat="43.73728" lon="1.20797">
        <ele>165.5</ele>
        <time>2015-11-11T14:44:22Z</time>
      </trkpt>
      <trkpt lat="43.73724" lon="1.20804">
        <ele>165.5</ele>
        <time>2015-11-11T14:44:23Z</time>
      </trkpt>
      <trkpt lat="43.73723" lon="1.2081">
        <ele>165.6</ele>
        <time>2015-11-11T14:44:24Z</time>
      </trkpt>
      <trkpt lat="43.73719" lon="1.20819">
        <ele>165.6</ele>
        <time>2015-11-11T14:44:25Z</time>
      </trkpt>
      <trkpt lat="43.7372" lon="1.20824">
        <ele>165.7</ele>
        <time>2015-11-11T14:44:26Z</time>
      </trkpt>
      <trkpt lat="43.73718" lon="1.20833">
        <ele>165.7</ele>
        <time>2015-11-11T14:44:27Z</time>
      </trkpt>
      <trkpt lat="43.73714" lon="1.2084">
        <ele>165.7</ele>
        <time>2015-11-11T14:44:28Z</time>
      </trkpt>
      <trkpt lat="43.73711" lon="1.20848">
        <ele>165.7</ele>
        <time>2015-11-11T14:44:29Z</time>
      </trkpt>
      <trkpt lat="43.73709" lon="1.20856">
        <ele>165.8</ele>
        <time>2015-11-11T14:44:30Z</time>
      </trkpt>
      <trkpt lat="43.73707" lon="1.20865">
        <ele>165.9</ele>
        <time>2015-11-11T14:44:31Z</time>
      </trkpt>
      <trkpt lat="43.73704" lon="1.20875">
        <ele>166</ele>
        <time>2015-11-11T14:44:32Z</time>
      </trkpt>
      <trkpt lat="43.73702" lon="1.20884">
        <ele>166</ele>
        <time>2015-11-11T14:44:33Z</time>
      </trkpt>
      <trkpt lat="43.73698" lon="1.20895">
        <ele>166.1</ele>
        <time>2015-11-11T14:44:34Z</time>
      </trkpt>
      <trkpt lat="43.73695" lon="1.20904">
        <ele>166.1</ele>
        <time>2015-11-11T14:44:35Z</time>
      </trkpt>
      <trkpt lat="43.73693" lon="1.20913">
        <ele>166.2</ele>
        <time>2015-11-11T14:44:36Z</time>
      </trkpt>
      <trkpt lat="43.73689" lon="1.20925">
        <ele>166.2</ele>
        <time>2015-11-11T14:44:37Z</time>
      </trkpt>
      <trkpt lat="43.73686" lon="1.20934">
        <ele>166.3</ele>
        <time>2015-11-11T14:44:38Z</time>
      </trkpt>
      <trkpt lat="43.73685" lon="1.20943">
        <ele>166.3</ele>
        <time>2015-11-11T14:44:39Z</time>
      </trkpt>
      <trkpt lat="43.73683" lon="1.20952">
        <ele>166.3</ele>
        <time>2015-11-11T14:44:40Z</time>
      </trkpt>
      <trkpt lat="43.73683" lon="1.2096">
        <ele>166.4</ele>
        <time>2015-11-11T14:44:41Z</time>
      </trkpt>
      <trkpt lat="43.73681" lon="1.20969">
        <ele>166.2</ele>
        <time>2015-11-11T14:44:42Z</time>
      </trkpt>
      <trkpt lat="43.73679" lon="1.20977">
        <ele>166.1</ele>
        <time>2015-11-11T14:44:43Z</time>
      </trkpt>
      <trkpt lat="43.73676" lon="1.20985">
        <ele>165.9</ele>
        <time>2015-11-11T14:44:44Z</time>
      </trkpt>
      <trkpt lat="43.73674" lon="1.20991">
        <ele>165.8</ele>
        <time>2015-11-11T14:44:45Z</time>
      </trkpt>
      <trkpt lat="43.73671" lon="1.21002">
        <ele>165.6</ele>
        <time>2015-11-11T14:44:46Z</time>
      </trkpt>
      <trkpt lat="43.73669" lon="1.21011">
        <ele>165.4</ele>
        <time>2015-11-11T14:44:47Z</time>
      </trkpt>
      <trkpt lat="43.73667" lon="1.2102">
        <ele>165.3</ele>
        <time>2015-11-11T14:44:48Z</time>
      </trkpt>
      <trkpt lat="43.73664" lon="1.21029">
        <ele>165.1</ele>
        <time>2015-11-11T14:44:49Z</time>
      </trkpt>
      <trkpt lat="43.73662" lon="1.21038">
        <ele>164.9</ele>
        <time>2015-11-11T14:44:50Z</time>
      </trkpt>
      <trkpt lat="43.7366" lon="1.21046">
        <ele>164.8</ele>
        <time>2015-11-11T14:44:51Z</time>
      </trkpt>
      <trkpt lat="43.73658" lon="1.21053">
        <ele>164.8</ele>
        <time>2015-11-11T14:44:52Z</time>
      </trkpt>
      <trkpt lat="43.73655" lon="1.2106">
        <ele>164.8</ele>
        <time>2015-11-11T14:44:53Z</time>
      </trkpt>
      <trkpt lat="43.73653" lon="1.21068">
        <ele>164.8</ele>
        <time>2015-11-11T14:44:54Z</time>
      </trkpt>
      <trkpt lat="43.7365" lon="1.21076">
        <ele>164.8</ele>
        <time>2015-11-11T14:44:55Z</time>
      </trkpt>
      <trkpt lat="43.73648" lon="1.21085">
        <ele>164.8</ele>
        <time>2015-11-11T14:44:56Z</time>
      </trkpt>
      <trkpt lat="43.73644" lon="1.21093">
        <ele>164.8</ele>
        <time>2015-11-11T14:44:57Z</time>
      </trkpt>
      <trkpt lat="43.7364" lon="1.21103">
        <ele>164.8</ele>
        <time>2015-11-11T14:44:58Z</time>
      </trkpt>
      <trkpt lat="43.73635" lon="1.21111">
        <ele>164.9</ele>
        <time>2015-11-11T14:44:59Z</time>
      </trkpt>
      <trkpt lat="43.73632" lon="1.21119">
        <ele>164.9</ele>
        <time>2015-11-11T14:45:00Z</time>
      </trkpt>
      <trkpt lat="43.73627" lon="1.21127">
        <ele>165</ele>
        <time>2015-11-11T14:45:01Z</time>
      </trkpt>
      <trkpt lat="43.73623" lon="1.21134">
        <ele>165.1</ele>
        <time>2015-11-11T14:45:02Z</time>
      </trkpt>
      <trkpt lat="43.73619" lon="1.2114">
        <ele>165.1</ele>
        <time>2015-11-11T14:45:03Z</time>
      </trkpt>
      <trkpt lat="43.73615" lon="1.21147">
        <ele>165.1</ele>
        <time>2015-11-11T14:45:04Z</time>
      </trkpt>
      <trkpt lat="43.73611" lon="1.21154">
        <ele>165.2</ele>
        <time>2015-11-11T14:45:05Z</time>
      </trkpt>
      <trkpt lat="43.73607" lon="1.21162">
        <ele>165.2</ele>
        <time>2015-11-11T14:45:06Z</time>
      </trkpt>
      <trkpt lat="43.73601" lon="1.2117">
        <ele>165.3</ele>
        <time>2015-11-11T14:45:07Z</time>
      </trkpt>
      <trkpt lat="43.73597" lon="1.21177">
        <ele>165.3</ele>
        <time>2015-11-11T14:45:08Z</time>
      </trkpt>
      <trkpt lat="43.73592" lon="1.21185">
        <ele>165.3</ele>
        <time>2015-11-11T14:45:09Z</time>
      </trkpt>
      <trkpt lat="43.73587" lon="1.21193">
        <ele>165.4</ele>
        <time>2015-11-11T14:45:10Z</time>
      </trkpt>
      <trkpt lat="43.73582" lon="1.21198">
        <ele>165.4</ele>
        <time>2015-11-11T14:45:11Z</time>
      </trkpt>
      <trkpt lat="43.73579" lon="1.21207">
        <ele>165.4</ele>
        <time>2015-11-11T14:45:12Z</time>
      </trkpt>
      <trkpt lat="43.73575" lon="1.21215">
        <ele>165.3</ele>
        <time>2015-11-11T14:45:13Z</time>
      </trkpt>
      <trkpt lat="43.7357" lon="1.21222">
        <ele>165.2</ele>
        <time>2015-11-11T14:45:14Z</time>
      </trkpt>
      <trkpt lat="43.73567" lon="1.21231">
        <ele>165</ele>
        <time>2015-11-11T14:45:15Z</time>
      </trkpt>
      <trkpt lat="43.73562" lon="1.21237">
        <ele>164.9</ele>
        <time>2015-11-11T14:45:16Z</time>
      </trkpt>
      <trkpt lat="43.73558" lon="1.21244">
        <ele>164.8</ele>
        <time>2015-11-11T14:45:17Z</time>
      </trkpt>
      <trkpt lat="43.73554" lon="1.21252">
        <ele>164.6</ele>
        <time>2015-11-11T14:45:18Z</time>
      </trkpt>
      <trkpt lat="43.7355" lon="1.21261">
        <ele>164.5</ele>
        <time>2015-11-11T14:45:19Z</time>
      </trkpt>
      <trkpt lat="43.73547" lon="1.21269">
        <ele>164.3</ele>
        <time>2015-11-11T14:45:20Z</time>
      </trkpt>
      <trkpt lat="43.73542" lon="1.21277">
        <ele>164.2</ele>
        <time>2015-11-11T14:45:21Z</time>
      </trkpt>
      <trkpt lat="43.73538" lon="1.21283">
        <ele>164.1</ele>
        <time>2015-11-11T14:45:22Z</time>
      </trkpt>
      <trkpt lat="43.73533" lon="1.2129">
        <ele>164</ele>
        <time>2015-11-11T14:45:23Z</time>
      </trkpt>
      <trkpt lat="43.73529" lon="1.21297">
        <ele>164</ele>
        <time>2015-11-11T14:45:24Z</time>
      </trkpt>
      <trkpt lat="43.73525" lon="1.21304">
        <ele>164</ele>
        <time>2015-11-11T14:45:25Z</time>
      </trkpt>
      <trkpt lat="43.73521" lon="1.21312">
        <ele>163.9</ele>
        <time>2015-11-11T14:45:26Z</time>
      </trkpt>
      <trkpt lat="43.73517" lon="1.21317">
        <ele>163.9</ele>
        <time>2015-11-11T14:45:27Z</time>
      </trkpt>
      <trkpt lat="43.73512" lon="1.21324">
        <ele>163.9</ele>
        <time>2015-11-11T14:45:28Z</time>
      </trkpt>
      <trkpt lat="43.73508" lon="1.21332">
        <ele>163.8</ele>
        <time>2015-11-11T14:45:29Z</time>
      </trkpt>
      <trkpt lat="43.73504" lon="1.2134">
        <ele>163.7</ele>
        <time>2015-11-11T14:45:30Z</time>
      </trkpt>
      <trkpt lat="43.735" lon="1.21347">
        <ele>163.7</ele>
        <time>2015-11-11T14:45:31Z</time>
      </trkpt>
      <trkpt lat="43.73495" lon="1.21355">
        <ele>163.6</ele>
        <time>2015-11-11T14:45:32Z</time>
      </trkpt>
      <trkpt lat="43.73491" lon="1.21363">
        <ele>163.5</ele>
        <time>2015-11-11T14:45:33Z</time>
      </trkpt>
      <trkpt lat="43.73486" lon="1.2137">
        <ele>163.4</ele>
        <time>2015-11-11T14:45:34Z</time>
      </trkpt>
      <trkpt lat="43.73481" lon="1.21378">
        <ele>163.2</ele>
        <time>2015-11-11T14:45:35Z</time>
      </trkpt>
      <trkpt lat="43.73477" lon="1.21385">
        <ele>163</ele>
        <time>2015-11-11T14:45:36Z</time>
      </trkpt>
      <trkpt lat="43.73472" lon="1.21392">
        <ele>162.8</ele>
        <time>2015-11-11T14:45:37Z</time>
      </trkpt>
      <trkpt lat="43.73467" lon="1.21401">
        <ele>162.5</ele>
        <time>2015-11-11T14:45:38Z</time>
      </trkpt>
      <trkpt lat="43.73463" lon="1.21408">
        <ele>162.3</ele>
        <time>2015-11-11T14:45:39Z</time>
      </trkpt>
      <trkpt lat="43.73458" lon="1.21415">
        <ele>162.1</ele>
        <time>2015-11-11T14:45:40Z</time>
      </trkpt>
      <trkpt lat="43.73454" lon="1.2142">
        <ele>162</ele>
        <time>2015-11-11T14:45:41Z</time>
      </trkpt>
      <trkpt lat="43.73449" lon="1.21425">
        <ele>162.1</ele>
        <time>2015-11-11T14:45:42Z</time>
      </trkpt>
      <trkpt lat="43.73444" lon="1.21427">
        <ele>162.2</ele>
        <time>2015-11-11T14:45:43Z</time>
      </trkpt>
      <trkpt lat="43.73439" lon="1.21431">
        <ele>162.3</ele>
        <time>2015-11-11T14:45:44Z</time>
      </trkpt>
      <trkpt lat="43.73436" lon="1.21437">
        <ele>162.2</ele>
        <time>2015-11-11T14:45:45Z</time>
      </trkpt>
      <trkpt lat="43.73433" lon="1.21443">
        <ele>162.2</ele>
        <time>2015-11-11T14:45:46Z</time>
      </trkpt>
      <trkpt lat="43.7343" lon="1.2145">
        <ele>162.2</ele>
        <time>2015-11-11T14:45:47Z</time>
      </trkpt>
      <trkpt lat="43.73427" lon="1.21457">
        <ele>162.1</ele>
        <time>2015-11-11T14:45:48Z</time>
      </trkpt>
      <trkpt lat="43.73424" lon="1.21463">
        <ele>162.3</ele>
        <time>2015-11-11T14:45:49Z</time>
      </trkpt>
      <trkpt lat="43.7342" lon="1.21471">
        <ele>162.5</ele>
        <time>2015-11-11T14:45:50Z</time>
      </trkpt>
      <trkpt lat="43.73418" lon="1.2148">
        <ele>162.7</ele>
        <time>2015-11-11T14:45:51Z</time>
      </trkpt>
      <trkpt lat="43.73418" lon="1.21487">
        <ele>162.8</ele>
        <time>2015-11-11T14:45:52Z</time>
      </trkpt>
      <trkpt lat="43.73416" lon="1.21495">
        <ele>163</ele>
        <time>2015-11-11T14:45:53Z</time>
      </trkpt>
      <trkpt lat="43.73415" lon="1.21502">
        <ele>163.1</ele>
        <time>2015-11-11T14:45:54Z</time>
      </trkpt>
      <trkpt lat="43.73414" lon="1.2151">
        <ele>163.2</ele>
        <time>2015-11-11T14:45:55Z</time>
      </trkpt>
      <trkpt lat="43.73415" lon="1.21518">
        <ele>163.2</ele>
        <time>2015-11-11T14:45:56Z</time>
      </trkpt>
      <trkpt lat="43.73416" lon="1.21526">
        <ele>163.3</ele>
        <time>2015-11-11T14:45:57Z</time>
      </trkpt>
      <trkpt lat="43.73417" lon="1.21535">
        <ele>163.4</ele>
        <time>2015-11-11T14:45:58Z</time>
      </trkpt>
      <trkpt lat="43.73418" lon="1.21541">
        <ele>163.5</ele>
        <time>2015-11-11T14:45:59Z</time>
      </trkpt>
      <trkpt lat="43.73419" lon="1.21548">
        <ele>163.7</ele>
        <time>2015-11-11T14:46:00Z</time>
      </trkpt>
      <trkpt lat="43.7342" lon="1.21557">
        <ele>163.9</ele>
        <time>2015-11-11T14:46:01Z</time>
      </trkpt>
      <trkpt lat="43.73422" lon="1.21564">
        <ele>164.1</ele>
        <time>2015-11-11T14:46:02Z</time>
      </trkpt>
      <trkpt lat="43.73424" lon="1.21573">
        <ele>164.3</ele>
        <time>2015-11-11T14:46:03Z</time>
      </trkpt>
      <trkpt lat="43.73424" lon="1.21581">
        <ele>164.5</ele>
        <time>2015-11-11T14:46:04Z</time>
      </trkpt>
      <trkpt lat="43.73423" lon="1.21588">
        <ele>164.8</ele>
        <time>2015-11-11T14:46:05Z</time>
      </trkpt>
      <trkpt lat="43.73424" lon="1.21597">
        <ele>165</ele>
        <time>2015-11-11T14:46:06Z</time>
      </trkpt>
      <trkpt lat="43.73422" lon="1.21602">
        <ele>165.2</ele>
        <time>2015-11-11T14:46:07Z</time>
      </trkpt>
      <trkpt lat="43.73422" lon="1.2161">
        <ele>165.4</ele>
        <time>2015-11-11T14:46:08Z</time>
      </trkpt>
      <trkpt lat="43.73424" lon="1.21618">
        <ele>165.6</ele>
        <time>2015-11-11T14:46:09Z</time>
      </trkpt>
      <trkpt lat="43.73425" lon="1.21626">
        <ele>165.8</ele>
        <time>2015-11-11T14:46:10Z</time>
      </trkpt>
      <trkpt lat="43.73427" lon="1.21635">
        <ele>165.7</ele>
        <time>2015-11-11T14:46:11Z</time>
      </trkpt>
      <trkpt lat="43.73429" lon="1.21643">
        <ele>165.6</ele>
        <time>2015-11-11T14:46:12Z</time>
      </trkpt>
      <trkpt lat="43.7343" lon="1.21651">
        <ele>165.6</ele>
        <time>2015-11-11T14:46:13Z</time>
      </trkpt>
      <trkpt lat="43.73431" lon="1.21659">
        <ele>165.5</ele>
        <time>2015-11-11T14:46:14Z</time>
      </trkpt>
      <trkpt lat="43.73433" lon="1.21669">
        <ele>165.4</ele>
        <time>2015-11-11T14:46:15Z</time>
      </trkpt>
      <trkpt lat="43.73435" lon="1.21678">
        <ele>165.4</ele>
        <time>2015-11-11T14:46:16Z</time>
      </trkpt>
      <trkpt lat="43.73436" lon="1.21687">
        <ele>165.3</ele>
        <time>2015-11-11T14:46:17Z</time>
      </trkpt>
      <trkpt lat="43.7344" lon="1.21692">
        <ele>165.3</ele>
        <time>2015-11-11T14:46:18Z</time>
      </trkpt>
      <trkpt lat="43.7344" lon="1.21701">
        <ele>165.2</ele>
        <time>2015-11-11T14:46:19Z</time>
      </trkpt>
      <trkpt lat="43.73438" lon="1.21705">
        <ele>165.3</ele>
        <time>2015-11-11T14:46:20Z</time>
      </trkpt>
      <trkpt lat="43.7344" lon="1.21714">
        <ele>165.3</ele>
        <time>2015-11-11T14:46:21Z</time>
      </trkpt>
      <trkpt lat="43.7344" lon="1.21723">
        <ele>165.3</ele>
        <time>2015-11-11T14:46:22Z</time>
      </trkpt>
      <trkpt lat="43.73441" lon="1.21731">
        <ele>165.4</ele>
        <time>2015-11-11T14:46:23Z</time>
      </trkpt>
      <trkpt lat="43.73443" lon="1.21739">
        <ele>165.4</ele>
        <time>2015-11-11T14:46:24Z</time>
      </trkpt>
      <trkpt lat="43.73446" lon="1.21748">
        <ele>165.5</ele>
        <time>2015-11-11T14:46:25Z</time>
      </trkpt>
      <trkpt lat="43.73448" lon="1.21755">
        <ele>165.5</ele>
        <time>2015-11-11T14:46:26Z</time>
      </trkpt>
      <trkpt lat="43.7345" lon="1.21762">
        <ele>165.6</ele>
        <time>2015-11-11T14:46:27Z</time>
      </trkpt>
      <trkpt lat="43.73451" lon="1.21771">
        <ele>165.7</ele>
        <time>2015-11-11T14:46:28Z</time>
      </trkpt>
      <trkpt lat="43.73454" lon="1.21778">
        <ele>165.8</ele>
        <time>2015-11-11T14:46:29Z</time>
      </trkpt>
      <trkpt lat="43.73456" lon="1.21786">
        <ele>165.9</ele>
        <time>2015-11-11T14:46:30Z</time>
      </trkpt>
      <trkpt lat="43.73458" lon="1.21794">
        <ele>166</ele>
        <time>2015-11-11T14:46:31Z</time>
      </trkpt>
      <trkpt lat="43.7346" lon="1.21802">
        <ele>166.2</ele>
        <time>2015-11-11T14:46:32Z</time>
      </trkpt>
      <trkpt lat="43.73463" lon="1.21811">
        <ele>166.4</ele>
        <time>2015-11-11T14:46:33Z</time>
      </trkpt>
      <trkpt lat="43.73465" lon="1.21819">
        <ele>166.6</ele>
        <time>2015-11-11T14:46:34Z</time>
      </trkpt>
      <trkpt lat="43.73468" lon="1.21828">
        <ele>166.9</ele>
        <time>2015-11-11T14:46:35Z</time>
      </trkpt>
      <trkpt lat="43.73471" lon="1.21834">
        <ele>167.1</ele>
        <time>2015-11-11T14:46:36Z</time>
      </trkpt>
      <trkpt lat="43.73475" lon="1.21841">
        <ele>167.3</ele>
        <time>2015-11-11T14:46:37Z</time>
      </trkpt>
      <trkpt lat="43.73478" lon="1.21848">
        <ele>167.4</ele>
        <time>2015-11-11T14:46:38Z</time>
      </trkpt>
      <trkpt lat="43.7348" lon="1.21855">
        <ele>167.6</ele>
        <time>2015-11-11T14:46:39Z</time>
      </trkpt>
      <trkpt lat="43.73482" lon="1.21862">
        <ele>167.8</ele>
        <time>2015-11-11T14:46:40Z</time>
      </trkpt>
      <trkpt lat="43.73485" lon="1.21869">
        <ele>167.9</ele>
        <time>2015-11-11T14:46:41Z</time>
      </trkpt>
      <trkpt lat="43.73489" lon="1.21879">
        <ele>168.1</ele>
        <time>2015-11-11T14:46:42Z</time>
      </trkpt>
      <trkpt lat="43.73492" lon="1.21887">
        <ele>168.2</ele>
        <time>2015-11-11T14:46:43Z</time>
      </trkpt>
      <trkpt lat="43.73498" lon="1.21893">
        <ele>168.3</ele>
        <time>2015-11-11T14:46:44Z</time>
      </trkpt>
      <trkpt lat="43.73501" lon="1.21901">
        <ele>168.4</ele>
        <time>2015-11-11T14:46:45Z</time>
      </trkpt>
      <trkpt lat="43.73504" lon="1.2191">
        <ele>168.4</ele>
        <time>2015-11-11T14:46:46Z</time>
      </trkpt>
      <trkpt lat="43.73508" lon="1.21919">
        <ele>168.5</ele>
        <time>2015-11-11T14:46:47Z</time>
      </trkpt>
      <trkpt lat="43.73512" lon="1.21928">
        <ele>168.5</ele>
        <time>2015-11-11T14:46:48Z</time>
      </trkpt>
      <trkpt lat="43.73516" lon="1.21937">
        <ele>168.6</ele>
        <time>2015-11-11T14:46:49Z</time>
      </trkpt>
      <trkpt lat="43.73518" lon="1.21949">
        <ele>168.5</ele>
        <time>2015-11-11T14:46:50Z</time>
      </trkpt>
      <trkpt lat="43.73523" lon="1.21959">
        <ele>168.5</ele>
        <time>2015-11-11T14:46:51Z</time>
      </trkpt>
      <trkpt lat="43.73525" lon="1.21967">
        <ele>168.4</ele>
        <time>2015-11-11T14:46:52Z</time>
      </trkpt>
      <trkpt lat="43.73527" lon="1.21976">
        <ele>168.3</ele>
        <time>2015-11-11T14:46:53Z</time>
      </trkpt>
      <trkpt lat="43.7353" lon="1.21987">
        <ele>168.1</ele>
        <time>2015-11-11T14:46:54Z</time>
      </trkpt>
      <trkpt lat="43.73532" lon="1.21997">
        <ele>168</ele>
        <time>2015-11-11T14:46:55Z</time>
      </trkpt>
      <trkpt lat="43.73536" lon="1.22006">
        <ele>167.8</ele>
        <time>2015-11-11T14:46:56Z</time>
      </trkpt>
      <trkpt lat="43.73539" lon="1.22015">
        <ele>167.6</ele>
        <time>2015-11-11T14:46:57Z</time>
      </trkpt>
      <trkpt lat="43.73542" lon="1.22024">
        <ele>167.4</ele>
        <time>2015-11-11T14:46:58Z</time>
      </trkpt>
      <trkpt lat="43.73546" lon="1.22033">
        <ele>167.1</ele>
        <time>2015-11-11T14:46:59Z</time>
      </trkpt>
      <trkpt lat="43.73548" lon="1.22042">
        <ele>166.9</ele>
        <time>2015-11-11T14:47:00Z</time>
      </trkpt>
      <trkpt lat="43.73551" lon="1.22051">
        <ele>166.8</ele>
        <time>2015-11-11T14:47:01Z</time>
      </trkpt>
      <trkpt lat="43.73554" lon="1.2206">
        <ele>166.6</ele>
        <time>2015-11-11T14:47:02Z</time>
      </trkpt>
      <trkpt lat="43.73557" lon="1.22069">
        <ele>166.5</ele>
        <time>2015-11-11T14:47:03Z</time>
      </trkpt>
      <trkpt lat="43.7356" lon="1.22077">
        <ele>166.3</ele>
        <time>2015-11-11T14:47:04Z</time>
      </trkpt>
      <trkpt lat="43.73563" lon="1.22086">
        <ele>166.2</ele>
        <time>2015-11-11T14:47:05Z</time>
      </trkpt>
      <trkpt lat="43.73567" lon="1.22095">
        <ele>166.1</ele>
        <time>2015-11-11T14:47:06Z</time>
      </trkpt>
      <trkpt lat="43.73569" lon="1.22102">
        <ele>165.9</ele>
        <time>2015-11-11T14:47:07Z</time>
      </trkpt>
      <trkpt lat="43.73573" lon="1.22111">
        <ele>165.8</ele>
        <time>2015-11-11T14:47:08Z</time>
      </trkpt>
      <trkpt lat="43.73575" lon="1.22119">
        <ele>165.7</ele>
        <time>2015-11-11T14:47:09Z</time>
      </trkpt>
      <trkpt lat="43.73578" lon="1.22128">
        <ele>165.5</ele>
        <time>2015-11-11T14:47:10Z</time>
      </trkpt>
      <trkpt lat="43.73581" lon="1.22137">
        <ele>165.4</ele>
        <time>2015-11-11T14:47:11Z</time>
      </trkpt>
      <trkpt lat="43.73584" lon="1.22147">
        <ele>165.2</ele>
        <time>2015-11-11T14:47:12Z</time>
      </trkpt>
      <trkpt lat="43.73587" lon="1.22155">
        <ele>165.1</ele>
        <time>2015-11-11T14:47:13Z</time>
      </trkpt>
      <trkpt lat="43.73591" lon="1.22163">
        <ele>164.9</ele>
        <time>2015-11-11T14:47:14Z</time>
      </trkpt>
      <trkpt lat="43.73594" lon="1.22171">
        <ele>164.7</ele>
        <time>2015-11-11T14:47:15Z</time>
      </trkpt>
      <trkpt lat="43.73597" lon="1.22179">
        <ele>164.5</ele>
        <time>2015-11-11T14:47:16Z</time>
      </trkpt>
      <trkpt lat="43.736" lon="1.22188">
        <ele>164.3</ele>
        <time>2015-11-11T14:47:17Z</time>
      </trkpt>
      <trkpt lat="43.73603" lon="1.22197">
        <ele>164</ele>
        <time>2015-11-11T14:47:18Z</time>
      </trkpt>
      <trkpt lat="43.73607" lon="1.22205">
        <ele>163.7</ele>
        <time>2015-11-11T14:47:19Z</time>
      </trkpt>
      <trkpt lat="43.7361" lon="1.22214">
        <ele>163.6</ele>
        <time>2015-11-11T14:47:20Z</time>
      </trkpt>
      <trkpt lat="43.73614" lon="1.22222">
        <ele>163.5</ele>
        <time>2015-11-11T14:47:21Z</time>
      </trkpt>
      <trkpt lat="43.73616" lon="1.2223">
        <ele>163.5</ele>
        <time>2015-11-11T14:47:22Z</time>
      </trkpt>
      <trkpt lat="43.7362" lon="1.22239">
        <ele>163.5</ele>
        <time>2015-11-11T14:47:23Z</time>
      </trkpt>
      <trkpt lat="43.73623" lon="1.22248">
        <ele>163.5</ele>
        <time>2015-11-11T14:47:24Z</time>
      </trkpt>
      <trkpt lat="43.73625" lon="1.22257">
        <ele>163.6</ele>
        <time>2015-11-11T14:47:25Z</time>
      </trkpt>
      <trkpt lat="43.73628" lon="1.22265">
        <ele>163.7</ele>
        <time>2015-11-11T14:47:26Z</time>
      </trkpt>
      <trkpt lat="43.7363" lon="1.22274">
        <ele>163.8</ele>
        <time>2015-11-11T14:47:27Z</time>
      </trkpt>
      <trkpt lat="43.73633" lon="1.22282">
        <ele>163.8</ele>
        <time>2015-11-11T14:47:28Z</time>
      </trkpt>
      <trkpt lat="43.73634" lon="1.22292">
        <ele>163.9</ele>
        <time>2015-11-11T14:47:29Z</time>
      </trkpt>
      <trkpt lat="43.73637" lon="1.22301">
        <ele>163.8</ele>
        <time>2015-11-11T14:47:30Z</time>
      </trkpt>
      <trkpt lat="43.73639" lon="1.22308">
        <ele>163.7</ele>
        <time>2015-11-11T14:47:31Z</time>
      </trkpt>
      <trkpt lat="43.73643" lon="1.22317">
        <ele>163.6</ele>
        <time>2015-11-11T14:47:32Z</time>
      </trkpt>
      <trkpt lat="43.73643" lon="1.22326">
        <ele>163.5</ele>
        <time>2015-11-11T14:47:33Z</time>
      </trkpt>
      <trkpt lat="43.73646" lon="1.22333">
        <ele>163.4</ele>
        <time>2015-11-11T14:47:34Z</time>
      </trkpt>
      <trkpt lat="43.73649" lon="1.22342">
        <ele>163.3</ele>
        <time>2015-11-11T14:47:35Z</time>
      </trkpt>
      <trkpt lat="43.73654" lon="1.22352">
        <ele>163.2</ele>
        <time>2015-11-11T14:47:36Z</time>
      </trkpt>
      <trkpt lat="43.73657" lon="1.2236">
        <ele>163.1</ele>
        <time>2015-11-11T14:47:37Z</time>
      </trkpt>
      <trkpt lat="43.73661" lon="1.22368">
        <ele>163</ele>
        <time>2015-11-11T14:47:38Z</time>
      </trkpt>
      <trkpt lat="43.73665" lon="1.22376">
        <ele>163</ele>
        <time>2015-11-11T14:47:39Z</time>
      </trkpt>
      <trkpt lat="43.73669" lon="1.22385">
        <ele>163.1</ele>
        <time>2015-11-11T14:47:40Z</time>
      </trkpt>
      <trkpt lat="43.73672" lon="1.22395">
        <ele>163.2</ele>
        <time>2015-11-11T14:47:41Z</time>
      </trkpt>
      <trkpt lat="43.73676" lon="1.22403">
        <ele>163.3</ele>
        <time>2015-11-11T14:47:42Z</time>
      </trkpt>
      <trkpt lat="43.73679" lon="1.22411">
        <ele>163.4</ele>
        <time>2015-11-11T14:47:43Z</time>
      </trkpt>
      <trkpt lat="43.73682" lon="1.22419">
        <ele>163.5</ele>
        <time>2015-11-11T14:47:44Z</time>
      </trkpt>
      <trkpt lat="43.73686" lon="1.22428">
        <ele>163.6</ele>
        <time>2015-11-11T14:47:45Z</time>
      </trkpt>
      <trkpt lat="43.73689" lon="1.22437">
        <ele>163.7</ele>
        <time>2015-11-11T14:47:46Z</time>
      </trkpt>
      <trkpt lat="43.73692" lon="1.22444">
        <ele>163.8</ele>
        <time>2015-11-11T14:47:47Z</time>
      </trkpt>
      <trkpt lat="43.73695" lon="1.22452">
        <ele>163.9</ele>
        <time>2015-11-11T14:47:48Z</time>
      </trkpt>
      <trkpt lat="43.73698" lon="1.22462">
        <ele>164</ele>
        <time>2015-11-11T14:47:49Z</time>
      </trkpt>
      <trkpt lat="43.73701" lon="1.22471">
        <ele>164</ele>
        <time>2015-11-11T14:47:50Z</time>
      </trkpt>
      <trkpt lat="43.73705" lon="1.2248">
        <ele>164</ele>
        <time>2015-11-11T14:47:51Z</time>
      </trkpt>
      <trkpt lat="43.73707" lon="1.22488">
        <ele>164</ele>
        <time>2015-11-11T14:47:52Z</time>
      </trkpt>
      <trkpt lat="43.73711" lon="1.22496">
        <ele>164</ele>
        <time>2015-11-11T14:47:53Z</time>
      </trkpt>
      <trkpt lat="43.73715" lon="1.22504">
        <ele>164</ele>
        <time>2015-11-11T14:47:54Z</time>
      </trkpt>
      <trkpt lat="43.73717" lon="1.22512">
        <ele>164.1</ele>
        <time>2015-11-11T14:47:55Z</time>
      </trkpt>
      <trkpt lat="43.7372" lon="1.22521">
        <ele>164.1</ele>
        <time>2015-11-11T14:47:56Z</time>
      </trkpt>
      <trkpt lat="43.73723" lon="1.22528">
        <ele>164.1</ele>
        <time>2015-11-11T14:47:57Z</time>
      </trkpt>
      <trkpt lat="43.73726" lon="1.22535">
        <ele>164.2</ele>
        <time>2015-11-11T14:47:58Z</time>
      </trkpt>
      <trkpt lat="43.73729" lon="1.22545">
        <ele>164.2</ele>
        <time>2015-11-11T14:47:59Z</time>
      </trkpt>
      <trkpt lat="43.73732" lon="1.22552">
        <ele>164.2</ele>
        <time>2015-11-11T14:48:00Z</time>
      </trkpt>
      <trkpt lat="43.73735" lon="1.22561">
        <ele>164.2</ele>
        <time>2015-11-11T14:48:01Z</time>
      </trkpt>
      <trkpt lat="43.73738" lon="1.2257">
        <ele>164.1</ele>
        <time>2015-11-11T14:48:02Z</time>
      </trkpt>
      <trkpt lat="43.73742" lon="1.22578">
        <ele>164.1</ele>
        <time>2015-11-11T14:48:03Z</time>
      </trkpt>
      <trkpt lat="43.73745" lon="1.22589">
        <ele>164.1</ele>
        <time>2015-11-11T14:48:04Z</time>
      </trkpt>
      <trkpt lat="43.73747" lon="1.22594">
        <ele>164.1</ele>
        <time>2015-11-11T14:48:05Z</time>
      </trkpt>
      <trkpt lat="43.7375" lon="1.22602">
        <ele>164.1</ele>
        <time>2015-11-11T14:48:06Z</time>
      </trkpt>
      <trkpt lat="43.73753" lon="1.22611">
        <ele>164.2</ele>
        <time>2015-11-11T14:48:07Z</time>
      </trkpt>
      <trkpt lat="43.73757" lon="1.2262">
        <ele>164.2</ele>
        <time>2015-11-11T14:48:08Z</time>
      </trkpt>
      <trkpt lat="43.73759" lon="1.22629">
        <ele>164.1</ele>
        <time>2015-11-11T14:48:09Z</time>
      </trkpt>
      <trkpt lat="43.73762" lon="1.22639">
        <ele>163.9</ele>
        <time>2015-11-11T14:48:10Z</time>
      </trkpt>
      <trkpt lat="43.73762" lon="1.22646">
        <ele>163.7</ele>
        <time>2015-11-11T14:48:11Z</time>
      </trkpt>
      <trkpt lat="43.73765" lon="1.22655">
        <ele>163.5</ele>
        <time>2015-11-11T14:48:12Z</time>
      </trkpt>
      <trkpt lat="43.73767" lon="1.22664">
        <ele>163.3</ele>
        <time>2015-11-11T14:48:13Z</time>
      </trkpt>
      <trkpt lat="43.73769" lon="1.22675">
        <ele>163</ele>
        <time>2015-11-11T14:48:14Z</time>
      </trkpt>
      <trkpt lat="43.73772" lon="1.22685">
        <ele>162.7</ele>
        <time>2015-11-11T14:48:15Z</time>
      </trkpt>
      <trkpt lat="43.73774" lon="1.22696">
        <ele>162.4</ele>
        <time>2015-11-11T14:48:16Z</time>
      </trkpt>
      <trkpt lat="43.73776" lon="1.22705">
        <ele>162.1</ele>
        <time>2015-11-11T14:48:17Z</time>
      </trkpt>
      <trkpt lat="43.73779" lon="1.22715">
        <ele>162</ele>
        <time>2015-11-11T14:48:18Z</time>
      </trkpt>
      <trkpt lat="43.73781" lon="1.22725">
        <ele>162</ele>
        <time>2015-11-11T14:48:19Z</time>
      </trkpt>
      <trkpt lat="43.73784" lon="1.22736">
        <ele>162</ele>
        <time>2015-11-11T14:48:20Z</time>
      </trkpt>
      <trkpt lat="43.73788" lon="1.22742">
        <ele>162</ele>
        <time>2015-11-11T14:48:21Z</time>
      </trkpt>
      <trkpt lat="43.7379" lon="1.22751">
        <ele>162</ele>
        <time>2015-11-11T14:48:22Z</time>
      </trkpt>
      <trkpt lat="43.73792" lon="1.22759">
        <ele>162</ele>
        <time>2015-11-11T14:48:23Z</time>
      </trkpt>
      <trkpt lat="43.73793" lon="1.22766">
        <ele>162</ele>
        <time>2015-11-11T14:48:24Z</time>
      </trkpt>
      <trkpt lat="43.73795" lon="1.22774">
        <ele>162</ele>
        <time>2015-11-11T14:48:25Z</time>
      </trkpt>
      <trkpt lat="43.73796" lon="1.22782">
        <ele>162</ele>
        <time>2015-11-11T14:48:26Z</time>
      </trkpt>
      <trkpt lat="43.73795" lon="1.2279">
        <ele>162</ele>
        <time>2015-11-11T14:48:27Z</time>
      </trkpt>
      <trkpt lat="43.7379" lon="1.22794">
        <ele>162</ele>
        <time>2015-11-11T14:48:28Z</time>
      </trkpt>
      <trkpt lat="43.73785" lon="1.22798">
        <ele>162.1</ele>
        <time>2015-11-11T14:48:29Z</time>
      </trkpt>
      <trkpt lat="43.7378" lon="1.22799">
        <ele>162.1</ele>
        <time>2015-11-11T14:48:30Z</time>
      </trkpt>
      <trkpt lat="43.73775" lon="1.22799">
        <ele>162.1</ele>
        <time>2015-11-11T14:48:31Z</time>
      </trkpt>
      <trkpt lat="43.73769" lon="1.22801">
        <ele>162.1</ele>
        <time>2015-11-11T14:48:32Z</time>
      </trkpt>
      <trkpt lat="43.73763" lon="1.22805">
        <ele>162.1</ele>
        <time>2015-11-11T14:48:33Z</time>
      </trkpt>
      <trkpt lat="43.73757" lon="1.22807">
        <ele>162.1</ele>
        <time>2015-11-11T14:48:34Z</time>
      </trkpt>
      <trkpt lat="43.73752" lon="1.22811">
        <ele>162.1</ele>
        <time>2015-11-11T14:48:35Z</time>
      </trkpt>
      <trkpt lat="43.73746" lon="1.22813">
        <ele>162.1</ele>
        <time>2015-11-11T14:48:36Z</time>
      </trkpt>
      <trkpt lat="43.7374" lon="1.22816">
        <ele>162.1</ele>
        <time>2015-11-11T14:48:37Z</time>
      </trkpt>
      <trkpt lat="43.73733" lon="1.22819">
        <ele>162.1</ele>
        <time>2015-11-11T14:48:38Z</time>
      </trkpt>
      <trkpt lat="43.73727" lon="1.22822">
        <ele>162.1</ele>
        <time>2015-11-11T14:48:39Z</time>
      </trkpt>
      <trkpt lat="43.73721" lon="1.22826">
        <ele>162.1</ele>
        <time>2015-11-11T14:48:40Z</time>
      </trkpt>
      <trkpt lat="43.73717" lon="1.2283">
        <ele>162</ele>
        <time>2015-11-11T14:48:41Z</time>
      </trkpt>
      <trkpt lat="43.7371" lon="1.22833">
        <ele>162</ele>
        <time>2015-11-11T14:48:42Z</time>
      </trkpt>
      <trkpt lat="43.73706" lon="1.22837">
        <ele>162</ele>
        <time>2015-11-11T14:48:43Z</time>
      </trkpt>
      <trkpt lat="43.737" lon="1.22841">
        <ele>161.9</ele>
        <time>2015-11-11T14:48:44Z</time>
      </trkpt>
      <trkpt lat="43.73694" lon="1.22845">
        <ele>161.9</ele>
        <time>2015-11-11T14:48:45Z</time>
      </trkpt>
      <trkpt lat="43.73689" lon="1.22851">
        <ele>161.8</ele>
        <time>2015-11-11T14:48:46Z</time>
      </trkpt>
      <trkpt lat="43.73683" lon="1.22855">
        <ele>161.8</ele>
        <time>2015-11-11T14:48:47Z</time>
      </trkpt>
      <trkpt lat="43.73676" lon="1.22859">
        <ele>161.7</ele>
        <time>2015-11-11T14:48:48Z</time>
      </trkpt>
      <trkpt lat="43.7367" lon="1.22864">
        <ele>161.6</ele>
        <time>2015-11-11T14:48:49Z</time>
      </trkpt>
      <trkpt lat="43.73664" lon="1.22868">
        <ele>161.5</ele>
        <time>2015-11-11T14:48:50Z</time>
      </trkpt>
      <trkpt lat="43.7366" lon="1.22872">
        <ele>161.4</ele>
        <time>2015-11-11T14:48:51Z</time>
      </trkpt>
      <trkpt lat="43.73655" lon="1.22877">
        <ele>161.4</ele>
        <time>2015-11-11T14:48:52Z</time>
      </trkpt>
      <trkpt lat="43.73649" lon="1.22882">
        <ele>161.3</ele>
        <time>2015-11-11T14:48:53Z</time>
      </trkpt>
      <trkpt lat="43.73645" lon="1.22887">
        <ele>161.2</ele>
        <time>2015-11-11T14:48:54Z</time>
      </trkpt>
      <trkpt lat="43.73639" lon="1.22892">
        <ele>161.2</ele>
        <time>2015-11-11T14:48:55Z</time>
      </trkpt>
      <trkpt lat="43.73633" lon="1.22897">
        <ele>161.1</ele>
        <time>2015-11-11T14:48:56Z</time>
      </trkpt>
      <trkpt lat="43.73628" lon="1.22902">
        <ele>161</ele>
        <time>2015-11-11T14:48:57Z</time>
      </trkpt>
      <trkpt lat="43.73622" lon="1.22907">
        <ele>161</ele>
        <time>2015-11-11T14:48:58Z</time>
      </trkpt>
      <trkpt lat="43.73617" lon="1.22911">
        <ele>161.1</ele>
        <time>2015-11-11T14:48:59Z</time>
      </trkpt>
      <trkpt lat="43.73611" lon="1.22914">
        <ele>161.1</ele>
        <time>2015-11-11T14:49:00Z</time>
      </trkpt>
      <trkpt lat="43.73605" lon="1.22921">
        <ele>161.1</ele>
        <time>2015-11-11T14:49:01Z</time>
      </trkpt>
      <trkpt lat="43.736" lon="1.22927">
        <ele>161.1</ele>
        <time>2015-11-11T14:49:02Z</time>
      </trkpt>
      <trkpt lat="43.73596" lon="1.22932">
        <ele>161.1</ele>
        <time>2015-11-11T14:49:03Z</time>
      </trkpt>
      <trkpt lat="43.73591" lon="1.22939">
        <ele>161.1</ele>
        <time>2015-11-11T14:49:04Z</time>
      </trkpt>
      <trkpt lat="43.73587" lon="1.22945">
        <ele>161.1</ele>
        <time>2015-11-11T14:49:05Z</time>
      </trkpt>
      <trkpt lat="43.73582" lon="1.22951">
        <ele>161</ele>
        <time>2015-11-11T14:49:06Z</time>
      </trkpt>
      <trkpt lat="43.73576" lon="1.22958">
        <ele>161</ele>
        <time>2015-11-11T14:49:07Z</time>
      </trkpt>
      <trkpt lat="43.73571" lon="1.22964">
        <ele>161</ele>
        <time>2015-11-11T14:49:08Z</time>
      </trkpt>
      <trkpt lat="43.73566" lon="1.22969">
        <ele>160.9</ele>
        <time>2015-11-11T14:49:09Z</time>
      </trkpt>
      <trkpt lat="43.7356" lon="1.22975">
        <ele>160.9</ele>
        <time>2015-11-11T14:49:10Z</time>
      </trkpt>
      <trkpt lat="43.73553" lon="1.22982">
        <ele>160.8</ele>
        <time>2015-11-11T14:49:11Z</time>
      </trkpt>
      <trkpt lat="43.73547" lon="1.22987">
        <ele>160.7</ele>
        <time>2015-11-11T14:49:12Z</time>
      </trkpt>
      <trkpt lat="43.7354" lon="1.22994">
        <ele>160.6</ele>
        <time>2015-11-11T14:49:13Z</time>
      </trkpt>
      <trkpt lat="43.73533" lon="1.23001">
        <ele>160.5</ele>
        <time>2015-11-11T14:49:14Z</time>
      </trkpt>
      <trkpt lat="43.73527" lon="1.23008">
        <ele>160.5</ele>
        <time>2015-11-11T14:49:15Z</time>
      </trkpt>
      <trkpt lat="43.73519" lon="1.23015">
        <ele>160.5</ele>
        <time>2015-11-11T14:49:16Z</time>
      </trkpt>
      <trkpt lat="43.73512" lon="1.23022">
        <ele>160.5</ele>
        <time>2015-11-11T14:49:17Z</time>
      </trkpt>
      <trkpt lat="43.73504" lon="1.23029">
        <ele>160.5</ele>
        <time>2015-11-11T14:49:18Z</time>
      </trkpt>
      <trkpt lat="43.73497" lon="1.23036">
        <ele>160.6</ele>
        <time>2015-11-11T14:49:19Z</time>
      </trkpt>
      <trkpt lat="43.73491" lon="1.23043">
        <ele>160.6</ele>
        <time>2015-11-11T14:49:20Z</time>
      </trkpt>
      <trkpt lat="43.73484" lon="1.23049">
        <ele>160.7</ele>
        <time>2015-11-11T14:49:21Z</time>
      </trkpt>
      <trkpt lat="43.73478" lon="1.23056">
        <ele>160.9</ele>
        <time>2015-11-11T14:49:22Z</time>
      </trkpt>
      <trkpt lat="43.73472" lon="1.23062">
        <ele>161</ele>
        <time>2015-11-11T14:49:23Z</time>
      </trkpt>
      <trkpt lat="43.7347" lon="1.23069">
        <ele>161.1</ele>
        <time>2015-11-11T14:49:24Z</time>
      </trkpt>
      <trkpt lat="43.73464" lon="1.23075">
        <ele>161.3</ele>
        <time>2015-11-11T14:49:25Z</time>
      </trkpt>
      <trkpt lat="43.73459" lon="1.23082">
        <ele>161.5</ele>
        <time>2015-11-11T14:49:26Z</time>
      </trkpt>
      <trkpt lat="43.73454" lon="1.23088">
        <ele>161.5</ele>
        <time>2015-11-11T14:49:27Z</time>
      </trkpt>
      <trkpt lat="43.73448" lon="1.23093">
        <ele>161.5</ele>
        <time>2015-11-11T14:49:28Z</time>
      </trkpt>
      <trkpt lat="43.73443" lon="1.23096">
        <ele>161.5</ele>
        <time>2015-11-11T14:49:29Z</time>
      </trkpt>
      <trkpt lat="43.7344" lon="1.23101">
        <ele>161.5</ele>
        <time>2015-11-11T14:49:30Z</time>
      </trkpt>
      <trkpt lat="43.73434" lon="1.23105">
        <ele>161.5</ele>
        <time>2015-11-11T14:49:31Z</time>
      </trkpt>
      <trkpt lat="43.73428" lon="1.23108">
        <ele>161.4</ele>
        <time>2015-11-11T14:49:32Z</time>
      </trkpt>
      <trkpt lat="43.73423" lon="1.23107">
        <ele>161.4</ele>
        <time>2015-11-11T14:49:33Z</time>
      </trkpt>
      <trkpt lat="43.73419" lon="1.23108">
        <ele>161.3</ele>
        <time>2015-11-11T14:49:34Z</time>
      </trkpt>
      <trkpt lat="43.73412" lon="1.23112">
        <ele>161.3</ele>
        <time>2015-11-11T14:49:35Z</time>
      </trkpt>
      <trkpt lat="43.73405" lon="1.23114">
        <ele>161.2</ele>
        <time>2015-11-11T14:49:36Z</time>
      </trkpt>
      <trkpt lat="43.73397" lon="1.23116">
        <ele>161.2</ele>
        <time>2015-11-11T14:49:37Z</time>
      </trkpt>
      <trkpt lat="43.7339" lon="1.23119">
        <ele>161.1</ele>
        <time>2015-11-11T14:49:38Z</time>
      </trkpt>
      <trkpt lat="43.73381" lon="1.23121">
        <ele>161</ele>
        <time>2015-11-11T14:49:39Z</time>
      </trkpt>
      <trkpt lat="43.73374" lon="1.23123">
        <ele>161</ele>
        <time>2015-11-11T14:49:40Z</time>
      </trkpt>
      <trkpt lat="43.73367" lon="1.23125">
        <ele>161.1</ele>
        <time>2015-11-11T14:49:41Z</time>
      </trkpt>
      <trkpt lat="43.73358" lon="1.23127">
        <ele>161.2</ele>
        <time>2015-11-11T14:49:42Z</time>
      </trkpt>
      <trkpt lat="43.73351" lon="1.23128">
        <ele>161.2</ele>
        <time>2015-11-11T14:49:43Z</time>
      </trkpt>
      <trkpt lat="43.73345" lon="1.2313">
        <ele>161.3</ele>
        <time>2015-11-11T14:49:44Z</time>
      </trkpt>
      <trkpt lat="43.73337" lon="1.23132">
        <ele>161.3</ele>
        <time>2015-11-11T14:49:45Z</time>
      </trkpt>
      <trkpt lat="43.7333" lon="1.23135">
        <ele>161.3</ele>
        <time>2015-11-11T14:49:46Z</time>
      </trkpt>
      <trkpt lat="43.73323" lon="1.23137">
        <ele>161.3</ele>
        <time>2015-11-11T14:49:47Z</time>
      </trkpt>
      <trkpt lat="43.73317" lon="1.23141">
        <ele>161.2</ele>
        <time>2015-11-11T14:49:48Z</time>
      </trkpt>
      <trkpt lat="43.7331" lon="1.23144">
        <ele>161.2</ele>
        <time>2015-11-11T14:49:49Z</time>
      </trkpt>
      <trkpt lat="43.73303" lon="1.23145">
        <ele>161.2</ele>
        <time>2015-11-11T14:49:50Z</time>
      </trkpt>
      <trkpt lat="43.73298" lon="1.23144">
        <ele>161.3</ele>
        <time>2015-11-11T14:49:51Z</time>
      </trkpt>
      <trkpt lat="43.73292" lon="1.23146">
        <ele>161.3</ele>
        <time>2015-11-11T14:49:52Z</time>
      </trkpt>
      <trkpt lat="43.73286" lon="1.23147">
        <ele>161.1</ele>
        <time>2015-11-11T14:49:53Z</time>
      </trkpt>
      <trkpt lat="43.73278" lon="1.23149">
        <ele>160.8</ele>
        <time>2015-11-11T14:49:54Z</time>
      </trkpt>
      <trkpt lat="43.73271" lon="1.23152">
        <ele>160.6</ele>
        <time>2015-11-11T14:49:55Z</time>
      </trkpt>
      <trkpt lat="43.73264" lon="1.23151">
        <ele>160.4</ele>
        <time>2015-11-11T14:49:56Z</time>
      </trkpt>
      <trkpt lat="43.73258" lon="1.23156">
        <ele>160.1</ele>
        <time>2015-11-11T14:49:57Z</time>
      </trkpt>
      <trkpt lat="43.7325" lon="1.23156">
        <ele>159.9</ele>
        <time>2015-11-11T14:49:58Z</time>
      </trkpt>
      <trkpt lat="43.73243" lon="1.23159">
        <ele>159.6</ele>
        <time>2015-11-11T14:49:59Z</time>
      </trkpt>
      <trkpt lat="43.73235" lon="1.23163">
        <ele>159.3</ele>
        <time>2015-11-11T14:50:00Z</time>
      </trkpt>
      <trkpt lat="43.73228" lon="1.23165">
        <ele>159</ele>
        <time>2015-11-11T14:50:01Z</time>
      </trkpt>
      <trkpt lat="43.73219" lon="1.23168">
        <ele>158.7</ele>
        <time>2015-11-11T14:50:02Z</time>
      </trkpt>
      <trkpt lat="43.73211" lon="1.2317">
        <ele>158.4</ele>
        <time>2015-11-11T14:50:03Z</time>
      </trkpt>
      <trkpt lat="43.73203" lon="1.23172">
        <ele>158.3</ele>
        <time>2015-11-11T14:50:04Z</time>
      </trkpt>
      <trkpt lat="43.73195" lon="1.23175">
        <ele>158.2</ele>
        <time>2015-11-11T14:50:05Z</time>
      </trkpt>
      <trkpt lat="43.73187" lon="1.23178">
        <ele>158.1</ele>
        <time>2015-11-11T14:50:06Z</time>
      </trkpt>
      <trkpt lat="43.73177" lon="1.2318">
        <ele>158</ele>
        <time>2015-11-11T14:50:07Z</time>
      </trkpt>
      <trkpt lat="43.7317" lon="1.23181">
        <ele>158</ele>
        <time>2015-11-11T14:50:08Z</time>
      </trkpt>
      <trkpt lat="43.73161" lon="1.23184">
        <ele>157.9</ele>
        <time>2015-11-11T14:50:09Z</time>
      </trkpt>
      <trkpt lat="43.73151" lon="1.23187">
        <ele>157.8</ele>
        <time>2015-11-11T14:50:10Z</time>
      </trkpt>
      <trkpt lat="43.73143" lon="1.23193">
        <ele>157.6</ele>
        <time>2015-11-11T14:50:11Z</time>
      </trkpt>
      <trkpt lat="43.73133" lon="1.23199">
        <ele>157.4</ele>
        <time>2015-11-11T14:50:12Z</time>
      </trkpt>
      <trkpt lat="43.73124" lon="1.23205">
        <ele>157.1</ele>
        <time>2015-11-11T14:50:13Z</time>
      </trkpt>
      <trkpt lat="43.73114" lon="1.23215">
        <ele>155.5</ele>
        <time>2015-11-11T14:50:14Z</time>
      </trkpt>
      <trkpt lat="43.73105" lon="1.23223">
        <ele>154.1</ele>
        <time>2015-11-11T14:50:15Z</time>
      </trkpt>
      <trkpt lat="43.73097" lon="1.23229">
        <ele>152.9</ele>
        <time>2015-11-11T14:50:16Z</time>
      </trkpt>
      <trkpt lat="43.73088" lon="1.23239">
        <ele>151.3</ele>
        <time>2015-11-11T14:50:17Z</time>
      </trkpt>
      <trkpt lat="43.73081" lon="1.23249">
        <ele>149.9</ele>
        <time>2015-11-11T14:50:18Z</time>
      </trkpt>
      <trkpt lat="43.7307" lon="1.23264">
        <ele>147.5</ele>
        <time>2015-11-11T14:50:19Z</time>
      </trkpt>
      <trkpt lat="43.7306" lon="1.23273">
        <ele>145.7</ele>
        <time>2015-11-11T14:50:20Z</time>
      </trkpt>
      <trkpt lat="43.73048" lon="1.23277">
        <ele>144</ele>
        <time>2015-11-11T14:50:21Z</time>
      </trkpt>
      <trkpt lat="43.73032" lon="1.23281">
        <ele>141.3</ele>
        <time>2015-11-11T14:50:22Z</time>
      </trkpt>
      <trkpt lat="43.73022" lon="1.23285">
        <ele>139.2</ele>
        <time>2015-11-11T14:50:23Z</time>
      </trkpt>
      <trkpt lat="43.73009" lon="1.23287">
        <ele>136.9</ele>
        <time>2015-11-11T14:50:24Z</time>
      </trkpt>
      <trkpt lat="43.72993" lon="1.23288">
        <ele>134</ele>
        <time>2015-11-11T14:50:25Z</time>
      </trkpt>
      <trkpt lat="43.72984" lon="1.23294">
        <ele>132.3</ele>
        <time>2015-11-11T14:50:26Z</time>
      </trkpt>
      <trkpt lat="43.72972" lon="1.233">
        <ele>130.1</ele>
        <time>2015-11-11T14:50:27Z</time>
      </trkpt>
      <trkpt lat="43.72961" lon="1.23301">
        <ele>128.1</ele>
        <time>2015-11-11T14:50:28Z</time>
      </trkpt>
      <trkpt lat="43.72952" lon="1.23303">
        <ele>127.2</ele>
        <time>2015-11-11T14:50:29Z</time>
      </trkpt>
      <trkpt lat="43.72942" lon="1.23309">
        <ele>126.3</ele>
        <time>2015-11-11T14:50:30Z</time>
      </trkpt>
      <trkpt lat="43.72935" lon="1.23315">
        <ele>125.7</ele>
        <time>2015-11-11T14:50:31Z</time>
      </trkpt>
      <trkpt lat="43.72927" lon="1.23321">
        <ele>125.1</ele>
        <time>2015-11-11T14:50:32Z</time>
      </trkpt>
      <trkpt lat="43.72921" lon="1.23329">
        <ele>124.6</ele>
        <time>2015-11-11T14:50:33Z</time>
      </trkpt>
      <trkpt lat="43.72917" lon="1.23342">
        <ele>124.1</ele>
        <time>2015-11-11T14:50:34Z</time>
      </trkpt>
      <trkpt lat="43.72914" lon="1.23355">
        <ele>123.7</ele>
        <time>2015-11-11T14:50:35Z</time>
      </trkpt>
      <trkpt lat="43.72911" lon="1.23369">
        <ele>123.4</ele>
        <time>2015-11-11T14:50:36Z</time>
      </trkpt>
      <trkpt lat="43.72909" lon="1.23383">
        <ele>123.3</ele>
        <time>2015-11-11T14:50:37Z</time>
      </trkpt>
      <trkpt lat="43.72907" lon="1.23396">
        <ele>123.4</ele>
        <time>2015-11-11T14:50:38Z</time>
      </trkpt>
      <trkpt lat="43.72904" lon="1.2341">
        <ele>123.5</ele>
        <time>2015-11-11T14:50:39Z</time>
      </trkpt>
      <trkpt lat="43.72902" lon="1.23422">
        <ele>123.5</ele>
        <time>2015-11-11T14:50:40Z</time>
      </trkpt>
      <trkpt lat="43.729" lon="1.23433">
        <ele>123.5</ele>
        <time>2015-11-11T14:50:41Z</time>
      </trkpt>
      <trkpt lat="43.72898" lon="1.23445">
        <ele>123.5</ele>
        <time>2015-11-11T14:50:42Z</time>
      </trkpt>
      <trkpt lat="43.72896" lon="1.23458">
        <ele>123.5</ele>
        <time>2015-11-11T14:50:43Z</time>
      </trkpt>
      <trkpt lat="43.72895" lon="1.23468">
        <ele>123.3</ele>
        <time>2015-11-11T14:50:44Z</time>
      </trkpt>
      <trkpt lat="43.72894" lon="1.23479">
        <ele>123.1</ele>
        <time>2015-11-11T14:50:45Z</time>
      </trkpt>
      <trkpt lat="43.72892" lon="1.23491">
        <ele>122.8</ele>
        <time>2015-11-11T14:50:46Z</time>
      </trkpt>
      <trkpt lat="43.7289" lon="1.23502">
        <ele>122.4</ele>
        <time>2015-11-11T14:50:47Z</time>
      </trkpt>
      <trkpt lat="43.72889" lon="1.23513">
        <ele>122.1</ele>
        <time>2015-11-11T14:50:48Z</time>
      </trkpt>
      <trkpt lat="43.72887" lon="1.23524">
        <ele>121.7</ele>
        <time>2015-11-11T14:50:49Z</time>
      </trkpt>
      <trkpt lat="43.72884" lon="1.23535">
        <ele>121.2</ele>
        <time>2015-11-11T14:50:50Z</time>
      </trkpt>
      <trkpt lat="43.72882" lon="1.23547">
        <ele>120.8</ele>
        <time>2015-11-11T14:50:51Z</time>
      </trkpt>
      <trkpt lat="43.7288" lon="1.23558">
        <ele>120.6</ele>
        <time>2015-11-11T14:50:52Z</time>
      </trkpt>
      <trkpt lat="43.7288" lon="1.2357">
        <ele>120.5</ele>
        <time>2015-11-11T14:50:53Z</time>
      </trkpt>
      <trkpt lat="43.7288" lon="1.23581">
        <ele>120.5</ele>
        <time>2015-11-11T14:50:54Z</time>
      </trkpt>
      <trkpt lat="43.72879" lon="1.23592">
        <ele>120.4</ele>
        <time>2015-11-11T14:50:55Z</time>
      </trkpt>
      <trkpt lat="43.7288" lon="1.23601">
        <ele>120.5</ele>
        <time>2015-11-11T14:50:56Z</time>
      </trkpt>
      <trkpt lat="43.72881" lon="1.23609">
        <ele>120.6</ele>
        <time>2015-11-11T14:50:57Z</time>
      </trkpt>
      <trkpt lat="43.72882" lon="1.2362">
        <ele>120.6</ele>
        <time>2015-11-11T14:50:58Z</time>
      </trkpt>
      <trkpt lat="43.72882" lon="1.23629">
        <ele>120.6</ele>
        <time>2015-11-11T14:50:59Z</time>
      </trkpt>
      <trkpt lat="43.72883" lon="1.23638">
        <ele>120.9</ele>
        <time>2015-11-11T14:51:00Z</time>
      </trkpt>
      <trkpt lat="43.72884" lon="1.23648">
        <ele>121.1</ele>
        <time>2015-11-11T14:51:01Z</time>
      </trkpt>
      <trkpt lat="43.72883" lon="1.23657">
        <ele>121.2</ele>
        <time>2015-11-11T14:51:02Z</time>
      </trkpt>
      <trkpt lat="43.72884" lon="1.23666">
        <ele>121.4</ele>
        <time>2015-11-11T14:51:03Z</time>
      </trkpt>
      <trkpt lat="43.72884" lon="1.23675">
        <ele>121.6</ele>
        <time>2015-11-11T14:51:04Z</time>
      </trkpt>
      <trkpt lat="43.72885" lon="1.23686">
        <ele>121.8</ele>
        <time>2015-11-11T14:51:05Z</time>
      </trkpt>
      <trkpt lat="43.72886" lon="1.23696">
        <ele>122</ele>
        <time>2015-11-11T14:51:06Z</time>
      </trkpt>
      <trkpt lat="43.72887" lon="1.23707">
        <ele>122.1</ele>
        <time>2015-11-11T14:51:07Z</time>
      </trkpt>
      <trkpt lat="43.72888" lon="1.23718">
        <ele>122.1</ele>
        <time>2015-11-11T14:51:08Z</time>
      </trkpt>
      <trkpt lat="43.7289" lon="1.23728">
        <ele>122</ele>
        <time>2015-11-11T14:51:09Z</time>
      </trkpt>
      <trkpt lat="43.72891" lon="1.23738">
        <ele>121.9</ele>
        <time>2015-11-11T14:51:10Z</time>
      </trkpt>
      <trkpt lat="43.72891" lon="1.23748">
        <ele>121.8</ele>
        <time>2015-11-11T14:51:11Z</time>
      </trkpt>
      <trkpt lat="43.72893" lon="1.23757">
        <ele>121.7</ele>
        <time>2015-11-11T14:51:12Z</time>
      </trkpt>
      <trkpt lat="43.72894" lon="1.23764">
        <ele>121.6</ele>
        <time>2015-11-11T14:51:13Z</time>
      </trkpt>
      <trkpt lat="43.72895" lon="1.23772">
        <ele>121.5</ele>
        <time>2015-11-11T14:51:14Z</time>
      </trkpt>
      <trkpt lat="43.72895" lon="1.23777">
        <ele>121.5</ele>
        <time>2015-11-11T14:51:15Z</time>
      </trkpt>
      <trkpt lat="43.72893" lon="1.23782">
        <ele>121.4</ele>
        <time>2015-11-11T14:51:16Z</time>
      </trkpt>
      <trkpt lat="43.72893" lon="1.23787">
        <ele>121.4</ele>
        <time>2015-11-11T14:51:17Z</time>
      </trkpt>
      <trkpt lat="43.72892" lon="1.23792">
        <ele>121.4</ele>
        <time>2015-11-11T14:51:18Z</time>
      </trkpt>
      <trkpt lat="43.72892" lon="1.23796">
        <ele>121.2</ele>
        <time>2015-11-11T14:51:19Z</time>
      </trkpt>
      <trkpt lat="43.72891" lon="1.23802">
        <ele>121</ele>
        <time>2015-11-11T14:51:20Z</time>
      </trkpt>
      <trkpt lat="43.72889" lon="1.23809">
        <ele>120.8</ele>
        <time>2015-11-11T14:51:21Z</time>
      </trkpt>
      <trkpt lat="43.72887" lon="1.23815">
        <ele>120.5</ele>
        <time>2015-11-11T14:51:22Z</time>
      </trkpt>
      <trkpt lat="43.72885" lon="1.23822">
        <ele>120.2</ele>
        <time>2015-11-11T14:51:23Z</time>
      </trkpt>
      <trkpt lat="43.72884" lon="1.23827">
        <ele>120</ele>
        <time>2015-11-11T14:51:24Z</time>
      </trkpt>
      <trkpt lat="43.72882" lon="1.23836">
        <ele>119.7</ele>
        <time>2015-11-11T14:51:25Z</time>
      </trkpt>
      <trkpt lat="43.7288" lon="1.23841">
        <ele>119.5</ele>
        <time>2015-11-11T14:51:26Z</time>
      </trkpt>
      <trkpt lat="43.72878" lon="1.23849">
        <ele>119.2</ele>
        <time>2015-11-11T14:51:27Z</time>
      </trkpt>
      <trkpt lat="43.72876" lon="1.23857">
        <ele>118.9</ele>
        <time>2015-11-11T14:51:28Z</time>
      </trkpt>
      <trkpt lat="43.72874" lon="1.23866">
        <ele>118.4</ele>
        <time>2015-11-11T14:51:29Z</time>
      </trkpt>
      <trkpt lat="43.72873" lon="1.23873">
        <ele>118.1</ele>
        <time>2015-11-11T14:51:30Z</time>
      </trkpt>
      <trkpt lat="43.72872" lon="1.23883">
        <ele>117.8</ele>
        <time>2015-11-11T14:51:31Z</time>
      </trkpt>
      <trkpt lat="43.72872" lon="1.23892">
        <ele>117.4</ele>
        <time>2015-11-11T14:51:32Z</time>
      </trkpt>
      <trkpt lat="43.72873" lon="1.239">
        <ele>117.2</ele>
        <time>2015-11-11T14:51:33Z</time>
      </trkpt>
      <trkpt lat="43.72873" lon="1.23909">
        <ele>116.8</ele>
        <time>2015-11-11T14:51:34Z</time>
      </trkpt>
      <trkpt lat="43.72875" lon="1.23913">
        <ele>116.6</ele>
        <time>2015-11-11T14:51:35Z</time>
      </trkpt>
      <trkpt lat="43.72876" lon="1.23921">
        <ele>116.3</ele>
        <time>2015-11-11T14:51:36Z</time>
      </trkpt>
      <trkpt lat="43.72876" lon="1.23931">
        <ele>116</ele>
        <time>2015-11-11T14:51:37Z</time>
      </trkpt>
      <trkpt lat="43.72876" lon="1.2394">
        <ele>115.6</ele>
        <time>2015-11-11T14:51:38Z</time>
      </trkpt>
      <trkpt lat="43.72876" lon="1.2395">
        <ele>115.3</ele>
        <time>2015-11-11T14:51:39Z</time>
      </trkpt>
      <trkpt lat="43.72876" lon="1.23956">
        <ele>115.1</ele>
        <time>2015-11-11T14:51:40Z</time>
      </trkpt>
      <trkpt lat="43.72876" lon="1.23965">
        <ele>115</ele>
        <time>2015-11-11T14:51:41Z</time>
      </trkpt>
      <trkpt lat="43.72876" lon="1.23974">
        <ele>115</ele>
        <time>2015-11-11T14:51:42Z</time>
      </trkpt>
      <trkpt lat="43.72876" lon="1.23984">
        <ele>115</ele>
        <time>2015-11-11T14:51:43Z</time>
      </trkpt>
      <trkpt lat="43.72877" lon="1.23994">
        <ele>115</ele>
        <time>2015-11-11T14:51:44Z</time>
      </trkpt>
      <trkpt lat="43.72878" lon="1.24004">
        <ele>115</ele>
        <time>2015-11-11T14:51:45Z</time>
      </trkpt>
      <trkpt lat="43.72878" lon="1.24014">
        <ele>115</ele>
        <time>2015-11-11T14:51:46Z</time>
      </trkpt>
      <trkpt lat="43.72879" lon="1.24024">
        <ele>115</ele>
        <time>2015-11-11T14:51:47Z</time>
      </trkpt>
      <trkpt lat="43.7288" lon="1.24032">
        <ele>115</ele>
        <time>2015-11-11T14:51:48Z</time>
      </trkpt>
      <trkpt lat="43.7288" lon="1.24042">
        <ele>115</ele>
        <time>2015-11-11T14:51:49Z</time>
      </trkpt>
      <trkpt lat="43.7288" lon="1.24051">
        <ele>115.1</ele>
        <time>2015-11-11T14:51:50Z</time>
      </trkpt>
      <trkpt lat="43.7288" lon="1.24062">
        <ele>115.3</ele>
        <time>2015-11-11T14:51:51Z</time>
      </trkpt>
      <trkpt lat="43.72881" lon="1.2407">
        <ele>115.4</ele>
        <time>2015-11-11T14:51:52Z</time>
      </trkpt>
      <trkpt lat="43.72881" lon="1.24079">
        <ele>115.5</ele>
        <time>2015-11-11T14:51:53Z</time>
      </trkpt>
      <trkpt lat="43.7288" lon="1.24089">
        <ele>115.6</ele>
        <time>2015-11-11T14:51:54Z</time>
      </trkpt>
      <trkpt lat="43.7288" lon="1.24099">
        <ele>115.7</ele>
        <time>2015-11-11T14:51:55Z</time>
      </trkpt>
      <trkpt lat="43.7288" lon="1.24109">
        <ele>115.9</ele>
        <time>2015-11-11T14:51:56Z</time>
      </trkpt>
      <trkpt lat="43.72879" lon="1.24118">
        <ele>116</ele>
        <time>2015-11-11T14:51:57Z</time>
      </trkpt>
      <trkpt lat="43.72879" lon="1.24127">
        <ele>116</ele>
        <time>2015-11-11T14:51:58Z</time>
      </trkpt>
      <trkpt lat="43.72879" lon="1.24138">
        <ele>116</ele>
        <time>2015-11-11T14:51:59Z</time>
      </trkpt>
      <trkpt lat="43.72878" lon="1.24148">
        <ele>116</ele>
        <time>2015-11-11T14:52:00Z</time>
      </trkpt>
      <trkpt lat="43.72878" lon="1.24158">
        <ele>116</ele>
        <time>2015-11-11T14:52:01Z</time>
      </trkpt>
      <trkpt lat="43.72877" lon="1.24166">
        <ele>116</ele>
        <time>2015-11-11T14:52:02Z</time>
      </trkpt>
      <trkpt lat="43.72877" lon="1.24176">
        <ele>116</ele>
        <time>2015-11-11T14:52:03Z</time>
      </trkpt>
      <trkpt lat="43.72876" lon="1.24186">
        <ele>116</ele>
        <time>2015-11-11T14:52:04Z</time>
      </trkpt>
      <trkpt lat="43.72874" lon="1.24196">
        <ele>116</ele>
        <time>2015-11-11T14:52:05Z</time>
      </trkpt>
      <trkpt lat="43.72876" lon="1.24209">
        <ele>116</ele>
        <time>2015-11-11T14:52:06Z</time>
      </trkpt>
      <trkpt lat="43.72873" lon="1.2422">
        <ele>116.1</ele>
        <time>2015-11-11T14:52:07Z</time>
      </trkpt>
      <trkpt lat="43.72873" lon="1.24226">
        <ele>116.2</ele>
        <time>2015-11-11T14:52:08Z</time>
      </trkpt>
      <trkpt lat="43.72874" lon="1.24233">
        <ele>116.3</ele>
        <time>2015-11-11T14:52:09Z</time>
      </trkpt>
      <trkpt lat="43.72871" lon="1.24242">
        <ele>116.4</ele>
        <time>2015-11-11T14:52:10Z</time>
      </trkpt>
      <trkpt lat="43.72868" lon="1.24249">
        <ele>116.4</ele>
        <time>2015-11-11T14:52:11Z</time>
      </trkpt>
      <trkpt lat="43.72862" lon="1.24261">
        <ele>116.5</ele>
        <time>2015-11-11T14:52:12Z</time>
      </trkpt>
      <trkpt lat="43.72863" lon="1.24269">
        <ele>116.6</ele>
        <time>2015-11-11T14:52:13Z</time>
      </trkpt>
      <trkpt lat="43.72856" lon="1.24281">
        <ele>116.7</ele>
        <time>2015-11-11T14:52:14Z</time>
      </trkpt>
      <trkpt lat="43.72855" lon="1.24293">
        <ele>116.8</ele>
        <time>2015-11-11T14:52:15Z</time>
      </trkpt>
      <trkpt lat="43.72855" lon="1.24303">
        <ele>116.8</ele>
        <time>2015-11-11T14:52:16Z</time>
      </trkpt>
      <trkpt lat="43.72852" lon="1.24313">
        <ele>116.8</ele>
        <time>2015-11-11T14:52:17Z</time>
      </trkpt>
      <trkpt lat="43.7285" lon="1.24319">
        <ele>116.8</ele>
        <time>2015-11-11T14:52:18Z</time>
      </trkpt>
      <trkpt lat="43.72848" lon="1.24326">
        <ele>116.8</ele>
        <time>2015-11-11T14:52:19Z</time>
      </trkpt>
      <trkpt lat="43.72844" lon="1.24334">
        <ele>116.8</ele>
        <time>2015-11-11T14:52:20Z</time>
      </trkpt>
      <trkpt lat="43.72841" lon="1.24341">
        <ele>116.8</ele>
        <time>2015-11-11T14:52:21Z</time>
      </trkpt>
      <trkpt lat="43.72839" lon="1.24349">
        <ele>116.9</ele>
        <time>2015-11-11T14:52:22Z</time>
      </trkpt>
      <trkpt lat="43.72835" lon="1.24357">
        <ele>116.9</ele>
        <time>2015-11-11T14:52:23Z</time>
      </trkpt>
      <trkpt lat="43.72831" lon="1.24365">
        <ele>116.9</ele>
        <time>2015-11-11T14:52:24Z</time>
      </trkpt>
      <trkpt lat="43.72828" lon="1.24372">
        <ele>117</ele>
        <time>2015-11-11T14:52:25Z</time>
      </trkpt>
      <trkpt lat="43.72825" lon="1.24379">
        <ele>117.1</ele>
        <time>2015-11-11T14:52:26Z</time>
      </trkpt>
      <trkpt lat="43.72823" lon="1.24387">
        <ele>117.3</ele>
        <time>2015-11-11T14:52:27Z</time>
      </trkpt>
      <trkpt lat="43.72818" lon="1.24394">
        <ele>117.5</ele>
        <time>2015-11-11T14:52:28Z</time>
      </trkpt>
      <trkpt lat="43.72814" lon="1.244">
        <ele>117.6</ele>
        <time>2015-11-11T14:52:29Z</time>
      </trkpt>
      <trkpt lat="43.7281" lon="1.24407">
        <ele>117.8</ele>
        <time>2015-11-11T14:52:30Z</time>
      </trkpt>
      <trkpt lat="43.72806" lon="1.24414">
        <ele>117.9</ele>
        <time>2015-11-11T14:52:31Z</time>
      </trkpt>
      <trkpt lat="43.72802" lon="1.24419">
        <ele>118</ele>
        <time>2015-11-11T14:52:32Z</time>
      </trkpt>
      <trkpt lat="43.72798" lon="1.24423">
        <ele>118.1</ele>
        <time>2015-11-11T14:52:33Z</time>
      </trkpt>
      <trkpt lat="43.72794" lon="1.24427">
        <ele>118.3</ele>
        <time>2015-11-11T14:52:34Z</time>
      </trkpt>
      <trkpt lat="43.72788" lon="1.2443">
        <ele>118.4</ele>
        <time>2015-11-11T14:52:35Z</time>
      </trkpt>
      <trkpt lat="43.72783" lon="1.24428">
        <ele>118.6</ele>
        <time>2015-11-11T14:52:36Z</time>
      </trkpt>
      <trkpt lat="43.72778" lon="1.24429">
        <ele>118.8</ele>
        <time>2015-11-11T14:52:37Z</time>
      </trkpt>
      <trkpt lat="43.72771" lon="1.2443">
        <ele>119</ele>
        <time>2015-11-11T14:52:38Z</time>
      </trkpt>
      <trkpt lat="43.72766" lon="1.2443">
        <ele>119.2</ele>
        <time>2015-11-11T14:52:39Z</time>
      </trkpt>
      <trkpt lat="43.7276" lon="1.24432">
        <ele>119.4</ele>
        <time>2015-11-11T14:52:40Z</time>
      </trkpt>
      <trkpt lat="43.72754" lon="1.24433">
        <ele>119.6</ele>
        <time>2015-11-11T14:52:41Z</time>
      </trkpt>
      <trkpt lat="43.72748" lon="1.24435">
        <ele>119.8</ele>
        <time>2015-11-11T14:52:42Z</time>
      </trkpt>
      <trkpt lat="43.72742" lon="1.24437">
        <ele>120</ele>
        <time>2015-11-11T14:52:43Z</time>
      </trkpt>
      <trkpt lat="43.72736" lon="1.2444">
        <ele>120.2</ele>
        <time>2015-11-11T14:52:44Z</time>
      </trkpt>
      <trkpt lat="43.7273" lon="1.2444">
        <ele>120.4</ele>
        <time>2015-11-11T14:52:45Z</time>
      </trkpt>
      <trkpt lat="43.72723" lon="1.24443">
        <ele>120.6</ele>
        <time>2015-11-11T14:52:46Z</time>
      </trkpt>
      <trkpt lat="43.72717" lon="1.24445">
        <ele>120.8</ele>
        <time>2015-11-11T14:52:47Z</time>
      </trkpt>
      <trkpt lat="43.72711" lon="1.24448">
        <ele>120.9</ele>
        <time>2015-11-11T14:52:48Z</time>
      </trkpt>
      <trkpt lat="43.72706" lon="1.2445">
        <ele>121.1</ele>
        <time>2015-11-11T14:52:49Z</time>
      </trkpt>
      <trkpt lat="43.727" lon="1.24453">
        <ele>121.2</ele>
        <time>2015-11-11T14:52:50Z</time>
      </trkpt>
      <trkpt lat="43.72694" lon="1.24456">
        <ele>121.3</ele>
        <time>2015-11-11T14:52:51Z</time>
      </trkpt>
      <trkpt lat="43.72688" lon="1.24458">
        <ele>121.5</ele>
        <time>2015-11-11T14:52:52Z</time>
      </trkpt>
      <trkpt lat="43.72682" lon="1.24461">
        <ele>121.7</ele>
        <time>2015-11-11T14:52:53Z</time>
      </trkpt>
      <trkpt lat="43.72677" lon="1.24464">
        <ele>121.8</ele>
        <time>2015-11-11T14:52:54Z</time>
      </trkpt>
      <trkpt lat="43.72671" lon="1.24467">
        <ele>122</ele>
        <time>2015-11-11T14:52:55Z</time>
      </trkpt>
      <trkpt lat="43.72666" lon="1.24469">
        <ele>122.1</ele>
        <time>2015-11-11T14:52:56Z</time>
      </trkpt>
      <trkpt lat="43.7266" lon="1.24473">
        <ele>122.3</ele>
        <time>2015-11-11T14:52:57Z</time>
      </trkpt>
      <trkpt lat="43.72654" lon="1.24478">
        <ele>122.5</ele>
        <time>2015-11-11T14:52:58Z</time>
      </trkpt>
      <trkpt lat="43.72649" lon="1.24482">
        <ele>122.7</ele>
        <time>2015-11-11T14:52:59Z</time>
      </trkpt>
      <trkpt lat="43.72644" lon="1.24485">
        <ele>122.9</ele>
        <time>2015-11-11T14:53:00Z</time>
      </trkpt>
      <trkpt lat="43.72639" lon="1.2449">
        <ele>123</ele>
        <time>2015-11-11T14:53:01Z</time>
      </trkpt>
      <trkpt lat="43.72635" lon="1.24495">
        <ele>123.2</ele>
        <time>2015-11-11T14:53:02Z</time>
      </trkpt>
      <trkpt lat="43.72632" lon="1.24499">
        <ele>123.3</ele>
        <time>2015-11-11T14:53:03Z</time>
      </trkpt>
      <trkpt lat="43.72627" lon="1.24504">
        <ele>123.5</ele>
        <time>2015-11-11T14:53:04Z</time>
      </trkpt>
      <trkpt lat="43.72623" lon="1.24511">
        <ele>123.6</ele>
        <time>2015-11-11T14:53:05Z</time>
      </trkpt>
      <trkpt lat="43.72619" lon="1.24518">
        <ele>123.7</ele>
        <time>2015-11-11T14:53:06Z</time>
      </trkpt>
      <trkpt lat="43.72616" lon="1.24524">
        <ele>123.7</ele>
        <time>2015-11-11T14:53:07Z</time>
      </trkpt>
      <trkpt lat="43.72612" lon="1.24533">
        <ele>123.8</ele>
        <time>2015-11-11T14:53:08Z</time>
      </trkpt>
      <trkpt lat="43.72608" lon="1.2454">
        <ele>123.8</ele>
        <time>2015-11-11T14:53:09Z</time>
      </trkpt>
      <trkpt lat="43.72604" lon="1.24547">
        <ele>123.8</ele>
        <time>2015-11-11T14:53:10Z</time>
      </trkpt>
      <trkpt lat="43.726" lon="1.24554">
        <ele>123.8</ele>
        <time>2015-11-11T14:53:11Z</time>
      </trkpt>
      <trkpt lat="43.72597" lon="1.2456">
        <ele>123.7</ele>
        <time>2015-11-11T14:53:12Z</time>
      </trkpt>
      <trkpt lat="43.72594" lon="1.24566">
        <ele>123.7</ele>
        <time>2015-11-11T14:53:13Z</time>
      </trkpt>
      <trkpt lat="43.7259" lon="1.24573">
        <ele>123.6</ele>
        <time>2015-11-11T14:53:14Z</time>
      </trkpt>
      <trkpt lat="43.72586" lon="1.24578">
        <ele>123.6</ele>
        <time>2015-11-11T14:53:15Z</time>
      </trkpt>
      <trkpt lat="43.72582" lon="1.24584">
        <ele>123.5</ele>
        <time>2015-11-11T14:53:16Z</time>
      </trkpt>
      <trkpt lat="43.72579" lon="1.24591">
        <ele>123.4</ele>
        <time>2015-11-11T14:53:17Z</time>
      </trkpt>
      <trkpt lat="43.72575" lon="1.24597">
        <ele>123.3</ele>
        <time>2015-11-11T14:53:18Z</time>
      </trkpt>
      <trkpt lat="43.72571" lon="1.24604">
        <ele>123.1</ele>
        <time>2015-11-11T14:53:19Z</time>
      </trkpt>
      <trkpt lat="43.72569" lon="1.24611">
        <ele>123.1</ele>
        <time>2015-11-11T14:53:20Z</time>
      </trkpt>
      <trkpt lat="43.72565" lon="1.24618">
        <ele>122.9</ele>
        <time>2015-11-11T14:53:21Z</time>
      </trkpt>
      <trkpt lat="43.72561" lon="1.24624">
        <ele>122.7</ele>
        <time>2015-11-11T14:53:22Z</time>
      </trkpt>
      <trkpt lat="43.72558" lon="1.24629">
        <ele>122.7</ele>
        <time>2015-11-11T14:53:23Z</time>
      </trkpt>
      <trkpt lat="43.72555" lon="1.24636">
        <ele>122.7</ele>
        <time>2015-11-11T14:53:24Z</time>
      </trkpt>
      <trkpt lat="43.72553" lon="1.24644">
        <ele>122.7</ele>
        <time>2015-11-11T14:53:25Z</time>
      </trkpt>
      <trkpt lat="43.72549" lon="1.24651">
        <ele>122.8</ele>
        <time>2015-11-11T14:53:26Z</time>
      </trkpt>
      <trkpt lat="43.72545" lon="1.24659">
        <ele>122.9</ele>
        <time>2015-11-11T14:53:27Z</time>
      </trkpt>
      <trkpt lat="43.72542" lon="1.24666">
        <ele>123</ele>
        <time>2015-11-11T14:53:28Z</time>
      </trkpt>
      <trkpt lat="43.72538" lon="1.24674">
        <ele>123.3</ele>
        <time>2015-11-11T14:53:29Z</time>
      </trkpt>
      <trkpt lat="43.72535" lon="1.24676">
        <ele>123.4</ele>
        <time>2015-11-11T14:53:30Z</time>
      </trkpt>
      <trkpt lat="43.72531" lon="1.24684">
        <ele>123.7</ele>
        <time>2015-11-11T14:53:31Z</time>
      </trkpt>
      <trkpt lat="43.72527" lon="1.24693">
        <ele>124</ele>
        <time>2015-11-11T14:53:32Z</time>
      </trkpt>
      <trkpt lat="43.72524" lon="1.24698">
        <ele>124.2</ele>
        <time>2015-11-11T14:53:33Z</time>
      </trkpt>
      <trkpt lat="43.7252" lon="1.24706">
        <ele>124.5</ele>
        <time>2015-11-11T14:53:34Z</time>
      </trkpt>
      <trkpt lat="43.72518" lon="1.24715">
        <ele>124.5</ele>
        <time>2015-11-11T14:53:35Z</time>
      </trkpt>
      <trkpt lat="43.72515" lon="1.24721">
        <ele>124.5</ele>
        <time>2015-11-11T14:53:36Z</time>
      </trkpt>
      <trkpt lat="43.72512" lon="1.24727">
        <ele>124.5</ele>
        <time>2015-11-11T14:53:37Z</time>
      </trkpt>
      <trkpt lat="43.72511" lon="1.24731">
        <ele>124.5</ele>
        <time>2015-11-11T14:53:38Z</time>
      </trkpt>
      <trkpt lat="43.7251" lon="1.24737">
        <ele>124.4</ele>
        <time>2015-11-11T14:53:39Z</time>
      </trkpt>
      <trkpt lat="43.72508" lon="1.24742">
        <ele>124.4</ele>
        <time>2015-11-11T14:53:40Z</time>
      </trkpt>
      <trkpt lat="43.72507" lon="1.24747">
        <ele>124.4</ele>
        <time>2015-11-11T14:53:41Z</time>
      </trkpt>
      <trkpt lat="43.72507" lon="1.24752">
        <ele>124.3</ele>
        <time>2015-11-11T14:53:42Z</time>
      </trkpt>
      <trkpt lat="43.72505" lon="1.24757">
        <ele>124.3</ele>
        <time>2015-11-11T14:53:43Z</time>
      </trkpt>
      <trkpt lat="43.72504" lon="1.24763">
        <ele>124.3</ele>
        <time>2015-11-11T14:53:44Z</time>
      </trkpt>
      <trkpt lat="43.72501" lon="1.2477">
        <ele>124.2</ele>
        <time>2015-11-11T14:53:45Z</time>
      </trkpt>
      <trkpt lat="43.72501" lon="1.2478">
        <ele>124.1</ele>
        <time>2015-11-11T14:53:47Z</time>
      </trkpt>
      <trkpt lat="43.72498" lon="1.24789">
        <ele>124.1</ele>
        <time>2015-11-11T14:53:48Z</time>
      </trkpt>
      <trkpt lat="43.72498" lon="1.24797">
        <ele>124.1</ele>
        <time>2015-11-11T14:53:49Z</time>
      </trkpt>
      <trkpt lat="43.72496" lon="1.24802">
        <ele>124.2</ele>
        <time>2015-11-11T14:53:50Z</time>
      </trkpt>
      <trkpt lat="43.72495" lon="1.24808">
        <ele>124.3</ele>
        <time>2015-11-11T14:53:51Z</time>
      </trkpt>
      <trkpt lat="43.72494" lon="1.24816">
        <ele>124.4</ele>
        <time>2015-11-11T14:53:52Z</time>
      </trkpt>
      <trkpt lat="43.72493" lon="1.24823">
        <ele>124.5</ele>
        <time>2015-11-11T14:53:53Z</time>
      </trkpt>
      <trkpt lat="43.72493" lon="1.2483">
        <ele>124.6</ele>
        <time>2015-11-11T14:53:54Z</time>
      </trkpt>
      <trkpt lat="43.72491" lon="1.24837">
        <ele>124.8</ele>
        <time>2015-11-11T14:53:55Z</time>
      </trkpt>
      <trkpt lat="43.72489" lon="1.2485">
        <ele>125</ele>
        <time>2015-11-11T14:53:57Z</time>
      </trkpt>
      <trkpt lat="43.72488" lon="1.2486">
        <ele>125.1</ele>
        <time>2015-11-11T14:53:58Z</time>
      </trkpt>
      <trkpt lat="43.72487" lon="1.24867">
        <ele>125.2</ele>
        <time>2015-11-11T14:53:59Z</time>
      </trkpt>
      <trkpt lat="43.72485" lon="1.24876">
        <ele>125.4</ele>
        <time>2015-11-11T14:54:00Z</time>
      </trkpt>
      <trkpt lat="43.72484" lon="1.24884">
        <ele>125.5</ele>
        <time>2015-11-11T14:54:01Z</time>
      </trkpt>
      <trkpt lat="43.72483" lon="1.24893">
        <ele>125.6</ele>
        <time>2015-11-11T14:54:02Z</time>
      </trkpt>
      <trkpt lat="43.72481" lon="1.24901">
        <ele>125.8</ele>
        <time>2015-11-11T14:54:03Z</time>
      </trkpt>
      <trkpt lat="43.7248" lon="1.2491">
        <ele>125.9</ele>
        <time>2015-11-11T14:54:04Z</time>
      </trkpt>
      <trkpt lat="43.72479" lon="1.24917">
        <ele>126</ele>
        <time>2015-11-11T14:54:05Z</time>
      </trkpt>
      <trkpt lat="43.72477" lon="1.24926">
        <ele>126.2</ele>
        <time>2015-11-11T14:54:06Z</time>
      </trkpt>
      <trkpt lat="43.72476" lon="1.24934">
        <ele>126.3</ele>
        <time>2015-11-11T14:54:07Z</time>
      </trkpt>
      <trkpt lat="43.72474" lon="1.24943">
        <ele>126.5</ele>
        <time>2015-11-11T14:54:08Z</time>
      </trkpt>
      <trkpt lat="43.72473" lon="1.2495">
        <ele>126.5</ele>
        <time>2015-11-11T14:54:09Z</time>
      </trkpt>
      <trkpt lat="43.72473" lon="1.24958">
        <ele>126.6</ele>
        <time>2015-11-11T14:54:10Z</time>
      </trkpt>
      <trkpt lat="43.72472" lon="1.24965">
        <ele>126.8</ele>
        <time>2015-11-11T14:54:11Z</time>
      </trkpt>
      <trkpt lat="43.7247" lon="1.24972">
        <ele>127</ele>
        <time>2015-11-11T14:54:12Z</time>
      </trkpt>
      <trkpt lat="43.7247" lon="1.24979">
        <ele>127.2</ele>
        <time>2015-11-11T14:54:13Z</time>
      </trkpt>
      <trkpt lat="43.7247" lon="1.24985">
        <ele>127.4</ele>
        <time>2015-11-11T14:54:14Z</time>
      </trkpt>
      <trkpt lat="43.72471" lon="1.2499">
        <ele>127.5</ele>
        <time>2015-11-11T14:54:15Z</time>
      </trkpt>
      <trkpt lat="43.72471" lon="1.24997">
        <ele>127.6</ele>
        <time>2015-11-11T14:54:16Z</time>
      </trkpt>
      <trkpt lat="43.72468" lon="1.25002">
        <ele>127.8</ele>
        <time>2015-11-11T14:54:17Z</time>
      </trkpt>
      <trkpt lat="43.72468" lon="1.2501">
        <ele>128</ele>
        <time>2015-11-11T14:54:18Z</time>
      </trkpt>
      <trkpt lat="43.72467" lon="1.25016">
        <ele>128.2</ele>
        <time>2015-11-11T14:54:19Z</time>
      </trkpt>
      <trkpt lat="43.72467" lon="1.25023">
        <ele>128.3</ele>
        <time>2015-11-11T14:54:20Z</time>
      </trkpt>
      <trkpt lat="43.72465" lon="1.2503">
        <ele>128.6</ele>
        <time>2015-11-11T14:54:21Z</time>
      </trkpt>
      <trkpt lat="43.72463" lon="1.25038">
        <ele>128.8</ele>
        <time>2015-11-11T14:54:22Z</time>
      </trkpt>
      <trkpt lat="43.72464" lon="1.25045">
        <ele>129.1</ele>
        <time>2015-11-11T14:54:23Z</time>
      </trkpt>
      <trkpt lat="43.72464" lon="1.25049">
        <ele>129.4</ele>
        <time>2015-11-11T14:54:24Z</time>
      </trkpt>
      <trkpt lat="43.72465" lon="1.25055">
        <ele>129.8</ele>
        <time>2015-11-11T14:54:25Z</time>
      </trkpt>
      <trkpt lat="43.72466" lon="1.25062">
        <ele>130.2</ele>
        <time>2015-11-11T14:54:26Z</time>
      </trkpt>
      <trkpt lat="43.72468" lon="1.2507">
        <ele>130.7</ele>
        <time>2015-11-11T14:54:27Z</time>
      </trkpt>
      <trkpt lat="43.72468" lon="1.25077">
        <ele>131.1</ele>
        <time>2015-11-11T14:54:28Z</time>
      </trkpt>
      <trkpt lat="43.72468" lon="1.25082">
        <ele>131.5</ele>
        <time>2015-11-11T14:54:29Z</time>
      </trkpt>
      <trkpt lat="43.72471" lon="1.25096">
        <ele>132.3</ele>
        <time>2015-11-11T14:54:30Z</time>
      </trkpt>
      <trkpt lat="43.72472" lon="1.25102">
        <ele>132.7</ele>
        <time>2015-11-11T14:54:31Z</time>
      </trkpt>
      <trkpt lat="43.72472" lon="1.25112">
        <ele>133.3</ele>
        <time>2015-11-11T14:54:32Z</time>
      </trkpt>
      <trkpt lat="43.72473" lon="1.25119">
        <ele>133.7</ele>
        <time>2015-11-11T14:54:33Z</time>
      </trkpt>
      <trkpt lat="43.72473" lon="1.25125">
        <ele>134.1</ele>
        <time>2015-11-11T14:54:34Z</time>
      </trkpt>
      <trkpt lat="43.72473" lon="1.25132">
        <ele>134.7</ele>
        <time>2015-11-11T14:54:35Z</time>
      </trkpt>
      <trkpt lat="43.72473" lon="1.25139">
        <ele>135.3</ele>
        <time>2015-11-11T14:54:36Z</time>
      </trkpt>
      <trkpt lat="43.72474" lon="1.25144">
        <ele>135.7</ele>
        <time>2015-11-11T14:54:37Z</time>
      </trkpt>
      <trkpt lat="43.72475" lon="1.2515">
        <ele>136.1</ele>
        <time>2015-11-11T14:54:38Z</time>
      </trkpt>
      <trkpt lat="43.72475" lon="1.25155">
        <ele>136.5</ele>
        <time>2015-11-11T14:54:39Z</time>
      </trkpt>
      <trkpt lat="43.72472" lon="1.25159">
        <ele>137.1</ele>
        <time>2015-11-11T14:54:40Z</time>
      </trkpt>
      <trkpt lat="43.72471" lon="1.25165">
        <ele>137.7</ele>
        <time>2015-11-11T14:54:41Z</time>
      </trkpt>
      <trkpt lat="43.7247" lon="1.25171">
        <ele>138.3</ele>
        <time>2015-11-11T14:54:42Z</time>
      </trkpt>
      <trkpt lat="43.72471" lon="1.25177">
        <ele>138.7</ele>
        <time>2015-11-11T14:54:43Z</time>
      </trkpt>
      <trkpt lat="43.72472" lon="1.25183">
        <ele>139.3</ele>
        <time>2015-11-11T14:54:44Z</time>
      </trkpt>
      <trkpt lat="43.72472" lon="1.25189">
        <ele>139.7</ele>
        <time>2015-11-11T14:54:45Z</time>
      </trkpt>
      <trkpt lat="43.72471" lon="1.25195">
        <ele>140.2</ele>
        <time>2015-11-11T14:54:46Z</time>
      </trkpt>
      <trkpt lat="43.72472" lon="1.25199">
        <ele>140.6</ele>
        <time>2015-11-11T14:54:47Z</time>
      </trkpt>
      <trkpt lat="43.72472" lon="1.25203">
        <ele>141</ele>
        <time>2015-11-11T14:54:48Z</time>
      </trkpt>
      <trkpt lat="43.72471" lon="1.25208">
        <ele>141.4</ele>
        <time>2015-11-11T14:54:49Z</time>
      </trkpt>
      <trkpt lat="43.72471" lon="1.25213">
        <ele>141.7</ele>
        <time>2015-11-11T14:54:50Z</time>
      </trkpt>
      <trkpt lat="43.72471" lon="1.25218">
        <ele>142</ele>
        <time>2015-11-11T14:54:51Z</time>
      </trkpt>
      <trkpt lat="43.72471" lon="1.25222">
        <ele>142.3</ele>
        <time>2015-11-11T14:54:52Z</time>
      </trkpt>
      <trkpt lat="43.72471" lon="1.25227">
        <ele>142.6</ele>
        <time>2015-11-11T14:54:53Z</time>
      </trkpt>
      <trkpt lat="43.7247" lon="1.25232">
        <ele>142.9</ele>
        <time>2015-11-11T14:54:54Z</time>
      </trkpt>
      <trkpt lat="43.7247" lon="1.25237">
        <ele>143.2</ele>
        <time>2015-11-11T14:54:55Z</time>
      </trkpt>
      <trkpt lat="43.72469" lon="1.25242">
        <ele>143.6</ele>
        <time>2015-11-11T14:54:56Z</time>
      </trkpt>
      <trkpt lat="43.72468" lon="1.25247">
        <ele>144</ele>
        <time>2015-11-11T14:54:57Z</time>
      </trkpt>
      <trkpt lat="43.72468" lon="1.25253">
        <ele>144.4</ele>
        <time>2015-11-11T14:54:58Z</time>
      </trkpt>
      <trkpt lat="43.72468" lon="1.25258">
        <ele>144.7</ele>
        <time>2015-11-11T14:54:59Z</time>
      </trkpt>
      <trkpt lat="43.72467" lon="1.25262">
        <ele>145</ele>
        <time>2015-11-11T14:55:00Z</time>
      </trkpt>
      <trkpt lat="43.72467" lon="1.25267">
        <ele>145.3</ele>
        <time>2015-11-11T14:55:01Z</time>
      </trkpt>
      <trkpt lat="43.72467" lon="1.25272">
        <ele>145.6</ele>
        <time>2015-11-11T14:55:02Z</time>
      </trkpt>
      <trkpt lat="43.72467" lon="1.25277">
        <ele>145.9</ele>
        <time>2015-11-11T14:55:03Z</time>
      </trkpt>
      <trkpt lat="43.72467" lon="1.25281">
        <ele>146.2</ele>
        <time>2015-11-11T14:55:04Z</time>
      </trkpt>
      <trkpt lat="43.72466" lon="1.25285">
        <ele>146.5</ele>
        <time>2015-11-11T14:55:05Z</time>
      </trkpt>
      <trkpt lat="43.72466" lon="1.2529">
        <ele>146.8</ele>
        <time>2015-11-11T14:55:06Z</time>
      </trkpt>
      <trkpt lat="43.72465" lon="1.25294">
        <ele>147.2</ele>
        <time>2015-11-11T14:55:07Z</time>
      </trkpt>
      <trkpt lat="43.72465" lon="1.253">
        <ele>147.5</ele>
        <time>2015-11-11T14:55:08Z</time>
      </trkpt>
      <trkpt lat="43.72465" lon="1.25306">
        <ele>147.9</ele>
        <time>2015-11-11T14:55:09Z</time>
      </trkpt>
      <trkpt lat="43.72465" lon="1.25311">
        <ele>148.2</ele>
        <time>2015-11-11T14:55:10Z</time>
      </trkpt>
      <trkpt lat="43.72465" lon="1.25316">
        <ele>148.5</ele>
        <time>2015-11-11T14:55:11Z</time>
      </trkpt>
      <trkpt lat="43.72465" lon="1.25321">
        <ele>148.8</ele>
        <time>2015-11-11T14:55:12Z</time>
      </trkpt>
      <trkpt lat="43.72465" lon="1.25326">
        <ele>149.1</ele>
        <time>2015-11-11T14:55:13Z</time>
      </trkpt>
      <trkpt lat="43.72464" lon="1.25331">
        <ele>149.5</ele>
        <time>2015-11-11T14:55:14Z</time>
      </trkpt>
      <trkpt lat="43.72463" lon="1.25336">
        <ele>149.9</ele>
        <time>2015-11-11T14:55:15Z</time>
      </trkpt>
      <trkpt lat="43.72463" lon="1.2534">
        <ele>150.3</ele>
        <time>2015-11-11T14:55:16Z</time>
      </trkpt>
      <trkpt lat="43.72462" lon="1.25345">
        <ele>150.6</ele>
        <time>2015-11-11T14:55:17Z</time>
      </trkpt>
      <trkpt lat="43.72462" lon="1.2535">
        <ele>151</ele>
        <time>2015-11-11T14:55:18Z</time>
      </trkpt>
      <trkpt lat="43.72461" lon="1.25355">
        <ele>151.4</ele>
        <time>2015-11-11T14:55:19Z</time>
      </trkpt>
      <trkpt lat="43.72461" lon="1.2536">
        <ele>151.7</ele>
        <time>2015-11-11T14:55:20Z</time>
      </trkpt>
      <trkpt lat="43.7246" lon="1.25365">
        <ele>152.1</ele>
        <time>2015-11-11T14:55:21Z</time>
      </trkpt>
      <trkpt lat="43.72459" lon="1.25369">
        <ele>152.4</ele>
        <time>2015-11-11T14:55:22Z</time>
      </trkpt>
      <trkpt lat="43.72459" lon="1.25372">
        <ele>152.8</ele>
        <time>2015-11-11T14:55:23Z</time>
      </trkpt>
      <trkpt lat="43.72458" lon="1.25376">
        <ele>153.1</ele>
        <time>2015-11-11T14:55:24Z</time>
      </trkpt>
      <trkpt lat="43.72457" lon="1.2538">
        <ele>153.2</ele>
        <time>2015-11-11T14:55:25Z</time>
      </trkpt>
      <trkpt lat="43.72455" lon="1.25388">
        <ele>153.4</ele>
        <time>2015-11-11T14:55:27Z</time>
      </trkpt>
      <trkpt lat="43.72454" lon="1.25394">
        <ele>153.6</ele>
        <time>2015-11-11T14:55:29Z</time>
      </trkpt>
      <trkpt lat="43.72453" lon="1.25398">
        <ele>153.7</ele>
        <time>2015-11-11T14:55:30Z</time>
      </trkpt>
      <trkpt lat="43.72452" lon="1.25402">
        <ele>153.8</ele>
        <time>2015-11-11T14:55:31Z</time>
      </trkpt>
      <trkpt lat="43.72451" lon="1.25407">
        <ele>153.9</ele>
        <time>2015-11-11T14:55:32Z</time>
      </trkpt>
      <trkpt lat="43.7245" lon="1.25411">
        <ele>154.1</ele>
        <time>2015-11-11T14:55:33Z</time>
      </trkpt>
      <trkpt lat="43.72449" lon="1.25417">
        <ele>154.2</ele>
        <time>2015-11-11T14:55:34Z</time>
      </trkpt>
      <trkpt lat="43.72448" lon="1.25421">
        <ele>154.3</ele>
        <time>2015-11-11T14:55:35Z</time>
      </trkpt>
      <trkpt lat="43.72447" lon="1.25426">
        <ele>154.4</ele>
        <time>2015-11-11T14:55:36Z</time>
      </trkpt>
      <trkpt lat="43.72446" lon="1.25431">
        <ele>154.5</ele>
        <time>2015-11-11T14:55:37Z</time>
      </trkpt>
      <trkpt lat="43.72446" lon="1.25436">
        <ele>154.7</ele>
        <time>2015-11-11T14:55:38Z</time>
      </trkpt>
      <trkpt lat="43.72445" lon="1.2544">
        <ele>154.7</ele>
        <time>2015-11-11T14:55:39Z</time>
      </trkpt>
      <trkpt lat="43.72444" lon="1.25445">
        <ele>154.9</ele>
        <time>2015-11-11T14:55:40Z</time>
      </trkpt>
      <trkpt lat="43.72443" lon="1.2545">
        <ele>155</ele>
        <time>2015-11-11T14:55:41Z</time>
      </trkpt>
      <trkpt lat="43.72442" lon="1.25455">
        <ele>155.1</ele>
        <time>2015-11-11T14:55:42Z</time>
      </trkpt>
      <trkpt lat="43.72442" lon="1.2546">
        <ele>155.3</ele>
        <time>2015-11-11T14:55:43Z</time>
      </trkpt>
      <trkpt lat="43.72441" lon="1.25465">
        <ele>155.6</ele>
        <time>2015-11-11T14:55:44Z</time>
      </trkpt>
      <trkpt lat="43.72441" lon="1.2547">
        <ele>155.9</ele>
        <time>2015-11-11T14:55:45Z</time>
      </trkpt>
      <trkpt lat="43.7244" lon="1.25474">
        <ele>156.1</ele>
        <time>2015-11-11T14:55:46Z</time>
      </trkpt>
      <trkpt lat="43.7244" lon="1.25479">
        <ele>156.4</ele>
        <time>2015-11-11T14:55:47Z</time>
      </trkpt>
      <trkpt lat="43.72439" lon="1.25483">
        <ele>156.6</ele>
        <time>2015-11-11T14:55:48Z</time>
      </trkpt>
      <trkpt lat="43.72439" lon="1.25487">
        <ele>156.9</ele>
        <time>2015-11-11T14:55:49Z</time>
      </trkpt>
      <trkpt lat="43.72439" lon="1.25491">
        <ele>157.1</ele>
        <time>2015-11-11T14:55:50Z</time>
      </trkpt>
      <trkpt lat="43.72439" lon="1.25495">
        <ele>157.3</ele>
        <time>2015-11-11T14:55:51Z</time>
      </trkpt>
      <trkpt lat="43.72439" lon="1.25499">
        <ele>157.4</ele>
        <time>2015-11-11T14:55:52Z</time>
      </trkpt>
      <trkpt lat="43.72439" lon="1.25503">
        <ele>157.6</ele>
        <time>2015-11-11T14:55:53Z</time>
      </trkpt>
      <trkpt lat="43.72439" lon="1.25507">
        <ele>157.7</ele>
        <time>2015-11-11T14:55:54Z</time>
      </trkpt>
      <trkpt lat="43.72439" lon="1.25511">
        <ele>157.9</ele>
        <time>2015-11-11T14:55:55Z</time>
      </trkpt>
      <trkpt lat="43.72439" lon="1.25516">
        <ele>158.1</ele>
        <time>2015-11-11T14:55:56Z</time>
      </trkpt>
      <trkpt lat="43.72439" lon="1.2552">
        <ele>158.3</ele>
        <time>2015-11-11T14:55:57Z</time>
      </trkpt>
      <trkpt lat="43.7244" lon="1.25525">
        <ele>158.4</ele>
        <time>2015-11-11T14:55:58Z</time>
      </trkpt>
      <trkpt lat="43.7244" lon="1.25529">
        <ele>158.6</ele>
        <time>2015-11-11T14:55:59Z</time>
      </trkpt>
      <trkpt lat="43.7244" lon="1.25533">
        <ele>158.8</ele>
        <time>2015-11-11T14:56:00Z</time>
      </trkpt>
      <trkpt lat="43.7244" lon="1.25538">
        <ele>159</ele>
        <time>2015-11-11T14:56:01Z</time>
      </trkpt>
      <trkpt lat="43.7244" lon="1.25542">
        <ele>159.2</ele>
        <time>2015-11-11T14:56:02Z</time>
      </trkpt>
      <trkpt lat="43.72439" lon="1.25546">
        <ele>159.6</ele>
        <time>2015-11-11T14:56:03Z</time>
      </trkpt>
      <trkpt lat="43.72439" lon="1.2555">
        <ele>160</ele>
        <time>2015-11-11T14:56:04Z</time>
      </trkpt>
      <trkpt lat="43.72439" lon="1.25557">
        <ele>160.6</ele>
        <time>2015-11-11T14:56:06Z</time>
      </trkpt>
      <trkpt lat="43.72439" lon="1.25565">
        <ele>161.2</ele>
        <time>2015-11-11T14:56:08Z</time>
      </trkpt>
      <trkpt lat="43.72439" lon="1.25569">
        <ele>161.6</ele>
        <time>2015-11-11T14:56:09Z</time>
      </trkpt>
      <trkpt lat="43.72438" lon="1.25573">
        <ele>162</ele>
        <time>2015-11-11T14:56:10Z</time>
      </trkpt>
      <trkpt lat="43.72438" lon="1.25577">
        <ele>162.3</ele>
        <time>2015-11-11T14:56:11Z</time>
      </trkpt>
      <trkpt lat="43.72438" lon="1.25581">
        <ele>162.6</ele>
        <time>2015-11-11T14:56:12Z</time>
      </trkpt>
      <trkpt lat="43.72438" lon="1.25585">
        <ele>163</ele>
        <time>2015-11-11T14:56:13Z</time>
      </trkpt>
      <trkpt lat="43.72437" lon="1.25588">
        <ele>163.3</ele>
        <time>2015-11-11T14:56:14Z</time>
      </trkpt>
      <trkpt lat="43.72436" lon="1.25596">
        <ele>164</ele>
        <time>2015-11-11T14:56:16Z</time>
      </trkpt>
      <trkpt lat="43.72437" lon="1.256">
        <ele>164.3</ele>
        <time>2015-11-11T14:56:17Z</time>
      </trkpt>
      <trkpt lat="43.72437" lon="1.25606">
        <ele>164.8</ele>
        <time>2015-11-11T14:56:19Z</time>
      </trkpt>
      <trkpt lat="43.72437" lon="1.25613">
        <ele>165.4</ele>
        <time>2015-11-11T14:56:21Z</time>
      </trkpt>
      <trkpt lat="43.72437" lon="1.25619">
        <ele>165.8</ele>
        <time>2015-11-11T14:56:23Z</time>
      </trkpt>
      <trkpt lat="43.72439" lon="1.25626">
        <ele>166.3</ele>
        <time>2015-11-11T14:56:25Z</time>
      </trkpt>
      <trkpt lat="43.72441" lon="1.25632">
        <ele>166.4</ele>
        <time>2015-11-11T14:56:27Z</time>
      </trkpt>
      <trkpt lat="43.72442" lon="1.25636">
        <ele>166.6</ele>
        <time>2015-11-11T14:56:28Z</time>
      </trkpt>
      <trkpt lat="43.72443" lon="1.2564">
        <ele>166.8</ele>
        <time>2015-11-11T14:56:29Z</time>
      </trkpt>
      <trkpt lat="43.72444" lon="1.25644">
        <ele>167</ele>
        <time>2015-11-11T14:56:30Z</time>
      </trkpt>
      <trkpt lat="43.72445" lon="1.25648">
        <ele>167.2</ele>
        <time>2015-11-11T14:56:31Z</time>
      </trkpt>
      <trkpt lat="43.72446" lon="1.25652">
        <ele>167.4</ele>
        <time>2015-11-11T14:56:32Z</time>
      </trkpt>
      <trkpt lat="43.72447" lon="1.25656">
        <ele>167.7</ele>
        <time>2015-11-11T14:56:33Z</time>
      </trkpt>
      <trkpt lat="43.72448" lon="1.2566">
        <ele>167.9</ele>
        <time>2015-11-11T14:56:34Z</time>
      </trkpt>
      <trkpt lat="43.7245" lon="1.25665">
        <ele>168.1</ele>
        <time>2015-11-11T14:56:35Z</time>
      </trkpt>
      <trkpt lat="43.72451" lon="1.25669">
        <ele>168.4</ele>
        <time>2015-11-11T14:56:36Z</time>
      </trkpt>
      <trkpt lat="43.72451" lon="1.25673">
        <ele>168.6</ele>
        <time>2015-11-11T14:56:37Z</time>
      </trkpt>
      <trkpt lat="43.72452" lon="1.25678">
        <ele>168.9</ele>
        <time>2015-11-11T14:56:38Z</time>
      </trkpt>
      <trkpt lat="43.72453" lon="1.25682">
        <ele>169.2</ele>
        <time>2015-11-11T14:56:39Z</time>
      </trkpt>
      <trkpt lat="43.72454" lon="1.25687">
        <ele>169.5</ele>
        <time>2015-11-11T14:56:40Z</time>
      </trkpt>
      <trkpt lat="43.72454" lon="1.25691">
        <ele>169.8</ele>
        <time>2015-11-11T14:56:41Z</time>
      </trkpt>
      <trkpt lat="43.72454" lon="1.25695">
        <ele>170.1</ele>
        <time>2015-11-11T14:56:42Z</time>
      </trkpt>
      <trkpt lat="43.72454" lon="1.25699">
        <ele>170.3</ele>
        <time>2015-11-11T14:56:43Z</time>
      </trkpt>
      <trkpt lat="43.72454" lon="1.25703">
        <ele>170.6</ele>
        <time>2015-11-11T14:56:44Z</time>
      </trkpt>
      <trkpt lat="43.72454" lon="1.25706">
        <ele>170.9</ele>
        <time>2015-11-11T14:56:45Z</time>
      </trkpt>
      <trkpt lat="43.72453" lon="1.2571">
        <ele>171</ele>
        <time>2015-11-11T14:56:46Z</time>
      </trkpt>
      <trkpt lat="43.72453" lon="1.25714">
        <ele>171.1</ele>
        <time>2015-11-11T14:56:47Z</time>
      </trkpt>
      <trkpt lat="43.72451" lon="1.25718">
        <ele>171.2</ele>
        <time>2015-11-11T14:56:48Z</time>
      </trkpt>
      <trkpt lat="43.7245" lon="1.25722">
        <ele>171.3</ele>
        <time>2015-11-11T14:56:49Z</time>
      </trkpt>
      <trkpt lat="43.72449" lon="1.25726">
        <ele>171.4</ele>
        <time>2015-11-11T14:56:50Z</time>
      </trkpt>
      <trkpt lat="43.72448" lon="1.2573">
        <ele>171.5</ele>
        <time>2015-11-11T14:56:51Z</time>
      </trkpt>
      <trkpt lat="43.72446" lon="1.25734">
        <ele>171.6</ele>
        <time>2015-11-11T14:56:52Z</time>
      </trkpt>
      <trkpt lat="43.72444" lon="1.25739">
        <ele>171.7</ele>
        <time>2015-11-11T14:56:53Z</time>
      </trkpt>
      <trkpt lat="43.72443" lon="1.25744">
        <ele>171.8</ele>
        <time>2015-11-11T14:56:54Z</time>
      </trkpt>
      <trkpt lat="43.72441" lon="1.25748">
        <ele>171.9</ele>
        <time>2015-11-11T14:56:55Z</time>
      </trkpt>
      <trkpt lat="43.72439" lon="1.25752">
        <ele>171.9</ele>
        <time>2015-11-11T14:56:56Z</time>
      </trkpt>
      <trkpt lat="43.72437" lon="1.25756">
        <ele>172</ele>
        <time>2015-11-11T14:56:57Z</time>
      </trkpt>
      <trkpt lat="43.72435" lon="1.2576">
        <ele>172.1</ele>
        <time>2015-11-11T14:56:58Z</time>
      </trkpt>
      <trkpt lat="43.72433" lon="1.25765">
        <ele>172.2</ele>
        <time>2015-11-11T14:56:59Z</time>
      </trkpt>
      <trkpt lat="43.72432" lon="1.25769">
        <ele>172.2</ele>
        <time>2015-11-11T14:57:00Z</time>
      </trkpt>
      <trkpt lat="43.7243" lon="1.25774">
        <ele>172.3</ele>
        <time>2015-11-11T14:57:01Z</time>
      </trkpt>
      <trkpt lat="43.72428" lon="1.25778">
        <ele>172.4</ele>
        <time>2015-11-11T14:57:02Z</time>
      </trkpt>
      <trkpt lat="43.72425" lon="1.25783">
        <ele>172.4</ele>
        <time>2015-11-11T14:57:03Z</time>
      </trkpt>
      <trkpt lat="43.72423" lon="1.25787">
        <ele>172.5</ele>
        <time>2015-11-11T14:57:04Z</time>
      </trkpt>
      <trkpt lat="43.72421" lon="1.25791">
        <ele>172.5</ele>
        <time>2015-11-11T14:57:05Z</time>
      </trkpt>
      <trkpt lat="43.72419" lon="1.25795">
        <ele>172.5</ele>
        <time>2015-11-11T14:57:06Z</time>
      </trkpt>
      <trkpt lat="43.72416" lon="1.25799">
        <ele>172.5</ele>
        <time>2015-11-11T14:57:07Z</time>
      </trkpt>
      <trkpt lat="43.72414" lon="1.25803">
        <ele>172.5</ele>
        <time>2015-11-11T14:57:08Z</time>
      </trkpt>
      <trkpt lat="43.72411" lon="1.25807">
        <ele>172.5</ele>
        <time>2015-11-11T14:57:09Z</time>
      </trkpt>
      <trkpt lat="43.72408" lon="1.25812">
        <ele>172.5</ele>
        <time>2015-11-11T14:57:10Z</time>
      </trkpt>
      <trkpt lat="43.72406" lon="1.25816">
        <ele>172.6</ele>
        <time>2015-11-11T14:57:11Z</time>
      </trkpt>
      <trkpt lat="43.72403" lon="1.25821">
        <ele>172.6</ele>
        <time>2015-11-11T14:57:12Z</time>
      </trkpt>
      <trkpt lat="43.72401" lon="1.25828">
        <ele>172.6</ele>
        <time>2015-11-11T14:57:13Z</time>
      </trkpt>
      <trkpt lat="43.72399" lon="1.25835">
        <ele>172.7</ele>
        <time>2015-11-11T14:57:14Z</time>
      </trkpt>
      <trkpt lat="43.72396" lon="1.25842">
        <ele>172.7</ele>
        <time>2015-11-11T14:57:15Z</time>
      </trkpt>
      <trkpt lat="43.72393" lon="1.25848">
        <ele>172.7</ele>
        <time>2015-11-11T14:57:16Z</time>
      </trkpt>
      <trkpt lat="43.72391" lon="1.25854">
        <ele>172.8</ele>
        <time>2015-11-11T14:57:17Z</time>
      </trkpt>
      <trkpt lat="43.72388" lon="1.2586">
        <ele>172.9</ele>
        <time>2015-11-11T14:57:18Z</time>
      </trkpt>
      <trkpt lat="43.72384" lon="1.25865">
        <ele>172.9</ele>
        <time>2015-11-11T14:57:19Z</time>
      </trkpt>
      <trkpt lat="43.7238" lon="1.25872">
        <ele>173</ele>
        <time>2015-11-11T14:57:20Z</time>
      </trkpt>
      <trkpt lat="43.72378" lon="1.25878">
        <ele>173</ele>
        <time>2015-11-11T14:57:21Z</time>
      </trkpt>
      <trkpt lat="43.72375" lon="1.25885">
        <ele>172.9</ele>
        <time>2015-11-11T14:57:22Z</time>
      </trkpt>
      <trkpt lat="43.72372" lon="1.2589">
        <ele>172.9</ele>
        <time>2015-11-11T14:57:23Z</time>
      </trkpt>
      <trkpt lat="43.7237" lon="1.25894">
        <ele>172.8</ele>
        <time>2015-11-11T14:57:24Z</time>
      </trkpt>
      <trkpt lat="43.72366" lon="1.25897">
        <ele>172.8</ele>
        <time>2015-11-11T14:57:25Z</time>
      </trkpt>
      <trkpt lat="43.72364" lon="1.25903">
        <ele>172.8</ele>
        <time>2015-11-11T14:57:26Z</time>
      </trkpt>
      <trkpt lat="43.72361" lon="1.25909">
        <ele>172.7</ele>
        <time>2015-11-11T14:57:27Z</time>
      </trkpt>
      <trkpt lat="43.72357" lon="1.25914">
        <ele>172.7</ele>
        <time>2015-11-11T14:57:28Z</time>
      </trkpt>
      <trkpt lat="43.72353" lon="1.25921">
        <ele>172.6</ele>
        <time>2015-11-11T14:57:29Z</time>
      </trkpt>
      <trkpt lat="43.72349" lon="1.25927">
        <ele>172.5</ele>
        <time>2015-11-11T14:57:30Z</time>
      </trkpt>
      <trkpt lat="43.72346" lon="1.25928">
        <ele>172.5</ele>
        <time>2015-11-11T14:57:31Z</time>
      </trkpt>
      <trkpt lat="43.72341" lon="1.25933">
        <ele>172.4</ele>
        <time>2015-11-11T14:57:32Z</time>
      </trkpt>
      <trkpt lat="43.72337" lon="1.25939">
        <ele>172.3</ele>
        <time>2015-11-11T14:57:33Z</time>
      </trkpt>
      <trkpt lat="43.72333" lon="1.25944">
        <ele>172.3</ele>
        <time>2015-11-11T14:57:34Z</time>
      </trkpt>
      <trkpt lat="43.72328" lon="1.25949">
        <ele>172.2</ele>
        <time>2015-11-11T14:57:35Z</time>
      </trkpt>
      <trkpt lat="43.72324" lon="1.25954">
        <ele>172.1</ele>
        <time>2015-11-11T14:57:36Z</time>
      </trkpt>
      <trkpt lat="43.7232" lon="1.25961">
        <ele>172</ele>
        <time>2015-11-11T14:57:37Z</time>
      </trkpt>
      <trkpt lat="43.72316" lon="1.25966">
        <ele>172</ele>
        <time>2015-11-11T14:57:38Z</time>
      </trkpt>
      <trkpt lat="43.72312" lon="1.25974">
        <ele>172</ele>
        <time>2015-11-11T14:57:39Z</time>
      </trkpt>
      <trkpt lat="43.72308" lon="1.25981">
        <ele>172</ele>
        <time>2015-11-11T14:57:40Z</time>
      </trkpt>
      <trkpt lat="43.72306" lon="1.25989">
        <ele>172</ele>
        <time>2015-11-11T14:57:41Z</time>
      </trkpt>
      <trkpt lat="43.72304" lon="1.25997">
        <ele>172</ele>
        <time>2015-11-11T14:57:42Z</time>
      </trkpt>
      <trkpt lat="43.72301" lon="1.26004">
        <ele>172</ele>
        <time>2015-11-11T14:57:43Z</time>
      </trkpt>
      <trkpt lat="43.723" lon="1.26012">
        <ele>172</ele>
        <time>2015-11-11T14:57:44Z</time>
      </trkpt>
      <trkpt lat="43.72297" lon="1.2602">
        <ele>172</ele>
        <time>2015-11-11T14:57:45Z</time>
      </trkpt>
      <trkpt lat="43.72296" lon="1.26025">
        <ele>172</ele>
        <time>2015-11-11T14:57:46Z</time>
      </trkpt>
      <trkpt lat="43.72294" lon="1.26033">
        <ele>172</ele>
        <time>2015-11-11T14:57:47Z</time>
      </trkpt>
      <trkpt lat="43.72292" lon="1.2604">
        <ele>172</ele>
        <time>2015-11-11T14:57:48Z</time>
      </trkpt>
      <trkpt lat="43.72289" lon="1.26048">
        <ele>171.9</ele>
        <time>2015-11-11T14:57:49Z</time>
      </trkpt>
      <trkpt lat="43.72288" lon="1.26057">
        <ele>171.8</ele>
        <time>2015-11-11T14:57:50Z</time>
      </trkpt>
      <trkpt lat="43.72286" lon="1.26064">
        <ele>171.7</ele>
        <time>2015-11-11T14:57:51Z</time>
      </trkpt>
      <trkpt lat="43.72285" lon="1.26071">
        <ele>171.7</ele>
        <time>2015-11-11T14:57:52Z</time>
      </trkpt>
      <trkpt lat="43.72284" lon="1.26079">
        <ele>171.6</ele>
        <time>2015-11-11T14:57:53Z</time>
      </trkpt>
      <trkpt lat="43.72282" lon="1.26088">
        <ele>171.5</ele>
        <time>2015-11-11T14:57:54Z</time>
      </trkpt>
      <trkpt lat="43.72282" lon="1.26097">
        <ele>171.4</ele>
        <time>2015-11-11T14:57:55Z</time>
      </trkpt>
      <trkpt lat="43.7228" lon="1.26106">
        <ele>171.3</ele>
        <time>2015-11-11T14:57:56Z</time>
      </trkpt>
      <trkpt lat="43.72281" lon="1.26114">
        <ele>171.2</ele>
        <time>2015-11-11T14:57:57Z</time>
      </trkpt>
      <trkpt lat="43.7228" lon="1.26123">
        <ele>171.2</ele>
        <time>2015-11-11T14:57:58Z</time>
      </trkpt>
      <trkpt lat="43.72279" lon="1.26132">
        <ele>171.1</ele>
        <time>2015-11-11T14:57:59Z</time>
      </trkpt>
      <trkpt lat="43.72278" lon="1.26141">
        <ele>170.9</ele>
        <time>2015-11-11T14:58:00Z</time>
      </trkpt>
      <trkpt lat="43.72277" lon="1.2615">
        <ele>170.8</ele>
        <time>2015-11-11T14:58:01Z</time>
      </trkpt>
      <trkpt lat="43.72277" lon="1.26159">
        <ele>170.7</ele>
        <time>2015-11-11T14:58:02Z</time>
      </trkpt>
      <trkpt lat="43.72276" lon="1.26166">
        <ele>170.6</ele>
        <time>2015-11-11T14:58:03Z</time>
      </trkpt>
      <trkpt lat="43.72275" lon="1.26176">
        <ele>170.5</ele>
        <time>2015-11-11T14:58:04Z</time>
      </trkpt>
      <trkpt lat="43.72273" lon="1.26185">
        <ele>170.3</ele>
        <time>2015-11-11T14:58:05Z</time>
      </trkpt>
      <trkpt lat="43.72273" lon="1.26194">
        <ele>170.2</ele>
        <time>2015-11-11T14:58:06Z</time>
      </trkpt>
      <trkpt lat="43.72271" lon="1.26205">
        <ele>170.1</ele>
        <time>2015-11-11T14:58:07Z</time>
      </trkpt>
      <trkpt lat="43.72269" lon="1.26215">
        <ele>170.1</ele>
        <time>2015-11-11T14:58:08Z</time>
      </trkpt>
      <trkpt lat="43.72268" lon="1.26223">
        <ele>170.1</ele>
        <time>2015-11-11T14:58:09Z</time>
      </trkpt>
      <trkpt lat="43.72267" lon="1.26232">
        <ele>170.2</ele>
        <time>2015-11-11T14:58:10Z</time>
      </trkpt>
      <trkpt lat="43.72267" lon="1.26239">
        <ele>170.3</ele>
        <time>2015-11-11T14:58:11Z</time>
      </trkpt>
      <trkpt lat="43.72265" lon="1.26247">
        <ele>170.3</ele>
        <time>2015-11-11T14:58:12Z</time>
      </trkpt>
      <trkpt lat="43.72262" lon="1.26256">
        <ele>170.4</ele>
        <time>2015-11-11T14:58:13Z</time>
      </trkpt>
      <trkpt lat="43.7226" lon="1.26265">
        <ele>170.4</ele>
        <time>2015-11-11T14:58:14Z</time>
      </trkpt>
      <trkpt lat="43.72256" lon="1.26276">
        <ele>170.5</ele>
        <time>2015-11-11T14:58:15Z</time>
      </trkpt>
      <trkpt lat="43.72253" lon="1.26285">
        <ele>170.5</ele>
        <time>2015-11-11T14:58:16Z</time>
      </trkpt>
      <trkpt lat="43.7225" lon="1.26292">
        <ele>170.5</ele>
        <time>2015-11-11T14:58:17Z</time>
      </trkpt>
      <trkpt lat="43.72248" lon="1.26301">
        <ele>170.5</ele>
        <time>2015-11-11T14:58:18Z</time>
      </trkpt>
      <trkpt lat="43.72245" lon="1.26308">
        <ele>170.5</ele>
        <time>2015-11-11T14:58:19Z</time>
      </trkpt>
      <trkpt lat="43.72242" lon="1.26316">
        <ele>170.5</ele>
        <time>2015-11-11T14:58:20Z</time>
      </trkpt>
      <trkpt lat="43.72238" lon="1.26324">
        <ele>170.5</ele>
        <time>2015-11-11T14:58:21Z</time>
      </trkpt>
      <trkpt lat="43.72234" lon="1.26332">
        <ele>170.5</ele>
        <time>2015-11-11T14:58:22Z</time>
      </trkpt>
      <trkpt lat="43.72231" lon="1.26342">
        <ele>170.5</ele>
        <time>2015-11-11T14:58:23Z</time>
      </trkpt>
      <trkpt lat="43.72226" lon="1.2635">
        <ele>170.6</ele>
        <time>2015-11-11T14:58:24Z</time>
      </trkpt>
      <trkpt lat="43.72224" lon="1.26355">
        <ele>170.7</ele>
        <time>2015-11-11T14:58:25Z</time>
      </trkpt>
      <trkpt lat="43.7222" lon="1.26362">
        <ele>170.7</ele>
        <time>2015-11-11T14:58:26Z</time>
      </trkpt>
      <trkpt lat="43.72216" lon="1.26369">
        <ele>170.8</ele>
        <time>2015-11-11T14:58:27Z</time>
      </trkpt>
      <trkpt lat="43.72212" lon="1.26377">
        <ele>171</ele>
        <time>2015-11-11T14:58:28Z</time>
      </trkpt>
      <trkpt lat="43.72207" lon="1.26386">
        <ele>171</ele>
        <time>2015-11-11T14:58:29Z</time>
      </trkpt>
      <trkpt lat="43.72203" lon="1.26392">
        <ele>171</ele>
        <time>2015-11-11T14:58:30Z</time>
      </trkpt>
      <trkpt lat="43.72198" lon="1.264">
        <ele>171</ele>
        <time>2015-11-11T14:58:31Z</time>
      </trkpt>
      <trkpt lat="43.72194" lon="1.26408">
        <ele>171</ele>
        <time>2015-11-11T14:58:32Z</time>
      </trkpt>
      <trkpt lat="43.7219" lon="1.26415">
        <ele>171</ele>
        <time>2015-11-11T14:58:33Z</time>
      </trkpt>
      <trkpt lat="43.72186" lon="1.26424">
        <ele>171</ele>
        <time>2015-11-11T14:58:34Z</time>
      </trkpt>
      <trkpt lat="43.72182" lon="1.26431">
        <ele>171</ele>
        <time>2015-11-11T14:58:35Z</time>
      </trkpt>
      <trkpt lat="43.72178" lon="1.26438">
        <ele>171</ele>
        <time>2015-11-11T14:58:36Z</time>
      </trkpt>
      <trkpt lat="43.72175" lon="1.26446">
        <ele>171</ele>
        <time>2015-11-11T14:58:37Z</time>
      </trkpt>
      <trkpt lat="43.72171" lon="1.26455">
        <ele>171</ele>
        <time>2015-11-11T14:58:38Z</time>
      </trkpt>
      <trkpt lat="43.72168" lon="1.26462">
        <ele>171</ele>
        <time>2015-11-11T14:58:39Z</time>
      </trkpt>
      <trkpt lat="43.72165" lon="1.26469">
        <ele>171</ele>
        <time>2015-11-11T14:58:40Z</time>
      </trkpt>
      <trkpt lat="43.72161" lon="1.26476">
        <ele>171</ele>
        <time>2015-11-11T14:58:41Z</time>
      </trkpt>
      <trkpt lat="43.72157" lon="1.26482">
        <ele>171</ele>
        <time>2015-11-11T14:58:42Z</time>
      </trkpt>
      <trkpt lat="43.72153" lon="1.26488">
        <ele>171</ele>
        <time>2015-11-11T14:58:43Z</time>
      </trkpt>
      <trkpt lat="43.7215" lon="1.26496">
        <ele>171</ele>
        <time>2015-11-11T14:58:44Z</time>
      </trkpt>
      <trkpt lat="43.72147" lon="1.26504">
        <ele>171</ele>
        <time>2015-11-11T14:58:45Z</time>
      </trkpt>
      <trkpt lat="43.72142" lon="1.2651">
        <ele>171</ele>
        <time>2015-11-11T14:58:46Z</time>
      </trkpt>
      <trkpt lat="43.72139" lon="1.26517">
        <ele>171</ele>
        <time>2015-11-11T14:58:47Z</time>
      </trkpt>
      <trkpt lat="43.72135" lon="1.26524">
        <ele>171</ele>
        <time>2015-11-11T14:58:48Z</time>
      </trkpt>
      <trkpt lat="43.72131" lon="1.2653">
        <ele>171</ele>
        <time>2015-11-11T14:58:49Z</time>
      </trkpt>
      <trkpt lat="43.72127" lon="1.26537">
        <ele>171</ele>
        <time>2015-11-11T14:58:50Z</time>
      </trkpt>
      <trkpt lat="43.72124" lon="1.26542">
        <ele>171</ele>
        <time>2015-11-11T14:58:51Z</time>
      </trkpt>
      <trkpt lat="43.72121" lon="1.2655">
        <ele>171.1</ele>
        <time>2015-11-11T14:58:52Z</time>
      </trkpt>
      <trkpt lat="43.72117" lon="1.26558">
        <ele>171.3</ele>
        <time>2015-11-11T14:58:53Z</time>
      </trkpt>
      <trkpt lat="43.72113" lon="1.26565">
        <ele>171.4</ele>
        <time>2015-11-11T14:58:54Z</time>
      </trkpt>
      <trkpt lat="43.72109" lon="1.26574">
        <ele>171.5</ele>
        <time>2015-11-11T14:58:55Z</time>
      </trkpt>
      <trkpt lat="43.72106" lon="1.26581">
        <ele>171.6</ele>
        <time>2015-11-11T14:58:56Z</time>
      </trkpt>
      <trkpt lat="43.72102" lon="1.26588">
        <ele>171.7</ele>
        <time>2015-11-11T14:58:57Z</time>
      </trkpt>
      <trkpt lat="43.72099" lon="1.26597">
        <ele>171.8</ele>
        <time>2015-11-11T14:58:58Z</time>
      </trkpt>
      <trkpt lat="43.72095" lon="1.26606">
        <ele>171.9</ele>
        <time>2015-11-11T14:58:59Z</time>
      </trkpt>
      <trkpt lat="43.72092" lon="1.26614">
        <ele>171.9</ele>
        <time>2015-11-11T14:59:00Z</time>
      </trkpt>
      <trkpt lat="43.72088" lon="1.2662">
        <ele>172</ele>
        <time>2015-11-11T14:59:01Z</time>
      </trkpt>
      <trkpt lat="43.72084" lon="1.26627">
        <ele>172</ele>
        <time>2015-11-11T14:59:02Z</time>
      </trkpt>
      <trkpt lat="43.7208" lon="1.26634">
        <ele>172</ele>
        <time>2015-11-11T14:59:03Z</time>
      </trkpt>
      <trkpt lat="43.72077" lon="1.26642">
        <ele>172</ele>
        <time>2015-11-11T14:59:04Z</time>
      </trkpt>
      <trkpt lat="43.72073" lon="1.2665">
        <ele>172</ele>
        <time>2015-11-11T14:59:05Z</time>
      </trkpt>
      <trkpt lat="43.7207" lon="1.26658">
        <ele>172</ele>
        <time>2015-11-11T14:59:06Z</time>
      </trkpt>
      <trkpt lat="43.72065" lon="1.26668">
        <ele>172</ele>
        <time>2015-11-11T14:59:07Z</time>
      </trkpt>
      <trkpt lat="43.72063" lon="1.26675">
        <ele>172</ele>
        <time>2015-11-11T14:59:08Z</time>
      </trkpt>
      <trkpt lat="43.72059" lon="1.26684">
        <ele>172</ele>
        <time>2015-11-11T14:59:09Z</time>
      </trkpt>
      <trkpt lat="43.72055" lon="1.26691">
        <ele>172</ele>
        <time>2015-11-11T14:59:10Z</time>
      </trkpt>
      <trkpt lat="43.72052" lon="1.26699">
        <ele>172</ele>
        <time>2015-11-11T14:59:11Z</time>
      </trkpt>
      <trkpt lat="43.72048" lon="1.26707">
        <ele>172</ele>
        <time>2015-11-11T14:59:12Z</time>
      </trkpt>
      <trkpt lat="43.72043" lon="1.26717">
        <ele>171.9</ele>
        <time>2015-11-11T14:59:13Z</time>
      </trkpt>
      <trkpt lat="43.72041" lon="1.26723">
        <ele>171.8</ele>
        <time>2015-11-11T14:59:14Z</time>
      </trkpt>
      <trkpt lat="43.72037" lon="1.26732">
        <ele>171.8</ele>
        <time>2015-11-11T14:59:15Z</time>
      </trkpt>
      <trkpt lat="43.72034" lon="1.26741">
        <ele>171.7</ele>
        <time>2015-11-11T14:59:16Z</time>
      </trkpt>
      <trkpt lat="43.7203" lon="1.26748">
        <ele>171.7</ele>
        <time>2015-11-11T14:59:17Z</time>
      </trkpt>
      <trkpt lat="43.72027" lon="1.26757">
        <ele>171.7</ele>
        <time>2015-11-11T14:59:18Z</time>
      </trkpt>
      <trkpt lat="43.72023" lon="1.26766">
        <ele>171.7</ele>
        <time>2015-11-11T14:59:19Z</time>
      </trkpt>
      <trkpt lat="43.72019" lon="1.26774">
        <ele>171.7</ele>
        <time>2015-11-11T14:59:20Z</time>
      </trkpt>
      <trkpt lat="43.72015" lon="1.26783">
        <ele>171.7</ele>
        <time>2015-11-11T14:59:21Z</time>
      </trkpt>
      <trkpt lat="43.72011" lon="1.26792">
        <ele>171.7</ele>
        <time>2015-11-11T14:59:22Z</time>
      </trkpt>
      <trkpt lat="43.72008" lon="1.26799">
        <ele>171.9</ele>
        <time>2015-11-11T14:59:23Z</time>
      </trkpt>
      <trkpt lat="43.72005" lon="1.26808">
        <ele>172</ele>
        <time>2015-11-11T14:59:24Z</time>
      </trkpt>
      <trkpt lat="43.72002" lon="1.26818">
        <ele>172.1</ele>
        <time>2015-11-11T14:59:25Z</time>
      </trkpt>
      <trkpt lat="43.71999" lon="1.26828">
        <ele>172.2</ele>
        <time>2015-11-11T14:59:26Z</time>
      </trkpt>
      <trkpt lat="43.71994" lon="1.26838">
        <ele>172.3</ele>
        <time>2015-11-11T14:59:27Z</time>
      </trkpt>
      <trkpt lat="43.71991" lon="1.26846">
        <ele>172.3</ele>
        <time>2015-11-11T14:59:28Z</time>
      </trkpt>
      <trkpt lat="43.71988" lon="1.26856">
        <ele>172.3</ele>
        <time>2015-11-11T14:59:29Z</time>
      </trkpt>
      <trkpt lat="43.71986" lon="1.26865">
        <ele>172.3</ele>
        <time>2015-11-11T14:59:30Z</time>
      </trkpt>
      <trkpt lat="43.71985" lon="1.26874">
        <ele>172.3</ele>
        <time>2015-11-11T14:59:31Z</time>
      </trkpt>
      <trkpt lat="43.71983" lon="1.26883">
        <ele>172.1</ele>
        <time>2015-11-11T14:59:32Z</time>
      </trkpt>
      <trkpt lat="43.71981" lon="1.26894">
        <ele>171.8</ele>
        <time>2015-11-11T14:59:33Z</time>
      </trkpt>
      <trkpt lat="43.71979" lon="1.26903">
        <ele>171.6</ele>
        <time>2015-11-11T14:59:34Z</time>
      </trkpt>
      <trkpt lat="43.71977" lon="1.26912">
        <ele>171.3</ele>
        <time>2015-11-11T14:59:35Z</time>
      </trkpt>
      <trkpt lat="43.71975" lon="1.26922">
        <ele>171.1</ele>
        <time>2015-11-11T14:59:36Z</time>
      </trkpt>
      <trkpt lat="43.71973" lon="1.26933">
        <ele>170.8</ele>
        <time>2015-11-11T14:59:37Z</time>
      </trkpt>
      <trkpt lat="43.71969" lon="1.26942">
        <ele>170.5</ele>
        <time>2015-11-11T14:59:38Z</time>
      </trkpt>
      <trkpt lat="43.71967" lon="1.26949">
        <ele>170.3</ele>
        <time>2015-11-11T14:59:39Z</time>
      </trkpt>
      <trkpt lat="43.71968" lon="1.26957">
        <ele>170.2</ele>
        <time>2015-11-11T14:59:40Z</time>
      </trkpt>
      <trkpt lat="43.71966" lon="1.26968">
        <ele>170</ele>
        <time>2015-11-11T14:59:41Z</time>
      </trkpt>
      <trkpt lat="43.71963" lon="1.26979">
        <ele>169.8</ele>
        <time>2015-11-11T14:59:42Z</time>
      </trkpt>
      <trkpt lat="43.71959" lon="1.26987">
        <ele>169.7</ele>
        <time>2015-11-11T14:59:43Z</time>
      </trkpt>
      <trkpt lat="43.71957" lon="1.26995">
        <ele>169.6</ele>
        <time>2015-11-11T14:59:44Z</time>
      </trkpt>
      <trkpt lat="43.71954" lon="1.27004">
        <ele>169.5</ele>
        <time>2015-11-11T14:59:45Z</time>
      </trkpt>
      <trkpt lat="43.71953" lon="1.27013">
        <ele>169.5</ele>
        <time>2015-11-11T14:59:46Z</time>
      </trkpt>
      <trkpt lat="43.71952" lon="1.27023">
        <ele>169.4</ele>
        <time>2015-11-11T14:59:47Z</time>
      </trkpt>
      <trkpt lat="43.71951" lon="1.27032">
        <ele>169.3</ele>
        <time>2015-11-11T14:59:48Z</time>
      </trkpt>
      <trkpt lat="43.71949" lon="1.27042">
        <ele>169.2</ele>
        <time>2015-11-11T14:59:49Z</time>
      </trkpt>
      <trkpt lat="43.71948" lon="1.2705">
        <ele>169.4</ele>
        <time>2015-11-11T14:59:50Z</time>
      </trkpt>
      <trkpt lat="43.71946" lon="1.27061">
        <ele>169.7</ele>
        <time>2015-11-11T14:59:51Z</time>
      </trkpt>
      <trkpt lat="43.71944" lon="1.27069">
        <ele>169.9</ele>
        <time>2015-11-11T14:59:52Z</time>
      </trkpt>
      <trkpt lat="43.71942" lon="1.27079">
        <ele>170.1</ele>
        <time>2015-11-11T14:59:53Z</time>
      </trkpt>
      <trkpt lat="43.7194" lon="1.27088">
        <ele>170.3</ele>
        <time>2015-11-11T14:59:54Z</time>
      </trkpt>
      <trkpt lat="43.71939" lon="1.27097">
        <ele>170.5</ele>
        <time>2015-11-11T14:59:55Z</time>
      </trkpt>
      <trkpt lat="43.71937" lon="1.27106">
        <ele>170.7</ele>
        <time>2015-11-11T14:59:56Z</time>
      </trkpt>
      <trkpt lat="43.71935" lon="1.27115">
        <ele>170.8</ele>
        <time>2015-11-11T14:59:57Z</time>
      </trkpt>
      <trkpt lat="43.71933" lon="1.27123">
        <ele>171</ele>
        <time>2015-11-11T14:59:58Z</time>
      </trkpt>
      <trkpt lat="43.7193" lon="1.27133">
        <ele>171.1</ele>
        <time>2015-11-11T14:59:59Z</time>
      </trkpt>
      <trkpt lat="43.71928" lon="1.27141">
        <ele>171.2</ele>
        <time>2015-11-11T15:00:00Z</time>
      </trkpt>
      <trkpt lat="43.71925" lon="1.2715">
        <ele>171.4</ele>
        <time>2015-11-11T15:00:01Z</time>
      </trkpt>
      <trkpt lat="43.71922" lon="1.27158">
        <ele>171.5</ele>
        <time>2015-11-11T15:00:02Z</time>
      </trkpt>
      <trkpt lat="43.7192" lon="1.27165">
        <ele>171.5</ele>
        <time>2015-11-11T15:00:03Z</time>
      </trkpt>
      <trkpt lat="43.71918" lon="1.27174">
        <ele>171.6</ele>
        <time>2015-11-11T15:00:04Z</time>
      </trkpt>
      <trkpt lat="43.71916" lon="1.27182">
        <ele>171.7</ele>
        <time>2015-11-11T15:00:05Z</time>
      </trkpt>
      <trkpt lat="43.71914" lon="1.2719">
        <ele>171.7</ele>
        <time>2015-11-11T15:00:06Z</time>
      </trkpt>
      <trkpt lat="43.71911" lon="1.27199">
        <ele>171.8</ele>
        <time>2015-11-11T15:00:07Z</time>
      </trkpt>
      <trkpt lat="43.71909" lon="1.27207">
        <ele>171.8</ele>
        <time>2015-11-11T15:00:08Z</time>
      </trkpt>
      <trkpt lat="43.71905" lon="1.27217">
        <ele>171.8</ele>
        <time>2015-11-11T15:00:09Z</time>
      </trkpt>
      <trkpt lat="43.71902" lon="1.27225">
        <ele>171.8</ele>
        <time>2015-11-11T15:00:10Z</time>
      </trkpt>
      <trkpt lat="43.719" lon="1.27233">
        <ele>171.8</ele>
        <time>2015-11-11T15:00:11Z</time>
      </trkpt>
      <trkpt lat="43.71897" lon="1.27241">
        <ele>171.8</ele>
        <time>2015-11-11T15:00:12Z</time>
      </trkpt>
      <trkpt lat="43.71894" lon="1.27252">
        <ele>171.9</ele>
        <time>2015-11-11T15:00:13Z</time>
      </trkpt>
      <trkpt lat="43.71891" lon="1.2726">
        <ele>171.9</ele>
        <time>2015-11-11T15:00:14Z</time>
      </trkpt>
      <trkpt lat="43.71889" lon="1.27269">
        <ele>171.9</ele>
        <time>2015-11-11T15:00:15Z</time>
      </trkpt>
      <trkpt lat="43.71887" lon="1.27277">
        <ele>172</ele>
        <time>2015-11-11T15:00:16Z</time>
      </trkpt>
      <trkpt lat="43.71885" lon="1.27282">
        <ele>172</ele>
        <time>2015-11-11T15:00:17Z</time>
      </trkpt>
      <trkpt lat="43.71881" lon="1.27288">
        <ele>172</ele>
        <time>2015-11-11T15:00:18Z</time>
      </trkpt>
      <trkpt lat="43.71878" lon="1.27297">
        <ele>172.1</ele>
        <time>2015-11-11T15:00:19Z</time>
      </trkpt>
      <trkpt lat="43.71876" lon="1.27305">
        <ele>172.3</ele>
        <time>2015-11-11T15:00:20Z</time>
      </trkpt>
      <trkpt lat="43.71874" lon="1.27314">
        <ele>172.5</ele>
        <time>2015-11-11T15:00:21Z</time>
      </trkpt>
      <trkpt lat="43.71872" lon="1.27321">
        <ele>172.7</ele>
        <time>2015-11-11T15:00:22Z</time>
      </trkpt>
      <trkpt lat="43.71871" lon="1.27329">
        <ele>172.9</ele>
        <time>2015-11-11T15:00:23Z</time>
      </trkpt>
      <trkpt lat="43.71868" lon="1.27337">
        <ele>173</ele>
        <time>2015-11-11T15:00:24Z</time>
      </trkpt>
      <trkpt lat="43.71866" lon="1.27346">
        <ele>173.2</ele>
        <time>2015-11-11T15:00:25Z</time>
      </trkpt>
      <trkpt lat="43.71864" lon="1.27355">
        <ele>173.4</ele>
        <time>2015-11-11T15:00:26Z</time>
      </trkpt>
      <trkpt lat="43.71861" lon="1.27364">
        <ele>173.6</ele>
        <time>2015-11-11T15:00:27Z</time>
      </trkpt>
      <trkpt lat="43.7186" lon="1.27373">
        <ele>173.8</ele>
        <time>2015-11-11T15:00:28Z</time>
      </trkpt>
      <trkpt lat="43.71857" lon="1.27382">
        <ele>173.8</ele>
        <time>2015-11-11T15:00:29Z</time>
      </trkpt>
      <trkpt lat="43.71856" lon="1.2739">
        <ele>173.7</ele>
        <time>2015-11-11T15:00:30Z</time>
      </trkpt>
      <trkpt lat="43.7185" lon="1.27401">
        <ele>173.6</ele>
        <time>2015-11-11T15:00:31Z</time>
      </trkpt>
      <trkpt lat="43.71848" lon="1.27413">
        <ele>173.5</ele>
        <time>2015-11-11T15:00:32Z</time>
      </trkpt>
      <trkpt lat="43.71846" lon="1.27422">
        <ele>173.4</ele>
        <time>2015-11-11T15:00:33Z</time>
      </trkpt>
      <trkpt lat="43.71842" lon="1.27431">
        <ele>173.3</ele>
        <time>2015-11-11T15:00:34Z</time>
      </trkpt>
      <trkpt lat="43.71839" lon="1.2744">
        <ele>173.2</ele>
        <time>2015-11-11T15:00:35Z</time>
      </trkpt>
      <trkpt lat="43.71836" lon="1.27449">
        <ele>173.1</ele>
        <time>2015-11-11T15:00:36Z</time>
      </trkpt>
      <trkpt lat="43.71833" lon="1.27458">
        <ele>173</ele>
        <time>2015-11-11T15:00:37Z</time>
      </trkpt>
      <trkpt lat="43.7183" lon="1.2747">
        <ele>172.9</ele>
        <time>2015-11-11T15:00:38Z</time>
      </trkpt>
      <trkpt lat="43.71828" lon="1.2748">
        <ele>172.8</ele>
        <time>2015-11-11T15:00:39Z</time>
      </trkpt>
      <trkpt lat="43.71824" lon="1.2749">
        <ele>172.6</ele>
        <time>2015-11-11T15:00:40Z</time>
      </trkpt>
      <trkpt lat="43.71822" lon="1.27499">
        <ele>172.5</ele>
        <time>2015-11-11T15:00:41Z</time>
      </trkpt>
      <trkpt lat="43.7182" lon="1.27506">
        <ele>172.5</ele>
        <time>2015-11-11T15:00:42Z</time>
      </trkpt>
      <trkpt lat="43.71818" lon="1.27515">
        <ele>172.4</ele>
        <time>2015-11-11T15:00:43Z</time>
      </trkpt>
      <trkpt lat="43.71815" lon="1.27523">
        <ele>172.3</ele>
        <time>2015-11-11T15:00:44Z</time>
      </trkpt>
      <trkpt lat="43.71812" lon="1.2753">
        <ele>172.3</ele>
        <time>2015-11-11T15:00:45Z</time>
      </trkpt>
      <trkpt lat="43.71807" lon="1.27541">
        <ele>172.2</ele>
        <time>2015-11-11T15:00:46Z</time>
      </trkpt>
      <trkpt lat="43.71803" lon="1.27548">
        <ele>172.2</ele>
        <time>2015-11-11T15:00:47Z</time>
      </trkpt>
      <trkpt lat="43.718" lon="1.27557">
        <ele>172.3</ele>
        <time>2015-11-11T15:00:48Z</time>
      </trkpt>
      <trkpt lat="43.71797" lon="1.27564">
        <ele>172.3</ele>
        <time>2015-11-11T15:00:49Z</time>
      </trkpt>
      <trkpt lat="43.71793" lon="1.27574">
        <ele>172.4</ele>
        <time>2015-11-11T15:00:50Z</time>
      </trkpt>
      <trkpt lat="43.7179" lon="1.27584">
        <ele>172.5</ele>
        <time>2015-11-11T15:00:51Z</time>
      </trkpt>
      <trkpt lat="43.71787" lon="1.27592">
        <ele>172.6</ele>
        <time>2015-11-11T15:00:52Z</time>
      </trkpt>
      <trkpt lat="43.71784" lon="1.27601">
        <ele>172.7</ele>
        <time>2015-11-11T15:00:53Z</time>
      </trkpt>
      <trkpt lat="43.71781" lon="1.27609">
        <ele>172.8</ele>
        <time>2015-11-11T15:00:54Z</time>
      </trkpt>
      <trkpt lat="43.71777" lon="1.27618">
        <ele>172.9</ele>
        <time>2015-11-11T15:00:55Z</time>
      </trkpt>
      <trkpt lat="43.71773" lon="1.27628">
        <ele>173</ele>
        <time>2015-11-11T15:00:56Z</time>
      </trkpt>
      <trkpt lat="43.71771" lon="1.27636">
        <ele>172.9</ele>
        <time>2015-11-11T15:00:57Z</time>
      </trkpt>
      <trkpt lat="43.71768" lon="1.27645">
        <ele>172.8</ele>
        <time>2015-11-11T15:00:58Z</time>
      </trkpt>
      <trkpt lat="43.71765" lon="1.27655">
        <ele>172.8</ele>
        <time>2015-11-11T15:00:59Z</time>
      </trkpt>
      <trkpt lat="43.71763" lon="1.27665">
        <ele>172.7</ele>
        <time>2015-11-11T15:01:00Z</time>
      </trkpt>
      <trkpt lat="43.7176" lon="1.27674">
        <ele>172.6</ele>
        <time>2015-11-11T15:01:01Z</time>
      </trkpt>
      <trkpt lat="43.71758" lon="1.27681">
        <ele>172.6</ele>
        <time>2015-11-11T15:01:02Z</time>
      </trkpt>
      <trkpt lat="43.71757" lon="1.27689">
        <ele>172.5</ele>
        <time>2015-11-11T15:01:03Z</time>
      </trkpt>
      <trkpt lat="43.71755" lon="1.27698">
        <ele>172.5</ele>
        <time>2015-11-11T15:01:04Z</time>
      </trkpt>
      <trkpt lat="43.71753" lon="1.27708">
        <ele>172.5</ele>
        <time>2015-11-11T15:01:05Z</time>
      </trkpt>
      <trkpt lat="43.71751" lon="1.27715">
        <ele>172.5</ele>
        <time>2015-11-11T15:01:06Z</time>
      </trkpt>
      <trkpt lat="43.7175" lon="1.27725">
        <ele>172.5</ele>
        <time>2015-11-11T15:01:07Z</time>
      </trkpt>
      <trkpt lat="43.71748" lon="1.27734">
        <ele>172.5</ele>
        <time>2015-11-11T15:01:08Z</time>
      </trkpt>
      <trkpt lat="43.71746" lon="1.27744">
        <ele>172.5</ele>
        <time>2015-11-11T15:01:09Z</time>
      </trkpt>
      <trkpt lat="43.71746" lon="1.27754">
        <ele>172.5</ele>
        <time>2015-11-11T15:01:10Z</time>
      </trkpt>
      <trkpt lat="43.71745" lon="1.27764">
        <ele>172.6</ele>
        <time>2015-11-11T15:01:11Z</time>
      </trkpt>
      <trkpt lat="43.71744" lon="1.27775">
        <ele>172.6</ele>
        <time>2015-11-11T15:01:12Z</time>
      </trkpt>
      <trkpt lat="43.71743" lon="1.27785">
        <ele>172.6</ele>
        <time>2015-11-11T15:01:13Z</time>
      </trkpt>
      <trkpt lat="43.71743" lon="1.27795">
        <ele>172.6</ele>
        <time>2015-11-11T15:01:14Z</time>
      </trkpt>
      <trkpt lat="43.71743" lon="1.27805">
        <ele>172.5</ele>
        <time>2015-11-11T15:01:15Z</time>
      </trkpt>
      <trkpt lat="43.71744" lon="1.27817">
        <ele>172.4</ele>
        <time>2015-11-11T15:01:16Z</time>
      </trkpt>
      <trkpt lat="43.71743" lon="1.27827">
        <ele>172.3</ele>
        <time>2015-11-11T15:01:17Z</time>
      </trkpt>
      <trkpt lat="43.71744" lon="1.27835">
        <ele>172.2</ele>
        <time>2015-11-11T15:01:18Z</time>
      </trkpt>
      <trkpt lat="43.71743" lon="1.27844">
        <ele>172.1</ele>
        <time>2015-11-11T15:01:19Z</time>
      </trkpt>
      <trkpt lat="43.71743" lon="1.27855">
        <ele>172</ele>
        <time>2015-11-11T15:01:20Z</time>
      </trkpt>
      <trkpt lat="43.71744" lon="1.27866">
        <ele>171.9</ele>
        <time>2015-11-11T15:01:21Z</time>
      </trkpt>
      <trkpt lat="43.71745" lon="1.27872">
        <ele>171.9</ele>
        <time>2015-11-11T15:01:22Z</time>
      </trkpt>
      <trkpt lat="43.71746" lon="1.2788">
        <ele>171.9</ele>
        <time>2015-11-11T15:01:23Z</time>
      </trkpt>
      <trkpt lat="43.71747" lon="1.27889">
        <ele>171.9</ele>
        <time>2015-11-11T15:01:24Z</time>
      </trkpt>
      <trkpt lat="43.71747" lon="1.27899">
        <ele>171.9</ele>
        <time>2015-11-11T15:01:25Z</time>
      </trkpt>
      <trkpt lat="43.71746" lon="1.27908">
        <ele>171.9</ele>
        <time>2015-11-11T15:01:26Z</time>
      </trkpt>
      <trkpt lat="43.71746" lon="1.27918">
        <ele>171.9</ele>
        <time>2015-11-11T15:01:27Z</time>
      </trkpt>
      <trkpt lat="43.71747" lon="1.27928">
        <ele>171.9</ele>
        <time>2015-11-11T15:01:28Z</time>
      </trkpt>
      <trkpt lat="43.71748" lon="1.27937">
        <ele>172</ele>
        <time>2015-11-11T15:01:29Z</time>
      </trkpt>
      <trkpt lat="43.71748" lon="1.27947">
        <ele>171.9</ele>
        <time>2015-11-11T15:01:30Z</time>
      </trkpt>
      <trkpt lat="43.71748" lon="1.27957">
        <ele>171.9</ele>
        <time>2015-11-11T15:01:31Z</time>
      </trkpt>
      <trkpt lat="43.71747" lon="1.27966">
        <ele>171.9</ele>
        <time>2015-11-11T15:01:32Z</time>
      </trkpt>
      <trkpt lat="43.71746" lon="1.27977">
        <ele>171.9</ele>
        <time>2015-11-11T15:01:33Z</time>
      </trkpt>
      <trkpt lat="43.71746" lon="1.27988">
        <ele>171.9</ele>
        <time>2015-11-11T15:01:34Z</time>
      </trkpt>
      <trkpt lat="43.71747" lon="1.27998">
        <ele>172</ele>
        <time>2015-11-11T15:01:35Z</time>
      </trkpt>
      <trkpt lat="43.71747" lon="1.28008">
        <ele>172</ele>
        <time>2015-11-11T15:01:36Z</time>
      </trkpt>
      <trkpt lat="43.71746" lon="1.28018">
        <ele>172</ele>
        <time>2015-11-11T15:01:37Z</time>
      </trkpt>
      <trkpt lat="43.71745" lon="1.28029">
        <ele>172</ele>
        <time>2015-11-11T15:01:38Z</time>
      </trkpt>
      <trkpt lat="43.71745" lon="1.28039">
        <ele>172</ele>
        <time>2015-11-11T15:01:39Z</time>
      </trkpt>
      <trkpt lat="43.71746" lon="1.28045">
        <ele>172</ele>
        <time>2015-11-11T15:01:40Z</time>
      </trkpt>
      <trkpt lat="43.71747" lon="1.28053">
        <ele>172.1</ele>
        <time>2015-11-11T15:01:41Z</time>
      </trkpt>
      <trkpt lat="43.71746" lon="1.28062">
        <ele>172.1</ele>
        <time>2015-11-11T15:01:42Z</time>
      </trkpt>
      <trkpt lat="43.71745" lon="1.28071">
        <ele>172.2</ele>
        <time>2015-11-11T15:01:43Z</time>
      </trkpt>
      <trkpt lat="43.71744" lon="1.2808">
        <ele>172.2</ele>
        <time>2015-11-11T15:01:44Z</time>
      </trkpt>
      <trkpt lat="43.71745" lon="1.28091">
        <ele>172.3</ele>
        <time>2015-11-11T15:01:45Z</time>
      </trkpt>
      <trkpt lat="43.71745" lon="1.28101">
        <ele>172.3</ele>
        <time>2015-11-11T15:01:46Z</time>
      </trkpt>
      <trkpt lat="43.71744" lon="1.28112">
        <ele>172.4</ele>
        <time>2015-11-11T15:01:47Z</time>
      </trkpt>
      <trkpt lat="43.71744" lon="1.28122">
        <ele>172.4</ele>
        <time>2015-11-11T15:01:48Z</time>
      </trkpt>
      <trkpt lat="43.71744" lon="1.28132">
        <ele>172.5</ele>
        <time>2015-11-11T15:01:49Z</time>
      </trkpt>
      <trkpt lat="43.71746" lon="1.28136">
        <ele>172.5</ele>
        <time>2015-11-11T15:01:50Z</time>
      </trkpt>
      <trkpt lat="43.71746" lon="1.28146">
        <ele>172.6</ele>
        <time>2015-11-11T15:01:51Z</time>
      </trkpt>
      <trkpt lat="43.71746" lon="1.28156">
        <ele>172.7</ele>
        <time>2015-11-11T15:01:52Z</time>
      </trkpt>
      <trkpt lat="43.71746" lon="1.28165">
        <ele>172.7</ele>
        <time>2015-11-11T15:01:53Z</time>
      </trkpt>
      <trkpt lat="43.71747" lon="1.28173">
        <ele>172.8</ele>
        <time>2015-11-11T15:01:54Z</time>
      </trkpt>
      <trkpt lat="43.71747" lon="1.28183">
        <ele>172.8</ele>
        <time>2015-11-11T15:01:55Z</time>
      </trkpt>
      <trkpt lat="43.71746" lon="1.28195">
        <ele>172.9</ele>
        <time>2015-11-11T15:01:56Z</time>
      </trkpt>
      <trkpt lat="43.71745" lon="1.28203">
        <ele>173</ele>
        <time>2015-11-11T15:01:57Z</time>
      </trkpt>
      <trkpt lat="43.71746" lon="1.28212">
        <ele>173</ele>
        <time>2015-11-11T15:01:58Z</time>
      </trkpt>
      <trkpt lat="43.71744" lon="1.28223">
        <ele>173</ele>
        <time>2015-11-11T15:01:59Z</time>
      </trkpt>
      <trkpt lat="43.71743" lon="1.28233">
        <ele>173</ele>
        <time>2015-11-11T15:02:00Z</time>
      </trkpt>
      <trkpt lat="43.71742" lon="1.2824">
        <ele>173</ele>
        <time>2015-11-11T15:02:01Z</time>
      </trkpt>
      <trkpt lat="43.71742" lon="1.28248">
        <ele>173</ele>
        <time>2015-11-11T15:02:02Z</time>
      </trkpt>
      <trkpt lat="43.71742" lon="1.28257">
        <ele>173</ele>
        <time>2015-11-11T15:02:03Z</time>
      </trkpt>
      <trkpt lat="43.71741" lon="1.28267">
        <ele>173</ele>
        <time>2015-11-11T15:02:04Z</time>
      </trkpt>
      <trkpt lat="43.7174" lon="1.28277">
        <ele>173</ele>
        <time>2015-11-11T15:02:05Z</time>
      </trkpt>
      <trkpt lat="43.71738" lon="1.28289">
        <ele>173</ele>
        <time>2015-11-11T15:02:06Z</time>
      </trkpt>
      <trkpt lat="43.71736" lon="1.283">
        <ele>172.9</ele>
        <time>2015-11-11T15:02:07Z</time>
      </trkpt>
      <trkpt lat="43.71734" lon="1.28311">
        <ele>172.9</ele>
        <time>2015-11-11T15:02:08Z</time>
      </trkpt>
      <trkpt lat="43.71734" lon="1.28321">
        <ele>172.8</ele>
        <time>2015-11-11T15:02:09Z</time>
      </trkpt>
      <trkpt lat="43.71732" lon="1.28331">
        <ele>172.7</ele>
        <time>2015-11-11T15:02:10Z</time>
      </trkpt>
      <trkpt lat="43.71731" lon="1.28341">
        <ele>172.7</ele>
        <time>2015-11-11T15:02:11Z</time>
      </trkpt>
      <trkpt lat="43.71732" lon="1.28349">
        <ele>172.6</ele>
        <time>2015-11-11T15:02:12Z</time>
      </trkpt>
      <trkpt lat="43.71728" lon="1.28361">
        <ele>172.6</ele>
        <time>2015-11-11T15:02:13Z</time>
      </trkpt>
      <trkpt lat="43.71727" lon="1.2837">
        <ele>172.6</ele>
        <time>2015-11-11T15:02:14Z</time>
      </trkpt>
      <trkpt lat="43.71728" lon="1.28378">
        <ele>172.5</ele>
        <time>2015-11-11T15:02:15Z</time>
      </trkpt>
      <trkpt lat="43.71731" lon="1.28383">
        <ele>172.4</ele>
        <time>2015-11-11T15:02:16Z</time>
      </trkpt>
      <trkpt lat="43.71731" lon="1.28395">
        <ele>172.3</ele>
        <time>2015-11-11T15:02:17Z</time>
      </trkpt>
      <trkpt lat="43.71732" lon="1.28406">
        <ele>172.2</ele>
        <time>2015-11-11T15:02:18Z</time>
      </trkpt>
      <trkpt lat="43.71731" lon="1.28418">
        <ele>172.1</ele>
        <time>2015-11-11T15:02:19Z</time>
      </trkpt>
      <trkpt lat="43.71733" lon="1.28429">
        <ele>172</ele>
        <time>2015-11-11T15:02:20Z</time>
      </trkpt>
      <trkpt lat="43.71733" lon="1.28438">
        <ele>171.9</ele>
        <time>2015-11-11T15:02:21Z</time>
      </trkpt>
      <trkpt lat="43.71732" lon="1.28448">
        <ele>171.8</ele>
        <time>2015-11-11T15:02:22Z</time>
      </trkpt>
      <trkpt lat="43.71733" lon="1.28459">
        <ele>171.7</ele>
        <time>2015-11-11T15:02:23Z</time>
      </trkpt>
      <trkpt lat="43.71733" lon="1.28469">
        <ele>171.6</ele>
        <time>2015-11-11T15:02:24Z</time>
      </trkpt>
      <trkpt lat="43.71733" lon="1.2848">
        <ele>171.4</ele>
        <time>2015-11-11T15:02:25Z</time>
      </trkpt>
      <trkpt lat="43.71735" lon="1.28488">
        <ele>171.3</ele>
        <time>2015-11-11T15:02:26Z</time>
      </trkpt>
      <trkpt lat="43.71737" lon="1.28498">
        <ele>171.2</ele>
        <time>2015-11-11T15:02:27Z</time>
      </trkpt>
      <trkpt lat="43.71739" lon="1.28507">
        <ele>171.1</ele>
        <time>2015-11-11T15:02:28Z</time>
      </trkpt>
      <trkpt lat="43.7174" lon="1.28518">
        <ele>170.9</ele>
        <time>2015-11-11T15:02:29Z</time>
      </trkpt>
      <trkpt lat="43.71742" lon="1.28528">
        <ele>170.8</ele>
        <time>2015-11-11T15:02:30Z</time>
      </trkpt>
      <trkpt lat="43.71744" lon="1.28538">
        <ele>170.6</ele>
        <time>2015-11-11T15:02:31Z</time>
      </trkpt>
      <trkpt lat="43.71747" lon="1.28548">
        <ele>170.6</ele>
        <time>2015-11-11T15:02:32Z</time>
      </trkpt>
      <trkpt lat="43.7175" lon="1.28558">
        <ele>170.8</ele>
        <time>2015-11-11T15:02:33Z</time>
      </trkpt>
      <trkpt lat="43.71752" lon="1.28567">
        <ele>170.9</ele>
        <time>2015-11-11T15:02:34Z</time>
      </trkpt>
      <trkpt lat="43.71754" lon="1.28578">
        <ele>171.1</ele>
        <time>2015-11-11T15:02:35Z</time>
      </trkpt>
      <trkpt lat="43.71757" lon="1.28588">
        <ele>171.2</ele>
        <time>2015-11-11T15:02:36Z</time>
      </trkpt>
      <trkpt lat="43.7176" lon="1.28598">
        <ele>171.3</ele>
        <time>2015-11-11T15:02:37Z</time>
      </trkpt>
      <trkpt lat="43.71764" lon="1.28607">
        <ele>171.4</ele>
        <time>2015-11-11T15:02:38Z</time>
      </trkpt>
      <trkpt lat="43.71767" lon="1.2862">
        <ele>171.5</ele>
        <time>2015-11-11T15:02:39Z</time>
      </trkpt>
      <trkpt lat="43.71766" lon="1.2863">
        <ele>171.4</ele>
        <time>2015-11-11T15:02:40Z</time>
      </trkpt>
      <trkpt lat="43.71768" lon="1.28641">
        <ele>170.8</ele>
        <time>2015-11-11T15:02:41Z</time>
      </trkpt>
      <trkpt lat="43.71769" lon="1.28654">
        <ele>170.2</ele>
        <time>2015-11-11T15:02:42Z</time>
      </trkpt>
      <trkpt lat="43.71772" lon="1.28665">
        <ele>169.7</ele>
        <time>2015-11-11T15:02:43Z</time>
      </trkpt>
      <trkpt lat="43.71773" lon="1.28675">
        <ele>169.2</ele>
        <time>2015-11-11T15:02:44Z</time>
      </trkpt>
      <trkpt lat="43.71772" lon="1.28686">
        <ele>168.7</ele>
        <time>2015-11-11T15:02:45Z</time>
      </trkpt>
      <trkpt lat="43.71774" lon="1.28698">
        <ele>168.1</ele>
        <time>2015-11-11T15:02:46Z</time>
      </trkpt>
      <trkpt lat="43.71774" lon="1.28709">
        <ele>167.6</ele>
        <time>2015-11-11T15:02:47Z</time>
      </trkpt>
      <trkpt lat="43.71774" lon="1.28721">
        <ele>167.4</ele>
        <time>2015-11-11T15:02:48Z</time>
      </trkpt>
      <trkpt lat="43.71772" lon="1.28733">
        <ele>167.4</ele>
        <time>2015-11-11T15:02:49Z</time>
      </trkpt>
      <trkpt lat="43.71771" lon="1.28743">
        <ele>167.2</ele>
        <time>2015-11-11T15:02:50Z</time>
      </trkpt>
      <trkpt lat="43.71769" lon="1.28752">
        <ele>167.2</ele>
        <time>2015-11-11T15:02:51Z</time>
      </trkpt>
      <trkpt lat="43.71767" lon="1.28763">
        <ele>167</ele>
        <time>2015-11-11T15:02:52Z</time>
      </trkpt>
      <trkpt lat="43.71764" lon="1.28769">
        <ele>167</ele>
        <time>2015-11-11T15:02:53Z</time>
      </trkpt>
      <trkpt lat="43.71762" lon="1.2878">
        <ele>166.9</ele>
        <time>2015-11-11T15:02:54Z</time>
      </trkpt>
      <trkpt lat="43.71759" lon="1.28791">
        <ele>166.8</ele>
        <time>2015-11-11T15:02:55Z</time>
      </trkpt>
      <trkpt lat="43.71758" lon="1.28802">
        <ele>166.6</ele>
        <time>2015-11-11T15:02:56Z</time>
      </trkpt>
      <trkpt lat="43.71756" lon="1.28812">
        <ele>166.4</ele>
        <time>2015-11-11T15:02:57Z</time>
      </trkpt>
      <trkpt lat="43.71754" lon="1.28825">
        <ele>166.1</ele>
        <time>2015-11-11T15:02:58Z</time>
      </trkpt>
      <trkpt lat="43.71752" lon="1.28835">
        <ele>165.9</ele>
        <time>2015-11-11T15:02:59Z</time>
      </trkpt>
      <trkpt lat="43.71749" lon="1.28846">
        <ele>165.7</ele>
        <time>2015-11-11T15:03:00Z</time>
      </trkpt>
      <trkpt lat="43.71748" lon="1.2886">
        <ele>165.4</ele>
        <time>2015-11-11T15:03:01Z</time>
      </trkpt>
      <trkpt lat="43.71745" lon="1.28871">
        <ele>165.1</ele>
        <time>2015-11-11T15:03:02Z</time>
      </trkpt>
      <trkpt lat="43.7174" lon="1.28881">
        <ele>164.9</ele>
        <time>2015-11-11T15:03:03Z</time>
      </trkpt>
      <trkpt lat="43.71738" lon="1.28893">
        <ele>164.8</ele>
        <time>2015-11-11T15:03:04Z</time>
      </trkpt>
      <trkpt lat="43.71735" lon="1.28904">
        <ele>164.8</ele>
        <time>2015-11-11T15:03:05Z</time>
      </trkpt>
      <trkpt lat="43.71733" lon="1.28915">
        <ele>164.7</ele>
        <time>2015-11-11T15:03:06Z</time>
      </trkpt>
      <trkpt lat="43.7173" lon="1.28921">
        <ele>164.7</ele>
        <time>2015-11-11T15:03:07Z</time>
      </trkpt>
      <trkpt lat="43.7173" lon="1.28932">
        <ele>164.6</ele>
        <time>2015-11-11T15:03:08Z</time>
      </trkpt>
      <trkpt lat="43.7173" lon="1.2894">
        <ele>164.6</ele>
        <time>2015-11-11T15:03:09Z</time>
      </trkpt>
      <trkpt lat="43.71729" lon="1.2895">
        <ele>164.6</ele>
        <time>2015-11-11T15:03:10Z</time>
      </trkpt>
      <trkpt lat="43.71726" lon="1.2896">
        <ele>164.5</ele>
        <time>2015-11-11T15:03:11Z</time>
      </trkpt>
      <trkpt lat="43.71722" lon="1.2897">
        <ele>164.4</ele>
        <time>2015-11-11T15:03:12Z</time>
      </trkpt>
      <trkpt lat="43.7172" lon="1.28981">
        <ele>164.2</ele>
        <time>2015-11-11T15:03:13Z</time>
      </trkpt>
      <trkpt lat="43.71717" lon="1.28993">
        <ele>164</ele>
        <time>2015-11-11T15:03:14Z</time>
      </trkpt>
      <trkpt lat="43.71715" lon="1.29004">
        <ele>163.7</ele>
        <time>2015-11-11T15:03:15Z</time>
      </trkpt>
      <trkpt lat="43.71714" lon="1.29015">
        <ele>163.5</ele>
        <time>2015-11-11T15:03:16Z</time>
      </trkpt>
      <trkpt lat="43.71713" lon="1.29025">
        <ele>163.3</ele>
        <time>2015-11-11T15:03:17Z</time>
      </trkpt>
      <trkpt lat="43.71712" lon="1.29034">
        <ele>163.1</ele>
        <time>2015-11-11T15:03:18Z</time>
      </trkpt>
      <trkpt lat="43.71712" lon="1.29044">
        <ele>162.9</ele>
        <time>2015-11-11T15:03:19Z</time>
      </trkpt>
      <trkpt lat="43.7171" lon="1.29052">
        <ele>162.8</ele>
        <time>2015-11-11T15:03:20Z</time>
      </trkpt>
      <trkpt lat="43.71709" lon="1.2906">
        <ele>162.8</ele>
        <time>2015-11-11T15:03:21Z</time>
      </trkpt>
      <trkpt lat="43.71707" lon="1.29065">
        <ele>162.7</ele>
        <time>2015-11-11T15:03:22Z</time>
      </trkpt>
      <trkpt lat="43.71701" lon="1.29069">
        <ele>162.8</ele>
        <time>2015-11-11T15:03:24Z</time>
      </trkpt>
      <trkpt lat="43.71697" lon="1.29068">
        <ele>162.9</ele>
        <time>2015-11-11T15:03:25Z</time>
      </trkpt>
      <trkpt lat="43.71692" lon="1.29061">
        <ele>163.1</ele>
        <time>2015-11-11T15:03:27Z</time>
      </trkpt>
      <trkpt lat="43.71687" lon="1.29057">
        <ele>163.3</ele>
        <time>2015-11-11T15:03:28Z</time>
      </trkpt>
      <trkpt lat="43.71681" lon="1.2905">
        <ele>163.5</ele>
        <time>2015-11-11T15:03:29Z</time>
      </trkpt>
      <trkpt lat="43.71676" lon="1.29044">
        <ele>163.7</ele>
        <time>2015-11-11T15:03:30Z</time>
      </trkpt>
      <trkpt lat="43.71671" lon="1.29039">
        <ele>163.9</ele>
        <time>2015-11-11T15:03:31Z</time>
      </trkpt>
      <trkpt lat="43.71665" lon="1.29033">
        <ele>164.1</ele>
        <time>2015-11-11T15:03:32Z</time>
      </trkpt>
      <trkpt lat="43.71658" lon="1.29027">
        <ele>164.3</ele>
        <time>2015-11-11T15:03:33Z</time>
      </trkpt>
      <trkpt lat="43.71652" lon="1.29022">
        <ele>164.5</ele>
        <time>2015-11-11T15:03:34Z</time>
      </trkpt>
      <trkpt lat="43.71646" lon="1.29017">
        <ele>164.6</ele>
        <time>2015-11-11T15:03:35Z</time>
      </trkpt>
      <trkpt lat="43.71638" lon="1.29011">
        <ele>164.8</ele>
        <time>2015-11-11T15:03:36Z</time>
      </trkpt>
      <trkpt lat="43.71633" lon="1.29004">
        <ele>164.9</ele>
        <time>2015-11-11T15:03:37Z</time>
      </trkpt>
      <trkpt lat="43.71628" lon="1.28999">
        <ele>165</ele>
        <time>2015-11-11T15:03:38Z</time>
      </trkpt>
      <trkpt lat="43.71622" lon="1.28992">
        <ele>165</ele>
        <time>2015-11-11T15:03:39Z</time>
      </trkpt>
      <trkpt lat="43.71616" lon="1.28985">
        <ele>165</ele>
        <time>2015-11-11T15:03:40Z</time>
      </trkpt>
      <trkpt lat="43.7161" lon="1.28978">
        <ele>165.1</ele>
        <time>2015-11-11T15:03:41Z</time>
      </trkpt>
      <trkpt lat="43.71604" lon="1.28971">
        <ele>165.2</ele>
        <time>2015-11-11T15:03:42Z</time>
      </trkpt>
      <trkpt lat="43.71597" lon="1.28963">
        <ele>165.3</ele>
        <time>2015-11-11T15:03:43Z</time>
      </trkpt>
      <trkpt lat="43.7159" lon="1.28954">
        <ele>165.6</ele>
        <time>2015-11-11T15:03:44Z</time>
      </trkpt>
      <trkpt lat="43.71584" lon="1.28946">
        <ele>166.2</ele>
        <time>2015-11-11T15:03:45Z</time>
      </trkpt>
      <trkpt lat="43.71579" lon="1.28938">
        <ele>166.6</ele>
        <time>2015-11-11T15:03:46Z</time>
      </trkpt>
      <trkpt lat="43.71574" lon="1.28931">
        <ele>167.1</ele>
        <time>2015-11-11T15:03:47Z</time>
      </trkpt>
      <trkpt lat="43.71568" lon="1.28923">
        <ele>167.5</ele>
        <time>2015-11-11T15:03:48Z</time>
      </trkpt>
      <trkpt lat="43.71564" lon="1.28915">
        <ele>167.9</ele>
        <time>2015-11-11T15:03:49Z</time>
      </trkpt>
      <trkpt lat="43.71556" lon="1.28907">
        <ele>168.4</ele>
        <time>2015-11-11T15:03:50Z</time>
      </trkpt>
      <trkpt lat="43.7155" lon="1.28899">
        <ele>168.8</ele>
        <time>2015-11-11T15:03:51Z</time>
      </trkpt>
      <trkpt lat="43.71543" lon="1.28892">
        <ele>169.2</ele>
        <time>2015-11-11T15:03:52Z</time>
      </trkpt>
      <trkpt lat="43.71538" lon="1.28884">
        <ele>169.5</ele>
        <time>2015-11-11T15:03:53Z</time>
      </trkpt>
      <trkpt lat="43.71532" lon="1.28878">
        <ele>169.6</ele>
        <time>2015-11-11T15:03:54Z</time>
      </trkpt>
      <trkpt lat="43.71527" lon="1.2887">
        <ele>169.8</ele>
        <time>2015-11-11T15:03:55Z</time>
      </trkpt>
      <trkpt lat="43.71521" lon="1.2886">
        <ele>169.9</ele>
        <time>2015-11-11T15:03:56Z</time>
      </trkpt>
      <trkpt lat="43.71518" lon="1.28851">
        <ele>170.1</ele>
        <time>2015-11-11T15:03:57Z</time>
      </trkpt>
      <trkpt lat="43.71514" lon="1.28844">
        <ele>170.2</ele>
        <time>2015-11-11T15:03:58Z</time>
      </trkpt>
      <trkpt lat="43.71508" lon="1.28837">
        <ele>170.3</ele>
        <time>2015-11-11T15:03:59Z</time>
      </trkpt>
      <trkpt lat="43.71503" lon="1.28831">
        <ele>170.4</ele>
        <time>2015-11-11T15:04:00Z</time>
      </trkpt>
      <trkpt lat="43.71498" lon="1.28824">
        <ele>170.5</ele>
        <time>2015-11-11T15:04:01Z</time>
      </trkpt>
      <trkpt lat="43.71493" lon="1.28816">
        <ele>170.7</ele>
        <time>2015-11-11T15:04:02Z</time>
      </trkpt>
      <trkpt lat="43.71486" lon="1.28808">
        <ele>170.8</ele>
        <time>2015-11-11T15:04:03Z</time>
      </trkpt>
      <trkpt lat="43.71481" lon="1.288">
        <ele>171</ele>
        <time>2015-11-11T15:04:04Z</time>
      </trkpt>
      <trkpt lat="43.71476" lon="1.28793">
        <ele>171.2</ele>
        <time>2015-11-11T15:04:05Z</time>
      </trkpt>
      <trkpt lat="43.7147" lon="1.28786">
        <ele>171.4</ele>
        <time>2015-11-11T15:04:06Z</time>
      </trkpt>
      <trkpt lat="43.71465" lon="1.28778">
        <ele>171.7</ele>
        <time>2015-11-11T15:04:07Z</time>
      </trkpt>
      <trkpt lat="43.7146" lon="1.2877">
        <ele>172</ele>
        <time>2015-11-11T15:04:08Z</time>
      </trkpt>
      <trkpt lat="43.71457" lon="1.28763">
        <ele>172.4</ele>
        <time>2015-11-11T15:04:09Z</time>
      </trkpt>
      <trkpt lat="43.71454" lon="1.28757">
        <ele>172.7</ele>
        <time>2015-11-11T15:04:10Z</time>
      </trkpt>
      <trkpt lat="43.7145" lon="1.2875">
        <ele>173</ele>
        <time>2015-11-11T15:04:11Z</time>
      </trkpt>
      <trkpt lat="43.71446" lon="1.28743">
        <ele>173.3</ele>
        <time>2015-11-11T15:04:12Z</time>
      </trkpt>
      <trkpt lat="43.71441" lon="1.28736">
        <ele>173.7</ele>
        <time>2015-11-11T15:04:13Z</time>
      </trkpt>
      <trkpt lat="43.71436" lon="1.28728">
        <ele>174.1</ele>
        <time>2015-11-11T15:04:14Z</time>
      </trkpt>
      <trkpt lat="43.71432" lon="1.28719">
        <ele>174.5</ele>
        <time>2015-11-11T15:04:15Z</time>
      </trkpt>
      <trkpt lat="43.71427" lon="1.28712">
        <ele>174.8</ele>
        <time>2015-11-11T15:04:16Z</time>
      </trkpt>
      <trkpt lat="43.71423" lon="1.28706">
        <ele>175</ele>
        <time>2015-11-11T15:04:17Z</time>
      </trkpt>
      <trkpt lat="43.71419" lon="1.28698">
        <ele>174.9</ele>
        <time>2015-11-11T15:04:18Z</time>
      </trkpt>
      <trkpt lat="43.71415" lon="1.28689">
        <ele>174.8</ele>
        <time>2015-11-11T15:04:19Z</time>
      </trkpt>
      <trkpt lat="43.71411" lon="1.28685">
        <ele>174.8</ele>
        <time>2015-11-11T15:04:20Z</time>
      </trkpt>
      <trkpt lat="43.71406" lon="1.28678">
        <ele>174.7</ele>
        <time>2015-11-11T15:04:21Z</time>
      </trkpt>
      <trkpt lat="43.71402" lon="1.28669">
        <ele>174.7</ele>
        <time>2015-11-11T15:04:22Z</time>
      </trkpt>
      <trkpt lat="43.71399" lon="1.28661">
        <ele>174.7</ele>
        <time>2015-11-11T15:04:23Z</time>
      </trkpt>
      <trkpt lat="43.71395" lon="1.28652">
        <ele>174.7</ele>
        <time>2015-11-11T15:04:24Z</time>
      </trkpt>
      <trkpt lat="43.71391" lon="1.28644">
        <ele>174.7</ele>
        <time>2015-11-11T15:04:25Z</time>
      </trkpt>
      <trkpt lat="43.71387" lon="1.28636">
        <ele>174.7</ele>
        <time>2015-11-11T15:04:26Z</time>
      </trkpt>
      <trkpt lat="43.71383" lon="1.28627">
        <ele>174.8</ele>
        <time>2015-11-11T15:04:27Z</time>
      </trkpt>
      <trkpt lat="43.71379" lon="1.28619">
        <ele>174.8</ele>
        <time>2015-11-11T15:04:28Z</time>
      </trkpt>
      <trkpt lat="43.71377" lon="1.28614">
        <ele>174.7</ele>
        <time>2015-11-11T15:04:29Z</time>
      </trkpt>
      <trkpt lat="43.71374" lon="1.28605">
        <ele>174.5</ele>
        <time>2015-11-11T15:04:30Z</time>
      </trkpt>
      <trkpt lat="43.71371" lon="1.28597">
        <ele>174.3</ele>
        <time>2015-11-11T15:04:31Z</time>
      </trkpt>
      <trkpt lat="43.71366" lon="1.2859">
        <ele>174.1</ele>
        <time>2015-11-11T15:04:32Z</time>
      </trkpt>
      <trkpt lat="43.71361" lon="1.28584">
        <ele>173.9</ele>
        <time>2015-11-11T15:04:33Z</time>
      </trkpt>
      <trkpt lat="43.71357" lon="1.28577">
        <ele>173.7</ele>
        <time>2015-11-11T15:04:34Z</time>
      </trkpt>
      <trkpt lat="43.71353" lon="1.28568">
        <ele>173.5</ele>
        <time>2015-11-11T15:04:35Z</time>
      </trkpt>
      <trkpt lat="43.71348" lon="1.28563">
        <ele>173.3</ele>
        <time>2015-11-11T15:04:36Z</time>
      </trkpt>
      <trkpt lat="43.71344" lon="1.28555">
        <ele>173</ele>
        <time>2015-11-11T15:04:37Z</time>
      </trkpt>
      <trkpt lat="43.7134" lon="1.28548">
        <ele>172.8</ele>
        <time>2015-11-11T15:04:38Z</time>
      </trkpt>
      <trkpt lat="43.71335" lon="1.28542">
        <ele>172.5</ele>
        <time>2015-11-11T15:04:39Z</time>
      </trkpt>
      <trkpt lat="43.71329" lon="1.28538">
        <ele>172.4</ele>
        <time>2015-11-11T15:04:40Z</time>
      </trkpt>
      <trkpt lat="43.71323" lon="1.28528">
        <ele>172.2</ele>
        <time>2015-11-11T15:04:41Z</time>
      </trkpt>
      <trkpt lat="43.71318" lon="1.28522">
        <ele>172</ele>
        <time>2015-11-11T15:04:42Z</time>
      </trkpt>
      <trkpt lat="43.71313" lon="1.28516">
        <ele>171.8</ele>
        <time>2015-11-11T15:04:43Z</time>
      </trkpt>
      <trkpt lat="43.71307" lon="1.28509">
        <ele>171.5</ele>
        <time>2015-11-11T15:04:44Z</time>
      </trkpt>
      <trkpt lat="43.71302" lon="1.28502">
        <ele>171.3</ele>
        <time>2015-11-11T15:04:45Z</time>
      </trkpt>
      <trkpt lat="43.71298" lon="1.28495">
        <ele>171</ele>
        <time>2015-11-11T15:04:46Z</time>
      </trkpt>
      <trkpt lat="43.71292" lon="1.28488">
        <ele>170.7</ele>
        <time>2015-11-11T15:04:47Z</time>
      </trkpt>
      <trkpt lat="43.71288" lon="1.28481">
        <ele>170.7</ele>
        <time>2015-11-11T15:04:48Z</time>
      </trkpt>
      <trkpt lat="43.71282" lon="1.28475">
        <ele>170.8</ele>
        <time>2015-11-11T15:04:49Z</time>
      </trkpt>
      <trkpt lat="43.71277" lon="1.28468">
        <ele>170.9</ele>
        <time>2015-11-11T15:04:50Z</time>
      </trkpt>
      <trkpt lat="43.71273" lon="1.28461">
        <ele>171</ele>
        <time>2015-11-11T15:04:51Z</time>
      </trkpt>
      <trkpt lat="43.71268" lon="1.28455">
        <ele>171.2</ele>
        <time>2015-11-11T15:04:52Z</time>
      </trkpt>
      <trkpt lat="43.71263" lon="1.28446">
        <ele>171.5</ele>
        <time>2015-11-11T15:04:53Z</time>
      </trkpt>
      <trkpt lat="43.71259" lon="1.28439">
        <ele>171.8</ele>
        <time>2015-11-11T15:04:54Z</time>
      </trkpt>
      <trkpt lat="43.71254" lon="1.28434">
        <ele>172</ele>
        <time>2015-11-11T15:04:55Z</time>
      </trkpt>
      <trkpt lat="43.71249" lon="1.28428">
        <ele>172.2</ele>
        <time>2015-11-11T15:04:56Z</time>
      </trkpt>
      <trkpt lat="43.71245" lon="1.28419">
        <ele>172.4</ele>
        <time>2015-11-11T15:04:57Z</time>
      </trkpt>
      <trkpt lat="43.71242" lon="1.28412">
        <ele>172.5</ele>
        <time>2015-11-11T15:04:58Z</time>
      </trkpt>
      <trkpt lat="43.71236" lon="1.28407">
        <ele>172.7</ele>
        <time>2015-11-11T15:04:59Z</time>
      </trkpt>
      <trkpt lat="43.7123" lon="1.28401">
        <ele>172.8</ele>
        <time>2015-11-11T15:05:00Z</time>
      </trkpt>
      <trkpt lat="43.71224" lon="1.28394">
        <ele>172.9</ele>
        <time>2015-11-11T15:05:01Z</time>
      </trkpt>
      <trkpt lat="43.71218" lon="1.28389">
        <ele>173</ele>
        <time>2015-11-11T15:05:02Z</time>
      </trkpt>
      <trkpt lat="43.71213" lon="1.28382">
        <ele>173</ele>
        <time>2015-11-11T15:05:03Z</time>
      </trkpt>
      <trkpt lat="43.71207" lon="1.28375">
        <ele>173</ele>
        <time>2015-11-11T15:05:04Z</time>
      </trkpt>
      <trkpt lat="43.71201" lon="1.2837">
        <ele>173.1</ele>
        <time>2015-11-11T15:05:05Z</time>
      </trkpt>
      <trkpt lat="43.71195" lon="1.28363">
        <ele>173.2</ele>
        <time>2015-11-11T15:05:06Z</time>
      </trkpt>
      <trkpt lat="43.71189" lon="1.28355">
        <ele>173.2</ele>
        <time>2015-11-11T15:05:07Z</time>
      </trkpt>
      <trkpt lat="43.71182" lon="1.28348">
        <ele>173.3</ele>
        <time>2015-11-11T15:05:08Z</time>
      </trkpt>
      <trkpt lat="43.71177" lon="1.2834">
        <ele>173.4</ele>
        <time>2015-11-11T15:05:09Z</time>
      </trkpt>
      <trkpt lat="43.71173" lon="1.28337">
        <ele>173.4</ele>
        <time>2015-11-11T15:05:10Z</time>
      </trkpt>
      <trkpt lat="43.71166" lon="1.28329">
        <ele>173.5</ele>
        <time>2015-11-11T15:05:11Z</time>
      </trkpt>
      <trkpt lat="43.71161" lon="1.2832">
        <ele>173.6</ele>
        <time>2015-11-11T15:05:12Z</time>
      </trkpt>
      <trkpt lat="43.71156" lon="1.28314">
        <ele>173.6</ele>
        <time>2015-11-11T15:05:13Z</time>
      </trkpt>
      <trkpt lat="43.7115" lon="1.28306">
        <ele>173.7</ele>
        <time>2015-11-11T15:05:14Z</time>
      </trkpt>
      <trkpt lat="43.71148" lon="1.28299">
        <ele>173.7</ele>
        <time>2015-11-11T15:05:15Z</time>
      </trkpt>
      <trkpt lat="43.71141" lon="1.28291">
        <ele>173.8</ele>
        <time>2015-11-11T15:05:16Z</time>
      </trkpt>
      <trkpt lat="43.71136" lon="1.28284">
        <ele>173.9</ele>
        <time>2015-11-11T15:05:17Z</time>
      </trkpt>
      <trkpt lat="43.71129" lon="1.28274">
        <ele>174</ele>
        <time>2015-11-11T15:05:18Z</time>
      </trkpt>
      <trkpt lat="43.71123" lon="1.28267">
        <ele>174</ele>
        <time>2015-11-11T15:05:19Z</time>
      </trkpt>
      <trkpt lat="43.71118" lon="1.28261">
        <ele>174</ele>
        <time>2015-11-11T15:05:20Z</time>
      </trkpt>
      <trkpt lat="43.7111" lon="1.28254">
        <ele>174</ele>
        <time>2015-11-11T15:05:21Z</time>
      </trkpt>
      <trkpt lat="43.71103" lon="1.28246">
        <ele>174</ele>
        <time>2015-11-11T15:05:22Z</time>
      </trkpt>
      <trkpt lat="43.71096" lon="1.28239">
        <ele>174.1</ele>
        <time>2015-11-11T15:05:23Z</time>
      </trkpt>
      <trkpt lat="43.7109" lon="1.28233">
        <ele>174.2</ele>
        <time>2015-11-11T15:05:24Z</time>
      </trkpt>
      <trkpt lat="43.71087" lon="1.28229">
        <ele>174.2</ele>
        <time>2015-11-11T15:05:25Z</time>
      </trkpt>
      <trkpt lat="43.71081" lon="1.28224">
        <ele>174.3</ele>
        <time>2015-11-11T15:05:26Z</time>
      </trkpt>
      <trkpt lat="43.71074" lon="1.28215">
        <ele>174.5</ele>
        <time>2015-11-11T15:05:27Z</time>
      </trkpt>
      <trkpt lat="43.71068" lon="1.28209">
        <ele>174.7</ele>
        <time>2015-11-11T15:05:28Z</time>
      </trkpt>
      <trkpt lat="43.71061" lon="1.28202">
        <ele>174.8</ele>
        <time>2015-11-11T15:05:29Z</time>
      </trkpt>
      <trkpt lat="43.71054" lon="1.28195">
        <ele>174.8</ele>
        <time>2015-11-11T15:05:30Z</time>
      </trkpt>
      <trkpt lat="43.71048" lon="1.28187">
        <ele>174.9</ele>
        <time>2015-11-11T15:05:31Z</time>
      </trkpt>
      <trkpt lat="43.71042" lon="1.28181">
        <ele>175</ele>
        <time>2015-11-11T15:05:32Z</time>
      </trkpt>
      <trkpt lat="43.71041" lon="1.28175">
        <ele>175</ele>
        <time>2015-11-11T15:05:33Z</time>
      </trkpt>
      <trkpt lat="43.71034" lon="1.2817">
        <ele>175</ele>
        <time>2015-11-11T15:05:34Z</time>
      </trkpt>
      <trkpt lat="43.71027" lon="1.28163">
        <ele>174.9</ele>
        <time>2015-11-11T15:05:35Z</time>
      </trkpt>
      <trkpt lat="43.7102" lon="1.2816">
        <ele>174.8</ele>
        <time>2015-11-11T15:05:36Z</time>
      </trkpt>
      <trkpt lat="43.71014" lon="1.28153">
        <ele>174.8</ele>
        <time>2015-11-11T15:05:37Z</time>
      </trkpt>
      <trkpt lat="43.71007" lon="1.28147">
        <ele>174.7</ele>
        <time>2015-11-11T15:05:38Z</time>
      </trkpt>
      <trkpt lat="43.71" lon="1.28141">
        <ele>174.6</ele>
        <time>2015-11-11T15:05:39Z</time>
      </trkpt>
      <trkpt lat="43.70992" lon="1.28135">
        <ele>174.5</ele>
        <time>2015-11-11T15:05:40Z</time>
      </trkpt>
      <trkpt lat="43.70986" lon="1.2813">
        <ele>174.4</ele>
        <time>2015-11-11T15:05:41Z</time>
      </trkpt>
      <trkpt lat="43.70979" lon="1.28124">
        <ele>174.2</ele>
        <time>2015-11-11T15:05:42Z</time>
      </trkpt>
      <trkpt lat="43.70971" lon="1.28119">
        <ele>174.1</ele>
        <time>2015-11-11T15:05:43Z</time>
      </trkpt>
      <trkpt lat="43.70964" lon="1.28113">
        <ele>174.1</ele>
        <time>2015-11-11T15:05:44Z</time>
      </trkpt>
      <trkpt lat="43.70957" lon="1.28108">
        <ele>174</ele>
        <time>2015-11-11T15:05:45Z</time>
      </trkpt>
      <trkpt lat="43.70948" lon="1.28101">
        <ele>174</ele>
        <time>2015-11-11T15:05:46Z</time>
      </trkpt>
      <trkpt lat="43.70941" lon="1.28098">
        <ele>174.1</ele>
        <time>2015-11-11T15:05:47Z</time>
      </trkpt>
      <trkpt lat="43.70934" lon="1.28092">
        <ele>174.1</ele>
        <time>2015-11-11T15:05:48Z</time>
      </trkpt>
      <trkpt lat="43.70927" lon="1.28087">
        <ele>174.2</ele>
        <time>2015-11-11T15:05:49Z</time>
      </trkpt>
      <trkpt lat="43.7092" lon="1.28083">
        <ele>174.2</ele>
        <time>2015-11-11T15:05:50Z</time>
      </trkpt>
      <trkpt lat="43.70913" lon="1.28078">
        <ele>174.3</ele>
        <time>2015-11-11T15:05:51Z</time>
      </trkpt>
      <trkpt lat="43.70906" lon="1.28074">
        <ele>174.4</ele>
        <time>2015-11-11T15:05:52Z</time>
      </trkpt>
      <trkpt lat="43.70898" lon="1.28071">
        <ele>174.5</ele>
        <time>2015-11-11T15:05:53Z</time>
      </trkpt>
      <trkpt lat="43.7089" lon="1.28068">
        <ele>174.6</ele>
        <time>2015-11-11T15:05:54Z</time>
      </trkpt>
      <trkpt lat="43.70882" lon="1.28065">
        <ele>174.7</ele>
        <time>2015-11-11T15:05:55Z</time>
      </trkpt>
      <trkpt lat="43.70874" lon="1.28063">
        <ele>174.7</ele>
        <time>2015-11-11T15:05:56Z</time>
      </trkpt>
      <trkpt lat="43.70865" lon="1.28062">
        <ele>174.6</ele>
        <time>2015-11-11T15:05:57Z</time>
      </trkpt>
      <trkpt lat="43.70857" lon="1.28059">
        <ele>174.4</ele>
        <time>2015-11-11T15:05:58Z</time>
      </trkpt>
      <trkpt lat="43.70849" lon="1.28057">
        <ele>174.3</ele>
        <time>2015-11-11T15:05:59Z</time>
      </trkpt>
      <trkpt lat="43.70844" lon="1.28054">
        <ele>174.2</ele>
        <time>2015-11-11T15:06:00Z</time>
      </trkpt>
      <trkpt lat="43.70837" lon="1.2805">
        <ele>174.1</ele>
        <time>2015-11-11T15:06:01Z</time>
      </trkpt>
      <trkpt lat="43.70828" lon="1.28052">
        <ele>173.9</ele>
        <time>2015-11-11T15:06:02Z</time>
      </trkpt>
      <trkpt lat="43.70819" lon="1.28053">
        <ele>173.7</ele>
        <time>2015-11-11T15:06:03Z</time>
      </trkpt>
      <trkpt lat="43.7081" lon="1.28051">
        <ele>173.5</ele>
        <time>2015-11-11T15:06:04Z</time>
      </trkpt>
      <trkpt lat="43.70803" lon="1.28051">
        <ele>173.3</ele>
        <time>2015-11-11T15:06:05Z</time>
      </trkpt>
      <trkpt lat="43.70796" lon="1.28052">
        <ele>173.2</ele>
        <time>2015-11-11T15:06:06Z</time>
      </trkpt>
      <trkpt lat="43.70791" lon="1.28051">
        <ele>173.1</ele>
        <time>2015-11-11T15:06:07Z</time>
      </trkpt>
      <trkpt lat="43.70784" lon="1.28052">
        <ele>173.3</ele>
        <time>2015-11-11T15:06:08Z</time>
      </trkpt>
      <trkpt lat="43.70776" lon="1.28052">
        <ele>173.5</ele>
        <time>2015-11-11T15:06:09Z</time>
      </trkpt>
      <trkpt lat="43.70767" lon="1.28053">
        <ele>173.7</ele>
        <time>2015-11-11T15:06:10Z</time>
      </trkpt>
      <trkpt lat="43.70759" lon="1.28055">
        <ele>173.9</ele>
        <time>2015-11-11T15:06:11Z</time>
      </trkpt>
      <trkpt lat="43.70751" lon="1.28051">
        <ele>174.1</ele>
        <time>2015-11-11T15:06:12Z</time>
      </trkpt>
      <trkpt lat="43.70744" lon="1.2805">
        <ele>174.2</ele>
        <time>2015-11-11T15:06:13Z</time>
      </trkpt>
      <trkpt lat="43.70735" lon="1.28049">
        <ele>174.5</ele>
        <time>2015-11-11T15:06:14Z</time>
      </trkpt>
      <trkpt lat="43.70728" lon="1.28048">
        <ele>174.6</ele>
        <time>2015-11-11T15:06:15Z</time>
      </trkpt>
      <trkpt lat="43.70721" lon="1.28046">
        <ele>174.8</ele>
        <time>2015-11-11T15:06:16Z</time>
      </trkpt>
      <trkpt lat="43.70713" lon="1.28045">
        <ele>174.9</ele>
        <time>2015-11-11T15:06:17Z</time>
      </trkpt>
      <trkpt lat="43.70706" lon="1.28041">
        <ele>175</ele>
        <time>2015-11-11T15:06:18Z</time>
      </trkpt>
      <trkpt lat="43.70697" lon="1.28039">
        <ele>175</ele>
        <time>2015-11-11T15:06:19Z</time>
      </trkpt>
      <trkpt lat="43.70689" lon="1.28036">
        <ele>175</ele>
        <time>2015-11-11T15:06:20Z</time>
      </trkpt>
      <trkpt lat="43.70681" lon="1.28034">
        <ele>175</ele>
        <time>2015-11-11T15:06:21Z</time>
      </trkpt>
      <trkpt lat="43.70673" lon="1.28032">
        <ele>175</ele>
        <time>2015-11-11T15:06:22Z</time>
      </trkpt>
      <trkpt lat="43.70665" lon="1.28029">
        <ele>175</ele>
        <time>2015-11-11T15:06:23Z</time>
      </trkpt>
      <trkpt lat="43.70657" lon="1.28027">
        <ele>175</ele>
        <time>2015-11-11T15:06:24Z</time>
      </trkpt>
      <trkpt lat="43.70649" lon="1.28025">
        <ele>175</ele>
        <time>2015-11-11T15:06:25Z</time>
      </trkpt>
      <trkpt lat="43.70643" lon="1.28021">
        <ele>175</ele>
        <time>2015-11-11T15:06:26Z</time>
      </trkpt>
      <trkpt lat="43.70635" lon="1.28019">
        <ele>175</ele>
        <time>2015-11-11T15:06:27Z</time>
      </trkpt>
      <trkpt lat="43.70627" lon="1.28017">
        <ele>175</ele>
        <time>2015-11-11T15:06:28Z</time>
      </trkpt>
      <trkpt lat="43.70619" lon="1.28013">
        <ele>175</ele>
        <time>2015-11-11T15:06:29Z</time>
      </trkpt>
      <trkpt lat="43.7061" lon="1.2801">
        <ele>175.1</ele>
        <time>2015-11-11T15:06:30Z</time>
      </trkpt>
      <trkpt lat="43.70603" lon="1.28007">
        <ele>175.2</ele>
        <time>2015-11-11T15:06:31Z</time>
      </trkpt>
      <trkpt lat="43.70596" lon="1.28004">
        <ele>175.2</ele>
        <time>2015-11-11T15:06:32Z</time>
      </trkpt>
      <trkpt lat="43.70589" lon="1.28001">
        <ele>175.2</ele>
        <time>2015-11-11T15:06:33Z</time>
      </trkpt>
      <trkpt lat="43.70583" lon="1.27998">
        <ele>175.2</ele>
        <time>2015-11-11T15:06:34Z</time>
      </trkpt>
      <trkpt lat="43.70573" lon="1.27995">
        <ele>175.3</ele>
        <time>2015-11-11T15:06:35Z</time>
      </trkpt>
      <trkpt lat="43.70565" lon="1.27991">
        <ele>175.3</ele>
        <time>2015-11-11T15:06:36Z</time>
      </trkpt>
      <trkpt lat="43.70559" lon="1.27986">
        <ele>175.3</ele>
        <time>2015-11-11T15:06:37Z</time>
      </trkpt>
      <trkpt lat="43.70551" lon="1.27983">
        <ele>175.3</ele>
        <time>2015-11-11T15:06:38Z</time>
      </trkpt>
      <trkpt lat="43.70546" lon="1.27979">
        <ele>175.2</ele>
        <time>2015-11-11T15:06:39Z</time>
      </trkpt>
      <trkpt lat="43.70539" lon="1.27974">
        <ele>175.1</ele>
        <time>2015-11-11T15:06:40Z</time>
      </trkpt>
      <trkpt lat="43.70531" lon="1.27969">
        <ele>175</ele>
        <time>2015-11-11T15:06:41Z</time>
      </trkpt>
      <trkpt lat="43.70525" lon="1.27965">
        <ele>174.9</ele>
        <time>2015-11-11T15:06:42Z</time>
      </trkpt>
      <trkpt lat="43.70517" lon="1.27959">
        <ele>174.7</ele>
        <time>2015-11-11T15:06:43Z</time>
      </trkpt>
      <trkpt lat="43.7051" lon="1.27954">
        <ele>174.6</ele>
        <time>2015-11-11T15:06:44Z</time>
      </trkpt>
      <trkpt lat="43.70502" lon="1.2795">
        <ele>174.6</ele>
        <time>2015-11-11T15:06:45Z</time>
      </trkpt>
      <trkpt lat="43.70496" lon="1.27943">
        <ele>174.6</ele>
        <time>2015-11-11T15:06:46Z</time>
      </trkpt>
      <trkpt lat="43.7049" lon="1.27938">
        <ele>174.5</ele>
        <time>2015-11-11T15:06:47Z</time>
      </trkpt>
      <trkpt lat="43.70483" lon="1.27932">
        <ele>174.5</ele>
        <time>2015-11-11T15:06:48Z</time>
      </trkpt>
      <trkpt lat="43.70476" lon="1.27926">
        <ele>174.5</ele>
        <time>2015-11-11T15:06:49Z</time>
      </trkpt>
      <trkpt lat="43.70468" lon="1.2792">
        <ele>174.5</ele>
        <time>2015-11-11T15:06:50Z</time>
      </trkpt>
      <trkpt lat="43.70462" lon="1.27915">
        <ele>174.5</ele>
        <time>2015-11-11T15:06:51Z</time>
      </trkpt>
      <trkpt lat="43.70456" lon="1.27908">
        <ele>174.6</ele>
        <time>2015-11-11T15:06:52Z</time>
      </trkpt>
      <trkpt lat="43.70449" lon="1.27903">
        <ele>174.6</ele>
        <time>2015-11-11T15:06:53Z</time>
      </trkpt>
      <trkpt lat="43.70441" lon="1.27896">
        <ele>174.6</ele>
        <time>2015-11-11T15:06:54Z</time>
      </trkpt>
      <trkpt lat="43.70435" lon="1.2789">
        <ele>174.6</ele>
        <time>2015-11-11T15:06:55Z</time>
      </trkpt>
      <trkpt lat="43.70428" lon="1.27886">
        <ele>174.6</ele>
        <time>2015-11-11T15:06:56Z</time>
      </trkpt>
      <trkpt lat="43.70421" lon="1.2788">
        <ele>174.5</ele>
        <time>2015-11-11T15:06:57Z</time>
      </trkpt>
      <trkpt lat="43.70415" lon="1.27875">
        <ele>174.5</ele>
        <time>2015-11-11T15:06:58Z</time>
      </trkpt>
      <trkpt lat="43.70408" lon="1.2787">
        <ele>174.4</ele>
        <time>2015-11-11T15:06:59Z</time>
      </trkpt>
      <trkpt lat="43.70401" lon="1.27864">
        <ele>174.4</ele>
        <time>2015-11-11T15:07:00Z</time>
      </trkpt>
      <trkpt lat="43.70393" lon="1.27859">
        <ele>174.3</ele>
        <time>2015-11-11T15:07:01Z</time>
      </trkpt>
      <trkpt lat="43.70387" lon="1.27852">
        <ele>174.3</ele>
        <time>2015-11-11T15:07:02Z</time>
      </trkpt>
      <trkpt lat="43.7038" lon="1.27847">
        <ele>174.4</ele>
        <time>2015-11-11T15:07:03Z</time>
      </trkpt>
      <trkpt lat="43.70373" lon="1.27841">
        <ele>174.4</ele>
        <time>2015-11-11T15:07:04Z</time>
      </trkpt>
      <trkpt lat="43.70367" lon="1.27836">
        <ele>174.4</ele>
        <time>2015-11-11T15:07:05Z</time>
      </trkpt>
      <trkpt lat="43.7036" lon="1.2783">
        <ele>174.4</ele>
        <time>2015-11-11T15:07:06Z</time>
      </trkpt>
      <trkpt lat="43.70353" lon="1.27824">
        <ele>174.4</ele>
        <time>2015-11-11T15:07:07Z</time>
      </trkpt>
      <trkpt lat="43.70346" lon="1.27817">
        <ele>174.5</ele>
        <time>2015-11-11T15:07:08Z</time>
      </trkpt>
      <trkpt lat="43.7034" lon="1.27811">
        <ele>174.4</ele>
        <time>2015-11-11T15:07:09Z</time>
      </trkpt>
      <trkpt lat="43.70333" lon="1.27806">
        <ele>174.4</ele>
        <time>2015-11-11T15:07:10Z</time>
      </trkpt>
      <trkpt lat="43.70326" lon="1.278">
        <ele>174.4</ele>
        <time>2015-11-11T15:07:11Z</time>
      </trkpt>
      <trkpt lat="43.7032" lon="1.27795">
        <ele>174.3</ele>
        <time>2015-11-11T15:07:12Z</time>
      </trkpt>
      <trkpt lat="43.70313" lon="1.27788">
        <ele>174.3</ele>
        <time>2015-11-11T15:07:13Z</time>
      </trkpt>
      <trkpt lat="43.70306" lon="1.27782">
        <ele>174.2</ele>
        <time>2015-11-11T15:07:14Z</time>
      </trkpt>
      <trkpt lat="43.70299" lon="1.27776">
        <ele>174.1</ele>
        <time>2015-11-11T15:07:15Z</time>
      </trkpt>
      <trkpt lat="43.70293" lon="1.27771">
        <ele>174</ele>
        <time>2015-11-11T15:07:16Z</time>
      </trkpt>
      <trkpt lat="43.70286" lon="1.27765">
        <ele>174</ele>
        <time>2015-11-11T15:07:17Z</time>
      </trkpt>
      <trkpt lat="43.70279" lon="1.2776">
        <ele>173.9</ele>
        <time>2015-11-11T15:07:18Z</time>
      </trkpt>
      <trkpt lat="43.70273" lon="1.27754">
        <ele>173.9</ele>
        <time>2015-11-11T15:07:19Z</time>
      </trkpt>
      <trkpt lat="43.70268" lon="1.2775">
        <ele>173.9</ele>
        <time>2015-11-11T15:07:20Z</time>
      </trkpt>
      <trkpt lat="43.70264" lon="1.27745">
        <ele>173.8</ele>
        <time>2015-11-11T15:07:21Z</time>
      </trkpt>
      <trkpt lat="43.70256" lon="1.2774">
        <ele>173.7</ele>
        <time>2015-11-11T15:07:22Z</time>
      </trkpt>
      <trkpt lat="43.70249" lon="1.27733">
        <ele>173.6</ele>
        <time>2015-11-11T15:07:23Z</time>
      </trkpt>
      <trkpt lat="43.70243" lon="1.27728">
        <ele>173.5</ele>
        <time>2015-11-11T15:07:24Z</time>
      </trkpt>
      <trkpt lat="43.70236" lon="1.27722">
        <ele>173.4</ele>
        <time>2015-11-11T15:07:25Z</time>
      </trkpt>
      <trkpt lat="43.70229" lon="1.27716">
        <ele>173.3</ele>
        <time>2015-11-11T15:07:26Z</time>
      </trkpt>
      <trkpt lat="43.70222" lon="1.2771">
        <ele>173.2</ele>
        <time>2015-11-11T15:07:27Z</time>
      </trkpt>
      <trkpt lat="43.70215" lon="1.27703">
        <ele>173.1</ele>
        <time>2015-11-11T15:07:28Z</time>
      </trkpt>
      <trkpt lat="43.70208" lon="1.27697">
        <ele>173.2</ele>
        <time>2015-11-11T15:07:29Z</time>
      </trkpt>
      <trkpt lat="43.702" lon="1.27689">
        <ele>173.8</ele>
        <time>2015-11-11T15:07:30Z</time>
      </trkpt>
      <trkpt lat="43.70194" lon="1.27683">
        <ele>174.2</ele>
        <time>2015-11-11T15:07:31Z</time>
      </trkpt>
      <trkpt lat="43.70187" lon="1.27675">
        <ele>174.7</ele>
        <time>2015-11-11T15:07:32Z</time>
      </trkpt>
      <trkpt lat="43.70178" lon="1.27668">
        <ele>175.1</ele>
        <time>2015-11-11T15:07:33Z</time>
      </trkpt>
      <trkpt lat="43.70172" lon="1.27662">
        <ele>175.4</ele>
        <time>2015-11-11T15:07:34Z</time>
      </trkpt>
      <trkpt lat="43.70166" lon="1.27656">
        <ele>175.7</ele>
        <time>2015-11-11T15:07:35Z</time>
      </trkpt>
      <trkpt lat="43.70159" lon="1.27649">
        <ele>176</ele>
        <time>2015-11-11T15:07:36Z</time>
      </trkpt>
      <trkpt lat="43.7015" lon="1.27643">
        <ele>176.3</ele>
        <time>2015-11-11T15:07:37Z</time>
      </trkpt>
      <trkpt lat="43.70144" lon="1.27636">
        <ele>176.5</ele>
        <time>2015-11-11T15:07:38Z</time>
      </trkpt>
      <trkpt lat="43.70138" lon="1.27628">
        <ele>176.6</ele>
        <time>2015-11-11T15:07:39Z</time>
      </trkpt>
      <trkpt lat="43.70131" lon="1.27621">
        <ele>176.7</ele>
        <time>2015-11-11T15:07:40Z</time>
      </trkpt>
      <trkpt lat="43.70124" lon="1.27614">
        <ele>176.7</ele>
        <time>2015-11-11T15:07:41Z</time>
      </trkpt>
      <trkpt lat="43.70118" lon="1.27607">
        <ele>176.4</ele>
        <time>2015-11-11T15:07:42Z</time>
      </trkpt>
      <trkpt lat="43.70112" lon="1.276">
        <ele>176</ele>
        <time>2015-11-11T15:07:43Z</time>
      </trkpt>
      <trkpt lat="43.70108" lon="1.27592">
        <ele>175.7</ele>
        <time>2015-11-11T15:07:44Z</time>
      </trkpt>
      <trkpt lat="43.70103" lon="1.27586">
        <ele>175.5</ele>
        <time>2015-11-11T15:07:45Z</time>
      </trkpt>
      <trkpt lat="43.70097" lon="1.2758">
        <ele>175.3</ele>
        <time>2015-11-11T15:07:46Z</time>
      </trkpt>
      <trkpt lat="43.7009" lon="1.27572">
        <ele>175</ele>
        <time>2015-11-11T15:07:47Z</time>
      </trkpt>
      <trkpt lat="43.70083" lon="1.27565">
        <ele>174.8</ele>
        <time>2015-11-11T15:07:48Z</time>
      </trkpt>
      <trkpt lat="43.70077" lon="1.27559">
        <ele>174.6</ele>
        <time>2015-11-11T15:07:49Z</time>
      </trkpt>
      <trkpt lat="43.7007" lon="1.27554">
        <ele>174.4</ele>
        <time>2015-11-11T15:07:50Z</time>
      </trkpt>
      <trkpt lat="43.70064" lon="1.27548">
        <ele>174.3</ele>
        <time>2015-11-11T15:07:51Z</time>
      </trkpt>
      <trkpt lat="43.70057" lon="1.27543">
        <ele>174.2</ele>
        <time>2015-11-11T15:07:52Z</time>
      </trkpt>
      <trkpt lat="43.70049" lon="1.27536">
        <ele>174.2</ele>
        <time>2015-11-11T15:07:53Z</time>
      </trkpt>
      <trkpt lat="43.70042" lon="1.27531">
        <ele>174.3</ele>
        <time>2015-11-11T15:07:54Z</time>
      </trkpt>
      <trkpt lat="43.70035" lon="1.27526">
        <ele>174.4</ele>
        <time>2015-11-11T15:07:55Z</time>
      </trkpt>
      <trkpt lat="43.70028" lon="1.27521">
        <ele>174.6</ele>
        <time>2015-11-11T15:07:56Z</time>
      </trkpt>
      <trkpt lat="43.70022" lon="1.27516">
        <ele>174.8</ele>
        <time>2015-11-11T15:07:57Z</time>
      </trkpt>
      <trkpt lat="43.70015" lon="1.27511">
        <ele>174.9</ele>
        <time>2015-11-11T15:07:58Z</time>
      </trkpt>
      <trkpt lat="43.70009" lon="1.27505">
        <ele>175.1</ele>
        <time>2015-11-11T15:07:59Z</time>
      </trkpt>
      <trkpt lat="43.70003" lon="1.27499">
        <ele>175.3</ele>
        <time>2015-11-11T15:08:00Z</time>
      </trkpt>
      <trkpt lat="43.69996" lon="1.27492">
        <ele>175.4</ele>
        <time>2015-11-11T15:08:01Z</time>
      </trkpt>
      <trkpt lat="43.6999" lon="1.27486">
        <ele>175.6</ele>
        <time>2015-11-11T15:08:02Z</time>
      </trkpt>
      <trkpt lat="43.69983" lon="1.2748">
        <ele>175.7</ele>
        <time>2015-11-11T15:08:03Z</time>
      </trkpt>
      <trkpt lat="43.69976" lon="1.27475">
        <ele>175.8</ele>
        <time>2015-11-11T15:08:04Z</time>
      </trkpt>
      <trkpt lat="43.69969" lon="1.27468">
        <ele>175.9</ele>
        <time>2015-11-11T15:08:05Z</time>
      </trkpt>
      <trkpt lat="43.69962" lon="1.27462">
        <ele>176</ele>
        <time>2015-11-11T15:08:06Z</time>
      </trkpt>
      <trkpt lat="43.69956" lon="1.27457">
        <ele>175.9</ele>
        <time>2015-11-11T15:08:07Z</time>
      </trkpt>
      <trkpt lat="43.69949" lon="1.27451">
        <ele>175.7</ele>
        <time>2015-11-11T15:08:08Z</time>
      </trkpt>
      <trkpt lat="43.69943" lon="1.27445">
        <ele>175.6</ele>
        <time>2015-11-11T15:08:09Z</time>
      </trkpt>
      <trkpt lat="43.69939" lon="1.27437">
        <ele>175.4</ele>
        <time>2015-11-11T15:08:10Z</time>
      </trkpt>
      <trkpt lat="43.69933" lon="1.27431">
        <ele>175.2</ele>
        <time>2015-11-11T15:08:11Z</time>
      </trkpt>
      <trkpt lat="43.69925" lon="1.27425">
        <ele>175.1</ele>
        <time>2015-11-11T15:08:12Z</time>
      </trkpt>
      <trkpt lat="43.69919" lon="1.27418">
        <ele>175</ele>
        <time>2015-11-11T15:08:13Z</time>
      </trkpt>
      <trkpt lat="43.69913" lon="1.27413">
        <ele>175</ele>
        <time>2015-11-11T15:08:14Z</time>
      </trkpt>
      <trkpt lat="43.69906" lon="1.27407">
        <ele>174.9</ele>
        <time>2015-11-11T15:08:15Z</time>
      </trkpt>
      <trkpt lat="43.69902" lon="1.27402">
        <ele>174.9</ele>
        <time>2015-11-11T15:08:16Z</time>
      </trkpt>
      <trkpt lat="43.69897" lon="1.27396">
        <ele>174.9</ele>
        <time>2015-11-11T15:08:17Z</time>
      </trkpt>
      <trkpt lat="43.69889" lon="1.2739">
        <ele>174.9</ele>
        <time>2015-11-11T15:08:18Z</time>
      </trkpt>
      <trkpt lat="43.69882" lon="1.27384">
        <ele>174.9</ele>
        <time>2015-11-11T15:08:19Z</time>
      </trkpt>
      <trkpt lat="43.69878" lon="1.27377">
        <ele>175</ele>
        <time>2015-11-11T15:08:20Z</time>
      </trkpt>
      <trkpt lat="43.69874" lon="1.27374">
        <ele>175</ele>
        <time>2015-11-11T15:08:21Z</time>
      </trkpt>
      <trkpt lat="43.69868" lon="1.27366">
        <ele>175.1</ele>
        <time>2015-11-11T15:08:22Z</time>
      </trkpt>
      <trkpt lat="43.69862" lon="1.27359">
        <ele>175.1</ele>
        <time>2015-11-11T15:08:23Z</time>
      </trkpt>
      <trkpt lat="43.69855" lon="1.27353">
        <ele>175.2</ele>
        <time>2015-11-11T15:08:24Z</time>
      </trkpt>
      <trkpt lat="43.69848" lon="1.27347">
        <ele>175.2</ele>
        <time>2015-11-11T15:08:25Z</time>
      </trkpt>
      <trkpt lat="43.6984" lon="1.27341">
        <ele>175.3</ele>
        <time>2015-11-11T15:08:26Z</time>
      </trkpt>
      <trkpt lat="43.69833" lon="1.27334">
        <ele>175.3</ele>
        <time>2015-11-11T15:08:27Z</time>
      </trkpt>
      <trkpt lat="43.69827" lon="1.27328">
        <ele>175.3</ele>
        <time>2015-11-11T15:08:28Z</time>
      </trkpt>
      <trkpt lat="43.6982" lon="1.27321">
        <ele>175.2</ele>
        <time>2015-11-11T15:08:29Z</time>
      </trkpt>
      <trkpt lat="43.69815" lon="1.27315">
        <ele>175.2</ele>
        <time>2015-11-11T15:08:30Z</time>
      </trkpt>
      <trkpt lat="43.69807" lon="1.27308">
        <ele>175.2</ele>
        <time>2015-11-11T15:08:31Z</time>
      </trkpt>
      <trkpt lat="43.698" lon="1.27305">
        <ele>175.1</ele>
        <time>2015-11-11T15:08:32Z</time>
      </trkpt>
      <trkpt lat="43.69797" lon="1.273">
        <ele>175.1</ele>
        <time>2015-11-11T15:08:33Z</time>
      </trkpt>
      <trkpt lat="43.6979" lon="1.27293">
        <ele>175</ele>
        <time>2015-11-11T15:08:34Z</time>
      </trkpt>
      <trkpt lat="43.69783" lon="1.27287">
        <ele>175.2</ele>
        <time>2015-11-11T15:08:35Z</time>
      </trkpt>
      <trkpt lat="43.69777" lon="1.2728">
        <ele>175.3</ele>
        <time>2015-11-11T15:08:36Z</time>
      </trkpt>
      <trkpt lat="43.69771" lon="1.27273">
        <ele>175.4</ele>
        <time>2015-11-11T15:08:37Z</time>
      </trkpt>
      <trkpt lat="43.69763" lon="1.27266">
        <ele>175.6</ele>
        <time>2015-11-11T15:08:38Z</time>
      </trkpt>
      <trkpt lat="43.69756" lon="1.27258">
        <ele>175.7</ele>
        <time>2015-11-11T15:08:39Z</time>
      </trkpt>
      <trkpt lat="43.69751" lon="1.27251">
        <ele>175.7</ele>
        <time>2015-11-11T15:08:40Z</time>
      </trkpt>
      <trkpt lat="43.69745" lon="1.27245">
        <ele>175.8</ele>
        <time>2015-11-11T15:08:41Z</time>
      </trkpt>
      <trkpt lat="43.69739" lon="1.27237">
        <ele>175.9</ele>
        <time>2015-11-11T15:08:42Z</time>
      </trkpt>
      <trkpt lat="43.69732" lon="1.2723">
        <ele>175.9</ele>
        <time>2015-11-11T15:08:43Z</time>
      </trkpt>
      <trkpt lat="43.69726" lon="1.27223">
        <ele>176</ele>
        <time>2015-11-11T15:08:44Z</time>
      </trkpt>
      <trkpt lat="43.6972" lon="1.27217">
        <ele>176</ele>
        <time>2015-11-11T15:08:45Z</time>
      </trkpt>
      <trkpt lat="43.69715" lon="1.27211">
        <ele>176</ele>
        <time>2015-11-11T15:08:46Z</time>
      </trkpt>
      <trkpt lat="43.69708" lon="1.27203">
        <ele>175.9</ele>
        <time>2015-11-11T15:08:47Z</time>
      </trkpt>
      <trkpt lat="43.69702" lon="1.27196">
        <ele>176.1</ele>
        <time>2015-11-11T15:08:48Z</time>
      </trkpt>
      <trkpt lat="43.69696" lon="1.27188">
        <ele>176.2</ele>
        <time>2015-11-11T15:08:49Z</time>
      </trkpt>
      <trkpt lat="43.69691" lon="1.27178">
        <ele>176.3</ele>
        <time>2015-11-11T15:08:50Z</time>
      </trkpt>
      <trkpt lat="43.69686" lon="1.27171">
        <ele>176.4</ele>
        <time>2015-11-11T15:08:51Z</time>
      </trkpt>
      <trkpt lat="43.69682" lon="1.2716">
        <ele>176.4</ele>
        <time>2015-11-11T15:08:52Z</time>
      </trkpt>
      <trkpt lat="43.69675" lon="1.27152">
        <ele>176.5</ele>
        <time>2015-11-11T15:08:53Z</time>
      </trkpt>
      <trkpt lat="43.69671" lon="1.27142">
        <ele>176.6</ele>
        <time>2015-11-11T15:08:54Z</time>
      </trkpt>
      <trkpt lat="43.69665" lon="1.27136">
        <ele>176.7</ele>
        <time>2015-11-11T15:08:55Z</time>
      </trkpt>
      <trkpt lat="43.69661" lon="1.27126">
        <ele>176.7</ele>
        <time>2015-11-11T15:08:56Z</time>
      </trkpt>
      <trkpt lat="43.69655" lon="1.27118">
        <ele>177.1</ele>
        <time>2015-11-11T15:08:57Z</time>
      </trkpt>
      <trkpt lat="43.69651" lon="1.27108">
        <ele>177.5</ele>
        <time>2015-11-11T15:08:58Z</time>
      </trkpt>
      <trkpt lat="43.69646" lon="1.27099">
        <ele>177.9</ele>
        <time>2015-11-11T15:08:59Z</time>
      </trkpt>
      <trkpt lat="43.69641" lon="1.2709">
        <ele>178.3</ele>
        <time>2015-11-11T15:09:00Z</time>
      </trkpt>
      <trkpt lat="43.69635" lon="1.27081">
        <ele>178.7</ele>
        <time>2015-11-11T15:09:01Z</time>
      </trkpt>
      <trkpt lat="43.69632" lon="1.27073">
        <ele>179</ele>
        <time>2015-11-11T15:09:02Z</time>
      </trkpt>
      <trkpt lat="43.69627" lon="1.27063">
        <ele>179.4</ele>
        <time>2015-11-11T15:09:03Z</time>
      </trkpt>
      <trkpt lat="43.69622" lon="1.27056">
        <ele>179.6</ele>
        <time>2015-11-11T15:09:04Z</time>
      </trkpt>
      <trkpt lat="43.69617" lon="1.27045">
        <ele>179.7</ele>
        <time>2015-11-11T15:09:05Z</time>
      </trkpt>
      <trkpt lat="43.69613" lon="1.27037">
        <ele>179.7</ele>
        <time>2015-11-11T15:09:06Z</time>
      </trkpt>
      <trkpt lat="43.69608" lon="1.27029">
        <ele>179.6</ele>
        <time>2015-11-11T15:09:07Z</time>
      </trkpt>
      <trkpt lat="43.69604" lon="1.27022">
        <ele>179.5</ele>
        <time>2015-11-11T15:09:08Z</time>
      </trkpt>
      <trkpt lat="43.69598" lon="1.27014">
        <ele>179.5</ele>
        <time>2015-11-11T15:09:09Z</time>
      </trkpt>
      <trkpt lat="43.69593" lon="1.27006">
        <ele>179.5</ele>
        <time>2015-11-11T15:09:10Z</time>
      </trkpt>
      <trkpt lat="43.69588" lon="1.26995">
        <ele>179.5</ele>
        <time>2015-11-11T15:09:11Z</time>
      </trkpt>
      <trkpt lat="43.69584" lon="1.26986">
        <ele>179.7</ele>
        <time>2015-11-11T15:09:12Z</time>
      </trkpt>
      <trkpt lat="43.69581" lon="1.2698">
        <ele>179.8</ele>
        <time>2015-11-11T15:09:13Z</time>
      </trkpt>
      <trkpt lat="43.69576" lon="1.26972">
        <ele>179.9</ele>
        <time>2015-11-11T15:09:14Z</time>
      </trkpt>
      <trkpt lat="43.69572" lon="1.26964">
        <ele>180.2</ele>
        <time>2015-11-11T15:09:15Z</time>
      </trkpt>
      <trkpt lat="43.69569" lon="1.26956">
        <ele>180.3</ele>
        <time>2015-11-11T15:09:16Z</time>
      </trkpt>
      <trkpt lat="43.69567" lon="1.26946">
        <ele>180.2</ele>
        <time>2015-11-11T15:09:17Z</time>
      </trkpt>
      <trkpt lat="43.6956" lon="1.26939">
        <ele>180.2</ele>
        <time>2015-11-11T15:09:18Z</time>
      </trkpt>
      <trkpt lat="43.69558" lon="1.26928">
        <ele>180.1</ele>
        <time>2015-11-11T15:09:19Z</time>
      </trkpt>
      <trkpt lat="43.69555" lon="1.26919">
        <ele>180</ele>
        <time>2015-11-11T15:09:20Z</time>
      </trkpt>
      <trkpt lat="43.69549" lon="1.26911">
        <ele>179.8</ele>
        <time>2015-11-11T15:09:21Z</time>
      </trkpt>
      <trkpt lat="43.69545" lon="1.26903">
        <ele>179.7</ele>
        <time>2015-11-11T15:09:22Z</time>
      </trkpt>
      <trkpt lat="43.69543" lon="1.26894">
        <ele>179.5</ele>
        <time>2015-11-11T15:09:23Z</time>
      </trkpt>
      <trkpt lat="43.69539" lon="1.26885">
        <ele>179.3</ele>
        <time>2015-11-11T15:09:24Z</time>
      </trkpt>
      <trkpt lat="43.69535" lon="1.26884">
        <ele>179.3</ele>
        <time>2015-11-11T15:09:25Z</time>
      </trkpt>
      <trkpt lat="43.6953" lon="1.26878">
        <ele>179.2</ele>
        <time>2015-11-11T15:09:26Z</time>
      </trkpt>
      <trkpt lat="43.69527" lon="1.26868">
        <ele>178.4</ele>
        <time>2015-11-11T15:09:27Z</time>
      </trkpt>
      <trkpt lat="43.69522" lon="1.2686">
        <ele>177.7</ele>
        <time>2015-11-11T15:09:28Z</time>
      </trkpt>
      <trkpt lat="43.6952" lon="1.26849">
        <ele>176.6</ele>
        <time>2015-11-11T15:09:29Z</time>
      </trkpt>
      <trkpt lat="43.69518" lon="1.26844">
        <ele>176.1</ele>
        <time>2015-11-11T15:09:30Z</time>
      </trkpt>
      <trkpt lat="43.69514" lon="1.26835">
        <ele>175.1</ele>
        <time>2015-11-11T15:09:31Z</time>
      </trkpt>
      <trkpt lat="43.69509" lon="1.2683">
        <ele>174.7</ele>
        <time>2015-11-11T15:09:32Z</time>
      </trkpt>
      <trkpt lat="43.69504" lon="1.26827">
        <ele>174.3</ele>
        <time>2015-11-11T15:09:33Z</time>
      </trkpt>
      <trkpt lat="43.69499" lon="1.26824">
        <ele>174</ele>
        <time>2015-11-11T15:09:34Z</time>
      </trkpt>
      <trkpt lat="43.69492" lon="1.2682">
        <ele>173.5</ele>
        <time>2015-11-11T15:09:35Z</time>
      </trkpt>
      <trkpt lat="43.69487" lon="1.26815">
        <ele>173</ele>
        <time>2015-11-11T15:09:36Z</time>
      </trkpt>
      <trkpt lat="43.69482" lon="1.26811">
        <ele>172.4</ele>
        <time>2015-11-11T15:09:37Z</time>
      </trkpt>
      <trkpt lat="43.69475" lon="1.26805">
        <ele>171.7</ele>
        <time>2015-11-11T15:09:38Z</time>
      </trkpt>
      <trkpt lat="43.69467" lon="1.26802">
        <ele>171.3</ele>
        <time>2015-11-11T15:09:39Z</time>
      </trkpt>
      <trkpt lat="43.69458" lon="1.26805">
        <ele>171.6</ele>
        <time>2015-11-11T15:09:40Z</time>
      </trkpt>
      <trkpt lat="43.69449" lon="1.26807">
        <ele>171.7</ele>
        <time>2015-11-11T15:09:41Z</time>
      </trkpt>
      <trkpt lat="43.6944" lon="1.2681">
        <ele>171.9</ele>
        <time>2015-11-11T15:09:42Z</time>
      </trkpt>
      <trkpt lat="43.69432" lon="1.26812">
        <ele>172</ele>
        <time>2015-11-11T15:09:43Z</time>
      </trkpt>
      <trkpt lat="43.69423" lon="1.26813">
        <ele>172</ele>
        <time>2015-11-11T15:09:44Z</time>
      </trkpt>
      <trkpt lat="43.69414" lon="1.26813">
        <ele>171.9</ele>
        <time>2015-11-11T15:09:45Z</time>
      </trkpt>
      <trkpt lat="43.69404" lon="1.26817">
        <ele>172.2</ele>
        <time>2015-11-11T15:09:46Z</time>
      </trkpt>
      <trkpt lat="43.69395" lon="1.26819">
        <ele>172.3</ele>
        <time>2015-11-11T15:09:47Z</time>
      </trkpt>
      <trkpt lat="43.69387" lon="1.26822">
        <ele>172.5</ele>
        <time>2015-11-11T15:09:48Z</time>
      </trkpt>
      <trkpt lat="43.6938" lon="1.26823">
        <ele>172.5</ele>
        <time>2015-11-11T15:09:49Z</time>
      </trkpt>
      <trkpt lat="43.69375" lon="1.26827">
        <ele>172.9</ele>
        <time>2015-11-11T15:09:50Z</time>
      </trkpt>
      <trkpt lat="43.6937" lon="1.26829">
        <ele>173.1</ele>
        <time>2015-11-11T15:09:51Z</time>
      </trkpt>
      <trkpt lat="43.69365" lon="1.2683">
        <ele>173.3</ele>
        <time>2015-11-11T15:09:52Z</time>
      </trkpt>
      <trkpt lat="43.69359" lon="1.26832">
        <ele>173.5</ele>
        <time>2015-11-11T15:09:53Z</time>
      </trkpt>
      <trkpt lat="43.69355" lon="1.26834">
        <ele>173.8</ele>
        <time>2015-11-11T15:09:54Z</time>
      </trkpt>
      <trkpt lat="43.6935" lon="1.26836">
        <ele>174.1</ele>
        <time>2015-11-11T15:09:55Z</time>
      </trkpt>
      <trkpt lat="43.69345" lon="1.26838">
        <ele>174.3</ele>
        <time>2015-11-11T15:09:56Z</time>
      </trkpt>
      <trkpt lat="43.6934" lon="1.26839">
        <ele>174.6</ele>
        <time>2015-11-11T15:09:57Z</time>
      </trkpt>
      <trkpt lat="43.69335" lon="1.2684">
        <ele>174.7</ele>
        <time>2015-11-11T15:09:58Z</time>
      </trkpt>
      <trkpt lat="43.6933" lon="1.26841">
        <ele>174.8</ele>
        <time>2015-11-11T15:09:59Z</time>
      </trkpt>
      <trkpt lat="43.69325" lon="1.26842">
        <ele>175</ele>
        <time>2015-11-11T15:10:00Z</time>
      </trkpt>
      <trkpt lat="43.69319" lon="1.26842">
        <ele>175.1</ele>
        <time>2015-11-11T15:10:01Z</time>
      </trkpt>
      <trkpt lat="43.69313" lon="1.26842">
        <ele>175.1</ele>
        <time>2015-11-11T15:10:02Z</time>
      </trkpt>
      <trkpt lat="43.69308" lon="1.26842">
        <ele>175.3</ele>
        <time>2015-11-11T15:10:03Z</time>
      </trkpt>
      <trkpt lat="43.69302" lon="1.26843">
        <ele>175.4</ele>
        <time>2015-11-11T15:10:04Z</time>
      </trkpt>
      <trkpt lat="43.69296" lon="1.26843">
        <ele>175.4</ele>
        <time>2015-11-11T15:10:05Z</time>
      </trkpt>
      <trkpt lat="43.69291" lon="1.26843">
        <ele>175.5</ele>
        <time>2015-11-11T15:10:06Z</time>
      </trkpt>
      <trkpt lat="43.69285" lon="1.26842">
        <ele>175</ele>
        <time>2015-11-11T15:10:07Z</time>
      </trkpt>
      <trkpt lat="43.69281" lon="1.26843">
        <ele>175</ele>
        <time>2015-11-11T15:10:08Z</time>
      </trkpt>
      <trkpt lat="43.69275" lon="1.26844">
        <ele>174.7</ele>
        <time>2015-11-11T15:10:09Z</time>
      </trkpt>
      <trkpt lat="43.69267" lon="1.26846">
        <ele>174.4</ele>
        <time>2015-11-11T15:10:10Z</time>
      </trkpt>
      <trkpt lat="43.69265" lon="1.26853">
        <ele>174.9</ele>
        <time>2015-11-11T15:10:11Z</time>
      </trkpt>
      <trkpt lat="43.6926" lon="1.26857">
        <ele>174.9</ele>
        <time>2015-11-11T15:10:12Z</time>
      </trkpt>
      <trkpt lat="43.69253" lon="1.26861">
        <ele>174.7</ele>
        <time>2015-11-11T15:10:13Z</time>
      </trkpt>
      <trkpt lat="43.69246" lon="1.26864">
        <ele>174.4</ele>
        <time>2015-11-11T15:10:14Z</time>
      </trkpt>
      <trkpt lat="43.6924" lon="1.26867">
        <ele>174.2</ele>
        <time>2015-11-11T15:10:15Z</time>
      </trkpt>
      <trkpt lat="43.69233" lon="1.2687">
        <ele>173.8</ele>
        <time>2015-11-11T15:10:16Z</time>
      </trkpt>
      <trkpt lat="43.69226" lon="1.26873">
        <ele>173.4</ele>
        <time>2015-11-11T15:10:17Z</time>
      </trkpt>
      <trkpt lat="43.69221" lon="1.26876">
        <ele>173.1</ele>
        <time>2015-11-11T15:10:18Z</time>
      </trkpt>
      <trkpt lat="43.69214" lon="1.26881">
        <ele>173</ele>
        <time>2015-11-11T15:10:19Z</time>
      </trkpt>
      <trkpt lat="43.69209" lon="1.26883">
        <ele>172.8</ele>
        <time>2015-11-11T15:10:20Z</time>
      </trkpt>
      <trkpt lat="43.69202" lon="1.26886">
        <ele>172.9</ele>
        <time>2015-11-11T15:10:21Z</time>
      </trkpt>
      <trkpt lat="43.69197" lon="1.2689">
        <ele>173.1</ele>
        <time>2015-11-11T15:10:22Z</time>
      </trkpt>
      <trkpt lat="43.6919" lon="1.26894">
        <ele>173.3</ele>
        <time>2015-11-11T15:10:23Z</time>
      </trkpt>
      <trkpt lat="43.69185" lon="1.269">
        <ele>173.6</ele>
        <time>2015-11-11T15:10:24Z</time>
      </trkpt>
      <trkpt lat="43.69179" lon="1.26905">
        <ele>173.8</ele>
        <time>2015-11-11T15:10:25Z</time>
      </trkpt>
      <trkpt lat="43.69174" lon="1.2691">
        <ele>173.9</ele>
        <time>2015-11-11T15:10:26Z</time>
      </trkpt>
      <trkpt lat="43.69168" lon="1.26914">
        <ele>173.9</ele>
        <time>2015-11-11T15:10:27Z</time>
      </trkpt>
      <trkpt lat="43.69162" lon="1.2692">
        <ele>173.9</ele>
        <time>2015-11-11T15:10:28Z</time>
      </trkpt>
      <trkpt lat="43.69159" lon="1.26924">
        <ele>174</ele>
        <time>2015-11-11T15:10:29Z</time>
      </trkpt>
      <trkpt lat="43.69154" lon="1.2693">
        <ele>174</ele>
        <time>2015-11-11T15:10:30Z</time>
      </trkpt>
      <trkpt lat="43.69149" lon="1.26934">
        <ele>174</ele>
        <time>2015-11-11T15:10:31Z</time>
      </trkpt>
      <trkpt lat="43.69144" lon="1.2694">
        <ele>173.8</ele>
        <time>2015-11-11T15:10:32Z</time>
      </trkpt>
      <trkpt lat="43.69139" lon="1.26944">
        <ele>173.7</ele>
        <time>2015-11-11T15:10:33Z</time>
      </trkpt>
      <trkpt lat="43.69133" lon="1.26949">
        <ele>173.3</ele>
        <time>2015-11-11T15:10:34Z</time>
      </trkpt>
      <trkpt lat="43.69125" lon="1.26953">
        <ele>172.9</ele>
        <time>2015-11-11T15:10:35Z</time>
      </trkpt>
      <trkpt lat="43.69119" lon="1.26958">
        <ele>172.8</ele>
        <time>2015-11-11T15:10:36Z</time>
      </trkpt>
      <trkpt lat="43.69113" lon="1.26963">
        <ele>173</ele>
        <time>2015-11-11T15:10:37Z</time>
      </trkpt>
      <trkpt lat="43.69106" lon="1.26968">
        <ele>173.4</ele>
        <time>2015-11-11T15:10:38Z</time>
      </trkpt>
      <trkpt lat="43.69101" lon="1.26973">
        <ele>173.6</ele>
        <time>2015-11-11T15:10:39Z</time>
      </trkpt>
      <trkpt lat="43.69094" lon="1.26978">
        <ele>173.8</ele>
        <time>2015-11-11T15:10:40Z</time>
      </trkpt>
      <trkpt lat="43.69089" lon="1.26984">
        <ele>174.1</ele>
        <time>2015-11-11T15:10:41Z</time>
      </trkpt>
      <trkpt lat="43.69085" lon="1.26988">
        <ele>174.2</ele>
        <time>2015-11-11T15:10:42Z</time>
      </trkpt>
      <trkpt lat="43.69078" lon="1.26993">
        <ele>174.3</ele>
        <time>2015-11-11T15:10:43Z</time>
      </trkpt>
      <trkpt lat="43.69073" lon="1.26997">
        <ele>174.3</ele>
        <time>2015-11-11T15:10:44Z</time>
      </trkpt>
      <trkpt lat="43.69067" lon="1.27003">
        <ele>174.4</ele>
        <time>2015-11-11T15:10:45Z</time>
      </trkpt>
      <trkpt lat="43.69061" lon="1.27007">
        <ele>174.3</ele>
        <time>2015-11-11T15:10:46Z</time>
      </trkpt>
      <trkpt lat="43.69055" lon="1.27012">
        <ele>174.2</ele>
        <time>2015-11-11T15:10:47Z</time>
      </trkpt>
      <trkpt lat="43.6905" lon="1.27016">
        <ele>174.1</ele>
        <time>2015-11-11T15:10:48Z</time>
      </trkpt>
      <trkpt lat="43.69044" lon="1.27021">
        <ele>174</ele>
        <time>2015-11-11T15:10:49Z</time>
      </trkpt>
      <trkpt lat="43.69038" lon="1.27027">
        <ele>174</ele>
        <time>2015-11-11T15:10:50Z</time>
      </trkpt>
      <trkpt lat="43.69033" lon="1.27032">
        <ele>174.1</ele>
        <time>2015-11-11T15:10:51Z</time>
      </trkpt>
      <trkpt lat="43.69027" lon="1.27039">
        <ele>174.2</ele>
        <time>2015-11-11T15:10:53Z</time>
      </trkpt>
      <trkpt lat="43.69022" lon="1.27046">
        <ele>174.2</ele>
        <time>2015-11-11T15:10:54Z</time>
      </trkpt>
      <trkpt lat="43.69019" lon="1.27053">
        <ele>174.5</ele>
        <time>2015-11-11T15:10:55Z</time>
      </trkpt>
      <trkpt lat="43.69013" lon="1.27061">
        <ele>174.6</ele>
        <time>2015-11-11T15:10:56Z</time>
      </trkpt>
      <trkpt lat="43.69007" lon="1.27069">
        <ele>174.5</ele>
        <time>2015-11-11T15:10:57Z</time>
      </trkpt>
      <trkpt lat="43.69001" lon="1.27076">
        <ele>174.5</ele>
        <time>2015-11-11T15:10:58Z</time>
      </trkpt>
      <trkpt lat="43.68995" lon="1.27084">
        <ele>174.4</ele>
        <time>2015-11-11T15:10:59Z</time>
      </trkpt>
      <trkpt lat="43.68989" lon="1.2709">
        <ele>174.3</ele>
        <time>2015-11-11T15:11:00Z</time>
      </trkpt>
      <trkpt lat="43.68984" lon="1.27098">
        <ele>174.2</ele>
        <time>2015-11-11T15:11:01Z</time>
      </trkpt>
      <trkpt lat="43.6898" lon="1.27105">
        <ele>174.1</ele>
        <time>2015-11-11T15:11:02Z</time>
      </trkpt>
      <trkpt lat="43.68975" lon="1.27113">
        <ele>174</ele>
        <time>2015-11-11T15:11:03Z</time>
      </trkpt>
      <trkpt lat="43.6897" lon="1.27121">
        <ele>173.8</ele>
        <time>2015-11-11T15:11:04Z</time>
      </trkpt>
      <trkpt lat="43.68966" lon="1.27128">
        <ele>173.7</ele>
        <time>2015-11-11T15:11:05Z</time>
      </trkpt>
      <trkpt lat="43.68962" lon="1.27135">
        <ele>173.5</ele>
        <time>2015-11-11T15:11:06Z</time>
      </trkpt>
      <trkpt lat="43.68958" lon="1.27142">
        <ele>173.4</ele>
        <time>2015-11-11T15:11:07Z</time>
      </trkpt>
      <trkpt lat="43.68954" lon="1.27149">
        <ele>173.4</ele>
        <time>2015-11-11T15:11:08Z</time>
      </trkpt>
      <trkpt lat="43.68949" lon="1.27156">
        <ele>173.5</ele>
        <time>2015-11-11T15:11:09Z</time>
      </trkpt>
      <trkpt lat="43.68944" lon="1.27163">
        <ele>173.5</ele>
        <time>2015-11-11T15:11:10Z</time>
      </trkpt>
      <trkpt lat="43.68939" lon="1.27171">
        <ele>173.5</ele>
        <time>2015-11-11T15:11:11Z</time>
      </trkpt>
      <trkpt lat="43.68934" lon="1.27177">
        <ele>173.5</ele>
        <time>2015-11-11T15:11:12Z</time>
      </trkpt>
      <trkpt lat="43.68928" lon="1.27184">
        <ele>173.4</ele>
        <time>2015-11-11T15:11:13Z</time>
      </trkpt>
      <trkpt lat="43.68923" lon="1.27191">
        <ele>173.4</ele>
        <time>2015-11-11T15:11:14Z</time>
      </trkpt>
      <trkpt lat="43.68918" lon="1.27197">
        <ele>173.4</ele>
        <time>2015-11-11T15:11:15Z</time>
      </trkpt>
      <trkpt lat="43.68913" lon="1.27203">
        <ele>173.3</ele>
        <time>2015-11-11T15:11:16Z</time>
      </trkpt>
      <trkpt lat="43.6891" lon="1.27209">
        <ele>173.3</ele>
        <time>2015-11-11T15:11:17Z</time>
      </trkpt>
      <trkpt lat="43.68905" lon="1.27216">
        <ele>173.5</ele>
        <time>2015-11-11T15:11:18Z</time>
      </trkpt>
      <trkpt lat="43.689" lon="1.27223">
        <ele>173.7</ele>
        <time>2015-11-11T15:11:19Z</time>
      </trkpt>
      <trkpt lat="43.68895" lon="1.27229">
        <ele>173.9</ele>
        <time>2015-11-11T15:11:20Z</time>
      </trkpt>
      <trkpt lat="43.6889" lon="1.27234">
        <ele>174.1</ele>
        <time>2015-11-11T15:11:21Z</time>
      </trkpt>
      <trkpt lat="43.68885" lon="1.2724">
        <ele>174.2</ele>
        <time>2015-11-11T15:11:22Z</time>
      </trkpt>
      <trkpt lat="43.6888" lon="1.27247">
        <ele>174.4</ele>
        <time>2015-11-11T15:11:23Z</time>
      </trkpt>
      <trkpt lat="43.68874" lon="1.27253">
        <ele>174.7</ele>
        <time>2015-11-11T15:11:24Z</time>
      </trkpt>
      <trkpt lat="43.68868" lon="1.27259">
        <ele>174.9</ele>
        <time>2015-11-11T15:11:25Z</time>
      </trkpt>
      <trkpt lat="43.6886" lon="1.27265">
        <ele>175.1</ele>
        <time>2015-11-11T15:11:26Z</time>
      </trkpt>
      <trkpt lat="43.68854" lon="1.2727">
        <ele>175.2</ele>
        <time>2015-11-11T15:11:27Z</time>
      </trkpt>
      <trkpt lat="43.68848" lon="1.27273">
        <ele>175.3</ele>
        <time>2015-11-11T15:11:28Z</time>
      </trkpt>
      <trkpt lat="43.68841" lon="1.27275">
        <ele>175.2</ele>
        <time>2015-11-11T15:11:29Z</time>
      </trkpt>
      <trkpt lat="43.68834" lon="1.27276">
        <ele>175.2</ele>
        <time>2015-11-11T15:11:30Z</time>
      </trkpt>
      <trkpt lat="43.68826" lon="1.2728">
        <ele>175.2</ele>
        <time>2015-11-11T15:11:31Z</time>
      </trkpt>
      <trkpt lat="43.68819" lon="1.27281">
        <ele>175.1</ele>
        <time>2015-11-11T15:11:32Z</time>
      </trkpt>
      <trkpt lat="43.68812" lon="1.2728">
        <ele>174.9</ele>
        <time>2015-11-11T15:11:33Z</time>
      </trkpt>
      <trkpt lat="43.68805" lon="1.27281">
        <ele>174.8</ele>
        <time>2015-11-11T15:11:34Z</time>
      </trkpt>
      <trkpt lat="43.68799" lon="1.27281">
        <ele>174.6</ele>
        <time>2015-11-11T15:11:35Z</time>
      </trkpt>
      <trkpt lat="43.68792" lon="1.27279">
        <ele>174.4</ele>
        <time>2015-11-11T15:11:36Z</time>
      </trkpt>
      <trkpt lat="43.68785" lon="1.27279">
        <ele>174.4</ele>
        <time>2015-11-11T15:11:37Z</time>
      </trkpt>
      <trkpt lat="43.68778" lon="1.27278">
        <ele>174.5</ele>
        <time>2015-11-11T15:11:38Z</time>
      </trkpt>
      <trkpt lat="43.68771" lon="1.27277">
        <ele>174.5</ele>
        <time>2015-11-11T15:11:39Z</time>
      </trkpt>
      <trkpt lat="43.68765" lon="1.27276">
        <ele>174.5</ele>
        <time>2015-11-11T15:11:40Z</time>
      </trkpt>
      <trkpt lat="43.68757" lon="1.27275">
        <ele>174.5</ele>
        <time>2015-11-11T15:11:41Z</time>
      </trkpt>
      <trkpt lat="43.6875" lon="1.27274">
        <ele>174.6</ele>
        <time>2015-11-11T15:11:42Z</time>
      </trkpt>
      <trkpt lat="43.68742" lon="1.27274">
        <ele>174.6</ele>
        <time>2015-11-11T15:11:43Z</time>
      </trkpt>
      <trkpt lat="43.68735" lon="1.27272">
        <ele>174.7</ele>
        <time>2015-11-11T15:11:44Z</time>
      </trkpt>
      <trkpt lat="43.68729" lon="1.2727">
        <ele>174.7</ele>
        <time>2015-11-11T15:11:45Z</time>
      </trkpt>
      <trkpt lat="43.68722" lon="1.27269">
        <ele>174.8</ele>
        <time>2015-11-11T15:11:46Z</time>
      </trkpt>
      <trkpt lat="43.68715" lon="1.27267">
        <ele>174.9</ele>
        <time>2015-11-11T15:11:47Z</time>
      </trkpt>
      <trkpt lat="43.68708" lon="1.27266">
        <ele>175</ele>
        <time>2015-11-11T15:11:48Z</time>
      </trkpt>
      <trkpt lat="43.687" lon="1.27267">
        <ele>175.3</ele>
        <time>2015-11-11T15:11:49Z</time>
      </trkpt>
      <trkpt lat="43.68693" lon="1.27265">
        <ele>175.6</ele>
        <time>2015-11-11T15:11:50Z</time>
      </trkpt>
      <trkpt lat="43.68684" lon="1.27264">
        <ele>176</ele>
        <time>2015-11-11T15:11:51Z</time>
      </trkpt>
      <trkpt lat="43.68676" lon="1.27264">
        <ele>176.3</ele>
        <time>2015-11-11T15:11:52Z</time>
      </trkpt>
      <trkpt lat="43.68668" lon="1.27265">
        <ele>176.6</ele>
        <time>2015-11-11T15:11:53Z</time>
      </trkpt>
      <trkpt lat="43.6866" lon="1.27266">
        <ele>176.9</ele>
        <time>2015-11-11T15:11:54Z</time>
      </trkpt>
      <trkpt lat="43.68652" lon="1.27268">
        <ele>177.2</ele>
        <time>2015-11-11T15:11:55Z</time>
      </trkpt>
      <trkpt lat="43.68644" lon="1.27271">
        <ele>177.5</ele>
        <time>2015-11-11T15:11:56Z</time>
      </trkpt>
      <trkpt lat="43.68637" lon="1.27275">
        <ele>177.8</ele>
        <time>2015-11-11T15:11:57Z</time>
      </trkpt>
      <trkpt lat="43.68631" lon="1.27279">
        <ele>177.9</ele>
        <time>2015-11-11T15:11:58Z</time>
      </trkpt>
      <trkpt lat="43.68625" lon="1.27286">
        <ele>178.1</ele>
        <time>2015-11-11T15:11:59Z</time>
      </trkpt>
      <trkpt lat="43.6862" lon="1.27292">
        <ele>178.2</ele>
        <time>2015-11-11T15:12:00Z</time>
      </trkpt>
      <trkpt lat="43.68615" lon="1.27299">
        <ele>178.3</ele>
        <time>2015-11-11T15:12:01Z</time>
      </trkpt>
      <trkpt lat="43.6861" lon="1.27306">
        <ele>178.3</ele>
        <time>2015-11-11T15:12:02Z</time>
      </trkpt>
      <trkpt lat="43.68604" lon="1.27314">
        <ele>178.4</ele>
        <time>2015-11-11T15:12:03Z</time>
      </trkpt>
      <trkpt lat="43.68598" lon="1.27321">
        <ele>178.5</ele>
        <time>2015-11-11T15:12:04Z</time>
      </trkpt>
      <trkpt lat="43.68593" lon="1.27328">
        <ele>178.6</ele>
        <time>2015-11-11T15:12:05Z</time>
      </trkpt>
      <trkpt lat="43.68587" lon="1.27336">
        <ele>178.6</ele>
        <time>2015-11-11T15:12:06Z</time>
      </trkpt>
      <trkpt lat="43.68583" lon="1.27344">
        <ele>178.6</ele>
        <time>2015-11-11T15:12:07Z</time>
      </trkpt>
      <trkpt lat="43.68578" lon="1.27352">
        <ele>178.6</ele>
        <time>2015-11-11T15:12:08Z</time>
      </trkpt>
      <trkpt lat="43.68573" lon="1.27358">
        <ele>178.6</ele>
        <time>2015-11-11T15:12:09Z</time>
      </trkpt>
      <trkpt lat="43.68567" lon="1.27365">
        <ele>178.6</ele>
        <time>2015-11-11T15:12:10Z</time>
      </trkpt>
      <trkpt lat="43.68562" lon="1.27372">
        <ele>178.6</ele>
        <time>2015-11-11T15:12:11Z</time>
      </trkpt>
      <trkpt lat="43.68557" lon="1.27378">
        <ele>178.6</ele>
        <time>2015-11-11T15:12:12Z</time>
      </trkpt>
      <trkpt lat="43.68553" lon="1.27384">
        <ele>178.8</ele>
        <time>2015-11-11T15:12:13Z</time>
      </trkpt>
      <trkpt lat="43.68547" lon="1.27391">
        <ele>178.9</ele>
        <time>2015-11-11T15:12:14Z</time>
      </trkpt>
      <trkpt lat="43.68542" lon="1.27397">
        <ele>179</ele>
        <time>2015-11-11T15:12:15Z</time>
      </trkpt>
      <trkpt lat="43.68537" lon="1.27403">
        <ele>178.9</ele>
        <time>2015-11-11T15:12:16Z</time>
      </trkpt>
      <trkpt lat="43.68531" lon="1.27409">
        <ele>178.9</ele>
        <time>2015-11-11T15:12:17Z</time>
      </trkpt>
      <trkpt lat="43.68525" lon="1.27415">
        <ele>178.8</ele>
        <time>2015-11-11T15:12:18Z</time>
      </trkpt>
      <trkpt lat="43.68519" lon="1.2742">
        <ele>178.7</ele>
        <time>2015-11-11T15:12:19Z</time>
      </trkpt>
      <trkpt lat="43.68513" lon="1.27426">
        <ele>178.7</ele>
        <time>2015-11-11T15:12:20Z</time>
      </trkpt>
      <trkpt lat="43.68507" lon="1.2743">
        <ele>178.6</ele>
        <time>2015-11-11T15:12:21Z</time>
      </trkpt>
      <trkpt lat="43.685" lon="1.27434">
        <ele>178.5</ele>
        <time>2015-11-11T15:12:22Z</time>
      </trkpt>
      <trkpt lat="43.68494" lon="1.27438">
        <ele>178.4</ele>
        <time>2015-11-11T15:12:23Z</time>
      </trkpt>
      <trkpt lat="43.68488" lon="1.27442">
        <ele>178.4</ele>
        <time>2015-11-11T15:12:24Z</time>
      </trkpt>
      <trkpt lat="43.68481" lon="1.27446">
        <ele>178.3</ele>
        <time>2015-11-11T15:12:25Z</time>
      </trkpt>
      <trkpt lat="43.68473" lon="1.2745">
        <ele>178.2</ele>
        <time>2015-11-11T15:12:26Z</time>
      </trkpt>
      <trkpt lat="43.68466" lon="1.27453">
        <ele>178.1</ele>
        <time>2015-11-11T15:12:27Z</time>
      </trkpt>
      <trkpt lat="43.68461" lon="1.27457">
        <ele>178</ele>
        <time>2015-11-11T15:12:28Z</time>
      </trkpt>
      <trkpt lat="43.68458" lon="1.27458">
        <ele>178</ele>
        <time>2015-11-11T15:12:29Z</time>
      </trkpt>
      <trkpt lat="43.68452" lon="1.27461">
        <ele>177.9</ele>
        <time>2015-11-11T15:12:30Z</time>
      </trkpt>
      <trkpt lat="43.68445" lon="1.27464">
        <ele>177.9</ele>
        <time>2015-11-11T15:12:31Z</time>
      </trkpt>
      <trkpt lat="43.68438" lon="1.27467">
        <ele>177.9</ele>
        <time>2015-11-11T15:12:32Z</time>
      </trkpt>
      <trkpt lat="43.68431" lon="1.27471">
        <ele>177.8</ele>
        <time>2015-11-11T15:12:33Z</time>
      </trkpt>
      <trkpt lat="43.68423" lon="1.27473">
        <ele>177.7</ele>
        <time>2015-11-11T15:12:34Z</time>
      </trkpt>
      <trkpt lat="43.68418" lon="1.27475">
        <ele>177.7</ele>
        <time>2015-11-11T15:12:35Z</time>
      </trkpt>
      <trkpt lat="43.68412" lon="1.27476">
        <ele>177.7</ele>
        <time>2015-11-11T15:12:36Z</time>
      </trkpt>
      <trkpt lat="43.68407" lon="1.27478">
        <ele>177.6</ele>
        <time>2015-11-11T15:12:37Z</time>
      </trkpt>
      <trkpt lat="43.684" lon="1.27483">
        <ele>177.6</ele>
        <time>2015-11-11T15:12:38Z</time>
      </trkpt>
      <trkpt lat="43.68394" lon="1.27486">
        <ele>177.6</ele>
        <time>2015-11-11T15:12:39Z</time>
      </trkpt>
      <trkpt lat="43.68387" lon="1.27489">
        <ele>177.5</ele>
        <time>2015-11-11T15:12:40Z</time>
      </trkpt>
      <trkpt lat="43.6838" lon="1.27492">
        <ele>177.5</ele>
        <time>2015-11-11T15:12:41Z</time>
      </trkpt>
      <trkpt lat="43.68374" lon="1.27496">
        <ele>177.5</ele>
        <time>2015-11-11T15:12:42Z</time>
      </trkpt>
      <trkpt lat="43.68367" lon="1.27499">
        <ele>177.7</ele>
        <time>2015-11-11T15:12:43Z</time>
      </trkpt>
      <trkpt lat="43.68359" lon="1.27502">
        <ele>178</ele>
        <time>2015-11-11T15:12:44Z</time>
      </trkpt>
      <trkpt lat="43.68351" lon="1.27508">
        <ele>178.3</ele>
        <time>2015-11-11T15:12:45Z</time>
      </trkpt>
      <trkpt lat="43.68345" lon="1.27511">
        <ele>178.5</ele>
        <time>2015-11-11T15:12:46Z</time>
      </trkpt>
      <trkpt lat="43.68339" lon="1.27514">
        <ele>178.7</ele>
        <time>2015-11-11T15:12:47Z</time>
      </trkpt>
      <trkpt lat="43.68332" lon="1.27518">
        <ele>178.9</ele>
        <time>2015-11-11T15:12:48Z</time>
      </trkpt>
      <trkpt lat="43.68325" lon="1.27522">
        <ele>179.1</ele>
        <time>2015-11-11T15:12:49Z</time>
      </trkpt>
      <trkpt lat="43.68318" lon="1.27524">
        <ele>179.3</ele>
        <time>2015-11-11T15:12:50Z</time>
      </trkpt>
      <trkpt lat="43.6831" lon="1.27526">
        <ele>179.5</ele>
        <time>2015-11-11T15:12:51Z</time>
      </trkpt>
      <trkpt lat="43.68303" lon="1.27527">
        <ele>179.7</ele>
        <time>2015-11-11T15:12:52Z</time>
      </trkpt>
      <trkpt lat="43.68296" lon="1.2753">
        <ele>179.9</ele>
        <time>2015-11-11T15:12:53Z</time>
      </trkpt>
      <trkpt lat="43.68289" lon="1.27532">
        <ele>180</ele>
        <time>2015-11-11T15:12:54Z</time>
      </trkpt>
      <trkpt lat="43.68282" lon="1.27534">
        <ele>179.9</ele>
        <time>2015-11-11T15:12:55Z</time>
      </trkpt>
      <trkpt lat="43.68275" lon="1.27535">
        <ele>179.8</ele>
        <time>2015-11-11T15:12:56Z</time>
      </trkpt>
      <trkpt lat="43.6827" lon="1.27536">
        <ele>179.7</ele>
        <time>2015-11-11T15:12:57Z</time>
      </trkpt>
      <trkpt lat="43.68263" lon="1.27539">
        <ele>179.7</ele>
        <time>2015-11-11T15:12:58Z</time>
      </trkpt>
      <trkpt lat="43.68257" lon="1.27541">
        <ele>179.6</ele>
        <time>2015-11-11T15:12:59Z</time>
      </trkpt>
      <trkpt lat="43.68249" lon="1.27543">
        <ele>179.5</ele>
        <time>2015-11-11T15:13:00Z</time>
      </trkpt>
      <trkpt lat="43.68242" lon="1.27543">
        <ele>179.4</ele>
        <time>2015-11-11T15:13:01Z</time>
      </trkpt>
      <trkpt lat="43.68236" lon="1.27545">
        <ele>179.3</ele>
        <time>2015-11-11T15:13:02Z</time>
      </trkpt>
      <trkpt lat="43.68229" lon="1.27548">
        <ele>179.2</ele>
        <time>2015-11-11T15:13:03Z</time>
      </trkpt>
      <trkpt lat="43.68221" lon="1.27548">
        <ele>179.1</ele>
        <time>2015-11-11T15:13:04Z</time>
      </trkpt>
      <trkpt lat="43.68214" lon="1.2755">
        <ele>179</ele>
        <time>2015-11-11T15:13:05Z</time>
      </trkpt>
      <trkpt lat="43.68206" lon="1.27552">
        <ele>178.9</ele>
        <time>2015-11-11T15:13:06Z</time>
      </trkpt>
      <trkpt lat="43.682" lon="1.27553">
        <ele>178.9</ele>
        <time>2015-11-11T15:13:07Z</time>
      </trkpt>
      <trkpt lat="43.68193" lon="1.27555">
        <ele>178.9</ele>
        <time>2015-11-11T15:13:08Z</time>
      </trkpt>
      <trkpt lat="43.68186" lon="1.27558">
        <ele>178.9</ele>
        <time>2015-11-11T15:13:09Z</time>
      </trkpt>
      <trkpt lat="43.68179" lon="1.2756">
        <ele>178.9</ele>
        <time>2015-11-11T15:13:10Z</time>
      </trkpt>
      <trkpt lat="43.68172" lon="1.27563">
        <ele>178.9</ele>
        <time>2015-11-11T15:13:11Z</time>
      </trkpt>
      <trkpt lat="43.68166" lon="1.27563">
        <ele>178.9</ele>
        <time>2015-11-11T15:13:12Z</time>
      </trkpt>
      <trkpt lat="43.68159" lon="1.27567">
        <ele>178.9</ele>
        <time>2015-11-11T15:13:13Z</time>
      </trkpt>
      <trkpt lat="43.68152" lon="1.27571">
        <ele>178.9</ele>
        <time>2015-11-11T15:13:14Z</time>
      </trkpt>
      <trkpt lat="43.68148" lon="1.27573">
        <ele>178.9</ele>
        <time>2015-11-11T15:13:15Z</time>
      </trkpt>
      <trkpt lat="43.68142" lon="1.27577">
        <ele>178.9</ele>
        <time>2015-11-11T15:13:16Z</time>
      </trkpt>
      <trkpt lat="43.68135" lon="1.2758">
        <ele>178.9</ele>
        <time>2015-11-11T15:13:17Z</time>
      </trkpt>
      <trkpt lat="43.68128" lon="1.27582">
        <ele>179</ele>
        <time>2015-11-11T15:13:18Z</time>
      </trkpt>
      <trkpt lat="43.68122" lon="1.27587">
        <ele>179</ele>
        <time>2015-11-11T15:13:19Z</time>
      </trkpt>
      <trkpt lat="43.68115" lon="1.2759">
        <ele>179.1</ele>
        <time>2015-11-11T15:13:20Z</time>
      </trkpt>
      <trkpt lat="43.68108" lon="1.27594">
        <ele>179.1</ele>
        <time>2015-11-11T15:13:21Z</time>
      </trkpt>
      <trkpt lat="43.68102" lon="1.27597">
        <ele>179.1</ele>
        <time>2015-11-11T15:13:22Z</time>
      </trkpt>
      <trkpt lat="43.68095" lon="1.27601">
        <ele>179.1</ele>
        <time>2015-11-11T15:13:23Z</time>
      </trkpt>
      <trkpt lat="43.68089" lon="1.27605">
        <ele>179.1</ele>
        <time>2015-11-11T15:13:24Z</time>
      </trkpt>
      <trkpt lat="43.68083" lon="1.27609">
        <ele>179.1</ele>
        <time>2015-11-11T15:13:25Z</time>
      </trkpt>
      <trkpt lat="43.68076" lon="1.27613">
        <ele>179.1</ele>
        <time>2015-11-11T15:13:26Z</time>
      </trkpt>
      <trkpt lat="43.68069" lon="1.27618">
        <ele>179.1</ele>
        <time>2015-11-11T15:13:27Z</time>
      </trkpt>
      <trkpt lat="43.6806" lon="1.27622">
        <ele>179</ele>
        <time>2015-11-11T15:13:28Z</time>
      </trkpt>
      <trkpt lat="43.68054" lon="1.27626">
        <ele>179</ele>
        <time>2015-11-11T15:13:29Z</time>
      </trkpt>
      <trkpt lat="43.68048" lon="1.2763">
        <ele>179.1</ele>
        <time>2015-11-11T15:13:30Z</time>
      </trkpt>
      <trkpt lat="43.6804" lon="1.27634">
        <ele>179.1</ele>
        <time>2015-11-11T15:13:31Z</time>
      </trkpt>
      <trkpt lat="43.68033" lon="1.27637">
        <ele>179.1</ele>
        <time>2015-11-11T15:13:32Z</time>
      </trkpt>
      <trkpt lat="43.68027" lon="1.2764">
        <ele>179.2</ele>
        <time>2015-11-11T15:13:33Z</time>
      </trkpt>
      <trkpt lat="43.68019" lon="1.27645">
        <ele>179.2</ele>
        <time>2015-11-11T15:13:34Z</time>
      </trkpt>
      <trkpt lat="43.68012" lon="1.2765">
        <ele>179.3</ele>
        <time>2015-11-11T15:13:35Z</time>
      </trkpt>
      <trkpt lat="43.68005" lon="1.27653">
        <ele>179.3</ele>
        <time>2015-11-11T15:13:36Z</time>
      </trkpt>
      <trkpt lat="43.68" lon="1.27655">
        <ele>179.4</ele>
        <time>2015-11-11T15:13:37Z</time>
      </trkpt>
      <trkpt lat="43.67994" lon="1.2766">
        <ele>179.4</ele>
        <time>2015-11-11T15:13:38Z</time>
      </trkpt>
      <trkpt lat="43.67989" lon="1.27667">
        <ele>179.5</ele>
        <time>2015-11-11T15:13:39Z</time>
      </trkpt>
      <trkpt lat="43.67984" lon="1.27673">
        <ele>179.6</ele>
        <time>2015-11-11T15:13:40Z</time>
      </trkpt>
      <trkpt lat="43.67978" lon="1.27679">
        <ele>179.7</ele>
        <time>2015-11-11T15:13:41Z</time>
      </trkpt>
      <trkpt lat="43.67972" lon="1.27686">
        <ele>179.7</ele>
        <time>2015-11-11T15:13:42Z</time>
      </trkpt>
      <trkpt lat="43.67966" lon="1.27691">
        <ele>179.8</ele>
        <time>2015-11-11T15:13:43Z</time>
      </trkpt>
      <trkpt lat="43.6796" lon="1.27697">
        <ele>179.9</ele>
        <time>2015-11-11T15:13:44Z</time>
      </trkpt>
      <trkpt lat="43.67954" lon="1.27702">
        <ele>179.9</ele>
        <time>2015-11-11T15:13:45Z</time>
      </trkpt>
      <trkpt lat="43.67949" lon="1.27709">
        <ele>180</ele>
        <time>2015-11-11T15:13:46Z</time>
      </trkpt>
      <trkpt lat="43.67946" lon="1.27711">
        <ele>180</ele>
        <time>2015-11-11T15:13:47Z</time>
      </trkpt>
      <trkpt lat="43.67939" lon="1.27718">
        <ele>180</ele>
        <time>2015-11-11T15:13:48Z</time>
      </trkpt>
      <trkpt lat="43.67934" lon="1.27724">
        <ele>180.1</ele>
        <time>2015-11-11T15:13:49Z</time>
      </trkpt>
      <trkpt lat="43.67929" lon="1.27727">
        <ele>180.1</ele>
        <time>2015-11-11T15:13:50Z</time>
      </trkpt>
      <trkpt lat="43.67922" lon="1.27731">
        <ele>180.1</ele>
        <time>2015-11-11T15:13:51Z</time>
      </trkpt>
      <trkpt lat="43.67917" lon="1.27737">
        <ele>180.2</ele>
        <time>2015-11-11T15:13:52Z</time>
      </trkpt>
      <trkpt lat="43.6791" lon="1.27744">
        <ele>180.2</ele>
        <time>2015-11-11T15:13:53Z</time>
      </trkpt>
      <trkpt lat="43.67904" lon="1.2775">
        <ele>180.3</ele>
        <time>2015-11-11T15:13:54Z</time>
      </trkpt>
      <trkpt lat="43.67898" lon="1.27755">
        <ele>180.4</ele>
        <time>2015-11-11T15:13:55Z</time>
      </trkpt>
      <trkpt lat="43.67892" lon="1.27761">
        <ele>180.5</ele>
        <time>2015-11-11T15:13:56Z</time>
      </trkpt>
      <trkpt lat="43.67886" lon="1.27766">
        <ele>180.6</ele>
        <time>2015-11-11T15:13:57Z</time>
      </trkpt>
      <trkpt lat="43.67879" lon="1.27772">
        <ele>180.7</ele>
        <time>2015-11-11T15:13:58Z</time>
      </trkpt>
      <trkpt lat="43.67874" lon="1.27779">
        <ele>180.8</ele>
        <time>2015-11-11T15:13:59Z</time>
      </trkpt>
      <trkpt lat="43.67867" lon="1.27786">
        <ele>180.7</ele>
        <time>2015-11-11T15:14:00Z</time>
      </trkpt>
      <trkpt lat="43.67861" lon="1.27792">
        <ele>180.5</ele>
        <time>2015-11-11T15:14:01Z</time>
      </trkpt>
      <trkpt lat="43.67855" lon="1.27799">
        <ele>180.4</ele>
        <time>2015-11-11T15:14:02Z</time>
      </trkpt>
      <trkpt lat="43.67848" lon="1.27806">
        <ele>180.4</ele>
        <time>2015-11-11T15:14:03Z</time>
      </trkpt>
      <trkpt lat="43.67841" lon="1.2781">
        <ele>180.3</ele>
        <time>2015-11-11T15:14:04Z</time>
      </trkpt>
      <trkpt lat="43.67835" lon="1.27816">
        <ele>180.3</ele>
        <time>2015-11-11T15:14:05Z</time>
      </trkpt>
      <trkpt lat="43.6783" lon="1.27823">
        <ele>180.4</ele>
        <time>2015-11-11T15:14:06Z</time>
      </trkpt>
      <trkpt lat="43.67826" lon="1.27827">
        <ele>180.4</ele>
        <time>2015-11-11T15:14:07Z</time>
      </trkpt>
      <trkpt lat="43.6782" lon="1.27834">
        <ele>180.5</ele>
        <time>2015-11-11T15:14:08Z</time>
      </trkpt>
      <trkpt lat="43.67813" lon="1.27841">
        <ele>180.7</ele>
        <time>2015-11-11T15:14:09Z</time>
      </trkpt>
      <trkpt lat="43.67807" lon="1.27848">
        <ele>180.9</ele>
        <time>2015-11-11T15:14:10Z</time>
      </trkpt>
      <trkpt lat="43.67803" lon="1.27854">
        <ele>181.1</ele>
        <time>2015-11-11T15:14:11Z</time>
      </trkpt>
      <trkpt lat="43.67802" lon="1.27858">
        <ele>181.2</ele>
        <time>2015-11-11T15:14:12Z</time>
      </trkpt>
      <trkpt lat="43.67796" lon="1.27864">
        <ele>181.5</ele>
        <time>2015-11-11T15:14:13Z</time>
      </trkpt>
      <trkpt lat="43.67791" lon="1.27871">
        <ele>181.8</ele>
        <time>2015-11-11T15:14:14Z</time>
      </trkpt>
      <trkpt lat="43.67786" lon="1.27877">
        <ele>182</ele>
        <time>2015-11-11T15:14:15Z</time>
      </trkpt>
      <trkpt lat="43.67781" lon="1.27884">
        <ele>181.9</ele>
        <time>2015-11-11T15:14:16Z</time>
      </trkpt>
      <trkpt lat="43.67775" lon="1.2789">
        <ele>181.8</ele>
        <time>2015-11-11T15:14:17Z</time>
      </trkpt>
      <trkpt lat="43.6777" lon="1.27896">
        <ele>181.7</ele>
        <time>2015-11-11T15:14:18Z</time>
      </trkpt>
      <trkpt lat="43.67764" lon="1.27903">
        <ele>181.6</ele>
        <time>2015-11-11T15:14:19Z</time>
      </trkpt>
      <trkpt lat="43.67758" lon="1.2791">
        <ele>181.4</ele>
        <time>2015-11-11T15:14:20Z</time>
      </trkpt>
      <trkpt lat="43.67753" lon="1.27917">
        <ele>181.3</ele>
        <time>2015-11-11T15:14:21Z</time>
      </trkpt>
      <trkpt lat="43.67748" lon="1.27924">
        <ele>181.1</ele>
        <time>2015-11-11T15:14:22Z</time>
      </trkpt>
      <trkpt lat="43.67741" lon="1.27933">
        <ele>180.9</ele>
        <time>2015-11-11T15:14:23Z</time>
      </trkpt>
      <trkpt lat="43.67735" lon="1.27942">
        <ele>180.7</ele>
        <time>2015-11-11T15:14:24Z</time>
      </trkpt>
      <trkpt lat="43.6773" lon="1.27948">
        <ele>180.5</ele>
        <time>2015-11-11T15:14:25Z</time>
      </trkpt>
      <trkpt lat="43.67723" lon="1.27955">
        <ele>180.3</ele>
        <time>2015-11-11T15:14:26Z</time>
      </trkpt>
      <trkpt lat="43.67716" lon="1.27961">
        <ele>180.1</ele>
        <time>2015-11-11T15:14:27Z</time>
      </trkpt>
      <trkpt lat="43.67711" lon="1.27967">
        <ele>180.1</ele>
        <time>2015-11-11T15:14:28Z</time>
      </trkpt>
      <trkpt lat="43.67705" lon="1.27973">
        <ele>180.2</ele>
        <time>2015-11-11T15:14:29Z</time>
      </trkpt>
      <trkpt lat="43.67698" lon="1.2798">
        <ele>180.4</ele>
        <time>2015-11-11T15:14:30Z</time>
      </trkpt>
      <trkpt lat="43.67693" lon="1.27986">
        <ele>180.6</ele>
        <time>2015-11-11T15:14:31Z</time>
      </trkpt>
      <trkpt lat="43.67687" lon="1.27991">
        <ele>180.8</ele>
        <time>2015-11-11T15:14:32Z</time>
      </trkpt>
      <trkpt lat="43.67679" lon="1.27997">
        <ele>181</ele>
        <time>2015-11-11T15:14:33Z</time>
      </trkpt>
      <trkpt lat="43.67673" lon="1.27999">
        <ele>181.1</ele>
        <time>2015-11-11T15:14:34Z</time>
      </trkpt>
      <trkpt lat="43.67668" lon="1.28006">
        <ele>181.3</ele>
        <time>2015-11-11T15:14:35Z</time>
      </trkpt>
      <trkpt lat="43.67662" lon="1.28011">
        <ele>181.5</ele>
        <time>2015-11-11T15:14:36Z</time>
      </trkpt>
      <trkpt lat="43.67655" lon="1.28016">
        <ele>181.8</ele>
        <time>2015-11-11T15:14:37Z</time>
      </trkpt>
      <trkpt lat="43.67649" lon="1.28022">
        <ele>182</ele>
        <time>2015-11-11T15:14:38Z</time>
      </trkpt>
      <trkpt lat="43.67643" lon="1.28028">
        <ele>182.3</ele>
        <time>2015-11-11T15:14:39Z</time>
      </trkpt>
      <trkpt lat="43.67638" lon="1.28034">
        <ele>182.5</ele>
        <time>2015-11-11T15:14:40Z</time>
      </trkpt>
      <trkpt lat="43.67632" lon="1.2804">
        <ele>182.8</ele>
        <time>2015-11-11T15:14:41Z</time>
      </trkpt>
      <trkpt lat="43.67627" lon="1.28044">
        <ele>182.9</ele>
        <time>2015-11-11T15:14:42Z</time>
      </trkpt>
      <trkpt lat="43.6762" lon="1.28048">
        <ele>182.8</ele>
        <time>2015-11-11T15:14:43Z</time>
      </trkpt>
      <trkpt lat="43.67613" lon="1.28054">
        <ele>182.7</ele>
        <time>2015-11-11T15:14:44Z</time>
      </trkpt>
      <trkpt lat="43.67607" lon="1.28059">
        <ele>182.5</ele>
        <time>2015-11-11T15:14:45Z</time>
      </trkpt>
      <trkpt lat="43.67602" lon="1.28064">
        <ele>182.5</ele>
        <time>2015-11-11T15:14:46Z</time>
      </trkpt>
      <trkpt lat="43.67595" lon="1.2807">
        <ele>182.4</ele>
        <time>2015-11-11T15:14:47Z</time>
      </trkpt>
      <trkpt lat="43.67588" lon="1.28075">
        <ele>182.4</ele>
        <time>2015-11-11T15:14:48Z</time>
      </trkpt>
      <trkpt lat="43.67583" lon="1.2808">
        <ele>182.5</ele>
        <time>2015-11-11T15:14:49Z</time>
      </trkpt>
      <trkpt lat="43.67578" lon="1.28085">
        <ele>182.5</ele>
        <time>2015-11-11T15:14:50Z</time>
      </trkpt>
      <trkpt lat="43.67573" lon="1.28091">
        <ele>182.6</ele>
        <time>2015-11-11T15:14:51Z</time>
      </trkpt>
      <trkpt lat="43.67567" lon="1.28097">
        <ele>182.8</ele>
        <time>2015-11-11T15:14:52Z</time>
      </trkpt>
      <trkpt lat="43.6756" lon="1.28103">
        <ele>183</ele>
        <time>2015-11-11T15:14:53Z</time>
      </trkpt>
      <trkpt lat="43.67553" lon="1.28108">
        <ele>183.2</ele>
        <time>2015-11-11T15:14:54Z</time>
      </trkpt>
      <trkpt lat="43.67546" lon="1.28113">
        <ele>183.5</ele>
        <time>2015-11-11T15:14:55Z</time>
      </trkpt>
      <trkpt lat="43.6754" lon="1.28118">
        <ele>183.7</ele>
        <time>2015-11-11T15:14:56Z</time>
      </trkpt>
      <trkpt lat="43.67533" lon="1.28123">
        <ele>183.6</ele>
        <time>2015-11-11T15:14:57Z</time>
      </trkpt>
      <trkpt lat="43.67528" lon="1.28128">
        <ele>183.5</ele>
        <time>2015-11-11T15:14:58Z</time>
      </trkpt>
      <trkpt lat="43.67522" lon="1.28134">
        <ele>183.2</ele>
        <time>2015-11-11T15:14:59Z</time>
      </trkpt>
      <trkpt lat="43.67516" lon="1.28139">
        <ele>183</ele>
        <time>2015-11-11T15:15:00Z</time>
      </trkpt>
      <trkpt lat="43.67509" lon="1.28146">
        <ele>182.8</ele>
        <time>2015-11-11T15:15:01Z</time>
      </trkpt>
      <trkpt lat="43.67502" lon="1.28151">
        <ele>182.6</ele>
        <time>2015-11-11T15:15:02Z</time>
      </trkpt>
      <trkpt lat="43.67496" lon="1.28156">
        <ele>182.4</ele>
        <time>2015-11-11T15:15:03Z</time>
      </trkpt>
      <trkpt lat="43.6749" lon="1.28163">
        <ele>182.2</ele>
        <time>2015-11-11T15:15:04Z</time>
      </trkpt>
      <trkpt lat="43.67485" lon="1.28168">
        <ele>182.1</ele>
        <time>2015-11-11T15:15:05Z</time>
      </trkpt>
      <trkpt lat="43.67476" lon="1.28171">
        <ele>182</ele>
        <time>2015-11-11T15:15:06Z</time>
      </trkpt>
      <trkpt lat="43.6747" lon="1.28175">
        <ele>181.8</ele>
        <time>2015-11-11T15:15:07Z</time>
      </trkpt>
      <trkpt lat="43.67467" lon="1.28179">
        <ele>181.8</ele>
        <time>2015-11-11T15:15:08Z</time>
      </trkpt>
      <trkpt lat="43.67461" lon="1.28183">
        <ele>181.8</ele>
        <time>2015-11-11T15:15:09Z</time>
      </trkpt>
      <trkpt lat="43.67457" lon="1.2819">
        <ele>181.8</ele>
        <time>2015-11-11T15:15:10Z</time>
      </trkpt>
      <trkpt lat="43.67451" lon="1.28192">
        <ele>181.7</ele>
        <time>2015-11-11T15:15:11Z</time>
      </trkpt>
      <trkpt lat="43.67445" lon="1.28198">
        <ele>181.7</ele>
        <time>2015-11-11T15:15:12Z</time>
      </trkpt>
      <trkpt lat="43.67439" lon="1.28204">
        <ele>181.7</ele>
        <time>2015-11-11T15:15:13Z</time>
      </trkpt>
      <trkpt lat="43.67432" lon="1.28208">
        <ele>181.7</ele>
        <time>2015-11-11T15:15:14Z</time>
      </trkpt>
      <trkpt lat="43.67427" lon="1.28214">
        <ele>181.6</ele>
        <time>2015-11-11T15:15:15Z</time>
      </trkpt>
      <trkpt lat="43.6742" lon="1.2822">
        <ele>181.6</ele>
        <time>2015-11-11T15:15:16Z</time>
      </trkpt>
      <trkpt lat="43.67414" lon="1.28226">
        <ele>181.6</ele>
        <time>2015-11-11T15:15:17Z</time>
      </trkpt>
      <trkpt lat="43.67409" lon="1.28232">
        <ele>181.6</ele>
        <time>2015-11-11T15:15:18Z</time>
      </trkpt>
      <trkpt lat="43.67403" lon="1.28237">
        <ele>181.6</ele>
        <time>2015-11-11T15:15:19Z</time>
      </trkpt>
      <trkpt lat="43.67397" lon="1.28244">
        <ele>181.6</ele>
        <time>2015-11-11T15:15:20Z</time>
      </trkpt>
      <trkpt lat="43.67391" lon="1.2825">
        <ele>181.6</ele>
        <time>2015-11-11T15:15:21Z</time>
      </trkpt>
      <trkpt lat="43.67385" lon="1.28254">
        <ele>181.6</ele>
        <time>2015-11-11T15:15:22Z</time>
      </trkpt>
      <trkpt lat="43.67379" lon="1.2826">
        <ele>181.6</ele>
        <time>2015-11-11T15:15:23Z</time>
      </trkpt>
      <trkpt lat="43.67374" lon="1.28265">
        <ele>181.7</ele>
        <time>2015-11-11T15:15:24Z</time>
      </trkpt>
      <trkpt lat="43.67367" lon="1.28272">
        <ele>181.9</ele>
        <time>2015-11-11T15:15:25Z</time>
      </trkpt>
      <trkpt lat="43.67362" lon="1.28277">
        <ele>182.1</ele>
        <time>2015-11-11T15:15:26Z</time>
      </trkpt>
      <trkpt lat="43.67354" lon="1.28283">
        <ele>182.4</ele>
        <time>2015-11-11T15:15:27Z</time>
      </trkpt>
      <trkpt lat="43.67348" lon="1.28287">
        <ele>182.6</ele>
        <time>2015-11-11T15:15:28Z</time>
      </trkpt>
      <trkpt lat="43.67344" lon="1.28292">
        <ele>182.7</ele>
        <time>2015-11-11T15:15:29Z</time>
      </trkpt>
      <trkpt lat="43.67338" lon="1.28298">
        <ele>182.7</ele>
        <time>2015-11-11T15:15:30Z</time>
      </trkpt>
      <trkpt lat="43.67332" lon="1.28303">
        <ele>182.7</ele>
        <time>2015-11-11T15:15:31Z</time>
      </trkpt>
      <trkpt lat="43.67327" lon="1.28307">
        <ele>182.8</ele>
        <time>2015-11-11T15:15:32Z</time>
      </trkpt>
      <trkpt lat="43.67321" lon="1.2831">
        <ele>182.8</ele>
        <time>2015-11-11T15:15:33Z</time>
      </trkpt>
      <trkpt lat="43.67315" lon="1.28314">
        <ele>182.8</ele>
        <time>2015-11-11T15:15:34Z</time>
      </trkpt>
      <trkpt lat="43.67309" lon="1.28317">
        <ele>182.8</ele>
        <time>2015-11-11T15:15:35Z</time>
      </trkpt>
      <trkpt lat="43.67301" lon="1.2832">
        <ele>182.8</ele>
        <time>2015-11-11T15:15:36Z</time>
      </trkpt>
      <trkpt lat="43.67295" lon="1.28324">
        <ele>182.8</ele>
        <time>2015-11-11T15:15:37Z</time>
      </trkpt>
      <trkpt lat="43.6729" lon="1.2833">
        <ele>182.6</ele>
        <time>2015-11-11T15:15:38Z</time>
      </trkpt>
      <trkpt lat="43.67287" lon="1.28336">
        <ele>182.3</ele>
        <time>2015-11-11T15:15:39Z</time>
      </trkpt>
      <trkpt lat="43.67285" lon="1.2834">
        <ele>182.1</ele>
        <time>2015-11-11T15:15:40Z</time>
      </trkpt>
      <trkpt lat="43.67282" lon="1.28346">
        <ele>181.9</ele>
        <time>2015-11-11T15:15:42Z</time>
      </trkpt>
      <trkpt lat="43.6728" lon="1.2835">
        <ele>181.7</ele>
        <time>2015-11-11T15:15:43Z</time>
      </trkpt>
    </trkseg>
  </trk>
</gpx>